<?xml version="1.0" encoding="UTF-8" standalone="no" ?>
<gpx xmlns="http://www.topografix.com/GPX/1/1" xmlns:xsi="http://www.w3.org/2001/XMLSchema-instance" xsi:schemaLocation="http://www.topografix.com/GPX/1/1 http://www.topografix.com/GPX/1/1/gpx.xsd" version="1.1" creator="VisuGPX - https://www.visugpx.com">
  <metadata>
    <name>Sens-Abbaye de la Pierre-Qui-Vire</name>
    <desc><![CDATA[Chemin de Compostelle 2014-1 : Sens-Abbaye de la Pierre-Qui-Vire]]></desc>
  </metadata>
  <trk>
    <name><![CDATA[Sens-Abbaye de la Pierre-Qui-Vire_1]]></name>
    <trkseg>
      <trkpt lat="48.19774" lon="3.28328">
        <ele>77</ele>
        <time>2014-04-13T10:05:49Z</time>
      </trkpt>
      <trkpt lat="48.19771" lon="3.28324">
        <ele>77</ele>
        <time>2014-04-13T10:06:07Z</time>
      </trkpt>
      <trkpt lat="48.19765" lon="3.28301">
        <ele>77</ele>
        <time>2014-04-13T10:06:22Z</time>
      </trkpt>
      <trkpt lat="48.1976" lon="3.28303">
        <ele>77</ele>
        <time>2014-04-13T10:06:27Z</time>
      </trkpt>
      <trkpt lat="48.19754" lon="3.28302">
        <ele>77</ele>
        <time>2014-04-13T10:06:30Z</time>
      </trkpt>
      <trkpt lat="48.19725" lon="3.2831">
        <ele>77</ele>
        <time>2014-04-13T10:07:02Z</time>
      </trkpt>
      <trkpt lat="48.19714" lon="3.28306">
        <ele>77</ele>
        <time>2014-04-13T10:07:11Z</time>
      </trkpt>
      <trkpt lat="48.1971" lon="3.28309">
        <ele>77</ele>
        <time>2014-04-13T10:07:16Z</time>
      </trkpt>
      <trkpt lat="48.19705" lon="3.2831">
        <ele>77</ele>
        <time>2014-04-13T10:07:21Z</time>
      </trkpt>
      <trkpt lat="48.197" lon="3.28308">
        <ele>77</ele>
        <time>2014-04-13T10:07:24Z</time>
      </trkpt>
      <trkpt lat="48.19695" lon="3.28307">
        <ele>77</ele>
        <time>2014-04-13T10:07:27Z</time>
      </trkpt>
      <trkpt lat="48.19691" lon="3.28306">
        <ele>77</ele>
        <time>2014-04-13T10:07:32Z</time>
      </trkpt>
      <trkpt lat="48.19685" lon="3.28307">
        <ele>77</ele>
        <time>2014-04-13T10:07:36Z</time>
      </trkpt>
      <trkpt lat="48.19674" lon="3.28308">
        <ele>77</ele>
        <time>2014-04-13T10:07:44Z</time>
      </trkpt>
      <trkpt lat="48.1967" lon="3.28311">
        <ele>77</ele>
        <time>2014-04-13T10:07:48Z</time>
      </trkpt>
      <trkpt lat="48.19663" lon="3.28321">
        <ele>77</ele>
        <time>2014-04-13T10:07:56Z</time>
      </trkpt>
      <trkpt lat="48.19653" lon="3.28322">
        <ele>76</ele>
        <time>2014-04-13T10:08:05Z</time>
      </trkpt>
      <trkpt lat="48.19648" lon="3.2832">
        <ele>76</ele>
        <time>2014-04-13T10:08:08Z</time>
      </trkpt>
      <trkpt lat="48.19642" lon="3.28318">
        <ele>76</ele>
        <time>2014-04-13T10:08:11Z</time>
      </trkpt>
      <trkpt lat="48.19637" lon="3.28319">
        <ele>76</ele>
        <time>2014-04-13T10:08:14Z</time>
      </trkpt>
      <trkpt lat="48.19631" lon="3.2832">
        <ele>76</ele>
        <time>2014-04-13T10:08:19Z</time>
      </trkpt>
      <trkpt lat="48.19627" lon="3.28318">
        <ele>76</ele>
        <time>2014-04-13T10:08:22Z</time>
      </trkpt>
      <trkpt lat="48.19621" lon="3.2832">
        <ele>76</ele>
        <time>2014-04-13T10:08:26Z</time>
      </trkpt>
      <trkpt lat="48.19616" lon="3.2832">
        <ele>76</ele>
        <time>2014-04-13T10:08:30Z</time>
      </trkpt>
      <trkpt lat="48.19607" lon="3.28326">
        <ele>76</ele>
        <time>2014-04-13T10:08:39Z</time>
      </trkpt>
      <trkpt lat="48.19602" lon="3.28328">
        <ele>76</ele>
        <time>2014-04-13T10:08:43Z</time>
      </trkpt>
      <trkpt lat="48.19595" lon="3.28329">
        <ele>75</ele>
        <time>2014-04-13T10:08:46Z</time>
      </trkpt>
      <trkpt lat="48.1959" lon="3.28328">
        <ele>75</ele>
        <time>2014-04-13T10:08:49Z</time>
      </trkpt>
      <trkpt lat="48.19585" lon="3.2833">
        <ele>75</ele>
        <time>2014-04-13T10:08:57Z</time>
      </trkpt>
      <trkpt lat="48.1958" lon="3.2833">
        <ele>75</ele>
        <time>2014-04-13T10:09:01Z</time>
      </trkpt>
      <trkpt lat="48.19576" lon="3.28335">
        <ele>75</ele>
        <time>2014-04-13T10:09:07Z</time>
      </trkpt>
      <trkpt lat="48.19571" lon="3.28336">
        <ele>75</ele>
        <time>2014-04-13T10:09:10Z</time>
      </trkpt>
      <trkpt lat="48.19567" lon="3.28335">
        <ele>75</ele>
        <time>2014-04-13T10:09:14Z</time>
      </trkpt>
      <trkpt lat="48.19562" lon="3.28335">
        <ele>75</ele>
        <time>2014-04-13T10:09:20Z</time>
      </trkpt>
      <trkpt lat="48.19557" lon="3.28337">
        <ele>75</ele>
        <time>2014-04-13T10:09:24Z</time>
      </trkpt>
      <trkpt lat="48.19552" lon="3.28338">
        <ele>74</ele>
        <time>2014-04-13T10:09:27Z</time>
      </trkpt>
      <trkpt lat="48.19547" lon="3.28337">
        <ele>74</ele>
        <time>2014-04-13T10:09:30Z</time>
      </trkpt>
      <trkpt lat="48.19542" lon="3.28337">
        <ele>74</ele>
        <time>2014-04-13T10:09:36Z</time>
      </trkpt>
      <trkpt lat="48.19538" lon="3.2834">
        <ele>74</ele>
        <time>2014-04-13T10:09:41Z</time>
      </trkpt>
      <trkpt lat="48.19532" lon="3.28341">
        <ele>74</ele>
        <time>2014-04-13T10:09:47Z</time>
      </trkpt>
      <trkpt lat="48.19529" lon="3.28346">
        <ele>74</ele>
        <time>2014-04-13T10:09:50Z</time>
      </trkpt>
      <trkpt lat="48.19523" lon="3.28349">
        <ele>74</ele>
        <time>2014-04-13T10:09:54Z</time>
      </trkpt>
      <trkpt lat="48.19513" lon="3.2835">
        <ele>74</ele>
        <time>2014-04-13T10:10:00Z</time>
      </trkpt>
      <trkpt lat="48.19508" lon="3.28352">
        <ele>74</ele>
        <time>2014-04-13T10:10:04Z</time>
      </trkpt>
      <trkpt lat="48.19504" lon="3.28351">
        <ele>74</ele>
        <time>2014-04-13T10:10:06Z</time>
      </trkpt>
      <trkpt lat="48.19498" lon="3.28352">
        <ele>73</ele>
        <time>2014-04-13T10:10:10Z</time>
      </trkpt>
      <trkpt lat="48.19494" lon="3.28356">
        <ele>73</ele>
        <time>2014-04-13T10:10:14Z</time>
      </trkpt>
      <trkpt lat="48.19484" lon="3.28362">
        <ele>73</ele>
        <time>2014-04-13T10:10:26Z</time>
      </trkpt>
      <trkpt lat="48.19479" lon="3.28362">
        <ele>73</ele>
        <time>2014-04-13T10:10:29Z</time>
      </trkpt>
      <trkpt lat="48.19474" lon="3.28362">
        <ele>73</ele>
        <time>2014-04-13T10:10:33Z</time>
      </trkpt>
      <trkpt lat="48.19469" lon="3.28363">
        <ele>73</ele>
        <time>2014-04-13T10:10:40Z</time>
      </trkpt>
      <trkpt lat="48.19464" lon="3.28365">
        <ele>73</ele>
        <time>2014-04-13T10:10:47Z</time>
      </trkpt>
      <trkpt lat="48.19458" lon="3.28365">
        <ele>74</ele>
        <time>2014-04-13T10:10:51Z</time>
      </trkpt>
      <trkpt lat="48.19453" lon="3.28364">
        <ele>74</ele>
        <time>2014-04-13T10:10:54Z</time>
      </trkpt>
      <trkpt lat="48.19448" lon="3.28362">
        <ele>74</ele>
        <time>2014-04-13T10:10:59Z</time>
      </trkpt>
      <trkpt lat="48.19442" lon="3.28358">
        <ele>74</ele>
        <time>2014-04-13T10:11:03Z</time>
      </trkpt>
      <trkpt lat="48.19438" lon="3.28356">
        <ele>74</ele>
        <time>2014-04-13T10:11:06Z</time>
      </trkpt>
      <trkpt lat="48.19432" lon="3.28355">
        <ele>74</ele>
        <time>2014-04-13T10:11:10Z</time>
      </trkpt>
      <trkpt lat="48.19428" lon="3.28352">
        <ele>74</ele>
        <time>2014-04-13T10:11:13Z</time>
      </trkpt>
      <trkpt lat="48.19422" lon="3.2835">
        <ele>74</ele>
        <time>2014-04-13T10:11:16Z</time>
      </trkpt>
      <trkpt lat="48.19417" lon="3.28351">
        <ele>74</ele>
        <time>2014-04-13T10:11:19Z</time>
      </trkpt>
      <trkpt lat="48.19402" lon="3.2836">
        <ele>73</ele>
        <time>2014-04-13T10:11:29Z</time>
      </trkpt>
      <trkpt lat="48.19397" lon="3.28363">
        <ele>73</ele>
        <time>2014-04-13T10:11:32Z</time>
      </trkpt>
      <trkpt lat="48.19393" lon="3.28367">
        <ele>73</ele>
        <time>2014-04-13T10:11:36Z</time>
      </trkpt>
      <trkpt lat="48.19389" lon="3.28369">
        <ele>73</ele>
        <time>2014-04-13T10:11:40Z</time>
      </trkpt>
      <trkpt lat="48.19384" lon="3.28369">
        <ele>73</ele>
        <time>2014-04-13T10:11:44Z</time>
      </trkpt>
      <trkpt lat="48.19379" lon="3.28365">
        <ele>73</ele>
        <time>2014-04-13T10:11:50Z</time>
      </trkpt>
      <trkpt lat="48.19375" lon="3.28368">
        <ele>73</ele>
        <time>2014-04-13T10:11:54Z</time>
      </trkpt>
      <trkpt lat="48.19371" lon="3.28371">
        <ele>73</ele>
        <time>2014-04-13T10:11:59Z</time>
      </trkpt>
      <trkpt lat="48.19368" lon="3.2837">
        <ele>73</ele>
        <time>2014-04-13T10:12:06Z</time>
      </trkpt>
      <trkpt lat="48.19362" lon="3.2836">
        <ele>73</ele>
        <time>2014-04-13T10:12:24Z</time>
      </trkpt>
      <trkpt lat="48.19364" lon="3.28352">
        <ele>73</ele>
        <time>2014-04-13T10:12:28Z</time>
      </trkpt>
      <trkpt lat="48.19366" lon="3.28345">
        <ele>73</ele>
        <time>2014-04-13T10:12:33Z</time>
      </trkpt>
      <trkpt lat="48.19367" lon="3.28337">
        <ele>73</ele>
        <time>2014-04-13T10:12:37Z</time>
      </trkpt>
      <trkpt lat="48.19367" lon="3.2833">
        <ele>73</ele>
        <time>2014-04-13T10:12:41Z</time>
      </trkpt>
      <trkpt lat="48.19369" lon="3.28323">
        <ele>73</ele>
        <time>2014-04-13T10:12:46Z</time>
      </trkpt>
      <trkpt lat="48.19373" lon="3.28317">
        <ele>73</ele>
        <time>2014-04-13T10:12:50Z</time>
      </trkpt>
      <trkpt lat="48.19377" lon="3.28285">
        <ele>74</ele>
        <time>2014-04-13T10:13:05Z</time>
      </trkpt>
      <trkpt lat="48.19377" lon="3.28276">
        <ele>74</ele>
        <time>2014-04-13T10:13:09Z</time>
      </trkpt>
      <trkpt lat="48.19374" lon="3.28262">
        <ele>73</ele>
        <time>2014-04-13T10:13:17Z</time>
      </trkpt>
      <trkpt lat="48.19373" lon="3.28254">
        <ele>73</ele>
        <time>2014-04-13T10:13:20Z</time>
      </trkpt>
      <trkpt lat="48.19371" lon="3.28247">
        <ele>73</ele>
        <time>2014-04-13T10:13:23Z</time>
      </trkpt>
      <trkpt lat="48.19374" lon="3.28241">
        <ele>73</ele>
        <time>2014-04-13T10:13:27Z</time>
      </trkpt>
      <trkpt lat="48.19377" lon="3.28234">
        <ele>74</ele>
        <time>2014-04-13T10:13:31Z</time>
      </trkpt>
      <trkpt lat="48.19378" lon="3.28227">
        <ele>74</ele>
        <time>2014-04-13T10:13:35Z</time>
      </trkpt>
      <trkpt lat="48.19374" lon="3.28222">
        <ele>73</ele>
        <time>2014-04-13T10:13:39Z</time>
      </trkpt>
      <trkpt lat="48.19372" lon="3.28207">
        <ele>73</ele>
        <time>2014-04-13T10:13:49Z</time>
      </trkpt>
      <trkpt lat="48.1937" lon="3.282">
        <ele>73</ele>
        <time>2014-04-13T10:13:53Z</time>
      </trkpt>
      <trkpt lat="48.19369" lon="3.28192">
        <ele>73</ele>
        <time>2014-04-13T10:13:57Z</time>
      </trkpt>
      <trkpt lat="48.19366" lon="3.28184">
        <ele>73</ele>
        <time>2014-04-13T10:14:02Z</time>
      </trkpt>
      <trkpt lat="48.19365" lon="3.28177">
        <ele>73</ele>
        <time>2014-04-13T10:14:06Z</time>
      </trkpt>
      <trkpt lat="48.19366" lon="3.28162">
        <ele>73</ele>
        <time>2014-04-13T10:14:14Z</time>
      </trkpt>
      <trkpt lat="48.19367" lon="3.28155">
        <ele>73</ele>
        <time>2014-04-13T10:14:18Z</time>
      </trkpt>
      <trkpt lat="48.19366" lon="3.28139">
        <ele>73</ele>
        <time>2014-04-13T10:14:26Z</time>
      </trkpt>
      <trkpt lat="48.19368" lon="3.28132">
        <ele>73</ele>
        <time>2014-04-13T10:14:29Z</time>
      </trkpt>
      <trkpt lat="48.19367" lon="3.28125">
        <ele>73</ele>
        <time>2014-04-13T10:14:32Z</time>
      </trkpt>
      <trkpt lat="48.19363" lon="3.28119">
        <ele>73</ele>
        <time>2014-04-13T10:14:37Z</time>
      </trkpt>
      <trkpt lat="48.19362" lon="3.28111">
        <ele>73</ele>
        <time>2014-04-13T10:14:42Z</time>
      </trkpt>
      <trkpt lat="48.19365" lon="3.28103">
        <ele>73</ele>
        <time>2014-04-13T10:14:45Z</time>
      </trkpt>
      <trkpt lat="48.19365" lon="3.28096">
        <ele>73</ele>
        <time>2014-04-13T10:14:49Z</time>
      </trkpt>
      <trkpt lat="48.19359" lon="3.28092">
        <ele>73</ele>
        <time>2014-04-13T10:14:52Z</time>
      </trkpt>
      <trkpt lat="48.19339" lon="3.28083">
        <ele>72</ele>
        <time>2014-04-13T10:15:02Z</time>
      </trkpt>
      <trkpt lat="48.19335" lon="3.28078">
        <ele>72</ele>
        <time>2014-04-13T10:15:06Z</time>
      </trkpt>
      <trkpt lat="48.19332" lon="3.28072">
        <ele>72</ele>
        <time>2014-04-13T10:15:11Z</time>
      </trkpt>
      <trkpt lat="48.19329" lon="3.28066">
        <ele>72</ele>
        <time>2014-04-13T10:15:15Z</time>
      </trkpt>
      <trkpt lat="48.19325" lon="3.28061">
        <ele>72</ele>
        <time>2014-04-13T10:15:19Z</time>
      </trkpt>
      <trkpt lat="48.19323" lon="3.28054">
        <ele>72</ele>
        <time>2014-04-13T10:15:23Z</time>
      </trkpt>
      <trkpt lat="48.19319" lon="3.28032">
        <ele>72</ele>
        <time>2014-04-13T10:15:34Z</time>
      </trkpt>
      <trkpt lat="48.19315" lon="3.28025">
        <ele>72</ele>
        <time>2014-04-13T10:15:38Z</time>
      </trkpt>
      <trkpt lat="48.19313" lon="3.28019">
        <ele>72</ele>
        <time>2014-04-13T10:15:42Z</time>
      </trkpt>
      <trkpt lat="48.1931" lon="3.28012">
        <ele>72</ele>
        <time>2014-04-13T10:15:46Z</time>
      </trkpt>
      <trkpt lat="48.19309" lon="3.28004">
        <ele>72</ele>
        <time>2014-04-13T10:15:51Z</time>
      </trkpt>
      <trkpt lat="48.19306" lon="3.27997">
        <ele>71</ele>
        <time>2014-04-13T10:15:56Z</time>
      </trkpt>
      <trkpt lat="48.19305" lon="3.27988">
        <ele>71</ele>
        <time>2014-04-13T10:16:02Z</time>
      </trkpt>
      <trkpt lat="48.19303" lon="3.27982">
        <ele>71</ele>
        <time>2014-04-13T10:16:05Z</time>
      </trkpt>
      <trkpt lat="48.19303" lon="3.27974">
        <ele>71</ele>
        <time>2014-04-13T10:16:11Z</time>
      </trkpt>
      <trkpt lat="48.19293" lon="3.27923">
        <ele>71</ele>
        <time>2014-04-13T10:16:37Z</time>
      </trkpt>
      <trkpt lat="48.19295" lon="3.27908">
        <ele>70</ele>
        <time>2014-04-13T10:16:48Z</time>
      </trkpt>
      <trkpt lat="48.19294" lon="3.27901">
        <ele>70</ele>
        <time>2014-04-13T10:16:52Z</time>
      </trkpt>
      <trkpt lat="48.19295" lon="3.27894">
        <ele>70</ele>
        <time>2014-04-13T10:16:58Z</time>
      </trkpt>
      <trkpt lat="48.19293" lon="3.27879">
        <ele>70</ele>
        <time>2014-04-13T10:17:06Z</time>
      </trkpt>
      <trkpt lat="48.19293" lon="3.27864">
        <ele>69</ele>
        <time>2014-04-13T10:17:14Z</time>
      </trkpt>
      <trkpt lat="48.19292" lon="3.27848">
        <ele>69</ele>
        <time>2014-04-13T10:17:22Z</time>
      </trkpt>
      <trkpt lat="48.19279" lon="3.27799">
        <ele>69</ele>
        <time>2014-04-13T10:17:50Z</time>
      </trkpt>
      <trkpt lat="48.19282" lon="3.27791">
        <ele>68</ele>
        <time>2014-04-13T10:17:53Z</time>
      </trkpt>
      <trkpt lat="48.19281" lon="3.27784">
        <ele>68</ele>
        <time>2014-04-13T10:17:59Z</time>
      </trkpt>
      <trkpt lat="48.19272" lon="3.27772">
        <ele>68</ele>
        <time>2014-04-13T10:18:05Z</time>
      </trkpt>
      <trkpt lat="48.19269" lon="3.27766">
        <ele>68</ele>
        <time>2014-04-13T10:18:09Z</time>
      </trkpt>
      <trkpt lat="48.19265" lon="3.27764">
        <ele>68</ele>
        <time>2014-04-13T10:18:11Z</time>
      </trkpt>
      <trkpt lat="48.19261" lon="3.2776">
        <ele>68</ele>
        <time>2014-04-13T10:18:17Z</time>
      </trkpt>
      <trkpt lat="48.19252" lon="3.27753">
        <ele>68</ele>
        <time>2014-04-13T10:18:23Z</time>
      </trkpt>
      <trkpt lat="48.19238" lon="3.27743">
        <ele>68</ele>
        <time>2014-04-13T10:18:35Z</time>
      </trkpt>
      <trkpt lat="48.19233" lon="3.27744">
        <ele>68</ele>
        <time>2014-04-13T10:18:39Z</time>
      </trkpt>
      <trkpt lat="48.19223" lon="3.27739">
        <ele>68</ele>
        <time>2014-04-13T10:18:47Z</time>
      </trkpt>
      <trkpt lat="48.19218" lon="3.27737">
        <ele>68</ele>
        <time>2014-04-13T10:18:52Z</time>
      </trkpt>
      <trkpt lat="48.19215" lon="3.2773">
        <ele>68</ele>
        <time>2014-04-13T10:18:55Z</time>
      </trkpt>
      <trkpt lat="48.19211" lon="3.27728">
        <ele>68</ele>
        <time>2014-04-13T10:19:00Z</time>
      </trkpt>
      <trkpt lat="48.19206" lon="3.27723">
        <ele>68</ele>
        <time>2014-04-13T10:19:04Z</time>
      </trkpt>
      <trkpt lat="48.19203" lon="3.27716">
        <ele>68</ele>
        <time>2014-04-13T10:19:08Z</time>
      </trkpt>
      <trkpt lat="48.19199" lon="3.27712">
        <ele>68</ele>
        <time>2014-04-13T10:19:12Z</time>
      </trkpt>
      <trkpt lat="48.19196" lon="3.27707">
        <ele>68</ele>
        <time>2014-04-13T10:19:15Z</time>
      </trkpt>
      <trkpt lat="48.19194" lon="3.27699">
        <ele>68</ele>
        <time>2014-04-13T10:19:18Z</time>
      </trkpt>
      <trkpt lat="48.19191" lon="3.27693">
        <ele>68</ele>
        <time>2014-04-13T10:19:21Z</time>
      </trkpt>
      <trkpt lat="48.19188" lon="3.27688">
        <ele>68</ele>
        <time>2014-04-13T10:19:24Z</time>
      </trkpt>
      <trkpt lat="48.19184" lon="3.27684">
        <ele>68</ele>
        <time>2014-04-13T10:19:28Z</time>
      </trkpt>
      <trkpt lat="48.1918" lon="3.27678">
        <ele>68</ele>
        <time>2014-04-13T10:19:32Z</time>
      </trkpt>
      <trkpt lat="48.19179" lon="3.2767">
        <ele>68</ele>
        <time>2014-04-13T10:19:40Z</time>
      </trkpt>
      <trkpt lat="48.19175" lon="3.27664">
        <ele>68</ele>
        <time>2014-04-13T10:19:43Z</time>
      </trkpt>
      <trkpt lat="48.19171" lon="3.27662">
        <ele>68</ele>
        <time>2014-04-13T10:19:46Z</time>
      </trkpt>
      <trkpt lat="48.19162" lon="3.27656">
        <ele>68</ele>
        <time>2014-04-13T10:19:54Z</time>
      </trkpt>
      <trkpt lat="48.19157" lon="3.27653">
        <ele>68</ele>
        <time>2014-04-13T10:19:58Z</time>
      </trkpt>
      <trkpt lat="48.19147" lon="3.2765">
        <ele>67</ele>
        <time>2014-04-13T10:20:06Z</time>
      </trkpt>
      <trkpt lat="48.19137" lon="3.27644">
        <ele>67</ele>
        <time>2014-04-13T10:20:15Z</time>
      </trkpt>
      <trkpt lat="48.19134" lon="3.2764">
        <ele>67</ele>
        <time>2014-04-13T10:20:20Z</time>
      </trkpt>
      <trkpt lat="48.19119" lon="3.27635">
        <ele>67</ele>
        <time>2014-04-13T10:20:30Z</time>
      </trkpt>
      <trkpt lat="48.19115" lon="3.27633">
        <ele>67</ele>
        <time>2014-04-13T10:20:33Z</time>
      </trkpt>
      <trkpt lat="48.19109" lon="3.27631">
        <ele>67</ele>
        <time>2014-04-13T10:20:37Z</time>
      </trkpt>
      <trkpt lat="48.19104" lon="3.27629">
        <ele>67</ele>
        <time>2014-04-13T10:20:41Z</time>
      </trkpt>
      <trkpt lat="48.191" lon="3.27626">
        <ele>67</ele>
        <time>2014-04-13T10:20:45Z</time>
      </trkpt>
      <trkpt lat="48.19096" lon="3.27622">
        <ele>67</ele>
        <time>2014-04-13T10:20:49Z</time>
      </trkpt>
      <trkpt lat="48.19091" lon="3.2762">
        <ele>67</ele>
        <time>2014-04-13T10:20:52Z</time>
      </trkpt>
      <trkpt lat="48.19086" lon="3.27621">
        <ele>67</ele>
        <time>2014-04-13T10:20:56Z</time>
      </trkpt>
      <trkpt lat="48.19076" lon="3.27618">
        <ele>67</ele>
        <time>2014-04-13T10:21:05Z</time>
      </trkpt>
      <trkpt lat="48.19064" lon="3.27608">
        <ele>67</ele>
        <time>2014-04-13T10:21:16Z</time>
      </trkpt>
      <trkpt lat="48.19058" lon="3.27606">
        <ele>67</ele>
        <time>2014-04-13T10:21:20Z</time>
      </trkpt>
      <trkpt lat="48.19053" lon="3.27604">
        <ele>67</ele>
        <time>2014-04-13T10:21:24Z</time>
      </trkpt>
      <trkpt lat="48.19044" lon="3.27597">
        <ele>67</ele>
        <time>2014-04-13T10:21:32Z</time>
      </trkpt>
      <trkpt lat="48.19039" lon="3.27594">
        <ele>67</ele>
        <time>2014-04-13T10:21:36Z</time>
      </trkpt>
      <trkpt lat="48.19035" lon="3.27592">
        <ele>67</ele>
        <time>2014-04-13T10:21:40Z</time>
      </trkpt>
      <trkpt lat="48.19016" lon="3.2758">
        <ele>67</ele>
        <time>2014-04-13T10:21:56Z</time>
      </trkpt>
      <trkpt lat="48.19011" lon="3.27579">
        <ele>67</ele>
        <time>2014-04-13T10:22:00Z</time>
      </trkpt>
      <trkpt lat="48.19006" lon="3.27576">
        <ele>67</ele>
        <time>2014-04-13T10:22:04Z</time>
      </trkpt>
      <trkpt lat="48.19001" lon="3.27574">
        <ele>67</ele>
        <time>2014-04-13T10:22:08Z</time>
      </trkpt>
      <trkpt lat="48.1899" lon="3.27569">
        <ele>67</ele>
        <time>2014-04-13T10:22:17Z</time>
      </trkpt>
      <trkpt lat="48.18985" lon="3.27568">
        <ele>67</ele>
        <time>2014-04-13T10:22:21Z</time>
      </trkpt>
      <trkpt lat="48.18975" lon="3.27567">
        <ele>67</ele>
        <time>2014-04-13T10:22:29Z</time>
      </trkpt>
      <trkpt lat="48.1897" lon="3.27565">
        <ele>67</ele>
        <time>2014-04-13T10:22:33Z</time>
      </trkpt>
      <trkpt lat="48.18966" lon="3.2756">
        <ele>67</ele>
        <time>2014-04-13T10:22:37Z</time>
      </trkpt>
      <trkpt lat="48.18956" lon="3.27555">
        <ele>67</ele>
        <time>2014-04-13T10:22:45Z</time>
      </trkpt>
      <trkpt lat="48.18951" lon="3.27553">
        <ele>67</ele>
        <time>2014-04-13T10:22:49Z</time>
      </trkpt>
      <trkpt lat="48.18946" lon="3.27554">
        <ele>67</ele>
        <time>2014-04-13T10:22:53Z</time>
      </trkpt>
      <trkpt lat="48.18941" lon="3.27552">
        <ele>67</ele>
        <time>2014-04-13T10:22:57Z</time>
      </trkpt>
      <trkpt lat="48.18927" lon="3.27542">
        <ele>67</ele>
        <time>2014-04-13T10:23:10Z</time>
      </trkpt>
      <trkpt lat="48.18923" lon="3.27536">
        <ele>66</ele>
        <time>2014-04-13T10:23:14Z</time>
      </trkpt>
      <trkpt lat="48.18919" lon="3.27531">
        <ele>66</ele>
        <time>2014-04-13T10:23:18Z</time>
      </trkpt>
      <trkpt lat="48.18914" lon="3.27528">
        <ele>67</ele>
        <time>2014-04-13T10:23:22Z</time>
      </trkpt>
      <trkpt lat="48.18909" lon="3.27524">
        <ele>66</ele>
        <time>2014-04-13T10:23:26Z</time>
      </trkpt>
      <trkpt lat="48.18904" lon="3.27522">
        <ele>66</ele>
        <time>2014-04-13T10:23:30Z</time>
      </trkpt>
      <trkpt lat="48.18899" lon="3.27519">
        <ele>67</ele>
        <time>2014-04-13T10:23:34Z</time>
      </trkpt>
      <trkpt lat="48.18895" lon="3.27517">
        <ele>67</ele>
        <time>2014-04-13T10:23:38Z</time>
      </trkpt>
      <trkpt lat="48.18891" lon="3.27513">
        <ele>67</ele>
        <time>2014-04-13T10:23:43Z</time>
      </trkpt>
      <trkpt lat="48.18886" lon="3.27512">
        <ele>67</ele>
        <time>2014-04-13T10:23:48Z</time>
      </trkpt>
      <trkpt lat="48.18881" lon="3.2751">
        <ele>67</ele>
        <time>2014-04-13T10:23:52Z</time>
      </trkpt>
      <trkpt lat="48.18876" lon="3.27508">
        <ele>67</ele>
        <time>2014-04-13T10:23:56Z</time>
      </trkpt>
      <trkpt lat="48.18872" lon="3.27507">
        <ele>67</ele>
        <time>2014-04-13T10:24:00Z</time>
      </trkpt>
      <trkpt lat="48.18862" lon="3.275">
        <ele>66</ele>
        <time>2014-04-13T10:24:08Z</time>
      </trkpt>
      <trkpt lat="48.18858" lon="3.27495">
        <ele>66</ele>
        <time>2014-04-13T10:24:12Z</time>
      </trkpt>
      <trkpt lat="48.18854" lon="3.27479">
        <ele>66</ele>
        <time>2014-04-13T10:24:20Z</time>
      </trkpt>
      <trkpt lat="48.1885" lon="3.27474">
        <ele>66</ele>
        <time>2014-04-13T10:24:26Z</time>
      </trkpt>
      <trkpt lat="48.18846" lon="3.27469">
        <ele>66</ele>
        <time>2014-04-13T10:24:31Z</time>
      </trkpt>
      <trkpt lat="48.18842" lon="3.27447">
        <ele>66</ele>
        <time>2014-04-13T10:24:43Z</time>
      </trkpt>
      <trkpt lat="48.18841" lon="3.2744">
        <ele>66</ele>
        <time>2014-04-13T10:24:47Z</time>
      </trkpt>
      <trkpt lat="48.18842" lon="3.27433">
        <ele>66</ele>
        <time>2014-04-13T10:24:51Z</time>
      </trkpt>
      <trkpt lat="48.18841" lon="3.27425">
        <ele>65</ele>
        <time>2014-04-13T10:24:55Z</time>
      </trkpt>
      <trkpt lat="48.18842" lon="3.27418">
        <ele>65</ele>
        <time>2014-04-13T10:24:59Z</time>
      </trkpt>
      <trkpt lat="48.1884" lon="3.27396">
        <ele>65</ele>
        <time>2014-04-13T10:25:12Z</time>
      </trkpt>
      <trkpt lat="48.18844" lon="3.2739">
        <ele>66</ele>
        <time>2014-04-13T10:25:18Z</time>
      </trkpt>
      <trkpt lat="48.18843" lon="3.27381">
        <ele>66</ele>
        <time>2014-04-13T10:25:22Z</time>
      </trkpt>
      <trkpt lat="48.18843" lon="3.27372">
        <ele>66</ele>
        <time>2014-04-13T10:25:26Z</time>
      </trkpt>
      <trkpt lat="48.18843" lon="3.27358">
        <ele>66</ele>
        <time>2014-04-13T10:25:32Z</time>
      </trkpt>
      <trkpt lat="48.18845" lon="3.27344">
        <ele>66</ele>
        <time>2014-04-13T10:25:38Z</time>
      </trkpt>
      <trkpt lat="48.18844" lon="3.27327">
        <ele>66</ele>
        <time>2014-04-13T10:25:45Z</time>
      </trkpt>
      <trkpt lat="48.18843" lon="3.2732">
        <ele>66</ele>
        <time>2014-04-13T10:25:50Z</time>
      </trkpt>
      <trkpt lat="48.18838" lon="3.27316">
        <ele>66</ele>
        <time>2014-04-13T10:25:53Z</time>
      </trkpt>
      <trkpt lat="48.18834" lon="3.27315">
        <ele>66</ele>
        <time>2014-04-13T10:25:56Z</time>
      </trkpt>
      <trkpt lat="48.18827" lon="3.27314">
        <ele>67</ele>
        <time>2014-04-13T10:26:00Z</time>
      </trkpt>
      <trkpt lat="48.18803" lon="3.27302">
        <ele>67</ele>
        <time>2014-04-13T10:26:17Z</time>
      </trkpt>
      <trkpt lat="48.18798" lon="3.27301">
        <ele>67</ele>
        <time>2014-04-13T10:26:21Z</time>
      </trkpt>
      <trkpt lat="48.18793" lon="3.27301">
        <ele>67</ele>
        <time>2014-04-13T10:26:25Z</time>
      </trkpt>
      <trkpt lat="48.18788" lon="3.27301">
        <ele>67</ele>
        <time>2014-04-13T10:26:30Z</time>
      </trkpt>
      <trkpt lat="48.18785" lon="3.27296">
        <ele>67</ele>
        <time>2014-04-13T10:26:33Z</time>
      </trkpt>
      <trkpt lat="48.1878" lon="3.27293">
        <ele>67</ele>
        <time>2014-04-13T10:26:37Z</time>
      </trkpt>
      <trkpt lat="48.18777" lon="3.27289">
        <ele>67</ele>
        <time>2014-04-13T10:26:40Z</time>
      </trkpt>
      <trkpt lat="48.18772" lon="3.27286">
        <ele>67</ele>
        <time>2014-04-13T10:26:44Z</time>
      </trkpt>
      <trkpt lat="48.18762" lon="3.27289">
        <ele>67</ele>
        <time>2014-04-13T10:26:51Z</time>
      </trkpt>
      <trkpt lat="48.18757" lon="3.27285">
        <ele>67</ele>
        <time>2014-04-13T10:26:57Z</time>
      </trkpt>
      <trkpt lat="48.18751" lon="3.27284">
        <ele>67</ele>
        <time>2014-04-13T10:27:02Z</time>
      </trkpt>
      <trkpt lat="48.18746" lon="3.27285">
        <ele>67</ele>
        <time>2014-04-13T10:27:07Z</time>
      </trkpt>
      <trkpt lat="48.18741" lon="3.27285">
        <ele>67</ele>
        <time>2014-04-13T10:27:11Z</time>
      </trkpt>
      <trkpt lat="48.18737" lon="3.27283">
        <ele>67</ele>
        <time>2014-04-13T10:27:15Z</time>
      </trkpt>
      <trkpt lat="48.18732" lon="3.27281">
        <ele>67</ele>
        <time>2014-04-13T10:27:19Z</time>
      </trkpt>
      <trkpt lat="48.18728" lon="3.27278">
        <ele>67</ele>
        <time>2014-04-13T10:27:22Z</time>
      </trkpt>
      <trkpt lat="48.18716" lon="3.27274">
        <ele>66</ele>
        <time>2014-04-13T10:27:28Z</time>
      </trkpt>
      <trkpt lat="48.18712" lon="3.27272">
        <ele>66</ele>
        <time>2014-04-13T10:27:30Z</time>
      </trkpt>
      <trkpt lat="48.18707" lon="3.2727">
        <ele>66</ele>
        <time>2014-04-13T10:27:33Z</time>
      </trkpt>
      <trkpt lat="48.18697" lon="3.27265">
        <ele>66</ele>
        <time>2014-04-13T10:27:42Z</time>
      </trkpt>
      <trkpt lat="48.18692" lon="3.27263">
        <ele>66</ele>
        <time>2014-04-13T10:27:45Z</time>
      </trkpt>
      <trkpt lat="48.18687" lon="3.27261">
        <ele>66</ele>
        <time>2014-04-13T10:27:48Z</time>
      </trkpt>
      <trkpt lat="48.18682" lon="3.27261">
        <ele>66</ele>
        <time>2014-04-13T10:27:53Z</time>
      </trkpt>
      <trkpt lat="48.18678" lon="3.27259">
        <ele>66</ele>
        <time>2014-04-13T10:27:57Z</time>
      </trkpt>
      <trkpt lat="48.18673" lon="3.27258">
        <ele>65</ele>
        <time>2014-04-13T10:28:01Z</time>
      </trkpt>
      <trkpt lat="48.18668" lon="3.27257">
        <ele>65</ele>
        <time>2014-04-13T10:28:05Z</time>
      </trkpt>
      <trkpt lat="48.18663" lon="3.27254">
        <ele>65</ele>
        <time>2014-04-13T10:28:09Z</time>
      </trkpt>
      <trkpt lat="48.18639" lon="3.27243">
        <ele>65</ele>
        <time>2014-04-13T10:28:31Z</time>
      </trkpt>
      <trkpt lat="48.18625" lon="3.27235">
        <ele>65</ele>
        <time>2014-04-13T10:28:43Z</time>
      </trkpt>
      <trkpt lat="48.18619" lon="3.27233">
        <ele>65</ele>
        <time>2014-04-13T10:28:48Z</time>
      </trkpt>
      <trkpt lat="48.18613" lon="3.27232">
        <ele>65</ele>
        <time>2014-04-13T10:28:52Z</time>
      </trkpt>
      <trkpt lat="48.18608" lon="3.2723">
        <ele>65</ele>
        <time>2014-04-13T10:28:56Z</time>
      </trkpt>
      <trkpt lat="48.18604" lon="3.27226">
        <ele>65</ele>
        <time>2014-04-13T10:29:00Z</time>
      </trkpt>
      <trkpt lat="48.18602" lon="3.27225">
        <ele>65</ele>
        <time>2014-04-13T10:29:39Z</time>
      </trkpt>
      <trkpt lat="48.18596" lon="3.27223">
        <ele>65</ele>
        <time>2014-04-13T10:29:44Z</time>
      </trkpt>
      <trkpt lat="48.18591" lon="3.27224">
        <ele>65</ele>
        <time>2014-04-13T10:29:50Z</time>
      </trkpt>
      <trkpt lat="48.18585" lon="3.27222">
        <ele>65</ele>
        <time>2014-04-13T10:29:54Z</time>
      </trkpt>
      <trkpt lat="48.1857" lon="3.27223">
        <ele>66</ele>
        <time>2014-04-13T10:30:06Z</time>
      </trkpt>
      <trkpt lat="48.18565" lon="3.27225">
        <ele>66</ele>
        <time>2014-04-13T10:30:10Z</time>
      </trkpt>
      <trkpt lat="48.1855" lon="3.27228">
        <ele>66</ele>
        <time>2014-04-13T10:30:22Z</time>
      </trkpt>
      <trkpt lat="48.18544" lon="3.2723">
        <ele>66</ele>
        <time>2014-04-13T10:30:28Z</time>
      </trkpt>
      <trkpt lat="48.18534" lon="3.2723">
        <ele>66</ele>
        <time>2014-04-13T10:30:36Z</time>
      </trkpt>
      <trkpt lat="48.18529" lon="3.27231">
        <ele>66</ele>
        <time>2014-04-13T10:30:41Z</time>
      </trkpt>
      <trkpt lat="48.1852" lon="3.27236">
        <ele>66</ele>
        <time>2014-04-13T10:30:49Z</time>
      </trkpt>
      <trkpt lat="48.18514" lon="3.27237">
        <ele>66</ele>
        <time>2014-04-13T10:30:53Z</time>
      </trkpt>
      <trkpt lat="48.18509" lon="3.27237">
        <ele>66</ele>
        <time>2014-04-13T10:30:57Z</time>
      </trkpt>
      <trkpt lat="48.18504" lon="3.27238">
        <ele>66</ele>
        <time>2014-04-13T10:31:01Z</time>
      </trkpt>
      <trkpt lat="48.18499" lon="3.27237">
        <ele>66</ele>
        <time>2014-04-13T10:31:06Z</time>
      </trkpt>
      <trkpt lat="48.18494" lon="3.27235">
        <ele>66</ele>
        <time>2014-04-13T10:31:10Z</time>
      </trkpt>
      <trkpt lat="48.1849" lon="3.27231">
        <ele>66</ele>
        <time>2014-04-13T10:31:15Z</time>
      </trkpt>
      <trkpt lat="48.18484" lon="3.27229">
        <ele>65</ele>
        <time>2014-04-13T10:31:20Z</time>
      </trkpt>
      <trkpt lat="48.18479" lon="3.27227">
        <ele>65</ele>
        <time>2014-04-13T10:31:24Z</time>
      </trkpt>
      <trkpt lat="48.18474" lon="3.27227">
        <ele>65</ele>
        <time>2014-04-13T10:31:28Z</time>
      </trkpt>
      <trkpt lat="48.1847" lon="3.27224">
        <ele>65</ele>
        <time>2014-04-13T10:31:32Z</time>
      </trkpt>
      <trkpt lat="48.18458" lon="3.27208">
        <ele>65</ele>
        <time>2014-04-13T10:31:42Z</time>
      </trkpt>
      <trkpt lat="48.18451" lon="3.27201">
        <ele>65</ele>
        <time>2014-04-13T10:31:51Z</time>
      </trkpt>
      <trkpt lat="48.18442" lon="3.27204">
        <ele>65</ele>
        <time>2014-04-13T10:31:58Z</time>
      </trkpt>
      <trkpt lat="48.18433" lon="3.27196">
        <ele>65</ele>
        <time>2014-04-13T10:32:06Z</time>
      </trkpt>
      <trkpt lat="48.18423" lon="3.27195">
        <ele>65</ele>
        <time>2014-04-13T10:32:15Z</time>
      </trkpt>
      <trkpt lat="48.18418" lon="3.27189">
        <ele>65</ele>
        <time>2014-04-13T10:32:20Z</time>
      </trkpt>
      <trkpt lat="48.18415" lon="3.27183">
        <ele>65</ele>
        <time>2014-04-13T10:32:24Z</time>
      </trkpt>
      <trkpt lat="48.1841" lon="3.27184">
        <ele>65</ele>
        <time>2014-04-13T10:32:28Z</time>
      </trkpt>
      <trkpt lat="48.18404" lon="3.27185">
        <ele>65</ele>
        <time>2014-04-13T10:32:32Z</time>
      </trkpt>
      <trkpt lat="48.184" lon="3.2718">
        <ele>65</ele>
        <time>2014-04-13T10:32:39Z</time>
      </trkpt>
      <trkpt lat="48.18395" lon="3.27178">
        <ele>65</ele>
        <time>2014-04-13T10:32:44Z</time>
      </trkpt>
      <trkpt lat="48.18385" lon="3.27176">
        <ele>65</ele>
        <time>2014-04-13T10:32:51Z</time>
      </trkpt>
      <trkpt lat="48.18381" lon="3.27179">
        <ele>65</ele>
        <time>2014-04-13T10:32:55Z</time>
      </trkpt>
      <trkpt lat="48.18375" lon="3.2718">
        <ele>65</ele>
        <time>2014-04-13T10:32:59Z</time>
      </trkpt>
      <trkpt lat="48.18364" lon="3.27178">
        <ele>65</ele>
        <time>2014-04-13T10:33:05Z</time>
      </trkpt>
      <trkpt lat="48.18355" lon="3.27172">
        <ele>65</ele>
        <time>2014-04-13T10:33:14Z</time>
      </trkpt>
      <trkpt lat="48.18349" lon="3.27174">
        <ele>65</ele>
        <time>2014-04-13T10:33:18Z</time>
      </trkpt>
      <trkpt lat="48.18344" lon="3.27173">
        <ele>65</ele>
        <time>2014-04-13T10:33:21Z</time>
      </trkpt>
      <trkpt lat="48.1834" lon="3.27168">
        <ele>65</ele>
        <time>2014-04-13T10:33:25Z</time>
      </trkpt>
      <trkpt lat="48.18335" lon="3.27155">
        <ele>65</ele>
        <time>2014-04-13T10:33:33Z</time>
      </trkpt>
      <trkpt lat="48.18331" lon="3.27149">
        <ele>65</ele>
        <time>2014-04-13T10:33:37Z</time>
      </trkpt>
      <trkpt lat="48.18321" lon="3.27151">
        <ele>65</ele>
        <time>2014-04-13T10:33:46Z</time>
      </trkpt>
      <trkpt lat="48.18316" lon="3.2715">
        <ele>65</ele>
        <time>2014-04-13T10:33:51Z</time>
      </trkpt>
      <trkpt lat="48.18311" lon="3.27153">
        <ele>65</ele>
        <time>2014-04-13T10:33:56Z</time>
      </trkpt>
      <trkpt lat="48.183" lon="3.27153">
        <ele>65</ele>
        <time>2014-04-13T10:34:03Z</time>
      </trkpt>
      <trkpt lat="48.1828" lon="3.27149">
        <ele>65</ele>
        <time>2014-04-13T10:34:18Z</time>
      </trkpt>
      <trkpt lat="48.18275" lon="3.27144">
        <ele>65</ele>
        <time>2014-04-13T10:34:22Z</time>
      </trkpt>
      <trkpt lat="48.18272" lon="3.27137">
        <ele>65</ele>
        <time>2014-04-13T10:34:26Z</time>
      </trkpt>
      <trkpt lat="48.18267" lon="3.27135">
        <ele>65</ele>
        <time>2014-04-13T10:34:30Z</time>
      </trkpt>
      <trkpt lat="48.18258" lon="3.27129">
        <ele>65</ele>
        <time>2014-04-13T10:34:42Z</time>
      </trkpt>
      <trkpt lat="48.18253" lon="3.27128">
        <ele>65</ele>
        <time>2014-04-13T10:34:47Z</time>
      </trkpt>
      <trkpt lat="48.18248" lon="3.27128">
        <ele>65</ele>
        <time>2014-04-13T10:34:50Z</time>
      </trkpt>
      <trkpt lat="48.18243" lon="3.27125">
        <ele>65</ele>
        <time>2014-04-13T10:34:54Z</time>
      </trkpt>
      <trkpt lat="48.18239" lon="3.27127">
        <ele>65</ele>
        <time>2014-04-13T10:34:59Z</time>
      </trkpt>
      <trkpt lat="48.18234" lon="3.27127">
        <ele>65</ele>
        <time>2014-04-13T10:35:02Z</time>
      </trkpt>
      <trkpt lat="48.18229" lon="3.27124">
        <ele>65</ele>
        <time>2014-04-13T10:35:05Z</time>
      </trkpt>
      <trkpt lat="48.18219" lon="3.27123">
        <ele>65</ele>
        <time>2014-04-13T10:35:13Z</time>
      </trkpt>
      <trkpt lat="48.18214" lon="3.27121">
        <ele>65</ele>
        <time>2014-04-13T10:35:18Z</time>
      </trkpt>
      <trkpt lat="48.18209" lon="3.27119">
        <ele>65</ele>
        <time>2014-04-13T10:35:22Z</time>
      </trkpt>
      <trkpt lat="48.18204" lon="3.27117">
        <ele>65</ele>
        <time>2014-04-13T10:35:26Z</time>
      </trkpt>
      <trkpt lat="48.18199" lon="3.27116">
        <ele>65</ele>
        <time>2014-04-13T10:35:30Z</time>
      </trkpt>
      <trkpt lat="48.18196" lon="3.27112">
        <ele>65</ele>
        <time>2014-04-13T10:35:36Z</time>
      </trkpt>
      <trkpt lat="48.1819" lon="3.2711">
        <ele>65</ele>
        <time>2014-04-13T10:35:39Z</time>
      </trkpt>
      <trkpt lat="48.18185" lon="3.27111">
        <ele>65</ele>
        <time>2014-04-13T10:35:45Z</time>
      </trkpt>
      <trkpt lat="48.1818" lon="3.2711">
        <ele>65</ele>
        <time>2014-04-13T10:35:49Z</time>
      </trkpt>
      <trkpt lat="48.18171" lon="3.27104">
        <ele>64</ele>
        <time>2014-04-13T10:35:55Z</time>
      </trkpt>
      <trkpt lat="48.18166" lon="3.27103">
        <ele>64</ele>
        <time>2014-04-13T10:35:59Z</time>
      </trkpt>
      <trkpt lat="48.18157" lon="3.27104">
        <ele>64</ele>
        <time>2014-04-13T10:36:07Z</time>
      </trkpt>
      <trkpt lat="48.18151" lon="3.27103">
        <ele>64</ele>
        <time>2014-04-13T10:36:12Z</time>
      </trkpt>
      <trkpt lat="48.18147" lon="3.27101">
        <ele>64</ele>
        <time>2014-04-13T10:36:16Z</time>
      </trkpt>
      <trkpt lat="48.18137" lon="3.27101">
        <ele>64</ele>
        <time>2014-04-13T10:36:24Z</time>
      </trkpt>
      <trkpt lat="48.18132" lon="3.27098">
        <ele>64</ele>
        <time>2014-04-13T10:36:29Z</time>
      </trkpt>
      <trkpt lat="48.18128" lon="3.27096">
        <ele>64</ele>
        <time>2014-04-13T10:36:33Z</time>
      </trkpt>
      <trkpt lat="48.18116" lon="3.27095">
        <ele>65</ele>
        <time>2014-04-13T10:36:41Z</time>
      </trkpt>
      <trkpt lat="48.18112" lon="3.27096">
        <ele>65</ele>
        <time>2014-04-13T10:36:45Z</time>
      </trkpt>
      <trkpt lat="48.18107" lon="3.27094">
        <ele>65</ele>
        <time>2014-04-13T10:36:49Z</time>
      </trkpt>
      <trkpt lat="48.18096" lon="3.27093">
        <ele>65</ele>
        <time>2014-04-13T10:36:58Z</time>
      </trkpt>
      <trkpt lat="48.18091" lon="3.27091">
        <ele>65</ele>
        <time>2014-04-13T10:37:02Z</time>
      </trkpt>
      <trkpt lat="48.18077" lon="3.27084">
        <ele>65</ele>
        <time>2014-04-13T10:37:15Z</time>
      </trkpt>
      <trkpt lat="48.18066" lon="3.2708">
        <ele>64</ele>
        <time>2014-04-13T10:37:24Z</time>
      </trkpt>
      <trkpt lat="48.18061" lon="3.2708">
        <ele>64</ele>
        <time>2014-04-13T10:37:29Z</time>
      </trkpt>
      <trkpt lat="48.1804" lon="3.27075">
        <ele>64</ele>
        <time>2014-04-13T10:37:47Z</time>
      </trkpt>
      <trkpt lat="48.18035" lon="3.27075">
        <ele>64</ele>
        <time>2014-04-13T10:37:52Z</time>
      </trkpt>
      <trkpt lat="48.18015" lon="3.27069">
        <ele>63</ele>
        <time>2014-04-13T10:38:08Z</time>
      </trkpt>
      <trkpt lat="48.1801" lon="3.27067">
        <ele>63</ele>
        <time>2014-04-13T10:38:12Z</time>
      </trkpt>
      <trkpt lat="48.17999" lon="3.27066">
        <ele>63</ele>
        <time>2014-04-13T10:38:22Z</time>
      </trkpt>
      <trkpt lat="48.17989" lon="3.27063">
        <ele>63</ele>
        <time>2014-04-13T10:38:31Z</time>
      </trkpt>
      <trkpt lat="48.17979" lon="3.27058">
        <ele>63</ele>
        <time>2014-04-13T10:38:40Z</time>
      </trkpt>
      <trkpt lat="48.17974" lon="3.27059">
        <ele>63</ele>
        <time>2014-04-13T10:38:44Z</time>
      </trkpt>
      <trkpt lat="48.17969" lon="3.2706">
        <ele>64</ele>
        <time>2014-04-13T10:38:48Z</time>
      </trkpt>
      <trkpt lat="48.17955" lon="3.27057">
        <ele>64</ele>
        <time>2014-04-13T10:39:01Z</time>
      </trkpt>
      <trkpt lat="48.1795" lon="3.27056">
        <ele>64</ele>
        <time>2014-04-13T10:39:05Z</time>
      </trkpt>
      <trkpt lat="48.17945" lon="3.27053">
        <ele>64</ele>
        <time>2014-04-13T10:39:09Z</time>
      </trkpt>
      <trkpt lat="48.17941" lon="3.27052">
        <ele>64</ele>
        <time>2014-04-13T10:39:13Z</time>
      </trkpt>
      <trkpt lat="48.17935" lon="3.27052">
        <ele>64</ele>
        <time>2014-04-13T10:39:18Z</time>
      </trkpt>
      <trkpt lat="48.17931" lon="3.2705">
        <ele>64</ele>
        <time>2014-04-13T10:39:22Z</time>
      </trkpt>
      <trkpt lat="48.17926" lon="3.2705">
        <ele>64</ele>
        <time>2014-04-13T10:39:26Z</time>
      </trkpt>
      <trkpt lat="48.17921" lon="3.27052">
        <ele>64</ele>
        <time>2014-04-13T10:39:30Z</time>
      </trkpt>
      <trkpt lat="48.17916" lon="3.27051">
        <ele>65</ele>
        <time>2014-04-13T10:39:34Z</time>
      </trkpt>
      <trkpt lat="48.17901" lon="3.27045">
        <ele>64</ele>
        <time>2014-04-13T10:39:47Z</time>
      </trkpt>
      <trkpt lat="48.17896" lon="3.27043">
        <ele>64</ele>
        <time>2014-04-13T10:39:51Z</time>
      </trkpt>
      <trkpt lat="48.17884" lon="3.27042">
        <ele>64</ele>
        <time>2014-04-13T10:40:00Z</time>
      </trkpt>
      <trkpt lat="48.1788" lon="3.2704">
        <ele>64</ele>
        <time>2014-04-13T10:40:04Z</time>
      </trkpt>
      <trkpt lat="48.17876" lon="3.27036">
        <ele>64</ele>
        <time>2014-04-13T10:40:09Z</time>
      </trkpt>
      <trkpt lat="48.1787" lon="3.27034">
        <ele>64</ele>
        <time>2014-04-13T10:40:13Z</time>
      </trkpt>
      <trkpt lat="48.17863" lon="3.27032">
        <ele>64</ele>
        <time>2014-04-13T10:40:22Z</time>
      </trkpt>
      <trkpt lat="48.17853" lon="3.27034">
        <ele>64</ele>
        <time>2014-04-13T10:40:29Z</time>
      </trkpt>
      <trkpt lat="48.17848" lon="3.27037">
        <ele>64</ele>
        <time>2014-04-13T10:40:32Z</time>
      </trkpt>
      <trkpt lat="48.17843" lon="3.27039">
        <ele>64</ele>
        <time>2014-04-13T10:40:35Z</time>
      </trkpt>
      <trkpt lat="48.17839" lon="3.27043">
        <ele>64</ele>
        <time>2014-04-13T10:40:38Z</time>
      </trkpt>
      <trkpt lat="48.17834" lon="3.27045">
        <ele>64</ele>
        <time>2014-04-13T10:40:42Z</time>
      </trkpt>
      <trkpt lat="48.17828" lon="3.27045">
        <ele>64</ele>
        <time>2014-04-13T10:40:47Z</time>
      </trkpt>
      <trkpt lat="48.17824" lon="3.27043">
        <ele>64</ele>
        <time>2014-04-13T10:40:51Z</time>
      </trkpt>
      <trkpt lat="48.17819" lon="3.27042">
        <ele>64</ele>
        <time>2014-04-13T10:40:55Z</time>
      </trkpt>
      <trkpt lat="48.17813" lon="3.27041">
        <ele>64</ele>
        <time>2014-04-13T10:40:59Z</time>
      </trkpt>
      <trkpt lat="48.17809" lon="3.27043">
        <ele>64</ele>
        <time>2014-04-13T10:41:03Z</time>
      </trkpt>
      <trkpt lat="48.17799" lon="3.27041">
        <ele>64</ele>
        <time>2014-04-13T10:41:12Z</time>
      </trkpt>
      <trkpt lat="48.17795" lon="3.27039">
        <ele>64</ele>
        <time>2014-04-13T10:41:16Z</time>
      </trkpt>
      <trkpt lat="48.1779" lon="3.27036">
        <ele>64</ele>
        <time>2014-04-13T10:41:21Z</time>
      </trkpt>
      <trkpt lat="48.17784" lon="3.27031">
        <ele>64</ele>
        <time>2014-04-13T10:41:26Z</time>
      </trkpt>
      <trkpt lat="48.17779" lon="3.2703">
        <ele>64</ele>
        <time>2014-04-13T10:41:30Z</time>
      </trkpt>
      <trkpt lat="48.17768" lon="3.27028">
        <ele>64</ele>
        <time>2014-04-13T10:41:37Z</time>
      </trkpt>
      <trkpt lat="48.17763" lon="3.27027">
        <ele>64</ele>
        <time>2014-04-13T10:41:40Z</time>
      </trkpt>
      <trkpt lat="48.17758" lon="3.27027">
        <ele>64</ele>
        <time>2014-04-13T10:41:45Z</time>
      </trkpt>
      <trkpt lat="48.17748" lon="3.27022">
        <ele>64</ele>
        <time>2014-04-13T10:41:53Z</time>
      </trkpt>
      <trkpt lat="48.17744" lon="3.27021">
        <ele>64</ele>
        <time>2014-04-13T10:41:56Z</time>
      </trkpt>
      <trkpt lat="48.17738" lon="3.2702">
        <ele>64</ele>
        <time>2014-04-13T10:42:00Z</time>
      </trkpt>
      <trkpt lat="48.17734" lon="3.27017">
        <ele>64</ele>
        <time>2014-04-13T10:42:03Z</time>
      </trkpt>
      <trkpt lat="48.17729" lon="3.27014">
        <ele>64</ele>
        <time>2014-04-13T10:42:08Z</time>
      </trkpt>
      <trkpt lat="48.17725" lon="3.27015">
        <ele>64</ele>
        <time>2014-04-13T10:42:12Z</time>
      </trkpt>
      <trkpt lat="48.1772" lon="3.27013">
        <ele>64</ele>
        <time>2014-04-13T10:42:16Z</time>
      </trkpt>
      <trkpt lat="48.17716" lon="3.27011">
        <ele>64</ele>
        <time>2014-04-13T10:42:20Z</time>
      </trkpt>
      <trkpt lat="48.17701" lon="3.27006">
        <ele>64</ele>
        <time>2014-04-13T10:42:34Z</time>
      </trkpt>
      <trkpt lat="48.17695" lon="3.27005">
        <ele>64</ele>
        <time>2014-04-13T10:42:38Z</time>
      </trkpt>
      <trkpt lat="48.17686" lon="3.27">
        <ele>63</ele>
        <time>2014-04-13T10:42:46Z</time>
      </trkpt>
      <trkpt lat="48.17681" lon="3.26999">
        <ele>64</ele>
        <time>2014-04-13T10:42:51Z</time>
      </trkpt>
      <trkpt lat="48.17677" lon="3.26996">
        <ele>64</ele>
        <time>2014-04-13T10:42:55Z</time>
      </trkpt>
      <trkpt lat="48.17672" lon="3.26995">
        <ele>63</ele>
        <time>2014-04-13T10:43:00Z</time>
      </trkpt>
      <trkpt lat="48.17667" lon="3.26994">
        <ele>63</ele>
        <time>2014-04-13T10:43:06Z</time>
      </trkpt>
      <trkpt lat="48.17663" lon="3.26989">
        <ele>63</ele>
        <time>2014-04-13T10:43:12Z</time>
      </trkpt>
      <trkpt lat="48.17666" lon="3.26994">
        <ele>63</ele>
        <time>2014-04-13T10:44:00Z</time>
      </trkpt>
      <trkpt lat="48.17662" lon="3.26996">
        <ele>63</ele>
        <time>2014-04-13T10:44:38Z</time>
      </trkpt>
      <trkpt lat="48.17661" lon="3.26992">
        <ele>63</ele>
        <time>2014-04-13T10:45:01Z</time>
      </trkpt>
      <trkpt lat="48.17661" lon="3.2699">
        <ele>63</ele>
        <time>2014-04-13T10:46:05Z</time>
      </trkpt>
      <trkpt lat="48.1766" lon="3.26993">
        <ele>63</ele>
        <time>2014-04-13T10:46:43Z</time>
      </trkpt>
      <trkpt lat="48.17665" lon="3.26995">
        <ele>63</ele>
        <time>2014-04-13T10:46:47Z</time>
      </trkpt>
      <trkpt lat="48.17667" lon="3.26989">
        <ele>64</ele>
        <time>2014-04-13T10:47:54Z</time>
      </trkpt>
      <trkpt lat="48.1767" lon="3.26992">
        <ele>63</ele>
        <time>2014-04-13T10:48:21Z</time>
      </trkpt>
      <trkpt lat="48.17667" lon="3.26993">
        <ele>63</ele>
        <time>2014-04-13T10:48:55Z</time>
      </trkpt>
      <trkpt lat="48.17662" lon="3.26996">
        <ele>63</ele>
        <time>2014-04-13T10:49:00Z</time>
      </trkpt>
      <trkpt lat="48.17656" lon="3.26997">
        <ele>63</ele>
        <time>2014-04-13T10:49:05Z</time>
      </trkpt>
      <trkpt lat="48.17651" lon="3.26994">
        <ele>63</ele>
        <time>2014-04-13T10:49:09Z</time>
      </trkpt>
      <trkpt lat="48.17645" lon="3.26993">
        <ele>63</ele>
        <time>2014-04-13T10:49:13Z</time>
      </trkpt>
      <trkpt lat="48.17638" lon="3.26983">
        <ele>64</ele>
        <time>2014-04-13T10:49:20Z</time>
      </trkpt>
      <trkpt lat="48.17634" lon="3.26978">
        <ele>64</ele>
        <time>2014-04-13T10:49:23Z</time>
      </trkpt>
      <trkpt lat="48.1763" lon="3.26974">
        <ele>64</ele>
        <time>2014-04-13T10:49:26Z</time>
      </trkpt>
      <trkpt lat="48.17625" lon="3.26972">
        <ele>64</ele>
        <time>2014-04-13T10:49:30Z</time>
      </trkpt>
      <trkpt lat="48.17615" lon="3.26966">
        <ele>64</ele>
        <time>2014-04-13T10:49:40Z</time>
      </trkpt>
      <trkpt lat="48.1761" lon="3.26965">
        <ele>64</ele>
        <time>2014-04-13T10:49:44Z</time>
      </trkpt>
      <trkpt lat="48.17605" lon="3.26964">
        <ele>64</ele>
        <time>2014-04-13T10:49:48Z</time>
      </trkpt>
      <trkpt lat="48.17601" lon="3.26962">
        <ele>64</ele>
        <time>2014-04-13T10:49:51Z</time>
      </trkpt>
      <trkpt lat="48.17597" lon="3.26954">
        <ele>64</ele>
        <time>2014-04-13T10:50:00Z</time>
      </trkpt>
      <trkpt lat="48.17593" lon="3.26948">
        <ele>64</ele>
        <time>2014-04-13T10:50:06Z</time>
      </trkpt>
      <trkpt lat="48.17589" lon="3.26943">
        <ele>64</ele>
        <time>2014-04-13T10:50:11Z</time>
      </trkpt>
      <trkpt lat="48.17583" lon="3.26941">
        <ele>65</ele>
        <time>2014-04-13T10:50:15Z</time>
      </trkpt>
      <trkpt lat="48.17578" lon="3.26938">
        <ele>65</ele>
        <time>2014-04-13T10:50:19Z</time>
      </trkpt>
      <trkpt lat="48.17574" lon="3.26934">
        <ele>65</ele>
        <time>2014-04-13T10:50:23Z</time>
      </trkpt>
      <trkpt lat="48.17569" lon="3.26932">
        <ele>65</ele>
        <time>2014-04-13T10:50:27Z</time>
      </trkpt>
      <trkpt lat="48.17565" lon="3.26929">
        <ele>65</ele>
        <time>2014-04-13T10:50:33Z</time>
      </trkpt>
      <trkpt lat="48.17539" lon="3.26926">
        <ele>66</ele>
        <time>2014-04-13T10:50:55Z</time>
      </trkpt>
      <trkpt lat="48.17536" lon="3.26931">
        <ele>66</ele>
        <time>2014-04-13T10:51:00Z</time>
      </trkpt>
      <trkpt lat="48.17533" lon="3.26937">
        <ele>66</ele>
        <time>2014-04-13T10:51:04Z</time>
      </trkpt>
      <trkpt lat="48.17533" lon="3.26942">
        <ele>65</ele>
        <time>2014-04-13T10:51:11Z</time>
      </trkpt>
      <trkpt lat="48.17539" lon="3.26939">
        <ele>65</ele>
        <time>2014-04-13T10:51:31Z</time>
      </trkpt>
      <trkpt lat="48.17537" lon="3.26937">
        <ele>65</ele>
        <time>2014-04-13T10:52:25Z</time>
      </trkpt>
      <trkpt lat="48.17536" lon="3.26938">
        <ele>65</ele>
        <time>2014-04-13T10:52:46Z</time>
      </trkpt>
      <trkpt lat="48.17542" lon="3.26929">
        <ele>65</ele>
        <time>2014-04-13T10:53:05Z</time>
      </trkpt>
      <trkpt lat="48.17542" lon="3.26934">
        <ele>65</ele>
        <time>2014-04-13T10:53:18Z</time>
      </trkpt>
      <trkpt lat="48.17542" lon="3.26941">
        <ele>65</ele>
        <time>2014-04-13T10:53:21Z</time>
      </trkpt>
      <trkpt lat="48.17533" lon="3.26969">
        <ele>65</ele>
        <time>2014-04-13T10:53:35Z</time>
      </trkpt>
      <trkpt lat="48.17532" lon="3.26976">
        <ele>65</ele>
        <time>2014-04-13T10:53:39Z</time>
      </trkpt>
      <trkpt lat="48.17528" lon="3.26982">
        <ele>65</ele>
        <time>2014-04-13T10:53:44Z</time>
      </trkpt>
      <trkpt lat="48.17515" lon="3.27015">
        <ele>64</ele>
        <time>2014-04-13T10:54:09Z</time>
      </trkpt>
      <trkpt lat="48.17511" lon="3.27033">
        <ele>63</ele>
        <time>2014-04-13T10:54:16Z</time>
      </trkpt>
      <trkpt lat="48.17505" lon="3.27045">
        <ele>63</ele>
        <time>2014-04-13T10:54:23Z</time>
      </trkpt>
      <trkpt lat="48.17504" lon="3.27054">
        <ele>63</ele>
        <time>2014-04-13T10:54:32Z</time>
      </trkpt>
      <trkpt lat="48.17497" lon="3.27064">
        <ele>65</ele>
        <time>2014-04-13T10:54:45Z</time>
      </trkpt>
      <trkpt lat="48.17493" lon="3.2707">
        <ele>64</ele>
        <time>2014-04-13T10:54:52Z</time>
      </trkpt>
      <trkpt lat="48.17483" lon="3.27086">
        <ele>64</ele>
        <time>2014-04-13T10:55:06Z</time>
      </trkpt>
      <trkpt lat="48.17482" lon="3.27093">
        <ele>64</ele>
        <time>2014-04-13T10:55:10Z</time>
      </trkpt>
      <trkpt lat="48.17479" lon="3.27097">
        <ele>65</ele>
        <time>2014-04-13T10:55:12Z</time>
      </trkpt>
      <trkpt lat="48.17476" lon="3.27103">
        <ele>65</ele>
        <time>2014-04-13T10:55:16Z</time>
      </trkpt>
      <trkpt lat="48.17469" lon="3.27107">
        <ele>65</ele>
        <time>2014-04-13T10:55:28Z</time>
      </trkpt>
      <trkpt lat="48.17464" lon="3.2712">
        <ele>65</ele>
        <time>2014-04-13T10:55:37Z</time>
      </trkpt>
      <trkpt lat="48.1746" lon="3.27126">
        <ele>65</ele>
        <time>2014-04-13T10:55:41Z</time>
      </trkpt>
      <trkpt lat="48.17453" lon="3.27136">
        <ele>65</ele>
        <time>2014-04-13T10:55:50Z</time>
      </trkpt>
      <trkpt lat="48.17448" lon="3.27151">
        <ele>65</ele>
        <time>2014-04-13T10:55:57Z</time>
      </trkpt>
      <trkpt lat="48.17436" lon="3.27163">
        <ele>66</ele>
        <time>2014-04-13T10:56:16Z</time>
      </trkpt>
      <trkpt lat="48.17432" lon="3.27177">
        <ele>65</ele>
        <time>2014-04-13T10:56:22Z</time>
      </trkpt>
      <trkpt lat="48.17427" lon="3.27187">
        <ele>65</ele>
        <time>2014-04-13T10:56:30Z</time>
      </trkpt>
      <trkpt lat="48.17424" lon="3.27192">
        <ele>65</ele>
        <time>2014-04-13T10:56:34Z</time>
      </trkpt>
      <trkpt lat="48.17416" lon="3.272">
        <ele>66</ele>
        <time>2014-04-13T10:56:42Z</time>
      </trkpt>
      <trkpt lat="48.17411" lon="3.27204">
        <ele>66</ele>
        <time>2014-04-13T10:56:46Z</time>
      </trkpt>
      <trkpt lat="48.17402" lon="3.27216">
        <ele>66</ele>
        <time>2014-04-13T10:56:54Z</time>
      </trkpt>
      <trkpt lat="48.17397" lon="3.27227">
        <ele>66</ele>
        <time>2014-04-13T10:57:01Z</time>
      </trkpt>
      <trkpt lat="48.17393" lon="3.27227">
        <ele>66</ele>
        <time>2014-04-13T10:57:10Z</time>
      </trkpt>
      <trkpt lat="48.17383" lon="3.27232">
        <ele>66</ele>
        <time>2014-04-13T10:57:18Z</time>
      </trkpt>
      <trkpt lat="48.17372" lon="3.27268">
        <ele>66</ele>
        <time>2014-04-13T10:57:34Z</time>
      </trkpt>
      <trkpt lat="48.17363" lon="3.27286">
        <ele>66</ele>
        <time>2014-04-13T10:57:44Z</time>
      </trkpt>
      <trkpt lat="48.17359" lon="3.27291">
        <ele>65</ele>
        <time>2014-04-13T10:57:48Z</time>
      </trkpt>
      <trkpt lat="48.17353" lon="3.27305">
        <ele>65</ele>
        <time>2014-04-13T10:57:54Z</time>
      </trkpt>
      <trkpt lat="48.17341" lon="3.2732">
        <ele>65</ele>
        <time>2014-04-13T10:58:07Z</time>
      </trkpt>
      <trkpt lat="48.17338" lon="3.27328">
        <ele>65</ele>
        <time>2014-04-13T10:58:12Z</time>
      </trkpt>
      <trkpt lat="48.17326" lon="3.27349">
        <ele>65</ele>
        <time>2014-04-13T10:58:26Z</time>
      </trkpt>
      <trkpt lat="48.17316" lon="3.27367">
        <ele>65</ele>
        <time>2014-04-13T10:58:37Z</time>
      </trkpt>
      <trkpt lat="48.17312" lon="3.27372">
        <ele>65</ele>
        <time>2014-04-13T10:58:41Z</time>
      </trkpt>
      <trkpt lat="48.173" lon="3.2739">
        <ele>64</ele>
        <time>2014-04-13T10:58:52Z</time>
      </trkpt>
      <trkpt lat="48.17291" lon="3.27397">
        <ele>64</ele>
        <time>2014-04-13T10:59:02Z</time>
      </trkpt>
      <trkpt lat="48.17277" lon="3.27417">
        <ele>64</ele>
        <time>2014-04-13T10:59:15Z</time>
      </trkpt>
      <trkpt lat="48.17273" lon="3.27416">
        <ele>64</ele>
        <time>2014-04-13T10:59:20Z</time>
      </trkpt>
      <trkpt lat="48.17269" lon="3.27412">
        <ele>64</ele>
        <time>2014-04-13T10:59:24Z</time>
      </trkpt>
      <trkpt lat="48.17263" lon="3.27418">
        <ele>63</ele>
        <time>2014-04-13T10:59:31Z</time>
      </trkpt>
      <trkpt lat="48.1726" lon="3.27426">
        <ele>63</ele>
        <time>2014-04-13T10:59:34Z</time>
      </trkpt>
      <trkpt lat="48.17239" lon="3.2745">
        <ele>64</ele>
        <time>2014-04-13T10:59:57Z</time>
      </trkpt>
      <trkpt lat="48.17232" lon="3.27461">
        <ele>64</ele>
        <time>2014-04-13T11:00:06Z</time>
      </trkpt>
      <trkpt lat="48.17228" lon="3.27466">
        <ele>64</ele>
        <time>2014-04-13T11:00:10Z</time>
      </trkpt>
      <trkpt lat="48.17223" lon="3.27468">
        <ele>64</ele>
        <time>2014-04-13T11:00:14Z</time>
      </trkpt>
      <trkpt lat="48.17218" lon="3.27472">
        <ele>64</ele>
        <time>2014-04-13T11:00:18Z</time>
      </trkpt>
      <trkpt lat="48.17214" lon="3.27477">
        <ele>64</ele>
        <time>2014-04-13T11:00:22Z</time>
      </trkpt>
      <trkpt lat="48.17209" lon="3.27478">
        <ele>64</ele>
        <time>2014-04-13T11:00:26Z</time>
      </trkpt>
      <trkpt lat="48.17205" lon="3.27481">
        <ele>64</ele>
        <time>2014-04-13T11:00:31Z</time>
      </trkpt>
      <trkpt lat="48.172" lon="3.27483">
        <ele>64</ele>
        <time>2014-04-13T11:00:36Z</time>
      </trkpt>
      <trkpt lat="48.17195" lon="3.27486">
        <ele>64</ele>
        <time>2014-04-13T11:00:40Z</time>
      </trkpt>
      <trkpt lat="48.17165" lon="3.27515">
        <ele>64</ele>
        <time>2014-04-13T11:01:12Z</time>
      </trkpt>
      <trkpt lat="48.17161" lon="3.27517">
        <ele>65</ele>
        <time>2014-04-13T11:01:15Z</time>
      </trkpt>
      <trkpt lat="48.17156" lon="3.2752">
        <ele>65</ele>
        <time>2014-04-13T11:01:19Z</time>
      </trkpt>
      <trkpt lat="48.17152" lon="3.27524">
        <ele>65</ele>
        <time>2014-04-13T11:01:23Z</time>
      </trkpt>
      <trkpt lat="48.17148" lon="3.27527">
        <ele>65</ele>
        <time>2014-04-13T11:01:27Z</time>
      </trkpt>
      <trkpt lat="48.17135" lon="3.27541">
        <ele>65</ele>
        <time>2014-04-13T11:01:39Z</time>
      </trkpt>
      <trkpt lat="48.17128" lon="3.27547">
        <ele>65</ele>
        <time>2014-04-13T11:01:47Z</time>
      </trkpt>
      <trkpt lat="48.17113" lon="3.27566">
        <ele>65</ele>
        <time>2014-04-13T11:02:03Z</time>
      </trkpt>
      <trkpt lat="48.17108" lon="3.27566">
        <ele>65</ele>
        <time>2014-04-13T11:02:11Z</time>
      </trkpt>
      <trkpt lat="48.17103" lon="3.2757">
        <ele>65</ele>
        <time>2014-04-13T11:02:14Z</time>
      </trkpt>
      <trkpt lat="48.17098" lon="3.27572">
        <ele>65</ele>
        <time>2014-04-13T11:02:19Z</time>
      </trkpt>
      <trkpt lat="48.17089" lon="3.27578">
        <ele>65</ele>
        <time>2014-04-13T11:02:28Z</time>
      </trkpt>
      <trkpt lat="48.17076" lon="3.27584">
        <ele>65</ele>
        <time>2014-04-13T11:02:43Z</time>
      </trkpt>
      <trkpt lat="48.17067" lon="3.27592">
        <ele>66</ele>
        <time>2014-04-13T11:02:51Z</time>
      </trkpt>
      <trkpt lat="48.17065" lon="3.276">
        <ele>66</ele>
        <time>2014-04-13T11:02:54Z</time>
      </trkpt>
      <trkpt lat="48.1706" lon="3.27603">
        <ele>66</ele>
        <time>2014-04-13T11:02:58Z</time>
      </trkpt>
      <trkpt lat="48.17056" lon="3.27608">
        <ele>66</ele>
        <time>2014-04-13T11:03:02Z</time>
      </trkpt>
      <trkpt lat="48.17051" lon="3.27621">
        <ele>66</ele>
        <time>2014-04-13T11:03:10Z</time>
      </trkpt>
      <trkpt lat="48.17039" lon="3.27634">
        <ele>67</ele>
        <time>2014-04-13T11:03:20Z</time>
      </trkpt>
      <trkpt lat="48.17035" lon="3.27628">
        <ele>67</ele>
        <time>2014-04-13T11:03:24Z</time>
      </trkpt>
      <trkpt lat="48.17031" lon="3.27624">
        <ele>67</ele>
        <time>2014-04-13T11:03:29Z</time>
      </trkpt>
      <trkpt lat="48.17027" lon="3.27629">
        <ele>67</ele>
        <time>2014-04-13T11:03:33Z</time>
      </trkpt>
      <trkpt lat="48.17015" lon="3.27651">
        <ele>68</ele>
        <time>2014-04-13T11:03:41Z</time>
      </trkpt>
      <trkpt lat="48.1701" lon="3.27665">
        <ele>69</ele>
        <time>2014-04-13T11:03:46Z</time>
      </trkpt>
      <trkpt lat="48.17003" lon="3.27675">
        <ele>69</ele>
        <time>2014-04-13T11:03:54Z</time>
      </trkpt>
      <trkpt lat="48.16999" lon="3.2768">
        <ele>70</ele>
        <time>2014-04-13T11:03:59Z</time>
      </trkpt>
      <trkpt lat="48.16996" lon="3.27686">
        <ele>70</ele>
        <time>2014-04-13T11:04:02Z</time>
      </trkpt>
      <trkpt lat="48.16985" lon="3.27689">
        <ele>70</ele>
        <time>2014-04-13T11:04:13Z</time>
      </trkpt>
      <trkpt lat="48.16978" lon="3.27697">
        <ele>70</ele>
        <time>2014-04-13T11:04:21Z</time>
      </trkpt>
      <trkpt lat="48.1697" lon="3.27706">
        <ele>70</ele>
        <time>2014-04-13T11:04:28Z</time>
      </trkpt>
      <trkpt lat="48.16961" lon="3.2771">
        <ele>70</ele>
        <time>2014-04-13T11:04:39Z</time>
      </trkpt>
      <trkpt lat="48.16953" lon="3.27716">
        <ele>70</ele>
        <time>2014-04-13T11:04:51Z</time>
      </trkpt>
      <trkpt lat="48.16948" lon="3.27716">
        <ele>70</ele>
        <time>2014-04-13T11:04:55Z</time>
      </trkpt>
      <trkpt lat="48.16943" lon="3.27723">
        <ele>70</ele>
        <time>2014-04-13T11:04:58Z</time>
      </trkpt>
      <trkpt lat="48.16938" lon="3.27727">
        <ele>69</ele>
        <time>2014-04-13T11:05:01Z</time>
      </trkpt>
      <trkpt lat="48.16936" lon="3.27733">
        <ele>69</ele>
        <time>2014-04-13T11:05:05Z</time>
      </trkpt>
      <trkpt lat="48.16924" lon="3.27752">
        <ele>67</ele>
        <time>2014-04-13T11:05:17Z</time>
      </trkpt>
      <trkpt lat="48.16917" lon="3.27757">
        <ele>68</ele>
        <time>2014-04-13T11:05:25Z</time>
      </trkpt>
      <trkpt lat="48.16913" lon="3.27758">
        <ele>67</ele>
        <time>2014-04-13T11:05:30Z</time>
      </trkpt>
      <trkpt lat="48.16904" lon="3.27763">
        <ele>67</ele>
        <time>2014-04-13T11:05:39Z</time>
      </trkpt>
      <trkpt lat="48.16899" lon="3.27766">
        <ele>67</ele>
        <time>2014-04-13T11:05:43Z</time>
      </trkpt>
      <trkpt lat="48.16895" lon="3.27771">
        <ele>67</ele>
        <time>2014-04-13T11:05:48Z</time>
      </trkpt>
      <trkpt lat="48.16885" lon="3.27773">
        <ele>67</ele>
        <time>2014-04-13T11:05:57Z</time>
      </trkpt>
      <trkpt lat="48.16882" lon="3.2778">
        <ele>66</ele>
        <time>2014-04-13T11:06:01Z</time>
      </trkpt>
      <trkpt lat="48.1688" lon="3.27786">
        <ele>66</ele>
        <time>2014-04-13T11:06:04Z</time>
      </trkpt>
      <trkpt lat="48.1687" lon="3.27803">
        <ele>66</ele>
        <time>2014-04-13T11:06:12Z</time>
      </trkpt>
      <trkpt lat="48.16863" lon="3.27803">
        <ele>66</ele>
        <time>2014-04-13T11:06:18Z</time>
      </trkpt>
      <trkpt lat="48.16859" lon="3.27808">
        <ele>66</ele>
        <time>2014-04-13T11:06:22Z</time>
      </trkpt>
      <trkpt lat="48.16852" lon="3.2782">
        <ele>66</ele>
        <time>2014-04-13T11:06:31Z</time>
      </trkpt>
      <trkpt lat="48.16846" lon="3.27825">
        <ele>66</ele>
        <time>2014-04-13T11:06:34Z</time>
      </trkpt>
      <trkpt lat="48.1684" lon="3.27835">
        <ele>65</ele>
        <time>2014-04-13T11:06:39Z</time>
      </trkpt>
      <trkpt lat="48.16835" lon="3.27846">
        <ele>65</ele>
        <time>2014-04-13T11:06:45Z</time>
      </trkpt>
      <trkpt lat="48.16822" lon="3.27854">
        <ele>66</ele>
        <time>2014-04-13T11:06:56Z</time>
      </trkpt>
      <trkpt lat="48.16814" lon="3.27852">
        <ele>66</ele>
        <time>2014-04-13T11:07:02Z</time>
      </trkpt>
      <trkpt lat="48.16809" lon="3.27854">
        <ele>66</ele>
        <time>2014-04-13T11:07:07Z</time>
      </trkpt>
      <trkpt lat="48.16806" lon="3.27859">
        <ele>66</ele>
        <time>2014-04-13T11:07:16Z</time>
      </trkpt>
      <trkpt lat="48.16804" lon="3.27866">
        <ele>66</ele>
        <time>2014-04-13T11:07:24Z</time>
      </trkpt>
      <trkpt lat="48.16797" lon="3.27867">
        <ele>66</ele>
        <time>2014-04-13T11:07:35Z</time>
      </trkpt>
      <trkpt lat="48.16792" lon="3.27867">
        <ele>66</ele>
        <time>2014-04-13T11:07:41Z</time>
      </trkpt>
      <trkpt lat="48.16788" lon="3.27871">
        <ele>66</ele>
        <time>2014-04-13T11:07:46Z</time>
      </trkpt>
      <trkpt lat="48.16776" lon="3.27877">
        <ele>66</ele>
        <time>2014-04-13T11:08:14Z</time>
      </trkpt>
      <trkpt lat="48.16756" lon="3.27876">
        <ele>67</ele>
        <time>2014-04-13T11:08:30Z</time>
      </trkpt>
      <trkpt lat="48.16747" lon="3.27883">
        <ele>67</ele>
        <time>2014-04-13T11:08:37Z</time>
      </trkpt>
      <trkpt lat="48.16738" lon="3.27885">
        <ele>67</ele>
        <time>2014-04-13T11:08:45Z</time>
      </trkpt>
      <trkpt lat="48.16733" lon="3.27888">
        <ele>67</ele>
        <time>2014-04-13T11:08:49Z</time>
      </trkpt>
      <trkpt lat="48.16728" lon="3.2789">
        <ele>67</ele>
        <time>2014-04-13T11:08:54Z</time>
      </trkpt>
      <trkpt lat="48.16724" lon="3.27895">
        <ele>67</ele>
        <time>2014-04-13T11:08:58Z</time>
      </trkpt>
      <trkpt lat="48.16715" lon="3.27912">
        <ele>67</ele>
        <time>2014-04-13T11:09:08Z</time>
      </trkpt>
      <trkpt lat="48.1671" lon="3.27914">
        <ele>67</ele>
        <time>2014-04-13T11:09:12Z</time>
      </trkpt>
      <trkpt lat="48.16699" lon="3.2792">
        <ele>66</ele>
        <time>2014-04-13T11:09:22Z</time>
      </trkpt>
      <trkpt lat="48.16695" lon="3.27924">
        <ele>66</ele>
        <time>2014-04-13T11:09:26Z</time>
      </trkpt>
      <trkpt lat="48.16689" lon="3.27927">
        <ele>66</ele>
        <time>2014-04-13T11:09:32Z</time>
      </trkpt>
      <trkpt lat="48.16686" lon="3.27932">
        <ele>66</ele>
        <time>2014-04-13T11:09:35Z</time>
      </trkpt>
      <trkpt lat="48.16681" lon="3.27934">
        <ele>66</ele>
        <time>2014-04-13T11:09:39Z</time>
      </trkpt>
      <trkpt lat="48.16677" lon="3.27938">
        <ele>66</ele>
        <time>2014-04-13T11:09:43Z</time>
      </trkpt>
      <trkpt lat="48.16673" lon="3.27945">
        <ele>66</ele>
        <time>2014-04-13T11:09:46Z</time>
      </trkpt>
      <trkpt lat="48.16666" lon="3.27954">
        <ele>65</ele>
        <time>2014-04-13T11:09:52Z</time>
      </trkpt>
      <trkpt lat="48.16657" lon="3.2796">
        <ele>65</ele>
        <time>2014-04-13T11:09:58Z</time>
      </trkpt>
      <trkpt lat="48.16652" lon="3.27972">
        <ele>65</ele>
        <time>2014-04-13T11:10:03Z</time>
      </trkpt>
      <trkpt lat="48.16642" lon="3.27969">
        <ele>65</ele>
        <time>2014-04-13T11:10:16Z</time>
      </trkpt>
      <trkpt lat="48.16635" lon="3.27978">
        <ele>65</ele>
        <time>2014-04-13T11:10:21Z</time>
      </trkpt>
      <trkpt lat="48.16629" lon="3.27978">
        <ele>65</ele>
        <time>2014-04-13T11:10:27Z</time>
      </trkpt>
      <trkpt lat="48.16626" lon="3.27972">
        <ele>65</ele>
        <time>2014-04-13T11:10:31Z</time>
      </trkpt>
      <trkpt lat="48.1662" lon="3.27966">
        <ele>65</ele>
        <time>2014-04-13T11:10:38Z</time>
      </trkpt>
      <trkpt lat="48.16612" lon="3.27976">
        <ele>65</ele>
        <time>2014-04-13T11:10:45Z</time>
      </trkpt>
      <trkpt lat="48.16609" lon="3.27982">
        <ele>65</ele>
        <time>2014-04-13T11:10:48Z</time>
      </trkpt>
      <trkpt lat="48.16606" lon="3.27988">
        <ele>65</ele>
        <time>2014-04-13T11:10:51Z</time>
      </trkpt>
      <trkpt lat="48.16601" lon="3.27992">
        <ele>65</ele>
        <time>2014-04-13T11:10:56Z</time>
      </trkpt>
      <trkpt lat="48.16597" lon="3.27999">
        <ele>65</ele>
        <time>2014-04-13T11:11:00Z</time>
      </trkpt>
      <trkpt lat="48.16593" lon="3.28003">
        <ele>66</ele>
        <time>2014-04-13T11:11:04Z</time>
      </trkpt>
      <trkpt lat="48.16586" lon="3.28014">
        <ele>65</ele>
        <time>2014-04-13T11:11:10Z</time>
      </trkpt>
      <trkpt lat="48.16581" lon="3.28018">
        <ele>66</ele>
        <time>2014-04-13T11:11:15Z</time>
      </trkpt>
      <trkpt lat="48.16576" lon="3.2802">
        <ele>66</ele>
        <time>2014-04-13T11:11:21Z</time>
      </trkpt>
      <trkpt lat="48.16567" lon="3.28028">
        <ele>66</ele>
        <time>2014-04-13T11:11:29Z</time>
      </trkpt>
      <trkpt lat="48.16563" lon="3.28031">
        <ele>66</ele>
        <time>2014-04-13T11:11:35Z</time>
      </trkpt>
      <trkpt lat="48.16558" lon="3.28032">
        <ele>66</ele>
        <time>2014-04-13T11:11:39Z</time>
      </trkpt>
      <trkpt lat="48.16549" lon="3.28041">
        <ele>66</ele>
        <time>2014-04-13T11:11:48Z</time>
      </trkpt>
      <trkpt lat="48.16545" lon="3.28042">
        <ele>66</ele>
        <time>2014-04-13T11:11:52Z</time>
      </trkpt>
      <trkpt lat="48.16541" lon="3.28038">
        <ele>66</ele>
        <time>2014-04-13T11:11:56Z</time>
      </trkpt>
      <trkpt lat="48.16533" lon="3.28036">
        <ele>66</ele>
        <time>2014-04-13T11:12:03Z</time>
      </trkpt>
      <trkpt lat="48.16529" lon="3.28041">
        <ele>66</ele>
        <time>2014-04-13T11:12:07Z</time>
      </trkpt>
      <trkpt lat="48.16526" lon="3.28048">
        <ele>66</ele>
        <time>2014-04-13T11:12:12Z</time>
      </trkpt>
      <trkpt lat="48.16522" lon="3.28053">
        <ele>66</ele>
        <time>2014-04-13T11:12:16Z</time>
      </trkpt>
      <trkpt lat="48.16518" lon="3.28057">
        <ele>66</ele>
        <time>2014-04-13T11:12:19Z</time>
      </trkpt>
      <trkpt lat="48.16514" lon="3.28062">
        <ele>66</ele>
        <time>2014-04-13T11:12:22Z</time>
      </trkpt>
      <trkpt lat="48.1651" lon="3.28075">
        <ele>65</ele>
        <time>2014-04-13T11:12:28Z</time>
      </trkpt>
      <trkpt lat="48.16507" lon="3.28081">
        <ele>65</ele>
        <time>2014-04-13T11:12:32Z</time>
      </trkpt>
      <trkpt lat="48.16503" lon="3.28085">
        <ele>65</ele>
        <time>2014-04-13T11:12:36Z</time>
      </trkpt>
      <trkpt lat="48.16498" lon="3.28086">
        <ele>65</ele>
        <time>2014-04-13T11:12:40Z</time>
      </trkpt>
      <trkpt lat="48.16489" lon="3.28083">
        <ele>66</ele>
        <time>2014-04-13T11:12:49Z</time>
      </trkpt>
      <trkpt lat="48.16484" lon="3.28086">
        <ele>66</ele>
        <time>2014-04-13T11:12:53Z</time>
      </trkpt>
      <trkpt lat="48.1648" lon="3.28091">
        <ele>66</ele>
        <time>2014-04-13T11:12:57Z</time>
      </trkpt>
      <trkpt lat="48.16477" lon="3.28097">
        <ele>66</ele>
        <time>2014-04-13T11:13:01Z</time>
      </trkpt>
      <trkpt lat="48.16473" lon="3.28097">
        <ele>66</ele>
        <time>2014-04-13T11:13:06Z</time>
      </trkpt>
      <trkpt lat="48.16464" lon="3.28108">
        <ele>66</ele>
        <time>2014-04-13T11:13:14Z</time>
      </trkpt>
      <trkpt lat="48.1646" lon="3.28115">
        <ele>66</ele>
        <time>2014-04-13T11:13:17Z</time>
      </trkpt>
      <trkpt lat="48.16456" lon="3.2812">
        <ele>66</ele>
        <time>2014-04-13T11:13:20Z</time>
      </trkpt>
      <trkpt lat="48.16452" lon="3.28123">
        <ele>66</ele>
        <time>2014-04-13T11:13:25Z</time>
      </trkpt>
      <trkpt lat="48.16434" lon="3.28139">
        <ele>67</ele>
        <time>2014-04-13T11:13:44Z</time>
      </trkpt>
      <trkpt lat="48.16431" lon="3.28144">
        <ele>67</ele>
        <time>2014-04-13T11:13:47Z</time>
      </trkpt>
      <trkpt lat="48.1642" lon="3.28164">
        <ele>68</ele>
        <time>2014-04-13T11:14:00Z</time>
      </trkpt>
      <trkpt lat="48.16416" lon="3.28168">
        <ele>68</ele>
        <time>2014-04-13T11:14:05Z</time>
      </trkpt>
      <trkpt lat="48.16411" lon="3.28174">
        <ele>68</ele>
        <time>2014-04-13T11:14:10Z</time>
      </trkpt>
      <trkpt lat="48.16406" lon="3.28187">
        <ele>68</ele>
        <time>2014-04-13T11:14:19Z</time>
      </trkpt>
      <trkpt lat="48.16397" lon="3.28204">
        <ele>67</ele>
        <time>2014-04-13T11:14:33Z</time>
      </trkpt>
      <trkpt lat="48.16392" lon="3.28208">
        <ele>67</ele>
        <time>2014-04-13T11:14:37Z</time>
      </trkpt>
      <trkpt lat="48.16388" lon="3.28211">
        <ele>67</ele>
        <time>2014-04-13T11:14:41Z</time>
      </trkpt>
      <trkpt lat="48.16383" lon="3.28214">
        <ele>67</ele>
        <time>2014-04-13T11:14:46Z</time>
      </trkpt>
      <trkpt lat="48.1638" lon="3.28222">
        <ele>67</ele>
        <time>2014-04-13T11:14:50Z</time>
      </trkpt>
      <trkpt lat="48.16377" lon="3.28228">
        <ele>67</ele>
        <time>2014-04-13T11:14:55Z</time>
      </trkpt>
      <trkpt lat="48.16374" lon="3.28233">
        <ele>67</ele>
        <time>2014-04-13T11:14:59Z</time>
      </trkpt>
      <trkpt lat="48.16369" lon="3.28237">
        <ele>67</ele>
        <time>2014-04-13T11:15:03Z</time>
      </trkpt>
      <trkpt lat="48.16367" lon="3.28245">
        <ele>67</ele>
        <time>2014-04-13T11:15:07Z</time>
      </trkpt>
      <trkpt lat="48.16365" lon="3.28253">
        <ele>66</ele>
        <time>2014-04-13T11:15:10Z</time>
      </trkpt>
      <trkpt lat="48.16361" lon="3.28267">
        <ele>65</ele>
        <time>2014-04-13T11:15:17Z</time>
      </trkpt>
      <trkpt lat="48.16357" lon="3.28273">
        <ele>65</ele>
        <time>2014-04-13T11:15:21Z</time>
      </trkpt>
      <trkpt lat="48.16347" lon="3.28296">
        <ele>65</ele>
        <time>2014-04-13T11:15:37Z</time>
      </trkpt>
      <trkpt lat="48.16338" lon="3.28304">
        <ele>65</ele>
        <time>2014-04-13T11:15:45Z</time>
      </trkpt>
      <trkpt lat="48.1633" lon="3.28317">
        <ele>65</ele>
        <time>2014-04-13T11:15:53Z</time>
      </trkpt>
      <trkpt lat="48.16326" lon="3.2833">
        <ele>65</ele>
        <time>2014-04-13T11:16:02Z</time>
      </trkpt>
      <trkpt lat="48.16327" lon="3.28337">
        <ele>64</ele>
        <time>2014-04-13T11:16:06Z</time>
      </trkpt>
      <trkpt lat="48.16324" lon="3.28345">
        <ele>65</ele>
        <time>2014-04-13T11:16:12Z</time>
      </trkpt>
      <trkpt lat="48.16319" lon="3.28349">
        <ele>65</ele>
        <time>2014-04-13T11:16:16Z</time>
      </trkpt>
      <trkpt lat="48.16315" lon="3.28354">
        <ele>65</ele>
        <time>2014-04-13T11:16:20Z</time>
      </trkpt>
      <trkpt lat="48.16308" lon="3.28363">
        <ele>65</ele>
        <time>2014-04-13T11:16:28Z</time>
      </trkpt>
      <trkpt lat="48.16305" lon="3.28369">
        <ele>65</ele>
        <time>2014-04-13T11:16:32Z</time>
      </trkpt>
      <trkpt lat="48.16301" lon="3.28374">
        <ele>65</ele>
        <time>2014-04-13T11:16:36Z</time>
      </trkpt>
      <trkpt lat="48.163" lon="3.28381">
        <ele>65</ele>
        <time>2014-04-13T11:16:41Z</time>
      </trkpt>
      <trkpt lat="48.16299" lon="3.28389">
        <ele>65</ele>
        <time>2014-04-13T11:16:46Z</time>
      </trkpt>
      <trkpt lat="48.16289" lon="3.28412">
        <ele>66</ele>
        <time>2014-04-13T11:16:53Z</time>
      </trkpt>
      <trkpt lat="48.16284" lon="3.28415">
        <ele>66</ele>
        <time>2014-04-13T11:16:57Z</time>
      </trkpt>
      <trkpt lat="48.16277" lon="3.28426">
        <ele>66</ele>
        <time>2014-04-13T11:17:07Z</time>
      </trkpt>
      <trkpt lat="48.16275" lon="3.28432">
        <ele>66</ele>
        <time>2014-04-13T11:17:13Z</time>
      </trkpt>
      <trkpt lat="48.16259" lon="3.28457">
        <ele>66</ele>
        <time>2014-04-13T11:17:40Z</time>
      </trkpt>
      <trkpt lat="48.16256" lon="3.28464">
        <ele>66</ele>
        <time>2014-04-13T11:17:44Z</time>
      </trkpt>
      <trkpt lat="48.16253" lon="3.28479">
        <ele>65</ele>
        <time>2014-04-13T11:17:51Z</time>
      </trkpt>
      <trkpt lat="48.1625" lon="3.28487">
        <ele>66</ele>
        <time>2014-04-13T11:17:54Z</time>
      </trkpt>
      <trkpt lat="48.16243" lon="3.28499">
        <ele>66</ele>
        <time>2014-04-13T11:18:02Z</time>
      </trkpt>
      <trkpt lat="48.16241" lon="3.28506">
        <ele>65</ele>
        <time>2014-04-13T11:18:07Z</time>
      </trkpt>
      <trkpt lat="48.16244" lon="3.28512">
        <ele>65</ele>
        <time>2014-04-13T11:18:14Z</time>
      </trkpt>
      <trkpt lat="48.16242" lon="3.28518">
        <ele>66</ele>
        <time>2014-04-13T11:18:18Z</time>
      </trkpt>
      <trkpt lat="48.16241" lon="3.28529">
        <ele>66</ele>
        <time>2014-04-13T11:18:25Z</time>
      </trkpt>
      <trkpt lat="48.16236" lon="3.28533">
        <ele>66</ele>
        <time>2014-04-13T11:18:29Z</time>
      </trkpt>
      <trkpt lat="48.16228" lon="3.28546">
        <ele>66</ele>
        <time>2014-04-13T11:18:40Z</time>
      </trkpt>
      <trkpt lat="48.16226" lon="3.28561">
        <ele>65</ele>
        <time>2014-04-13T11:18:49Z</time>
      </trkpt>
      <trkpt lat="48.16225" lon="3.28568">
        <ele>65</ele>
        <time>2014-04-13T11:18:52Z</time>
      </trkpt>
      <trkpt lat="48.16222" lon="3.28574">
        <ele>65</ele>
        <time>2014-04-13T11:18:56Z</time>
      </trkpt>
      <trkpt lat="48.16217" lon="3.28579">
        <ele>65</ele>
        <time>2014-04-13T11:19:00Z</time>
      </trkpt>
      <trkpt lat="48.16213" lon="3.28584">
        <ele>65</ele>
        <time>2014-04-13T11:19:04Z</time>
      </trkpt>
      <trkpt lat="48.16214" lon="3.28598">
        <ele>65</ele>
        <time>2014-04-13T11:19:11Z</time>
      </trkpt>
      <trkpt lat="48.16209" lon="3.28613">
        <ele>65</ele>
        <time>2014-04-13T11:19:20Z</time>
      </trkpt>
      <trkpt lat="48.1621" lon="3.28621">
        <ele>65</ele>
        <time>2014-04-13T11:19:25Z</time>
      </trkpt>
      <trkpt lat="48.16207" lon="3.28629">
        <ele>65</ele>
        <time>2014-04-13T11:19:30Z</time>
      </trkpt>
      <trkpt lat="48.16204" lon="3.28634">
        <ele>65</ele>
        <time>2014-04-13T11:19:34Z</time>
      </trkpt>
      <trkpt lat="48.16202" lon="3.28641">
        <ele>65</ele>
        <time>2014-04-13T11:19:39Z</time>
      </trkpt>
      <trkpt lat="48.16197" lon="3.28676">
        <ele>65</ele>
        <time>2014-04-13T11:20:05Z</time>
      </trkpt>
      <trkpt lat="48.162" lon="3.28692">
        <ele>65</ele>
        <time>2014-04-13T11:20:11Z</time>
      </trkpt>
      <trkpt lat="48.162" lon="3.287">
        <ele>65</ele>
        <time>2014-04-13T11:20:14Z</time>
      </trkpt>
      <trkpt lat="48.16197" lon="3.28714">
        <ele>65</ele>
        <time>2014-04-13T11:20:23Z</time>
      </trkpt>
      <trkpt lat="48.16192" lon="3.28728">
        <ele>65</ele>
        <time>2014-04-13T11:20:31Z</time>
      </trkpt>
      <trkpt lat="48.16188" lon="3.28732">
        <ele>65</ele>
        <time>2014-04-13T11:20:35Z</time>
      </trkpt>
      <trkpt lat="48.16179" lon="3.28735">
        <ele>65</ele>
        <time>2014-04-13T11:20:40Z</time>
      </trkpt>
      <trkpt lat="48.16174" lon="3.28735">
        <ele>65</ele>
        <time>2014-04-13T11:20:43Z</time>
      </trkpt>
      <trkpt lat="48.16169" lon="3.28739">
        <ele>65</ele>
        <time>2014-04-13T11:20:48Z</time>
      </trkpt>
      <trkpt lat="48.16167" lon="3.28747">
        <ele>65</ele>
        <time>2014-04-13T11:20:52Z</time>
      </trkpt>
      <trkpt lat="48.16167" lon="3.28755">
        <ele>65</ele>
        <time>2014-04-13T11:20:56Z</time>
      </trkpt>
      <trkpt lat="48.16162" lon="3.28768">
        <ele>65</ele>
        <time>2014-04-13T11:21:04Z</time>
      </trkpt>
      <trkpt lat="48.16163" lon="3.28775">
        <ele>65</ele>
        <time>2014-04-13T11:21:08Z</time>
      </trkpt>
      <trkpt lat="48.16157" lon="3.28787">
        <ele>65</ele>
        <time>2014-04-13T11:21:17Z</time>
      </trkpt>
      <trkpt lat="48.16156" lon="3.28795">
        <ele>65</ele>
        <time>2014-04-13T11:21:22Z</time>
      </trkpt>
      <trkpt lat="48.16147" lon="3.28813">
        <ele>65</ele>
        <time>2014-04-13T11:21:35Z</time>
      </trkpt>
      <trkpt lat="48.16143" lon="3.28818">
        <ele>65</ele>
        <time>2014-04-13T11:21:39Z</time>
      </trkpt>
      <trkpt lat="48.1614" lon="3.28832">
        <ele>65</ele>
        <time>2014-04-13T11:21:45Z</time>
      </trkpt>
      <trkpt lat="48.16137" lon="3.28837">
        <ele>64</ele>
        <time>2014-04-13T11:21:49Z</time>
      </trkpt>
      <trkpt lat="48.16134" lon="3.28842">
        <ele>64</ele>
        <time>2014-04-13T11:21:55Z</time>
      </trkpt>
      <trkpt lat="48.16132" lon="3.28849">
        <ele>64</ele>
        <time>2014-04-13T11:22:00Z</time>
      </trkpt>
      <trkpt lat="48.16134" lon="3.28856">
        <ele>64</ele>
        <time>2014-04-13T11:22:05Z</time>
      </trkpt>
      <trkpt lat="48.16127" lon="3.28874">
        <ele>64</ele>
        <time>2014-04-13T11:22:15Z</time>
      </trkpt>
      <trkpt lat="48.16126" lon="3.28881">
        <ele>64</ele>
        <time>2014-04-13T11:22:20Z</time>
      </trkpt>
      <trkpt lat="48.16117" lon="3.28913">
        <ele>64</ele>
        <time>2014-04-13T11:22:39Z</time>
      </trkpt>
      <trkpt lat="48.16114" lon="3.28927">
        <ele>64</ele>
        <time>2014-04-13T11:22:46Z</time>
      </trkpt>
      <trkpt lat="48.16103" lon="3.28954">
        <ele>64</ele>
        <time>2014-04-13T11:23:03Z</time>
      </trkpt>
      <trkpt lat="48.161" lon="3.2896">
        <ele>64</ele>
        <time>2014-04-13T11:23:07Z</time>
      </trkpt>
      <trkpt lat="48.161" lon="3.28967">
        <ele>64</ele>
        <time>2014-04-13T11:23:11Z</time>
      </trkpt>
      <trkpt lat="48.16099" lon="3.28975">
        <ele>64</ele>
        <time>2014-04-13T11:23:16Z</time>
      </trkpt>
      <trkpt lat="48.16097" lon="3.28981">
        <ele>64</ele>
        <time>2014-04-13T11:23:20Z</time>
      </trkpt>
      <trkpt lat="48.16092" lon="3.28985">
        <ele>63</ele>
        <time>2014-04-13T11:23:24Z</time>
      </trkpt>
      <trkpt lat="48.1609" lon="3.28992">
        <ele>63</ele>
        <time>2014-04-13T11:23:27Z</time>
      </trkpt>
      <trkpt lat="48.16089" lon="3.29">
        <ele>63</ele>
        <time>2014-04-13T11:23:31Z</time>
      </trkpt>
      <trkpt lat="48.1608" lon="3.2902">
        <ele>63</ele>
        <time>2014-04-13T11:23:44Z</time>
      </trkpt>
      <trkpt lat="48.16078" lon="3.29028">
        <ele>63</ele>
        <time>2014-04-13T11:23:49Z</time>
      </trkpt>
      <trkpt lat="48.16076" lon="3.29043">
        <ele>62</ele>
        <time>2014-04-13T11:23:57Z</time>
      </trkpt>
      <trkpt lat="48.16072" lon="3.29056">
        <ele>62</ele>
        <time>2014-04-13T11:24:06Z</time>
      </trkpt>
      <trkpt lat="48.1607" lon="3.29064">
        <ele>62</ele>
        <time>2014-04-13T11:24:11Z</time>
      </trkpt>
      <trkpt lat="48.16067" lon="3.2907">
        <ele>62</ele>
        <time>2014-04-13T11:24:16Z</time>
      </trkpt>
      <trkpt lat="48.16065" lon="3.29084">
        <ele>61</ele>
        <time>2014-04-13T11:24:25Z</time>
      </trkpt>
      <trkpt lat="48.16063" lon="3.2909">
        <ele>61</ele>
        <time>2014-04-13T11:24:30Z</time>
      </trkpt>
      <trkpt lat="48.16059" lon="3.29112">
        <ele>62</ele>
        <time>2014-04-13T11:24:44Z</time>
      </trkpt>
      <trkpt lat="48.16056" lon="3.29119">
        <ele>62</ele>
        <time>2014-04-13T11:24:49Z</time>
      </trkpt>
      <trkpt lat="48.16056" lon="3.29126">
        <ele>62</ele>
        <time>2014-04-13T11:24:56Z</time>
      </trkpt>
      <trkpt lat="48.16051" lon="3.29131">
        <ele>62</ele>
        <time>2014-04-13T11:25:04Z</time>
      </trkpt>
      <trkpt lat="48.16049" lon="3.29137">
        <ele>62</ele>
        <time>2014-04-13T11:25:07Z</time>
      </trkpt>
      <trkpt lat="48.16045" lon="3.29145">
        <ele>62</ele>
        <time>2014-04-13T11:25:10Z</time>
      </trkpt>
      <trkpt lat="48.16041" lon="3.2916">
        <ele>63</ele>
        <time>2014-04-13T11:25:18Z</time>
      </trkpt>
      <trkpt lat="48.1604" lon="3.29168">
        <ele>63</ele>
        <time>2014-04-13T11:25:21Z</time>
      </trkpt>
      <trkpt lat="48.1604" lon="3.29176">
        <ele>63</ele>
        <time>2014-04-13T11:25:24Z</time>
      </trkpt>
      <trkpt lat="48.16037" lon="3.29183">
        <ele>63</ele>
        <time>2014-04-13T11:25:28Z</time>
      </trkpt>
      <trkpt lat="48.16033" lon="3.29196">
        <ele>63</ele>
        <time>2014-04-13T11:25:34Z</time>
      </trkpt>
      <trkpt lat="48.16034" lon="3.29199">
        <ele>63</ele>
        <time>2014-04-13T11:25:39Z</time>
      </trkpt>
      <trkpt lat="48.16031" lon="3.29214">
        <ele>63</ele>
        <time>2014-04-13T11:25:51Z</time>
      </trkpt>
      <trkpt lat="48.16027" lon="3.29226">
        <ele>63</ele>
        <time>2014-04-13T11:25:59Z</time>
      </trkpt>
      <trkpt lat="48.16021" lon="3.29249">
        <ele>63</ele>
        <time>2014-04-13T11:26:11Z</time>
      </trkpt>
      <trkpt lat="48.16018" lon="3.29255">
        <ele>64</ele>
        <time>2014-04-13T11:26:14Z</time>
      </trkpt>
      <trkpt lat="48.16017" lon="3.29262">
        <ele>64</ele>
        <time>2014-04-13T11:26:19Z</time>
      </trkpt>
      <trkpt lat="48.16013" lon="3.29267">
        <ele>64</ele>
        <time>2014-04-13T11:26:26Z</time>
      </trkpt>
      <trkpt lat="48.16013" lon="3.29275">
        <ele>64</ele>
        <time>2014-04-13T11:26:32Z</time>
      </trkpt>
      <trkpt lat="48.16011" lon="3.29282">
        <ele>64</ele>
        <time>2014-04-13T11:26:36Z</time>
      </trkpt>
      <trkpt lat="48.16004" lon="3.29303">
        <ele>64</ele>
        <time>2014-04-13T11:26:51Z</time>
      </trkpt>
      <trkpt lat="48.16003" lon="3.29317">
        <ele>64</ele>
        <time>2014-04-13T11:26:59Z</time>
      </trkpt>
      <trkpt lat="48.16" lon="3.29324">
        <ele>65</ele>
        <time>2014-04-13T11:27:03Z</time>
      </trkpt>
      <trkpt lat="48.15997" lon="3.29346">
        <ele>65</ele>
        <time>2014-04-13T11:27:15Z</time>
      </trkpt>
      <trkpt lat="48.15997" lon="3.29353">
        <ele>65</ele>
        <time>2014-04-13T11:27:19Z</time>
      </trkpt>
      <trkpt lat="48.15996" lon="3.2936">
        <ele>65</ele>
        <time>2014-04-13T11:27:24Z</time>
      </trkpt>
      <trkpt lat="48.15994" lon="3.29368">
        <ele>65</ele>
        <time>2014-04-13T11:27:27Z</time>
      </trkpt>
      <trkpt lat="48.15991" lon="3.29398">
        <ele>65</ele>
        <time>2014-04-13T11:27:44Z</time>
      </trkpt>
      <trkpt lat="48.15989" lon="3.29406">
        <ele>65</ele>
        <time>2014-04-13T11:27:48Z</time>
      </trkpt>
      <trkpt lat="48.15986" lon="3.29411">
        <ele>65</ele>
        <time>2014-04-13T11:27:55Z</time>
      </trkpt>
      <trkpt lat="48.15986" lon="3.29419">
        <ele>65</ele>
        <time>2014-04-13T11:27:59Z</time>
      </trkpt>
      <trkpt lat="48.15984" lon="3.2943">
        <ele>65</ele>
        <time>2014-04-13T11:28:03Z</time>
      </trkpt>
      <trkpt lat="48.15983" lon="3.29437">
        <ele>65</ele>
        <time>2014-04-13T11:28:06Z</time>
      </trkpt>
      <trkpt lat="48.15982" lon="3.29444">
        <ele>65</ele>
        <time>2014-04-13T11:28:12Z</time>
      </trkpt>
      <trkpt lat="48.15979" lon="3.29452">
        <ele>65</ele>
        <time>2014-04-13T11:28:19Z</time>
      </trkpt>
      <trkpt lat="48.15973" lon="3.29472">
        <ele>66</ele>
        <time>2014-04-13T11:28:31Z</time>
      </trkpt>
      <trkpt lat="48.1597" lon="3.29478">
        <ele>66</ele>
        <time>2014-04-13T11:28:34Z</time>
      </trkpt>
      <trkpt lat="48.15968" lon="3.29485">
        <ele>66</ele>
        <time>2014-04-13T11:28:37Z</time>
      </trkpt>
      <trkpt lat="48.15965" lon="3.29492">
        <ele>65</ele>
        <time>2014-04-13T11:28:41Z</time>
      </trkpt>
      <trkpt lat="48.15962" lon="3.29506">
        <ele>65</ele>
        <time>2014-04-13T11:28:50Z</time>
      </trkpt>
      <trkpt lat="48.15959" lon="3.29512">
        <ele>65</ele>
        <time>2014-04-13T11:28:54Z</time>
      </trkpt>
      <trkpt lat="48.15956" lon="3.29519">
        <ele>65</ele>
        <time>2014-04-13T11:28:57Z</time>
      </trkpt>
      <trkpt lat="48.15957" lon="3.29528">
        <ele>65</ele>
        <time>2014-04-13T11:29:06Z</time>
      </trkpt>
      <trkpt lat="48.15954" lon="3.29536">
        <ele>65</ele>
        <time>2014-04-13T11:29:10Z</time>
      </trkpt>
      <trkpt lat="48.15953" lon="3.29544">
        <ele>65</ele>
        <time>2014-04-13T11:29:14Z</time>
      </trkpt>
      <trkpt lat="48.15954" lon="3.29552">
        <ele>65</ele>
        <time>2014-04-13T11:29:19Z</time>
      </trkpt>
      <trkpt lat="48.15957" lon="3.29551">
        <ele>65</ele>
        <time>2014-04-13T11:30:02Z</time>
      </trkpt>
      <trkpt lat="48.15961" lon="3.29556">
        <ele>65</ele>
        <time>2014-04-13T11:30:08Z</time>
      </trkpt>
      <trkpt lat="48.15958" lon="3.29566">
        <ele>65</ele>
        <time>2014-04-13T11:30:21Z</time>
      </trkpt>
      <trkpt lat="48.15952" lon="3.29577">
        <ele>65</ele>
        <time>2014-04-13T11:30:28Z</time>
      </trkpt>
      <trkpt lat="48.15949" lon="3.29584">
        <ele>65</ele>
        <time>2014-04-13T11:30:32Z</time>
      </trkpt>
      <trkpt lat="48.15946" lon="3.2959">
        <ele>65</ele>
        <time>2014-04-13T11:30:37Z</time>
      </trkpt>
      <trkpt lat="48.15943" lon="3.29597">
        <ele>65</ele>
        <time>2014-04-13T11:30:43Z</time>
      </trkpt>
      <trkpt lat="48.15942" lon="3.29604">
        <ele>66</ele>
        <time>2014-04-13T11:30:47Z</time>
      </trkpt>
      <trkpt lat="48.15941" lon="3.29612">
        <ele>66</ele>
        <time>2014-04-13T11:30:51Z</time>
      </trkpt>
      <trkpt lat="48.15938" lon="3.29618">
        <ele>66</ele>
        <time>2014-04-13T11:30:56Z</time>
      </trkpt>
      <trkpt lat="48.15935" lon="3.29634">
        <ele>66</ele>
        <time>2014-04-13T11:31:03Z</time>
      </trkpt>
      <trkpt lat="48.15933" lon="3.29649">
        <ele>67</ele>
        <time>2014-04-13T11:31:11Z</time>
      </trkpt>
      <trkpt lat="48.15931" lon="3.29657">
        <ele>67</ele>
        <time>2014-04-13T11:31:18Z</time>
      </trkpt>
      <trkpt lat="48.15929" lon="3.29663">
        <ele>67</ele>
        <time>2014-04-13T11:31:21Z</time>
      </trkpt>
      <trkpt lat="48.15926" lon="3.29668">
        <ele>67</ele>
        <time>2014-04-13T11:31:26Z</time>
      </trkpt>
      <trkpt lat="48.15916" lon="3.29721">
        <ele>67</ele>
        <time>2014-04-13T11:31:55Z</time>
      </trkpt>
      <trkpt lat="48.15906" lon="3.29765">
        <ele>67</ele>
        <time>2014-04-13T11:32:23Z</time>
      </trkpt>
      <trkpt lat="48.15905" lon="3.29773">
        <ele>67</ele>
        <time>2014-04-13T11:32:27Z</time>
      </trkpt>
      <trkpt lat="48.159" lon="3.29785">
        <ele>67</ele>
        <time>2014-04-13T11:32:35Z</time>
      </trkpt>
      <trkpt lat="48.15897" lon="3.29791">
        <ele>67</ele>
        <time>2014-04-13T11:32:38Z</time>
      </trkpt>
      <trkpt lat="48.15895" lon="3.29799">
        <ele>67</ele>
        <time>2014-04-13T11:32:44Z</time>
      </trkpt>
      <trkpt lat="48.15894" lon="3.29812">
        <ele>67</ele>
        <time>2014-04-13T11:32:52Z</time>
      </trkpt>
      <trkpt lat="48.15889" lon="3.29817">
        <ele>68</ele>
        <time>2014-04-13T11:32:56Z</time>
      </trkpt>
      <trkpt lat="48.15882" lon="3.29869">
        <ele>69</ele>
        <time>2014-04-13T11:33:24Z</time>
      </trkpt>
      <trkpt lat="48.15874" lon="3.29896">
        <ele>69</ele>
        <time>2014-04-13T11:33:42Z</time>
      </trkpt>
      <trkpt lat="48.1587" lon="3.29903">
        <ele>69</ele>
        <time>2014-04-13T11:33:47Z</time>
      </trkpt>
      <trkpt lat="48.15863" lon="3.29931">
        <ele>69</ele>
        <time>2014-04-13T11:34:03Z</time>
      </trkpt>
      <trkpt lat="48.15862" lon="3.29937">
        <ele>69</ele>
        <time>2014-04-13T11:34:07Z</time>
      </trkpt>
      <trkpt lat="48.15847" lon="3.29958">
        <ele>69</ele>
        <time>2014-04-13T11:34:25Z</time>
      </trkpt>
      <trkpt lat="48.15844" lon="3.29964">
        <ele>69</ele>
        <time>2014-04-13T11:34:29Z</time>
      </trkpt>
      <trkpt lat="48.15843" lon="3.29971">
        <ele>69</ele>
        <time>2014-04-13T11:34:33Z</time>
      </trkpt>
      <trkpt lat="48.15842" lon="3.29979">
        <ele>68</ele>
        <time>2014-04-13T11:34:36Z</time>
      </trkpt>
      <trkpt lat="48.15839" lon="3.29985">
        <ele>68</ele>
        <time>2014-04-13T11:34:41Z</time>
      </trkpt>
      <trkpt lat="48.15835" lon="3.2999">
        <ele>67</ele>
        <time>2014-04-13T11:34:45Z</time>
      </trkpt>
      <trkpt lat="48.15831" lon="3.29995">
        <ele>67</ele>
        <time>2014-04-13T11:34:49Z</time>
      </trkpt>
      <trkpt lat="48.15829" lon="3.30002">
        <ele>67</ele>
        <time>2014-04-13T11:34:53Z</time>
      </trkpt>
      <trkpt lat="48.15812" lon="3.30032">
        <ele>68</ele>
        <time>2014-04-13T11:35:17Z</time>
      </trkpt>
      <trkpt lat="48.15805" lon="3.30051">
        <ele>69</ele>
        <time>2014-04-13T11:35:29Z</time>
      </trkpt>
      <trkpt lat="48.158" lon="3.30055">
        <ele>69</ele>
        <time>2014-04-13T11:35:34Z</time>
      </trkpt>
      <trkpt lat="48.15795" lon="3.30069">
        <ele>69</ele>
        <time>2014-04-13T11:35:42Z</time>
      </trkpt>
      <trkpt lat="48.15778" lon="3.301">
        <ele>71</ele>
        <time>2014-04-13T11:36:05Z</time>
      </trkpt>
      <trkpt lat="48.15769" lon="3.30109">
        <ele>71</ele>
        <time>2014-04-13T11:36:14Z</time>
      </trkpt>
      <trkpt lat="48.15758" lon="3.30125">
        <ele>71</ele>
        <time>2014-04-13T11:36:27Z</time>
      </trkpt>
      <trkpt lat="48.15756" lon="3.30132">
        <ele>71</ele>
        <time>2014-04-13T11:36:31Z</time>
      </trkpt>
      <trkpt lat="48.15745" lon="3.30147">
        <ele>68</ele>
        <time>2014-04-13T11:36:42Z</time>
      </trkpt>
      <trkpt lat="48.1574" lon="3.30152">
        <ele>68</ele>
        <time>2014-04-13T11:36:46Z</time>
      </trkpt>
      <trkpt lat="48.15734" lon="3.30163">
        <ele>68</ele>
        <time>2014-04-13T11:36:57Z</time>
      </trkpt>
      <trkpt lat="48.1573" lon="3.30167">
        <ele>70</ele>
        <time>2014-04-13T11:37:02Z</time>
      </trkpt>
      <trkpt lat="48.15713" lon="3.30196">
        <ele>70</ele>
        <time>2014-04-13T11:37:23Z</time>
      </trkpt>
      <trkpt lat="48.15706" lon="3.30206">
        <ele>70</ele>
        <time>2014-04-13T11:37:30Z</time>
      </trkpt>
      <trkpt lat="48.15697" lon="3.30224">
        <ele>70</ele>
        <time>2014-04-13T11:37:47Z</time>
      </trkpt>
      <trkpt lat="48.15695" lon="3.3023">
        <ele>70</ele>
        <time>2014-04-13T11:37:52Z</time>
      </trkpt>
      <trkpt lat="48.1569" lon="3.30242">
        <ele>70</ele>
        <time>2014-04-13T11:37:59Z</time>
      </trkpt>
      <trkpt lat="48.15686" lon="3.30247">
        <ele>69</ele>
        <time>2014-04-13T11:38:02Z</time>
      </trkpt>
      <trkpt lat="48.15682" lon="3.30253">
        <ele>72</ele>
        <time>2014-04-13T11:38:07Z</time>
      </trkpt>
      <trkpt lat="48.15678" lon="3.30267">
        <ele>73</ele>
        <time>2014-04-13T11:38:20Z</time>
      </trkpt>
      <trkpt lat="48.15671" lon="3.30276">
        <ele>74</ele>
        <time>2014-04-13T11:38:28Z</time>
      </trkpt>
      <trkpt lat="48.15665" lon="3.30276">
        <ele>68</ele>
        <time>2014-04-13T11:38:34Z</time>
      </trkpt>
      <trkpt lat="48.15656" lon="3.30308">
        <ele>71</ele>
        <time>2014-04-13T11:38:52Z</time>
      </trkpt>
      <trkpt lat="48.15652" lon="3.30313">
        <ele>71</ele>
        <time>2014-04-13T11:38:56Z</time>
      </trkpt>
      <trkpt lat="48.15645" lon="3.30329">
        <ele>71</ele>
        <time>2014-04-13T11:39:05Z</time>
      </trkpt>
      <trkpt lat="48.15641" lon="3.30334">
        <ele>75</ele>
        <time>2014-04-13T11:39:09Z</time>
      </trkpt>
      <trkpt lat="48.15639" lon="3.30341">
        <ele>75</ele>
        <time>2014-04-13T11:39:13Z</time>
      </trkpt>
      <trkpt lat="48.1564" lon="3.3035">
        <ele>75</ele>
        <time>2014-04-13T11:39:16Z</time>
      </trkpt>
      <trkpt lat="48.15637" lon="3.30357">
        <ele>75</ele>
        <time>2014-04-13T11:39:20Z</time>
      </trkpt>
      <trkpt lat="48.15635" lon="3.30362">
        <ele>75</ele>
        <time>2014-04-13T11:39:24Z</time>
      </trkpt>
      <trkpt lat="48.15627" lon="3.30374">
        <ele>75</ele>
        <time>2014-04-13T11:39:34Z</time>
      </trkpt>
      <trkpt lat="48.15623" lon="3.30387">
        <ele>75</ele>
        <time>2014-04-13T11:39:42Z</time>
      </trkpt>
      <trkpt lat="48.1562" lon="3.30393">
        <ele>75</ele>
        <time>2014-04-13T11:39:47Z</time>
      </trkpt>
      <trkpt lat="48.15617" lon="3.30398">
        <ele>75</ele>
        <time>2014-04-13T11:39:51Z</time>
      </trkpt>
      <trkpt lat="48.15612" lon="3.304">
        <ele>75</ele>
        <time>2014-04-13T11:39:55Z</time>
      </trkpt>
      <trkpt lat="48.1561" lon="3.30407">
        <ele>75</ele>
        <time>2014-04-13T11:40:02Z</time>
      </trkpt>
      <trkpt lat="48.15607" lon="3.30414">
        <ele>74</ele>
        <time>2014-04-13T11:40:06Z</time>
      </trkpt>
      <trkpt lat="48.15602" lon="3.30419">
        <ele>78</ele>
        <time>2014-04-13T11:40:10Z</time>
      </trkpt>
      <trkpt lat="48.156" lon="3.30426">
        <ele>78</ele>
        <time>2014-04-13T11:40:14Z</time>
      </trkpt>
      <trkpt lat="48.15589" lon="3.30452">
        <ele>80</ele>
        <time>2014-04-13T11:40:30Z</time>
      </trkpt>
      <trkpt lat="48.15585" lon="3.30457">
        <ele>80</ele>
        <time>2014-04-13T11:40:34Z</time>
      </trkpt>
      <trkpt lat="48.15582" lon="3.30463">
        <ele>74</ele>
        <time>2014-04-13T11:40:39Z</time>
      </trkpt>
      <trkpt lat="48.15581" lon="3.30471">
        <ele>74</ele>
        <time>2014-04-13T11:40:43Z</time>
      </trkpt>
      <trkpt lat="48.15579" lon="3.30477">
        <ele>75</ele>
        <time>2014-04-13T11:40:49Z</time>
      </trkpt>
      <trkpt lat="48.15578" lon="3.30486">
        <ele>76</ele>
        <time>2014-04-13T11:40:53Z</time>
      </trkpt>
      <trkpt lat="48.15574" lon="3.30497">
        <ele>77</ele>
        <time>2014-04-13T11:40:57Z</time>
      </trkpt>
      <trkpt lat="48.15571" lon="3.30503">
        <ele>77</ele>
        <time>2014-04-13T11:41:01Z</time>
      </trkpt>
      <trkpt lat="48.15564" lon="3.30512">
        <ele>76</ele>
        <time>2014-04-13T11:41:08Z</time>
      </trkpt>
      <trkpt lat="48.1556" lon="3.30519">
        <ele>76</ele>
        <time>2014-04-13T11:41:12Z</time>
      </trkpt>
      <trkpt lat="48.15557" lon="3.30527">
        <ele>75</ele>
        <time>2014-04-13T11:41:18Z</time>
      </trkpt>
      <trkpt lat="48.15553" lon="3.30532">
        <ele>75</ele>
        <time>2014-04-13T11:41:22Z</time>
      </trkpt>
      <trkpt lat="48.1555" lon="3.30538">
        <ele>75</ele>
        <time>2014-04-13T11:41:26Z</time>
      </trkpt>
      <trkpt lat="48.15546" lon="3.30543">
        <ele>75</ele>
        <time>2014-04-13T11:41:32Z</time>
      </trkpt>
      <trkpt lat="48.15544" lon="3.3055">
        <ele>75</ele>
        <time>2014-04-13T11:41:36Z</time>
      </trkpt>
      <trkpt lat="48.1554" lon="3.30556">
        <ele>75</ele>
        <time>2014-04-13T11:41:42Z</time>
      </trkpt>
      <trkpt lat="48.15535" lon="3.3056">
        <ele>74</ele>
        <time>2014-04-13T11:41:46Z</time>
      </trkpt>
      <trkpt lat="48.15529" lon="3.30571">
        <ele>74</ele>
        <time>2014-04-13T11:41:54Z</time>
      </trkpt>
      <trkpt lat="48.15525" lon="3.30587">
        <ele>76</ele>
        <time>2014-04-13T11:42:03Z</time>
      </trkpt>
      <trkpt lat="48.15521" lon="3.30593">
        <ele>75</ele>
        <time>2014-04-13T11:42:07Z</time>
      </trkpt>
      <trkpt lat="48.15516" lon="3.30597">
        <ele>75</ele>
        <time>2014-04-13T11:42:11Z</time>
      </trkpt>
      <trkpt lat="48.15513" lon="3.30603">
        <ele>75</ele>
        <time>2014-04-13T11:42:15Z</time>
      </trkpt>
      <trkpt lat="48.15505" lon="3.30624">
        <ele>77</ele>
        <time>2014-04-13T11:42:29Z</time>
      </trkpt>
      <trkpt lat="48.15496" lon="3.30633">
        <ele>71</ele>
        <time>2014-04-13T11:42:35Z</time>
      </trkpt>
      <trkpt lat="48.15491" lon="3.30641">
        <ele>71</ele>
        <time>2014-04-13T11:42:45Z</time>
      </trkpt>
      <trkpt lat="48.15488" lon="3.30648">
        <ele>72</ele>
        <time>2014-04-13T11:42:50Z</time>
      </trkpt>
      <trkpt lat="48.15475" lon="3.30663">
        <ele>72</ele>
        <time>2014-04-13T11:43:04Z</time>
      </trkpt>
      <trkpt lat="48.15469" lon="3.30676">
        <ele>74</ele>
        <time>2014-04-13T11:43:15Z</time>
      </trkpt>
      <trkpt lat="48.15464" lon="3.3068">
        <ele>74</ele>
        <time>2014-04-13T11:43:19Z</time>
      </trkpt>
      <trkpt lat="48.15462" lon="3.30687">
        <ele>75</ele>
        <time>2014-04-13T11:43:23Z</time>
      </trkpt>
      <trkpt lat="48.15458" lon="3.30692">
        <ele>74</ele>
        <time>2014-04-13T11:43:28Z</time>
      </trkpt>
      <trkpt lat="48.15455" lon="3.30698">
        <ele>75</ele>
        <time>2014-04-13T11:43:33Z</time>
      </trkpt>
      <trkpt lat="48.15451" lon="3.30702">
        <ele>74</ele>
        <time>2014-04-13T11:43:38Z</time>
      </trkpt>
      <trkpt lat="48.15446" lon="3.30704">
        <ele>74</ele>
        <time>2014-04-13T11:43:42Z</time>
      </trkpt>
      <trkpt lat="48.15441" lon="3.30708">
        <ele>74</ele>
        <time>2014-04-13T11:43:47Z</time>
      </trkpt>
      <trkpt lat="48.15437" lon="3.30713">
        <ele>74</ele>
        <time>2014-04-13T11:43:52Z</time>
      </trkpt>
      <trkpt lat="48.15434" lon="3.30719">
        <ele>74</ele>
        <time>2014-04-13T11:43:59Z</time>
      </trkpt>
      <trkpt lat="48.15431" lon="3.30725">
        <ele>74</ele>
        <time>2014-04-13T11:44:03Z</time>
      </trkpt>
      <trkpt lat="48.1543" lon="3.30734">
        <ele>73</ele>
        <time>2014-04-13T11:44:07Z</time>
      </trkpt>
      <trkpt lat="48.15425" lon="3.30737">
        <ele>73</ele>
        <time>2014-04-13T11:44:10Z</time>
      </trkpt>
      <trkpt lat="48.15421" lon="3.30738">
        <ele>72</ele>
        <time>2014-04-13T11:44:13Z</time>
      </trkpt>
      <trkpt lat="48.15409" lon="3.3076">
        <ele>70</ele>
        <time>2014-04-13T11:44:26Z</time>
      </trkpt>
      <trkpt lat="48.15405" lon="3.30765">
        <ele>70</ele>
        <time>2014-04-13T11:44:30Z</time>
      </trkpt>
      <trkpt lat="48.15399" lon="3.30769">
        <ele>70</ele>
        <time>2014-04-13T11:44:34Z</time>
      </trkpt>
      <trkpt lat="48.1539" lon="3.30774">
        <ele>70</ele>
        <time>2014-04-13T11:44:42Z</time>
      </trkpt>
      <trkpt lat="48.15385" lon="3.30775">
        <ele>70</ele>
        <time>2014-04-13T11:44:47Z</time>
      </trkpt>
      <trkpt lat="48.1538" lon="3.30778">
        <ele>70</ele>
        <time>2014-04-13T11:44:51Z</time>
      </trkpt>
      <trkpt lat="48.15365" lon="3.30781">
        <ele>70</ele>
        <time>2014-04-13T11:45:03Z</time>
      </trkpt>
      <trkpt lat="48.1536" lon="3.30781">
        <ele>70</ele>
        <time>2014-04-13T11:45:07Z</time>
      </trkpt>
      <trkpt lat="48.15355" lon="3.30784">
        <ele>70</ele>
        <time>2014-04-13T11:45:12Z</time>
      </trkpt>
      <trkpt lat="48.15351" lon="3.30785">
        <ele>69</ele>
        <time>2014-04-13T11:45:19Z</time>
      </trkpt>
      <trkpt lat="48.15346" lon="3.30784">
        <ele>69</ele>
        <time>2014-04-13T11:45:23Z</time>
      </trkpt>
      <trkpt lat="48.15341" lon="3.30786">
        <ele>69</ele>
        <time>2014-04-13T11:45:27Z</time>
      </trkpt>
      <trkpt lat="48.15337" lon="3.30789">
        <ele>69</ele>
        <time>2014-04-13T11:45:31Z</time>
      </trkpt>
      <trkpt lat="48.15332" lon="3.30789">
        <ele>67</ele>
        <time>2014-04-13T11:45:35Z</time>
      </trkpt>
      <trkpt lat="48.15321" lon="3.30791">
        <ele>67</ele>
        <time>2014-04-13T11:45:42Z</time>
      </trkpt>
      <trkpt lat="48.15316" lon="3.30791">
        <ele>67</ele>
        <time>2014-04-13T11:45:46Z</time>
      </trkpt>
      <trkpt lat="48.15312" lon="3.30789">
        <ele>67</ele>
        <time>2014-04-13T11:45:52Z</time>
      </trkpt>
      <trkpt lat="48.15307" lon="3.30788">
        <ele>67</ele>
        <time>2014-04-13T11:45:57Z</time>
      </trkpt>
      <trkpt lat="48.15302" lon="3.30788">
        <ele>67</ele>
        <time>2014-04-13T11:45:59Z</time>
      </trkpt>
      <trkpt lat="48.15298" lon="3.30788">
        <ele>67</ele>
        <time>2014-04-13T11:46:03Z</time>
      </trkpt>
      <trkpt lat="48.15288" lon="3.30787">
        <ele>67</ele>
        <time>2014-04-13T11:46:11Z</time>
      </trkpt>
      <trkpt lat="48.15283" lon="3.30789">
        <ele>67</ele>
        <time>2014-04-13T11:46:16Z</time>
      </trkpt>
      <trkpt lat="48.15279" lon="3.30791">
        <ele>67</ele>
        <time>2014-04-13T11:46:19Z</time>
      </trkpt>
      <trkpt lat="48.15274" lon="3.30792">
        <ele>67</ele>
        <time>2014-04-13T11:46:24Z</time>
      </trkpt>
      <trkpt lat="48.15269" lon="3.30793">
        <ele>67</ele>
        <time>2014-04-13T11:46:29Z</time>
      </trkpt>
      <trkpt lat="48.15264" lon="3.30797">
        <ele>66</ele>
        <time>2014-04-13T11:46:34Z</time>
      </trkpt>
      <trkpt lat="48.15259" lon="3.30797">
        <ele>66</ele>
        <time>2014-04-13T11:46:38Z</time>
      </trkpt>
      <trkpt lat="48.15255" lon="3.30793">
        <ele>66</ele>
        <time>2014-04-13T11:46:41Z</time>
      </trkpt>
      <trkpt lat="48.1525" lon="3.30793">
        <ele>67</ele>
        <time>2014-04-13T11:46:46Z</time>
      </trkpt>
      <trkpt lat="48.15245" lon="3.30791">
        <ele>67</ele>
        <time>2014-04-13T11:46:50Z</time>
      </trkpt>
      <trkpt lat="48.1524" lon="3.30788">
        <ele>67</ele>
        <time>2014-04-13T11:46:54Z</time>
      </trkpt>
      <trkpt lat="48.15235" lon="3.30788">
        <ele>67</ele>
        <time>2014-04-13T11:46:58Z</time>
      </trkpt>
      <trkpt lat="48.15225" lon="3.30786">
        <ele>67</ele>
        <time>2014-04-13T11:47:06Z</time>
      </trkpt>
      <trkpt lat="48.15221" lon="3.30783">
        <ele>67</ele>
        <time>2014-04-13T11:47:10Z</time>
      </trkpt>
      <trkpt lat="48.15217" lon="3.30778">
        <ele>67</ele>
        <time>2014-04-13T11:47:14Z</time>
      </trkpt>
      <trkpt lat="48.15212" lon="3.30775">
        <ele>67</ele>
        <time>2014-04-13T11:47:18Z</time>
      </trkpt>
      <trkpt lat="48.15207" lon="3.30774">
        <ele>67</ele>
        <time>2014-04-13T11:47:24Z</time>
      </trkpt>
      <trkpt lat="48.15202" lon="3.30775">
        <ele>67</ele>
        <time>2014-04-13T11:47:28Z</time>
      </trkpt>
      <trkpt lat="48.15197" lon="3.30777">
        <ele>67</ele>
        <time>2014-04-13T11:47:33Z</time>
      </trkpt>
      <trkpt lat="48.15193" lon="3.30776">
        <ele>67</ele>
        <time>2014-04-13T11:47:40Z</time>
      </trkpt>
      <trkpt lat="48.15188" lon="3.30772">
        <ele>67</ele>
        <time>2014-04-13T11:47:46Z</time>
      </trkpt>
      <trkpt lat="48.15183" lon="3.30769">
        <ele>67</ele>
        <time>2014-04-13T11:47:50Z</time>
      </trkpt>
      <trkpt lat="48.15179" lon="3.30768">
        <ele>67</ele>
        <time>2014-04-13T11:47:54Z</time>
      </trkpt>
      <trkpt lat="48.15174" lon="3.30765">
        <ele>67</ele>
        <time>2014-04-13T11:47:58Z</time>
      </trkpt>
      <trkpt lat="48.1517" lon="3.30762">
        <ele>67</ele>
        <time>2014-04-13T11:48:01Z</time>
      </trkpt>
      <trkpt lat="48.15159" lon="3.30761">
        <ele>67</ele>
        <time>2014-04-13T11:48:08Z</time>
      </trkpt>
      <trkpt lat="48.15155" lon="3.30759">
        <ele>67</ele>
        <time>2014-04-13T11:48:11Z</time>
      </trkpt>
      <trkpt lat="48.15151" lon="3.30755">
        <ele>67</ele>
        <time>2014-04-13T11:48:14Z</time>
      </trkpt>
      <trkpt lat="48.15146" lon="3.30753">
        <ele>67</ele>
        <time>2014-04-13T11:48:18Z</time>
      </trkpt>
      <trkpt lat="48.15141" lon="3.30755">
        <ele>67</ele>
        <time>2014-04-13T11:48:21Z</time>
      </trkpt>
      <trkpt lat="48.15136" lon="3.30754">
        <ele>67</ele>
        <time>2014-04-13T11:48:26Z</time>
      </trkpt>
      <trkpt lat="48.1513" lon="3.30753">
        <ele>67</ele>
        <time>2014-04-13T11:48:32Z</time>
      </trkpt>
      <trkpt lat="48.1512" lon="3.30754">
        <ele>67</ele>
        <time>2014-04-13T11:48:39Z</time>
      </trkpt>
      <trkpt lat="48.15115" lon="3.30753">
        <ele>67</ele>
        <time>2014-04-13T11:48:43Z</time>
      </trkpt>
      <trkpt lat="48.1511" lon="3.3075">
        <ele>67</ele>
        <time>2014-04-13T11:48:48Z</time>
      </trkpt>
      <trkpt lat="48.15084" lon="3.3075">
        <ele>67</ele>
        <time>2014-04-13T11:49:09Z</time>
      </trkpt>
      <trkpt lat="48.1508" lon="3.30747">
        <ele>67</ele>
        <time>2014-04-13T11:49:14Z</time>
      </trkpt>
      <trkpt lat="48.15071" lon="3.30737">
        <ele>68</ele>
        <time>2014-04-13T11:49:25Z</time>
      </trkpt>
      <trkpt lat="48.15067" lon="3.30734">
        <ele>68</ele>
        <time>2014-04-13T11:49:30Z</time>
      </trkpt>
      <trkpt lat="48.15057" lon="3.30732">
        <ele>69</ele>
        <time>2014-04-13T11:49:38Z</time>
      </trkpt>
      <trkpt lat="48.15048" lon="3.30727">
        <ele>69</ele>
        <time>2014-04-13T11:49:47Z</time>
      </trkpt>
      <trkpt lat="48.15043" lon="3.30722">
        <ele>69</ele>
        <time>2014-04-13T11:49:52Z</time>
      </trkpt>
      <trkpt lat="48.15038" lon="3.30722">
        <ele>69</ele>
        <time>2014-04-13T11:49:55Z</time>
      </trkpt>
      <trkpt lat="48.15028" lon="3.30715">
        <ele>69</ele>
        <time>2014-04-13T11:50:03Z</time>
      </trkpt>
      <trkpt lat="48.15025" lon="3.3071">
        <ele>69</ele>
        <time>2014-04-13T11:50:09Z</time>
      </trkpt>
      <trkpt lat="48.15021" lon="3.30706">
        <ele>70</ele>
        <time>2014-04-13T11:50:13Z</time>
      </trkpt>
      <trkpt lat="48.15012" lon="3.30696">
        <ele>70</ele>
        <time>2014-04-13T11:50:23Z</time>
      </trkpt>
      <trkpt lat="48.15003" lon="3.30689">
        <ele>70</ele>
        <time>2014-04-13T11:50:29Z</time>
      </trkpt>
      <trkpt lat="48.15" lon="3.30683">
        <ele>69</ele>
        <time>2014-04-13T11:50:35Z</time>
      </trkpt>
      <trkpt lat="48.14995" lon="3.3068">
        <ele>69</ele>
        <time>2014-04-13T11:50:40Z</time>
      </trkpt>
      <trkpt lat="48.1499" lon="3.30678">
        <ele>69</ele>
        <time>2014-04-13T11:50:43Z</time>
      </trkpt>
      <trkpt lat="48.14981" lon="3.30672">
        <ele>69</ele>
        <time>2014-04-13T11:50:49Z</time>
      </trkpt>
      <trkpt lat="48.14973" lon="3.3066">
        <ele>68</ele>
        <time>2014-04-13T11:50:57Z</time>
      </trkpt>
      <trkpt lat="48.14968" lon="3.30661">
        <ele>68</ele>
        <time>2014-04-13T11:51:02Z</time>
      </trkpt>
      <trkpt lat="48.14963" lon="3.30658">
        <ele>68</ele>
        <time>2014-04-13T11:51:06Z</time>
      </trkpt>
      <trkpt lat="48.14958" lon="3.30655">
        <ele>68</ele>
        <time>2014-04-13T11:51:10Z</time>
      </trkpt>
      <trkpt lat="48.14953" lon="3.30652">
        <ele>68</ele>
        <time>2014-04-13T11:51:14Z</time>
      </trkpt>
      <trkpt lat="48.1495" lon="3.30646">
        <ele>67</ele>
        <time>2014-04-13T11:51:19Z</time>
      </trkpt>
      <trkpt lat="48.14948" lon="3.30639">
        <ele>67</ele>
        <time>2014-04-13T11:51:23Z</time>
      </trkpt>
      <trkpt lat="48.14943" lon="3.30636">
        <ele>67</ele>
        <time>2014-04-13T11:51:27Z</time>
      </trkpt>
      <trkpt lat="48.14939" lon="3.30632">
        <ele>67</ele>
        <time>2014-04-13T11:51:31Z</time>
      </trkpt>
      <trkpt lat="48.14936" lon="3.30626">
        <ele>67</ele>
        <time>2014-04-13T11:51:36Z</time>
      </trkpt>
      <trkpt lat="48.14932" lon="3.3062">
        <ele>67</ele>
        <time>2014-04-13T11:51:41Z</time>
      </trkpt>
      <trkpt lat="48.14919" lon="3.30609">
        <ele>67</ele>
        <time>2014-04-13T11:51:54Z</time>
      </trkpt>
      <trkpt lat="48.14915" lon="3.30604">
        <ele>67</ele>
        <time>2014-04-13T11:51:57Z</time>
      </trkpt>
      <trkpt lat="48.14913" lon="3.30598">
        <ele>67</ele>
        <time>2014-04-13T11:52:01Z</time>
      </trkpt>
      <trkpt lat="48.14908" lon="3.30594">
        <ele>67</ele>
        <time>2014-04-13T11:52:05Z</time>
      </trkpt>
      <trkpt lat="48.14897" lon="3.30581">
        <ele>67</ele>
        <time>2014-04-13T11:52:18Z</time>
      </trkpt>
      <trkpt lat="48.1489" lon="3.3057">
        <ele>67</ele>
        <time>2014-04-13T11:52:28Z</time>
      </trkpt>
      <trkpt lat="48.14883" lon="3.3056">
        <ele>67</ele>
        <time>2014-04-13T11:52:37Z</time>
      </trkpt>
      <trkpt lat="48.14874" lon="3.30554">
        <ele>67</ele>
        <time>2014-04-13T11:52:43Z</time>
      </trkpt>
      <trkpt lat="48.14869" lon="3.30552">
        <ele>67</ele>
        <time>2014-04-13T11:52:46Z</time>
      </trkpt>
      <trkpt lat="48.14865" lon="3.30547">
        <ele>67</ele>
        <time>2014-04-13T11:52:51Z</time>
      </trkpt>
      <trkpt lat="48.1486" lon="3.30532">
        <ele>67</ele>
        <time>2014-04-13T11:52:59Z</time>
      </trkpt>
      <trkpt lat="48.14856" lon="3.3053">
        <ele>67</ele>
        <time>2014-04-13T11:53:04Z</time>
      </trkpt>
      <trkpt lat="48.14851" lon="3.30527">
        <ele>67</ele>
        <time>2014-04-13T11:53:09Z</time>
      </trkpt>
      <trkpt lat="48.14846" lon="3.30525">
        <ele>68</ele>
        <time>2014-04-13T11:53:12Z</time>
      </trkpt>
      <trkpt lat="48.14841" lon="3.30524">
        <ele>68</ele>
        <time>2014-04-13T11:53:16Z</time>
      </trkpt>
      <trkpt lat="48.14839" lon="3.30518">
        <ele>68</ele>
        <time>2014-04-13T11:53:20Z</time>
      </trkpt>
      <trkpt lat="48.14836" lon="3.30513">
        <ele>68</ele>
        <time>2014-04-13T11:53:24Z</time>
      </trkpt>
      <trkpt lat="48.14827" lon="3.30506">
        <ele>68</ele>
        <time>2014-04-13T11:53:32Z</time>
      </trkpt>
      <trkpt lat="48.14825" lon="3.305">
        <ele>68</ele>
        <time>2014-04-13T11:53:37Z</time>
      </trkpt>
      <trkpt lat="48.14823" lon="3.30494">
        <ele>68</ele>
        <time>2014-04-13T11:53:41Z</time>
      </trkpt>
      <trkpt lat="48.14819" lon="3.3049">
        <ele>68</ele>
        <time>2014-04-13T11:53:45Z</time>
      </trkpt>
      <trkpt lat="48.14815" lon="3.30485">
        <ele>68</ele>
        <time>2014-04-13T11:53:49Z</time>
      </trkpt>
      <trkpt lat="48.14812" lon="3.30479">
        <ele>68</ele>
        <time>2014-04-13T11:53:53Z</time>
      </trkpt>
      <trkpt lat="48.14808" lon="3.30474">
        <ele>68</ele>
        <time>2014-04-13T11:53:57Z</time>
      </trkpt>
      <trkpt lat="48.14804" lon="3.3047">
        <ele>68</ele>
        <time>2014-04-13T11:54:01Z</time>
      </trkpt>
      <trkpt lat="48.14801" lon="3.30463">
        <ele>68</ele>
        <time>2014-04-13T11:54:06Z</time>
      </trkpt>
      <trkpt lat="48.14797" lon="3.30459">
        <ele>68</ele>
        <time>2014-04-13T11:54:11Z</time>
      </trkpt>
      <trkpt lat="48.14794" lon="3.30451">
        <ele>69</ele>
        <time>2014-04-13T11:54:16Z</time>
      </trkpt>
      <trkpt lat="48.14782" lon="3.30436">
        <ele>68</ele>
        <time>2014-04-13T11:54:28Z</time>
      </trkpt>
      <trkpt lat="48.1478" lon="3.30429">
        <ele>68</ele>
        <time>2014-04-13T11:54:33Z</time>
      </trkpt>
      <trkpt lat="48.14777" lon="3.30422">
        <ele>68</ele>
        <time>2014-04-13T11:54:39Z</time>
      </trkpt>
      <trkpt lat="48.14775" lon="3.30415">
        <ele>68</ele>
        <time>2014-04-13T11:54:44Z</time>
      </trkpt>
      <trkpt lat="48.14772" lon="3.30408">
        <ele>68</ele>
        <time>2014-04-13T11:54:48Z</time>
      </trkpt>
      <trkpt lat="48.1477" lon="3.30402">
        <ele>68</ele>
        <time>2014-04-13T11:54:53Z</time>
      </trkpt>
      <trkpt lat="48.14767" lon="3.30397">
        <ele>68</ele>
        <time>2014-04-13T11:54:59Z</time>
      </trkpt>
      <trkpt lat="48.14763" lon="3.30383">
        <ele>68</ele>
        <time>2014-04-13T11:55:08Z</time>
      </trkpt>
      <trkpt lat="48.1474" lon="3.30342">
        <ele>67</ele>
        <time>2014-04-13T11:55:35Z</time>
      </trkpt>
      <trkpt lat="48.14737" lon="3.30335">
        <ele>67</ele>
        <time>2014-04-13T11:55:39Z</time>
      </trkpt>
      <trkpt lat="48.14733" lon="3.30305">
        <ele>67</ele>
        <time>2014-04-13T11:55:57Z</time>
      </trkpt>
      <trkpt lat="48.14733" lon="3.30298">
        <ele>67</ele>
        <time>2014-04-13T11:56:00Z</time>
      </trkpt>
      <trkpt lat="48.14733" lon="3.3029">
        <ele>67</ele>
        <time>2014-04-13T11:56:04Z</time>
      </trkpt>
      <trkpt lat="48.1473" lon="3.30283">
        <ele>67</ele>
        <time>2014-04-13T11:56:09Z</time>
      </trkpt>
      <trkpt lat="48.14729" lon="3.30276">
        <ele>67</ele>
        <time>2014-04-13T11:56:14Z</time>
      </trkpt>
      <trkpt lat="48.14725" lon="3.30272">
        <ele>67</ele>
        <time>2014-04-13T11:56:20Z</time>
      </trkpt>
      <trkpt lat="48.14722" lon="3.30264">
        <ele>67</ele>
        <time>2014-04-13T11:56:25Z</time>
      </trkpt>
      <trkpt lat="48.14723" lon="3.30249">
        <ele>67</ele>
        <time>2014-04-13T11:56:36Z</time>
      </trkpt>
      <trkpt lat="48.14721" lon="3.30243">
        <ele>67</ele>
        <time>2014-04-13T11:56:40Z</time>
      </trkpt>
      <trkpt lat="48.14717" lon="3.30236">
        <ele>67</ele>
        <time>2014-04-13T11:56:44Z</time>
      </trkpt>
      <trkpt lat="48.14715" lon="3.30229">
        <ele>67</ele>
        <time>2014-04-13T11:56:48Z</time>
      </trkpt>
      <trkpt lat="48.14713" lon="3.30215">
        <ele>67</ele>
        <time>2014-04-13T11:56:57Z</time>
      </trkpt>
      <trkpt lat="48.14713" lon="3.30207">
        <ele>67</ele>
        <time>2014-04-13T11:57:01Z</time>
      </trkpt>
      <trkpt lat="48.14711" lon="3.302">
        <ele>67</ele>
        <time>2014-04-13T11:57:05Z</time>
      </trkpt>
      <trkpt lat="48.14708" lon="3.30194">
        <ele>67</ele>
        <time>2014-04-13T11:57:08Z</time>
      </trkpt>
      <trkpt lat="48.14711" lon="3.3018">
        <ele>67</ele>
        <time>2014-04-13T11:57:17Z</time>
      </trkpt>
      <trkpt lat="48.14708" lon="3.30174">
        <ele>67</ele>
        <time>2014-04-13T11:57:21Z</time>
      </trkpt>
      <trkpt lat="48.14704" lon="3.30169">
        <ele>67</ele>
        <time>2014-04-13T11:57:24Z</time>
      </trkpt>
      <trkpt lat="48.14696" lon="3.30149">
        <ele>67</ele>
        <time>2014-04-13T11:57:35Z</time>
      </trkpt>
      <trkpt lat="48.14695" lon="3.30142">
        <ele>67</ele>
        <time>2014-04-13T11:57:40Z</time>
      </trkpt>
      <trkpt lat="48.14693" lon="3.30135">
        <ele>67</ele>
        <time>2014-04-13T11:57:44Z</time>
      </trkpt>
      <trkpt lat="48.14685" lon="3.30116">
        <ele>67</ele>
        <time>2014-04-13T11:57:58Z</time>
      </trkpt>
      <trkpt lat="48.14683" lon="3.30108">
        <ele>67</ele>
        <time>2014-04-13T11:58:02Z</time>
      </trkpt>
      <trkpt lat="48.14672" lon="3.30093">
        <ele>67</ele>
        <time>2014-04-13T11:58:15Z</time>
      </trkpt>
      <trkpt lat="48.14667" lon="3.30089">
        <ele>67</ele>
        <time>2014-04-13T11:58:18Z</time>
      </trkpt>
      <trkpt lat="48.14665" lon="3.30083">
        <ele>67</ele>
        <time>2014-04-13T11:58:22Z</time>
      </trkpt>
      <trkpt lat="48.14664" lon="3.30068">
        <ele>67</ele>
        <time>2014-04-13T11:58:31Z</time>
      </trkpt>
      <trkpt lat="48.14664" lon="3.30059">
        <ele>67</ele>
        <time>2014-04-13T11:58:35Z</time>
      </trkpt>
      <trkpt lat="48.14663" lon="3.30052">
        <ele>68</ele>
        <time>2014-04-13T11:58:39Z</time>
      </trkpt>
      <trkpt lat="48.14657" lon="3.30039">
        <ele>68</ele>
        <time>2014-04-13T11:58:48Z</time>
      </trkpt>
      <trkpt lat="48.14653" lon="3.30034">
        <ele>68</ele>
        <time>2014-04-13T11:58:51Z</time>
      </trkpt>
      <trkpt lat="48.1465" lon="3.30027">
        <ele>68</ele>
        <time>2014-04-13T11:58:56Z</time>
      </trkpt>
      <trkpt lat="48.14647" lon="3.30022">
        <ele>68</ele>
        <time>2014-04-13T11:59:01Z</time>
      </trkpt>
      <trkpt lat="48.14643" lon="3.30011">
        <ele>68</ele>
        <time>2014-04-13T11:59:13Z</time>
      </trkpt>
      <trkpt lat="48.14641" lon="3.29997">
        <ele>69</ele>
        <time>2014-04-13T11:59:20Z</time>
      </trkpt>
      <trkpt lat="48.14632" lon="3.29979">
        <ele>69</ele>
        <time>2014-04-13T11:59:32Z</time>
      </trkpt>
      <trkpt lat="48.1463" lon="3.29972">
        <ele>70</ele>
        <time>2014-04-13T11:59:38Z</time>
      </trkpt>
      <trkpt lat="48.14629" lon="3.29965">
        <ele>70</ele>
        <time>2014-04-13T11:59:42Z</time>
      </trkpt>
      <trkpt lat="48.14625" lon="3.29959">
        <ele>70</ele>
        <time>2014-04-13T11:59:48Z</time>
      </trkpt>
      <trkpt lat="48.14621" lon="3.29956">
        <ele>70</ele>
        <time>2014-04-13T11:59:53Z</time>
      </trkpt>
      <trkpt lat="48.14615" lon="3.29944">
        <ele>70</ele>
        <time>2014-04-13T12:00:00Z</time>
      </trkpt>
      <trkpt lat="48.14612" lon="3.29928">
        <ele>71</ele>
        <time>2014-04-13T12:00:10Z</time>
      </trkpt>
      <trkpt lat="48.14609" lon="3.2992">
        <ele>71</ele>
        <time>2014-04-13T12:00:15Z</time>
      </trkpt>
      <trkpt lat="48.146" lon="3.29912">
        <ele>71</ele>
        <time>2014-04-13T12:00:24Z</time>
      </trkpt>
      <trkpt lat="48.14588" lon="3.29897">
        <ele>71</ele>
        <time>2014-04-13T12:00:33Z</time>
      </trkpt>
      <trkpt lat="48.14585" lon="3.2989">
        <ele>71</ele>
        <time>2014-04-13T12:00:38Z</time>
      </trkpt>
      <trkpt lat="48.14582" lon="3.29885">
        <ele>71</ele>
        <time>2014-04-13T12:00:45Z</time>
      </trkpt>
      <trkpt lat="48.14578" lon="3.2988">
        <ele>71</ele>
        <time>2014-04-13T12:00:50Z</time>
      </trkpt>
      <trkpt lat="48.14573" lon="3.29876">
        <ele>71</ele>
        <time>2014-04-13T12:00:53Z</time>
      </trkpt>
      <trkpt lat="48.14568" lon="3.29872">
        <ele>71</ele>
        <time>2014-04-13T12:00:56Z</time>
      </trkpt>
      <trkpt lat="48.14563" lon="3.29868">
        <ele>70</ele>
        <time>2014-04-13T12:01:00Z</time>
      </trkpt>
      <trkpt lat="48.1456" lon="3.29862">
        <ele>70</ele>
        <time>2014-04-13T12:01:06Z</time>
      </trkpt>
      <trkpt lat="48.14557" lon="3.29856">
        <ele>70</ele>
        <time>2014-04-13T12:01:11Z</time>
      </trkpt>
      <trkpt lat="48.14552" lon="3.29851">
        <ele>70</ele>
        <time>2014-04-13T12:01:16Z</time>
      </trkpt>
      <trkpt lat="48.14549" lon="3.29847">
        <ele>70</ele>
        <time>2014-04-13T12:01:20Z</time>
      </trkpt>
      <trkpt lat="48.14536" lon="3.29835">
        <ele>70</ele>
        <time>2014-04-13T12:01:30Z</time>
      </trkpt>
      <trkpt lat="48.14532" lon="3.2983">
        <ele>69</ele>
        <time>2014-04-13T12:01:33Z</time>
      </trkpt>
      <trkpt lat="48.14527" lon="3.29827">
        <ele>69</ele>
        <time>2014-04-13T12:01:37Z</time>
      </trkpt>
      <trkpt lat="48.14515" lon="3.29813">
        <ele>70</ele>
        <time>2014-04-13T12:01:50Z</time>
      </trkpt>
      <trkpt lat="48.1451" lon="3.2981">
        <ele>70</ele>
        <time>2014-04-13T12:01:55Z</time>
      </trkpt>
      <trkpt lat="48.14508" lon="3.29804">
        <ele>70</ele>
        <time>2014-04-13T12:01:59Z</time>
      </trkpt>
      <trkpt lat="48.14504" lon="3.29799">
        <ele>70</ele>
        <time>2014-04-13T12:02:03Z</time>
      </trkpt>
      <trkpt lat="48.14503" lon="3.29792">
        <ele>70</ele>
        <time>2014-04-13T12:02:07Z</time>
      </trkpt>
      <trkpt lat="48.145" lon="3.29787">
        <ele>69</ele>
        <time>2014-04-13T12:02:11Z</time>
      </trkpt>
      <trkpt lat="48.14495" lon="3.29784">
        <ele>69</ele>
        <time>2014-04-13T12:02:16Z</time>
      </trkpt>
      <trkpt lat="48.14492" lon="3.29778">
        <ele>69</ele>
        <time>2014-04-13T12:02:20Z</time>
      </trkpt>
      <trkpt lat="48.14489" lon="3.29773">
        <ele>69</ele>
        <time>2014-04-13T12:02:23Z</time>
      </trkpt>
      <trkpt lat="48.14484" lon="3.2977">
        <ele>69</ele>
        <time>2014-04-13T12:02:26Z</time>
      </trkpt>
      <trkpt lat="48.1448" lon="3.29766">
        <ele>69</ele>
        <time>2014-04-13T12:02:31Z</time>
      </trkpt>
      <trkpt lat="48.14479" lon="3.29756">
        <ele>69</ele>
        <time>2014-04-13T12:02:37Z</time>
      </trkpt>
      <trkpt lat="48.14471" lon="3.29746">
        <ele>69</ele>
        <time>2014-04-13T12:02:44Z</time>
      </trkpt>
      <trkpt lat="48.1446" lon="3.29729">
        <ele>69</ele>
        <time>2014-04-13T12:02:55Z</time>
      </trkpt>
      <trkpt lat="48.14455" lon="3.29726">
        <ele>69</ele>
        <time>2014-04-13T12:02:59Z</time>
      </trkpt>
      <trkpt lat="48.1445" lon="3.29723">
        <ele>69</ele>
        <time>2014-04-13T12:03:04Z</time>
      </trkpt>
      <trkpt lat="48.14442" lon="3.29705">
        <ele>69</ele>
        <time>2014-04-13T12:03:18Z</time>
      </trkpt>
      <trkpt lat="48.14437" lon="3.29702">
        <ele>69</ele>
        <time>2014-04-13T12:03:22Z</time>
      </trkpt>
      <trkpt lat="48.14433" lon="3.29698">
        <ele>69</ele>
        <time>2014-04-13T12:03:27Z</time>
      </trkpt>
      <trkpt lat="48.14423" lon="3.29694">
        <ele>69</ele>
        <time>2014-04-13T12:03:33Z</time>
      </trkpt>
      <trkpt lat="48.14418" lon="3.29691">
        <ele>69</ele>
        <time>2014-04-13T12:03:36Z</time>
      </trkpt>
      <trkpt lat="48.14414" lon="3.29686">
        <ele>69</ele>
        <time>2014-04-13T12:03:40Z</time>
      </trkpt>
      <trkpt lat="48.14409" lon="3.29683">
        <ele>69</ele>
        <time>2014-04-13T12:03:44Z</time>
      </trkpt>
      <trkpt lat="48.14404" lon="3.29683">
        <ele>69</ele>
        <time>2014-04-13T12:03:49Z</time>
      </trkpt>
      <trkpt lat="48.14395" lon="3.29679">
        <ele>69</ele>
        <time>2014-04-13T12:03:56Z</time>
      </trkpt>
      <trkpt lat="48.1439" lon="3.29678">
        <ele>69</ele>
        <time>2014-04-13T12:04:00Z</time>
      </trkpt>
      <trkpt lat="48.14385" lon="3.29677">
        <ele>69</ele>
        <time>2014-04-13T12:04:04Z</time>
      </trkpt>
      <trkpt lat="48.14379" lon="3.29667">
        <ele>69</ele>
        <time>2014-04-13T12:04:12Z</time>
      </trkpt>
      <trkpt lat="48.14374" lon="3.29664">
        <ele>68</ele>
        <time>2014-04-13T12:04:15Z</time>
      </trkpt>
      <trkpt lat="48.1437" lon="3.29662">
        <ele>68</ele>
        <time>2014-04-13T12:04:19Z</time>
      </trkpt>
      <trkpt lat="48.1436" lon="3.29655">
        <ele>68</ele>
        <time>2014-04-13T12:04:27Z</time>
      </trkpt>
      <trkpt lat="48.14355" lon="3.29653">
        <ele>68</ele>
        <time>2014-04-13T12:04:31Z</time>
      </trkpt>
      <trkpt lat="48.14351" lon="3.29648">
        <ele>68</ele>
        <time>2014-04-13T12:04:34Z</time>
      </trkpt>
      <trkpt lat="48.14347" lon="3.29645">
        <ele>67</ele>
        <time>2014-04-13T12:04:37Z</time>
      </trkpt>
      <trkpt lat="48.14342" lon="3.29646">
        <ele>67</ele>
        <time>2014-04-13T12:04:42Z</time>
      </trkpt>
      <trkpt lat="48.14327" lon="3.29642">
        <ele>67</ele>
        <time>2014-04-13T12:04:56Z</time>
      </trkpt>
      <trkpt lat="48.14322" lon="3.29641">
        <ele>67</ele>
        <time>2014-04-13T12:05:01Z</time>
      </trkpt>
      <trkpt lat="48.14316" lon="3.2964">
        <ele>67</ele>
        <time>2014-04-13T12:05:05Z</time>
      </trkpt>
      <trkpt lat="48.14312" lon="3.29641">
        <ele>67</ele>
        <time>2014-04-13T12:05:08Z</time>
      </trkpt>
      <trkpt lat="48.14306" lon="3.2964">
        <ele>67</ele>
        <time>2014-04-13T12:05:15Z</time>
      </trkpt>
      <trkpt lat="48.14296" lon="3.29635">
        <ele>67</ele>
        <time>2014-04-13T12:05:24Z</time>
      </trkpt>
      <trkpt lat="48.1429" lon="3.2963">
        <ele>67</ele>
        <time>2014-04-13T12:05:28Z</time>
      </trkpt>
      <trkpt lat="48.14286" lon="3.29628">
        <ele>67</ele>
        <time>2014-04-13T12:05:32Z</time>
      </trkpt>
      <trkpt lat="48.14275" lon="3.29623">
        <ele>67</ele>
        <time>2014-04-13T12:05:40Z</time>
      </trkpt>
      <trkpt lat="48.14272" lon="3.29617">
        <ele>67</ele>
        <time>2014-04-13T12:05:46Z</time>
      </trkpt>
      <trkpt lat="48.14267" lon="3.29614">
        <ele>67</ele>
        <time>2014-04-13T12:05:51Z</time>
      </trkpt>
      <trkpt lat="48.14261" lon="3.29613">
        <ele>67</ele>
        <time>2014-04-13T12:05:56Z</time>
      </trkpt>
      <trkpt lat="48.14256" lon="3.29613">
        <ele>67</ele>
        <time>2014-04-13T12:06:01Z</time>
      </trkpt>
      <trkpt lat="48.14251" lon="3.29614">
        <ele>67</ele>
        <time>2014-04-13T12:06:05Z</time>
      </trkpt>
      <trkpt lat="48.14246" lon="3.29614">
        <ele>67</ele>
        <time>2014-04-13T12:06:09Z</time>
      </trkpt>
      <trkpt lat="48.14241" lon="3.29613">
        <ele>67</ele>
        <time>2014-04-13T12:06:14Z</time>
      </trkpt>
      <trkpt lat="48.14237" lon="3.2961">
        <ele>67</ele>
        <time>2014-04-13T12:06:19Z</time>
      </trkpt>
      <trkpt lat="48.14233" lon="3.29613">
        <ele>67</ele>
        <time>2014-04-13T12:06:31Z</time>
      </trkpt>
      <trkpt lat="48.14229" lon="3.29612">
        <ele>67</ele>
        <time>2014-04-13T12:06:40Z</time>
      </trkpt>
      <trkpt lat="48.14223" lon="3.29611">
        <ele>67</ele>
        <time>2014-04-13T12:06:44Z</time>
      </trkpt>
      <trkpt lat="48.14219" lon="3.29606">
        <ele>67</ele>
        <time>2014-04-13T12:06:48Z</time>
      </trkpt>
      <trkpt lat="48.14215" lon="3.29603">
        <ele>67</ele>
        <time>2014-04-13T12:06:51Z</time>
      </trkpt>
      <trkpt lat="48.14209" lon="3.29602">
        <ele>67</ele>
        <time>2014-04-13T12:06:54Z</time>
      </trkpt>
      <trkpt lat="48.14204" lon="3.29604">
        <ele>67</ele>
        <time>2014-04-13T12:06:58Z</time>
      </trkpt>
      <trkpt lat="48.14194" lon="3.2961">
        <ele>67</ele>
        <time>2014-04-13T12:07:07Z</time>
      </trkpt>
      <trkpt lat="48.14188" lon="3.2961">
        <ele>67</ele>
        <time>2014-04-13T12:07:11Z</time>
      </trkpt>
      <trkpt lat="48.14174" lon="3.29617">
        <ele>67</ele>
        <time>2014-04-13T12:07:21Z</time>
      </trkpt>
      <trkpt lat="48.14169" lon="3.29617">
        <ele>67</ele>
        <time>2014-04-13T12:07:25Z</time>
      </trkpt>
      <trkpt lat="48.14164" lon="3.29618">
        <ele>67</ele>
        <time>2014-04-13T12:07:29Z</time>
      </trkpt>
      <trkpt lat="48.14158" lon="3.29619">
        <ele>67</ele>
        <time>2014-04-13T12:07:34Z</time>
      </trkpt>
      <trkpt lat="48.14153" lon="3.2962">
        <ele>67</ele>
        <time>2014-04-13T12:07:37Z</time>
      </trkpt>
      <trkpt lat="48.14148" lon="3.29621">
        <ele>67</ele>
        <time>2014-04-13T12:07:41Z</time>
      </trkpt>
      <trkpt lat="48.14144" lon="3.29617">
        <ele>67</ele>
        <time>2014-04-13T12:07:45Z</time>
      </trkpt>
      <trkpt lat="48.14139" lon="3.29614">
        <ele>67</ele>
        <time>2014-04-13T12:07:53Z</time>
      </trkpt>
      <trkpt lat="48.14134" lon="3.29613">
        <ele>67</ele>
        <time>2014-04-13T12:08:05Z</time>
      </trkpt>
      <trkpt lat="48.14129" lon="3.29613">
        <ele>67</ele>
        <time>2014-04-13T12:08:10Z</time>
      </trkpt>
      <trkpt lat="48.14118" lon="3.29616">
        <ele>67</ele>
        <time>2014-04-13T12:08:18Z</time>
      </trkpt>
      <trkpt lat="48.14113" lon="3.29617">
        <ele>67</ele>
        <time>2014-04-13T12:08:22Z</time>
      </trkpt>
      <trkpt lat="48.14107" lon="3.29618">
        <ele>67</ele>
        <time>2014-04-13T12:08:26Z</time>
      </trkpt>
      <trkpt lat="48.14102" lon="3.29622">
        <ele>67</ele>
        <time>2014-04-13T12:08:30Z</time>
      </trkpt>
      <trkpt lat="48.14097" lon="3.29623">
        <ele>67</ele>
        <time>2014-04-13T12:08:34Z</time>
      </trkpt>
      <trkpt lat="48.14087" lon="3.29624">
        <ele>67</ele>
        <time>2014-04-13T12:08:43Z</time>
      </trkpt>
      <trkpt lat="48.14082" lon="3.29623">
        <ele>67</ele>
        <time>2014-04-13T12:08:49Z</time>
      </trkpt>
      <trkpt lat="48.14077" lon="3.29624">
        <ele>67</ele>
        <time>2014-04-13T12:08:54Z</time>
      </trkpt>
      <trkpt lat="48.14066" lon="3.29625">
        <ele>66</ele>
        <time>2014-04-13T12:09:03Z</time>
      </trkpt>
      <trkpt lat="48.14057" lon="3.29623">
        <ele>66</ele>
        <time>2014-04-13T12:09:12Z</time>
      </trkpt>
      <trkpt lat="48.14053" lon="3.2962">
        <ele>66</ele>
        <time>2014-04-13T12:09:16Z</time>
      </trkpt>
      <trkpt lat="48.14048" lon="3.29622">
        <ele>66</ele>
        <time>2014-04-13T12:09:20Z</time>
      </trkpt>
      <trkpt lat="48.14043" lon="3.29625">
        <ele>66</ele>
        <time>2014-04-13T12:09:23Z</time>
      </trkpt>
      <trkpt lat="48.14039" lon="3.29627">
        <ele>66</ele>
        <time>2014-04-13T12:09:27Z</time>
      </trkpt>
      <trkpt lat="48.14034" lon="3.29627">
        <ele>66</ele>
        <time>2014-04-13T12:09:32Z</time>
      </trkpt>
      <trkpt lat="48.14029" lon="3.29629">
        <ele>66</ele>
        <time>2014-04-13T12:09:35Z</time>
      </trkpt>
      <trkpt lat="48.14019" lon="3.29632">
        <ele>66</ele>
        <time>2014-04-13T12:09:42Z</time>
      </trkpt>
      <trkpt lat="48.14014" lon="3.29631">
        <ele>66</ele>
        <time>2014-04-13T12:09:46Z</time>
      </trkpt>
      <trkpt lat="48.14008" lon="3.29631">
        <ele>66</ele>
        <time>2014-04-13T12:09:50Z</time>
      </trkpt>
      <trkpt lat="48.13999" lon="3.29628">
        <ele>66</ele>
        <time>2014-04-13T12:10:00Z</time>
      </trkpt>
      <trkpt lat="48.13989" lon="3.29627">
        <ele>66</ele>
        <time>2014-04-13T12:10:08Z</time>
      </trkpt>
      <trkpt lat="48.13984" lon="3.29627">
        <ele>66</ele>
        <time>2014-04-13T12:10:12Z</time>
      </trkpt>
      <trkpt lat="48.13974" lon="3.29625">
        <ele>66</ele>
        <time>2014-04-13T12:10:23Z</time>
      </trkpt>
      <trkpt lat="48.13969" lon="3.29625">
        <ele>66</ele>
        <time>2014-04-13T12:10:27Z</time>
      </trkpt>
      <trkpt lat="48.13964" lon="3.29627">
        <ele>66</ele>
        <time>2014-04-13T12:10:31Z</time>
      </trkpt>
      <trkpt lat="48.13958" lon="3.29629">
        <ele>66</ele>
        <time>2014-04-13T12:10:35Z</time>
      </trkpt>
      <trkpt lat="48.13954" lon="3.29627">
        <ele>66</ele>
        <time>2014-04-13T12:10:39Z</time>
      </trkpt>
      <trkpt lat="48.13944" lon="3.29621">
        <ele>66</ele>
        <time>2014-04-13T12:10:48Z</time>
      </trkpt>
      <trkpt lat="48.13938" lon="3.29621">
        <ele>66</ele>
        <time>2014-04-13T12:10:53Z</time>
      </trkpt>
      <trkpt lat="48.13934" lon="3.29621">
        <ele>66</ele>
        <time>2014-04-13T12:10:57Z</time>
      </trkpt>
      <trkpt lat="48.13929" lon="3.2962">
        <ele>66</ele>
        <time>2014-04-13T12:11:01Z</time>
      </trkpt>
      <trkpt lat="48.13924" lon="3.29617">
        <ele>66</ele>
        <time>2014-04-13T12:11:06Z</time>
      </trkpt>
      <trkpt lat="48.13919" lon="3.29616">
        <ele>66</ele>
        <time>2014-04-13T12:11:11Z</time>
      </trkpt>
      <trkpt lat="48.13914" lon="3.29617">
        <ele>66</ele>
        <time>2014-04-13T12:11:15Z</time>
      </trkpt>
      <trkpt lat="48.13909" lon="3.29614">
        <ele>66</ele>
        <time>2014-04-13T12:11:20Z</time>
      </trkpt>
      <trkpt lat="48.13904" lon="3.29613">
        <ele>66</ele>
        <time>2014-04-13T12:11:24Z</time>
      </trkpt>
      <trkpt lat="48.13865" lon="3.29605">
        <ele>66</ele>
        <time>2014-04-13T12:11:57Z</time>
      </trkpt>
      <trkpt lat="48.1386" lon="3.29605">
        <ele>66</ele>
        <time>2014-04-13T12:12:01Z</time>
      </trkpt>
      <trkpt lat="48.13855" lon="3.29604">
        <ele>67</ele>
        <time>2014-04-13T12:12:05Z</time>
      </trkpt>
      <trkpt lat="48.13849" lon="3.29604">
        <ele>67</ele>
        <time>2014-04-13T12:12:10Z</time>
      </trkpt>
      <trkpt lat="48.13844" lon="3.29603">
        <ele>67</ele>
        <time>2014-04-13T12:12:14Z</time>
      </trkpt>
      <trkpt lat="48.13839" lon="3.29603">
        <ele>67</ele>
        <time>2014-04-13T12:12:18Z</time>
      </trkpt>
      <trkpt lat="48.13819" lon="3.29597">
        <ele>67</ele>
        <time>2014-04-13T12:12:36Z</time>
      </trkpt>
      <trkpt lat="48.13815" lon="3.29595">
        <ele>67</ele>
        <time>2014-04-13T12:12:41Z</time>
      </trkpt>
      <trkpt lat="48.13809" lon="3.29594">
        <ele>66</ele>
        <time>2014-04-13T12:12:45Z</time>
      </trkpt>
      <trkpt lat="48.13805" lon="3.29593">
        <ele>66</ele>
        <time>2014-04-13T12:12:49Z</time>
      </trkpt>
      <trkpt lat="48.138" lon="3.29594">
        <ele>66</ele>
        <time>2014-04-13T12:12:53Z</time>
      </trkpt>
      <trkpt lat="48.13795" lon="3.29592">
        <ele>66</ele>
        <time>2014-04-13T12:12:58Z</time>
      </trkpt>
      <trkpt lat="48.1379" lon="3.2959">
        <ele>66</ele>
        <time>2014-04-13T12:13:03Z</time>
      </trkpt>
      <trkpt lat="48.13785" lon="3.29589">
        <ele>66</ele>
        <time>2014-04-13T12:13:07Z</time>
      </trkpt>
      <trkpt lat="48.1378" lon="3.29588">
        <ele>66</ele>
        <time>2014-04-13T12:13:11Z</time>
      </trkpt>
      <trkpt lat="48.13775" lon="3.29588">
        <ele>66</ele>
        <time>2014-04-13T12:13:15Z</time>
      </trkpt>
      <trkpt lat="48.1377" lon="3.29588">
        <ele>66</ele>
        <time>2014-04-13T12:13:19Z</time>
      </trkpt>
      <trkpt lat="48.13765" lon="3.29587">
        <ele>66</ele>
        <time>2014-04-13T12:13:23Z</time>
      </trkpt>
      <trkpt lat="48.1376" lon="3.29585">
        <ele>66</ele>
        <time>2014-04-13T12:13:28Z</time>
      </trkpt>
      <trkpt lat="48.1376" lon="3.29578">
        <ele>67</ele>
        <time>2014-04-13T12:13:37Z</time>
      </trkpt>
      <trkpt lat="48.13756" lon="3.29574">
        <ele>67</ele>
        <time>2014-04-13T12:13:53Z</time>
      </trkpt>
      <trkpt lat="48.13751" lon="3.29575">
        <ele>66</ele>
        <time>2014-04-13T12:13:56Z</time>
      </trkpt>
      <trkpt lat="48.13749" lon="3.29569">
        <ele>66</ele>
        <time>2014-04-13T12:14:01Z</time>
      </trkpt>
      <trkpt lat="48.13744" lon="3.29568">
        <ele>66</ele>
        <time>2014-04-13T12:14:05Z</time>
      </trkpt>
      <trkpt lat="48.13739" lon="3.29566">
        <ele>66</ele>
        <time>2014-04-13T12:14:08Z</time>
      </trkpt>
      <trkpt lat="48.13736" lon="3.2956">
        <ele>66</ele>
        <time>2014-04-13T12:14:12Z</time>
      </trkpt>
      <trkpt lat="48.13731" lon="3.29558">
        <ele>66</ele>
        <time>2014-04-13T12:14:18Z</time>
      </trkpt>
      <trkpt lat="48.13726" lon="3.29554">
        <ele>66</ele>
        <time>2014-04-13T12:14:24Z</time>
      </trkpt>
      <trkpt lat="48.13722" lon="3.29552">
        <ele>66</ele>
        <time>2014-04-13T12:14:28Z</time>
      </trkpt>
      <trkpt lat="48.13717" lon="3.2955">
        <ele>66</ele>
        <time>2014-04-13T12:14:33Z</time>
      </trkpt>
      <trkpt lat="48.13712" lon="3.2955">
        <ele>66</ele>
        <time>2014-04-13T12:14:36Z</time>
      </trkpt>
      <trkpt lat="48.1371" lon="3.29544">
        <ele>66</ele>
        <time>2014-04-13T12:14:39Z</time>
      </trkpt>
      <trkpt lat="48.13704" lon="3.29542">
        <ele>66</ele>
        <time>2014-04-13T12:14:43Z</time>
      </trkpt>
      <trkpt lat="48.13694" lon="3.29545">
        <ele>66</ele>
        <time>2014-04-13T12:14:49Z</time>
      </trkpt>
      <trkpt lat="48.13684" lon="3.29541">
        <ele>66</ele>
        <time>2014-04-13T12:14:57Z</time>
      </trkpt>
      <trkpt lat="48.1368" lon="3.29539">
        <ele>66</ele>
        <time>2014-04-13T12:15:01Z</time>
      </trkpt>
      <trkpt lat="48.13675" lon="3.29537">
        <ele>66</ele>
        <time>2014-04-13T12:15:05Z</time>
      </trkpt>
      <trkpt lat="48.13669" lon="3.29536">
        <ele>66</ele>
        <time>2014-04-13T12:15:09Z</time>
      </trkpt>
      <trkpt lat="48.13665" lon="3.29534">
        <ele>66</ele>
        <time>2014-04-13T12:15:13Z</time>
      </trkpt>
      <trkpt lat="48.13663" lon="3.29533">
        <ele>66</ele>
        <time>2014-04-13T12:15:19Z</time>
      </trkpt>
      <trkpt lat="48.13659" lon="3.29527">
        <ele>66</ele>
        <time>2014-04-13T12:15:29Z</time>
      </trkpt>
      <trkpt lat="48.1365" lon="3.29522">
        <ele>66</ele>
        <time>2014-04-13T12:15:36Z</time>
      </trkpt>
      <trkpt lat="48.13646" lon="3.29521">
        <ele>66</ele>
        <time>2014-04-13T12:15:40Z</time>
      </trkpt>
      <trkpt lat="48.1364" lon="3.2952">
        <ele>66</ele>
        <time>2014-04-13T12:15:45Z</time>
      </trkpt>
      <trkpt lat="48.1363" lon="3.29515">
        <ele>66</ele>
        <time>2014-04-13T12:15:54Z</time>
      </trkpt>
      <trkpt lat="48.13625" lon="3.29514">
        <ele>66</ele>
        <time>2014-04-13T12:15:59Z</time>
      </trkpt>
      <trkpt lat="48.13617" lon="3.29503">
        <ele>66</ele>
        <time>2014-04-13T12:16:09Z</time>
      </trkpt>
      <trkpt lat="48.13608" lon="3.2951">
        <ele>66</ele>
        <time>2014-04-13T12:16:15Z</time>
      </trkpt>
      <trkpt lat="48.13609" lon="3.29505">
        <ele>66</ele>
        <time>2014-04-13T12:16:24Z</time>
      </trkpt>
      <trkpt lat="48.13608" lon="3.29501">
        <ele>67</ele>
        <time>2014-04-13T12:16:36Z</time>
      </trkpt>
      <trkpt lat="48.13597" lon="3.29501">
        <ele>67</ele>
        <time>2014-04-13T12:16:47Z</time>
      </trkpt>
      <trkpt lat="48.13592" lon="3.29501">
        <ele>67</ele>
        <time>2014-04-13T12:16:53Z</time>
      </trkpt>
      <trkpt lat="48.13587" lon="3.29505">
        <ele>67</ele>
        <time>2014-04-13T12:16:58Z</time>
      </trkpt>
      <trkpt lat="48.13582" lon="3.29504">
        <ele>67</ele>
        <time>2014-04-13T12:17:03Z</time>
      </trkpt>
      <trkpt lat="48.13576" lon="3.29504">
        <ele>67</ele>
        <time>2014-04-13T12:17:07Z</time>
      </trkpt>
      <trkpt lat="48.13571" lon="3.29506">
        <ele>67</ele>
        <time>2014-04-13T12:17:11Z</time>
      </trkpt>
      <trkpt lat="48.13556" lon="3.29504">
        <ele>67</ele>
        <time>2014-04-13T12:17:24Z</time>
      </trkpt>
      <trkpt lat="48.13544" lon="3.29506">
        <ele>67</ele>
        <time>2014-04-13T12:17:33Z</time>
      </trkpt>
      <trkpt lat="48.13534" lon="3.29505">
        <ele>67</ele>
        <time>2014-04-13T12:17:42Z</time>
      </trkpt>
      <trkpt lat="48.13529" lon="3.29504">
        <ele>67</ele>
        <time>2014-04-13T12:17:47Z</time>
      </trkpt>
      <trkpt lat="48.13523" lon="3.29506">
        <ele>67</ele>
        <time>2014-04-13T12:17:51Z</time>
      </trkpt>
      <trkpt lat="48.13513" lon="3.29508">
        <ele>67</ele>
        <time>2014-04-13T12:17:59Z</time>
      </trkpt>
      <trkpt lat="48.13508" lon="3.29511">
        <ele>67</ele>
        <time>2014-04-13T12:18:02Z</time>
      </trkpt>
      <trkpt lat="48.13493" lon="3.2951">
        <ele>67</ele>
        <time>2014-04-13T12:18:14Z</time>
      </trkpt>
      <trkpt lat="48.13488" lon="3.29509">
        <ele>67</ele>
        <time>2014-04-13T12:18:18Z</time>
      </trkpt>
      <trkpt lat="48.13474" lon="3.29506">
        <ele>67</ele>
        <time>2014-04-13T12:18:34Z</time>
      </trkpt>
      <trkpt lat="48.13469" lon="3.29508">
        <ele>67</ele>
        <time>2014-04-13T12:18:36Z</time>
      </trkpt>
      <trkpt lat="48.1346" lon="3.29513">
        <ele>67</ele>
        <time>2014-04-13T12:18:42Z</time>
      </trkpt>
      <trkpt lat="48.13455" lon="3.29514">
        <ele>67</ele>
        <time>2014-04-13T12:18:48Z</time>
      </trkpt>
      <trkpt lat="48.1345" lon="3.29512">
        <ele>67</ele>
        <time>2014-04-13T12:19:10Z</time>
      </trkpt>
      <trkpt lat="48.13444" lon="3.29512">
        <ele>67</ele>
        <time>2014-04-13T12:19:14Z</time>
      </trkpt>
      <trkpt lat="48.13429" lon="3.29518">
        <ele>67</ele>
        <time>2014-04-13T12:19:24Z</time>
      </trkpt>
      <trkpt lat="48.13424" lon="3.29518">
        <ele>67</ele>
        <time>2014-04-13T12:19:29Z</time>
      </trkpt>
      <trkpt lat="48.1342" lon="3.29516">
        <ele>67</ele>
        <time>2014-04-13T12:19:35Z</time>
      </trkpt>
      <trkpt lat="48.13415" lon="3.29513">
        <ele>67</ele>
        <time>2014-04-13T12:19:40Z</time>
      </trkpt>
      <trkpt lat="48.1341" lon="3.29513">
        <ele>67</ele>
        <time>2014-04-13T12:19:45Z</time>
      </trkpt>
      <trkpt lat="48.13405" lon="3.29517">
        <ele>67</ele>
        <time>2014-04-13T12:19:49Z</time>
      </trkpt>
      <trkpt lat="48.134" lon="3.29518">
        <ele>67</ele>
        <time>2014-04-13T12:19:51Z</time>
      </trkpt>
      <trkpt lat="48.13395" lon="3.29519">
        <ele>67</ele>
        <time>2014-04-13T12:19:53Z</time>
      </trkpt>
      <trkpt lat="48.13389" lon="3.29521">
        <ele>67</ele>
        <time>2014-04-13T12:19:55Z</time>
      </trkpt>
      <trkpt lat="48.13374" lon="3.29518">
        <ele>67</ele>
        <time>2014-04-13T12:20:09Z</time>
      </trkpt>
      <trkpt lat="48.13369" lon="3.2952">
        <ele>67</ele>
        <time>2014-04-13T12:20:14Z</time>
      </trkpt>
      <trkpt lat="48.13344" lon="3.29519">
        <ele>67</ele>
        <time>2014-04-13T12:20:37Z</time>
      </trkpt>
      <trkpt lat="48.13339" lon="3.29518">
        <ele>67</ele>
        <time>2014-04-13T12:20:42Z</time>
      </trkpt>
      <trkpt lat="48.13333" lon="3.29517">
        <ele>67</ele>
        <time>2014-04-13T12:20:47Z</time>
      </trkpt>
      <trkpt lat="48.13319" lon="3.29513">
        <ele>67</ele>
        <time>2014-04-13T12:21:00Z</time>
      </trkpt>
      <trkpt lat="48.13309" lon="3.29512">
        <ele>67</ele>
        <time>2014-04-13T12:21:09Z</time>
      </trkpt>
      <trkpt lat="48.13305" lon="3.29511">
        <ele>67</ele>
        <time>2014-04-13T12:21:13Z</time>
      </trkpt>
      <trkpt lat="48.13299" lon="3.29509">
        <ele>67</ele>
        <time>2014-04-13T12:21:18Z</time>
      </trkpt>
      <trkpt lat="48.13295" lon="3.29507">
        <ele>67</ele>
        <time>2014-04-13T12:21:23Z</time>
      </trkpt>
      <trkpt lat="48.1329" lon="3.29508">
        <ele>67</ele>
        <time>2014-04-13T12:21:27Z</time>
      </trkpt>
      <trkpt lat="48.1328" lon="3.29502">
        <ele>67</ele>
        <time>2014-04-13T12:21:37Z</time>
      </trkpt>
      <trkpt lat="48.13275" lon="3.295">
        <ele>67</ele>
        <time>2014-04-13T12:21:41Z</time>
      </trkpt>
      <trkpt lat="48.13271" lon="3.29498">
        <ele>67</ele>
        <time>2014-04-13T12:21:45Z</time>
      </trkpt>
      <trkpt lat="48.13266" lon="3.29497">
        <ele>67</ele>
        <time>2014-04-13T12:21:49Z</time>
      </trkpt>
      <trkpt lat="48.13261" lon="3.29497">
        <ele>67</ele>
        <time>2014-04-13T12:21:53Z</time>
      </trkpt>
      <trkpt lat="48.13252" lon="3.29495">
        <ele>67</ele>
        <time>2014-04-13T12:22:01Z</time>
      </trkpt>
      <trkpt lat="48.13248" lon="3.29493">
        <ele>67</ele>
        <time>2014-04-13T12:22:06Z</time>
      </trkpt>
      <trkpt lat="48.13238" lon="3.29487">
        <ele>67</ele>
        <time>2014-04-13T12:22:14Z</time>
      </trkpt>
      <trkpt lat="48.13234" lon="3.29485">
        <ele>67</ele>
        <time>2014-04-13T12:22:18Z</time>
      </trkpt>
      <trkpt lat="48.13227" lon="3.29474">
        <ele>67</ele>
        <time>2014-04-13T12:22:27Z</time>
      </trkpt>
      <trkpt lat="48.13222" lon="3.29471">
        <ele>67</ele>
        <time>2014-04-13T12:22:31Z</time>
      </trkpt>
      <trkpt lat="48.13217" lon="3.29467">
        <ele>67</ele>
        <time>2014-04-13T12:22:35Z</time>
      </trkpt>
      <trkpt lat="48.13207" lon="3.29465">
        <ele>67</ele>
        <time>2014-04-13T12:22:44Z</time>
      </trkpt>
      <trkpt lat="48.13201" lon="3.29465">
        <ele>67</ele>
        <time>2014-04-13T12:22:48Z</time>
      </trkpt>
      <trkpt lat="48.13196" lon="3.29463">
        <ele>67</ele>
        <time>2014-04-13T12:22:51Z</time>
      </trkpt>
      <trkpt lat="48.13191" lon="3.29459">
        <ele>67</ele>
        <time>2014-04-13T12:22:55Z</time>
      </trkpt>
      <trkpt lat="48.13181" lon="3.29458">
        <ele>67</ele>
        <time>2014-04-13T12:23:04Z</time>
      </trkpt>
      <trkpt lat="48.13176" lon="3.29454">
        <ele>66</ele>
        <time>2014-04-13T12:23:09Z</time>
      </trkpt>
      <trkpt lat="48.13166" lon="3.29449">
        <ele>66</ele>
        <time>2014-04-13T12:23:17Z</time>
      </trkpt>
      <trkpt lat="48.13161" lon="3.29446">
        <ele>65</ele>
        <time>2014-04-13T12:23:21Z</time>
      </trkpt>
      <trkpt lat="48.13158" lon="3.29441">
        <ele>65</ele>
        <time>2014-04-13T12:23:26Z</time>
      </trkpt>
      <trkpt lat="48.13155" lon="3.29436">
        <ele>65</ele>
        <time>2014-04-13T12:23:29Z</time>
      </trkpt>
      <trkpt lat="48.1315" lon="3.29435">
        <ele>65</ele>
        <time>2014-04-13T12:23:33Z</time>
      </trkpt>
      <trkpt lat="48.13145" lon="3.29433">
        <ele>65</ele>
        <time>2014-04-13T12:23:37Z</time>
      </trkpt>
      <trkpt lat="48.13141" lon="3.29432">
        <ele>65</ele>
        <time>2014-04-13T12:23:40Z</time>
      </trkpt>
      <trkpt lat="48.13136" lon="3.29431">
        <ele>65</ele>
        <time>2014-04-13T12:23:44Z</time>
      </trkpt>
      <trkpt lat="48.13131" lon="3.29426">
        <ele>65</ele>
        <time>2014-04-13T12:23:49Z</time>
      </trkpt>
      <trkpt lat="48.13127" lon="3.29422">
        <ele>65</ele>
        <time>2014-04-13T12:23:54Z</time>
      </trkpt>
      <trkpt lat="48.13122" lon="3.29418">
        <ele>65</ele>
        <time>2014-04-13T12:23:59Z</time>
      </trkpt>
      <trkpt lat="48.13115" lon="3.29408">
        <ele>64</ele>
        <time>2014-04-13T12:24:07Z</time>
      </trkpt>
      <trkpt lat="48.13101" lon="3.29401">
        <ele>64</ele>
        <time>2014-04-13T12:24:19Z</time>
      </trkpt>
      <trkpt lat="48.13096" lon="3.29397">
        <ele>64</ele>
        <time>2014-04-13T12:24:23Z</time>
      </trkpt>
      <trkpt lat="48.13092" lon="3.29395">
        <ele>64</ele>
        <time>2014-04-13T12:24:27Z</time>
      </trkpt>
      <trkpt lat="48.13083" lon="3.29387">
        <ele>64</ele>
        <time>2014-04-13T12:24:35Z</time>
      </trkpt>
      <trkpt lat="48.13074" lon="3.29379">
        <ele>64</ele>
        <time>2014-04-13T12:24:44Z</time>
      </trkpt>
      <trkpt lat="48.1306" lon="3.2937">
        <ele>64</ele>
        <time>2014-04-13T12:24:56Z</time>
      </trkpt>
      <trkpt lat="48.13051" lon="3.29364">
        <ele>64</ele>
        <time>2014-04-13T12:25:06Z</time>
      </trkpt>
      <trkpt lat="48.13047" lon="3.29365">
        <ele>64</ele>
        <time>2014-04-13T12:25:36Z</time>
      </trkpt>
      <trkpt lat="48.13044" lon="3.29359">
        <ele>64</ele>
        <time>2014-04-13T12:25:41Z</time>
      </trkpt>
      <trkpt lat="48.13041" lon="3.29353">
        <ele>64</ele>
        <time>2014-04-13T12:25:45Z</time>
      </trkpt>
      <trkpt lat="48.13038" lon="3.29346">
        <ele>64</ele>
        <time>2014-04-13T12:25:50Z</time>
      </trkpt>
      <trkpt lat="48.13033" lon="3.29343">
        <ele>64</ele>
        <time>2014-04-13T12:25:54Z</time>
      </trkpt>
      <trkpt lat="48.13028" lon="3.2934">
        <ele>64</ele>
        <time>2014-04-13T12:25:59Z</time>
      </trkpt>
      <trkpt lat="48.13025" lon="3.29334">
        <ele>64</ele>
        <time>2014-04-13T12:26:04Z</time>
      </trkpt>
      <trkpt lat="48.13022" lon="3.2933">
        <ele>64</ele>
        <time>2014-04-13T12:26:08Z</time>
      </trkpt>
      <trkpt lat="48.13019" lon="3.29325">
        <ele>64</ele>
        <time>2014-04-13T12:26:12Z</time>
      </trkpt>
      <trkpt lat="48.13015" lon="3.2932">
        <ele>64</ele>
        <time>2014-04-13T12:26:17Z</time>
      </trkpt>
      <trkpt lat="48.1301" lon="3.29317">
        <ele>64</ele>
        <time>2014-04-13T12:26:22Z</time>
      </trkpt>
      <trkpt lat="48.13004" lon="3.29309">
        <ele>64</ele>
        <time>2014-04-13T12:26:30Z</time>
      </trkpt>
      <trkpt lat="48.13003" lon="3.29301">
        <ele>64</ele>
        <time>2014-04-13T12:26:34Z</time>
      </trkpt>
      <trkpt lat="48.13" lon="3.29295">
        <ele>64</ele>
        <time>2014-04-13T12:26:38Z</time>
      </trkpt>
      <trkpt lat="48.12996" lon="3.29291">
        <ele>65</ele>
        <time>2014-04-13T12:26:42Z</time>
      </trkpt>
      <trkpt lat="48.12991" lon="3.29289">
        <ele>65</ele>
        <time>2014-04-13T12:26:47Z</time>
      </trkpt>
      <trkpt lat="48.12986" lon="3.29285">
        <ele>65</ele>
        <time>2014-04-13T12:26:52Z</time>
      </trkpt>
      <trkpt lat="48.12975" lon="3.29271">
        <ele>65</ele>
        <time>2014-04-13T12:27:04Z</time>
      </trkpt>
      <trkpt lat="48.12962" lon="3.29248">
        <ele>66</ele>
        <time>2014-04-13T12:27:17Z</time>
      </trkpt>
      <trkpt lat="48.12953" lon="3.29222">
        <ele>66</ele>
        <time>2014-04-13T12:27:38Z</time>
      </trkpt>
      <trkpt lat="48.12944" lon="3.29215">
        <ele>66</ele>
        <time>2014-04-13T12:27:46Z</time>
      </trkpt>
      <trkpt lat="48.12938" lon="3.29203">
        <ele>66</ele>
        <time>2014-04-13T12:27:52Z</time>
      </trkpt>
      <trkpt lat="48.12931" lon="3.29193">
        <ele>66</ele>
        <time>2014-04-13T12:28:00Z</time>
      </trkpt>
      <trkpt lat="48.12928" lon="3.29177">
        <ele>67</ele>
        <time>2014-04-13T12:28:06Z</time>
      </trkpt>
      <trkpt lat="48.12924" lon="3.29164">
        <ele>67</ele>
        <time>2014-04-13T12:28:13Z</time>
      </trkpt>
      <trkpt lat="48.12919" lon="3.29159">
        <ele>67</ele>
        <time>2014-04-13T12:28:17Z</time>
      </trkpt>
      <trkpt lat="48.12917" lon="3.29153">
        <ele>67</ele>
        <time>2014-04-13T12:28:22Z</time>
      </trkpt>
      <trkpt lat="48.12917" lon="3.29145">
        <ele>67</ele>
        <time>2014-04-13T12:28:25Z</time>
      </trkpt>
      <trkpt lat="48.12914" lon="3.29139">
        <ele>67</ele>
        <time>2014-04-13T12:28:30Z</time>
      </trkpt>
      <trkpt lat="48.1291" lon="3.29134">
        <ele>67</ele>
        <time>2014-04-13T12:28:35Z</time>
      </trkpt>
      <trkpt lat="48.12908" lon="3.29126">
        <ele>67</ele>
        <time>2014-04-13T12:28:40Z</time>
      </trkpt>
      <trkpt lat="48.12907" lon="3.29119">
        <ele>67</ele>
        <time>2014-04-13T12:28:44Z</time>
      </trkpt>
      <trkpt lat="48.12903" lon="3.29114">
        <ele>67</ele>
        <time>2014-04-13T12:28:48Z</time>
      </trkpt>
      <trkpt lat="48.12899" lon="3.29108">
        <ele>67</ele>
        <time>2014-04-13T12:28:53Z</time>
      </trkpt>
      <trkpt lat="48.129" lon="3.29101">
        <ele>67</ele>
        <time>2014-04-13T12:28:57Z</time>
      </trkpt>
      <trkpt lat="48.12896" lon="3.29087">
        <ele>67</ele>
        <time>2014-04-13T12:29:06Z</time>
      </trkpt>
      <trkpt lat="48.12899" lon="3.29083">
        <ele>67</ele>
        <time>2014-04-13T12:29:21Z</time>
      </trkpt>
      <trkpt lat="48.12892" lon="3.29081">
        <ele>67</ele>
        <time>2014-04-13T12:30:33Z</time>
      </trkpt>
      <trkpt lat="48.12887" lon="3.29077">
        <ele>67</ele>
        <time>2014-04-13T12:40:24Z</time>
      </trkpt>
      <trkpt lat="48.12885" lon="3.29066">
        <ele>67</ele>
        <time>2014-04-13T12:40:35Z</time>
      </trkpt>
      <trkpt lat="48.1288" lon="3.29068">
        <ele>67</ele>
        <time>2014-04-13T12:40:40Z</time>
      </trkpt>
      <trkpt lat="48.12876" lon="3.29065">
        <ele>67</ele>
        <time>2014-04-13T12:40:45Z</time>
      </trkpt>
      <trkpt lat="48.12873" lon="3.29058">
        <ele>67</ele>
        <time>2014-04-13T12:40:50Z</time>
      </trkpt>
      <trkpt lat="48.12871" lon="3.29049">
        <ele>67</ele>
        <time>2014-04-13T12:40:53Z</time>
      </trkpt>
      <trkpt lat="48.12872" lon="3.29041">
        <ele>67</ele>
        <time>2014-04-13T12:40:56Z</time>
      </trkpt>
      <trkpt lat="48.12869" lon="3.29027">
        <ele>67</ele>
        <time>2014-04-13T12:41:08Z</time>
      </trkpt>
      <trkpt lat="48.12866" lon="3.29021">
        <ele>67</ele>
        <time>2014-04-13T12:41:12Z</time>
      </trkpt>
      <trkpt lat="48.12865" lon="3.29014">
        <ele>67</ele>
        <time>2014-04-13T12:41:16Z</time>
      </trkpt>
      <trkpt lat="48.1286" lon="3.29001">
        <ele>67</ele>
        <time>2014-04-13T12:41:25Z</time>
      </trkpt>
      <trkpt lat="48.12857" lon="3.28993">
        <ele>67</ele>
        <time>2014-04-13T12:41:29Z</time>
      </trkpt>
      <trkpt lat="48.12842" lon="3.28949">
        <ele>67</ele>
        <time>2014-04-13T12:41:54Z</time>
      </trkpt>
      <trkpt lat="48.12838" lon="3.28943">
        <ele>67</ele>
        <time>2014-04-13T12:41:57Z</time>
      </trkpt>
      <trkpt lat="48.12837" lon="3.28936">
        <ele>67</ele>
        <time>2014-04-13T12:42:02Z</time>
      </trkpt>
      <trkpt lat="48.12835" lon="3.28929">
        <ele>66</ele>
        <time>2014-04-13T12:42:06Z</time>
      </trkpt>
      <trkpt lat="48.12829" lon="3.28915">
        <ele>66</ele>
        <time>2014-04-13T12:42:14Z</time>
      </trkpt>
      <trkpt lat="48.12825" lon="3.28893">
        <ele>66</ele>
        <time>2014-04-13T12:42:28Z</time>
      </trkpt>
      <trkpt lat="48.12823" lon="3.28886">
        <ele>66</ele>
        <time>2014-04-13T12:42:33Z</time>
      </trkpt>
      <trkpt lat="48.12816" lon="3.28873">
        <ele>66</ele>
        <time>2014-04-13T12:42:39Z</time>
      </trkpt>
      <trkpt lat="48.1281" lon="3.2886">
        <ele>66</ele>
        <time>2014-04-13T12:42:45Z</time>
      </trkpt>
      <trkpt lat="48.1281" lon="3.2885">
        <ele>66</ele>
        <time>2014-04-13T12:42:56Z</time>
      </trkpt>
      <trkpt lat="48.12804" lon="3.28834">
        <ele>66</ele>
        <time>2014-04-13T12:43:03Z</time>
      </trkpt>
      <trkpt lat="48.128" lon="3.28829">
        <ele>66</ele>
        <time>2014-04-13T12:43:08Z</time>
      </trkpt>
      <trkpt lat="48.12797" lon="3.28823">
        <ele>66</ele>
        <time>2014-04-13T12:43:12Z</time>
      </trkpt>
      <trkpt lat="48.12796" lon="3.28808">
        <ele>66</ele>
        <time>2014-04-13T12:43:22Z</time>
      </trkpt>
      <trkpt lat="48.12787" lon="3.28782">
        <ele>67</ele>
        <time>2014-04-13T12:43:39Z</time>
      </trkpt>
      <trkpt lat="48.12785" lon="3.28775">
        <ele>67</ele>
        <time>2014-04-13T12:43:42Z</time>
      </trkpt>
      <trkpt lat="48.12783" lon="3.28768">
        <ele>67</ele>
        <time>2014-04-13T12:43:47Z</time>
      </trkpt>
      <trkpt lat="48.12782" lon="3.28761">
        <ele>67</ele>
        <time>2014-04-13T12:43:52Z</time>
      </trkpt>
      <trkpt lat="48.12778" lon="3.28748">
        <ele>67</ele>
        <time>2014-04-13T12:44:00Z</time>
      </trkpt>
      <trkpt lat="48.12771" lon="3.28736">
        <ele>67</ele>
        <time>2014-04-13T12:44:06Z</time>
      </trkpt>
      <trkpt lat="48.12767" lon="3.28733">
        <ele>67</ele>
        <time>2014-04-13T12:44:09Z</time>
      </trkpt>
      <trkpt lat="48.12766" lon="3.28724">
        <ele>67</ele>
        <time>2014-04-13T12:44:15Z</time>
      </trkpt>
      <trkpt lat="48.12764" lon="3.28719">
        <ele>67</ele>
        <time>2014-04-13T12:44:18Z</time>
      </trkpt>
      <trkpt lat="48.12759" lon="3.28704">
        <ele>67</ele>
        <time>2014-04-13T12:44:25Z</time>
      </trkpt>
      <trkpt lat="48.12757" lon="3.28689">
        <ele>68</ele>
        <time>2014-04-13T12:44:35Z</time>
      </trkpt>
      <trkpt lat="48.12753" lon="3.28683">
        <ele>68</ele>
        <time>2014-04-13T12:44:41Z</time>
      </trkpt>
      <trkpt lat="48.12739" lon="3.28641">
        <ele>68</ele>
        <time>2014-04-13T12:45:07Z</time>
      </trkpt>
      <trkpt lat="48.12736" lon="3.28635">
        <ele>68</ele>
        <time>2014-04-13T12:45:11Z</time>
      </trkpt>
      <trkpt lat="48.12732" lon="3.2863">
        <ele>68</ele>
        <time>2014-04-13T12:45:15Z</time>
      </trkpt>
      <trkpt lat="48.12728" lon="3.28624">
        <ele>68</ele>
        <time>2014-04-13T12:45:19Z</time>
      </trkpt>
      <trkpt lat="48.12726" lon="3.28617">
        <ele>68</ele>
        <time>2014-04-13T12:45:23Z</time>
      </trkpt>
      <trkpt lat="48.12722" lon="3.28611">
        <ele>68</ele>
        <time>2014-04-13T12:45:28Z</time>
      </trkpt>
      <trkpt lat="48.12717" lon="3.28598">
        <ele>68</ele>
        <time>2014-04-13T12:45:36Z</time>
      </trkpt>
      <trkpt lat="48.12714" lon="3.28593">
        <ele>68</ele>
        <time>2014-04-13T12:45:41Z</time>
      </trkpt>
      <trkpt lat="48.1271" lon="3.28587">
        <ele>68</ele>
        <time>2014-04-13T12:45:45Z</time>
      </trkpt>
      <trkpt lat="48.12706" lon="3.28581">
        <ele>69</ele>
        <time>2014-04-13T12:45:49Z</time>
      </trkpt>
      <trkpt lat="48.12695" lon="3.28567">
        <ele>69</ele>
        <time>2014-04-13T12:46:03Z</time>
      </trkpt>
      <trkpt lat="48.12691" lon="3.2856">
        <ele>68</ele>
        <time>2014-04-13T12:46:07Z</time>
      </trkpt>
      <trkpt lat="48.12689" lon="3.28553">
        <ele>68</ele>
        <time>2014-04-13T12:46:12Z</time>
      </trkpt>
      <trkpt lat="48.12686" lon="3.28545">
        <ele>68</ele>
        <time>2014-04-13T12:46:52Z</time>
      </trkpt>
      <trkpt lat="48.12681" lon="3.28539">
        <ele>68</ele>
        <time>2014-04-13T12:46:58Z</time>
      </trkpt>
      <trkpt lat="48.12678" lon="3.28534">
        <ele>68</ele>
        <time>2014-04-13T12:47:02Z</time>
      </trkpt>
      <trkpt lat="48.12674" lon="3.28529">
        <ele>68</ele>
        <time>2014-04-13T12:47:06Z</time>
      </trkpt>
      <trkpt lat="48.12663" lon="3.28513">
        <ele>67</ele>
        <time>2014-04-13T12:47:17Z</time>
      </trkpt>
      <trkpt lat="48.12659" lon="3.28511">
        <ele>67</ele>
        <time>2014-04-13T12:47:21Z</time>
      </trkpt>
      <trkpt lat="48.12655" lon="3.28508">
        <ele>67</ele>
        <time>2014-04-13T12:47:25Z</time>
      </trkpt>
      <trkpt lat="48.12654" lon="3.28501">
        <ele>67</ele>
        <time>2014-04-13T12:47:29Z</time>
      </trkpt>
      <trkpt lat="48.12652" lon="3.28494">
        <ele>68</ele>
        <time>2014-04-13T12:47:33Z</time>
      </trkpt>
      <trkpt lat="48.12649" lon="3.28488">
        <ele>68</ele>
        <time>2014-04-13T12:47:37Z</time>
      </trkpt>
      <trkpt lat="48.12645" lon="3.28482">
        <ele>68</ele>
        <time>2014-04-13T12:47:41Z</time>
      </trkpt>
      <trkpt lat="48.12636" lon="3.28463">
        <ele>68</ele>
        <time>2014-04-13T12:47:53Z</time>
      </trkpt>
      <trkpt lat="48.12632" lon="3.28458">
        <ele>68</ele>
        <time>2014-04-13T12:47:58Z</time>
      </trkpt>
      <trkpt lat="48.12628" lon="3.28453">
        <ele>68</ele>
        <time>2014-04-13T12:48:02Z</time>
      </trkpt>
      <trkpt lat="48.12622" lon="3.28442">
        <ele>68</ele>
        <time>2014-04-13T12:48:09Z</time>
      </trkpt>
      <trkpt lat="48.12621" lon="3.28436">
        <ele>68</ele>
        <time>2014-04-13T12:48:14Z</time>
      </trkpt>
      <trkpt lat="48.12617" lon="3.28428">
        <ele>69</ele>
        <time>2014-04-13T12:48:20Z</time>
      </trkpt>
      <trkpt lat="48.12608" lon="3.28421">
        <ele>69</ele>
        <time>2014-04-13T12:48:29Z</time>
      </trkpt>
      <trkpt lat="48.12605" lon="3.28414">
        <ele>69</ele>
        <time>2014-04-13T12:48:33Z</time>
      </trkpt>
      <trkpt lat="48.12596" lon="3.28404">
        <ele>69</ele>
        <time>2014-04-13T12:48:42Z</time>
      </trkpt>
      <trkpt lat="48.12592" lon="3.28399">
        <ele>69</ele>
        <time>2014-04-13T12:48:46Z</time>
      </trkpt>
      <trkpt lat="48.12589" lon="3.28392">
        <ele>69</ele>
        <time>2014-04-13T12:48:50Z</time>
      </trkpt>
      <trkpt lat="48.12589" lon="3.28384">
        <ele>69</ele>
        <time>2014-04-13T12:48:55Z</time>
      </trkpt>
      <trkpt lat="48.12586" lon="3.28378">
        <ele>69</ele>
        <time>2014-04-13T12:49:00Z</time>
      </trkpt>
      <trkpt lat="48.12581" lon="3.28375">
        <ele>69</ele>
        <time>2014-04-13T12:49:04Z</time>
      </trkpt>
      <trkpt lat="48.12576" lon="3.2837">
        <ele>69</ele>
        <time>2014-04-13T12:49:08Z</time>
      </trkpt>
      <trkpt lat="48.12571" lon="3.28369">
        <ele>69</ele>
        <time>2014-04-13T12:49:11Z</time>
      </trkpt>
      <trkpt lat="48.12569" lon="3.28362">
        <ele>69</ele>
        <time>2014-04-13T12:49:16Z</time>
      </trkpt>
      <trkpt lat="48.1257" lon="3.28353">
        <ele>69</ele>
        <time>2014-04-13T12:49:21Z</time>
      </trkpt>
      <trkpt lat="48.12563" lon="3.28324">
        <ele>69</ele>
        <time>2014-04-13T12:49:37Z</time>
      </trkpt>
      <trkpt lat="48.12562" lon="3.28316">
        <ele>69</ele>
        <time>2014-04-13T12:49:41Z</time>
      </trkpt>
      <trkpt lat="48.12557" lon="3.28312">
        <ele>69</ele>
        <time>2014-04-13T12:49:46Z</time>
      </trkpt>
      <trkpt lat="48.12545" lon="3.28298">
        <ele>69</ele>
        <time>2014-04-13T12:49:58Z</time>
      </trkpt>
      <trkpt lat="48.1254" lon="3.28284">
        <ele>69</ele>
        <time>2014-04-13T12:50:07Z</time>
      </trkpt>
      <trkpt lat="48.12536" lon="3.28278">
        <ele>69</ele>
        <time>2014-04-13T12:50:12Z</time>
      </trkpt>
      <trkpt lat="48.12532" lon="3.28273">
        <ele>69</ele>
        <time>2014-04-13T12:50:16Z</time>
      </trkpt>
      <trkpt lat="48.12527" lon="3.28272">
        <ele>69</ele>
        <time>2014-04-13T12:50:19Z</time>
      </trkpt>
      <trkpt lat="48.12519" lon="3.28263">
        <ele>68</ele>
        <time>2014-04-13T12:50:26Z</time>
      </trkpt>
      <trkpt lat="48.12514" lon="3.2826">
        <ele>68</ele>
        <time>2014-04-13T12:50:31Z</time>
      </trkpt>
      <trkpt lat="48.1251" lon="3.28255">
        <ele>68</ele>
        <time>2014-04-13T12:50:36Z</time>
      </trkpt>
      <trkpt lat="48.12503" lon="3.28254">
        <ele>68</ele>
        <time>2014-04-13T12:50:41Z</time>
      </trkpt>
      <trkpt lat="48.12489" lon="3.28242">
        <ele>68</ele>
        <time>2014-04-13T12:50:53Z</time>
      </trkpt>
      <trkpt lat="48.12481" lon="3.28234">
        <ele>67</ele>
        <time>2014-04-13T12:51:00Z</time>
      </trkpt>
      <trkpt lat="48.12477" lon="3.28231">
        <ele>67</ele>
        <time>2014-04-13T12:51:04Z</time>
      </trkpt>
      <trkpt lat="48.12473" lon="3.28226">
        <ele>67</ele>
        <time>2014-04-13T12:51:09Z</time>
      </trkpt>
      <trkpt lat="48.12467" lon="3.28224">
        <ele>67</ele>
        <time>2014-04-13T12:51:13Z</time>
      </trkpt>
      <trkpt lat="48.12456" lon="3.28208">
        <ele>67</ele>
        <time>2014-04-13T12:51:26Z</time>
      </trkpt>
      <trkpt lat="48.12452" lon="3.28203">
        <ele>67</ele>
        <time>2014-04-13T12:51:34Z</time>
      </trkpt>
      <trkpt lat="48.12443" lon="3.28197">
        <ele>67</ele>
        <time>2014-04-13T12:51:42Z</time>
      </trkpt>
      <trkpt lat="48.12434" lon="3.28187">
        <ele>67</ele>
        <time>2014-04-13T12:51:52Z</time>
      </trkpt>
      <trkpt lat="48.12429" lon="3.28183">
        <ele>67</ele>
        <time>2014-04-13T12:51:55Z</time>
      </trkpt>
      <trkpt lat="48.12425" lon="3.28178">
        <ele>66</ele>
        <time>2014-04-13T12:52:00Z</time>
      </trkpt>
      <trkpt lat="48.12414" lon="3.28162">
        <ele>66</ele>
        <time>2014-04-13T12:52:12Z</time>
      </trkpt>
      <trkpt lat="48.12411" lon="3.28156">
        <ele>66</ele>
        <time>2014-04-13T12:52:16Z</time>
      </trkpt>
      <trkpt lat="48.12406" lon="3.28151">
        <ele>66</ele>
        <time>2014-04-13T12:52:21Z</time>
      </trkpt>
      <trkpt lat="48.12402" lon="3.28146">
        <ele>66</ele>
        <time>2014-04-13T12:52:25Z</time>
      </trkpt>
      <trkpt lat="48.12397" lon="3.28143">
        <ele>66</ele>
        <time>2014-04-13T12:52:30Z</time>
      </trkpt>
      <trkpt lat="48.12385" lon="3.2813">
        <ele>66</ele>
        <time>2014-04-13T12:52:43Z</time>
      </trkpt>
      <trkpt lat="48.12382" lon="3.28125">
        <ele>66</ele>
        <time>2014-04-13T12:52:46Z</time>
      </trkpt>
      <trkpt lat="48.12378" lon="3.28122">
        <ele>66</ele>
        <time>2014-04-13T12:52:50Z</time>
      </trkpt>
      <trkpt lat="48.12373" lon="3.28118">
        <ele>66</ele>
        <time>2014-04-13T12:52:54Z</time>
      </trkpt>
      <trkpt lat="48.12366" lon="3.28109">
        <ele>66</ele>
        <time>2014-04-13T12:53:03Z</time>
      </trkpt>
      <trkpt lat="48.12362" lon="3.28106">
        <ele>66</ele>
        <time>2014-04-13T12:53:06Z</time>
      </trkpt>
      <trkpt lat="48.12358" lon="3.28102">
        <ele>66</ele>
        <time>2014-04-13T12:53:11Z</time>
      </trkpt>
      <trkpt lat="48.12354" lon="3.28099">
        <ele>66</ele>
        <time>2014-04-13T12:53:15Z</time>
      </trkpt>
      <trkpt lat="48.12345" lon="3.2809">
        <ele>67</ele>
        <time>2014-04-13T12:53:24Z</time>
      </trkpt>
      <trkpt lat="48.12333" lon="3.28077">
        <ele>67</ele>
        <time>2014-04-13T12:53:36Z</time>
      </trkpt>
      <trkpt lat="48.12331" lon="3.2807">
        <ele>67</ele>
        <time>2014-04-13T12:53:40Z</time>
      </trkpt>
      <trkpt lat="48.12326" lon="3.28067">
        <ele>67</ele>
        <time>2014-04-13T12:53:44Z</time>
      </trkpt>
      <trkpt lat="48.12322" lon="3.28063">
        <ele>67</ele>
        <time>2014-04-13T12:53:49Z</time>
      </trkpt>
      <trkpt lat="48.12318" lon="3.28058">
        <ele>67</ele>
        <time>2014-04-13T12:53:53Z</time>
      </trkpt>
      <trkpt lat="48.12314" lon="3.28052">
        <ele>67</ele>
        <time>2014-04-13T12:53:58Z</time>
      </trkpt>
      <trkpt lat="48.123" lon="3.28043">
        <ele>67</ele>
        <time>2014-04-13T12:54:08Z</time>
      </trkpt>
      <trkpt lat="48.12296" lon="3.28041">
        <ele>67</ele>
        <time>2014-04-13T12:54:11Z</time>
      </trkpt>
      <trkpt lat="48.12292" lon="3.28034">
        <ele>67</ele>
        <time>2014-04-13T12:54:17Z</time>
      </trkpt>
      <trkpt lat="48.12288" lon="3.28029">
        <ele>67</ele>
        <time>2014-04-13T12:54:21Z</time>
      </trkpt>
      <trkpt lat="48.12283" lon="3.28027">
        <ele>67</ele>
        <time>2014-04-13T12:54:27Z</time>
      </trkpt>
      <trkpt lat="48.12274" lon="3.28016">
        <ele>67</ele>
        <time>2014-04-13T12:54:35Z</time>
      </trkpt>
      <trkpt lat="48.12273" lon="3.2801">
        <ele>67</ele>
        <time>2014-04-13T12:54:38Z</time>
      </trkpt>
      <trkpt lat="48.12265" lon="3.28002">
        <ele>68</ele>
        <time>2014-04-13T12:54:49Z</time>
      </trkpt>
      <trkpt lat="48.12258" lon="3.27989">
        <ele>68</ele>
        <time>2014-04-13T12:54:58Z</time>
      </trkpt>
      <trkpt lat="48.12254" lon="3.27982">
        <ele>68</ele>
        <time>2014-04-13T12:55:01Z</time>
      </trkpt>
      <trkpt lat="48.1225" lon="3.27977">
        <ele>68</ele>
        <time>2014-04-13T12:55:05Z</time>
      </trkpt>
      <trkpt lat="48.12241" lon="3.27971">
        <ele>68</ele>
        <time>2014-04-13T12:55:13Z</time>
      </trkpt>
      <trkpt lat="48.12237" lon="3.27966">
        <ele>69</ele>
        <time>2014-04-13T12:55:18Z</time>
      </trkpt>
      <trkpt lat="48.12232" lon="3.27964">
        <ele>69</ele>
        <time>2014-04-13T12:55:22Z</time>
      </trkpt>
      <trkpt lat="48.12228" lon="3.2796">
        <ele>69</ele>
        <time>2014-04-13T12:55:27Z</time>
      </trkpt>
      <trkpt lat="48.12224" lon="3.27957">
        <ele>69</ele>
        <time>2014-04-13T12:55:30Z</time>
      </trkpt>
      <trkpt lat="48.12216" lon="3.27947">
        <ele>69</ele>
        <time>2014-04-13T12:55:38Z</time>
      </trkpt>
      <trkpt lat="48.12211" lon="3.27943">
        <ele>69</ele>
        <time>2014-04-13T12:55:43Z</time>
      </trkpt>
      <trkpt lat="48.12208" lon="3.27939">
        <ele>69</ele>
        <time>2014-04-13T12:55:47Z</time>
      </trkpt>
      <trkpt lat="48.12203" lon="3.27936">
        <ele>69</ele>
        <time>2014-04-13T12:55:51Z</time>
      </trkpt>
      <trkpt lat="48.12199" lon="3.27931">
        <ele>69</ele>
        <time>2014-04-13T12:55:54Z</time>
      </trkpt>
      <trkpt lat="48.12195" lon="3.27926">
        <ele>69</ele>
        <time>2014-04-13T12:55:57Z</time>
      </trkpt>
      <trkpt lat="48.1219" lon="3.27924">
        <ele>69</ele>
        <time>2014-04-13T12:56:04Z</time>
      </trkpt>
      <trkpt lat="48.12185" lon="3.2792">
        <ele>69</ele>
        <time>2014-04-13T12:56:10Z</time>
      </trkpt>
      <trkpt lat="48.12181" lon="3.27917">
        <ele>69</ele>
        <time>2014-04-13T12:56:14Z</time>
      </trkpt>
      <trkpt lat="48.12177" lon="3.27914">
        <ele>69</ele>
        <time>2014-04-13T12:56:18Z</time>
      </trkpt>
      <trkpt lat="48.12171" lon="3.27912">
        <ele>69</ele>
        <time>2014-04-13T12:56:22Z</time>
      </trkpt>
      <trkpt lat="48.12167" lon="3.27909">
        <ele>69</ele>
        <time>2014-04-13T12:56:27Z</time>
      </trkpt>
      <trkpt lat="48.12162" lon="3.27903">
        <ele>69</ele>
        <time>2014-04-13T12:56:31Z</time>
      </trkpt>
      <trkpt lat="48.12157" lon="3.279">
        <ele>69</ele>
        <time>2014-04-13T12:56:35Z</time>
      </trkpt>
      <trkpt lat="48.12153" lon="3.27895">
        <ele>69</ele>
        <time>2014-04-13T12:56:39Z</time>
      </trkpt>
      <trkpt lat="48.12148" lon="3.27892">
        <ele>69</ele>
        <time>2014-04-13T12:56:43Z</time>
      </trkpt>
      <trkpt lat="48.12144" lon="3.27888">
        <ele>69</ele>
        <time>2014-04-13T12:56:48Z</time>
      </trkpt>
      <trkpt lat="48.1214" lon="3.27884">
        <ele>69</ele>
        <time>2014-04-13T12:56:54Z</time>
      </trkpt>
      <trkpt lat="48.12136" lon="3.27881">
        <ele>69</ele>
        <time>2014-04-13T12:56:57Z</time>
      </trkpt>
      <trkpt lat="48.12132" lon="3.27875">
        <ele>69</ele>
        <time>2014-04-13T12:57:00Z</time>
      </trkpt>
      <trkpt lat="48.12128" lon="3.27872">
        <ele>69</ele>
        <time>2014-04-13T12:57:03Z</time>
      </trkpt>
      <trkpt lat="48.12123" lon="3.27869">
        <ele>69</ele>
        <time>2014-04-13T12:57:06Z</time>
      </trkpt>
      <trkpt lat="48.12118" lon="3.27867">
        <ele>69</ele>
        <time>2014-04-13T12:57:09Z</time>
      </trkpt>
      <trkpt lat="48.12113" lon="3.27866">
        <ele>69</ele>
        <time>2014-04-13T12:57:13Z</time>
      </trkpt>
      <trkpt lat="48.12104" lon="3.27859">
        <ele>69</ele>
        <time>2014-04-13T12:57:21Z</time>
      </trkpt>
      <trkpt lat="48.12089" lon="3.27852">
        <ele>69</ele>
        <time>2014-04-13T12:57:36Z</time>
      </trkpt>
      <trkpt lat="48.12075" lon="3.27842">
        <ele>69</ele>
        <time>2014-04-13T12:57:47Z</time>
      </trkpt>
      <trkpt lat="48.12071" lon="3.27841">
        <ele>69</ele>
        <time>2014-04-13T12:57:50Z</time>
      </trkpt>
      <trkpt lat="48.12066" lon="3.2784">
        <ele>69</ele>
        <time>2014-04-13T12:57:53Z</time>
      </trkpt>
      <trkpt lat="48.12061" lon="3.27838">
        <ele>69</ele>
        <time>2014-04-13T12:57:58Z</time>
      </trkpt>
      <trkpt lat="48.12046" lon="3.27828">
        <ele>68</ele>
        <time>2014-04-13T12:58:10Z</time>
      </trkpt>
      <trkpt lat="48.12034" lon="3.27827">
        <ele>68</ele>
        <time>2014-04-13T12:58:18Z</time>
      </trkpt>
      <trkpt lat="48.12024" lon="3.27822">
        <ele>68</ele>
        <time>2014-04-13T12:58:26Z</time>
      </trkpt>
      <trkpt lat="48.12015" lon="3.27813">
        <ele>68</ele>
        <time>2014-04-13T12:58:35Z</time>
      </trkpt>
      <trkpt lat="48.12011" lon="3.2781">
        <ele>68</ele>
        <time>2014-04-13T12:58:38Z</time>
      </trkpt>
      <trkpt lat="48.12001" lon="3.2781">
        <ele>68</ele>
        <time>2014-04-13T12:58:44Z</time>
      </trkpt>
      <trkpt lat="48.11996" lon="3.27808">
        <ele>68</ele>
        <time>2014-04-13T12:58:48Z</time>
      </trkpt>
      <trkpt lat="48.11991" lon="3.27804">
        <ele>68</ele>
        <time>2014-04-13T12:59:51Z</time>
      </trkpt>
      <trkpt lat="48.11985" lon="3.27804">
        <ele>68</ele>
        <time>2014-04-13T13:00:11Z</time>
      </trkpt>
      <trkpt lat="48.11984" lon="3.27801">
        <ele>68</ele>
        <time>2014-04-13T13:00:24Z</time>
      </trkpt>
      <trkpt lat="48.1198" lon="3.27799">
        <ele>68</ele>
        <time>2014-04-13T13:00:30Z</time>
      </trkpt>
      <trkpt lat="48.11975" lon="3.27798">
        <ele>68</ele>
        <time>2014-04-13T13:00:34Z</time>
      </trkpt>
      <trkpt lat="48.1197" lon="3.27795">
        <ele>68</ele>
        <time>2014-04-13T13:00:40Z</time>
      </trkpt>
      <trkpt lat="48.11966" lon="3.2779">
        <ele>68</ele>
        <time>2014-04-13T13:00:45Z</time>
      </trkpt>
      <trkpt lat="48.11962" lon="3.27785">
        <ele>68</ele>
        <time>2014-04-13T13:00:49Z</time>
      </trkpt>
      <trkpt lat="48.11948" lon="3.27776">
        <ele>68</ele>
        <time>2014-04-13T13:01:04Z</time>
      </trkpt>
      <trkpt lat="48.11944" lon="3.27775">
        <ele>69</ele>
        <time>2014-04-13T13:01:08Z</time>
      </trkpt>
      <trkpt lat="48.11938" lon="3.27772">
        <ele>69</ele>
        <time>2014-04-13T13:01:13Z</time>
      </trkpt>
      <trkpt lat="48.11932" lon="3.27771">
        <ele>69</ele>
        <time>2014-04-13T13:01:17Z</time>
      </trkpt>
      <trkpt lat="48.11924" lon="3.27765">
        <ele>69</ele>
        <time>2014-04-13T13:01:27Z</time>
      </trkpt>
      <trkpt lat="48.11919" lon="3.27759">
        <ele>69</ele>
        <time>2014-04-13T13:01:33Z</time>
      </trkpt>
      <trkpt lat="48.11914" lon="3.27755">
        <ele>70</ele>
        <time>2014-04-13T13:01:36Z</time>
      </trkpt>
      <trkpt lat="48.11909" lon="3.27749">
        <ele>70</ele>
        <time>2014-04-13T13:01:39Z</time>
      </trkpt>
      <trkpt lat="48.119" lon="3.27741">
        <ele>70</ele>
        <time>2014-04-13T13:01:46Z</time>
      </trkpt>
      <trkpt lat="48.11897" lon="3.27735">
        <ele>70</ele>
        <time>2014-04-13T13:01:50Z</time>
      </trkpt>
      <trkpt lat="48.11891" lon="3.27736">
        <ele>70</ele>
        <time>2014-04-13T13:01:54Z</time>
      </trkpt>
      <trkpt lat="48.11886" lon="3.27734">
        <ele>70</ele>
        <time>2014-04-13T13:01:58Z</time>
      </trkpt>
      <trkpt lat="48.11882" lon="3.27729">
        <ele>70</ele>
        <time>2014-04-13T13:02:02Z</time>
      </trkpt>
      <trkpt lat="48.11878" lon="3.27725">
        <ele>70</ele>
        <time>2014-04-13T13:02:05Z</time>
      </trkpt>
      <trkpt lat="48.11874" lon="3.27722">
        <ele>70</ele>
        <time>2014-04-13T13:02:08Z</time>
      </trkpt>
      <trkpt lat="48.11868" lon="3.27722">
        <ele>71</ele>
        <time>2014-04-13T13:02:11Z</time>
      </trkpt>
      <trkpt lat="48.11862" lon="3.27711">
        <ele>70</ele>
        <time>2014-04-13T13:02:24Z</time>
      </trkpt>
      <trkpt lat="48.11857" lon="3.27707">
        <ele>70</ele>
        <time>2014-04-13T13:02:28Z</time>
      </trkpt>
      <trkpt lat="48.11853" lon="3.27703">
        <ele>70</ele>
        <time>2014-04-13T13:02:31Z</time>
      </trkpt>
      <trkpt lat="48.1185" lon="3.27698">
        <ele>70</ele>
        <time>2014-04-13T13:02:34Z</time>
      </trkpt>
      <trkpt lat="48.11846" lon="3.27693">
        <ele>70</ele>
        <time>2014-04-13T13:02:39Z</time>
      </trkpt>
      <trkpt lat="48.11841" lon="3.2769">
        <ele>70</ele>
        <time>2014-04-13T13:02:43Z</time>
      </trkpt>
      <trkpt lat="48.11836" lon="3.27686">
        <ele>70</ele>
        <time>2014-04-13T13:02:47Z</time>
      </trkpt>
      <trkpt lat="48.11829" lon="3.27674">
        <ele>70</ele>
        <time>2014-04-13T13:02:56Z</time>
      </trkpt>
      <trkpt lat="48.11826" lon="3.27669">
        <ele>70</ele>
        <time>2014-04-13T13:03:01Z</time>
      </trkpt>
      <trkpt lat="48.11812" lon="3.27659">
        <ele>70</ele>
        <time>2014-04-13T13:03:11Z</time>
      </trkpt>
      <trkpt lat="48.11809" lon="3.27653">
        <ele>69</ele>
        <time>2014-04-13T13:03:15Z</time>
      </trkpt>
      <trkpt lat="48.11801" lon="3.27645">
        <ele>69</ele>
        <time>2014-04-13T13:03:23Z</time>
      </trkpt>
      <trkpt lat="48.11796" lon="3.27642">
        <ele>69</ele>
        <time>2014-04-13T13:03:27Z</time>
      </trkpt>
      <trkpt lat="48.11782" lon="3.27622">
        <ele>69</ele>
        <time>2014-04-13T13:03:43Z</time>
      </trkpt>
      <trkpt lat="48.11777" lon="3.27619">
        <ele>69</ele>
        <time>2014-04-13T13:03:49Z</time>
      </trkpt>
      <trkpt lat="48.11773" lon="3.27615">
        <ele>69</ele>
        <time>2014-04-13T13:03:53Z</time>
      </trkpt>
      <trkpt lat="48.11768" lon="3.27612">
        <ele>69</ele>
        <time>2014-04-13T13:03:57Z</time>
      </trkpt>
      <trkpt lat="48.11764" lon="3.2761">
        <ele>69</ele>
        <time>2014-04-13T13:04:01Z</time>
      </trkpt>
      <trkpt lat="48.11759" lon="3.27606">
        <ele>69</ele>
        <time>2014-04-13T13:04:06Z</time>
      </trkpt>
      <trkpt lat="48.11754" lon="3.27603">
        <ele>69</ele>
        <time>2014-04-13T13:04:12Z</time>
      </trkpt>
      <trkpt lat="48.1175" lon="3.27597">
        <ele>69</ele>
        <time>2014-04-13T13:04:17Z</time>
      </trkpt>
      <trkpt lat="48.11733" lon="3.2758">
        <ele>69</ele>
        <time>2014-04-13T13:04:36Z</time>
      </trkpt>
      <trkpt lat="48.11728" lon="3.27577">
        <ele>69</ele>
        <time>2014-04-13T13:04:40Z</time>
      </trkpt>
      <trkpt lat="48.11724" lon="3.27573">
        <ele>69</ele>
        <time>2014-04-13T13:04:43Z</time>
      </trkpt>
      <trkpt lat="48.1171" lon="3.27552">
        <ele>69</ele>
        <time>2014-04-13T13:05:00Z</time>
      </trkpt>
      <trkpt lat="48.11697" lon="3.27541">
        <ele>69</ele>
        <time>2014-04-13T13:05:10Z</time>
      </trkpt>
      <trkpt lat="48.11692" lon="3.27538">
        <ele>69</ele>
        <time>2014-04-13T13:05:14Z</time>
      </trkpt>
      <trkpt lat="48.11687" lon="3.27534">
        <ele>69</ele>
        <time>2014-04-13T13:05:18Z</time>
      </trkpt>
      <trkpt lat="48.11678" lon="3.27528">
        <ele>69</ele>
        <time>2014-04-13T13:05:26Z</time>
      </trkpt>
      <trkpt lat="48.11673" lon="3.27524">
        <ele>69</ele>
        <time>2014-04-13T13:05:30Z</time>
      </trkpt>
      <trkpt lat="48.11669" lon="3.27518">
        <ele>68</ele>
        <time>2014-04-13T13:05:34Z</time>
      </trkpt>
      <trkpt lat="48.11666" lon="3.2751">
        <ele>68</ele>
        <time>2014-04-13T13:05:37Z</time>
      </trkpt>
      <trkpt lat="48.11664" lon="3.27503">
        <ele>68</ele>
        <time>2014-04-13T13:05:40Z</time>
      </trkpt>
      <trkpt lat="48.11662" lon="3.27497">
        <ele>68</ele>
        <time>2014-04-13T13:05:44Z</time>
      </trkpt>
      <trkpt lat="48.11657" lon="3.27495">
        <ele>69</ele>
        <time>2014-04-13T13:05:47Z</time>
      </trkpt>
      <trkpt lat="48.11651" lon="3.27494">
        <ele>69</ele>
        <time>2014-04-13T13:05:50Z</time>
      </trkpt>
      <trkpt lat="48.11637" lon="3.2749">
        <ele>69</ele>
        <time>2014-04-13T13:05:58Z</time>
      </trkpt>
      <trkpt lat="48.11633" lon="3.27486">
        <ele>69</ele>
        <time>2014-04-13T13:06:02Z</time>
      </trkpt>
      <trkpt lat="48.11629" lon="3.2748">
        <ele>69</ele>
        <time>2014-04-13T13:06:06Z</time>
      </trkpt>
      <trkpt lat="48.11626" lon="3.27473">
        <ele>69</ele>
        <time>2014-04-13T13:06:09Z</time>
      </trkpt>
      <trkpt lat="48.11622" lon="3.27471">
        <ele>70</ele>
        <time>2014-04-13T13:06:12Z</time>
      </trkpt>
      <trkpt lat="48.11617" lon="3.27469">
        <ele>70</ele>
        <time>2014-04-13T13:06:18Z</time>
      </trkpt>
      <trkpt lat="48.11613" lon="3.27465">
        <ele>70</ele>
        <time>2014-04-13T13:06:23Z</time>
      </trkpt>
      <trkpt lat="48.11609" lon="3.27459">
        <ele>70</ele>
        <time>2014-04-13T13:06:28Z</time>
      </trkpt>
      <trkpt lat="48.11604" lon="3.27458">
        <ele>70</ele>
        <time>2014-04-13T13:06:35Z</time>
      </trkpt>
      <trkpt lat="48.11598" lon="3.2746">
        <ele>70</ele>
        <time>2014-04-13T13:06:38Z</time>
      </trkpt>
      <trkpt lat="48.11595" lon="3.27452">
        <ele>70</ele>
        <time>2014-04-13T13:06:41Z</time>
      </trkpt>
      <trkpt lat="48.11592" lon="3.27443">
        <ele>70</ele>
        <time>2014-04-13T13:06:44Z</time>
      </trkpt>
      <trkpt lat="48.11589" lon="3.27438">
        <ele>70</ele>
        <time>2014-04-13T13:06:48Z</time>
      </trkpt>
      <trkpt lat="48.11585" lon="3.27433">
        <ele>70</ele>
        <time>2014-04-13T13:06:52Z</time>
      </trkpt>
      <trkpt lat="48.11583" lon="3.27427">
        <ele>70</ele>
        <time>2014-04-13T13:06:55Z</time>
      </trkpt>
      <trkpt lat="48.11564" lon="3.27404">
        <ele>69</ele>
        <time>2014-04-13T13:07:14Z</time>
      </trkpt>
      <trkpt lat="48.11561" lon="3.27398">
        <ele>69</ele>
        <time>2014-04-13T13:07:19Z</time>
      </trkpt>
      <trkpt lat="48.11553" lon="3.27387">
        <ele>68</ele>
        <time>2014-04-13T13:07:26Z</time>
      </trkpt>
      <trkpt lat="48.11542" lon="3.27377">
        <ele>68</ele>
        <time>2014-04-13T13:07:39Z</time>
      </trkpt>
      <trkpt lat="48.1154" lon="3.27378">
        <ele>68</ele>
        <time>2014-04-13T13:07:51Z</time>
      </trkpt>
      <trkpt lat="48.11536" lon="3.27373">
        <ele>68</ele>
        <time>2014-04-13T13:07:56Z</time>
      </trkpt>
      <trkpt lat="48.1153" lon="3.27362">
        <ele>68</ele>
        <time>2014-04-13T13:08:05Z</time>
      </trkpt>
      <trkpt lat="48.11526" lon="3.27357">
        <ele>68</ele>
        <time>2014-04-13T13:08:09Z</time>
      </trkpt>
      <trkpt lat="48.11525" lon="3.27351">
        <ele>68</ele>
        <time>2014-04-13T13:08:14Z</time>
      </trkpt>
      <trkpt lat="48.11522" lon="3.27345">
        <ele>68</ele>
        <time>2014-04-13T13:08:17Z</time>
      </trkpt>
      <trkpt lat="48.11517" lon="3.27341">
        <ele>68</ele>
        <time>2014-04-13T13:08:20Z</time>
      </trkpt>
      <trkpt lat="48.11513" lon="3.27339">
        <ele>68</ele>
        <time>2014-04-13T13:08:23Z</time>
      </trkpt>
      <trkpt lat="48.11503" lon="3.27329">
        <ele>67</ele>
        <time>2014-04-13T13:08:31Z</time>
      </trkpt>
      <trkpt lat="48.11499" lon="3.27323">
        <ele>67</ele>
        <time>2014-04-13T13:08:35Z</time>
      </trkpt>
      <trkpt lat="48.11496" lon="3.27318">
        <ele>67</ele>
        <time>2014-04-13T13:08:39Z</time>
      </trkpt>
      <trkpt lat="48.11491" lon="3.27312">
        <ele>67</ele>
        <time>2014-04-13T13:08:44Z</time>
      </trkpt>
      <trkpt lat="48.11475" lon="3.27285">
        <ele>66</ele>
        <time>2014-04-13T13:09:05Z</time>
      </trkpt>
      <trkpt lat="48.11465" lon="3.27281">
        <ele>66</ele>
        <time>2014-04-13T13:09:13Z</time>
      </trkpt>
      <trkpt lat="48.11457" lon="3.27273">
        <ele>66</ele>
        <time>2014-04-13T13:09:20Z</time>
      </trkpt>
      <trkpt lat="48.11451" lon="3.2727">
        <ele>66</ele>
        <time>2014-04-13T13:09:25Z</time>
      </trkpt>
      <trkpt lat="48.11447" lon="3.27266">
        <ele>66</ele>
        <time>2014-04-13T13:09:28Z</time>
      </trkpt>
      <trkpt lat="48.11443" lon="3.27261">
        <ele>66</ele>
        <time>2014-04-13T13:09:31Z</time>
      </trkpt>
      <trkpt lat="48.11442" lon="3.27252">
        <ele>66</ele>
        <time>2014-04-13T13:09:35Z</time>
      </trkpt>
      <trkpt lat="48.11439" lon="3.27247">
        <ele>66</ele>
        <time>2014-04-13T13:09:41Z</time>
      </trkpt>
      <trkpt lat="48.11433" lon="3.27243">
        <ele>66</ele>
        <time>2014-04-13T13:09:46Z</time>
      </trkpt>
      <trkpt lat="48.11429" lon="3.27241">
        <ele>66</ele>
        <time>2014-04-13T13:09:49Z</time>
      </trkpt>
      <trkpt lat="48.11424" lon="3.27238">
        <ele>66</ele>
        <time>2014-04-13T13:09:53Z</time>
      </trkpt>
      <trkpt lat="48.11419" lon="3.27234">
        <ele>66</ele>
        <time>2014-04-13T13:09:58Z</time>
      </trkpt>
      <trkpt lat="48.11416" lon="3.27229">
        <ele>66</ele>
        <time>2014-04-13T13:10:04Z</time>
      </trkpt>
      <trkpt lat="48.11411" lon="3.27226">
        <ele>66</ele>
        <time>2014-04-13T13:10:08Z</time>
      </trkpt>
      <trkpt lat="48.11406" lon="3.27224">
        <ele>66</ele>
        <time>2014-04-13T13:10:11Z</time>
      </trkpt>
      <trkpt lat="48.11392" lon="3.27212">
        <ele>66</ele>
        <time>2014-04-13T13:10:22Z</time>
      </trkpt>
      <trkpt lat="48.11388" lon="3.27209">
        <ele>66</ele>
        <time>2014-04-13T13:10:26Z</time>
      </trkpt>
      <trkpt lat="48.11384" lon="3.27204">
        <ele>66</ele>
        <time>2014-04-13T13:10:30Z</time>
      </trkpt>
      <trkpt lat="48.1138" lon="3.272">
        <ele>66</ele>
        <time>2014-04-13T13:10:34Z</time>
      </trkpt>
      <trkpt lat="48.11378" lon="3.27193">
        <ele>66</ele>
        <time>2014-04-13T13:10:39Z</time>
      </trkpt>
      <trkpt lat="48.11375" lon="3.27184">
        <ele>66</ele>
        <time>2014-04-13T13:10:43Z</time>
      </trkpt>
      <trkpt lat="48.11372" lon="3.27179">
        <ele>67</ele>
        <time>2014-04-13T13:10:46Z</time>
      </trkpt>
      <trkpt lat="48.11362" lon="3.27178">
        <ele>67</ele>
        <time>2014-04-13T13:10:55Z</time>
      </trkpt>
      <trkpt lat="48.11358" lon="3.27177">
        <ele>67</ele>
        <time>2014-04-13T13:10:58Z</time>
      </trkpt>
      <trkpt lat="48.11353" lon="3.27174">
        <ele>67</ele>
        <time>2014-04-13T13:11:03Z</time>
      </trkpt>
      <trkpt lat="48.11349" lon="3.2717">
        <ele>67</ele>
        <time>2014-04-13T13:11:07Z</time>
      </trkpt>
      <trkpt lat="48.11344" lon="3.27167">
        <ele>67</ele>
        <time>2014-04-13T13:11:11Z</time>
      </trkpt>
      <trkpt lat="48.11339" lon="3.27167">
        <ele>67</ele>
        <time>2014-04-13T13:11:15Z</time>
      </trkpt>
      <trkpt lat="48.11333" lon="3.27166">
        <ele>67</ele>
        <time>2014-04-13T13:11:19Z</time>
      </trkpt>
      <trkpt lat="48.11328" lon="3.27166">
        <ele>67</ele>
        <time>2014-04-13T13:11:23Z</time>
      </trkpt>
      <trkpt lat="48.11323" lon="3.27165">
        <ele>67</ele>
        <time>2014-04-13T13:11:27Z</time>
      </trkpt>
      <trkpt lat="48.11318" lon="3.27162">
        <ele>67</ele>
        <time>2014-04-13T13:11:31Z</time>
      </trkpt>
      <trkpt lat="48.11313" lon="3.2716">
        <ele>67</ele>
        <time>2014-04-13T13:11:35Z</time>
      </trkpt>
      <trkpt lat="48.11308" lon="3.27159">
        <ele>67</ele>
        <time>2014-04-13T13:11:39Z</time>
      </trkpt>
      <trkpt lat="48.11303" lon="3.2716">
        <ele>67</ele>
        <time>2014-04-13T13:11:43Z</time>
      </trkpt>
      <trkpt lat="48.11299" lon="3.27157">
        <ele>67</ele>
        <time>2014-04-13T13:11:47Z</time>
      </trkpt>
      <trkpt lat="48.11293" lon="3.27157">
        <ele>67</ele>
        <time>2014-04-13T13:11:51Z</time>
      </trkpt>
      <trkpt lat="48.11288" lon="3.27158">
        <ele>67</ele>
        <time>2014-04-13T13:11:55Z</time>
      </trkpt>
      <trkpt lat="48.11278" lon="3.27155">
        <ele>67</ele>
        <time>2014-04-13T13:12:03Z</time>
      </trkpt>
      <trkpt lat="48.11273" lon="3.27156">
        <ele>67</ele>
        <time>2014-04-13T13:12:07Z</time>
      </trkpt>
      <trkpt lat="48.11263" lon="3.27154">
        <ele>67</ele>
        <time>2014-04-13T13:12:17Z</time>
      </trkpt>
      <trkpt lat="48.11258" lon="3.27155">
        <ele>67</ele>
        <time>2014-04-13T13:12:21Z</time>
      </trkpt>
      <trkpt lat="48.11253" lon="3.27155">
        <ele>67</ele>
        <time>2014-04-13T13:12:24Z</time>
      </trkpt>
      <trkpt lat="48.11248" lon="3.27155">
        <ele>67</ele>
        <time>2014-04-13T13:12:28Z</time>
      </trkpt>
      <trkpt lat="48.11243" lon="3.27156">
        <ele>67</ele>
        <time>2014-04-13T13:12:32Z</time>
      </trkpt>
      <trkpt lat="48.11233" lon="3.27156">
        <ele>68</ele>
        <time>2014-04-13T13:12:40Z</time>
      </trkpt>
      <trkpt lat="48.11228" lon="3.27154">
        <ele>68</ele>
        <time>2014-04-13T13:12:44Z</time>
      </trkpt>
      <trkpt lat="48.11223" lon="3.27154">
        <ele>68</ele>
        <time>2014-04-13T13:12:48Z</time>
      </trkpt>
      <trkpt lat="48.11218" lon="3.27152">
        <ele>68</ele>
        <time>2014-04-13T13:12:52Z</time>
      </trkpt>
      <trkpt lat="48.11213" lon="3.27151">
        <ele>68</ele>
        <time>2014-04-13T13:12:56Z</time>
      </trkpt>
      <trkpt lat="48.11208" lon="3.27147">
        <ele>68</ele>
        <time>2014-04-13T13:13:01Z</time>
      </trkpt>
      <trkpt lat="48.11203" lon="3.27146">
        <ele>68</ele>
        <time>2014-04-13T13:13:05Z</time>
      </trkpt>
      <trkpt lat="48.11197" lon="3.27147">
        <ele>68</ele>
        <time>2014-04-13T13:13:08Z</time>
      </trkpt>
      <trkpt lat="48.11192" lon="3.27146">
        <ele>68</ele>
        <time>2014-04-13T13:13:12Z</time>
      </trkpt>
      <trkpt lat="48.11187" lon="3.27146">
        <ele>68</ele>
        <time>2014-04-13T13:13:16Z</time>
      </trkpt>
      <trkpt lat="48.11182" lon="3.27144">
        <ele>68</ele>
        <time>2014-04-13T13:13:21Z</time>
      </trkpt>
      <trkpt lat="48.11178" lon="3.2714">
        <ele>68</ele>
        <time>2014-04-13T13:13:26Z</time>
      </trkpt>
      <trkpt lat="48.11167" lon="3.27141">
        <ele>68</ele>
        <time>2014-04-13T13:13:34Z</time>
      </trkpt>
      <trkpt lat="48.11162" lon="3.2714">
        <ele>69</ele>
        <time>2014-04-13T13:13:37Z</time>
      </trkpt>
      <trkpt lat="48.11157" lon="3.27137">
        <ele>69</ele>
        <time>2014-04-13T13:13:42Z</time>
      </trkpt>
      <trkpt lat="48.11152" lon="3.27137">
        <ele>69</ele>
        <time>2014-04-13T13:13:47Z</time>
      </trkpt>
      <trkpt lat="48.11142" lon="3.27137">
        <ele>69</ele>
        <time>2014-04-13T13:13:55Z</time>
      </trkpt>
      <trkpt lat="48.11137" lon="3.27137">
        <ele>69</ele>
        <time>2014-04-13T13:14:01Z</time>
      </trkpt>
      <trkpt lat="48.11132" lon="3.27136">
        <ele>69</ele>
        <time>2014-04-13T13:14:06Z</time>
      </trkpt>
      <trkpt lat="48.11122" lon="3.27134">
        <ele>69</ele>
        <time>2014-04-13T13:14:15Z</time>
      </trkpt>
      <trkpt lat="48.11119" lon="3.27128">
        <ele>70</ele>
        <time>2014-04-13T13:14:21Z</time>
      </trkpt>
      <trkpt lat="48.11114" lon="3.27129">
        <ele>70</ele>
        <time>2014-04-13T13:14:25Z</time>
      </trkpt>
      <trkpt lat="48.11108" lon="3.27131">
        <ele>70</ele>
        <time>2014-04-13T13:14:29Z</time>
      </trkpt>
      <trkpt lat="48.11104" lon="3.2713">
        <ele>70</ele>
        <time>2014-04-13T13:14:32Z</time>
      </trkpt>
      <trkpt lat="48.11099" lon="3.2713">
        <ele>70</ele>
        <time>2014-04-13T13:14:36Z</time>
      </trkpt>
      <trkpt lat="48.11093" lon="3.27129">
        <ele>70</ele>
        <time>2014-04-13T13:14:40Z</time>
      </trkpt>
      <trkpt lat="48.11088" lon="3.2713">
        <ele>70</ele>
        <time>2014-04-13T13:14:43Z</time>
      </trkpt>
      <trkpt lat="48.11082" lon="3.2713">
        <ele>70</ele>
        <time>2014-04-13T13:14:47Z</time>
      </trkpt>
      <trkpt lat="48.11077" lon="3.27131">
        <ele>70</ele>
        <time>2014-04-13T13:14:51Z</time>
      </trkpt>
      <trkpt lat="48.11072" lon="3.2713">
        <ele>70</ele>
        <time>2014-04-13T13:14:54Z</time>
      </trkpt>
      <trkpt lat="48.11066" lon="3.27131">
        <ele>70</ele>
        <time>2014-04-13T13:14:58Z</time>
      </trkpt>
      <trkpt lat="48.11061" lon="3.27129">
        <ele>70</ele>
        <time>2014-04-13T13:15:03Z</time>
      </trkpt>
      <trkpt lat="48.11056" lon="3.27126">
        <ele>70</ele>
        <time>2014-04-13T13:15:07Z</time>
      </trkpt>
      <trkpt lat="48.11041" lon="3.2712">
        <ele>70</ele>
        <time>2014-04-13T13:15:19Z</time>
      </trkpt>
      <trkpt lat="48.11031" lon="3.27117">
        <ele>70</ele>
        <time>2014-04-13T13:15:27Z</time>
      </trkpt>
      <trkpt lat="48.1102" lon="3.27116">
        <ele>70</ele>
        <time>2014-04-13T13:15:36Z</time>
      </trkpt>
      <trkpt lat="48.11006" lon="3.27117">
        <ele>70</ele>
        <time>2014-04-13T13:15:48Z</time>
      </trkpt>
      <trkpt lat="48.11001" lon="3.27117">
        <ele>70</ele>
        <time>2014-04-13T13:15:52Z</time>
      </trkpt>
      <trkpt lat="48.10996" lon="3.27119">
        <ele>70</ele>
        <time>2014-04-13T13:15:58Z</time>
      </trkpt>
      <trkpt lat="48.10991" lon="3.27117">
        <ele>70</ele>
        <time>2014-04-13T13:16:03Z</time>
      </trkpt>
      <trkpt lat="48.10985" lon="3.27117">
        <ele>70</ele>
        <time>2014-04-13T13:16:08Z</time>
      </trkpt>
      <trkpt lat="48.1097" lon="3.2712">
        <ele>70</ele>
        <time>2014-04-13T13:16:17Z</time>
      </trkpt>
      <trkpt lat="48.10965" lon="3.27121">
        <ele>70</ele>
        <time>2014-04-13T13:16:21Z</time>
      </trkpt>
      <trkpt lat="48.1096" lon="3.2712">
        <ele>70</ele>
        <time>2014-04-13T13:16:26Z</time>
      </trkpt>
      <trkpt lat="48.1095" lon="3.27124">
        <ele>70</ele>
        <time>2014-04-13T13:16:35Z</time>
      </trkpt>
      <trkpt lat="48.10945" lon="3.27128">
        <ele>70</ele>
        <time>2014-04-13T13:16:39Z</time>
      </trkpt>
      <trkpt lat="48.10931" lon="3.27134">
        <ele>70</ele>
        <time>2014-04-13T13:16:50Z</time>
      </trkpt>
      <trkpt lat="48.10922" lon="3.27137">
        <ele>70</ele>
        <time>2014-04-13T13:17:01Z</time>
      </trkpt>
      <trkpt lat="48.10912" lon="3.27142">
        <ele>70</ele>
        <time>2014-04-13T13:17:10Z</time>
      </trkpt>
      <trkpt lat="48.10902" lon="3.27143">
        <ele>70</ele>
        <time>2014-04-13T13:17:17Z</time>
      </trkpt>
      <trkpt lat="48.10898" lon="3.27144">
        <ele>70</ele>
        <time>2014-04-13T13:17:19Z</time>
      </trkpt>
      <trkpt lat="48.10892" lon="3.27145">
        <ele>70</ele>
        <time>2014-04-13T13:17:22Z</time>
      </trkpt>
      <trkpt lat="48.10887" lon="3.27148">
        <ele>70</ele>
        <time>2014-04-13T13:17:26Z</time>
      </trkpt>
      <trkpt lat="48.10883" lon="3.27152">
        <ele>70</ele>
        <time>2014-04-13T13:17:32Z</time>
      </trkpt>
      <trkpt lat="48.10878" lon="3.27156">
        <ele>70</ele>
        <time>2014-04-13T13:17:38Z</time>
      </trkpt>
      <trkpt lat="48.10873" lon="3.27158">
        <ele>70</ele>
        <time>2014-04-13T13:17:43Z</time>
      </trkpt>
      <trkpt lat="48.10866" lon="3.27155">
        <ele>70</ele>
        <time>2014-04-13T13:17:58Z</time>
      </trkpt>
      <trkpt lat="48.10861" lon="3.27157">
        <ele>70</ele>
        <time>2014-04-13T13:18:04Z</time>
      </trkpt>
      <trkpt lat="48.10857" lon="3.27162">
        <ele>70</ele>
        <time>2014-04-13T13:18:08Z</time>
      </trkpt>
      <trkpt lat="48.10853" lon="3.27169">
        <ele>71</ele>
        <time>2014-04-13T13:18:13Z</time>
      </trkpt>
      <trkpt lat="48.10851" lon="3.27177">
        <ele>71</ele>
        <time>2014-04-13T13:18:15Z</time>
      </trkpt>
      <trkpt lat="48.10842" lon="3.27195">
        <ele>71</ele>
        <time>2014-04-13T13:18:19Z</time>
      </trkpt>
      <trkpt lat="48.10839" lon="3.27189">
        <ele>71</ele>
        <time>2014-04-13T13:18:27Z</time>
      </trkpt>
      <trkpt lat="48.10834" lon="3.27192">
        <ele>71</ele>
        <time>2014-04-13T13:18:32Z</time>
      </trkpt>
      <trkpt lat="48.10829" lon="3.27194">
        <ele>71</ele>
        <time>2014-04-13T13:18:39Z</time>
      </trkpt>
      <trkpt lat="48.10824" lon="3.27196">
        <ele>71</ele>
        <time>2014-04-13T13:18:43Z</time>
      </trkpt>
      <trkpt lat="48.10819" lon="3.27196">
        <ele>71</ele>
        <time>2014-04-13T13:18:47Z</time>
      </trkpt>
      <trkpt lat="48.10814" lon="3.27198">
        <ele>71</ele>
        <time>2014-04-13T13:18:52Z</time>
      </trkpt>
      <trkpt lat="48.1081" lon="3.27202">
        <ele>71</ele>
        <time>2014-04-13T13:18:56Z</time>
      </trkpt>
      <trkpt lat="48.10806" lon="3.27207">
        <ele>71</ele>
        <time>2014-04-13T13:19:00Z</time>
      </trkpt>
      <trkpt lat="48.10803" lon="3.27212">
        <ele>71</ele>
        <time>2014-04-13T13:19:05Z</time>
      </trkpt>
      <trkpt lat="48.10798" lon="3.27216">
        <ele>71</ele>
        <time>2014-04-13T13:19:10Z</time>
      </trkpt>
      <trkpt lat="48.10793" lon="3.27218">
        <ele>71</ele>
        <time>2014-04-13T13:19:14Z</time>
      </trkpt>
      <trkpt lat="48.10789" lon="3.27221">
        <ele>71</ele>
        <time>2014-04-13T13:19:18Z</time>
      </trkpt>
      <trkpt lat="48.10781" lon="3.27231">
        <ele>71</ele>
        <time>2014-04-13T13:19:27Z</time>
      </trkpt>
      <trkpt lat="48.10777" lon="3.27235">
        <ele>71</ele>
        <time>2014-04-13T13:19:31Z</time>
      </trkpt>
      <trkpt lat="48.10772" lon="3.27239">
        <ele>71</ele>
        <time>2014-04-13T13:19:35Z</time>
      </trkpt>
      <trkpt lat="48.10767" lon="3.27243">
        <ele>72</ele>
        <time>2014-04-13T13:19:40Z</time>
      </trkpt>
      <trkpt lat="48.10764" lon="3.27249">
        <ele>72</ele>
        <time>2014-04-13T13:19:47Z</time>
      </trkpt>
      <trkpt lat="48.1076" lon="3.27252">
        <ele>72</ele>
        <time>2014-04-13T13:19:50Z</time>
      </trkpt>
      <trkpt lat="48.10755" lon="3.27254">
        <ele>72</ele>
        <time>2014-04-13T13:19:53Z</time>
      </trkpt>
      <trkpt lat="48.10746" lon="3.27265">
        <ele>72</ele>
        <time>2014-04-13T13:20:00Z</time>
      </trkpt>
      <trkpt lat="48.10728" lon="3.27281">
        <ele>72</ele>
        <time>2014-04-13T13:20:18Z</time>
      </trkpt>
      <trkpt lat="48.10725" lon="3.27287">
        <ele>72</ele>
        <time>2014-04-13T13:20:22Z</time>
      </trkpt>
      <trkpt lat="48.10722" lon="3.27293">
        <ele>72</ele>
        <time>2014-04-13T13:20:27Z</time>
      </trkpt>
      <trkpt lat="48.10713" lon="3.27301">
        <ele>72</ele>
        <time>2014-04-13T13:20:35Z</time>
      </trkpt>
      <trkpt lat="48.10698" lon="3.27307">
        <ele>72</ele>
        <time>2014-04-13T13:20:48Z</time>
      </trkpt>
      <trkpt lat="48.10694" lon="3.27311">
        <ele>72</ele>
        <time>2014-04-13T13:20:52Z</time>
      </trkpt>
      <trkpt lat="48.10689" lon="3.27314">
        <ele>72</ele>
        <time>2014-04-13T13:20:56Z</time>
      </trkpt>
      <trkpt lat="48.10683" lon="3.27317">
        <ele>72</ele>
        <time>2014-04-13T13:21:00Z</time>
      </trkpt>
      <trkpt lat="48.10679" lon="3.2732">
        <ele>72</ele>
        <time>2014-04-13T13:21:04Z</time>
      </trkpt>
      <trkpt lat="48.10674" lon="3.27322">
        <ele>72</ele>
        <time>2014-04-13T13:21:08Z</time>
      </trkpt>
      <trkpt lat="48.10669" lon="3.27326">
        <ele>72</ele>
        <time>2014-04-13T13:21:13Z</time>
      </trkpt>
      <trkpt lat="48.10665" lon="3.27331">
        <ele>72</ele>
        <time>2014-04-13T13:21:17Z</time>
      </trkpt>
      <trkpt lat="48.10646" lon="3.2734">
        <ele>71</ele>
        <time>2014-04-13T13:21:34Z</time>
      </trkpt>
      <trkpt lat="48.10641" lon="3.27343">
        <ele>71</ele>
        <time>2014-04-13T13:21:38Z</time>
      </trkpt>
      <trkpt lat="48.10637" lon="3.27348">
        <ele>71</ele>
        <time>2014-04-13T13:21:43Z</time>
      </trkpt>
      <trkpt lat="48.10633" lon="3.2735">
        <ele>71</ele>
        <time>2014-04-13T13:21:46Z</time>
      </trkpt>
      <trkpt lat="48.10622" lon="3.27355">
        <ele>71</ele>
        <time>2014-04-13T13:21:52Z</time>
      </trkpt>
      <trkpt lat="48.10617" lon="3.27359">
        <ele>71</ele>
        <time>2014-04-13T13:21:56Z</time>
      </trkpt>
      <trkpt lat="48.10605" lon="3.27372">
        <ele>71</ele>
        <time>2014-04-13T13:22:07Z</time>
      </trkpt>
      <trkpt lat="48.10587" lon="3.27382">
        <ele>71</ele>
        <time>2014-04-13T13:22:25Z</time>
      </trkpt>
      <trkpt lat="48.1058" lon="3.27393">
        <ele>70</ele>
        <time>2014-04-13T13:22:33Z</time>
      </trkpt>
      <trkpt lat="48.10569" lon="3.27398">
        <ele>70</ele>
        <time>2014-04-13T13:22:41Z</time>
      </trkpt>
      <trkpt lat="48.10565" lon="3.274">
        <ele>70</ele>
        <time>2014-04-13T13:22:45Z</time>
      </trkpt>
      <trkpt lat="48.10561" lon="3.27405">
        <ele>70</ele>
        <time>2014-04-13T13:22:49Z</time>
      </trkpt>
      <trkpt lat="48.10556" lon="3.2741">
        <ele>70</ele>
        <time>2014-04-13T13:22:53Z</time>
      </trkpt>
      <trkpt lat="48.10551" lon="3.27412">
        <ele>70</ele>
        <time>2014-04-13T13:22:57Z</time>
      </trkpt>
      <trkpt lat="48.10547" lon="3.27416">
        <ele>70</ele>
        <time>2014-04-13T13:23:01Z</time>
      </trkpt>
      <trkpt lat="48.10542" lon="3.27418">
        <ele>70</ele>
        <time>2014-04-13T13:23:06Z</time>
      </trkpt>
      <trkpt lat="48.10538" lon="3.27422">
        <ele>70</ele>
        <time>2014-04-13T13:23:10Z</time>
      </trkpt>
      <trkpt lat="48.10536" lon="3.27428">
        <ele>70</ele>
        <time>2014-04-13T13:23:15Z</time>
      </trkpt>
      <trkpt lat="48.10532" lon="3.27433">
        <ele>70</ele>
        <time>2014-04-13T13:23:19Z</time>
      </trkpt>
      <trkpt lat="48.10519" lon="3.27446">
        <ele>70</ele>
        <time>2014-04-13T13:23:32Z</time>
      </trkpt>
      <trkpt lat="48.10515" lon="3.27448">
        <ele>70</ele>
        <time>2014-04-13T13:23:37Z</time>
      </trkpt>
      <trkpt lat="48.1051" lon="3.27452">
        <ele>70</ele>
        <time>2014-04-13T13:23:41Z</time>
      </trkpt>
      <trkpt lat="48.10507" lon="3.27457">
        <ele>70</ele>
        <time>2014-04-13T13:23:45Z</time>
      </trkpt>
      <trkpt lat="48.10502" lon="3.27461">
        <ele>70</ele>
        <time>2014-04-13T13:23:50Z</time>
      </trkpt>
      <trkpt lat="48.10477" lon="3.27493">
        <ele>70</ele>
        <time>2014-04-13T13:24:14Z</time>
      </trkpt>
      <trkpt lat="48.10474" lon="3.27499">
        <ele>70</ele>
        <time>2014-04-13T13:24:18Z</time>
      </trkpt>
      <trkpt lat="48.1047" lon="3.27503">
        <ele>70</ele>
        <time>2014-04-13T13:24:23Z</time>
      </trkpt>
      <trkpt lat="48.10466" lon="3.27506">
        <ele>69</ele>
        <time>2014-04-13T13:24:28Z</time>
      </trkpt>
      <trkpt lat="48.10453" lon="3.27519">
        <ele>69</ele>
        <time>2014-04-13T13:24:40Z</time>
      </trkpt>
      <trkpt lat="48.10446" lon="3.27529">
        <ele>69</ele>
        <time>2014-04-13T13:24:49Z</time>
      </trkpt>
      <trkpt lat="48.10441" lon="3.27534">
        <ele>70</ele>
        <time>2014-04-13T13:24:53Z</time>
      </trkpt>
      <trkpt lat="48.10437" lon="3.27539">
        <ele>70</ele>
        <time>2014-04-13T13:24:56Z</time>
      </trkpt>
      <trkpt lat="48.10435" lon="3.27546">
        <ele>70</ele>
        <time>2014-04-13T13:25:04Z</time>
      </trkpt>
      <trkpt lat="48.10431" lon="3.2755">
        <ele>70</ele>
        <time>2014-04-13T13:25:09Z</time>
      </trkpt>
      <trkpt lat="48.10423" lon="3.2756">
        <ele>70</ele>
        <time>2014-04-13T13:25:17Z</time>
      </trkpt>
      <trkpt lat="48.10404" lon="3.27596">
        <ele>70</ele>
        <time>2014-04-13T13:25:43Z</time>
      </trkpt>
      <trkpt lat="48.10399" lon="3.27602">
        <ele>70</ele>
        <time>2014-04-13T13:25:48Z</time>
      </trkpt>
      <trkpt lat="48.10395" lon="3.27604">
        <ele>70</ele>
        <time>2014-04-13T13:25:52Z</time>
      </trkpt>
      <trkpt lat="48.10391" lon="3.27609">
        <ele>70</ele>
        <time>2014-04-13T13:25:57Z</time>
      </trkpt>
      <trkpt lat="48.10388" lon="3.27614">
        <ele>70</ele>
        <time>2014-04-13T13:26:02Z</time>
      </trkpt>
      <trkpt lat="48.10384" lon="3.2762">
        <ele>70</ele>
        <time>2014-04-13T13:26:07Z</time>
      </trkpt>
      <trkpt lat="48.10362" lon="3.27661">
        <ele>70</ele>
        <time>2014-04-13T13:26:31Z</time>
      </trkpt>
      <trkpt lat="48.10359" lon="3.27666">
        <ele>70</ele>
        <time>2014-04-13T13:26:36Z</time>
      </trkpt>
      <trkpt lat="48.10355" lon="3.27681">
        <ele>69</ele>
        <time>2014-04-13T13:26:45Z</time>
      </trkpt>
      <trkpt lat="48.1035" lon="3.27693">
        <ele>69</ele>
        <time>2014-04-13T13:26:52Z</time>
      </trkpt>
      <trkpt lat="48.10346" lon="3.27699">
        <ele>69</ele>
        <time>2014-04-13T13:26:57Z</time>
      </trkpt>
      <trkpt lat="48.10342" lon="3.27704">
        <ele>69</ele>
        <time>2014-04-13T13:27:01Z</time>
      </trkpt>
      <trkpt lat="48.10338" lon="3.27709">
        <ele>69</ele>
        <time>2014-04-13T13:27:05Z</time>
      </trkpt>
      <trkpt lat="48.10335" lon="3.27714">
        <ele>69</ele>
        <time>2014-04-13T13:27:09Z</time>
      </trkpt>
      <trkpt lat="48.1033" lon="3.27727">
        <ele>71</ele>
        <time>2014-04-13T13:27:19Z</time>
      </trkpt>
      <trkpt lat="48.10328" lon="3.27735">
        <ele>71</ele>
        <time>2014-04-13T13:27:23Z</time>
      </trkpt>
      <trkpt lat="48.10305" lon="3.27783">
        <ele>71</ele>
        <time>2014-04-13T13:27:52Z</time>
      </trkpt>
      <trkpt lat="48.10302" lon="3.27788">
        <ele>71</ele>
        <time>2014-04-13T13:27:55Z</time>
      </trkpt>
      <trkpt lat="48.10295" lon="3.27802">
        <ele>71</ele>
        <time>2014-04-13T13:28:03Z</time>
      </trkpt>
      <trkpt lat="48.10284" lon="3.27818">
        <ele>72</ele>
        <time>2014-04-13T13:28:15Z</time>
      </trkpt>
      <trkpt lat="48.10281" lon="3.27824">
        <ele>72</ele>
        <time>2014-04-13T13:28:19Z</time>
      </trkpt>
      <trkpt lat="48.10277" lon="3.2783">
        <ele>72</ele>
        <time>2014-04-13T13:28:23Z</time>
      </trkpt>
      <trkpt lat="48.10275" lon="3.27837">
        <ele>71</ele>
        <time>2014-04-13T13:28:26Z</time>
      </trkpt>
      <trkpt lat="48.10272" lon="3.27842">
        <ele>71</ele>
        <time>2014-04-13T13:28:29Z</time>
      </trkpt>
      <trkpt lat="48.10268" lon="3.27848">
        <ele>71</ele>
        <time>2014-04-13T13:28:33Z</time>
      </trkpt>
      <trkpt lat="48.10264" lon="3.27852">
        <ele>71</ele>
        <time>2014-04-13T13:28:38Z</time>
      </trkpt>
      <trkpt lat="48.10262" lon="3.27857">
        <ele>71</ele>
        <time>2014-04-13T13:28:42Z</time>
      </trkpt>
      <trkpt lat="48.10259" lon="3.27862">
        <ele>71</ele>
        <time>2014-04-13T13:28:47Z</time>
      </trkpt>
      <trkpt lat="48.10255" lon="3.27866">
        <ele>71</ele>
        <time>2014-04-13T13:28:52Z</time>
      </trkpt>
      <trkpt lat="48.10237" lon="3.27904">
        <ele>71</ele>
        <time>2014-04-13T13:29:14Z</time>
      </trkpt>
      <trkpt lat="48.10234" lon="3.27909">
        <ele>71</ele>
        <time>2014-04-13T13:29:18Z</time>
      </trkpt>
      <trkpt lat="48.10229" lon="3.27914">
        <ele>71</ele>
        <time>2014-04-13T13:29:22Z</time>
      </trkpt>
      <trkpt lat="48.10222" lon="3.27923">
        <ele>70</ele>
        <time>2014-04-13T13:29:29Z</time>
      </trkpt>
      <trkpt lat="48.10218" lon="3.27927">
        <ele>70</ele>
        <time>2014-04-13T13:29:35Z</time>
      </trkpt>
      <trkpt lat="48.1021" lon="3.2794">
        <ele>70</ele>
        <time>2014-04-13T13:29:42Z</time>
      </trkpt>
      <trkpt lat="48.10207" lon="3.27947">
        <ele>70</ele>
        <time>2014-04-13T13:29:46Z</time>
      </trkpt>
      <trkpt lat="48.10196" lon="3.27961">
        <ele>70</ele>
        <time>2014-04-13T13:29:58Z</time>
      </trkpt>
      <trkpt lat="48.10193" lon="3.27966">
        <ele>70</ele>
        <time>2014-04-13T13:30:01Z</time>
      </trkpt>
      <trkpt lat="48.10189" lon="3.2797">
        <ele>70</ele>
        <time>2014-04-13T13:30:05Z</time>
      </trkpt>
      <trkpt lat="48.10185" lon="3.27976">
        <ele>70</ele>
        <time>2014-04-13T13:30:11Z</time>
      </trkpt>
      <trkpt lat="48.10187" lon="3.27977">
        <ele>70</ele>
        <time>2014-04-13T13:30:24Z</time>
      </trkpt>
      <trkpt lat="48.10157" lon="3.28026">
        <ele>69</ele>
        <time>2014-04-13T13:31:32Z</time>
      </trkpt>
      <trkpt lat="48.10155" lon="3.28029">
        <ele>69</ele>
        <time>2014-04-13T13:31:38Z</time>
      </trkpt>
      <trkpt lat="48.10152" lon="3.28035">
        <ele>69</ele>
        <time>2014-04-13T13:31:48Z</time>
      </trkpt>
      <trkpt lat="48.10149" lon="3.2804">
        <ele>69</ele>
        <time>2014-04-13T13:31:52Z</time>
      </trkpt>
      <trkpt lat="48.10144" lon="3.28045">
        <ele>69</ele>
        <time>2014-04-13T13:31:57Z</time>
      </trkpt>
      <trkpt lat="48.10138" lon="3.28055">
        <ele>69</ele>
        <time>2014-04-13T13:32:06Z</time>
      </trkpt>
      <trkpt lat="48.10135" lon="3.2807">
        <ele>68</ele>
        <time>2014-04-13T13:32:25Z</time>
      </trkpt>
      <trkpt lat="48.10123" lon="3.28094">
        <ele>69</ele>
        <time>2014-04-13T13:32:38Z</time>
      </trkpt>
      <trkpt lat="48.10116" lon="3.28104">
        <ele>69</ele>
        <time>2014-04-13T13:32:46Z</time>
      </trkpt>
      <trkpt lat="48.10113" lon="3.28111">
        <ele>69</ele>
        <time>2014-04-13T13:32:50Z</time>
      </trkpt>
      <trkpt lat="48.10111" lon="3.28117">
        <ele>69</ele>
        <time>2014-04-13T13:32:55Z</time>
      </trkpt>
      <trkpt lat="48.10105" lon="3.28129">
        <ele>69</ele>
        <time>2014-04-13T13:33:03Z</time>
      </trkpt>
      <trkpt lat="48.10102" lon="3.28136">
        <ele>69</ele>
        <time>2014-04-13T13:33:07Z</time>
      </trkpt>
      <trkpt lat="48.10099" lon="3.28143">
        <ele>69</ele>
        <time>2014-04-13T13:33:11Z</time>
      </trkpt>
      <trkpt lat="48.10097" lon="3.28149">
        <ele>69</ele>
        <time>2014-04-13T13:33:16Z</time>
      </trkpt>
      <trkpt lat="48.10094" lon="3.28156">
        <ele>69</ele>
        <time>2014-04-13T13:33:21Z</time>
      </trkpt>
      <trkpt lat="48.10083" lon="3.28171">
        <ele>70</ele>
        <time>2014-04-13T13:33:33Z</time>
      </trkpt>
      <trkpt lat="48.1008" lon="3.28179">
        <ele>70</ele>
        <time>2014-04-13T13:33:37Z</time>
      </trkpt>
      <trkpt lat="48.10078" lon="3.28186">
        <ele>70</ele>
        <time>2014-04-13T13:33:41Z</time>
      </trkpt>
      <trkpt lat="48.10062" lon="3.28216">
        <ele>69</ele>
        <time>2014-04-13T13:34:01Z</time>
      </trkpt>
      <trkpt lat="48.10058" lon="3.28229">
        <ele>69</ele>
        <time>2014-04-13T13:34:09Z</time>
      </trkpt>
      <trkpt lat="48.10046" lon="3.28251">
        <ele>68</ele>
        <time>2014-04-13T13:34:24Z</time>
      </trkpt>
      <trkpt lat="48.10044" lon="3.28258">
        <ele>68</ele>
        <time>2014-04-13T13:34:28Z</time>
      </trkpt>
      <trkpt lat="48.10022" lon="3.28311">
        <ele>68</ele>
        <time>2014-04-13T13:34:59Z</time>
      </trkpt>
      <trkpt lat="48.10019" lon="3.28317">
        <ele>68</ele>
        <time>2014-04-13T13:35:03Z</time>
      </trkpt>
      <trkpt lat="48.10014" lon="3.28322">
        <ele>68</ele>
        <time>2014-04-13T13:35:08Z</time>
      </trkpt>
      <trkpt lat="48.10012" lon="3.28328">
        <ele>69</ele>
        <time>2014-04-13T13:35:12Z</time>
      </trkpt>
      <trkpt lat="48.10002" lon="3.28345">
        <ele>69</ele>
        <time>2014-04-13T13:35:25Z</time>
      </trkpt>
      <trkpt lat="48.09999" lon="3.28351">
        <ele>69</ele>
        <time>2014-04-13T13:35:30Z</time>
      </trkpt>
      <trkpt lat="48.09995" lon="3.28356">
        <ele>69</ele>
        <time>2014-04-13T13:35:34Z</time>
      </trkpt>
      <trkpt lat="48.09992" lon="3.28363">
        <ele>69</ele>
        <time>2014-04-13T13:35:38Z</time>
      </trkpt>
      <trkpt lat="48.09988" lon="3.28369">
        <ele>69</ele>
        <time>2014-04-13T13:35:42Z</time>
      </trkpt>
      <trkpt lat="48.09981" lon="3.28381">
        <ele>70</ele>
        <time>2014-04-13T13:35:49Z</time>
      </trkpt>
      <trkpt lat="48.09955" lon="3.28413">
        <ele>70</ele>
        <time>2014-04-13T13:36:18Z</time>
      </trkpt>
      <trkpt lat="48.09951" lon="3.28419">
        <ele>70</ele>
        <time>2014-04-13T13:36:22Z</time>
      </trkpt>
      <trkpt lat="48.09947" lon="3.28423">
        <ele>70</ele>
        <time>2014-04-13T13:36:26Z</time>
      </trkpt>
      <trkpt lat="48.09935" lon="3.28434">
        <ele>70</ele>
        <time>2014-04-13T13:36:38Z</time>
      </trkpt>
      <trkpt lat="48.0993" lon="3.28439">
        <ele>70</ele>
        <time>2014-04-13T13:36:42Z</time>
      </trkpt>
      <trkpt lat="48.09924" lon="3.2845">
        <ele>70</ele>
        <time>2014-04-13T13:36:50Z</time>
      </trkpt>
      <trkpt lat="48.0992" lon="3.28454">
        <ele>70</ele>
        <time>2014-04-13T13:36:54Z</time>
      </trkpt>
      <trkpt lat="48.09917" lon="3.28461">
        <ele>70</ele>
        <time>2014-04-13T13:36:59Z</time>
      </trkpt>
      <trkpt lat="48.09914" lon="3.28466">
        <ele>70</ele>
        <time>2014-04-13T13:37:03Z</time>
      </trkpt>
      <trkpt lat="48.09909" lon="3.28472">
        <ele>70</ele>
        <time>2014-04-13T13:37:18Z</time>
      </trkpt>
      <trkpt lat="48.09904" lon="3.28476">
        <ele>70</ele>
        <time>2014-04-13T13:37:23Z</time>
      </trkpt>
      <trkpt lat="48.09896" lon="3.28485">
        <ele>70</ele>
        <time>2014-04-13T13:37:31Z</time>
      </trkpt>
      <trkpt lat="48.09892" lon="3.28489">
        <ele>70</ele>
        <time>2014-04-13T13:37:36Z</time>
      </trkpt>
      <trkpt lat="48.09877" lon="3.28512">
        <ele>69</ele>
        <time>2014-04-13T13:37:52Z</time>
      </trkpt>
      <trkpt lat="48.09873" lon="3.28515">
        <ele>69</ele>
        <time>2014-04-13T13:37:56Z</time>
      </trkpt>
      <trkpt lat="48.09856" lon="3.28534">
        <ele>69</ele>
        <time>2014-04-13T13:38:12Z</time>
      </trkpt>
      <trkpt lat="48.09852" lon="3.28539">
        <ele>69</ele>
        <time>2014-04-13T13:38:16Z</time>
      </trkpt>
      <trkpt lat="48.09847" lon="3.28542">
        <ele>69</ele>
        <time>2014-04-13T13:38:20Z</time>
      </trkpt>
      <trkpt lat="48.09835" lon="3.28559">
        <ele>68</ele>
        <time>2014-04-13T13:38:32Z</time>
      </trkpt>
      <trkpt lat="48.09827" lon="3.28567">
        <ele>67</ele>
        <time>2014-04-13T13:38:40Z</time>
      </trkpt>
      <trkpt lat="48.09826" lon="3.28574">
        <ele>67</ele>
        <time>2014-04-13T13:38:48Z</time>
      </trkpt>
      <trkpt lat="48.09803" lon="3.28608">
        <ele>67</ele>
        <time>2014-04-13T13:39:12Z</time>
      </trkpt>
      <trkpt lat="48.09791" lon="3.28622">
        <ele>67</ele>
        <time>2014-04-13T13:39:25Z</time>
      </trkpt>
      <trkpt lat="48.09787" lon="3.28626">
        <ele>67</ele>
        <time>2014-04-13T13:39:30Z</time>
      </trkpt>
      <trkpt lat="48.09763" lon="3.28656">
        <ele>66</ele>
        <time>2014-04-13T13:39:55Z</time>
      </trkpt>
      <trkpt lat="48.09754" lon="3.28663">
        <ele>66</ele>
        <time>2014-04-13T13:40:03Z</time>
      </trkpt>
      <trkpt lat="48.09749" lon="3.28664">
        <ele>66</ele>
        <time>2014-04-13T13:40:07Z</time>
      </trkpt>
      <trkpt lat="48.09746" lon="3.28669">
        <ele>66</ele>
        <time>2014-04-13T13:40:13Z</time>
      </trkpt>
      <trkpt lat="48.09739" lon="3.2868">
        <ele>66</ele>
        <time>2014-04-13T13:40:22Z</time>
      </trkpt>
      <trkpt lat="48.09731" lon="3.28691">
        <ele>66</ele>
        <time>2014-04-13T13:40:30Z</time>
      </trkpt>
      <trkpt lat="48.097" lon="3.28717">
        <ele>66</ele>
        <time>2014-04-13T13:40:57Z</time>
      </trkpt>
      <trkpt lat="48.09693" lon="3.28726">
        <ele>66</ele>
        <time>2014-04-13T13:41:06Z</time>
      </trkpt>
      <trkpt lat="48.09687" lon="3.2873">
        <ele>66</ele>
        <time>2014-04-13T13:41:11Z</time>
      </trkpt>
      <trkpt lat="48.09683" lon="3.28732">
        <ele>66</ele>
        <time>2014-04-13T13:41:15Z</time>
      </trkpt>
      <trkpt lat="48.09679" lon="3.28736">
        <ele>66</ele>
        <time>2014-04-13T13:41:18Z</time>
      </trkpt>
      <trkpt lat="48.09671" lon="3.28747">
        <ele>66</ele>
        <time>2014-04-13T13:41:25Z</time>
      </trkpt>
      <trkpt lat="48.09654" lon="3.28764">
        <ele>67</ele>
        <time>2014-04-13T13:41:42Z</time>
      </trkpt>
      <trkpt lat="48.0965" lon="3.28766">
        <ele>67</ele>
        <time>2014-04-13T13:41:48Z</time>
      </trkpt>
      <trkpt lat="48.09641" lon="3.28774">
        <ele>67</ele>
        <time>2014-04-13T13:41:57Z</time>
      </trkpt>
      <trkpt lat="48.09633" lon="3.28785">
        <ele>67</ele>
        <time>2014-04-13T13:42:04Z</time>
      </trkpt>
      <trkpt lat="48.09629" lon="3.28789">
        <ele>67</ele>
        <time>2014-04-13T13:42:08Z</time>
      </trkpt>
      <trkpt lat="48.09626" lon="3.28795">
        <ele>67</ele>
        <time>2014-04-13T13:42:12Z</time>
      </trkpt>
      <trkpt lat="48.09622" lon="3.28801">
        <ele>67</ele>
        <time>2014-04-13T13:42:24Z</time>
      </trkpt>
      <trkpt lat="48.09616" lon="3.28804">
        <ele>67</ele>
        <time>2014-04-13T13:42:28Z</time>
      </trkpt>
      <trkpt lat="48.09612" lon="3.28808">
        <ele>67</ele>
        <time>2014-04-13T13:42:31Z</time>
      </trkpt>
      <trkpt lat="48.09609" lon="3.28813">
        <ele>67</ele>
        <time>2014-04-13T13:42:35Z</time>
      </trkpt>
      <trkpt lat="48.09605" lon="3.28818">
        <ele>67</ele>
        <time>2014-04-13T13:42:40Z</time>
      </trkpt>
      <trkpt lat="48.09602" lon="3.28823">
        <ele>68</ele>
        <time>2014-04-13T13:42:43Z</time>
      </trkpt>
      <trkpt lat="48.09599" lon="3.28829">
        <ele>68</ele>
        <time>2014-04-13T13:42:46Z</time>
      </trkpt>
      <trkpt lat="48.09589" lon="3.28835">
        <ele>68</ele>
        <time>2014-04-13T13:42:54Z</time>
      </trkpt>
      <trkpt lat="48.09585" lon="3.28841">
        <ele>68</ele>
        <time>2014-04-13T13:42:57Z</time>
      </trkpt>
      <trkpt lat="48.0958" lon="3.28845">
        <ele>68</ele>
        <time>2014-04-13T13:43:01Z</time>
      </trkpt>
      <trkpt lat="48.09576" lon="3.28847">
        <ele>68</ele>
        <time>2014-04-13T13:43:06Z</time>
      </trkpt>
      <trkpt lat="48.09567" lon="3.28849">
        <ele>68</ele>
        <time>2014-04-13T13:43:13Z</time>
      </trkpt>
      <trkpt lat="48.09548" lon="3.28859">
        <ele>68</ele>
        <time>2014-04-13T13:43:31Z</time>
      </trkpt>
      <trkpt lat="48.09533" lon="3.28857">
        <ele>69</ele>
        <time>2014-04-13T13:43:41Z</time>
      </trkpt>
      <trkpt lat="48.09529" lon="3.2886">
        <ele>69</ele>
        <time>2014-04-13T13:43:45Z</time>
      </trkpt>
      <trkpt lat="48.09526" lon="3.28854">
        <ele>69</ele>
        <time>2014-04-13T13:43:51Z</time>
      </trkpt>
      <trkpt lat="48.09521" lon="3.28853">
        <ele>69</ele>
        <time>2014-04-13T13:43:56Z</time>
      </trkpt>
      <trkpt lat="48.09516" lon="3.28857">
        <ele>69</ele>
        <time>2014-04-13T13:44:00Z</time>
      </trkpt>
      <trkpt lat="48.09511" lon="3.28858">
        <ele>69</ele>
        <time>2014-04-13T13:44:03Z</time>
      </trkpt>
      <trkpt lat="48.09507" lon="3.2886">
        <ele>69</ele>
        <time>2014-04-13T13:44:06Z</time>
      </trkpt>
      <trkpt lat="48.09503" lon="3.28863">
        <ele>69</ele>
        <time>2014-04-13T13:44:10Z</time>
      </trkpt>
      <trkpt lat="48.09494" lon="3.28872">
        <ele>70</ele>
        <time>2014-04-13T13:44:18Z</time>
      </trkpt>
      <trkpt lat="48.09489" lon="3.28874">
        <ele>70</ele>
        <time>2014-04-13T13:44:23Z</time>
      </trkpt>
      <trkpt lat="48.09473" lon="3.28878">
        <ele>70</ele>
        <time>2014-04-13T13:44:34Z</time>
      </trkpt>
      <trkpt lat="48.09469" lon="3.28881">
        <ele>70</ele>
        <time>2014-04-13T13:44:38Z</time>
      </trkpt>
      <trkpt lat="48.09464" lon="3.28879">
        <ele>70</ele>
        <time>2014-04-13T13:44:45Z</time>
      </trkpt>
      <trkpt lat="48.09459" lon="3.28882">
        <ele>69</ele>
        <time>2014-04-13T13:44:48Z</time>
      </trkpt>
      <trkpt lat="48.09449" lon="3.28886">
        <ele>69</ele>
        <time>2014-04-13T13:44:55Z</time>
      </trkpt>
      <trkpt lat="48.09444" lon="3.28884">
        <ele>69</ele>
        <time>2014-04-13T13:44:59Z</time>
      </trkpt>
      <trkpt lat="48.09438" lon="3.28883">
        <ele>69</ele>
        <time>2014-04-13T13:45:03Z</time>
      </trkpt>
      <trkpt lat="48.09434" lon="3.28886">
        <ele>69</ele>
        <time>2014-04-13T13:45:06Z</time>
      </trkpt>
      <trkpt lat="48.09429" lon="3.2889">
        <ele>69</ele>
        <time>2014-04-13T13:45:10Z</time>
      </trkpt>
      <trkpt lat="48.09424" lon="3.28891">
        <ele>69</ele>
        <time>2014-04-13T13:45:14Z</time>
      </trkpt>
      <trkpt lat="48.09419" lon="3.28891">
        <ele>69</ele>
        <time>2014-04-13T13:45:18Z</time>
      </trkpt>
      <trkpt lat="48.09413" lon="3.28893">
        <ele>69</ele>
        <time>2014-04-13T13:45:22Z</time>
      </trkpt>
      <trkpt lat="48.09409" lon="3.28895">
        <ele>69</ele>
        <time>2014-04-13T13:45:26Z</time>
      </trkpt>
      <trkpt lat="48.09403" lon="3.28896">
        <ele>69</ele>
        <time>2014-04-13T13:45:30Z</time>
      </trkpt>
      <trkpt lat="48.09399" lon="3.28894">
        <ele>69</ele>
        <time>2014-04-13T13:45:33Z</time>
      </trkpt>
      <trkpt lat="48.09393" lon="3.28896">
        <ele>69</ele>
        <time>2014-04-13T13:45:37Z</time>
      </trkpt>
      <trkpt lat="48.09388" lon="3.289">
        <ele>69</ele>
        <time>2014-04-13T13:45:41Z</time>
      </trkpt>
      <trkpt lat="48.09378" lon="3.289">
        <ele>69</ele>
        <time>2014-04-13T13:45:49Z</time>
      </trkpt>
      <trkpt lat="48.09368" lon="3.28898">
        <ele>69</ele>
        <time>2014-04-13T13:45:57Z</time>
      </trkpt>
      <trkpt lat="48.09359" lon="3.28893">
        <ele>70</ele>
        <time>2014-04-13T13:46:07Z</time>
      </trkpt>
      <trkpt lat="48.09354" lon="3.28895">
        <ele>70</ele>
        <time>2014-04-13T13:46:10Z</time>
      </trkpt>
      <trkpt lat="48.09349" lon="3.28899">
        <ele>70</ele>
        <time>2014-04-13T13:46:14Z</time>
      </trkpt>
      <trkpt lat="48.0934" lon="3.28903">
        <ele>69</ele>
        <time>2014-04-13T13:46:20Z</time>
      </trkpt>
      <trkpt lat="48.09336" lon="3.28907">
        <ele>69</ele>
        <time>2014-04-13T13:46:23Z</time>
      </trkpt>
      <trkpt lat="48.09326" lon="3.28911">
        <ele>69</ele>
        <time>2014-04-13T13:46:31Z</time>
      </trkpt>
      <trkpt lat="48.09316" lon="3.28919">
        <ele>68</ele>
        <time>2014-04-13T13:46:39Z</time>
      </trkpt>
      <trkpt lat="48.0931" lon="3.2892">
        <ele>68</ele>
        <time>2014-04-13T13:46:43Z</time>
      </trkpt>
      <trkpt lat="48.09305" lon="3.28922">
        <ele>68</ele>
        <time>2014-04-13T13:46:47Z</time>
      </trkpt>
      <trkpt lat="48.09299" lon="3.28921">
        <ele>68</ele>
        <time>2014-04-13T13:46:50Z</time>
      </trkpt>
      <trkpt lat="48.09294" lon="3.28916">
        <ele>69</ele>
        <time>2014-04-13T13:46:53Z</time>
      </trkpt>
      <trkpt lat="48.09288" lon="3.28915">
        <ele>69</ele>
        <time>2014-04-13T13:46:57Z</time>
      </trkpt>
      <trkpt lat="48.09283" lon="3.28918">
        <ele>68</ele>
        <time>2014-04-13T13:47:01Z</time>
      </trkpt>
      <trkpt lat="48.09279" lon="3.28922">
        <ele>68</ele>
        <time>2014-04-13T13:47:06Z</time>
      </trkpt>
      <trkpt lat="48.09276" lon="3.28915">
        <ele>68</ele>
        <time>2014-04-13T13:47:11Z</time>
      </trkpt>
      <trkpt lat="48.09271" lon="3.28912">
        <ele>68</ele>
        <time>2014-04-13T13:47:18Z</time>
      </trkpt>
      <trkpt lat="48.09265" lon="3.28913">
        <ele>68</ele>
        <time>2014-04-13T13:47:22Z</time>
      </trkpt>
      <trkpt lat="48.0926" lon="3.28913">
        <ele>68</ele>
        <time>2014-04-13T13:47:25Z</time>
      </trkpt>
      <trkpt lat="48.09255" lon="3.28914">
        <ele>67</ele>
        <time>2014-04-13T13:47:28Z</time>
      </trkpt>
      <trkpt lat="48.09245" lon="3.28917">
        <ele>67</ele>
        <time>2014-04-13T13:47:34Z</time>
      </trkpt>
      <trkpt lat="48.0924" lon="3.28919">
        <ele>67</ele>
        <time>2014-04-13T13:47:38Z</time>
      </trkpt>
      <trkpt lat="48.09236" lon="3.28922">
        <ele>67</ele>
        <time>2014-04-13T13:47:42Z</time>
      </trkpt>
      <trkpt lat="48.09231" lon="3.28926">
        <ele>67</ele>
        <time>2014-04-13T13:47:45Z</time>
      </trkpt>
      <trkpt lat="48.09226" lon="3.28932">
        <ele>67</ele>
        <time>2014-04-13T13:47:48Z</time>
      </trkpt>
      <trkpt lat="48.0922" lon="3.28935">
        <ele>67</ele>
        <time>2014-04-13T13:47:51Z</time>
      </trkpt>
      <trkpt lat="48.09215" lon="3.28935">
        <ele>67</ele>
        <time>2014-04-13T13:47:59Z</time>
      </trkpt>
      <trkpt lat="48.09209" lon="3.28933">
        <ele>67</ele>
        <time>2014-04-13T13:48:03Z</time>
      </trkpt>
      <trkpt lat="48.09205" lon="3.28934">
        <ele>67</ele>
        <time>2014-04-13T13:48:13Z</time>
      </trkpt>
      <trkpt lat="48.09201" lon="3.28939">
        <ele>67</ele>
        <time>2014-04-13T13:48:17Z</time>
      </trkpt>
      <trkpt lat="48.09197" lon="3.28943">
        <ele>67</ele>
        <time>2014-04-13T13:48:21Z</time>
      </trkpt>
      <trkpt lat="48.09194" lon="3.28938">
        <ele>67</ele>
        <time>2014-04-13T13:48:25Z</time>
      </trkpt>
      <trkpt lat="48.09189" lon="3.28943">
        <ele>67</ele>
        <time>2014-04-13T13:48:30Z</time>
      </trkpt>
      <trkpt lat="48.09186" lon="3.28949">
        <ele>67</ele>
        <time>2014-04-13T13:48:32Z</time>
      </trkpt>
      <trkpt lat="48.09181" lon="3.28953">
        <ele>67</ele>
        <time>2014-04-13T13:48:35Z</time>
      </trkpt>
      <trkpt lat="48.09172" lon="3.28953">
        <ele>67</ele>
        <time>2014-04-13T13:48:41Z</time>
      </trkpt>
      <trkpt lat="48.09167" lon="3.28951">
        <ele>67</ele>
        <time>2014-04-13T13:48:44Z</time>
      </trkpt>
      <trkpt lat="48.09162" lon="3.28952">
        <ele>67</ele>
        <time>2014-04-13T13:48:47Z</time>
      </trkpt>
      <trkpt lat="48.09157" lon="3.28955">
        <ele>67</ele>
        <time>2014-04-13T13:48:51Z</time>
      </trkpt>
      <trkpt lat="48.09153" lon="3.28962">
        <ele>67</ele>
        <time>2014-04-13T13:48:55Z</time>
      </trkpt>
      <trkpt lat="48.09144" lon="3.28965">
        <ele>67</ele>
        <time>2014-04-13T13:49:02Z</time>
      </trkpt>
      <trkpt lat="48.09142" lon="3.28972">
        <ele>67</ele>
        <time>2014-04-13T13:49:07Z</time>
      </trkpt>
      <trkpt lat="48.09138" lon="3.28978">
        <ele>67</ele>
        <time>2014-04-13T13:49:11Z</time>
      </trkpt>
      <trkpt lat="48.09132" lon="3.28981">
        <ele>67</ele>
        <time>2014-04-13T13:49:14Z</time>
      </trkpt>
      <trkpt lat="48.09126" lon="3.28983">
        <ele>67</ele>
        <time>2014-04-13T13:49:17Z</time>
      </trkpt>
      <trkpt lat="48.09121" lon="3.28982">
        <ele>66</ele>
        <time>2014-04-13T13:49:22Z</time>
      </trkpt>
      <trkpt lat="48.09116" lon="3.28986">
        <ele>66</ele>
        <time>2014-04-13T13:49:27Z</time>
      </trkpt>
      <trkpt lat="48.09114" lon="3.28978">
        <ele>66</ele>
        <time>2014-04-13T13:49:36Z</time>
      </trkpt>
      <trkpt lat="48.09109" lon="3.28976">
        <ele>66</ele>
        <time>2014-04-13T13:49:46Z</time>
      </trkpt>
      <trkpt lat="48.09103" lon="3.2898">
        <ele>66</ele>
        <time>2014-04-13T13:49:50Z</time>
      </trkpt>
      <trkpt lat="48.09099" lon="3.28983">
        <ele>66</ele>
        <time>2014-04-13T13:49:53Z</time>
      </trkpt>
      <trkpt lat="48.0908" lon="3.28992">
        <ele>66</ele>
        <time>2014-04-13T13:50:09Z</time>
      </trkpt>
      <trkpt lat="48.09076" lon="3.28997">
        <ele>66</ele>
        <time>2014-04-13T13:50:15Z</time>
      </trkpt>
      <trkpt lat="48.09066" lon="3.29002">
        <ele>66</ele>
        <time>2014-04-13T13:50:23Z</time>
      </trkpt>
      <trkpt lat="48.09062" lon="3.29005">
        <ele>66</ele>
        <time>2014-04-13T13:50:27Z</time>
      </trkpt>
      <trkpt lat="48.09057" lon="3.29008">
        <ele>66</ele>
        <time>2014-04-13T13:50:31Z</time>
      </trkpt>
      <trkpt lat="48.09052" lon="3.29008">
        <ele>66</ele>
        <time>2014-04-13T13:50:36Z</time>
      </trkpt>
      <trkpt lat="48.09047" lon="3.2901">
        <ele>66</ele>
        <time>2014-04-13T13:50:40Z</time>
      </trkpt>
      <trkpt lat="48.09042" lon="3.29012">
        <ele>66</ele>
        <time>2014-04-13T13:50:43Z</time>
      </trkpt>
      <trkpt lat="48.09037" lon="3.29014">
        <ele>66</ele>
        <time>2014-04-13T13:50:46Z</time>
      </trkpt>
      <trkpt lat="48.09028" lon="3.29023">
        <ele>66</ele>
        <time>2014-04-13T13:50:52Z</time>
      </trkpt>
      <trkpt lat="48.09023" lon="3.29026">
        <ele>66</ele>
        <time>2014-04-13T13:50:56Z</time>
      </trkpt>
      <trkpt lat="48.09012" lon="3.29028">
        <ele>66</ele>
        <time>2014-04-13T13:51:03Z</time>
      </trkpt>
      <trkpt lat="48.09006" lon="3.29027">
        <ele>66</ele>
        <time>2014-04-13T13:51:07Z</time>
      </trkpt>
      <trkpt lat="48.08997" lon="3.29031">
        <ele>67</ele>
        <time>2014-04-13T13:51:17Z</time>
      </trkpt>
      <trkpt lat="48.08991" lon="3.29033">
        <ele>67</ele>
        <time>2014-04-13T13:51:22Z</time>
      </trkpt>
      <trkpt lat="48.08982" lon="3.29039">
        <ele>67</ele>
        <time>2014-04-13T13:51:30Z</time>
      </trkpt>
      <trkpt lat="48.08977" lon="3.2904">
        <ele>67</ele>
        <time>2014-04-13T13:51:34Z</time>
      </trkpt>
      <trkpt lat="48.08971" lon="3.29042">
        <ele>67</ele>
        <time>2014-04-13T13:51:37Z</time>
      </trkpt>
      <trkpt lat="48.08966" lon="3.29044">
        <ele>67</ele>
        <time>2014-04-13T13:51:41Z</time>
      </trkpt>
      <trkpt lat="48.08963" lon="3.29048">
        <ele>67</ele>
        <time>2014-04-13T13:51:46Z</time>
      </trkpt>
      <trkpt lat="48.08958" lon="3.29051">
        <ele>67</ele>
        <time>2014-04-13T13:51:49Z</time>
      </trkpt>
      <trkpt lat="48.0895" lon="3.29059">
        <ele>67</ele>
        <time>2014-04-13T13:51:58Z</time>
      </trkpt>
      <trkpt lat="48.08945" lon="3.29061">
        <ele>67</ele>
        <time>2014-04-13T13:52:03Z</time>
      </trkpt>
      <trkpt lat="48.08941" lon="3.29066">
        <ele>67</ele>
        <time>2014-04-13T13:52:07Z</time>
      </trkpt>
      <trkpt lat="48.08935" lon="3.2907">
        <ele>67</ele>
        <time>2014-04-13T13:52:10Z</time>
      </trkpt>
      <trkpt lat="48.0893" lon="3.29072">
        <ele>67</ele>
        <time>2014-04-13T13:52:14Z</time>
      </trkpt>
      <trkpt lat="48.08925" lon="3.29072">
        <ele>67</ele>
        <time>2014-04-13T13:52:17Z</time>
      </trkpt>
      <trkpt lat="48.08921" lon="3.29075">
        <ele>67</ele>
        <time>2014-04-13T13:52:20Z</time>
      </trkpt>
      <trkpt lat="48.08917" lon="3.29079">
        <ele>67</ele>
        <time>2014-04-13T13:52:24Z</time>
      </trkpt>
      <trkpt lat="48.08912" lon="3.29082">
        <ele>67</ele>
        <time>2014-04-13T13:52:26Z</time>
      </trkpt>
      <trkpt lat="48.08907" lon="3.29084">
        <ele>67</ele>
        <time>2014-04-13T13:52:31Z</time>
      </trkpt>
      <trkpt lat="48.08899" lon="3.29092">
        <ele>67</ele>
        <time>2014-04-13T13:52:43Z</time>
      </trkpt>
      <trkpt lat="48.08885" lon="3.29098">
        <ele>67</ele>
        <time>2014-04-13T13:52:59Z</time>
      </trkpt>
      <trkpt lat="48.0888" lon="3.29098">
        <ele>67</ele>
        <time>2014-04-13T13:53:05Z</time>
      </trkpt>
      <trkpt lat="48.08868" lon="3.29112">
        <ele>67</ele>
        <time>2014-04-13T13:53:17Z</time>
      </trkpt>
      <trkpt lat="48.08863" lon="3.29115">
        <ele>67</ele>
        <time>2014-04-13T13:53:20Z</time>
      </trkpt>
      <trkpt lat="48.08858" lon="3.29117">
        <ele>67</ele>
        <time>2014-04-13T13:53:24Z</time>
      </trkpt>
      <trkpt lat="48.08853" lon="3.29119">
        <ele>67</ele>
        <time>2014-04-13T13:53:28Z</time>
      </trkpt>
      <trkpt lat="48.08843" lon="3.29126">
        <ele>67</ele>
        <time>2014-04-13T13:53:36Z</time>
      </trkpt>
      <trkpt lat="48.08835" lon="3.29134">
        <ele>67</ele>
        <time>2014-04-13T13:53:44Z</time>
      </trkpt>
      <trkpt lat="48.0883" lon="3.29138">
        <ele>67</ele>
        <time>2014-04-13T13:53:48Z</time>
      </trkpt>
      <trkpt lat="48.08824" lon="3.2914">
        <ele>67</ele>
        <time>2014-04-13T13:53:52Z</time>
      </trkpt>
      <trkpt lat="48.08819" lon="3.2914">
        <ele>67</ele>
        <time>2014-04-13T13:53:57Z</time>
      </trkpt>
      <trkpt lat="48.088" lon="3.2915">
        <ele>67</ele>
        <time>2014-04-13T13:54:14Z</time>
      </trkpt>
      <trkpt lat="48.08787" lon="3.2916">
        <ele>67</ele>
        <time>2014-04-13T13:54:28Z</time>
      </trkpt>
      <trkpt lat="48.08781" lon="3.29161">
        <ele>67</ele>
        <time>2014-04-13T13:54:32Z</time>
      </trkpt>
      <trkpt lat="48.08777" lon="3.29165">
        <ele>67</ele>
        <time>2014-04-13T13:54:35Z</time>
      </trkpt>
      <trkpt lat="48.08772" lon="3.29165">
        <ele>67</ele>
        <time>2014-04-13T13:54:39Z</time>
      </trkpt>
      <trkpt lat="48.08767" lon="3.29167">
        <ele>68</ele>
        <time>2014-04-13T13:54:44Z</time>
      </trkpt>
      <trkpt lat="48.08762" lon="3.29171">
        <ele>68</ele>
        <time>2014-04-13T13:54:49Z</time>
      </trkpt>
      <trkpt lat="48.08758" lon="3.29173">
        <ele>68</ele>
        <time>2014-04-13T13:54:52Z</time>
      </trkpt>
      <trkpt lat="48.08753" lon="3.29174">
        <ele>68</ele>
        <time>2014-04-13T13:54:56Z</time>
      </trkpt>
      <trkpt lat="48.08748" lon="3.29176">
        <ele>68</ele>
        <time>2014-04-13T13:55:00Z</time>
      </trkpt>
      <trkpt lat="48.08734" lon="3.29184">
        <ele>68</ele>
        <time>2014-04-13T13:55:11Z</time>
      </trkpt>
      <trkpt lat="48.0871" lon="3.29196">
        <ele>69</ele>
        <time>2014-04-13T13:55:31Z</time>
      </trkpt>
      <trkpt lat="48.08701" lon="3.29198">
        <ele>69</ele>
        <time>2014-04-13T13:55:39Z</time>
      </trkpt>
      <trkpt lat="48.08695" lon="3.292">
        <ele>69</ele>
        <time>2014-04-13T13:55:43Z</time>
      </trkpt>
      <trkpt lat="48.08691" lon="3.29204">
        <ele>69</ele>
        <time>2014-04-13T13:55:47Z</time>
      </trkpt>
      <trkpt lat="48.08686" lon="3.29207">
        <ele>69</ele>
        <time>2014-04-13T13:55:53Z</time>
      </trkpt>
      <trkpt lat="48.08681" lon="3.29208">
        <ele>69</ele>
        <time>2014-04-13T13:55:58Z</time>
      </trkpt>
      <trkpt lat="48.08667" lon="3.29215">
        <ele>69</ele>
        <time>2014-04-13T13:56:10Z</time>
      </trkpt>
      <trkpt lat="48.08662" lon="3.29215">
        <ele>68</ele>
        <time>2014-04-13T13:56:14Z</time>
      </trkpt>
      <trkpt lat="48.08657" lon="3.29217">
        <ele>68</ele>
        <time>2014-04-13T13:56:18Z</time>
      </trkpt>
      <trkpt lat="48.08644" lon="3.29231">
        <ele>69</ele>
        <time>2014-04-13T13:56:31Z</time>
      </trkpt>
      <trkpt lat="48.08635" lon="3.29236">
        <ele>68</ele>
        <time>2014-04-13T13:56:38Z</time>
      </trkpt>
      <trkpt lat="48.08627" lon="3.29236">
        <ele>68</ele>
        <time>2014-04-13T13:56:45Z</time>
      </trkpt>
      <trkpt lat="48.08622" lon="3.2924">
        <ele>68</ele>
        <time>2014-04-13T13:56:49Z</time>
      </trkpt>
      <trkpt lat="48.08614" lon="3.29249">
        <ele>68</ele>
        <time>2014-04-13T13:56:56Z</time>
      </trkpt>
      <trkpt lat="48.0861" lon="3.29251">
        <ele>69</ele>
        <time>2014-04-13T13:57:00Z</time>
      </trkpt>
      <trkpt lat="48.08605" lon="3.29251">
        <ele>69</ele>
        <time>2014-04-13T13:57:04Z</time>
      </trkpt>
      <trkpt lat="48.086" lon="3.29252">
        <ele>69</ele>
        <time>2014-04-13T13:57:08Z</time>
      </trkpt>
      <trkpt lat="48.08594" lon="3.2925">
        <ele>68</ele>
        <time>2014-04-13T13:57:12Z</time>
      </trkpt>
      <trkpt lat="48.08589" lon="3.29252">
        <ele>68</ele>
        <time>2014-04-13T13:57:19Z</time>
      </trkpt>
      <trkpt lat="48.08584" lon="3.29252">
        <ele>68</ele>
        <time>2014-04-13T13:57:23Z</time>
      </trkpt>
      <trkpt lat="48.08574" lon="3.29254">
        <ele>68</ele>
        <time>2014-04-13T13:57:31Z</time>
      </trkpt>
      <trkpt lat="48.0857" lon="3.29257">
        <ele>68</ele>
        <time>2014-04-13T13:57:35Z</time>
      </trkpt>
      <trkpt lat="48.08566" lon="3.29261">
        <ele>68</ele>
        <time>2014-04-13T13:57:40Z</time>
      </trkpt>
      <trkpt lat="48.08561" lon="3.29264">
        <ele>68</ele>
        <time>2014-04-13T13:57:45Z</time>
      </trkpt>
      <trkpt lat="48.08556" lon="3.29266">
        <ele>68</ele>
        <time>2014-04-13T13:57:49Z</time>
      </trkpt>
      <trkpt lat="48.08551" lon="3.29269">
        <ele>68</ele>
        <time>2014-04-13T13:57:53Z</time>
      </trkpt>
      <trkpt lat="48.08547" lon="3.29273">
        <ele>68</ele>
        <time>2014-04-13T13:57:57Z</time>
      </trkpt>
      <trkpt lat="48.08543" lon="3.29276">
        <ele>68</ele>
        <time>2014-04-13T13:58:01Z</time>
      </trkpt>
      <trkpt lat="48.0854" lon="3.29276">
        <ele>68</ele>
        <time>2014-04-13T13:58:07Z</time>
      </trkpt>
      <trkpt lat="48.08535" lon="3.2928">
        <ele>68</ele>
        <time>2014-04-13T13:58:12Z</time>
      </trkpt>
      <trkpt lat="48.0853" lon="3.29282">
        <ele>68</ele>
        <time>2014-04-13T13:58:17Z</time>
      </trkpt>
      <trkpt lat="48.08521" lon="3.29289">
        <ele>69</ele>
        <time>2014-04-13T13:58:24Z</time>
      </trkpt>
      <trkpt lat="48.08516" lon="3.2929">
        <ele>69</ele>
        <time>2014-04-13T13:58:28Z</time>
      </trkpt>
      <trkpt lat="48.08511" lon="3.29292">
        <ele>69</ele>
        <time>2014-04-13T13:58:33Z</time>
      </trkpt>
      <trkpt lat="48.08495" lon="3.29301">
        <ele>68</ele>
        <time>2014-04-13T13:58:49Z</time>
      </trkpt>
      <trkpt lat="48.08491" lon="3.29304">
        <ele>69</ele>
        <time>2014-04-13T13:58:53Z</time>
      </trkpt>
      <trkpt lat="48.08486" lon="3.29304">
        <ele>69</ele>
        <time>2014-04-13T13:58:57Z</time>
      </trkpt>
      <trkpt lat="48.08481" lon="3.29307">
        <ele>69</ele>
        <time>2014-04-13T13:59:01Z</time>
      </trkpt>
      <trkpt lat="48.08476" lon="3.29308">
        <ele>69</ele>
        <time>2014-04-13T13:59:05Z</time>
      </trkpt>
      <trkpt lat="48.08471" lon="3.2931">
        <ele>68</ele>
        <time>2014-04-13T13:59:09Z</time>
      </trkpt>
      <trkpt lat="48.08465" lon="3.29311">
        <ele>68</ele>
        <time>2014-04-13T13:59:13Z</time>
      </trkpt>
      <trkpt lat="48.0846" lon="3.29313">
        <ele>68</ele>
        <time>2014-04-13T13:59:18Z</time>
      </trkpt>
      <trkpt lat="48.08456" lon="3.29318">
        <ele>68</ele>
        <time>2014-04-13T13:59:22Z</time>
      </trkpt>
      <trkpt lat="48.08451" lon="3.2932">
        <ele>68</ele>
        <time>2014-04-13T13:59:29Z</time>
      </trkpt>
      <trkpt lat="48.08446" lon="3.29318">
        <ele>68</ele>
        <time>2014-04-13T13:59:34Z</time>
      </trkpt>
      <trkpt lat="48.0844" lon="3.29317">
        <ele>68</ele>
        <time>2014-04-13T13:59:38Z</time>
      </trkpt>
      <trkpt lat="48.08429" lon="3.29319">
        <ele>68</ele>
        <time>2014-04-13T13:59:47Z</time>
      </trkpt>
      <trkpt lat="48.08418" lon="3.29318">
        <ele>68</ele>
        <time>2014-04-13T13:59:55Z</time>
      </trkpt>
      <trkpt lat="48.08412" lon="3.29319">
        <ele>69</ele>
        <time>2014-04-13T13:59:59Z</time>
      </trkpt>
      <trkpt lat="48.08407" lon="3.29321">
        <ele>69</ele>
        <time>2014-04-13T14:00:03Z</time>
      </trkpt>
      <trkpt lat="48.08402" lon="3.29322">
        <ele>69</ele>
        <time>2014-04-13T14:00:07Z</time>
      </trkpt>
      <trkpt lat="48.08397" lon="3.29321">
        <ele>69</ele>
        <time>2014-04-13T14:00:11Z</time>
      </trkpt>
      <trkpt lat="48.08392" lon="3.2932">
        <ele>69</ele>
        <time>2014-04-13T14:00:14Z</time>
      </trkpt>
      <trkpt lat="48.08388" lon="3.29321">
        <ele>69</ele>
        <time>2014-04-13T14:00:20Z</time>
      </trkpt>
      <trkpt lat="48.08382" lon="3.29321">
        <ele>70</ele>
        <time>2014-04-13T14:00:24Z</time>
      </trkpt>
      <trkpt lat="48.08377" lon="3.29321">
        <ele>70</ele>
        <time>2014-04-13T14:00:28Z</time>
      </trkpt>
      <trkpt lat="48.08372" lon="3.2932">
        <ele>70</ele>
        <time>2014-04-13T14:00:32Z</time>
      </trkpt>
      <trkpt lat="48.08367" lon="3.29319">
        <ele>70</ele>
        <time>2014-04-13T14:00:37Z</time>
      </trkpt>
      <trkpt lat="48.08362" lon="3.29322">
        <ele>70</ele>
        <time>2014-04-13T14:00:41Z</time>
      </trkpt>
      <trkpt lat="48.08356" lon="3.29322">
        <ele>70</ele>
        <time>2014-04-13T14:00:45Z</time>
      </trkpt>
      <trkpt lat="48.08351" lon="3.29319">
        <ele>70</ele>
        <time>2014-04-13T14:00:49Z</time>
      </trkpt>
      <trkpt lat="48.08345" lon="3.29317">
        <ele>70</ele>
        <time>2014-04-13T14:00:53Z</time>
      </trkpt>
      <trkpt lat="48.0834" lon="3.29314">
        <ele>70</ele>
        <time>2014-04-13T14:00:57Z</time>
      </trkpt>
      <trkpt lat="48.08336" lon="3.29313">
        <ele>70</ele>
        <time>2014-04-13T14:01:01Z</time>
      </trkpt>
      <trkpt lat="48.08326" lon="3.29309">
        <ele>71</ele>
        <time>2014-04-13T14:01:10Z</time>
      </trkpt>
      <trkpt lat="48.08322" lon="3.29306">
        <ele>72</ele>
        <time>2014-04-13T14:01:15Z</time>
      </trkpt>
      <trkpt lat="48.08317" lon="3.29305">
        <ele>72</ele>
        <time>2014-04-13T14:01:19Z</time>
      </trkpt>
      <trkpt lat="48.08307" lon="3.29305">
        <ele>72</ele>
        <time>2014-04-13T14:01:27Z</time>
      </trkpt>
      <trkpt lat="48.08298" lon="3.29301">
        <ele>72</ele>
        <time>2014-04-13T14:01:35Z</time>
      </trkpt>
      <trkpt lat="48.08287" lon="3.29298">
        <ele>72</ele>
        <time>2014-04-13T14:01:45Z</time>
      </trkpt>
      <trkpt lat="48.08281" lon="3.29294">
        <ele>72</ele>
        <time>2014-04-13T14:01:50Z</time>
      </trkpt>
      <trkpt lat="48.08275" lon="3.29295">
        <ele>72</ele>
        <time>2014-04-13T14:02:05Z</time>
      </trkpt>
      <trkpt lat="48.08271" lon="3.29291">
        <ele>72</ele>
        <time>2014-04-13T14:02:10Z</time>
      </trkpt>
      <trkpt lat="48.08267" lon="3.29295">
        <ele>72</ele>
        <time>2014-04-13T14:02:14Z</time>
      </trkpt>
      <trkpt lat="48.08262" lon="3.29295">
        <ele>72</ele>
        <time>2014-04-13T14:02:18Z</time>
      </trkpt>
      <trkpt lat="48.08259" lon="3.29303">
        <ele>72</ele>
        <time>2014-04-13T14:02:23Z</time>
      </trkpt>
      <trkpt lat="48.08257" lon="3.29302">
        <ele>72</ele>
        <time>2014-04-13T14:02:29Z</time>
      </trkpt>
      <trkpt lat="48.08255" lon="3.29295">
        <ele>72</ele>
        <time>2014-04-13T14:02:33Z</time>
      </trkpt>
      <trkpt lat="48.08249" lon="3.29294">
        <ele>73</ele>
        <time>2014-04-13T14:02:39Z</time>
      </trkpt>
      <trkpt lat="48.08245" lon="3.29293">
        <ele>73</ele>
        <time>2014-04-13T14:02:43Z</time>
      </trkpt>
      <trkpt lat="48.08236" lon="3.29289">
        <ele>73</ele>
        <time>2014-04-13T14:02:52Z</time>
      </trkpt>
      <trkpt lat="48.08228" lon="3.29288">
        <ele>73</ele>
        <time>2014-04-13T14:03:05Z</time>
      </trkpt>
      <trkpt lat="48.08224" lon="3.29282">
        <ele>73</ele>
        <time>2014-04-13T14:03:14Z</time>
      </trkpt>
      <trkpt lat="48.08218" lon="3.29292">
        <ele>73</ele>
        <time>2014-04-13T14:03:33Z</time>
      </trkpt>
      <trkpt lat="48.08216" lon="3.29298">
        <ele>73</ele>
        <time>2014-04-13T14:03:37Z</time>
      </trkpt>
      <trkpt lat="48.08215" lon="3.29305">
        <ele>73</ele>
        <time>2014-04-13T14:03:43Z</time>
      </trkpt>
      <trkpt lat="48.08201" lon="3.29327">
        <ele>74</ele>
        <time>2014-04-13T14:04:04Z</time>
      </trkpt>
      <trkpt lat="48.08208" lon="3.2934">
        <ele>75</ele>
        <time>2014-04-13T14:04:11Z</time>
      </trkpt>
      <trkpt lat="48.08221" lon="3.29383">
        <ele>76</ele>
        <time>2014-04-13T14:04:30Z</time>
      </trkpt>
      <trkpt lat="48.08216" lon="3.2939">
        <ele>76</ele>
        <time>2014-04-13T14:04:34Z</time>
      </trkpt>
      <trkpt lat="48.08209" lon="3.29399">
        <ele>76</ele>
        <time>2014-04-13T14:04:44Z</time>
      </trkpt>
      <trkpt lat="48.08204" lon="3.29402">
        <ele>77</ele>
        <time>2014-04-13T14:04:48Z</time>
      </trkpt>
      <trkpt lat="48.08202" lon="3.29407">
        <ele>77</ele>
        <time>2014-04-13T14:04:57Z</time>
      </trkpt>
      <trkpt lat="48.08201" lon="3.29413">
        <ele>77</ele>
        <time>2014-04-13T14:05:03Z</time>
      </trkpt>
      <trkpt lat="48.08196" lon="3.29416">
        <ele>77</ele>
        <time>2014-04-13T14:05:17Z</time>
      </trkpt>
      <trkpt lat="48.08192" lon="3.29419">
        <ele>78</ele>
        <time>2014-04-13T14:05:20Z</time>
      </trkpt>
      <trkpt lat="48.08193" lon="3.29423">
        <ele>78</ele>
        <time>2014-04-13T14:05:32Z</time>
      </trkpt>
      <trkpt lat="48.08196" lon="3.29429">
        <ele>78</ele>
        <time>2014-04-13T14:05:37Z</time>
      </trkpt>
      <trkpt lat="48.08192" lon="3.29426">
        <ele>78</ele>
        <time>2014-04-13T14:06:20Z</time>
      </trkpt>
      <trkpt lat="48.08188" lon="3.29429">
        <ele>78</ele>
        <time>2014-04-13T14:06:25Z</time>
      </trkpt>
      <trkpt lat="48.08183" lon="3.2943">
        <ele>79</ele>
        <time>2014-04-13T14:06:29Z</time>
      </trkpt>
      <trkpt lat="48.08178" lon="3.29426">
        <ele>79</ele>
        <time>2014-04-13T14:06:32Z</time>
      </trkpt>
      <trkpt lat="48.08174" lon="3.29421">
        <ele>79</ele>
        <time>2014-04-13T14:06:34Z</time>
      </trkpt>
      <trkpt lat="48.0817" lon="3.29417">
        <ele>79</ele>
        <time>2014-04-13T14:06:37Z</time>
      </trkpt>
      <trkpt lat="48.08165" lon="3.29418">
        <ele>79</ele>
        <time>2014-04-13T14:06:45Z</time>
      </trkpt>
      <trkpt lat="48.08164" lon="3.29413">
        <ele>79</ele>
        <time>2014-04-13T14:06:56Z</time>
      </trkpt>
      <trkpt lat="48.08158" lon="3.29414">
        <ele>78</ele>
        <time>2014-04-13T14:07:00Z</time>
      </trkpt>
      <trkpt lat="48.08154" lon="3.29416">
        <ele>78</ele>
        <time>2014-04-13T14:07:04Z</time>
      </trkpt>
      <trkpt lat="48.08157" lon="3.2941">
        <ele>78</ele>
        <time>2014-04-13T14:08:25Z</time>
      </trkpt>
      <trkpt lat="48.08153" lon="3.29407">
        <ele>78</ele>
        <time>2014-04-13T14:08:33Z</time>
      </trkpt>
      <trkpt lat="48.08148" lon="3.29412">
        <ele>78</ele>
        <time>2014-04-13T14:08:37Z</time>
      </trkpt>
      <trkpt lat="48.0814" lon="3.29418">
        <ele>79</ele>
        <time>2014-04-13T14:08:56Z</time>
      </trkpt>
      <trkpt lat="48.08145" lon="3.29422">
        <ele>79</ele>
        <time>2014-04-13T14:09:03Z</time>
      </trkpt>
      <trkpt lat="48.08149" lon="3.29426">
        <ele>79</ele>
        <time>2014-04-13T14:09:23Z</time>
      </trkpt>
      <trkpt lat="48.08154" lon="3.29427">
        <ele>79</ele>
        <time>2014-04-13T14:09:29Z</time>
      </trkpt>
      <trkpt lat="48.08161" lon="3.29422">
        <ele>79</ele>
        <time>2014-04-13T14:09:36Z</time>
      </trkpt>
      <trkpt lat="48.08164" lon="3.29422">
        <ele>79</ele>
        <time>2014-04-13T14:09:43Z</time>
      </trkpt>
      <trkpt lat="48.08181" lon="3.29414">
        <ele>78</ele>
        <time>2014-04-13T14:09:50Z</time>
      </trkpt>
      <trkpt lat="48.08185" lon="3.29412">
        <ele>77</ele>
        <time>2014-04-13T14:09:52Z</time>
      </trkpt>
      <trkpt lat="48.08188" lon="3.29413">
        <ele>77</ele>
        <time>2014-04-13T14:09:59Z</time>
      </trkpt>
      <trkpt lat="48.08186" lon="3.2943">
        <ele>79</ele>
        <time>2014-04-13T14:10:05Z</time>
      </trkpt>
      <trkpt lat="48.08187" lon="3.29459">
        <ele>79</ele>
        <time>2014-04-13T14:10:19Z</time>
      </trkpt>
      <trkpt lat="48.0819" lon="3.29474">
        <ele>79</ele>
        <time>2014-04-13T14:10:24Z</time>
      </trkpt>
      <trkpt lat="48.08187" lon="3.29487">
        <ele>79</ele>
        <time>2014-04-13T14:10:31Z</time>
      </trkpt>
      <trkpt lat="48.08181" lon="3.29484">
        <ele>79</ele>
        <time>2014-04-13T14:11:55Z</time>
      </trkpt>
      <trkpt lat="48.08185" lon="3.29468">
        <ele>79</ele>
        <time>2014-04-13T14:12:14Z</time>
      </trkpt>
      <trkpt lat="48.08175" lon="3.29465">
        <ele>79</ele>
        <time>2014-04-13T14:12:24Z</time>
      </trkpt>
      <trkpt lat="48.08176" lon="3.29484">
        <ele>80</ele>
        <time>2014-04-13T14:12:30Z</time>
      </trkpt>
      <trkpt lat="48.08178" lon="3.29492">
        <ele>80</ele>
        <time>2014-04-13T14:12:33Z</time>
      </trkpt>
      <trkpt lat="48.08182" lon="3.29498">
        <ele>80</ele>
        <time>2014-04-13T14:12:36Z</time>
      </trkpt>
      <trkpt lat="48.08182" lon="3.29506">
        <ele>80</ele>
        <time>2014-04-13T14:12:42Z</time>
      </trkpt>
      <trkpt lat="48.08184" lon="3.29514">
        <ele>80</ele>
        <time>2014-04-13T14:12:46Z</time>
      </trkpt>
      <trkpt lat="48.08182" lon="3.29522">
        <ele>80</ele>
        <time>2014-04-13T14:12:50Z</time>
      </trkpt>
      <trkpt lat="48.08177" lon="3.29527">
        <ele>80</ele>
        <time>2014-04-13T14:12:53Z</time>
      </trkpt>
      <trkpt lat="48.08174" lon="3.29531">
        <ele>80</ele>
        <time>2014-04-13T14:12:58Z</time>
      </trkpt>
      <trkpt lat="48.08169" lon="3.29533">
        <ele>80</ele>
        <time>2014-04-13T14:13:04Z</time>
      </trkpt>
      <trkpt lat="48.08169" lon="3.2953">
        <ele>80</ele>
        <time>2014-04-13T14:13:35Z</time>
      </trkpt>
      <trkpt lat="48.08172" lon="3.29516">
        <ele>80</ele>
        <time>2014-04-13T14:13:47Z</time>
      </trkpt>
      <trkpt lat="48.08175" lon="3.29509">
        <ele>80</ele>
        <time>2014-04-13T14:13:53Z</time>
      </trkpt>
      <trkpt lat="48.08176" lon="3.29506">
        <ele>80</ele>
        <time>2014-04-13T14:14:04Z</time>
      </trkpt>
      <trkpt lat="48.08177" lon="3.29499">
        <ele>80</ele>
        <time>2014-04-13T14:14:09Z</time>
      </trkpt>
      <trkpt lat="48.08179" lon="3.29493">
        <ele>80</ele>
        <time>2014-04-13T14:14:12Z</time>
      </trkpt>
      <trkpt lat="48.08181" lon="3.29486">
        <ele>79</ele>
        <time>2014-04-13T14:14:15Z</time>
      </trkpt>
      <trkpt lat="48.08171" lon="3.29525">
        <ele>80</ele>
        <time>2014-04-13T14:33:53Z</time>
      </trkpt>
      <trkpt lat="48.0817" lon="3.29533">
        <ele>80</ele>
        <time>2014-04-13T14:33:59Z</time>
      </trkpt>
      <trkpt lat="48.08175" lon="3.29549">
        <ele>79</ele>
        <time>2014-04-13T14:34:08Z</time>
      </trkpt>
      <trkpt lat="48.0818" lon="3.29553">
        <ele>79</ele>
        <time>2014-04-13T14:34:12Z</time>
      </trkpt>
      <trkpt lat="48.08184" lon="3.29558">
        <ele>79</ele>
        <time>2014-04-13T14:34:16Z</time>
      </trkpt>
      <trkpt lat="48.08189" lon="3.29561">
        <ele>79</ele>
        <time>2014-04-13T14:34:18Z</time>
      </trkpt>
      <trkpt lat="48.08186" lon="3.29567">
        <ele>79</ele>
        <time>2014-04-13T14:34:24Z</time>
      </trkpt>
      <trkpt lat="48.08183" lon="3.29574">
        <ele>79</ele>
        <time>2014-04-13T14:34:27Z</time>
      </trkpt>
      <trkpt lat="48.08178" lon="3.29599">
        <ele>79</ele>
        <time>2014-04-13T14:34:38Z</time>
      </trkpt>
      <trkpt lat="48.08171" lon="3.29611">
        <ele>79</ele>
        <time>2014-04-13T14:34:44Z</time>
      </trkpt>
      <trkpt lat="48.0817" lon="3.29619">
        <ele>79</ele>
        <time>2014-04-13T14:34:48Z</time>
      </trkpt>
      <trkpt lat="48.08169" lon="3.29626">
        <ele>80</ele>
        <time>2014-04-13T14:34:52Z</time>
      </trkpt>
      <trkpt lat="48.08167" lon="3.29634">
        <ele>80</ele>
        <time>2014-04-13T14:34:56Z</time>
      </trkpt>
      <trkpt lat="48.08166" lon="3.29641">
        <ele>79</ele>
        <time>2014-04-13T14:35:00Z</time>
      </trkpt>
      <trkpt lat="48.08162" lon="3.29663">
        <ele>80</ele>
        <time>2014-04-13T14:35:12Z</time>
      </trkpt>
      <trkpt lat="48.08167" lon="3.29685">
        <ele>80</ele>
        <time>2014-04-13T14:35:22Z</time>
      </trkpt>
      <trkpt lat="48.0817" lon="3.29692">
        <ele>80</ele>
        <time>2014-04-13T14:35:26Z</time>
      </trkpt>
      <trkpt lat="48.08168" lon="3.29707">
        <ele>80</ele>
        <time>2014-04-13T14:35:34Z</time>
      </trkpt>
      <trkpt lat="48.0817" lon="3.29715">
        <ele>80</ele>
        <time>2014-04-13T14:35:37Z</time>
      </trkpt>
      <trkpt lat="48.08169" lon="3.29722">
        <ele>80</ele>
        <time>2014-04-13T14:35:41Z</time>
      </trkpt>
      <trkpt lat="48.08165" lon="3.29727">
        <ele>80</ele>
        <time>2014-04-13T14:35:44Z</time>
      </trkpt>
      <trkpt lat="48.08162" lon="3.29733">
        <ele>80</ele>
        <time>2014-04-13T14:35:48Z</time>
      </trkpt>
      <trkpt lat="48.0816" lon="3.29741">
        <ele>80</ele>
        <time>2014-04-13T14:35:52Z</time>
      </trkpt>
      <trkpt lat="48.08161" lon="3.29749">
        <ele>81</ele>
        <time>2014-04-13T14:35:56Z</time>
      </trkpt>
      <trkpt lat="48.08163" lon="3.29756">
        <ele>81</ele>
        <time>2014-04-13T14:36:00Z</time>
      </trkpt>
      <trkpt lat="48.08162" lon="3.29763">
        <ele>80</ele>
        <time>2014-04-13T14:36:05Z</time>
      </trkpt>
      <trkpt lat="48.08159" lon="3.2977">
        <ele>80</ele>
        <time>2014-04-13T14:36:10Z</time>
      </trkpt>
      <trkpt lat="48.08158" lon="3.29777">
        <ele>80</ele>
        <time>2014-04-13T14:36:14Z</time>
      </trkpt>
      <trkpt lat="48.08156" lon="3.29783">
        <ele>80</ele>
        <time>2014-04-13T14:36:18Z</time>
      </trkpt>
      <trkpt lat="48.08155" lon="3.29791">
        <ele>80</ele>
        <time>2014-04-13T14:36:22Z</time>
      </trkpt>
      <trkpt lat="48.08153" lon="3.29836">
        <ele>80</ele>
        <time>2014-04-13T14:36:45Z</time>
      </trkpt>
      <trkpt lat="48.08154" lon="3.29844">
        <ele>80</ele>
        <time>2014-04-13T14:36:50Z</time>
      </trkpt>
      <trkpt lat="48.08155" lon="3.29851">
        <ele>80</ele>
        <time>2014-04-13T14:36:53Z</time>
      </trkpt>
      <trkpt lat="48.08156" lon="3.29859">
        <ele>80</ele>
        <time>2014-04-13T14:36:57Z</time>
      </trkpt>
      <trkpt lat="48.08155" lon="3.29866">
        <ele>80</ele>
        <time>2014-04-13T14:37:01Z</time>
      </trkpt>
      <trkpt lat="48.08156" lon="3.29874">
        <ele>80</ele>
        <time>2014-04-13T14:37:05Z</time>
      </trkpt>
      <trkpt lat="48.08155" lon="3.29882">
        <ele>80</ele>
        <time>2014-04-13T14:37:09Z</time>
      </trkpt>
      <trkpt lat="48.08146" lon="3.29896">
        <ele>80</ele>
        <time>2014-04-13T14:37:17Z</time>
      </trkpt>
      <trkpt lat="48.08134" lon="3.2992">
        <ele>80</ele>
        <time>2014-04-13T14:37:32Z</time>
      </trkpt>
      <trkpt lat="48.08125" lon="3.29925">
        <ele>80</ele>
        <time>2014-04-13T14:37:39Z</time>
      </trkpt>
      <trkpt lat="48.0812" lon="3.29926">
        <ele>80</ele>
        <time>2014-04-13T14:37:43Z</time>
      </trkpt>
      <trkpt lat="48.08115" lon="3.2993">
        <ele>79</ele>
        <time>2014-04-13T14:37:47Z</time>
      </trkpt>
      <trkpt lat="48.08111" lon="3.29935">
        <ele>79</ele>
        <time>2014-04-13T14:37:50Z</time>
      </trkpt>
      <trkpt lat="48.08106" lon="3.29938">
        <ele>79</ele>
        <time>2014-04-13T14:37:54Z</time>
      </trkpt>
      <trkpt lat="48.08101" lon="3.2994">
        <ele>79</ele>
        <time>2014-04-13T14:37:57Z</time>
      </trkpt>
      <trkpt lat="48.08097" lon="3.29944">
        <ele>79</ele>
        <time>2014-04-13T14:38:00Z</time>
      </trkpt>
      <trkpt lat="48.08092" lon="3.29944">
        <ele>79</ele>
        <time>2014-04-13T14:38:04Z</time>
      </trkpt>
      <trkpt lat="48.08087" lon="3.29938">
        <ele>79</ele>
        <time>2014-04-13T14:38:08Z</time>
      </trkpt>
      <trkpt lat="48.08082" lon="3.29937">
        <ele>79</ele>
        <time>2014-04-13T14:38:12Z</time>
      </trkpt>
      <trkpt lat="48.08076" lon="3.29939">
        <ele>79</ele>
        <time>2014-04-13T14:38:16Z</time>
      </trkpt>
      <trkpt lat="48.08072" lon="3.29939">
        <ele>79</ele>
        <time>2014-04-13T14:38:21Z</time>
      </trkpt>
      <trkpt lat="48.08067" lon="3.29935">
        <ele>79</ele>
        <time>2014-04-13T14:38:25Z</time>
      </trkpt>
      <trkpt lat="48.08056" lon="3.29934">
        <ele>79</ele>
        <time>2014-04-13T14:38:33Z</time>
      </trkpt>
      <trkpt lat="48.08051" lon="3.2993">
        <ele>79</ele>
        <time>2014-04-13T14:38:36Z</time>
      </trkpt>
      <trkpt lat="48.08045" lon="3.29918">
        <ele>79</ele>
        <time>2014-04-13T14:38:44Z</time>
      </trkpt>
      <trkpt lat="48.08035" lon="3.29911">
        <ele>79</ele>
        <time>2014-04-13T14:38:51Z</time>
      </trkpt>
      <trkpt lat="48.08028" lon="3.29906">
        <ele>79</ele>
        <time>2014-04-13T14:38:59Z</time>
      </trkpt>
      <trkpt lat="48.08022" lon="3.29909">
        <ele>79</ele>
        <time>2014-04-13T14:39:02Z</time>
      </trkpt>
      <trkpt lat="48.08018" lon="3.29913">
        <ele>79</ele>
        <time>2014-04-13T14:39:04Z</time>
      </trkpt>
      <trkpt lat="48.08013" lon="3.29915">
        <ele>79</ele>
        <time>2014-04-13T14:39:07Z</time>
      </trkpt>
      <trkpt lat="48.08008" lon="3.29912">
        <ele>79</ele>
        <time>2014-04-13T14:39:11Z</time>
      </trkpt>
      <trkpt lat="48.08003" lon="3.29907">
        <ele>79</ele>
        <time>2014-04-13T14:39:15Z</time>
      </trkpt>
      <trkpt lat="48.07999" lon="3.29904">
        <ele>79</ele>
        <time>2014-04-13T14:39:19Z</time>
      </trkpt>
      <trkpt lat="48.07993" lon="3.29904">
        <ele>79</ele>
        <time>2014-04-13T14:39:24Z</time>
      </trkpt>
      <trkpt lat="48.07989" lon="3.29906">
        <ele>79</ele>
        <time>2014-04-13T14:39:28Z</time>
      </trkpt>
      <trkpt lat="48.07985" lon="3.2991">
        <ele>79</ele>
        <time>2014-04-13T14:39:30Z</time>
      </trkpt>
      <trkpt lat="48.0798" lon="3.29915">
        <ele>79</ele>
        <time>2014-04-13T14:39:34Z</time>
      </trkpt>
      <trkpt lat="48.07976" lon="3.29918">
        <ele>80</ele>
        <time>2014-04-13T14:39:38Z</time>
      </trkpt>
      <trkpt lat="48.07972" lon="3.2992">
        <ele>80</ele>
        <time>2014-04-13T14:39:42Z</time>
      </trkpt>
      <trkpt lat="48.07962" lon="3.29921">
        <ele>80</ele>
        <time>2014-04-13T14:39:50Z</time>
      </trkpt>
      <trkpt lat="48.07956" lon="3.29919">
        <ele>80</ele>
        <time>2014-04-13T14:39:54Z</time>
      </trkpt>
      <trkpt lat="48.07952" lon="3.29916">
        <ele>79</ele>
        <time>2014-04-13T14:39:58Z</time>
      </trkpt>
      <trkpt lat="48.07947" lon="3.29916">
        <ele>79</ele>
        <time>2014-04-13T14:40:01Z</time>
      </trkpt>
      <trkpt lat="48.07943" lon="3.29915">
        <ele>79</ele>
        <time>2014-04-13T14:40:04Z</time>
      </trkpt>
      <trkpt lat="48.07938" lon="3.29912">
        <ele>79</ele>
        <time>2014-04-13T14:40:09Z</time>
      </trkpt>
      <trkpt lat="48.07934" lon="3.29909">
        <ele>79</ele>
        <time>2014-04-13T14:40:12Z</time>
      </trkpt>
      <trkpt lat="48.07925" lon="3.29903">
        <ele>79</ele>
        <time>2014-04-13T14:40:19Z</time>
      </trkpt>
      <trkpt lat="48.0792" lon="3.29901">
        <ele>79</ele>
        <time>2014-04-13T14:40:24Z</time>
      </trkpt>
      <trkpt lat="48.07913" lon="3.299">
        <ele>79</ele>
        <time>2014-04-13T14:40:27Z</time>
      </trkpt>
      <trkpt lat="48.07907" lon="3.29899">
        <ele>79</ele>
        <time>2014-04-13T14:40:30Z</time>
      </trkpt>
      <trkpt lat="48.07903" lon="3.29896">
        <ele>79</ele>
        <time>2014-04-13T14:40:33Z</time>
      </trkpt>
      <trkpt lat="48.07889" lon="3.29884">
        <ele>79</ele>
        <time>2014-04-13T14:40:46Z</time>
      </trkpt>
      <trkpt lat="48.07884" lon="3.29882">
        <ele>79</ele>
        <time>2014-04-13T14:40:49Z</time>
      </trkpt>
      <trkpt lat="48.07879" lon="3.29883">
        <ele>79</ele>
        <time>2014-04-13T14:40:52Z</time>
      </trkpt>
      <trkpt lat="48.07875" lon="3.29881">
        <ele>79</ele>
        <time>2014-04-13T14:40:56Z</time>
      </trkpt>
      <trkpt lat="48.07873" lon="3.29873">
        <ele>79</ele>
        <time>2014-04-13T14:40:59Z</time>
      </trkpt>
      <trkpt lat="48.07869" lon="3.29869">
        <ele>79</ele>
        <time>2014-04-13T14:41:03Z</time>
      </trkpt>
      <trkpt lat="48.07864" lon="3.2987">
        <ele>79</ele>
        <time>2014-04-13T14:41:07Z</time>
      </trkpt>
      <trkpt lat="48.07858" lon="3.29873">
        <ele>79</ele>
        <time>2014-04-13T14:41:11Z</time>
      </trkpt>
      <trkpt lat="48.07852" lon="3.29873">
        <ele>79</ele>
        <time>2014-04-13T14:41:15Z</time>
      </trkpt>
      <trkpt lat="48.07844" lon="3.29864">
        <ele>79</ele>
        <time>2014-04-13T14:41:23Z</time>
      </trkpt>
      <trkpt lat="48.07841" lon="3.2986">
        <ele>79</ele>
        <time>2014-04-13T14:41:26Z</time>
      </trkpt>
      <trkpt lat="48.07836" lon="3.29858">
        <ele>79</ele>
        <time>2014-04-13T14:41:29Z</time>
      </trkpt>
      <trkpt lat="48.07826" lon="3.29858">
        <ele>80</ele>
        <time>2014-04-13T14:41:35Z</time>
      </trkpt>
      <trkpt lat="48.07821" lon="3.29857">
        <ele>80</ele>
        <time>2014-04-13T14:41:40Z</time>
      </trkpt>
      <trkpt lat="48.07816" lon="3.29855">
        <ele>80</ele>
        <time>2014-04-13T14:41:45Z</time>
      </trkpt>
      <trkpt lat="48.07811" lon="3.29856">
        <ele>80</ele>
        <time>2014-04-13T14:41:49Z</time>
      </trkpt>
      <trkpt lat="48.07806" lon="3.29853">
        <ele>80</ele>
        <time>2014-04-13T14:41:53Z</time>
      </trkpt>
      <trkpt lat="48.07802" lon="3.2985">
        <ele>80</ele>
        <time>2014-04-13T14:41:57Z</time>
      </trkpt>
      <trkpt lat="48.07797" lon="3.29849">
        <ele>81</ele>
        <time>2014-04-13T14:42:01Z</time>
      </trkpt>
      <trkpt lat="48.07794" lon="3.29843">
        <ele>81</ele>
        <time>2014-04-13T14:42:05Z</time>
      </trkpt>
      <trkpt lat="48.07789" lon="3.29838">
        <ele>81</ele>
        <time>2014-04-13T14:42:09Z</time>
      </trkpt>
      <trkpt lat="48.07771" lon="3.29826">
        <ele>80</ele>
        <time>2014-04-13T14:42:23Z</time>
      </trkpt>
      <trkpt lat="48.07767" lon="3.29825">
        <ele>80</ele>
        <time>2014-04-13T14:42:28Z</time>
      </trkpt>
      <trkpt lat="48.07762" lon="3.29821">
        <ele>80</ele>
        <time>2014-04-13T14:42:33Z</time>
      </trkpt>
      <trkpt lat="48.07758" lon="3.29816">
        <ele>80</ele>
        <time>2014-04-13T14:42:38Z</time>
      </trkpt>
      <trkpt lat="48.07753" lon="3.29815">
        <ele>80</ele>
        <time>2014-04-13T14:42:42Z</time>
      </trkpt>
      <trkpt lat="48.07749" lon="3.29818">
        <ele>81</ele>
        <time>2014-04-13T14:42:47Z</time>
      </trkpt>
      <trkpt lat="48.07745" lon="3.29832">
        <ele>82</ele>
        <time>2014-04-13T14:42:56Z</time>
      </trkpt>
      <trkpt lat="48.07738" lon="3.29842">
        <ele>83</ele>
        <time>2014-04-13T14:43:03Z</time>
      </trkpt>
      <trkpt lat="48.07723" lon="3.2987">
        <ele>84</ele>
        <time>2014-04-13T14:43:22Z</time>
      </trkpt>
      <trkpt lat="48.07719" lon="3.29875">
        <ele>84</ele>
        <time>2014-04-13T14:43:26Z</time>
      </trkpt>
      <trkpt lat="48.07711" lon="3.29893">
        <ele>84</ele>
        <time>2014-04-13T14:43:39Z</time>
      </trkpt>
      <trkpt lat="48.07707" lon="3.29899">
        <ele>84</ele>
        <time>2014-04-13T14:43:43Z</time>
      </trkpt>
      <trkpt lat="48.07702" lon="3.29912">
        <ele>85</ele>
        <time>2014-04-13T14:43:50Z</time>
      </trkpt>
      <trkpt lat="48.07699" lon="3.29918">
        <ele>87</ele>
        <time>2014-04-13T14:43:54Z</time>
      </trkpt>
      <trkpt lat="48.07695" lon="3.29923">
        <ele>87</ele>
        <time>2014-04-13T14:43:59Z</time>
      </trkpt>
      <trkpt lat="48.07691" lon="3.29928">
        <ele>87</ele>
        <time>2014-04-13T14:44:03Z</time>
      </trkpt>
      <trkpt lat="48.07682" lon="3.29935">
        <ele>88</ele>
        <time>2014-04-13T14:44:10Z</time>
      </trkpt>
      <trkpt lat="48.07678" lon="3.29939">
        <ele>88</ele>
        <time>2014-04-13T14:44:13Z</time>
      </trkpt>
      <trkpt lat="48.07669" lon="3.29947">
        <ele>88</ele>
        <time>2014-04-13T14:44:22Z</time>
      </trkpt>
      <trkpt lat="48.07665" lon="3.29952">
        <ele>90</ele>
        <time>2014-04-13T14:44:26Z</time>
      </trkpt>
      <trkpt lat="48.07643" lon="3.2997">
        <ele>91</ele>
        <time>2014-04-13T14:44:50Z</time>
      </trkpt>
      <trkpt lat="48.07638" lon="3.29973">
        <ele>91</ele>
        <time>2014-04-13T14:44:55Z</time>
      </trkpt>
      <trkpt lat="48.07632" lon="3.29976">
        <ele>92</ele>
        <time>2014-04-13T14:45:00Z</time>
      </trkpt>
      <trkpt lat="48.07628" lon="3.29978">
        <ele>92</ele>
        <time>2014-04-13T14:45:04Z</time>
      </trkpt>
      <trkpt lat="48.07622" lon="3.2998">
        <ele>92</ele>
        <time>2014-04-13T14:45:09Z</time>
      </trkpt>
      <trkpt lat="48.07618" lon="3.29983">
        <ele>92</ele>
        <time>2014-04-13T14:45:12Z</time>
      </trkpt>
      <trkpt lat="48.07612" lon="3.29985">
        <ele>93</ele>
        <time>2014-04-13T14:45:16Z</time>
      </trkpt>
      <trkpt lat="48.07608" lon="3.2998">
        <ele>93</ele>
        <time>2014-04-13T14:45:20Z</time>
      </trkpt>
      <trkpt lat="48.07603" lon="3.29981">
        <ele>93</ele>
        <time>2014-04-13T14:45:25Z</time>
      </trkpt>
      <trkpt lat="48.07598" lon="3.29978">
        <ele>93</ele>
        <time>2014-04-13T14:45:31Z</time>
      </trkpt>
      <trkpt lat="48.07595" lon="3.29971">
        <ele>93</ele>
        <time>2014-04-13T14:45:35Z</time>
      </trkpt>
      <trkpt lat="48.07593" lon="3.29956">
        <ele>92</ele>
        <time>2014-04-13T14:45:43Z</time>
      </trkpt>
      <trkpt lat="48.07592" lon="3.29949">
        <ele>91</ele>
        <time>2014-04-13T14:45:47Z</time>
      </trkpt>
      <trkpt lat="48.07592" lon="3.2994">
        <ele>91</ele>
        <time>2014-04-13T14:45:52Z</time>
      </trkpt>
      <trkpt lat="48.07594" lon="3.29933">
        <ele>91</ele>
        <time>2014-04-13T14:45:56Z</time>
      </trkpt>
      <trkpt lat="48.07598" lon="3.29918">
        <ele>90</ele>
        <time>2014-04-13T14:46:06Z</time>
      </trkpt>
      <trkpt lat="48.07615" lon="3.29846">
        <ele>86</ele>
        <time>2014-04-13T14:46:47Z</time>
      </trkpt>
      <trkpt lat="48.07618" lon="3.29815">
        <ele>84</ele>
        <time>2014-04-13T14:47:01Z</time>
      </trkpt>
      <trkpt lat="48.07616" lon="3.29808">
        <ele>83</ele>
        <time>2014-04-13T14:47:05Z</time>
      </trkpt>
      <trkpt lat="48.07612" lon="3.29804">
        <ele>83</ele>
        <time>2014-04-13T14:47:10Z</time>
      </trkpt>
      <trkpt lat="48.07602" lon="3.29804">
        <ele>84</ele>
        <time>2014-04-13T14:47:18Z</time>
      </trkpt>
      <trkpt lat="48.07597" lon="3.29803">
        <ele>84</ele>
        <time>2014-04-13T14:47:23Z</time>
      </trkpt>
      <trkpt lat="48.07592" lon="3.29803">
        <ele>84</ele>
        <time>2014-04-13T14:47:27Z</time>
      </trkpt>
      <trkpt lat="48.07587" lon="3.29804">
        <ele>84</ele>
        <time>2014-04-13T14:47:32Z</time>
      </trkpt>
      <trkpt lat="48.07578" lon="3.29798">
        <ele>86</ele>
        <time>2014-04-13T14:47:41Z</time>
      </trkpt>
      <trkpt lat="48.07572" lon="3.29796">
        <ele>86</ele>
        <time>2014-04-13T14:47:45Z</time>
      </trkpt>
      <trkpt lat="48.07563" lon="3.2979">
        <ele>86</ele>
        <time>2014-04-13T14:47:55Z</time>
      </trkpt>
      <trkpt lat="48.07557" lon="3.29789">
        <ele>86</ele>
        <time>2014-04-13T14:48:00Z</time>
      </trkpt>
      <trkpt lat="48.07552" lon="3.29787">
        <ele>86</ele>
        <time>2014-04-13T14:48:04Z</time>
      </trkpt>
      <trkpt lat="48.07547" lon="3.29786">
        <ele>86</ele>
        <time>2014-04-13T14:48:07Z</time>
      </trkpt>
      <trkpt lat="48.07543" lon="3.29784">
        <ele>86</ele>
        <time>2014-04-13T14:48:10Z</time>
      </trkpt>
      <trkpt lat="48.07534" lon="3.29777">
        <ele>86</ele>
        <time>2014-04-13T14:48:18Z</time>
      </trkpt>
      <trkpt lat="48.07524" lon="3.29774">
        <ele>86</ele>
        <time>2014-04-13T14:48:26Z</time>
      </trkpt>
      <trkpt lat="48.07518" lon="3.29774">
        <ele>86</ele>
        <time>2014-04-13T14:48:30Z</time>
      </trkpt>
      <trkpt lat="48.07508" lon="3.29771">
        <ele>86</ele>
        <time>2014-04-13T14:48:38Z</time>
      </trkpt>
      <trkpt lat="48.07504" lon="3.29769">
        <ele>86</ele>
        <time>2014-04-13T14:48:42Z</time>
      </trkpt>
      <trkpt lat="48.07499" lon="3.29766">
        <ele>88</ele>
        <time>2014-04-13T14:48:46Z</time>
      </trkpt>
      <trkpt lat="48.07495" lon="3.29761">
        <ele>88</ele>
        <time>2014-04-13T14:48:50Z</time>
      </trkpt>
      <trkpt lat="48.0749" lon="3.29761">
        <ele>88</ele>
        <time>2014-04-13T14:48:53Z</time>
      </trkpt>
      <trkpt lat="48.07485" lon="3.29762">
        <ele>89</ele>
        <time>2014-04-13T14:48:56Z</time>
      </trkpt>
      <trkpt lat="48.07473" lon="3.29763">
        <ele>90</ele>
        <time>2014-04-13T14:49:04Z</time>
      </trkpt>
      <trkpt lat="48.07462" lon="3.29759">
        <ele>90</ele>
        <time>2014-04-13T14:49:13Z</time>
      </trkpt>
      <trkpt lat="48.07452" lon="3.29753">
        <ele>91</ele>
        <time>2014-04-13T14:49:22Z</time>
      </trkpt>
      <trkpt lat="48.07448" lon="3.29749">
        <ele>88</ele>
        <time>2014-04-13T14:49:25Z</time>
      </trkpt>
      <trkpt lat="48.07434" lon="3.2975">
        <ele>92</ele>
        <time>2014-04-13T14:49:36Z</time>
      </trkpt>
      <trkpt lat="48.07426" lon="3.29748">
        <ele>91</ele>
        <time>2014-04-13T14:49:43Z</time>
      </trkpt>
      <trkpt lat="48.07422" lon="3.29749">
        <ele>92</ele>
        <time>2014-04-13T14:49:47Z</time>
      </trkpt>
      <trkpt lat="48.07416" lon="3.2975">
        <ele>93</ele>
        <time>2014-04-13T14:49:51Z</time>
      </trkpt>
      <trkpt lat="48.07414" lon="3.29754">
        <ele>94</ele>
        <time>2014-04-13T14:50:00Z</time>
      </trkpt>
      <trkpt lat="48.07413" lon="3.29759">
        <ele>95</ele>
        <time>2014-04-13T14:50:08Z</time>
      </trkpt>
      <trkpt lat="48.07408" lon="3.29759">
        <ele>96</ele>
        <time>2014-04-13T14:50:12Z</time>
      </trkpt>
      <trkpt lat="48.07402" lon="3.29758">
        <ele>96</ele>
        <time>2014-04-13T14:50:16Z</time>
      </trkpt>
      <trkpt lat="48.07397" lon="3.29757">
        <ele>97</ele>
        <time>2014-04-13T14:50:20Z</time>
      </trkpt>
      <trkpt lat="48.07392" lon="3.29755">
        <ele>97</ele>
        <time>2014-04-13T14:50:24Z</time>
      </trkpt>
      <trkpt lat="48.07387" lon="3.2975">
        <ele>98</ele>
        <time>2014-04-13T14:50:28Z</time>
      </trkpt>
      <trkpt lat="48.07383" lon="3.29746">
        <ele>94</ele>
        <time>2014-04-13T14:50:31Z</time>
      </trkpt>
      <trkpt lat="48.07374" lon="3.29729">
        <ele>94</ele>
        <time>2014-04-13T14:50:42Z</time>
      </trkpt>
      <trkpt lat="48.0737" lon="3.29725">
        <ele>94</ele>
        <time>2014-04-13T14:50:46Z</time>
      </trkpt>
      <trkpt lat="48.07366" lon="3.2972">
        <ele>94</ele>
        <time>2014-04-13T14:50:50Z</time>
      </trkpt>
      <trkpt lat="48.07357" lon="3.29713">
        <ele>94</ele>
        <time>2014-04-13T14:50:59Z</time>
      </trkpt>
      <trkpt lat="48.07352" lon="3.29708">
        <ele>94</ele>
        <time>2014-04-13T14:51:04Z</time>
      </trkpt>
      <trkpt lat="48.07342" lon="3.29706">
        <ele>94</ele>
        <time>2014-04-13T14:51:12Z</time>
      </trkpt>
      <trkpt lat="48.07337" lon="3.29704">
        <ele>94</ele>
        <time>2014-04-13T14:51:17Z</time>
      </trkpt>
      <trkpt lat="48.07332" lon="3.29702">
        <ele>99</ele>
        <time>2014-04-13T14:51:20Z</time>
      </trkpt>
      <trkpt lat="48.07329" lon="3.29696">
        <ele>99</ele>
        <time>2014-04-13T14:51:25Z</time>
      </trkpt>
      <trkpt lat="48.07324" lon="3.29695">
        <ele>99</ele>
        <time>2014-04-13T14:51:53Z</time>
      </trkpt>
      <trkpt lat="48.07299" lon="3.29684">
        <ele>100</ele>
        <time>2014-04-13T14:52:12Z</time>
      </trkpt>
      <trkpt lat="48.07297" lon="3.29681">
        <ele>100</ele>
        <time>2014-04-13T14:52:18Z</time>
      </trkpt>
      <trkpt lat="48.07296" lon="3.29677">
        <ele>100</ele>
        <time>2014-04-13T14:52:26Z</time>
      </trkpt>
      <trkpt lat="48.07279" lon="3.29673">
        <ele>101</ele>
        <time>2014-04-13T14:52:35Z</time>
      </trkpt>
      <trkpt lat="48.07274" lon="3.29673">
        <ele>101</ele>
        <time>2014-04-13T14:52:38Z</time>
      </trkpt>
      <trkpt lat="48.07263" lon="3.29676">
        <ele>102</ele>
        <time>2014-04-13T14:52:44Z</time>
      </trkpt>
      <trkpt lat="48.07257" lon="3.29676">
        <ele>102</ele>
        <time>2014-04-13T14:52:48Z</time>
      </trkpt>
      <trkpt lat="48.07252" lon="3.29673">
        <ele>102</ele>
        <time>2014-04-13T14:52:51Z</time>
      </trkpt>
      <trkpt lat="48.07247" lon="3.2967">
        <ele>103</ele>
        <time>2014-04-13T14:52:54Z</time>
      </trkpt>
      <trkpt lat="48.07242" lon="3.29668">
        <ele>104</ele>
        <time>2014-04-13T14:52:58Z</time>
      </trkpt>
      <trkpt lat="48.07228" lon="3.29665">
        <ele>101</ele>
        <time>2014-04-13T14:53:11Z</time>
      </trkpt>
      <trkpt lat="48.07222" lon="3.29664">
        <ele>101</ele>
        <time>2014-04-13T14:53:16Z</time>
      </trkpt>
      <trkpt lat="48.07193" lon="3.29648">
        <ele>102</ele>
        <time>2014-04-13T14:53:38Z</time>
      </trkpt>
      <trkpt lat="48.07188" lon="3.29646">
        <ele>102</ele>
        <time>2014-04-13T14:53:41Z</time>
      </trkpt>
      <trkpt lat="48.07183" lon="3.29644">
        <ele>102</ele>
        <time>2014-04-13T14:53:46Z</time>
      </trkpt>
      <trkpt lat="48.07179" lon="3.29641">
        <ele>102</ele>
        <time>2014-04-13T14:53:49Z</time>
      </trkpt>
      <trkpt lat="48.07173" lon="3.2964">
        <ele>102</ele>
        <time>2014-04-13T14:53:53Z</time>
      </trkpt>
      <trkpt lat="48.07169" lon="3.29637">
        <ele>102</ele>
        <time>2014-04-13T14:53:58Z</time>
      </trkpt>
      <trkpt lat="48.07147" lon="3.29623">
        <ele>103</ele>
        <time>2014-04-13T14:54:24Z</time>
      </trkpt>
      <trkpt lat="48.07142" lon="3.2962">
        <ele>103</ele>
        <time>2014-04-13T14:54:44Z</time>
      </trkpt>
      <trkpt lat="48.07131" lon="3.29613">
        <ele>102</ele>
        <time>2014-04-13T14:54:51Z</time>
      </trkpt>
      <trkpt lat="48.07126" lon="3.29611">
        <ele>102</ele>
        <time>2014-04-13T14:54:56Z</time>
      </trkpt>
      <trkpt lat="48.07122" lon="3.29609">
        <ele>102</ele>
        <time>2014-04-13T14:54:59Z</time>
      </trkpt>
      <trkpt lat="48.07112" lon="3.29604">
        <ele>102</ele>
        <time>2014-04-13T14:55:07Z</time>
      </trkpt>
      <trkpt lat="48.07106" lon="3.29602">
        <ele>102</ele>
        <time>2014-04-13T14:55:12Z</time>
      </trkpt>
      <trkpt lat="48.07101" lon="3.29602">
        <ele>102</ele>
        <time>2014-04-13T14:55:15Z</time>
      </trkpt>
      <trkpt lat="48.0709" lon="3.29605">
        <ele>102</ele>
        <time>2014-04-13T14:55:24Z</time>
      </trkpt>
      <trkpt lat="48.07084" lon="3.29605">
        <ele>102</ele>
        <time>2014-04-13T14:55:27Z</time>
      </trkpt>
      <trkpt lat="48.07079" lon="3.29607">
        <ele>105</ele>
        <time>2014-04-13T14:55:31Z</time>
      </trkpt>
      <trkpt lat="48.07074" lon="3.29609">
        <ele>105</ele>
        <time>2014-04-13T14:55:35Z</time>
      </trkpt>
      <trkpt lat="48.07069" lon="3.2961">
        <ele>105</ele>
        <time>2014-04-13T14:55:39Z</time>
      </trkpt>
      <trkpt lat="48.07063" lon="3.29613">
        <ele>106</ele>
        <time>2014-04-13T14:55:44Z</time>
      </trkpt>
      <trkpt lat="48.07055" lon="3.29613">
        <ele>106</ele>
        <time>2014-04-13T14:55:50Z</time>
      </trkpt>
      <trkpt lat="48.0705" lon="3.29611">
        <ele>106</ele>
        <time>2014-04-13T14:55:55Z</time>
      </trkpt>
      <trkpt lat="48.07044" lon="3.29612">
        <ele>107</ele>
        <time>2014-04-13T14:56:00Z</time>
      </trkpt>
      <trkpt lat="48.0704" lon="3.29612">
        <ele>107</ele>
        <time>2014-04-13T14:56:03Z</time>
      </trkpt>
      <trkpt lat="48.07035" lon="3.2961">
        <ele>107</ele>
        <time>2014-04-13T14:56:07Z</time>
      </trkpt>
      <trkpt lat="48.0703" lon="3.2961">
        <ele>107</ele>
        <time>2014-04-13T14:56:13Z</time>
      </trkpt>
      <trkpt lat="48.07025" lon="3.29608">
        <ele>108</ele>
        <time>2014-04-13T14:56:16Z</time>
      </trkpt>
      <trkpt lat="48.07009" lon="3.29602">
        <ele>108</ele>
        <time>2014-04-13T14:56:29Z</time>
      </trkpt>
      <trkpt lat="48.07005" lon="3.296">
        <ele>108</ele>
        <time>2014-04-13T14:56:33Z</time>
      </trkpt>
      <trkpt lat="48.06995" lon="3.29595">
        <ele>110</ele>
        <time>2014-04-13T14:56:42Z</time>
      </trkpt>
      <trkpt lat="48.06991" lon="3.29592">
        <ele>110</ele>
        <time>2014-04-13T14:56:46Z</time>
      </trkpt>
      <trkpt lat="48.06988" lon="3.2959">
        <ele>110</ele>
        <time>2014-04-13T14:56:53Z</time>
      </trkpt>
      <trkpt lat="48.06981" lon="3.2959">
        <ele>111</ele>
        <time>2014-04-13T14:57:14Z</time>
      </trkpt>
      <trkpt lat="48.06971" lon="3.29586">
        <ele>111</ele>
        <time>2014-04-13T14:57:19Z</time>
      </trkpt>
      <trkpt lat="48.06968" lon="3.29584">
        <ele>111</ele>
        <time>2014-04-13T14:57:26Z</time>
      </trkpt>
      <trkpt lat="48.06963" lon="3.29583">
        <ele>108</ele>
        <time>2014-04-13T14:57:31Z</time>
      </trkpt>
      <trkpt lat="48.06942" lon="3.29575">
        <ele>108</ele>
        <time>2014-04-13T14:57:44Z</time>
      </trkpt>
      <trkpt lat="48.06937" lon="3.29571">
        <ele>108</ele>
        <time>2014-04-13T14:57:48Z</time>
      </trkpt>
      <trkpt lat="48.06932" lon="3.2957">
        <ele>109</ele>
        <time>2014-04-13T14:57:54Z</time>
      </trkpt>
      <trkpt lat="48.06917" lon="3.29564">
        <ele>109</ele>
        <time>2014-04-13T14:58:06Z</time>
      </trkpt>
      <trkpt lat="48.06912" lon="3.29563">
        <ele>109</ele>
        <time>2014-04-13T14:58:11Z</time>
      </trkpt>
      <trkpt lat="48.06907" lon="3.29563">
        <ele>109</ele>
        <time>2014-04-13T14:58:15Z</time>
      </trkpt>
      <trkpt lat="48.06877" lon="3.29564">
        <ele>109</ele>
        <time>2014-04-13T14:58:39Z</time>
      </trkpt>
      <trkpt lat="48.06866" lon="3.29562">
        <ele>109</ele>
        <time>2014-04-13T14:58:47Z</time>
      </trkpt>
      <trkpt lat="48.0684" lon="3.29554">
        <ele>109</ele>
        <time>2014-04-13T14:59:08Z</time>
      </trkpt>
      <trkpt lat="48.0682" lon="3.29545">
        <ele>109</ele>
        <time>2014-04-13T14:59:25Z</time>
      </trkpt>
      <trkpt lat="48.06815" lon="3.29543">
        <ele>109</ele>
        <time>2014-04-13T14:59:29Z</time>
      </trkpt>
      <trkpt lat="48.0681" lon="3.29543">
        <ele>109</ele>
        <time>2014-04-13T14:59:33Z</time>
      </trkpt>
      <trkpt lat="48.06805" lon="3.29541">
        <ele>108</ele>
        <time>2014-04-13T14:59:37Z</time>
      </trkpt>
      <trkpt lat="48.0678" lon="3.29536">
        <ele>108</ele>
        <time>2014-04-13T14:59:56Z</time>
      </trkpt>
      <trkpt lat="48.06775" lon="3.29536">
        <ele>108</ele>
        <time>2014-04-13T15:00:00Z</time>
      </trkpt>
      <trkpt lat="48.06765" lon="3.29536">
        <ele>108</ele>
        <time>2014-04-13T15:00:08Z</time>
      </trkpt>
      <trkpt lat="48.0676" lon="3.29537">
        <ele>108</ele>
        <time>2014-04-13T15:00:13Z</time>
      </trkpt>
      <trkpt lat="48.06755" lon="3.29538">
        <ele>108</ele>
        <time>2014-04-13T15:00:17Z</time>
      </trkpt>
      <trkpt lat="48.0675" lon="3.29537">
        <ele>108</ele>
        <time>2014-04-13T15:00:21Z</time>
      </trkpt>
      <trkpt lat="48.06716" lon="3.29539">
        <ele>110</ele>
        <time>2014-04-13T15:00:49Z</time>
      </trkpt>
      <trkpt lat="48.0671" lon="3.2954">
        <ele>110</ele>
        <time>2014-04-13T15:00:53Z</time>
      </trkpt>
      <trkpt lat="48.06704" lon="3.29543">
        <ele>110</ele>
        <time>2014-04-13T15:01:04Z</time>
      </trkpt>
      <trkpt lat="48.06699" lon="3.29544">
        <ele>110</ele>
        <time>2014-04-13T15:01:08Z</time>
      </trkpt>
      <trkpt lat="48.06694" lon="3.29546">
        <ele>110</ele>
        <time>2014-04-13T15:01:11Z</time>
      </trkpt>
      <trkpt lat="48.06689" lon="3.29545">
        <ele>110</ele>
        <time>2014-04-13T15:01:15Z</time>
      </trkpt>
      <trkpt lat="48.06683" lon="3.29546">
        <ele>111</ele>
        <time>2014-04-13T15:01:18Z</time>
      </trkpt>
      <trkpt lat="48.06679" lon="3.29548">
        <ele>111</ele>
        <time>2014-04-13T15:01:20Z</time>
      </trkpt>
      <trkpt lat="48.06676" lon="3.29551">
        <ele>111</ele>
        <time>2014-04-13T15:01:22Z</time>
      </trkpt>
      <trkpt lat="48.06671" lon="3.29549">
        <ele>111</ele>
        <time>2014-04-13T15:01:29Z</time>
      </trkpt>
      <trkpt lat="48.06671" lon="3.29545">
        <ele>111</ele>
        <time>2014-04-13T15:01:35Z</time>
      </trkpt>
      <trkpt lat="48.06667" lon="3.29543">
        <ele>111</ele>
        <time>2014-04-13T15:01:57Z</time>
      </trkpt>
      <trkpt lat="48.06651" lon="3.29551">
        <ele>112</ele>
        <time>2014-04-13T15:02:06Z</time>
      </trkpt>
      <trkpt lat="48.06646" lon="3.29553">
        <ele>112</ele>
        <time>2014-04-13T15:02:09Z</time>
      </trkpt>
      <trkpt lat="48.06636" lon="3.29557">
        <ele>112</ele>
        <time>2014-04-13T15:02:17Z</time>
      </trkpt>
      <trkpt lat="48.06631" lon="3.29558">
        <ele>112</ele>
        <time>2014-04-13T15:02:21Z</time>
      </trkpt>
      <trkpt lat="48.06615" lon="3.29563">
        <ele>112</ele>
        <time>2014-04-13T15:02:33Z</time>
      </trkpt>
      <trkpt lat="48.06604" lon="3.29562">
        <ele>112</ele>
        <time>2014-04-13T15:02:42Z</time>
      </trkpt>
      <trkpt lat="48.06598" lon="3.29563">
        <ele>113</ele>
        <time>2014-04-13T15:02:48Z</time>
      </trkpt>
      <trkpt lat="48.06593" lon="3.29566">
        <ele>113</ele>
        <time>2014-04-13T15:02:52Z</time>
      </trkpt>
      <trkpt lat="48.06588" lon="3.29566">
        <ele>113</ele>
        <time>2014-04-13T15:02:56Z</time>
      </trkpt>
      <trkpt lat="48.06583" lon="3.29565">
        <ele>112</ele>
        <time>2014-04-13T15:03:00Z</time>
      </trkpt>
      <trkpt lat="48.06578" lon="3.29565">
        <ele>112</ele>
        <time>2014-04-13T15:03:03Z</time>
      </trkpt>
      <trkpt lat="48.06572" lon="3.29565">
        <ele>112</ele>
        <time>2014-04-13T15:03:07Z</time>
      </trkpt>
      <trkpt lat="48.06567" lon="3.29563">
        <ele>111</ele>
        <time>2014-04-13T15:03:12Z</time>
      </trkpt>
      <trkpt lat="48.06562" lon="3.29563">
        <ele>111</ele>
        <time>2014-04-13T15:03:16Z</time>
      </trkpt>
      <trkpt lat="48.06556" lon="3.29561">
        <ele>111</ele>
        <time>2014-04-13T15:03:20Z</time>
      </trkpt>
      <trkpt lat="48.06551" lon="3.2956">
        <ele>110</ele>
        <time>2014-04-13T15:03:25Z</time>
      </trkpt>
      <trkpt lat="48.06546" lon="3.29562">
        <ele>110</ele>
        <time>2014-04-13T15:03:29Z</time>
      </trkpt>
      <trkpt lat="48.06542" lon="3.29565">
        <ele>110</ele>
        <time>2014-04-13T15:03:32Z</time>
      </trkpt>
      <trkpt lat="48.06527" lon="3.29572">
        <ele>110</ele>
        <time>2014-04-13T15:03:45Z</time>
      </trkpt>
      <trkpt lat="48.06526" lon="3.29568">
        <ele>110</ele>
        <time>2014-04-13T15:03:57Z</time>
      </trkpt>
      <trkpt lat="48.06511" lon="3.29579">
        <ele>110</ele>
        <time>2014-04-13T15:04:11Z</time>
      </trkpt>
      <trkpt lat="48.06501" lon="3.29584">
        <ele>111</ele>
        <time>2014-04-13T15:04:19Z</time>
      </trkpt>
      <trkpt lat="48.06493" lon="3.29592">
        <ele>111</ele>
        <time>2014-04-13T15:04:28Z</time>
      </trkpt>
      <trkpt lat="48.06484" lon="3.29598">
        <ele>111</ele>
        <time>2014-04-13T15:04:35Z</time>
      </trkpt>
      <trkpt lat="48.06479" lon="3.296">
        <ele>111</ele>
        <time>2014-04-13T15:04:39Z</time>
      </trkpt>
      <trkpt lat="48.06474" lon="3.29602">
        <ele>111</ele>
        <time>2014-04-13T15:04:43Z</time>
      </trkpt>
      <trkpt lat="48.06469" lon="3.29603">
        <ele>111</ele>
        <time>2014-04-13T15:04:48Z</time>
      </trkpt>
      <trkpt lat="48.06464" lon="3.29607">
        <ele>111</ele>
        <time>2014-04-13T15:04:51Z</time>
      </trkpt>
      <trkpt lat="48.06459" lon="3.29609">
        <ele>110</ele>
        <time>2014-04-13T15:04:55Z</time>
      </trkpt>
      <trkpt lat="48.06451" lon="3.29618">
        <ele>110</ele>
        <time>2014-04-13T15:05:04Z</time>
      </trkpt>
      <trkpt lat="48.06446" lon="3.29621">
        <ele>110</ele>
        <time>2014-04-13T15:05:08Z</time>
      </trkpt>
      <trkpt lat="48.06441" lon="3.29624">
        <ele>110</ele>
        <time>2014-04-13T15:05:13Z</time>
      </trkpt>
      <trkpt lat="48.06435" lon="3.29636">
        <ele>110</ele>
        <time>2014-04-13T15:05:19Z</time>
      </trkpt>
      <trkpt lat="48.06431" lon="3.29639">
        <ele>110</ele>
        <time>2014-04-13T15:05:26Z</time>
      </trkpt>
      <trkpt lat="48.06424" lon="3.2965">
        <ele>110</ele>
        <time>2014-04-13T15:05:34Z</time>
      </trkpt>
      <trkpt lat="48.06416" lon="3.2966">
        <ele>108</ele>
        <time>2014-04-13T15:05:44Z</time>
      </trkpt>
      <trkpt lat="48.0641" lon="3.29674">
        <ele>109</ele>
        <time>2014-04-13T15:05:52Z</time>
      </trkpt>
      <trkpt lat="48.06398" lon="3.29689">
        <ele>107</ele>
        <time>2014-04-13T15:06:03Z</time>
      </trkpt>
      <trkpt lat="48.0639" lon="3.29698">
        <ele>107</ele>
        <time>2014-04-13T15:06:13Z</time>
      </trkpt>
      <trkpt lat="48.06383" lon="3.29709">
        <ele>107</ele>
        <time>2014-04-13T15:06:20Z</time>
      </trkpt>
      <trkpt lat="48.06377" lon="3.29722">
        <ele>106</ele>
        <time>2014-04-13T15:06:28Z</time>
      </trkpt>
      <trkpt lat="48.06373" lon="3.29725">
        <ele>106</ele>
        <time>2014-04-13T15:06:32Z</time>
      </trkpt>
      <trkpt lat="48.06369" lon="3.29731">
        <ele>106</ele>
        <time>2014-04-13T15:06:38Z</time>
      </trkpt>
      <trkpt lat="48.06365" lon="3.29745">
        <ele>106</ele>
        <time>2014-04-13T15:06:47Z</time>
      </trkpt>
      <trkpt lat="48.06362" lon="3.29752">
        <ele>107</ele>
        <time>2014-04-13T15:06:50Z</time>
      </trkpt>
      <trkpt lat="48.06361" lon="3.29758">
        <ele>107</ele>
        <time>2014-04-13T15:06:55Z</time>
      </trkpt>
      <trkpt lat="48.0636" lon="3.29767">
        <ele>107</ele>
        <time>2014-04-13T15:06:58Z</time>
      </trkpt>
      <trkpt lat="48.06357" lon="3.29773">
        <ele>107</ele>
        <time>2014-04-13T15:07:01Z</time>
      </trkpt>
      <trkpt lat="48.06352" lon="3.2981">
        <ele>108</ele>
        <time>2014-04-13T15:07:21Z</time>
      </trkpt>
      <trkpt lat="48.06349" lon="3.2982">
        <ele>107</ele>
        <time>2014-04-13T15:07:29Z</time>
      </trkpt>
      <trkpt lat="48.0635" lon="3.29827">
        <ele>107</ele>
        <time>2014-04-13T15:07:39Z</time>
      </trkpt>
      <trkpt lat="48.0635" lon="3.29835">
        <ele>108</ele>
        <time>2014-04-13T15:07:42Z</time>
      </trkpt>
      <trkpt lat="48.06346" lon="3.29849">
        <ele>109</ele>
        <time>2014-04-13T15:07:50Z</time>
      </trkpt>
      <trkpt lat="48.06346" lon="3.29864">
        <ele>110</ele>
        <time>2014-04-13T15:08:04Z</time>
      </trkpt>
      <trkpt lat="48.06344" lon="3.29872">
        <ele>110</ele>
        <time>2014-04-13T15:08:08Z</time>
      </trkpt>
      <trkpt lat="48.06344" lon="3.29879">
        <ele>110</ele>
        <time>2014-04-13T15:08:11Z</time>
      </trkpt>
      <trkpt lat="48.06344" lon="3.29887">
        <ele>110</ele>
        <time>2014-04-13T15:08:14Z</time>
      </trkpt>
      <trkpt lat="48.06342" lon="3.29895">
        <ele>109</ele>
        <time>2014-04-13T15:08:18Z</time>
      </trkpt>
      <trkpt lat="48.06341" lon="3.29901">
        <ele>109</ele>
        <time>2014-04-13T15:08:22Z</time>
      </trkpt>
      <trkpt lat="48.0633" lon="3.29978">
        <ele>105</ele>
        <time>2014-04-13T15:09:04Z</time>
      </trkpt>
      <trkpt lat="48.06325" lon="3.29992">
        <ele>106</ele>
        <time>2014-04-13T15:09:12Z</time>
      </trkpt>
      <trkpt lat="48.0632" lon="3.30023">
        <ele>105</ele>
        <time>2014-04-13T15:09:30Z</time>
      </trkpt>
      <trkpt lat="48.06318" lon="3.3003">
        <ele>105</ele>
        <time>2014-04-13T15:09:34Z</time>
      </trkpt>
      <trkpt lat="48.06318" lon="3.30045">
        <ele>105</ele>
        <time>2014-04-13T15:09:41Z</time>
      </trkpt>
      <trkpt lat="48.06309" lon="3.30081">
        <ele>105</ele>
        <time>2014-04-13T15:10:04Z</time>
      </trkpt>
      <trkpt lat="48.06308" lon="3.30096">
        <ele>106</ele>
        <time>2014-04-13T15:10:12Z</time>
      </trkpt>
      <trkpt lat="48.06301" lon="3.30131">
        <ele>105</ele>
        <time>2014-04-13T15:10:32Z</time>
      </trkpt>
      <trkpt lat="48.06301" lon="3.30138">
        <ele>105</ele>
        <time>2014-04-13T15:10:36Z</time>
      </trkpt>
      <trkpt lat="48.06297" lon="3.30143">
        <ele>105</ele>
        <time>2014-04-13T15:10:40Z</time>
      </trkpt>
      <trkpt lat="48.06292" lon="3.30147">
        <ele>105</ele>
        <time>2014-04-13T15:10:44Z</time>
      </trkpt>
      <trkpt lat="48.06287" lon="3.30147">
        <ele>104</ele>
        <time>2014-04-13T15:10:47Z</time>
      </trkpt>
      <trkpt lat="48.06283" lon="3.30146">
        <ele>104</ele>
        <time>2014-04-13T15:10:50Z</time>
      </trkpt>
      <trkpt lat="48.06278" lon="3.30142">
        <ele>104</ele>
        <time>2014-04-13T15:10:53Z</time>
      </trkpt>
      <trkpt lat="48.06246" lon="3.30121">
        <ele>98</ele>
        <time>2014-04-13T15:11:21Z</time>
      </trkpt>
      <trkpt lat="48.06232" lon="3.30115">
        <ele>97</ele>
        <time>2014-04-13T15:11:31Z</time>
      </trkpt>
      <trkpt lat="48.06227" lon="3.30113">
        <ele>97</ele>
        <time>2014-04-13T15:11:34Z</time>
      </trkpt>
      <trkpt lat="48.06222" lon="3.30116">
        <ele>97</ele>
        <time>2014-04-13T15:11:42Z</time>
      </trkpt>
      <trkpt lat="48.06218" lon="3.30122">
        <ele>97</ele>
        <time>2014-04-13T15:11:47Z</time>
      </trkpt>
      <trkpt lat="48.06192" lon="3.30204">
        <ele>97</ele>
        <time>2014-04-13T15:12:37Z</time>
      </trkpt>
      <trkpt lat="48.0619" lon="3.30212">
        <ele>98</ele>
        <time>2014-04-13T15:12:41Z</time>
      </trkpt>
      <trkpt lat="48.06184" lon="3.30233">
        <ele>97</ele>
        <time>2014-04-13T15:12:54Z</time>
      </trkpt>
      <trkpt lat="48.06181" lon="3.30239">
        <ele>97</ele>
        <time>2014-04-13T15:12:58Z</time>
      </trkpt>
      <trkpt lat="48.06162" lon="3.30294">
        <ele>97</ele>
        <time>2014-04-13T15:13:31Z</time>
      </trkpt>
      <trkpt lat="48.06156" lon="3.30307">
        <ele>97</ele>
        <time>2014-04-13T15:13:39Z</time>
      </trkpt>
      <trkpt lat="48.06152" lon="3.30313">
        <ele>97</ele>
        <time>2014-04-13T15:13:43Z</time>
      </trkpt>
      <trkpt lat="48.06151" lon="3.3032">
        <ele>97</ele>
        <time>2014-04-13T15:13:48Z</time>
      </trkpt>
      <trkpt lat="48.06148" lon="3.30326">
        <ele>97</ele>
        <time>2014-04-13T15:13:52Z</time>
      </trkpt>
      <trkpt lat="48.06146" lon="3.30332">
        <ele>97</ele>
        <time>2014-04-13T15:13:55Z</time>
      </trkpt>
      <trkpt lat="48.06142" lon="3.30338">
        <ele>97</ele>
        <time>2014-04-13T15:13:58Z</time>
      </trkpt>
      <trkpt lat="48.06139" lon="3.30345">
        <ele>97</ele>
        <time>2014-04-13T15:14:04Z</time>
      </trkpt>
      <trkpt lat="48.06138" lon="3.30351">
        <ele>97</ele>
        <time>2014-04-13T15:14:07Z</time>
      </trkpt>
      <trkpt lat="48.06119" lon="3.30388">
        <ele>98</ele>
        <time>2014-04-13T15:14:31Z</time>
      </trkpt>
      <trkpt lat="48.06071" lon="3.30478">
        <ele>102</ele>
        <time>2014-04-13T15:15:32Z</time>
      </trkpt>
      <trkpt lat="48.06041" lon="3.30519">
        <ele>103</ele>
        <time>2014-04-13T15:16:06Z</time>
      </trkpt>
      <trkpt lat="48.06036" lon="3.30523">
        <ele>103</ele>
        <time>2014-04-13T15:16:11Z</time>
      </trkpt>
      <trkpt lat="48.06029" lon="3.30532">
        <ele>103</ele>
        <time>2014-04-13T15:16:19Z</time>
      </trkpt>
      <trkpt lat="48.06011" lon="3.3056">
        <ele>103</ele>
        <time>2014-04-13T15:16:39Z</time>
      </trkpt>
      <trkpt lat="48.06008" lon="3.30566">
        <ele>103</ele>
        <time>2014-04-13T15:16:43Z</time>
      </trkpt>
      <trkpt lat="48.06" lon="3.30575">
        <ele>102</ele>
        <time>2014-04-13T15:16:51Z</time>
      </trkpt>
      <trkpt lat="48.05998" lon="3.30577">
        <ele>103</ele>
        <time>2014-04-13T15:16:57Z</time>
      </trkpt>
      <trkpt lat="48.0599" lon="3.30587">
        <ele>103</ele>
        <time>2014-04-13T15:17:11Z</time>
      </trkpt>
      <trkpt lat="48.05986" lon="3.30591">
        <ele>103</ele>
        <time>2014-04-13T15:17:14Z</time>
      </trkpt>
      <trkpt lat="48.05982" lon="3.30597">
        <ele>103</ele>
        <time>2014-04-13T15:17:19Z</time>
      </trkpt>
      <trkpt lat="48.05978" lon="3.30601">
        <ele>104</ele>
        <time>2014-04-13T15:17:23Z</time>
      </trkpt>
      <trkpt lat="48.05975" lon="3.30606">
        <ele>104</ele>
        <time>2014-04-13T15:17:27Z</time>
      </trkpt>
      <trkpt lat="48.0597" lon="3.30611">
        <ele>104</ele>
        <time>2014-04-13T15:17:39Z</time>
      </trkpt>
      <trkpt lat="48.05965" lon="3.30616">
        <ele>104</ele>
        <time>2014-04-13T15:17:43Z</time>
      </trkpt>
      <trkpt lat="48.05962" lon="3.30621">
        <ele>104</ele>
        <time>2014-04-13T15:17:47Z</time>
      </trkpt>
      <trkpt lat="48.05958" lon="3.30625">
        <ele>104</ele>
        <time>2014-04-13T15:17:51Z</time>
      </trkpt>
      <trkpt lat="48.05953" lon="3.30628">
        <ele>104</ele>
        <time>2014-04-13T15:17:57Z</time>
      </trkpt>
      <trkpt lat="48.05939" lon="3.30649">
        <ele>104</ele>
        <time>2014-04-13T15:18:10Z</time>
      </trkpt>
      <trkpt lat="48.05931" lon="3.30659">
        <ele>104</ele>
        <time>2014-04-13T15:18:18Z</time>
      </trkpt>
      <trkpt lat="48.05909" lon="3.30677">
        <ele>104</ele>
        <time>2014-04-13T15:18:38Z</time>
      </trkpt>
      <trkpt lat="48.05905" lon="3.30679">
        <ele>104</ele>
        <time>2014-04-13T15:18:42Z</time>
      </trkpt>
      <trkpt lat="48.05891" lon="3.3069">
        <ele>105</ele>
        <time>2014-04-13T15:18:56Z</time>
      </trkpt>
      <trkpt lat="48.0588" lon="3.30702">
        <ele>106</ele>
        <time>2014-04-13T15:19:08Z</time>
      </trkpt>
      <trkpt lat="48.05876" lon="3.30705">
        <ele>106</ele>
        <time>2014-04-13T15:19:12Z</time>
      </trkpt>
      <trkpt lat="48.05868" lon="3.30716">
        <ele>106</ele>
        <time>2014-04-13T15:19:20Z</time>
      </trkpt>
      <trkpt lat="48.05863" lon="3.30719">
        <ele>106</ele>
        <time>2014-04-13T15:19:25Z</time>
      </trkpt>
      <trkpt lat="48.05851" lon="3.30732">
        <ele>106</ele>
        <time>2014-04-13T15:19:37Z</time>
      </trkpt>
      <trkpt lat="48.05846" lon="3.30735">
        <ele>106</ele>
        <time>2014-04-13T15:19:41Z</time>
      </trkpt>
      <trkpt lat="48.05842" lon="3.30738">
        <ele>106</ele>
        <time>2014-04-13T15:19:45Z</time>
      </trkpt>
      <trkpt lat="48.05838" lon="3.30741">
        <ele>107</ele>
        <time>2014-04-13T15:19:49Z</time>
      </trkpt>
      <trkpt lat="48.05833" lon="3.30745">
        <ele>107</ele>
        <time>2014-04-13T15:19:53Z</time>
      </trkpt>
      <trkpt lat="48.05829" lon="3.30749">
        <ele>107</ele>
        <time>2014-04-13T15:19:57Z</time>
      </trkpt>
      <trkpt lat="48.05815" lon="3.30758">
        <ele>108</ele>
        <time>2014-04-13T15:20:10Z</time>
      </trkpt>
      <trkpt lat="48.0581" lon="3.30761">
        <ele>108</ele>
        <time>2014-04-13T15:20:15Z</time>
      </trkpt>
      <trkpt lat="48.05805" lon="3.30765">
        <ele>108</ele>
        <time>2014-04-13T15:20:19Z</time>
      </trkpt>
      <trkpt lat="48.05801" lon="3.30768">
        <ele>108</ele>
        <time>2014-04-13T15:20:23Z</time>
      </trkpt>
      <trkpt lat="48.05796" lon="3.30774">
        <ele>108</ele>
        <time>2014-04-13T15:20:37Z</time>
      </trkpt>
      <trkpt lat="48.05778" lon="3.30786">
        <ele>108</ele>
        <time>2014-04-13T15:20:52Z</time>
      </trkpt>
      <trkpt lat="48.05769" lon="3.30793">
        <ele>108</ele>
        <time>2014-04-13T15:21:01Z</time>
      </trkpt>
      <trkpt lat="48.05759" lon="3.30799">
        <ele>108</ele>
        <time>2014-04-13T15:21:10Z</time>
      </trkpt>
      <trkpt lat="48.05753" lon="3.30809">
        <ele>108</ele>
        <time>2014-04-13T15:21:17Z</time>
      </trkpt>
      <trkpt lat="48.05748" lon="3.30812">
        <ele>109</ele>
        <time>2014-04-13T15:21:22Z</time>
      </trkpt>
      <trkpt lat="48.05743" lon="3.30815">
        <ele>109</ele>
        <time>2014-04-13T15:21:26Z</time>
      </trkpt>
      <trkpt lat="48.05739" lon="3.30815">
        <ele>109</ele>
        <time>2014-04-13T15:21:29Z</time>
      </trkpt>
      <trkpt lat="48.05734" lon="3.30819">
        <ele>109</ele>
        <time>2014-04-13T15:21:33Z</time>
      </trkpt>
      <trkpt lat="48.0573" lon="3.30824">
        <ele>109</ele>
        <time>2014-04-13T15:21:38Z</time>
      </trkpt>
      <trkpt lat="48.05707" lon="3.30843">
        <ele>110</ele>
        <time>2014-04-13T15:21:58Z</time>
      </trkpt>
      <trkpt lat="48.05702" lon="3.30847">
        <ele>110</ele>
        <time>2014-04-13T15:22:02Z</time>
      </trkpt>
      <trkpt lat="48.0569" lon="3.30857">
        <ele>110</ele>
        <time>2014-04-13T15:22:17Z</time>
      </trkpt>
      <trkpt lat="48.05685" lon="3.30862">
        <ele>110</ele>
        <time>2014-04-13T15:22:20Z</time>
      </trkpt>
      <trkpt lat="48.05681" lon="3.30864">
        <ele>110</ele>
        <time>2014-04-13T15:22:23Z</time>
      </trkpt>
      <trkpt lat="48.05672" lon="3.30872">
        <ele>110</ele>
        <time>2014-04-13T15:22:31Z</time>
      </trkpt>
      <trkpt lat="48.05658" lon="3.3088">
        <ele>110</ele>
        <time>2014-04-13T15:22:43Z</time>
      </trkpt>
      <trkpt lat="48.05652" lon="3.30884">
        <ele>110</ele>
        <time>2014-04-13T15:22:46Z</time>
      </trkpt>
      <trkpt lat="48.05648" lon="3.30886">
        <ele>110</ele>
        <time>2014-04-13T15:22:50Z</time>
      </trkpt>
      <trkpt lat="48.05643" lon="3.30886">
        <ele>110</ele>
        <time>2014-04-13T15:22:56Z</time>
      </trkpt>
      <trkpt lat="48.05636" lon="3.30896">
        <ele>110</ele>
        <time>2014-04-13T15:23:08Z</time>
      </trkpt>
      <trkpt lat="48.05631" lon="3.30898">
        <ele>111</ele>
        <time>2014-04-13T15:23:12Z</time>
      </trkpt>
      <trkpt lat="48.05627" lon="3.30902">
        <ele>111</ele>
        <time>2014-04-13T15:23:17Z</time>
      </trkpt>
      <trkpt lat="48.05618" lon="3.30911">
        <ele>111</ele>
        <time>2014-04-13T15:23:25Z</time>
      </trkpt>
      <trkpt lat="48.05614" lon="3.30916">
        <ele>110</ele>
        <time>2014-04-13T15:23:28Z</time>
      </trkpt>
      <trkpt lat="48.05608" lon="3.30928">
        <ele>111</ele>
        <time>2014-04-13T15:23:51Z</time>
      </trkpt>
      <trkpt lat="48.05604" lon="3.30931">
        <ele>111</ele>
        <time>2014-04-13T15:23:55Z</time>
      </trkpt>
      <trkpt lat="48.05601" lon="3.30936">
        <ele>111</ele>
        <time>2014-04-13T15:23:59Z</time>
      </trkpt>
      <trkpt lat="48.05596" lon="3.3094">
        <ele>111</ele>
        <time>2014-04-13T15:24:03Z</time>
      </trkpt>
      <trkpt lat="48.05591" lon="3.30944">
        <ele>111</ele>
        <time>2014-04-13T15:24:07Z</time>
      </trkpt>
      <trkpt lat="48.05589" lon="3.30949">
        <ele>111</ele>
        <time>2014-04-13T15:24:11Z</time>
      </trkpt>
      <trkpt lat="48.05579" lon="3.30957">
        <ele>112</ele>
        <time>2014-04-13T15:24:19Z</time>
      </trkpt>
      <trkpt lat="48.05575" lon="3.30962">
        <ele>112</ele>
        <time>2014-04-13T15:24:24Z</time>
      </trkpt>
      <trkpt lat="48.05561" lon="3.30976">
        <ele>112</ele>
        <time>2014-04-13T15:24:35Z</time>
      </trkpt>
      <trkpt lat="48.05557" lon="3.30981">
        <ele>112</ele>
        <time>2014-04-13T15:24:39Z</time>
      </trkpt>
      <trkpt lat="48.05553" lon="3.30985">
        <ele>112</ele>
        <time>2014-04-13T15:24:43Z</time>
      </trkpt>
      <trkpt lat="48.05548" lon="3.30988">
        <ele>112</ele>
        <time>2014-04-13T15:24:47Z</time>
      </trkpt>
      <trkpt lat="48.05532" lon="3.31008">
        <ele>113</ele>
        <time>2014-04-13T15:25:03Z</time>
      </trkpt>
      <trkpt lat="48.05527" lon="3.31011">
        <ele>113</ele>
        <time>2014-04-13T15:25:07Z</time>
      </trkpt>
      <trkpt lat="48.05523" lon="3.31014">
        <ele>113</ele>
        <time>2014-04-13T15:25:11Z</time>
      </trkpt>
      <trkpt lat="48.05514" lon="3.31023">
        <ele>113</ele>
        <time>2014-04-13T15:25:19Z</time>
      </trkpt>
      <trkpt lat="48.05505" lon="3.3103">
        <ele>113</ele>
        <time>2014-04-13T15:25:27Z</time>
      </trkpt>
      <trkpt lat="48.05501" lon="3.31035">
        <ele>113</ele>
        <time>2014-04-13T15:25:33Z</time>
      </trkpt>
      <trkpt lat="48.05499" lon="3.31041">
        <ele>113</ele>
        <time>2014-04-13T15:25:36Z</time>
      </trkpt>
      <trkpt lat="48.05494" lon="3.31044">
        <ele>113</ele>
        <time>2014-04-13T15:25:41Z</time>
      </trkpt>
      <trkpt lat="48.05489" lon="3.31048">
        <ele>113</ele>
        <time>2014-04-13T15:25:46Z</time>
      </trkpt>
      <trkpt lat="48.05466" lon="3.31081">
        <ele>113</ele>
        <time>2014-04-13T15:26:11Z</time>
      </trkpt>
      <trkpt lat="48.05463" lon="3.31088">
        <ele>114</ele>
        <time>2014-04-13T15:26:16Z</time>
      </trkpt>
      <trkpt lat="48.05456" lon="3.31097">
        <ele>114</ele>
        <time>2014-04-13T15:26:24Z</time>
      </trkpt>
      <trkpt lat="48.05453" lon="3.31104">
        <ele>114</ele>
        <time>2014-04-13T15:26:28Z</time>
      </trkpt>
      <trkpt lat="48.05425" lon="3.31147">
        <ele>114</ele>
        <time>2014-04-13T15:27:00Z</time>
      </trkpt>
      <trkpt lat="48.05419" lon="3.31159">
        <ele>114</ele>
        <time>2014-04-13T15:27:08Z</time>
      </trkpt>
      <trkpt lat="48.05414" lon="3.31162">
        <ele>114</ele>
        <time>2014-04-13T15:27:13Z</time>
      </trkpt>
      <trkpt lat="48.05374" lon="3.31211">
        <ele>115</ele>
        <time>2014-04-13T15:27:55Z</time>
      </trkpt>
      <trkpt lat="48.05368" lon="3.31222">
        <ele>115</ele>
        <time>2014-04-13T15:28:03Z</time>
      </trkpt>
      <trkpt lat="48.0536" lon="3.31231">
        <ele>115</ele>
        <time>2014-04-13T15:28:11Z</time>
      </trkpt>
      <trkpt lat="48.05289" lon="3.31291">
        <ele>113</ele>
        <time>2014-04-13T15:29:16Z</time>
      </trkpt>
      <trkpt lat="48.05285" lon="3.31297">
        <ele>113</ele>
        <time>2014-04-13T15:29:21Z</time>
      </trkpt>
      <trkpt lat="48.05276" lon="3.31301">
        <ele>113</ele>
        <time>2014-04-13T15:29:29Z</time>
      </trkpt>
      <trkpt lat="48.05272" lon="3.31304">
        <ele>113</ele>
        <time>2014-04-13T15:29:33Z</time>
      </trkpt>
      <trkpt lat="48.05264" lon="3.31313">
        <ele>113</ele>
        <time>2014-04-13T15:29:40Z</time>
      </trkpt>
      <trkpt lat="48.05258" lon="3.31316">
        <ele>113</ele>
        <time>2014-04-13T15:29:44Z</time>
      </trkpt>
      <trkpt lat="48.0525" lon="3.31325">
        <ele>111</ele>
        <time>2014-04-13T15:29:52Z</time>
      </trkpt>
      <trkpt lat="48.05245" lon="3.3133">
        <ele>111</ele>
        <time>2014-04-13T15:29:56Z</time>
      </trkpt>
      <trkpt lat="48.05241" lon="3.31332">
        <ele>111</ele>
        <time>2014-04-13T15:30:00Z</time>
      </trkpt>
      <trkpt lat="48.05236" lon="3.31332">
        <ele>110</ele>
        <time>2014-04-13T15:30:04Z</time>
      </trkpt>
      <trkpt lat="48.05232" lon="3.31335">
        <ele>111</ele>
        <time>2014-04-13T15:30:08Z</time>
      </trkpt>
      <trkpt lat="48.05225" lon="3.31349">
        <ele>110</ele>
        <time>2014-04-13T15:30:18Z</time>
      </trkpt>
      <trkpt lat="48.05217" lon="3.3136">
        <ele>109</ele>
        <time>2014-04-13T15:30:25Z</time>
      </trkpt>
      <trkpt lat="48.05208" lon="3.31368">
        <ele>109</ele>
        <time>2014-04-13T15:30:34Z</time>
      </trkpt>
      <trkpt lat="48.05197" lon="3.31386">
        <ele>109</ele>
        <time>2014-04-13T15:30:47Z</time>
      </trkpt>
      <trkpt lat="48.05193" lon="3.3139">
        <ele>108</ele>
        <time>2014-04-13T15:30:51Z</time>
      </trkpt>
      <trkpt lat="48.05182" lon="3.31405">
        <ele>108</ele>
        <time>2014-04-13T15:31:01Z</time>
      </trkpt>
      <trkpt lat="48.05173" lon="3.31415">
        <ele>107</ele>
        <time>2014-04-13T15:31:07Z</time>
      </trkpt>
      <trkpt lat="48.0517" lon="3.31421">
        <ele>107</ele>
        <time>2014-04-13T15:31:10Z</time>
      </trkpt>
      <trkpt lat="48.05162" lon="3.31431">
        <ele>104</ele>
        <time>2014-04-13T15:31:21Z</time>
      </trkpt>
      <trkpt lat="48.05153" lon="3.3144">
        <ele>103</ele>
        <time>2014-04-13T15:31:30Z</time>
      </trkpt>
      <trkpt lat="48.05134" lon="3.31466">
        <ele>101</ele>
        <time>2014-04-13T15:31:53Z</time>
      </trkpt>
      <trkpt lat="48.05127" lon="3.31478">
        <ele>101</ele>
        <time>2014-04-13T15:32:02Z</time>
      </trkpt>
      <trkpt lat="48.05119" lon="3.31497">
        <ele>101</ele>
        <time>2014-04-13T15:32:14Z</time>
      </trkpt>
      <trkpt lat="48.05116" lon="3.31502">
        <ele>101</ele>
        <time>2014-04-13T15:32:19Z</time>
      </trkpt>
      <trkpt lat="48.05113" lon="3.31507">
        <ele>101</ele>
        <time>2014-04-13T15:32:23Z</time>
      </trkpt>
      <trkpt lat="48.0511" lon="3.31514">
        <ele>101</ele>
        <time>2014-04-13T15:32:26Z</time>
      </trkpt>
      <trkpt lat="48.05107" lon="3.31519">
        <ele>101</ele>
        <time>2014-04-13T15:32:31Z</time>
      </trkpt>
      <trkpt lat="48.05106" lon="3.31526">
        <ele>101</ele>
        <time>2014-04-13T15:32:36Z</time>
      </trkpt>
      <trkpt lat="48.05105" lon="3.31534">
        <ele>101</ele>
        <time>2014-04-13T15:32:40Z</time>
      </trkpt>
      <trkpt lat="48.05077" lon="3.31635">
        <ele>94</ele>
        <time>2014-04-13T15:33:40Z</time>
      </trkpt>
      <trkpt lat="48.05076" lon="3.31657">
        <ele>95</ele>
        <time>2014-04-13T15:33:52Z</time>
      </trkpt>
      <trkpt lat="48.05075" lon="3.31664">
        <ele>95</ele>
        <time>2014-04-13T15:33:56Z</time>
      </trkpt>
      <trkpt lat="48.05073" lon="3.31695">
        <ele>94</ele>
        <time>2014-04-13T15:34:13Z</time>
      </trkpt>
      <trkpt lat="48.05074" lon="3.31702">
        <ele>94</ele>
        <time>2014-04-13T15:34:17Z</time>
      </trkpt>
      <trkpt lat="48.0507" lon="3.31699">
        <ele>94</ele>
        <time>2014-04-13T15:34:31Z</time>
      </trkpt>
      <trkpt lat="48.05069" lon="3.31693">
        <ele>94</ele>
        <time>2014-04-13T15:34:37Z</time>
      </trkpt>
      <trkpt lat="48.0507" lon="3.31685">
        <ele>94</ele>
        <time>2014-04-13T15:34:41Z</time>
      </trkpt>
      <trkpt lat="48.0507" lon="3.31677">
        <ele>94</ele>
        <time>2014-04-13T15:34:45Z</time>
      </trkpt>
      <trkpt lat="48.05072" lon="3.3167">
        <ele>95</ele>
        <time>2014-04-13T15:34:49Z</time>
      </trkpt>
      <trkpt lat="48.05066" lon="3.3167">
        <ele>94</ele>
        <time>2014-04-13T15:34:56Z</time>
      </trkpt>
      <trkpt lat="48.05065" lon="3.31678">
        <ele>94</ele>
        <time>2014-04-13T15:35:00Z</time>
      </trkpt>
      <trkpt lat="48.05064" lon="3.31686">
        <ele>94</ele>
        <time>2014-04-13T15:35:04Z</time>
      </trkpt>
      <trkpt lat="48.05057" lon="3.31706">
        <ele>93</ele>
        <time>2014-04-13T15:35:17Z</time>
      </trkpt>
      <trkpt lat="48.05053" lon="3.31712">
        <ele>93</ele>
        <time>2014-04-13T15:35:20Z</time>
      </trkpt>
      <trkpt lat="48.05051" lon="3.31718">
        <ele>93</ele>
        <time>2014-04-13T15:35:24Z</time>
      </trkpt>
      <trkpt lat="48.0505" lon="3.31725">
        <ele>93</ele>
        <time>2014-04-13T15:35:28Z</time>
      </trkpt>
      <trkpt lat="48.05041" lon="3.31745">
        <ele>93</ele>
        <time>2014-04-13T15:35:40Z</time>
      </trkpt>
      <trkpt lat="48.05027" lon="3.31768">
        <ele>94</ele>
        <time>2014-04-13T15:35:56Z</time>
      </trkpt>
      <trkpt lat="48.05018" lon="3.31777">
        <ele>94</ele>
        <time>2014-04-13T15:36:04Z</time>
      </trkpt>
      <trkpt lat="48.05015" lon="3.31783">
        <ele>94</ele>
        <time>2014-04-13T15:36:08Z</time>
      </trkpt>
      <trkpt lat="48.04998" lon="3.31797">
        <ele>93</ele>
        <time>2014-04-13T15:36:24Z</time>
      </trkpt>
      <trkpt lat="48.04994" lon="3.31801">
        <ele>93</ele>
        <time>2014-04-13T15:36:29Z</time>
      </trkpt>
      <trkpt lat="48.0499" lon="3.31804">
        <ele>93</ele>
        <time>2014-04-13T15:36:33Z</time>
      </trkpt>
      <trkpt lat="48.04985" lon="3.31804">
        <ele>93</ele>
        <time>2014-04-13T15:36:37Z</time>
      </trkpt>
      <trkpt lat="48.04982" lon="3.31822">
        <ele>93</ele>
        <time>2014-04-13T15:36:45Z</time>
      </trkpt>
      <trkpt lat="48.04981" lon="3.31828">
        <ele>93</ele>
        <time>2014-04-13T15:36:49Z</time>
      </trkpt>
      <trkpt lat="48.04975" lon="3.31842">
        <ele>94</ele>
        <time>2014-04-13T15:36:54Z</time>
      </trkpt>
      <trkpt lat="48.04973" lon="3.3185">
        <ele>94</ele>
        <time>2014-04-13T15:36:57Z</time>
      </trkpt>
      <trkpt lat="48.04971" lon="3.31856">
        <ele>94</ele>
        <time>2014-04-13T15:37:03Z</time>
      </trkpt>
      <trkpt lat="48.04969" lon="3.31862">
        <ele>94</ele>
        <time>2014-04-13T15:37:09Z</time>
      </trkpt>
      <trkpt lat="48.04967" lon="3.31869">
        <ele>94</ele>
        <time>2014-04-13T15:37:15Z</time>
      </trkpt>
      <trkpt lat="48.04967" lon="3.31877">
        <ele>94</ele>
        <time>2014-04-13T15:37:20Z</time>
      </trkpt>
      <trkpt lat="48.04961" lon="3.3189">
        <ele>94</ele>
        <time>2014-04-13T15:37:29Z</time>
      </trkpt>
      <trkpt lat="48.04959" lon="3.31896">
        <ele>94</ele>
        <time>2014-04-13T15:37:33Z</time>
      </trkpt>
      <trkpt lat="48.04956" lon="3.31902">
        <ele>94</ele>
        <time>2014-04-13T15:37:36Z</time>
      </trkpt>
      <trkpt lat="48.04952" lon="3.31935">
        <ele>96</ele>
        <time>2014-04-13T15:37:49Z</time>
      </trkpt>
      <trkpt lat="48.04949" lon="3.31942">
        <ele>96</ele>
        <time>2014-04-13T15:37:54Z</time>
      </trkpt>
      <trkpt lat="48.04947" lon="3.31949">
        <ele>97</ele>
        <time>2014-04-13T15:37:58Z</time>
      </trkpt>
      <trkpt lat="48.04944" lon="3.31955">
        <ele>97</ele>
        <time>2014-04-13T15:38:04Z</time>
      </trkpt>
      <trkpt lat="48.04932" lon="3.31958">
        <ele>96</ele>
        <time>2014-04-13T15:38:11Z</time>
      </trkpt>
      <trkpt lat="48.04927" lon="3.31957">
        <ele>96</ele>
        <time>2014-04-13T15:38:15Z</time>
      </trkpt>
      <trkpt lat="48.04918" lon="3.31959">
        <ele>96</ele>
        <time>2014-04-13T15:38:22Z</time>
      </trkpt>
      <trkpt lat="48.04913" lon="3.31959">
        <ele>91</ele>
        <time>2014-04-13T15:38:25Z</time>
      </trkpt>
      <trkpt lat="48.04908" lon="3.31955">
        <ele>91</ele>
        <time>2014-04-13T15:38:30Z</time>
      </trkpt>
      <trkpt lat="48.04898" lon="3.31952">
        <ele>91</ele>
        <time>2014-04-13T15:38:38Z</time>
      </trkpt>
      <trkpt lat="48.04887" lon="3.3195">
        <ele>90</ele>
        <time>2014-04-13T15:38:46Z</time>
      </trkpt>
      <trkpt lat="48.04882" lon="3.31948">
        <ele>90</ele>
        <time>2014-04-13T15:38:51Z</time>
      </trkpt>
      <trkpt lat="48.04878" lon="3.31944">
        <ele>90</ele>
        <time>2014-04-13T15:38:55Z</time>
      </trkpt>
      <trkpt lat="48.04872" lon="3.31939">
        <ele>89</ele>
        <time>2014-04-13T15:38:59Z</time>
      </trkpt>
      <trkpt lat="48.04864" lon="3.31935">
        <ele>89</ele>
        <time>2014-04-13T15:39:01Z</time>
      </trkpt>
      <trkpt lat="48.04861" lon="3.31934">
        <ele>89</ele>
        <time>2014-04-13T15:39:04Z</time>
      </trkpt>
      <trkpt lat="48.04858" lon="3.31934">
        <ele>89</ele>
        <time>2014-04-13T15:39:05Z</time>
      </trkpt>
      <trkpt lat="48.04855" lon="3.31934">
        <ele>88</ele>
        <time>2014-04-13T15:39:07Z</time>
      </trkpt>
      <trkpt lat="48.04845" lon="3.31937">
        <ele>88</ele>
        <time>2014-04-13T15:39:20Z</time>
      </trkpt>
      <trkpt lat="48.04841" lon="3.31938">
        <ele>88</ele>
        <time>2014-04-13T15:39:24Z</time>
      </trkpt>
      <trkpt lat="48.04831" lon="3.31935">
        <ele>84</ele>
        <time>2014-04-13T15:39:32Z</time>
      </trkpt>
      <trkpt lat="48.04814" lon="3.31933">
        <ele>84</ele>
        <time>2014-04-13T15:39:43Z</time>
      </trkpt>
      <trkpt lat="48.04804" lon="3.31926">
        <ele>83</ele>
        <time>2014-04-13T15:39:51Z</time>
      </trkpt>
      <trkpt lat="48.04799" lon="3.31924">
        <ele>83</ele>
        <time>2014-04-13T15:39:55Z</time>
      </trkpt>
      <trkpt lat="48.04793" lon="3.31923">
        <ele>82</ele>
        <time>2014-04-13T15:39:57Z</time>
      </trkpt>
      <trkpt lat="48.04791" lon="3.31922">
        <ele>82</ele>
        <time>2014-04-13T15:39:59Z</time>
      </trkpt>
      <trkpt lat="48.04788" lon="3.31922">
        <ele>82</ele>
        <time>2014-04-13T15:39:59Z</time>
      </trkpt>
      <trkpt lat="48.04786" lon="3.31922">
        <ele>82</ele>
        <time>2014-04-13T15:40:00Z</time>
      </trkpt>
      <trkpt lat="48.04782" lon="3.31921">
        <ele>82</ele>
        <time>2014-04-13T15:40:03Z</time>
      </trkpt>
      <trkpt lat="48.04779" lon="3.3192">
        <ele>81</ele>
        <time>2014-04-13T15:40:05Z</time>
      </trkpt>
      <trkpt lat="48.04771" lon="3.31917">
        <ele>81</ele>
        <time>2014-04-13T15:40:14Z</time>
      </trkpt>
      <trkpt lat="48.04768" lon="3.31923">
        <ele>81</ele>
        <time>2014-04-13T15:40:22Z</time>
      </trkpt>
      <trkpt lat="48.04767" lon="3.31963">
        <ele>82</ele>
        <time>2014-04-13T15:40:42Z</time>
      </trkpt>
      <trkpt lat="48.04737" lon="3.31979">
        <ele>78</ele>
        <time>2014-04-13T15:41:04Z</time>
      </trkpt>
      <trkpt lat="48.04729" lon="3.31986">
        <ele>78</ele>
        <time>2014-04-13T15:41:10Z</time>
      </trkpt>
      <trkpt lat="48.04718" lon="3.31988">
        <ele>77</ele>
        <time>2014-04-13T15:41:22Z</time>
      </trkpt>
      <trkpt lat="48.04708" lon="3.31988">
        <ele>77</ele>
        <time>2014-04-13T15:41:29Z</time>
      </trkpt>
      <trkpt lat="48.04703" lon="3.3199">
        <ele>77</ele>
        <time>2014-04-13T15:41:32Z</time>
      </trkpt>
      <trkpt lat="48.04698" lon="3.31994">
        <ele>77</ele>
        <time>2014-04-13T15:41:37Z</time>
      </trkpt>
      <trkpt lat="48.04693" lon="3.31996">
        <ele>76</ele>
        <time>2014-04-13T15:41:42Z</time>
      </trkpt>
      <trkpt lat="48.04688" lon="3.31996">
        <ele>76</ele>
        <time>2014-04-13T15:41:46Z</time>
      </trkpt>
      <trkpt lat="48.04683" lon="3.31994">
        <ele>76</ele>
        <time>2014-04-13T15:41:51Z</time>
      </trkpt>
      <trkpt lat="48.04681" lon="3.31979">
        <ele>76</ele>
        <time>2014-04-13T15:41:59Z</time>
      </trkpt>
      <trkpt lat="48.04677" lon="3.31965">
        <ele>76</ele>
        <time>2014-04-13T15:42:06Z</time>
      </trkpt>
      <trkpt lat="48.04672" lon="3.31953">
        <ele>76</ele>
        <time>2014-04-13T15:42:13Z</time>
      </trkpt>
      <trkpt lat="48.04669" lon="3.31939">
        <ele>75</ele>
        <time>2014-04-13T15:42:21Z</time>
      </trkpt>
      <trkpt lat="48.04665" lon="3.31934">
        <ele>74</ele>
        <time>2014-04-13T15:42:28Z</time>
      </trkpt>
      <trkpt lat="48.04661" lon="3.31937">
        <ele>74</ele>
        <time>2014-04-13T15:42:32Z</time>
      </trkpt>
      <trkpt lat="48.04656" lon="3.31935">
        <ele>74</ele>
        <time>2014-04-13T15:42:36Z</time>
      </trkpt>
      <trkpt lat="48.04639" lon="3.31918">
        <ele>74</ele>
        <time>2014-04-13T15:42:52Z</time>
      </trkpt>
      <trkpt lat="48.04633" lon="3.31915">
        <ele>74</ele>
        <time>2014-04-13T15:42:56Z</time>
      </trkpt>
      <trkpt lat="48.04629" lon="3.31912">
        <ele>74</ele>
        <time>2014-04-13T15:43:00Z</time>
      </trkpt>
      <trkpt lat="48.04625" lon="3.31907">
        <ele>74</ele>
        <time>2014-04-13T15:43:03Z</time>
      </trkpt>
      <trkpt lat="48.04623" lon="3.31901">
        <ele>74</ele>
        <time>2014-04-13T15:43:08Z</time>
      </trkpt>
      <trkpt lat="48.04614" lon="3.31892">
        <ele>74</ele>
        <time>2014-04-13T15:43:16Z</time>
      </trkpt>
      <trkpt lat="48.04605" lon="3.31874">
        <ele>73</ele>
        <time>2014-04-13T15:43:29Z</time>
      </trkpt>
      <trkpt lat="48.046" lon="3.31873">
        <ele>73</ele>
        <time>2014-04-13T15:43:33Z</time>
      </trkpt>
      <trkpt lat="48.04595" lon="3.31877">
        <ele>74</ele>
        <time>2014-04-13T15:43:37Z</time>
      </trkpt>
      <trkpt lat="48.04591" lon="3.31883">
        <ele>74</ele>
        <time>2014-04-13T15:43:40Z</time>
      </trkpt>
      <trkpt lat="48.04583" lon="3.31894">
        <ele>74</ele>
        <time>2014-04-13T15:43:47Z</time>
      </trkpt>
      <trkpt lat="48.0458" lon="3.31901">
        <ele>74</ele>
        <time>2014-04-13T15:43:52Z</time>
      </trkpt>
      <trkpt lat="48.04575" lon="3.31906">
        <ele>74</ele>
        <time>2014-04-13T15:43:58Z</time>
      </trkpt>
      <trkpt lat="48.04571" lon="3.3191">
        <ele>74</ele>
        <time>2014-04-13T15:44:02Z</time>
      </trkpt>
      <trkpt lat="48.04568" lon="3.31915">
        <ele>74</ele>
        <time>2014-04-13T15:44:09Z</time>
      </trkpt>
      <trkpt lat="48.04563" lon="3.31921">
        <ele>74</ele>
        <time>2014-04-13T15:44:16Z</time>
      </trkpt>
      <trkpt lat="48.04543" lon="3.31954">
        <ele>74</ele>
        <time>2014-04-13T15:44:36Z</time>
      </trkpt>
      <trkpt lat="48.04538" lon="3.3196">
        <ele>74</ele>
        <time>2014-04-13T15:44:41Z</time>
      </trkpt>
      <trkpt lat="48.04533" lon="3.31963">
        <ele>74</ele>
        <time>2014-04-13T15:44:44Z</time>
      </trkpt>
      <trkpt lat="48.04529" lon="3.31963">
        <ele>74</ele>
        <time>2014-04-13T15:44:52Z</time>
      </trkpt>
      <trkpt lat="48.04524" lon="3.31965">
        <ele>74</ele>
        <time>2014-04-13T15:44:57Z</time>
      </trkpt>
      <trkpt lat="48.0452" lon="3.3197">
        <ele>74</ele>
        <time>2014-04-13T15:44:59Z</time>
      </trkpt>
      <trkpt lat="48.04516" lon="3.31983">
        <ele>75</ele>
        <time>2014-04-13T15:45:05Z</time>
      </trkpt>
      <trkpt lat="48.04512" lon="3.31989">
        <ele>75</ele>
        <time>2014-04-13T15:45:09Z</time>
      </trkpt>
      <trkpt lat="48.04508" lon="3.31994">
        <ele>75</ele>
        <time>2014-04-13T15:45:14Z</time>
      </trkpt>
      <trkpt lat="48.04505" lon="3.32001">
        <ele>75</ele>
        <time>2014-04-13T15:45:19Z</time>
      </trkpt>
      <trkpt lat="48.04499" lon="3.3201">
        <ele>75</ele>
        <time>2014-04-14T06:30:30Z</time>
      </trkpt>
      <trkpt lat="48.04496" lon="3.32007">
        <ele>75</ele>
        <time>2014-04-14T06:30:37Z</time>
      </trkpt>
      <trkpt lat="48.04488" lon="3.32012">
        <ele>75</ele>
        <time>2014-04-14T06:30:47Z</time>
      </trkpt>
      <trkpt lat="48.04485" lon="3.32018">
        <ele>74</ele>
        <time>2014-04-14T06:30:51Z</time>
      </trkpt>
      <trkpt lat="48.04477" lon="3.32028">
        <ele>74</ele>
        <time>2014-04-14T06:30:59Z</time>
      </trkpt>
      <trkpt lat="48.04471" lon="3.32034">
        <ele>74</ele>
        <time>2014-04-14T06:31:05Z</time>
      </trkpt>
      <trkpt lat="48.04468" lon="3.32041">
        <ele>74</ele>
        <time>2014-04-14T06:31:12Z</time>
      </trkpt>
      <trkpt lat="48.04464" lon="3.32044">
        <ele>74</ele>
        <time>2014-04-14T06:31:16Z</time>
      </trkpt>
      <trkpt lat="48.04462" lon="3.32049">
        <ele>74</ele>
        <time>2014-04-14T06:31:21Z</time>
      </trkpt>
      <trkpt lat="48.04454" lon="3.32059">
        <ele>74</ele>
        <time>2014-04-14T06:31:30Z</time>
      </trkpt>
      <trkpt lat="48.04443" lon="3.32076">
        <ele>74</ele>
        <time>2014-04-14T06:31:43Z</time>
      </trkpt>
      <trkpt lat="48.04429" lon="3.32087">
        <ele>74</ele>
        <time>2014-04-14T06:31:56Z</time>
      </trkpt>
      <trkpt lat="48.04412" lon="3.32102">
        <ele>73</ele>
        <time>2014-04-14T06:32:12Z</time>
      </trkpt>
      <trkpt lat="48.04407" lon="3.32105">
        <ele>73</ele>
        <time>2014-04-14T06:32:15Z</time>
      </trkpt>
      <trkpt lat="48.04402" lon="3.32106">
        <ele>73</ele>
        <time>2014-04-14T06:32:19Z</time>
      </trkpt>
      <trkpt lat="48.04396" lon="3.32106">
        <ele>73</ele>
        <time>2014-04-14T06:32:23Z</time>
      </trkpt>
      <trkpt lat="48.04391" lon="3.32106">
        <ele>73</ele>
        <time>2014-04-14T06:32:27Z</time>
      </trkpt>
      <trkpt lat="48.04375" lon="3.32113">
        <ele>73</ele>
        <time>2014-04-14T06:32:39Z</time>
      </trkpt>
      <trkpt lat="48.0437" lon="3.32114">
        <ele>73</ele>
        <time>2014-04-14T06:32:45Z</time>
      </trkpt>
      <trkpt lat="48.04365" lon="3.32115">
        <ele>73</ele>
        <time>2014-04-14T06:32:49Z</time>
      </trkpt>
      <trkpt lat="48.04361" lon="3.32115">
        <ele>73</ele>
        <time>2014-04-14T06:32:53Z</time>
      </trkpt>
      <trkpt lat="48.04356" lon="3.32113">
        <ele>72</ele>
        <time>2014-04-14T06:32:57Z</time>
      </trkpt>
      <trkpt lat="48.04351" lon="3.32113">
        <ele>72</ele>
        <time>2014-04-14T06:33:02Z</time>
      </trkpt>
      <trkpt lat="48.0434" lon="3.32108">
        <ele>72</ele>
        <time>2014-04-14T06:33:11Z</time>
      </trkpt>
      <trkpt lat="48.04335" lon="3.32105">
        <ele>72</ele>
        <time>2014-04-14T06:33:15Z</time>
      </trkpt>
      <trkpt lat="48.04325" lon="3.32099">
        <ele>73</ele>
        <time>2014-04-14T06:33:22Z</time>
      </trkpt>
      <trkpt lat="48.04312" lon="3.32088">
        <ele>73</ele>
        <time>2014-04-14T06:33:33Z</time>
      </trkpt>
      <trkpt lat="48.04302" lon="3.32085">
        <ele>73</ele>
        <time>2014-04-14T06:33:42Z</time>
      </trkpt>
      <trkpt lat="48.04297" lon="3.32082">
        <ele>74</ele>
        <time>2014-04-14T06:33:46Z</time>
      </trkpt>
      <trkpt lat="48.04292" lon="3.3208">
        <ele>74</ele>
        <time>2014-04-14T06:33:51Z</time>
      </trkpt>
      <trkpt lat="48.04286" lon="3.32079">
        <ele>74</ele>
        <time>2014-04-14T06:33:54Z</time>
      </trkpt>
      <trkpt lat="48.04271" lon="3.32075">
        <ele>74</ele>
        <time>2014-04-14T06:34:04Z</time>
      </trkpt>
      <trkpt lat="48.04267" lon="3.32071">
        <ele>74</ele>
        <time>2014-04-14T06:34:08Z</time>
      </trkpt>
      <trkpt lat="48.04263" lon="3.32067">
        <ele>74</ele>
        <time>2014-04-14T06:34:12Z</time>
      </trkpt>
      <trkpt lat="48.04254" lon="3.32061">
        <ele>74</ele>
        <time>2014-04-14T06:34:22Z</time>
      </trkpt>
      <trkpt lat="48.04248" lon="3.3206">
        <ele>75</ele>
        <time>2014-04-14T06:34:26Z</time>
      </trkpt>
      <trkpt lat="48.04244" lon="3.32057">
        <ele>75</ele>
        <time>2014-04-14T06:34:31Z</time>
      </trkpt>
      <trkpt lat="48.04237" lon="3.32046">
        <ele>75</ele>
        <time>2014-04-14T06:34:41Z</time>
      </trkpt>
      <trkpt lat="48.04232" lon="3.32043">
        <ele>75</ele>
        <time>2014-04-14T06:34:45Z</time>
      </trkpt>
      <trkpt lat="48.04227" lon="3.32041">
        <ele>75</ele>
        <time>2014-04-14T06:34:48Z</time>
      </trkpt>
      <trkpt lat="48.04222" lon="3.32038">
        <ele>75</ele>
        <time>2014-04-14T06:34:52Z</time>
      </trkpt>
      <trkpt lat="48.04218" lon="3.32033">
        <ele>75</ele>
        <time>2014-04-14T06:34:56Z</time>
      </trkpt>
      <trkpt lat="48.04213" lon="3.32032">
        <ele>75</ele>
        <time>2014-04-14T06:35:00Z</time>
      </trkpt>
      <trkpt lat="48.04208" lon="3.32029">
        <ele>75</ele>
        <time>2014-04-14T06:35:04Z</time>
      </trkpt>
      <trkpt lat="48.04204" lon="3.32024">
        <ele>75</ele>
        <time>2014-04-14T06:35:09Z</time>
      </trkpt>
      <trkpt lat="48.042" lon="3.32021">
        <ele>75</ele>
        <time>2014-04-14T06:35:15Z</time>
      </trkpt>
      <trkpt lat="48.04191" lon="3.32017">
        <ele>75</ele>
        <time>2014-04-14T06:35:24Z</time>
      </trkpt>
      <trkpt lat="48.04187" lon="3.32012">
        <ele>75</ele>
        <time>2014-04-14T06:35:30Z</time>
      </trkpt>
      <trkpt lat="48.04185" lon="3.32006">
        <ele>75</ele>
        <time>2014-04-14T06:35:38Z</time>
      </trkpt>
      <trkpt lat="48.04181" lon="3.32005">
        <ele>75</ele>
        <time>2014-04-14T06:35:41Z</time>
      </trkpt>
      <trkpt lat="48.04176" lon="3.32005">
        <ele>75</ele>
        <time>2014-04-14T06:35:44Z</time>
      </trkpt>
      <trkpt lat="48.0417" lon="3.32004">
        <ele>75</ele>
        <time>2014-04-14T06:35:47Z</time>
      </trkpt>
      <trkpt lat="48.04165" lon="3.32">
        <ele>75</ele>
        <time>2014-04-14T06:35:50Z</time>
      </trkpt>
      <trkpt lat="48.04157" lon="3.31997">
        <ele>75</ele>
        <time>2014-04-14T06:35:56Z</time>
      </trkpt>
      <trkpt lat="48.04143" lon="3.31988">
        <ele>74</ele>
        <time>2014-04-14T06:36:13Z</time>
      </trkpt>
      <trkpt lat="48.04132" lon="3.31984">
        <ele>74</ele>
        <time>2014-04-14T06:36:21Z</time>
      </trkpt>
      <trkpt lat="48.04127" lon="3.31983">
        <ele>74</ele>
        <time>2014-04-14T06:36:25Z</time>
      </trkpt>
      <trkpt lat="48.04122" lon="3.31983">
        <ele>74</ele>
        <time>2014-04-14T06:36:29Z</time>
      </trkpt>
      <trkpt lat="48.04117" lon="3.3198">
        <ele>74</ele>
        <time>2014-04-14T06:36:33Z</time>
      </trkpt>
      <trkpt lat="48.04113" lon="3.31977">
        <ele>74</ele>
        <time>2014-04-14T06:36:35Z</time>
      </trkpt>
      <trkpt lat="48.04104" lon="3.31967">
        <ele>74</ele>
        <time>2014-04-14T06:36:41Z</time>
      </trkpt>
      <trkpt lat="48.041" lon="3.31967">
        <ele>74</ele>
        <time>2014-04-14T06:36:46Z</time>
      </trkpt>
      <trkpt lat="48.04095" lon="3.31966">
        <ele>74</ele>
        <time>2014-04-14T06:36:50Z</time>
      </trkpt>
      <trkpt lat="48.0409" lon="3.31966">
        <ele>74</ele>
        <time>2014-04-14T06:36:54Z</time>
      </trkpt>
      <trkpt lat="48.04085" lon="3.31963">
        <ele>74</ele>
        <time>2014-04-14T06:36:59Z</time>
      </trkpt>
      <trkpt lat="48.04081" lon="3.3196">
        <ele>74</ele>
        <time>2014-04-14T06:37:05Z</time>
      </trkpt>
      <trkpt lat="48.0407" lon="3.31957">
        <ele>74</ele>
        <time>2014-04-14T06:37:14Z</time>
      </trkpt>
      <trkpt lat="48.04049" lon="3.31953">
        <ele>73</ele>
        <time>2014-04-14T06:37:34Z</time>
      </trkpt>
      <trkpt lat="48.04045" lon="3.31951">
        <ele>73</ele>
        <time>2014-04-14T06:37:38Z</time>
      </trkpt>
      <trkpt lat="48.0404" lon="3.31949">
        <ele>73</ele>
        <time>2014-04-14T06:37:43Z</time>
      </trkpt>
      <trkpt lat="48.04031" lon="3.31947">
        <ele>73</ele>
        <time>2014-04-14T06:37:51Z</time>
      </trkpt>
      <trkpt lat="48.04026" lon="3.31944">
        <ele>73</ele>
        <time>2014-04-14T06:37:56Z</time>
      </trkpt>
      <trkpt lat="48.04021" lon="3.31942">
        <ele>73</ele>
        <time>2014-04-14T06:38:01Z</time>
      </trkpt>
      <trkpt lat="48.04006" lon="3.31941">
        <ele>73</ele>
        <time>2014-04-14T06:38:13Z</time>
      </trkpt>
      <trkpt lat="48.03995" lon="3.31942">
        <ele>72</ele>
        <time>2014-04-14T06:38:21Z</time>
      </trkpt>
      <trkpt lat="48.03991" lon="3.31941">
        <ele>72</ele>
        <time>2014-04-14T06:38:25Z</time>
      </trkpt>
      <trkpt lat="48.03986" lon="3.31939">
        <ele>72</ele>
        <time>2014-04-14T06:38:29Z</time>
      </trkpt>
      <trkpt lat="48.03949" lon="3.31938">
        <ele>71</ele>
        <time>2014-04-14T06:38:58Z</time>
      </trkpt>
      <trkpt lat="48.0394" lon="3.31934">
        <ele>71</ele>
        <time>2014-04-14T06:39:08Z</time>
      </trkpt>
      <trkpt lat="48.0393" lon="3.31933">
        <ele>71</ele>
        <time>2014-04-14T06:39:17Z</time>
      </trkpt>
      <trkpt lat="48.0392" lon="3.31936">
        <ele>71</ele>
        <time>2014-04-14T06:39:23Z</time>
      </trkpt>
      <trkpt lat="48.03915" lon="3.31936">
        <ele>71</ele>
        <time>2014-04-14T06:39:26Z</time>
      </trkpt>
      <trkpt lat="48.0391" lon="3.31935">
        <ele>71</ele>
        <time>2014-04-14T06:39:31Z</time>
      </trkpt>
      <trkpt lat="48.03905" lon="3.31934">
        <ele>71</ele>
        <time>2014-04-14T06:39:36Z</time>
      </trkpt>
      <trkpt lat="48.039" lon="3.31933">
        <ele>71</ele>
        <time>2014-04-14T06:39:40Z</time>
      </trkpt>
      <trkpt lat="48.03894" lon="3.31933">
        <ele>71</ele>
        <time>2014-04-14T06:39:44Z</time>
      </trkpt>
      <trkpt lat="48.0389" lon="3.31934">
        <ele>71</ele>
        <time>2014-04-14T06:39:47Z</time>
      </trkpt>
      <trkpt lat="48.03885" lon="3.31932">
        <ele>71</ele>
        <time>2014-04-14T06:39:54Z</time>
      </trkpt>
      <trkpt lat="48.0388" lon="3.31927">
        <ele>71</ele>
        <time>2014-04-14T06:39:58Z</time>
      </trkpt>
      <trkpt lat="48.03875" lon="3.31927">
        <ele>71</ele>
        <time>2014-04-14T06:40:01Z</time>
      </trkpt>
      <trkpt lat="48.03864" lon="3.31929">
        <ele>71</ele>
        <time>2014-04-14T06:40:09Z</time>
      </trkpt>
      <trkpt lat="48.03854" lon="3.31929">
        <ele>71</ele>
        <time>2014-04-14T06:40:19Z</time>
      </trkpt>
      <trkpt lat="48.03848" lon="3.31931">
        <ele>71</ele>
        <time>2014-04-14T06:40:23Z</time>
      </trkpt>
      <trkpt lat="48.03843" lon="3.31931">
        <ele>71</ele>
        <time>2014-04-14T06:40:28Z</time>
      </trkpt>
      <trkpt lat="48.03838" lon="3.3193">
        <ele>71</ele>
        <time>2014-04-14T06:40:33Z</time>
      </trkpt>
      <trkpt lat="48.03833" lon="3.31932">
        <ele>71</ele>
        <time>2014-04-14T06:40:40Z</time>
      </trkpt>
      <trkpt lat="48.03827" lon="3.31933">
        <ele>71</ele>
        <time>2014-04-14T06:40:45Z</time>
      </trkpt>
      <trkpt lat="48.03801" lon="3.31935">
        <ele>71</ele>
        <time>2014-04-14T06:41:04Z</time>
      </trkpt>
      <trkpt lat="48.03797" lon="3.31929">
        <ele>71</ele>
        <time>2014-04-14T06:41:10Z</time>
      </trkpt>
      <trkpt lat="48.03781" lon="3.31927">
        <ele>71</ele>
        <time>2014-04-14T06:41:25Z</time>
      </trkpt>
      <trkpt lat="48.03776" lon="3.31926">
        <ele>71</ele>
        <time>2014-04-14T06:41:29Z</time>
      </trkpt>
      <trkpt lat="48.03771" lon="3.31927">
        <ele>72</ele>
        <time>2014-04-14T06:41:33Z</time>
      </trkpt>
      <trkpt lat="48.03761" lon="3.31928">
        <ele>72</ele>
        <time>2014-04-14T06:41:44Z</time>
      </trkpt>
      <trkpt lat="48.03757" lon="3.31932">
        <ele>72</ele>
        <time>2014-04-14T06:41:48Z</time>
      </trkpt>
      <trkpt lat="48.03752" lon="3.31933">
        <ele>72</ele>
        <time>2014-04-14T06:41:52Z</time>
      </trkpt>
      <trkpt lat="48.03746" lon="3.31932">
        <ele>72</ele>
        <time>2014-04-14T06:41:57Z</time>
      </trkpt>
      <trkpt lat="48.0374" lon="3.3193">
        <ele>72</ele>
        <time>2014-04-14T06:42:01Z</time>
      </trkpt>
      <trkpt lat="48.03734" lon="3.31929">
        <ele>72</ele>
        <time>2014-04-14T06:42:05Z</time>
      </trkpt>
      <trkpt lat="48.03729" lon="3.3193">
        <ele>72</ele>
        <time>2014-04-14T06:42:09Z</time>
      </trkpt>
      <trkpt lat="48.03724" lon="3.31928">
        <ele>72</ele>
        <time>2014-04-14T06:42:16Z</time>
      </trkpt>
      <trkpt lat="48.03719" lon="3.31927">
        <ele>72</ele>
        <time>2014-04-14T06:42:20Z</time>
      </trkpt>
      <trkpt lat="48.03708" lon="3.31931">
        <ele>71</ele>
        <time>2014-04-14T06:42:28Z</time>
      </trkpt>
      <trkpt lat="48.03693" lon="3.31934">
        <ele>71</ele>
        <time>2014-04-14T06:42:39Z</time>
      </trkpt>
      <trkpt lat="48.03688" lon="3.31935">
        <ele>71</ele>
        <time>2014-04-14T06:42:42Z</time>
      </trkpt>
      <trkpt lat="48.03683" lon="3.31935">
        <ele>72</ele>
        <time>2014-04-14T06:42:47Z</time>
      </trkpt>
      <trkpt lat="48.03673" lon="3.31937">
        <ele>72</ele>
        <time>2014-04-14T06:42:55Z</time>
      </trkpt>
      <trkpt lat="48.03668" lon="3.31938">
        <ele>72</ele>
        <time>2014-04-14T06:43:01Z</time>
      </trkpt>
      <trkpt lat="48.03663" lon="3.31937">
        <ele>72</ele>
        <time>2014-04-14T06:43:07Z</time>
      </trkpt>
      <trkpt lat="48.03648" lon="3.31938">
        <ele>72</ele>
        <time>2014-04-14T06:43:17Z</time>
      </trkpt>
      <trkpt lat="48.03643" lon="3.31939">
        <ele>72</ele>
        <time>2014-04-14T06:43:21Z</time>
      </trkpt>
      <trkpt lat="48.03638" lon="3.3194">
        <ele>72</ele>
        <time>2014-04-14T06:43:25Z</time>
      </trkpt>
      <trkpt lat="48.03627" lon="3.31944">
        <ele>72</ele>
        <time>2014-04-14T06:43:35Z</time>
      </trkpt>
      <trkpt lat="48.03623" lon="3.31942">
        <ele>72</ele>
        <time>2014-04-14T06:43:39Z</time>
      </trkpt>
      <trkpt lat="48.03618" lon="3.31942">
        <ele>72</ele>
        <time>2014-04-14T06:43:42Z</time>
      </trkpt>
      <trkpt lat="48.03613" lon="3.3194">
        <ele>72</ele>
        <time>2014-04-14T06:43:48Z</time>
      </trkpt>
      <trkpt lat="48.03607" lon="3.31941">
        <ele>72</ele>
        <time>2014-04-14T06:43:52Z</time>
      </trkpt>
      <trkpt lat="48.03603" lon="3.31942">
        <ele>73</ele>
        <time>2014-04-14T06:43:55Z</time>
      </trkpt>
      <trkpt lat="48.03597" lon="3.31944">
        <ele>73</ele>
        <time>2014-04-14T06:43:59Z</time>
      </trkpt>
      <trkpt lat="48.03591" lon="3.31944">
        <ele>73</ele>
        <time>2014-04-14T06:44:03Z</time>
      </trkpt>
      <trkpt lat="48.03586" lon="3.31945">
        <ele>73</ele>
        <time>2014-04-14T06:44:07Z</time>
      </trkpt>
      <trkpt lat="48.03576" lon="3.31942">
        <ele>73</ele>
        <time>2014-04-14T06:44:17Z</time>
      </trkpt>
      <trkpt lat="48.03571" lon="3.3194">
        <ele>73</ele>
        <time>2014-04-14T06:44:22Z</time>
      </trkpt>
      <trkpt lat="48.03566" lon="3.31942">
        <ele>73</ele>
        <time>2014-04-14T06:44:25Z</time>
      </trkpt>
      <trkpt lat="48.03556" lon="3.31949">
        <ele>73</ele>
        <time>2014-04-14T06:44:33Z</time>
      </trkpt>
      <trkpt lat="48.03547" lon="3.31952">
        <ele>73</ele>
        <time>2014-04-14T06:44:42Z</time>
      </trkpt>
      <trkpt lat="48.03541" lon="3.31956">
        <ele>73</ele>
        <time>2014-04-14T06:44:47Z</time>
      </trkpt>
      <trkpt lat="48.03532" lon="3.31955">
        <ele>73</ele>
        <time>2014-04-14T06:44:53Z</time>
      </trkpt>
      <trkpt lat="48.03527" lon="3.31953">
        <ele>73</ele>
        <time>2014-04-14T06:44:57Z</time>
      </trkpt>
      <trkpt lat="48.03521" lon="3.31953">
        <ele>73</ele>
        <time>2014-04-14T06:45:01Z</time>
      </trkpt>
      <trkpt lat="48.03516" lon="3.31955">
        <ele>73</ele>
        <time>2014-04-14T06:45:05Z</time>
      </trkpt>
      <trkpt lat="48.03506" lon="3.31954">
        <ele>73</ele>
        <time>2014-04-14T06:45:16Z</time>
      </trkpt>
      <trkpt lat="48.03501" lon="3.31955">
        <ele>73</ele>
        <time>2014-04-14T06:45:20Z</time>
      </trkpt>
      <trkpt lat="48.03495" lon="3.31956">
        <ele>73</ele>
        <time>2014-04-14T06:45:31Z</time>
      </trkpt>
      <trkpt lat="48.03478" lon="3.31952">
        <ele>73</ele>
        <time>2014-04-14T06:45:39Z</time>
      </trkpt>
      <trkpt lat="48.03459" lon="3.31954">
        <ele>73</ele>
        <time>2014-04-14T06:45:54Z</time>
      </trkpt>
      <trkpt lat="48.03449" lon="3.31954">
        <ele>72</ele>
        <time>2014-04-14T06:46:04Z</time>
      </trkpt>
      <trkpt lat="48.03444" lon="3.31953">
        <ele>72</ele>
        <time>2014-04-14T06:46:08Z</time>
      </trkpt>
      <trkpt lat="48.03439" lon="3.31954">
        <ele>72</ele>
        <time>2014-04-14T06:46:12Z</time>
      </trkpt>
      <trkpt lat="48.03434" lon="3.31956">
        <ele>72</ele>
        <time>2014-04-14T06:46:17Z</time>
      </trkpt>
      <trkpt lat="48.03429" lon="3.31957">
        <ele>72</ele>
        <time>2014-04-14T06:46:22Z</time>
      </trkpt>
      <trkpt lat="48.03424" lon="3.3196">
        <ele>72</ele>
        <time>2014-04-14T06:46:29Z</time>
      </trkpt>
      <trkpt lat="48.03419" lon="3.31958">
        <ele>72</ele>
        <time>2014-04-14T06:46:33Z</time>
      </trkpt>
      <trkpt lat="48.03407" lon="3.31956">
        <ele>72</ele>
        <time>2014-04-14T06:46:40Z</time>
      </trkpt>
      <trkpt lat="48.03398" lon="3.31952">
        <ele>72</ele>
        <time>2014-04-14T06:46:46Z</time>
      </trkpt>
      <trkpt lat="48.03393" lon="3.31951">
        <ele>72</ele>
        <time>2014-04-14T06:46:50Z</time>
      </trkpt>
      <trkpt lat="48.03389" lon="3.3195">
        <ele>72</ele>
        <time>2014-04-14T06:46:54Z</time>
      </trkpt>
      <trkpt lat="48.03384" lon="3.31951">
        <ele>72</ele>
        <time>2014-04-14T06:46:59Z</time>
      </trkpt>
      <trkpt lat="48.03374" lon="3.31949">
        <ele>72</ele>
        <time>2014-04-14T06:47:06Z</time>
      </trkpt>
      <trkpt lat="48.0336" lon="3.31947">
        <ele>72</ele>
        <time>2014-04-14T06:47:18Z</time>
      </trkpt>
      <trkpt lat="48.03355" lon="3.31948">
        <ele>72</ele>
        <time>2014-04-14T06:47:23Z</time>
      </trkpt>
      <trkpt lat="48.03349" lon="3.31935">
        <ele>72</ele>
        <time>2014-04-14T06:47:30Z</time>
      </trkpt>
      <trkpt lat="48.03345" lon="3.31935">
        <ele>72</ele>
        <time>2014-04-14T06:47:34Z</time>
      </trkpt>
      <trkpt lat="48.03339" lon="3.31937">
        <ele>72</ele>
        <time>2014-04-14T06:47:38Z</time>
      </trkpt>
      <trkpt lat="48.03334" lon="3.31938">
        <ele>72</ele>
        <time>2014-04-14T06:47:41Z</time>
      </trkpt>
      <trkpt lat="48.03315" lon="3.31935">
        <ele>72</ele>
        <time>2014-04-14T06:47:58Z</time>
      </trkpt>
      <trkpt lat="48.0331" lon="3.31934">
        <ele>72</ele>
        <time>2014-04-14T06:48:02Z</time>
      </trkpt>
      <trkpt lat="48.03305" lon="3.31934">
        <ele>72</ele>
        <time>2014-04-14T06:48:06Z</time>
      </trkpt>
      <trkpt lat="48.03301" lon="3.31931">
        <ele>72</ele>
        <time>2014-04-14T06:48:10Z</time>
      </trkpt>
      <trkpt lat="48.03287" lon="3.31925">
        <ele>73</ele>
        <time>2014-04-14T06:48:23Z</time>
      </trkpt>
      <trkpt lat="48.03281" lon="3.31924">
        <ele>73</ele>
        <time>2014-04-14T06:48:28Z</time>
      </trkpt>
      <trkpt lat="48.03276" lon="3.31922">
        <ele>73</ele>
        <time>2014-04-14T06:48:32Z</time>
      </trkpt>
      <trkpt lat="48.03262" lon="3.31919">
        <ele>73</ele>
        <time>2014-04-14T06:48:45Z</time>
      </trkpt>
      <trkpt lat="48.03257" lon="3.3192">
        <ele>73</ele>
        <time>2014-04-14T06:48:52Z</time>
      </trkpt>
      <trkpt lat="48.03252" lon="3.31918">
        <ele>73</ele>
        <time>2014-04-14T06:48:58Z</time>
      </trkpt>
      <trkpt lat="48.03247" lon="3.31916">
        <ele>73</ele>
        <time>2014-04-14T06:49:02Z</time>
      </trkpt>
      <trkpt lat="48.03241" lon="3.31915">
        <ele>73</ele>
        <time>2014-04-14T06:49:06Z</time>
      </trkpt>
      <trkpt lat="48.03238" lon="3.3191">
        <ele>73</ele>
        <time>2014-04-14T06:49:09Z</time>
      </trkpt>
      <trkpt lat="48.03226" lon="3.3191">
        <ele>73</ele>
        <time>2014-04-14T06:49:17Z</time>
      </trkpt>
      <trkpt lat="48.03222" lon="3.31907">
        <ele>73</ele>
        <time>2014-04-14T06:49:23Z</time>
      </trkpt>
      <trkpt lat="48.03217" lon="3.31904">
        <ele>73</ele>
        <time>2014-04-14T06:49:28Z</time>
      </trkpt>
      <trkpt lat="48.03211" lon="3.31901">
        <ele>73</ele>
        <time>2014-04-14T06:49:32Z</time>
      </trkpt>
      <trkpt lat="48.03206" lon="3.319">
        <ele>73</ele>
        <time>2014-04-14T06:49:35Z</time>
      </trkpt>
      <trkpt lat="48.03201" lon="3.31897">
        <ele>73</ele>
        <time>2014-04-14T06:49:39Z</time>
      </trkpt>
      <trkpt lat="48.03191" lon="3.31893">
        <ele>73</ele>
        <time>2014-04-14T06:49:49Z</time>
      </trkpt>
      <trkpt lat="48.03174" lon="3.31878">
        <ele>73</ele>
        <time>2014-04-14T06:50:08Z</time>
      </trkpt>
      <trkpt lat="48.03169" lon="3.31876">
        <ele>73</ele>
        <time>2014-04-14T06:50:13Z</time>
      </trkpt>
      <trkpt lat="48.03159" lon="3.31875">
        <ele>73</ele>
        <time>2014-04-14T06:50:25Z</time>
      </trkpt>
      <trkpt lat="48.03154" lon="3.31874">
        <ele>73</ele>
        <time>2014-04-14T06:50:28Z</time>
      </trkpt>
      <trkpt lat="48.03145" lon="3.31865">
        <ele>73</ele>
        <time>2014-04-14T06:50:36Z</time>
      </trkpt>
      <trkpt lat="48.03135" lon="3.31861">
        <ele>73</ele>
        <time>2014-04-14T06:50:45Z</time>
      </trkpt>
      <trkpt lat="48.0313" lon="3.31857">
        <ele>73</ele>
        <time>2014-04-14T06:50:49Z</time>
      </trkpt>
      <trkpt lat="48.03126" lon="3.31854">
        <ele>73</ele>
        <time>2014-04-14T06:50:53Z</time>
      </trkpt>
      <trkpt lat="48.03121" lon="3.31851">
        <ele>73</ele>
        <time>2014-04-14T06:50:58Z</time>
      </trkpt>
      <trkpt lat="48.03117" lon="3.31846">
        <ele>73</ele>
        <time>2014-04-14T06:51:02Z</time>
      </trkpt>
      <trkpt lat="48.03112" lon="3.31842">
        <ele>73</ele>
        <time>2014-04-14T06:51:07Z</time>
      </trkpt>
      <trkpt lat="48.03108" lon="3.31841">
        <ele>73</ele>
        <time>2014-04-14T06:51:11Z</time>
      </trkpt>
      <trkpt lat="48.03102" lon="3.31839">
        <ele>73</ele>
        <time>2014-04-14T06:51:16Z</time>
      </trkpt>
      <trkpt lat="48.03097" lon="3.31839">
        <ele>73</ele>
        <time>2014-04-14T06:51:20Z</time>
      </trkpt>
      <trkpt lat="48.03086" lon="3.31834">
        <ele>74</ele>
        <time>2014-04-14T06:51:29Z</time>
      </trkpt>
      <trkpt lat="48.03081" lon="3.31831">
        <ele>74</ele>
        <time>2014-04-14T06:51:34Z</time>
      </trkpt>
      <trkpt lat="48.03072" lon="3.31828">
        <ele>74</ele>
        <time>2014-04-14T06:51:43Z</time>
      </trkpt>
      <trkpt lat="48.03062" lon="3.31826">
        <ele>73</ele>
        <time>2014-04-14T06:51:54Z</time>
      </trkpt>
      <trkpt lat="48.03052" lon="3.31826">
        <ele>73</ele>
        <time>2014-04-14T06:52:01Z</time>
      </trkpt>
      <trkpt lat="48.03048" lon="3.31826">
        <ele>73</ele>
        <time>2014-04-14T06:52:04Z</time>
      </trkpt>
      <trkpt lat="48.03038" lon="3.31822">
        <ele>73</ele>
        <time>2014-04-14T06:52:11Z</time>
      </trkpt>
      <trkpt lat="48.03027" lon="3.31823">
        <ele>73</ele>
        <time>2014-04-14T06:52:19Z</time>
      </trkpt>
      <trkpt lat="48.03023" lon="3.31823">
        <ele>73</ele>
        <time>2014-04-14T06:52:24Z</time>
      </trkpt>
      <trkpt lat="48.03018" lon="3.31819">
        <ele>73</ele>
        <time>2014-04-14T06:52:28Z</time>
      </trkpt>
      <trkpt lat="48.03008" lon="3.31816">
        <ele>73</ele>
        <time>2014-04-14T06:52:35Z</time>
      </trkpt>
      <trkpt lat="48.02998" lon="3.31815">
        <ele>73</ele>
        <time>2014-04-14T06:52:47Z</time>
      </trkpt>
      <trkpt lat="48.03" lon="3.31812">
        <ele>73</ele>
        <time>2014-04-14T06:54:04Z</time>
      </trkpt>
      <trkpt lat="48.03003" lon="3.3181">
        <ele>73</ele>
        <time>2014-04-14T06:56:42Z</time>
      </trkpt>
      <trkpt lat="48.03003" lon="3.31803">
        <ele>73</ele>
        <time>2014-04-14T06:56:59Z</time>
      </trkpt>
      <trkpt lat="48.03" lon="3.31799">
        <ele>73</ele>
        <time>2014-04-14T06:57:03Z</time>
      </trkpt>
      <trkpt lat="48.02991" lon="3.31791">
        <ele>73</ele>
        <time>2014-04-14T06:57:13Z</time>
      </trkpt>
      <trkpt lat="48.02987" lon="3.31788">
        <ele>73</ele>
        <time>2014-04-14T06:57:17Z</time>
      </trkpt>
      <trkpt lat="48.02982" lon="3.31783">
        <ele>73</ele>
        <time>2014-04-14T06:57:21Z</time>
      </trkpt>
      <trkpt lat="48.02977" lon="3.31783">
        <ele>73</ele>
        <time>2014-04-14T06:57:24Z</time>
      </trkpt>
      <trkpt lat="48.02973" lon="3.3178">
        <ele>73</ele>
        <time>2014-04-14T06:57:27Z</time>
      </trkpt>
      <trkpt lat="48.02969" lon="3.31774">
        <ele>73</ele>
        <time>2014-04-14T06:57:32Z</time>
      </trkpt>
      <trkpt lat="48.02965" lon="3.3177">
        <ele>73</ele>
        <time>2014-04-14T06:57:36Z</time>
      </trkpt>
      <trkpt lat="48.0295" lon="3.31757">
        <ele>74</ele>
        <time>2014-04-14T06:57:48Z</time>
      </trkpt>
      <trkpt lat="48.02929" lon="3.31737">
        <ele>74</ele>
        <time>2014-04-14T06:58:09Z</time>
      </trkpt>
      <trkpt lat="48.02926" lon="3.31731">
        <ele>74</ele>
        <time>2014-04-14T06:58:14Z</time>
      </trkpt>
      <trkpt lat="48.02917" lon="3.31723">
        <ele>74</ele>
        <time>2014-04-14T06:58:20Z</time>
      </trkpt>
      <trkpt lat="48.02913" lon="3.31719">
        <ele>74</ele>
        <time>2014-04-14T06:58:24Z</time>
      </trkpt>
      <trkpt lat="48.0291" lon="3.31714">
        <ele>74</ele>
        <time>2014-04-14T06:58:28Z</time>
      </trkpt>
      <trkpt lat="48.02907" lon="3.31708">
        <ele>74</ele>
        <time>2014-04-14T06:58:34Z</time>
      </trkpt>
      <trkpt lat="48.02903" lon="3.31703">
        <ele>74</ele>
        <time>2014-04-14T06:58:39Z</time>
      </trkpt>
      <trkpt lat="48.02901" lon="3.31697">
        <ele>74</ele>
        <time>2014-04-14T06:58:43Z</time>
      </trkpt>
      <trkpt lat="48.02898" lon="3.31689">
        <ele>74</ele>
        <time>2014-04-14T06:58:47Z</time>
      </trkpt>
      <trkpt lat="48.02891" lon="3.31679">
        <ele>74</ele>
        <time>2014-04-14T06:58:55Z</time>
      </trkpt>
      <trkpt lat="48.0289" lon="3.31671">
        <ele>74</ele>
        <time>2014-04-14T06:59:00Z</time>
      </trkpt>
      <trkpt lat="48.02888" lon="3.31663">
        <ele>73</ele>
        <time>2014-04-14T06:59:05Z</time>
      </trkpt>
      <trkpt lat="48.0288" lon="3.31652">
        <ele>73</ele>
        <time>2014-04-14T06:59:14Z</time>
      </trkpt>
      <trkpt lat="48.02876" lon="3.31648">
        <ele>73</ele>
        <time>2014-04-14T06:59:18Z</time>
      </trkpt>
      <trkpt lat="48.02871" lon="3.31643">
        <ele>74</ele>
        <time>2014-04-14T06:59:23Z</time>
      </trkpt>
      <trkpt lat="48.02868" lon="3.31637">
        <ele>74</ele>
        <time>2014-04-14T06:59:27Z</time>
      </trkpt>
      <trkpt lat="48.02864" lon="3.31632">
        <ele>74</ele>
        <time>2014-04-14T06:59:32Z</time>
      </trkpt>
      <trkpt lat="48.02861" lon="3.31626">
        <ele>74</ele>
        <time>2014-04-14T06:59:37Z</time>
      </trkpt>
      <trkpt lat="48.02855" lon="3.31627">
        <ele>74</ele>
        <time>2014-04-14T06:59:48Z</time>
      </trkpt>
      <trkpt lat="48.02852" lon="3.31628">
        <ele>74</ele>
        <time>2014-04-14T07:00:00Z</time>
      </trkpt>
      <trkpt lat="48.02846" lon="3.31616">
        <ele>74</ele>
        <time>2014-04-14T07:00:09Z</time>
      </trkpt>
      <trkpt lat="48.02845" lon="3.31608">
        <ele>74</ele>
        <time>2014-04-14T07:00:14Z</time>
      </trkpt>
      <trkpt lat="48.02839" lon="3.31595">
        <ele>74</ele>
        <time>2014-04-14T07:00:23Z</time>
      </trkpt>
      <trkpt lat="48.02831" lon="3.31585">
        <ele>74</ele>
        <time>2014-04-14T07:00:31Z</time>
      </trkpt>
      <trkpt lat="48.02826" lon="3.31582">
        <ele>74</ele>
        <time>2014-04-14T07:00:39Z</time>
      </trkpt>
      <trkpt lat="48.02823" lon="3.31576">
        <ele>74</ele>
        <time>2014-04-14T07:00:43Z</time>
      </trkpt>
      <trkpt lat="48.02821" lon="3.3157">
        <ele>74</ele>
        <time>2014-04-14T07:00:49Z</time>
      </trkpt>
      <trkpt lat="48.02816" lon="3.31565">
        <ele>74</ele>
        <time>2014-04-14T07:00:53Z</time>
      </trkpt>
      <trkpt lat="48.02809" lon="3.31553">
        <ele>74</ele>
        <time>2014-04-14T07:01:01Z</time>
      </trkpt>
      <trkpt lat="48.02806" lon="3.31546">
        <ele>74</ele>
        <time>2014-04-14T07:01:09Z</time>
      </trkpt>
      <trkpt lat="48.02801" lon="3.31541">
        <ele>74</ele>
        <time>2014-04-14T07:01:13Z</time>
      </trkpt>
      <trkpt lat="48.02791" lon="3.31524">
        <ele>74</ele>
        <time>2014-04-14T07:01:25Z</time>
      </trkpt>
      <trkpt lat="48.02789" lon="3.31516">
        <ele>74</ele>
        <time>2014-04-14T07:01:31Z</time>
      </trkpt>
      <trkpt lat="48.02782" lon="3.31505">
        <ele>74</ele>
        <time>2014-04-14T07:01:39Z</time>
      </trkpt>
      <trkpt lat="48.02777" lon="3.31501">
        <ele>74</ele>
        <time>2014-04-14T07:01:42Z</time>
      </trkpt>
      <trkpt lat="48.02768" lon="3.31484">
        <ele>74</ele>
        <time>2014-04-14T07:01:56Z</time>
      </trkpt>
      <trkpt lat="48.02764" lon="3.3148">
        <ele>74</ele>
        <time>2014-04-14T07:02:00Z</time>
      </trkpt>
      <trkpt lat="48.02762" lon="3.31473">
        <ele>73</ele>
        <time>2014-04-14T07:02:03Z</time>
      </trkpt>
      <trkpt lat="48.02756" lon="3.31461">
        <ele>73</ele>
        <time>2014-04-14T07:02:09Z</time>
      </trkpt>
      <trkpt lat="48.02755" lon="3.31454">
        <ele>73</ele>
        <time>2014-04-14T07:02:13Z</time>
      </trkpt>
      <trkpt lat="48.02752" lon="3.31448">
        <ele>73</ele>
        <time>2014-04-14T07:02:19Z</time>
      </trkpt>
      <trkpt lat="48.02747" lon="3.31444">
        <ele>74</ele>
        <time>2014-04-14T07:02:22Z</time>
      </trkpt>
      <trkpt lat="48.02744" lon="3.3144">
        <ele>74</ele>
        <time>2014-04-14T07:02:28Z</time>
      </trkpt>
      <trkpt lat="48.02741" lon="3.31432">
        <ele>74</ele>
        <time>2014-04-14T07:02:32Z</time>
      </trkpt>
      <trkpt lat="48.02729" lon="3.31418">
        <ele>74</ele>
        <time>2014-04-14T07:02:42Z</time>
      </trkpt>
      <trkpt lat="48.02725" lon="3.31412">
        <ele>74</ele>
        <time>2014-04-14T07:02:49Z</time>
      </trkpt>
      <trkpt lat="48.02723" lon="3.31406">
        <ele>74</ele>
        <time>2014-04-14T07:02:54Z</time>
      </trkpt>
      <trkpt lat="48.02716" lon="3.314">
        <ele>74</ele>
        <time>2014-04-14T07:03:00Z</time>
      </trkpt>
      <trkpt lat="48.02714" lon="3.31393">
        <ele>74</ele>
        <time>2014-04-14T07:03:50Z</time>
      </trkpt>
      <trkpt lat="48.02708" lon="3.31388">
        <ele>74</ele>
        <time>2014-04-14T07:04:59Z</time>
      </trkpt>
      <trkpt lat="48.02702" lon="3.31377">
        <ele>74</ele>
        <time>2014-04-14T07:05:06Z</time>
      </trkpt>
      <trkpt lat="48.0269" lon="3.31361">
        <ele>74</ele>
        <time>2014-04-14T07:05:16Z</time>
      </trkpt>
      <trkpt lat="48.02687" lon="3.31355">
        <ele>74</ele>
        <time>2014-04-14T07:05:20Z</time>
      </trkpt>
      <trkpt lat="48.02666" lon="3.3133">
        <ele>74</ele>
        <time>2014-04-14T07:05:39Z</time>
      </trkpt>
      <trkpt lat="48.02662" lon="3.31323">
        <ele>74</ele>
        <time>2014-04-14T07:05:44Z</time>
      </trkpt>
      <trkpt lat="48.02655" lon="3.31311">
        <ele>74</ele>
        <time>2014-04-14T07:05:53Z</time>
      </trkpt>
      <trkpt lat="48.0265" lon="3.31308">
        <ele>74</ele>
        <time>2014-04-14T07:05:57Z</time>
      </trkpt>
      <trkpt lat="48.02646" lon="3.31303">
        <ele>74</ele>
        <time>2014-04-14T07:06:01Z</time>
      </trkpt>
      <trkpt lat="48.02643" lon="3.31296">
        <ele>74</ele>
        <time>2014-04-14T07:06:07Z</time>
      </trkpt>
      <trkpt lat="48.0264" lon="3.31292">
        <ele>74</ele>
        <time>2014-04-14T07:06:11Z</time>
      </trkpt>
      <trkpt lat="48.02637" lon="3.31285">
        <ele>74</ele>
        <time>2014-04-14T07:06:15Z</time>
      </trkpt>
      <trkpt lat="48.02634" lon="3.31279">
        <ele>74</ele>
        <time>2014-04-14T07:06:19Z</time>
      </trkpt>
      <trkpt lat="48.02617" lon="3.31255">
        <ele>74</ele>
        <time>2014-04-14T07:06:39Z</time>
      </trkpt>
      <trkpt lat="48.02611" lon="3.31241">
        <ele>74</ele>
        <time>2014-04-14T07:06:50Z</time>
      </trkpt>
      <trkpt lat="48.02607" lon="3.31236">
        <ele>74</ele>
        <time>2014-04-14T07:06:53Z</time>
      </trkpt>
      <trkpt lat="48.02602" lon="3.31232">
        <ele>74</ele>
        <time>2014-04-14T07:06:56Z</time>
      </trkpt>
      <trkpt lat="48.02599" lon="3.31226">
        <ele>74</ele>
        <time>2014-04-14T07:06:59Z</time>
      </trkpt>
      <trkpt lat="48.02596" lon="3.31219">
        <ele>74</ele>
        <time>2014-04-14T07:07:04Z</time>
      </trkpt>
      <trkpt lat="48.02593" lon="3.31213">
        <ele>74</ele>
        <time>2014-04-14T07:07:08Z</time>
      </trkpt>
      <trkpt lat="48.02589" lon="3.31209">
        <ele>74</ele>
        <time>2014-04-14T07:07:13Z</time>
      </trkpt>
      <trkpt lat="48.02584" lon="3.31206">
        <ele>74</ele>
        <time>2014-04-14T07:07:17Z</time>
      </trkpt>
      <trkpt lat="48.0258" lon="3.31201">
        <ele>75</ele>
        <time>2014-04-14T07:07:22Z</time>
      </trkpt>
      <trkpt lat="48.02577" lon="3.31195">
        <ele>75</ele>
        <time>2014-04-14T07:07:27Z</time>
      </trkpt>
      <trkpt lat="48.02568" lon="3.31188">
        <ele>75</ele>
        <time>2014-04-14T07:07:34Z</time>
      </trkpt>
      <trkpt lat="48.02563" lon="3.31185">
        <ele>75</ele>
        <time>2014-04-14T07:07:38Z</time>
      </trkpt>
      <trkpt lat="48.02559" lon="3.31182">
        <ele>75</ele>
        <time>2014-04-14T07:07:42Z</time>
      </trkpt>
      <trkpt lat="48.02555" lon="3.31177">
        <ele>75</ele>
        <time>2014-04-14T07:07:46Z</time>
      </trkpt>
      <trkpt lat="48.02542" lon="3.31155">
        <ele>73</ele>
        <time>2014-04-14T07:08:03Z</time>
      </trkpt>
      <trkpt lat="48.02538" lon="3.31151">
        <ele>73</ele>
        <time>2014-04-14T07:08:08Z</time>
      </trkpt>
      <trkpt lat="48.02533" lon="3.31148">
        <ele>73</ele>
        <time>2014-04-14T07:08:12Z</time>
      </trkpt>
      <trkpt lat="48.02528" lon="3.31143">
        <ele>73</ele>
        <time>2014-04-14T07:08:16Z</time>
      </trkpt>
      <trkpt lat="48.02524" lon="3.3114">
        <ele>73</ele>
        <time>2014-04-14T07:08:21Z</time>
      </trkpt>
      <trkpt lat="48.02519" lon="3.31137">
        <ele>73</ele>
        <time>2014-04-14T07:08:25Z</time>
      </trkpt>
      <trkpt lat="48.02504" lon="3.31132">
        <ele>73</ele>
        <time>2014-04-14T07:08:36Z</time>
      </trkpt>
      <trkpt lat="48.02499" lon="3.31133">
        <ele>73</ele>
        <time>2014-04-14T07:08:40Z</time>
      </trkpt>
      <trkpt lat="48.02484" lon="3.31131">
        <ele>73</ele>
        <time>2014-04-14T07:08:57Z</time>
      </trkpt>
      <trkpt lat="48.02479" lon="3.31131">
        <ele>73</ele>
        <time>2014-04-14T07:09:02Z</time>
      </trkpt>
      <trkpt lat="48.02469" lon="3.31127">
        <ele>73</ele>
        <time>2014-04-14T07:09:12Z</time>
      </trkpt>
      <trkpt lat="48.02464" lon="3.31126">
        <ele>73</ele>
        <time>2014-04-14T07:09:16Z</time>
      </trkpt>
      <trkpt lat="48.02453" lon="3.31127">
        <ele>72</ele>
        <time>2014-04-14T07:09:25Z</time>
      </trkpt>
      <trkpt lat="48.02448" lon="3.31129">
        <ele>72</ele>
        <time>2014-04-14T07:09:30Z</time>
      </trkpt>
      <trkpt lat="48.02432" lon="3.31128">
        <ele>72</ele>
        <time>2014-04-14T07:09:43Z</time>
      </trkpt>
      <trkpt lat="48.02427" lon="3.31126">
        <ele>72</ele>
        <time>2014-04-14T07:09:47Z</time>
      </trkpt>
      <trkpt lat="48.02421" lon="3.31127">
        <ele>72</ele>
        <time>2014-04-14T07:09:51Z</time>
      </trkpt>
      <trkpt lat="48.02415" lon="3.31128">
        <ele>73</ele>
        <time>2014-04-14T07:09:55Z</time>
      </trkpt>
      <trkpt lat="48.024" lon="3.31124">
        <ele>73</ele>
        <time>2014-04-14T07:10:09Z</time>
      </trkpt>
      <trkpt lat="48.02389" lon="3.31124">
        <ele>73</ele>
        <time>2014-04-14T07:10:15Z</time>
      </trkpt>
      <trkpt lat="48.0238" lon="3.31122">
        <ele>74</ele>
        <time>2014-04-14T07:10:21Z</time>
      </trkpt>
      <trkpt lat="48.02375" lon="3.31121">
        <ele>74</ele>
        <time>2014-04-14T07:10:27Z</time>
      </trkpt>
      <trkpt lat="48.02364" lon="3.3112">
        <ele>74</ele>
        <time>2014-04-14T07:10:36Z</time>
      </trkpt>
      <trkpt lat="48.02359" lon="3.31118">
        <ele>74</ele>
        <time>2014-04-14T07:10:41Z</time>
      </trkpt>
      <trkpt lat="48.02354" lon="3.31118">
        <ele>74</ele>
        <time>2014-04-14T07:10:46Z</time>
      </trkpt>
      <trkpt lat="48.02348" lon="3.31118">
        <ele>74</ele>
        <time>2014-04-14T07:10:51Z</time>
      </trkpt>
      <trkpt lat="48.02343" lon="3.31117">
        <ele>74</ele>
        <time>2014-04-14T07:10:55Z</time>
      </trkpt>
      <trkpt lat="48.02338" lon="3.31115">
        <ele>74</ele>
        <time>2014-04-14T07:10:59Z</time>
      </trkpt>
      <trkpt lat="48.02328" lon="3.31114">
        <ele>76</ele>
        <time>2014-04-14T07:11:07Z</time>
      </trkpt>
      <trkpt lat="48.02323" lon="3.31112">
        <ele>76</ele>
        <time>2014-04-14T07:11:12Z</time>
      </trkpt>
      <trkpt lat="48.02319" lon="3.3111">
        <ele>76</ele>
        <time>2014-04-14T07:11:16Z</time>
      </trkpt>
      <trkpt lat="48.02314" lon="3.31107">
        <ele>76</ele>
        <time>2014-04-14T07:11:20Z</time>
      </trkpt>
      <trkpt lat="48.0229" lon="3.31099">
        <ele>76</ele>
        <time>2014-04-14T07:11:42Z</time>
      </trkpt>
      <trkpt lat="48.02285" lon="3.31096">
        <ele>76</ele>
        <time>2014-04-14T07:11:47Z</time>
      </trkpt>
      <trkpt lat="48.02276" lon="3.31094">
        <ele>76</ele>
        <time>2014-04-14T07:11:54Z</time>
      </trkpt>
      <trkpt lat="48.02271" lon="3.31092">
        <ele>76</ele>
        <time>2014-04-14T07:11:58Z</time>
      </trkpt>
      <trkpt lat="48.02266" lon="3.31091">
        <ele>75</ele>
        <time>2014-04-14T07:12:02Z</time>
      </trkpt>
      <trkpt lat="48.02263" lon="3.31087">
        <ele>75</ele>
        <time>2014-04-14T07:12:06Z</time>
      </trkpt>
      <trkpt lat="48.02258" lon="3.31086">
        <ele>75</ele>
        <time>2014-04-14T07:12:10Z</time>
      </trkpt>
      <trkpt lat="48.02253" lon="3.31083">
        <ele>74</ele>
        <time>2014-04-14T07:12:14Z</time>
      </trkpt>
      <trkpt lat="48.02249" lon="3.31079">
        <ele>74</ele>
        <time>2014-04-14T07:12:18Z</time>
      </trkpt>
      <trkpt lat="48.02245" lon="3.31075">
        <ele>74</ele>
        <time>2014-04-14T07:12:23Z</time>
      </trkpt>
      <trkpt lat="48.02227" lon="3.31076">
        <ele>74</ele>
        <time>2014-04-14T07:12:33Z</time>
      </trkpt>
      <trkpt lat="48.02222" lon="3.31073">
        <ele>74</ele>
        <time>2014-04-14T07:12:37Z</time>
      </trkpt>
      <trkpt lat="48.02218" lon="3.3107">
        <ele>74</ele>
        <time>2014-04-14T07:12:41Z</time>
      </trkpt>
      <trkpt lat="48.02205" lon="3.31064">
        <ele>74</ele>
        <time>2014-04-14T07:12:56Z</time>
      </trkpt>
      <trkpt lat="48.022" lon="3.3106">
        <ele>74</ele>
        <time>2014-04-14T07:12:59Z</time>
      </trkpt>
      <trkpt lat="48.02196" lon="3.31057">
        <ele>74</ele>
        <time>2014-04-14T07:13:03Z</time>
      </trkpt>
      <trkpt lat="48.02191" lon="3.31055">
        <ele>74</ele>
        <time>2014-04-14T07:13:07Z</time>
      </trkpt>
      <trkpt lat="48.0218" lon="3.31053">
        <ele>75</ele>
        <time>2014-04-14T07:13:13Z</time>
      </trkpt>
      <trkpt lat="48.02177" lon="3.31051">
        <ele>75</ele>
        <time>2014-04-14T07:13:21Z</time>
      </trkpt>
      <trkpt lat="48.02176" lon="3.31047">
        <ele>74</ele>
        <time>2014-04-14T07:13:28Z</time>
      </trkpt>
      <trkpt lat="48.02171" lon="3.31047">
        <ele>74</ele>
        <time>2014-04-14T07:13:32Z</time>
      </trkpt>
      <trkpt lat="48.02167" lon="3.31042">
        <ele>74</ele>
        <time>2014-04-14T07:13:37Z</time>
      </trkpt>
      <trkpt lat="48.02146" lon="3.31035">
        <ele>76</ele>
        <time>2014-04-14T07:13:55Z</time>
      </trkpt>
      <trkpt lat="48.0214" lon="3.31035">
        <ele>76</ele>
        <time>2014-04-14T07:13:59Z</time>
      </trkpt>
      <trkpt lat="48.02131" lon="3.31029">
        <ele>76</ele>
        <time>2014-04-14T07:14:06Z</time>
      </trkpt>
      <trkpt lat="48.02127" lon="3.31025">
        <ele>76</ele>
        <time>2014-04-14T07:14:11Z</time>
      </trkpt>
      <trkpt lat="48.02124" lon="3.3102">
        <ele>76</ele>
        <time>2014-04-14T07:14:16Z</time>
      </trkpt>
      <trkpt lat="48.0212" lon="3.31017">
        <ele>76</ele>
        <time>2014-04-14T07:14:21Z</time>
      </trkpt>
      <trkpt lat="48.0211" lon="3.31015">
        <ele>77</ele>
        <time>2014-04-14T07:14:26Z</time>
      </trkpt>
      <trkpt lat="48.02105" lon="3.31012">
        <ele>77</ele>
        <time>2014-04-14T07:14:30Z</time>
      </trkpt>
      <trkpt lat="48.02085" lon="3.31006">
        <ele>76</ele>
        <time>2014-04-14T07:14:47Z</time>
      </trkpt>
      <trkpt lat="48.0208" lon="3.31003">
        <ele>77</ele>
        <time>2014-04-14T07:14:51Z</time>
      </trkpt>
      <trkpt lat="48.02067" lon="3.30993">
        <ele>76</ele>
        <time>2014-04-14T07:15:05Z</time>
      </trkpt>
      <trkpt lat="48.02062" lon="3.30989">
        <ele>76</ele>
        <time>2014-04-14T07:15:10Z</time>
      </trkpt>
      <trkpt lat="48.02041" lon="3.30982">
        <ele>77</ele>
        <time>2014-04-14T07:15:25Z</time>
      </trkpt>
      <trkpt lat="48.02036" lon="3.30979">
        <ele>77</ele>
        <time>2014-04-14T07:15:29Z</time>
      </trkpt>
      <trkpt lat="48.0203" lon="3.30978">
        <ele>77</ele>
        <time>2014-04-14T07:15:33Z</time>
      </trkpt>
      <trkpt lat="48.02026" lon="3.30974">
        <ele>77</ele>
        <time>2014-04-14T07:15:37Z</time>
      </trkpt>
      <trkpt lat="48.02021" lon="3.30973">
        <ele>77</ele>
        <time>2014-04-14T07:15:41Z</time>
      </trkpt>
      <trkpt lat="48.02017" lon="3.30974">
        <ele>77</ele>
        <time>2014-04-14T07:15:46Z</time>
      </trkpt>
      <trkpt lat="48.02012" lon="3.3097">
        <ele>77</ele>
        <time>2014-04-14T07:15:51Z</time>
      </trkpt>
      <trkpt lat="48.02007" lon="3.30966">
        <ele>77</ele>
        <time>2014-04-14T07:15:55Z</time>
      </trkpt>
      <trkpt lat="48.02002" lon="3.30963">
        <ele>77</ele>
        <time>2014-04-14T07:15:58Z</time>
      </trkpt>
      <trkpt lat="48.01993" lon="3.30955">
        <ele>78</ele>
        <time>2014-04-14T07:16:07Z</time>
      </trkpt>
      <trkpt lat="48.01984" lon="3.30951">
        <ele>78</ele>
        <time>2014-04-14T07:16:17Z</time>
      </trkpt>
      <trkpt lat="48.0198" lon="3.30946">
        <ele>78</ele>
        <time>2014-04-14T07:16:21Z</time>
      </trkpt>
      <trkpt lat="48.01975" lon="3.30944">
        <ele>78</ele>
        <time>2014-04-14T07:16:26Z</time>
      </trkpt>
      <trkpt lat="48.01961" lon="3.30932">
        <ele>77</ele>
        <time>2014-04-14T07:16:39Z</time>
      </trkpt>
      <trkpt lat="48.01952" lon="3.30929">
        <ele>77</ele>
        <time>2014-04-14T07:16:48Z</time>
      </trkpt>
      <trkpt lat="48.01946" lon="3.30929">
        <ele>77</ele>
        <time>2014-04-14T07:16:52Z</time>
      </trkpt>
      <trkpt lat="48.01942" lon="3.30925">
        <ele>77</ele>
        <time>2014-04-14T07:16:56Z</time>
      </trkpt>
      <trkpt lat="48.01938" lon="3.30919">
        <ele>77</ele>
        <time>2014-04-14T07:16:59Z</time>
      </trkpt>
      <trkpt lat="48.01934" lon="3.30914">
        <ele>75</ele>
        <time>2014-04-14T07:17:05Z</time>
      </trkpt>
      <trkpt lat="48.01917" lon="3.30898">
        <ele>75</ele>
        <time>2014-04-14T07:17:20Z</time>
      </trkpt>
      <trkpt lat="48.01907" lon="3.30892">
        <ele>74</ele>
        <time>2014-04-14T07:17:32Z</time>
      </trkpt>
      <trkpt lat="48.01904" lon="3.30886">
        <ele>74</ele>
        <time>2014-04-14T07:17:39Z</time>
      </trkpt>
      <trkpt lat="48.01899" lon="3.30883">
        <ele>74</ele>
        <time>2014-04-14T07:17:42Z</time>
      </trkpt>
      <trkpt lat="48.01894" lon="3.30881">
        <ele>74</ele>
        <time>2014-04-14T07:17:45Z</time>
      </trkpt>
      <trkpt lat="48.0188" lon="3.30869">
        <ele>74</ele>
        <time>2014-04-14T07:17:54Z</time>
      </trkpt>
      <trkpt lat="48.01876" lon="3.30867">
        <ele>74</ele>
        <time>2014-04-14T07:17:58Z</time>
      </trkpt>
      <trkpt lat="48.01871" lon="3.30865">
        <ele>74</ele>
        <time>2014-04-14T07:18:02Z</time>
      </trkpt>
      <trkpt lat="48.01867" lon="3.30862">
        <ele>74</ele>
        <time>2014-04-14T07:18:06Z</time>
      </trkpt>
      <trkpt lat="48.01862" lon="3.30861">
        <ele>74</ele>
        <time>2014-04-14T07:18:09Z</time>
      </trkpt>
      <trkpt lat="48.01852" lon="3.30857">
        <ele>74</ele>
        <time>2014-04-14T07:18:21Z</time>
      </trkpt>
      <trkpt lat="48.01849" lon="3.30852">
        <ele>73</ele>
        <time>2014-04-14T07:18:25Z</time>
      </trkpt>
      <trkpt lat="48.01845" lon="3.30846">
        <ele>73</ele>
        <time>2014-04-14T07:18:29Z</time>
      </trkpt>
      <trkpt lat="48.01825" lon="3.30836">
        <ele>73</ele>
        <time>2014-04-14T07:18:45Z</time>
      </trkpt>
      <trkpt lat="48.01822" lon="3.30835">
        <ele>73</ele>
        <time>2014-04-14T07:19:03Z</time>
      </trkpt>
      <trkpt lat="48.01817" lon="3.30832">
        <ele>72</ele>
        <time>2014-04-14T07:19:14Z</time>
      </trkpt>
      <trkpt lat="48.01813" lon="3.30829">
        <ele>72</ele>
        <time>2014-04-14T07:19:17Z</time>
      </trkpt>
      <trkpt lat="48.01808" lon="3.30826">
        <ele>72</ele>
        <time>2014-04-14T07:19:20Z</time>
      </trkpt>
      <trkpt lat="48.01804" lon="3.30824">
        <ele>72</ele>
        <time>2014-04-14T07:19:23Z</time>
      </trkpt>
      <trkpt lat="48.01799" lon="3.30822">
        <ele>73</ele>
        <time>2014-04-14T07:19:27Z</time>
      </trkpt>
      <trkpt lat="48.01794" lon="3.30819">
        <ele>73</ele>
        <time>2014-04-14T07:19:30Z</time>
      </trkpt>
      <trkpt lat="48.0179" lon="3.30814">
        <ele>73</ele>
        <time>2014-04-14T07:19:35Z</time>
      </trkpt>
      <trkpt lat="48.01788" lon="3.30808">
        <ele>73</ele>
        <time>2014-04-14T07:19:42Z</time>
      </trkpt>
      <trkpt lat="48.01783" lon="3.30806">
        <ele>73</ele>
        <time>2014-04-14T07:19:49Z</time>
      </trkpt>
      <trkpt lat="48.01779" lon="3.30804">
        <ele>73</ele>
        <time>2014-04-14T07:19:54Z</time>
      </trkpt>
      <trkpt lat="48.01774" lon="3.30803">
        <ele>73</ele>
        <time>2014-04-14T07:19:58Z</time>
      </trkpt>
      <trkpt lat="48.01769" lon="3.308">
        <ele>73</ele>
        <time>2014-04-14T07:20:02Z</time>
      </trkpt>
      <trkpt lat="48.01764" lon="3.308">
        <ele>73</ele>
        <time>2014-04-14T07:20:06Z</time>
      </trkpt>
      <trkpt lat="48.01756" lon="3.30794">
        <ele>73</ele>
        <time>2014-04-14T07:20:13Z</time>
      </trkpt>
      <trkpt lat="48.01745" lon="3.30792">
        <ele>73</ele>
        <time>2014-04-14T07:20:18Z</time>
      </trkpt>
      <trkpt lat="48.0174" lon="3.3079">
        <ele>73</ele>
        <time>2014-04-14T07:20:22Z</time>
      </trkpt>
      <trkpt lat="48.01729" lon="3.30791">
        <ele>73</ele>
        <time>2014-04-14T07:20:30Z</time>
      </trkpt>
      <trkpt lat="48.01714" lon="3.30785">
        <ele>72</ele>
        <time>2014-04-14T07:20:43Z</time>
      </trkpt>
      <trkpt lat="48.01709" lon="3.30783">
        <ele>72</ele>
        <time>2014-04-14T07:20:47Z</time>
      </trkpt>
      <trkpt lat="48.01704" lon="3.30784">
        <ele>72</ele>
        <time>2014-04-14T07:20:51Z</time>
      </trkpt>
      <trkpt lat="48.01698" lon="3.30783">
        <ele>72</ele>
        <time>2014-04-14T07:20:54Z</time>
      </trkpt>
      <trkpt lat="48.01689" lon="3.30777">
        <ele>72</ele>
        <time>2014-04-14T07:21:02Z</time>
      </trkpt>
      <trkpt lat="48.01684" lon="3.30775">
        <ele>72</ele>
        <time>2014-04-14T07:21:07Z</time>
      </trkpt>
      <trkpt lat="48.01648" lon="3.30769">
        <ele>72</ele>
        <time>2014-04-14T07:21:36Z</time>
      </trkpt>
      <trkpt lat="48.01613" lon="3.30755">
        <ele>72</ele>
        <time>2014-04-14T07:22:01Z</time>
      </trkpt>
      <trkpt lat="48.01608" lon="3.30753">
        <ele>72</ele>
        <time>2014-04-14T07:22:06Z</time>
      </trkpt>
      <trkpt lat="48.01603" lon="3.3075">
        <ele>72</ele>
        <time>2014-04-14T07:22:11Z</time>
      </trkpt>
      <trkpt lat="48.01598" lon="3.30749">
        <ele>72</ele>
        <time>2014-04-14T07:22:15Z</time>
      </trkpt>
      <trkpt lat="48.01572" lon="3.30742">
        <ele>72</ele>
        <time>2014-04-14T07:22:36Z</time>
      </trkpt>
      <trkpt lat="48.01568" lon="3.3074">
        <ele>72</ele>
        <time>2014-04-14T07:22:40Z</time>
      </trkpt>
      <trkpt lat="48.01563" lon="3.30738">
        <ele>72</ele>
        <time>2014-04-14T07:22:44Z</time>
      </trkpt>
      <trkpt lat="48.01557" lon="3.30737">
        <ele>71</ele>
        <time>2014-04-14T07:22:49Z</time>
      </trkpt>
      <trkpt lat="48.01541" lon="3.30731">
        <ele>71</ele>
        <time>2014-04-14T07:23:03Z</time>
      </trkpt>
      <trkpt lat="48.01536" lon="3.30729">
        <ele>71</ele>
        <time>2014-04-14T07:23:07Z</time>
      </trkpt>
      <trkpt lat="48.01531" lon="3.30728">
        <ele>71</ele>
        <time>2014-04-14T07:23:12Z</time>
      </trkpt>
      <trkpt lat="48.01527" lon="3.30726">
        <ele>71</ele>
        <time>2014-04-14T07:23:15Z</time>
      </trkpt>
      <trkpt lat="48.01522" lon="3.30724">
        <ele>71</ele>
        <time>2014-04-14T07:23:19Z</time>
      </trkpt>
      <trkpt lat="48.01512" lon="3.30721">
        <ele>71</ele>
        <time>2014-04-14T07:23:27Z</time>
      </trkpt>
      <trkpt lat="48.01507" lon="3.30719">
        <ele>71</ele>
        <time>2014-04-14T07:23:32Z</time>
      </trkpt>
      <trkpt lat="48.01502" lon="3.30718">
        <ele>71</ele>
        <time>2014-04-14T07:23:36Z</time>
      </trkpt>
      <trkpt lat="48.01487" lon="3.30713">
        <ele>71</ele>
        <time>2014-04-14T07:23:48Z</time>
      </trkpt>
      <trkpt lat="48.01484" lon="3.30712">
        <ele>71</ele>
        <time>2014-04-14T07:23:55Z</time>
      </trkpt>
      <trkpt lat="48.01478" lon="3.30712">
        <ele>71</ele>
        <time>2014-04-14T07:24:05Z</time>
      </trkpt>
      <trkpt lat="48.01473" lon="3.30711">
        <ele>71</ele>
        <time>2014-04-14T07:24:09Z</time>
      </trkpt>
      <trkpt lat="48.01469" lon="3.30708">
        <ele>71</ele>
        <time>2014-04-14T07:24:13Z</time>
      </trkpt>
      <trkpt lat="48.01464" lon="3.30706">
        <ele>71</ele>
        <time>2014-04-14T07:24:18Z</time>
      </trkpt>
      <trkpt lat="48.01459" lon="3.30704">
        <ele>71</ele>
        <time>2014-04-14T07:24:22Z</time>
      </trkpt>
      <trkpt lat="48.01455" lon="3.30701">
        <ele>71</ele>
        <time>2014-04-14T07:24:27Z</time>
      </trkpt>
      <trkpt lat="48.01449" lon="3.307">
        <ele>71</ele>
        <time>2014-04-14T07:24:32Z</time>
      </trkpt>
      <trkpt lat="48.01444" lon="3.30699">
        <ele>71</ele>
        <time>2014-04-14T07:24:36Z</time>
      </trkpt>
      <trkpt lat="48.01426" lon="3.30691">
        <ele>71</ele>
        <time>2014-04-14T07:24:52Z</time>
      </trkpt>
      <trkpt lat="48.01415" lon="3.30689">
        <ele>71</ele>
        <time>2014-04-14T07:25:00Z</time>
      </trkpt>
      <trkpt lat="48.01411" lon="3.30687">
        <ele>71</ele>
        <time>2014-04-14T07:25:04Z</time>
      </trkpt>
      <trkpt lat="48.01401" lon="3.30685">
        <ele>71</ele>
        <time>2014-04-14T07:25:11Z</time>
      </trkpt>
      <trkpt lat="48.01397" lon="3.30681">
        <ele>71</ele>
        <time>2014-04-14T07:25:15Z</time>
      </trkpt>
      <trkpt lat="48.01393" lon="3.30679">
        <ele>71</ele>
        <time>2014-04-14T07:25:20Z</time>
      </trkpt>
      <trkpt lat="48.01386" lon="3.30678">
        <ele>71</ele>
        <time>2014-04-14T07:25:24Z</time>
      </trkpt>
      <trkpt lat="48.01382" lon="3.30676">
        <ele>71</ele>
        <time>2014-04-14T07:25:27Z</time>
      </trkpt>
      <trkpt lat="48.01371" lon="3.30674">
        <ele>71</ele>
        <time>2014-04-14T07:25:36Z</time>
      </trkpt>
      <trkpt lat="48.01367" lon="3.30673">
        <ele>71</ele>
        <time>2014-04-14T07:25:40Z</time>
      </trkpt>
      <trkpt lat="48.01362" lon="3.30672">
        <ele>71</ele>
        <time>2014-04-14T07:25:44Z</time>
      </trkpt>
      <trkpt lat="48.01357" lon="3.3067">
        <ele>72</ele>
        <time>2014-04-14T07:25:48Z</time>
      </trkpt>
      <trkpt lat="48.01351" lon="3.30669">
        <ele>72</ele>
        <time>2014-04-14T07:25:53Z</time>
      </trkpt>
      <trkpt lat="48.01352" lon="3.30666">
        <ele>72</ele>
        <time>2014-04-14T07:26:23Z</time>
      </trkpt>
      <trkpt lat="48.01352" lon="3.30664">
        <ele>72</ele>
        <time>2014-04-14T07:26:41Z</time>
      </trkpt>
      <trkpt lat="48.01348" lon="3.30662">
        <ele>72</ele>
        <time>2014-04-14T07:26:44Z</time>
      </trkpt>
      <trkpt lat="48.01336" lon="3.30663">
        <ele>72</ele>
        <time>2014-04-14T07:27:05Z</time>
      </trkpt>
      <trkpt lat="48.01332" lon="3.30662">
        <ele>72</ele>
        <time>2014-04-14T07:27:09Z</time>
      </trkpt>
      <trkpt lat="48.01327" lon="3.30663">
        <ele>72</ele>
        <time>2014-04-14T07:27:13Z</time>
      </trkpt>
      <trkpt lat="48.01321" lon="3.30663">
        <ele>72</ele>
        <time>2014-04-14T07:27:17Z</time>
      </trkpt>
      <trkpt lat="48.01316" lon="3.30661">
        <ele>72</ele>
        <time>2014-04-14T07:27:22Z</time>
      </trkpt>
      <trkpt lat="48.01311" lon="3.30662">
        <ele>72</ele>
        <time>2014-04-14T07:27:26Z</time>
      </trkpt>
      <trkpt lat="48.013" lon="3.3066">
        <ele>71</ele>
        <time>2014-04-14T07:28:27Z</time>
      </trkpt>
      <trkpt lat="48.01281" lon="3.30655">
        <ele>71</ele>
        <time>2014-04-14T07:28:40Z</time>
      </trkpt>
      <trkpt lat="48.01276" lon="3.30654">
        <ele>71</ele>
        <time>2014-04-14T07:28:44Z</time>
      </trkpt>
      <trkpt lat="48.01271" lon="3.30652">
        <ele>71</ele>
        <time>2014-04-14T07:28:48Z</time>
      </trkpt>
      <trkpt lat="48.01267" lon="3.30648">
        <ele>71</ele>
        <time>2014-04-14T07:28:53Z</time>
      </trkpt>
      <trkpt lat="48.01263" lon="3.30644">
        <ele>71</ele>
        <time>2014-04-14T07:28:58Z</time>
      </trkpt>
      <trkpt lat="48.01258" lon="3.30645">
        <ele>71</ele>
        <time>2014-04-14T07:29:03Z</time>
      </trkpt>
      <trkpt lat="48.01248" lon="3.30643">
        <ele>71</ele>
        <time>2014-04-14T07:29:16Z</time>
      </trkpt>
      <trkpt lat="48.01243" lon="3.30643">
        <ele>71</ele>
        <time>2014-04-14T07:29:19Z</time>
      </trkpt>
      <trkpt lat="48.01227" lon="3.30642">
        <ele>71</ele>
        <time>2014-04-14T07:29:30Z</time>
      </trkpt>
      <trkpt lat="48.01222" lon="3.30643">
        <ele>71</ele>
        <time>2014-04-14T07:29:33Z</time>
      </trkpt>
      <trkpt lat="48.01211" lon="3.30641">
        <ele>71</ele>
        <time>2014-04-14T07:29:42Z</time>
      </trkpt>
      <trkpt lat="48.01206" lon="3.30643">
        <ele>71</ele>
        <time>2014-04-14T07:29:45Z</time>
      </trkpt>
      <trkpt lat="48.01201" lon="3.30647">
        <ele>71</ele>
        <time>2014-04-14T07:29:48Z</time>
      </trkpt>
      <trkpt lat="48.01197" lon="3.30652">
        <ele>71</ele>
        <time>2014-04-14T07:29:51Z</time>
      </trkpt>
      <trkpt lat="48.01193" lon="3.30655">
        <ele>72</ele>
        <time>2014-04-14T07:29:55Z</time>
      </trkpt>
      <trkpt lat="48.01188" lon="3.30656">
        <ele>72</ele>
        <time>2014-04-14T07:30:01Z</time>
      </trkpt>
      <trkpt lat="48.01178" lon="3.30658">
        <ele>72</ele>
        <time>2014-04-14T07:30:06Z</time>
      </trkpt>
      <trkpt lat="48.01172" lon="3.30657">
        <ele>72</ele>
        <time>2014-04-14T07:30:10Z</time>
      </trkpt>
      <trkpt lat="48.01163" lon="3.30657">
        <ele>72</ele>
        <time>2014-04-14T07:30:20Z</time>
      </trkpt>
      <trkpt lat="48.01158" lon="3.30658">
        <ele>72</ele>
        <time>2014-04-14T07:30:24Z</time>
      </trkpt>
      <trkpt lat="48.01143" lon="3.30662">
        <ele>72</ele>
        <time>2014-04-14T07:30:35Z</time>
      </trkpt>
      <trkpt lat="48.01133" lon="3.30662">
        <ele>72</ele>
        <time>2014-04-14T07:30:55Z</time>
      </trkpt>
      <trkpt lat="48.01128" lon="3.30663">
        <ele>72</ele>
        <time>2014-04-14T07:30:59Z</time>
      </trkpt>
      <trkpt lat="48.01119" lon="3.30668">
        <ele>72</ele>
        <time>2014-04-14T07:31:07Z</time>
      </trkpt>
      <trkpt lat="48.01115" lon="3.30671">
        <ele>72</ele>
        <time>2014-04-14T07:31:11Z</time>
      </trkpt>
      <trkpt lat="48.0111" lon="3.30675">
        <ele>72</ele>
        <time>2014-04-14T07:31:15Z</time>
      </trkpt>
      <trkpt lat="48.01106" lon="3.30679">
        <ele>72</ele>
        <time>2014-04-14T07:31:19Z</time>
      </trkpt>
      <trkpt lat="48.01101" lon="3.30681">
        <ele>71</ele>
        <time>2014-04-14T07:31:24Z</time>
      </trkpt>
      <trkpt lat="48.01097" lon="3.30684">
        <ele>71</ele>
        <time>2014-04-14T07:31:28Z</time>
      </trkpt>
      <trkpt lat="48.01092" lon="3.30687">
        <ele>71</ele>
        <time>2014-04-14T07:31:34Z</time>
      </trkpt>
      <trkpt lat="48.01086" lon="3.30686">
        <ele>71</ele>
        <time>2014-04-14T07:31:38Z</time>
      </trkpt>
      <trkpt lat="48.0107" lon="3.30705">
        <ele>71</ele>
        <time>2014-04-14T07:31:56Z</time>
      </trkpt>
      <trkpt lat="48.01064" lon="3.3071">
        <ele>71</ele>
        <time>2014-04-14T07:32:01Z</time>
      </trkpt>
      <trkpt lat="48.01056" lon="3.30725">
        <ele>71</ele>
        <time>2014-04-14T07:32:05Z</time>
      </trkpt>
      <trkpt lat="48.01053" lon="3.3073">
        <ele>71</ele>
        <time>2014-04-14T07:32:10Z</time>
      </trkpt>
      <trkpt lat="48.01049" lon="3.30734">
        <ele>71</ele>
        <time>2014-04-14T07:32:14Z</time>
      </trkpt>
      <trkpt lat="48.01045" lon="3.30737">
        <ele>71</ele>
        <time>2014-04-14T07:32:19Z</time>
      </trkpt>
      <trkpt lat="48.0104" lon="3.30738">
        <ele>71</ele>
        <time>2014-04-14T07:32:23Z</time>
      </trkpt>
      <trkpt lat="48.01036" lon="3.30743">
        <ele>71</ele>
        <time>2014-04-14T07:32:27Z</time>
      </trkpt>
      <trkpt lat="48.01031" lon="3.30744">
        <ele>71</ele>
        <time>2014-04-14T07:32:32Z</time>
      </trkpt>
      <trkpt lat="48.01026" lon="3.30749">
        <ele>71</ele>
        <time>2014-04-14T07:32:36Z</time>
      </trkpt>
      <trkpt lat="48.01021" lon="3.3075">
        <ele>71</ele>
        <time>2014-04-14T07:32:42Z</time>
      </trkpt>
      <trkpt lat="48.01017" lon="3.30754">
        <ele>71</ele>
        <time>2014-04-14T07:32:45Z</time>
      </trkpt>
      <trkpt lat="48.0101" lon="3.30767">
        <ele>71</ele>
        <time>2014-04-14T07:32:51Z</time>
      </trkpt>
      <trkpt lat="48.01006" lon="3.30762">
        <ele>71</ele>
        <time>2014-04-14T07:32:56Z</time>
      </trkpt>
      <trkpt lat="48.01001" lon="3.30765">
        <ele>71</ele>
        <time>2014-04-14T07:33:01Z</time>
      </trkpt>
      <trkpt lat="48.00997" lon="3.3077">
        <ele>72</ele>
        <time>2014-04-14T07:33:04Z</time>
      </trkpt>
      <trkpt lat="48.00987" lon="3.30775">
        <ele>72</ele>
        <time>2014-04-14T07:33:11Z</time>
      </trkpt>
      <trkpt lat="48.00982" lon="3.30776">
        <ele>72</ele>
        <time>2014-04-14T07:33:15Z</time>
      </trkpt>
      <trkpt lat="48.00973" lon="3.30787">
        <ele>72</ele>
        <time>2014-04-14T07:33:23Z</time>
      </trkpt>
      <trkpt lat="48.00968" lon="3.30789">
        <ele>72</ele>
        <time>2014-04-14T07:33:28Z</time>
      </trkpt>
      <trkpt lat="48.00964" lon="3.30792">
        <ele>72</ele>
        <time>2014-04-14T07:33:33Z</time>
      </trkpt>
      <trkpt lat="48.0096" lon="3.30796">
        <ele>72</ele>
        <time>2014-04-14T07:33:38Z</time>
      </trkpt>
      <trkpt lat="48.0095" lon="3.308">
        <ele>72</ele>
        <time>2014-04-14T07:33:44Z</time>
      </trkpt>
      <trkpt lat="48.00946" lon="3.30802">
        <ele>72</ele>
        <time>2014-04-14T07:33:47Z</time>
      </trkpt>
      <trkpt lat="48.0094" lon="3.30804">
        <ele>72</ele>
        <time>2014-04-14T07:33:51Z</time>
      </trkpt>
      <trkpt lat="48.00935" lon="3.30806">
        <ele>72</ele>
        <time>2014-04-14T07:33:55Z</time>
      </trkpt>
      <trkpt lat="48.00929" lon="3.30807">
        <ele>72</ele>
        <time>2014-04-14T07:34:00Z</time>
      </trkpt>
      <trkpt lat="48.00924" lon="3.30807">
        <ele>72</ele>
        <time>2014-04-14T07:34:05Z</time>
      </trkpt>
      <trkpt lat="48.00919" lon="3.30809">
        <ele>72</ele>
        <time>2014-04-14T07:34:10Z</time>
      </trkpt>
      <trkpt lat="48.00914" lon="3.30809">
        <ele>73</ele>
        <time>2014-04-14T07:34:15Z</time>
      </trkpt>
      <trkpt lat="48.00908" lon="3.30809">
        <ele>73</ele>
        <time>2014-04-14T07:34:20Z</time>
      </trkpt>
      <trkpt lat="48.00889" lon="3.30818">
        <ele>73</ele>
        <time>2014-04-14T07:34:36Z</time>
      </trkpt>
      <trkpt lat="48.00879" lon="3.30826">
        <ele>73</ele>
        <time>2014-04-14T07:34:43Z</time>
      </trkpt>
      <trkpt lat="48.00875" lon="3.3083">
        <ele>72</ele>
        <time>2014-04-14T07:34:46Z</time>
      </trkpt>
      <trkpt lat="48.0087" lon="3.30833">
        <ele>72</ele>
        <time>2014-04-14T07:34:49Z</time>
      </trkpt>
      <trkpt lat="48.00866" lon="3.30834">
        <ele>72</ele>
        <time>2014-04-14T07:34:52Z</time>
      </trkpt>
      <trkpt lat="48.00861" lon="3.30837">
        <ele>72</ele>
        <time>2014-04-14T07:34:56Z</time>
      </trkpt>
      <trkpt lat="48.00857" lon="3.30839">
        <ele>72</ele>
        <time>2014-04-14T07:35:01Z</time>
      </trkpt>
      <trkpt lat="48.00852" lon="3.30842">
        <ele>72</ele>
        <time>2014-04-14T07:35:04Z</time>
      </trkpt>
      <trkpt lat="48.00847" lon="3.30843">
        <ele>72</ele>
        <time>2014-04-14T07:35:08Z</time>
      </trkpt>
      <trkpt lat="48.00842" lon="3.30847">
        <ele>72</ele>
        <time>2014-04-14T07:35:14Z</time>
      </trkpt>
      <trkpt lat="48.00829" lon="3.30859">
        <ele>73</ele>
        <time>2014-04-14T07:35:24Z</time>
      </trkpt>
      <trkpt lat="48.00824" lon="3.30859">
        <ele>73</ele>
        <time>2014-04-14T07:35:29Z</time>
      </trkpt>
      <trkpt lat="48.00819" lon="3.30858">
        <ele>73</ele>
        <time>2014-04-14T07:35:33Z</time>
      </trkpt>
      <trkpt lat="48.00815" lon="3.30858">
        <ele>73</ele>
        <time>2014-04-14T07:35:37Z</time>
      </trkpt>
      <trkpt lat="48.00806" lon="3.30866">
        <ele>73</ele>
        <time>2014-04-14T07:35:45Z</time>
      </trkpt>
      <trkpt lat="48.00801" lon="3.30868">
        <ele>73</ele>
        <time>2014-04-14T07:35:49Z</time>
      </trkpt>
      <trkpt lat="48.00795" lon="3.30869">
        <ele>73</ele>
        <time>2014-04-14T07:35:53Z</time>
      </trkpt>
      <trkpt lat="48.00787" lon="3.30879">
        <ele>73</ele>
        <time>2014-04-14T07:36:01Z</time>
      </trkpt>
      <trkpt lat="48.00782" lon="3.30881">
        <ele>73</ele>
        <time>2014-04-14T07:36:07Z</time>
      </trkpt>
      <trkpt lat="48.00778" lon="3.30886">
        <ele>73</ele>
        <time>2014-04-14T07:36:12Z</time>
      </trkpt>
      <trkpt lat="48.00774" lon="3.30891">
        <ele>73</ele>
        <time>2014-04-14T07:36:15Z</time>
      </trkpt>
      <trkpt lat="48.00769" lon="3.3089">
        <ele>74</ele>
        <time>2014-04-14T07:36:20Z</time>
      </trkpt>
      <trkpt lat="48.00765" lon="3.3089">
        <ele>74</ele>
        <time>2014-04-14T07:36:25Z</time>
      </trkpt>
      <trkpt lat="48.00761" lon="3.30896">
        <ele>74</ele>
        <time>2014-04-14T07:36:29Z</time>
      </trkpt>
      <trkpt lat="48.00757" lon="3.30898">
        <ele>74</ele>
        <time>2014-04-14T07:36:34Z</time>
      </trkpt>
      <trkpt lat="48.00751" lon="3.3091">
        <ele>74</ele>
        <time>2014-04-14T07:36:43Z</time>
      </trkpt>
      <trkpt lat="48.00747" lon="3.30917">
        <ele>74</ele>
        <time>2014-04-14T07:36:47Z</time>
      </trkpt>
      <trkpt lat="48.0074" lon="3.30936">
        <ele>73</ele>
        <time>2014-04-14T07:36:59Z</time>
      </trkpt>
      <trkpt lat="48.00738" lon="3.30951">
        <ele>73</ele>
        <time>2014-04-14T07:37:07Z</time>
      </trkpt>
      <trkpt lat="48.00712" lon="3.31017">
        <ele>72</ele>
        <time>2014-04-14T07:37:47Z</time>
      </trkpt>
      <trkpt lat="48.00705" lon="3.31029">
        <ele>72</ele>
        <time>2014-04-14T07:37:55Z</time>
      </trkpt>
      <trkpt lat="48.00701" lon="3.31034">
        <ele>72</ele>
        <time>2014-04-14T07:37:59Z</time>
      </trkpt>
      <trkpt lat="48.00675" lon="3.31082">
        <ele>72</ele>
        <time>2014-04-14T07:38:31Z</time>
      </trkpt>
      <trkpt lat="48.00667" lon="3.31092">
        <ele>72</ele>
        <time>2014-04-14T07:38:40Z</time>
      </trkpt>
      <trkpt lat="48.00665" lon="3.311">
        <ele>72</ele>
        <time>2014-04-14T07:38:44Z</time>
      </trkpt>
      <trkpt lat="48.00662" lon="3.31106">
        <ele>72</ele>
        <time>2014-04-14T07:38:47Z</time>
      </trkpt>
      <trkpt lat="48.00648" lon="3.31128">
        <ele>72</ele>
        <time>2014-04-14T07:39:04Z</time>
      </trkpt>
      <trkpt lat="48.00646" lon="3.31135">
        <ele>72</ele>
        <time>2014-04-14T07:39:09Z</time>
      </trkpt>
      <trkpt lat="48.00638" lon="3.31148">
        <ele>72</ele>
        <time>2014-04-14T07:39:17Z</time>
      </trkpt>
      <trkpt lat="48.00629" lon="3.31155">
        <ele>72</ele>
        <time>2014-04-14T07:39:23Z</time>
      </trkpt>
      <trkpt lat="48.00627" lon="3.31162">
        <ele>72</ele>
        <time>2014-04-14T07:39:27Z</time>
      </trkpt>
      <trkpt lat="48.0062" lon="3.31173">
        <ele>73</ele>
        <time>2014-04-14T07:39:35Z</time>
      </trkpt>
      <trkpt lat="48.00617" lon="3.31179">
        <ele>73</ele>
        <time>2014-04-14T07:39:40Z</time>
      </trkpt>
      <trkpt lat="48.00614" lon="3.31185">
        <ele>73</ele>
        <time>2014-04-14T07:39:44Z</time>
      </trkpt>
      <trkpt lat="48.00611" lon="3.31192">
        <ele>73</ele>
        <time>2014-04-14T07:39:48Z</time>
      </trkpt>
      <trkpt lat="48.00608" lon="3.31206">
        <ele>73</ele>
        <time>2014-04-14T07:39:55Z</time>
      </trkpt>
      <trkpt lat="48.00603" lon="3.31213">
        <ele>73</ele>
        <time>2014-04-14T07:39:59Z</time>
      </trkpt>
      <trkpt lat="48.00599" lon="3.31217">
        <ele>73</ele>
        <time>2014-04-14T07:40:03Z</time>
      </trkpt>
      <trkpt lat="48.00588" lon="3.31237">
        <ele>73</ele>
        <time>2014-04-14T07:40:16Z</time>
      </trkpt>
      <trkpt lat="48.00584" lon="3.31242">
        <ele>73</ele>
        <time>2014-04-14T07:40:20Z</time>
      </trkpt>
      <trkpt lat="48.00582" lon="3.31248">
        <ele>73</ele>
        <time>2014-04-14T07:40:24Z</time>
      </trkpt>
      <trkpt lat="48.00576" lon="3.31251">
        <ele>73</ele>
        <time>2014-04-14T07:40:50Z</time>
      </trkpt>
      <trkpt lat="48.00574" lon="3.31257">
        <ele>73</ele>
        <time>2014-04-14T07:40:56Z</time>
      </trkpt>
      <trkpt lat="48.00573" lon="3.31264">
        <ele>74</ele>
        <time>2014-04-14T07:41:06Z</time>
      </trkpt>
      <trkpt lat="48.00571" lon="3.31268">
        <ele>74</ele>
        <time>2014-04-14T07:43:33Z</time>
      </trkpt>
      <trkpt lat="48.00569" lon="3.31282">
        <ele>74</ele>
        <time>2014-04-14T07:43:44Z</time>
      </trkpt>
      <trkpt lat="48.00567" lon="3.31288">
        <ele>74</ele>
        <time>2014-04-14T07:43:49Z</time>
      </trkpt>
      <trkpt lat="48.00567" lon="3.31295">
        <ele>74</ele>
        <time>2014-04-14T07:43:54Z</time>
      </trkpt>
      <trkpt lat="48.00566" lon="3.31302">
        <ele>74</ele>
        <time>2014-04-14T07:43:58Z</time>
      </trkpt>
      <trkpt lat="48.00563" lon="3.31307">
        <ele>74</ele>
        <time>2014-04-14T07:44:02Z</time>
      </trkpt>
      <trkpt lat="48.00558" lon="3.31331">
        <ele>74</ele>
        <time>2014-04-14T07:44:15Z</time>
      </trkpt>
      <trkpt lat="48.00556" lon="3.31339">
        <ele>75</ele>
        <time>2014-04-14T07:44:19Z</time>
      </trkpt>
      <trkpt lat="48.00549" lon="3.31376">
        <ele>76</ele>
        <time>2014-04-14T07:44:39Z</time>
      </trkpt>
      <trkpt lat="48.00548" lon="3.31391">
        <ele>76</ele>
        <time>2014-04-14T07:44:47Z</time>
      </trkpt>
      <trkpt lat="48.00527" lon="3.31478">
        <ele>76</ele>
        <time>2014-04-14T07:45:33Z</time>
      </trkpt>
      <trkpt lat="48.00523" lon="3.31482">
        <ele>76</ele>
        <time>2014-04-14T07:45:39Z</time>
      </trkpt>
      <trkpt lat="48.00521" lon="3.31502">
        <ele>75</ele>
        <time>2014-04-14T07:45:54Z</time>
      </trkpt>
      <trkpt lat="48.00518" lon="3.31508">
        <ele>75</ele>
        <time>2014-04-14T07:45:58Z</time>
      </trkpt>
      <trkpt lat="48.00517" lon="3.31515">
        <ele>75</ele>
        <time>2014-04-14T07:46:03Z</time>
      </trkpt>
      <trkpt lat="48.00517" lon="3.31529">
        <ele>75</ele>
        <time>2014-04-14T07:46:12Z</time>
      </trkpt>
      <trkpt lat="48.00519" lon="3.31537">
        <ele>75</ele>
        <time>2014-04-14T07:46:18Z</time>
      </trkpt>
      <trkpt lat="48.00517" lon="3.31551">
        <ele>75</ele>
        <time>2014-04-14T07:46:26Z</time>
      </trkpt>
      <trkpt lat="48.00518" lon="3.31566">
        <ele>75</ele>
        <time>2014-04-14T07:46:36Z</time>
      </trkpt>
      <trkpt lat="48.00517" lon="3.31573">
        <ele>75</ele>
        <time>2014-04-14T07:46:39Z</time>
      </trkpt>
      <trkpt lat="48.00515" lon="3.31587">
        <ele>74</ele>
        <time>2014-04-14T07:46:45Z</time>
      </trkpt>
      <trkpt lat="48.00516" lon="3.31595">
        <ele>74</ele>
        <time>2014-04-14T07:46:49Z</time>
      </trkpt>
      <trkpt lat="48.00515" lon="3.31602">
        <ele>74</ele>
        <time>2014-04-14T07:46:53Z</time>
      </trkpt>
      <trkpt lat="48.00513" lon="3.31609">
        <ele>74</ele>
        <time>2014-04-14T07:46:58Z</time>
      </trkpt>
      <trkpt lat="48.00512" lon="3.31617">
        <ele>73</ele>
        <time>2014-04-14T07:47:03Z</time>
      </trkpt>
      <trkpt lat="48.00513" lon="3.31623">
        <ele>73</ele>
        <time>2014-04-14T07:47:07Z</time>
      </trkpt>
      <trkpt lat="48.00511" lon="3.31637">
        <ele>73</ele>
        <time>2014-04-14T07:47:14Z</time>
      </trkpt>
      <trkpt lat="48.00512" lon="3.31653">
        <ele>73</ele>
        <time>2014-04-14T07:47:20Z</time>
      </trkpt>
      <trkpt lat="48.00512" lon="3.31659">
        <ele>73</ele>
        <time>2014-04-14T07:47:23Z</time>
      </trkpt>
      <trkpt lat="48.00508" lon="3.31673">
        <ele>73</ele>
        <time>2014-04-14T07:47:29Z</time>
      </trkpt>
      <trkpt lat="48.00507" lon="3.31682">
        <ele>72</ele>
        <time>2014-04-14T07:47:33Z</time>
      </trkpt>
      <trkpt lat="48.00505" lon="3.31688">
        <ele>72</ele>
        <time>2014-04-14T07:47:36Z</time>
      </trkpt>
      <trkpt lat="48.00504" lon="3.31703">
        <ele>72</ele>
        <time>2014-04-14T07:47:43Z</time>
      </trkpt>
      <trkpt lat="48.00496" lon="3.31732">
        <ele>72</ele>
        <time>2014-04-14T07:47:59Z</time>
      </trkpt>
      <trkpt lat="48.00493" lon="3.31739">
        <ele>72</ele>
        <time>2014-04-14T07:48:03Z</time>
      </trkpt>
      <trkpt lat="48.00492" lon="3.31747">
        <ele>72</ele>
        <time>2014-04-14T07:48:07Z</time>
      </trkpt>
      <trkpt lat="48.00492" lon="3.31755">
        <ele>73</ele>
        <time>2014-04-14T07:48:11Z</time>
      </trkpt>
      <trkpt lat="48.0049" lon="3.31762">
        <ele>73</ele>
        <time>2014-04-14T07:48:15Z</time>
      </trkpt>
      <trkpt lat="48.00487" lon="3.31821">
        <ele>73</ele>
        <time>2014-04-14T07:48:43Z</time>
      </trkpt>
      <trkpt lat="48.00483" lon="3.31836">
        <ele>74</ele>
        <time>2014-04-14T07:48:51Z</time>
      </trkpt>
      <trkpt lat="48.00477" lon="3.31857">
        <ele>74</ele>
        <time>2014-04-14T07:49:06Z</time>
      </trkpt>
      <trkpt lat="48.00476" lon="3.31864">
        <ele>74</ele>
        <time>2014-04-14T07:49:11Z</time>
      </trkpt>
      <trkpt lat="48.00475" lon="3.31871">
        <ele>74</ele>
        <time>2014-04-14T07:49:14Z</time>
      </trkpt>
      <trkpt lat="48.00472" lon="3.31894">
        <ele>74</ele>
        <time>2014-04-14T07:49:25Z</time>
      </trkpt>
      <trkpt lat="48.0047" lon="3.319">
        <ele>74</ele>
        <time>2014-04-14T07:49:30Z</time>
      </trkpt>
      <trkpt lat="48.00467" lon="3.31906">
        <ele>74</ele>
        <time>2014-04-14T07:49:35Z</time>
      </trkpt>
      <trkpt lat="48.00462" lon="3.31933">
        <ele>74</ele>
        <time>2014-04-14T07:49:48Z</time>
      </trkpt>
      <trkpt lat="48.00462" lon="3.3194">
        <ele>74</ele>
        <time>2014-04-14T07:49:51Z</time>
      </trkpt>
      <trkpt lat="48.00462" lon="3.31956">
        <ele>74</ele>
        <time>2014-04-14T07:49:58Z</time>
      </trkpt>
      <trkpt lat="48.00461" lon="3.31964">
        <ele>74</ele>
        <time>2014-04-14T07:50:02Z</time>
      </trkpt>
      <trkpt lat="48.00458" lon="3.31969">
        <ele>74</ele>
        <time>2014-04-14T07:50:06Z</time>
      </trkpt>
      <trkpt lat="48.00454" lon="3.31975">
        <ele>74</ele>
        <time>2014-04-14T07:50:10Z</time>
      </trkpt>
      <trkpt lat="48.00453" lon="3.31982">
        <ele>74</ele>
        <time>2014-04-14T07:50:14Z</time>
      </trkpt>
      <trkpt lat="48.00453" lon="3.31996">
        <ele>74</ele>
        <time>2014-04-14T07:50:25Z</time>
      </trkpt>
      <trkpt lat="48.0045" lon="3.32019">
        <ele>73</ele>
        <time>2014-04-14T07:50:36Z</time>
      </trkpt>
      <trkpt lat="48.00449" lon="3.32041">
        <ele>73</ele>
        <time>2014-04-14T07:50:47Z</time>
      </trkpt>
      <trkpt lat="48.00447" lon="3.32048">
        <ele>73</ele>
        <time>2014-04-14T07:50:52Z</time>
      </trkpt>
      <trkpt lat="48.00446" lon="3.32056">
        <ele>73</ele>
        <time>2014-04-14T07:50:57Z</time>
      </trkpt>
      <trkpt lat="48.00444" lon="3.32063">
        <ele>73</ele>
        <time>2014-04-14T07:51:01Z</time>
      </trkpt>
      <trkpt lat="48.0044" lon="3.32079">
        <ele>73</ele>
        <time>2014-04-14T07:51:08Z</time>
      </trkpt>
      <trkpt lat="48.00438" lon="3.32086">
        <ele>73</ele>
        <time>2014-04-14T07:51:11Z</time>
      </trkpt>
      <trkpt lat="48.00432" lon="3.32101">
        <ele>73</ele>
        <time>2014-04-14T07:51:16Z</time>
      </trkpt>
      <trkpt lat="48.00431" lon="3.32108">
        <ele>73</ele>
        <time>2014-04-14T07:51:18Z</time>
      </trkpt>
      <trkpt lat="48.00432" lon="3.32115">
        <ele>73</ele>
        <time>2014-04-14T07:51:22Z</time>
      </trkpt>
      <trkpt lat="48.00412" lon="3.3221">
        <ele>72</ele>
        <time>2014-04-14T07:52:18Z</time>
      </trkpt>
      <trkpt lat="48.0041" lon="3.32216">
        <ele>72</ele>
        <time>2014-04-14T07:52:22Z</time>
      </trkpt>
      <trkpt lat="48.00409" lon="3.32223">
        <ele>72</ele>
        <time>2014-04-14T07:52:27Z</time>
      </trkpt>
      <trkpt lat="48.00407" lon="3.3223">
        <ele>72</ele>
        <time>2014-04-14T07:52:31Z</time>
      </trkpt>
      <trkpt lat="48.00406" lon="3.32238">
        <ele>72</ele>
        <time>2014-04-14T07:52:35Z</time>
      </trkpt>
      <trkpt lat="48.00401" lon="3.32251">
        <ele>72</ele>
        <time>2014-04-14T07:52:45Z</time>
      </trkpt>
      <trkpt lat="48.00398" lon="3.32261">
        <ele>72</ele>
        <time>2014-04-14T07:53:00Z</time>
      </trkpt>
      <trkpt lat="48.00397" lon="3.32286">
        <ele>72</ele>
        <time>2014-04-14T07:53:26Z</time>
      </trkpt>
      <trkpt lat="48.0039" lon="3.32307">
        <ele>72</ele>
        <time>2014-04-14T07:53:40Z</time>
      </trkpt>
      <trkpt lat="48.00387" lon="3.32321">
        <ele>72</ele>
        <time>2014-04-14T07:53:47Z</time>
      </trkpt>
      <trkpt lat="48.00385" lon="3.32328">
        <ele>72</ele>
        <time>2014-04-14T07:53:50Z</time>
      </trkpt>
      <trkpt lat="48.00379" lon="3.32371">
        <ele>72</ele>
        <time>2014-04-14T07:54:14Z</time>
      </trkpt>
      <trkpt lat="48.00373" lon="3.32392">
        <ele>72</ele>
        <time>2014-04-14T07:54:26Z</time>
      </trkpt>
      <trkpt lat="48.0037" lon="3.32398">
        <ele>72</ele>
        <time>2014-04-14T07:54:29Z</time>
      </trkpt>
      <trkpt lat="48.00368" lon="3.32411">
        <ele>72</ele>
        <time>2014-04-14T07:54:35Z</time>
      </trkpt>
      <trkpt lat="48.00367" lon="3.3242">
        <ele>72</ele>
        <time>2014-04-14T07:54:40Z</time>
      </trkpt>
      <trkpt lat="48.00366" lon="3.32427">
        <ele>72</ele>
        <time>2014-04-14T07:54:45Z</time>
      </trkpt>
      <trkpt lat="48.00365" lon="3.3243">
        <ele>72</ele>
        <time>2014-04-14T07:54:51Z</time>
      </trkpt>
      <trkpt lat="48.00361" lon="3.32434">
        <ele>72</ele>
        <time>2014-04-14T07:54:58Z</time>
      </trkpt>
      <trkpt lat="48.00358" lon="3.3244">
        <ele>72</ele>
        <time>2014-04-14T07:55:02Z</time>
      </trkpt>
      <trkpt lat="48.0035" lon="3.3245">
        <ele>72</ele>
        <time>2014-04-14T07:55:12Z</time>
      </trkpt>
      <trkpt lat="48.00346" lon="3.32454">
        <ele>72</ele>
        <time>2014-04-14T07:55:16Z</time>
      </trkpt>
      <trkpt lat="48.00341" lon="3.32457">
        <ele>72</ele>
        <time>2014-04-14T07:55:20Z</time>
      </trkpt>
      <trkpt lat="48.00337" lon="3.32462">
        <ele>73</ele>
        <time>2014-04-14T07:55:24Z</time>
      </trkpt>
      <trkpt lat="48.00335" lon="3.32468">
        <ele>73</ele>
        <time>2014-04-14T07:55:28Z</time>
      </trkpt>
      <trkpt lat="48.00333" lon="3.32474">
        <ele>73</ele>
        <time>2014-04-14T07:55:32Z</time>
      </trkpt>
      <trkpt lat="48.00332" lon="3.32483">
        <ele>73</ele>
        <time>2014-04-14T07:55:36Z</time>
      </trkpt>
      <trkpt lat="48.00332" lon="3.32491">
        <ele>73</ele>
        <time>2014-04-14T07:55:40Z</time>
      </trkpt>
      <trkpt lat="48.00333" lon="3.32499">
        <ele>73</ele>
        <time>2014-04-14T07:55:44Z</time>
      </trkpt>
      <trkpt lat="48.00335" lon="3.32505">
        <ele>73</ele>
        <time>2014-04-14T07:55:48Z</time>
      </trkpt>
      <trkpt lat="48.00337" lon="3.32513">
        <ele>73</ele>
        <time>2014-04-14T07:55:52Z</time>
      </trkpt>
      <trkpt lat="48.00337" lon="3.3252">
        <ele>73</ele>
        <time>2014-04-14T07:55:57Z</time>
      </trkpt>
      <trkpt lat="48.00342" lon="3.32542">
        <ele>73</ele>
        <time>2014-04-14T07:56:09Z</time>
      </trkpt>
      <trkpt lat="48.00343" lon="3.32551">
        <ele>73</ele>
        <time>2014-04-14T07:56:14Z</time>
      </trkpt>
      <trkpt lat="48.00356" lon="3.32584">
        <ele>73</ele>
        <time>2014-04-14T07:56:32Z</time>
      </trkpt>
      <trkpt lat="48.00356" lon="3.32592">
        <ele>73</ele>
        <time>2014-04-14T07:56:36Z</time>
      </trkpt>
      <trkpt lat="48.00353" lon="3.32599">
        <ele>73</ele>
        <time>2014-04-14T07:56:39Z</time>
      </trkpt>
      <trkpt lat="48.00353" lon="3.32606">
        <ele>73</ele>
        <time>2014-04-14T07:56:44Z</time>
      </trkpt>
      <trkpt lat="48.00356" lon="3.32612">
        <ele>73</ele>
        <time>2014-04-14T07:56:47Z</time>
      </trkpt>
      <trkpt lat="48.00359" lon="3.32619">
        <ele>73</ele>
        <time>2014-04-14T07:56:51Z</time>
      </trkpt>
      <trkpt lat="48.00361" lon="3.32624">
        <ele>73</ele>
        <time>2014-04-14T07:56:53Z</time>
      </trkpt>
      <trkpt lat="48.00363" lon="3.32632">
        <ele>73</ele>
        <time>2014-04-14T07:56:57Z</time>
      </trkpt>
      <trkpt lat="48.00363" lon="3.32639">
        <ele>73</ele>
        <time>2014-04-14T07:57:01Z</time>
      </trkpt>
      <trkpt lat="48.00369" lon="3.3265">
        <ele>73</ele>
        <time>2014-04-14T07:57:07Z</time>
      </trkpt>
      <trkpt lat="48.00371" lon="3.32656">
        <ele>73</ele>
        <time>2014-04-14T07:57:10Z</time>
      </trkpt>
      <trkpt lat="48.00375" lon="3.32662">
        <ele>73</ele>
        <time>2014-04-14T07:57:14Z</time>
      </trkpt>
      <trkpt lat="48.00379" lon="3.32667">
        <ele>73</ele>
        <time>2014-04-14T07:57:18Z</time>
      </trkpt>
      <trkpt lat="48.00381" lon="3.32674">
        <ele>73</ele>
        <time>2014-04-14T07:57:22Z</time>
      </trkpt>
      <trkpt lat="48.00374" lon="3.32684">
        <ele>73</ele>
        <time>2014-04-14T07:57:30Z</time>
      </trkpt>
      <trkpt lat="48.0038" lon="3.32692">
        <ele>73</ele>
        <time>2014-04-14T07:57:34Z</time>
      </trkpt>
      <trkpt lat="48.00383" lon="3.32698">
        <ele>73</ele>
        <time>2014-04-14T07:57:37Z</time>
      </trkpt>
      <trkpt lat="48.00388" lon="3.32711">
        <ele>73</ele>
        <time>2014-04-14T07:57:43Z</time>
      </trkpt>
      <trkpt lat="48.0039" lon="3.32726">
        <ele>73</ele>
        <time>2014-04-14T07:57:51Z</time>
      </trkpt>
      <trkpt lat="48.00389" lon="3.32733">
        <ele>73</ele>
        <time>2014-04-14T07:57:55Z</time>
      </trkpt>
      <trkpt lat="48.00382" lon="3.32745">
        <ele>73</ele>
        <time>2014-04-14T07:58:04Z</time>
      </trkpt>
      <trkpt lat="48.0038" lon="3.32752">
        <ele>73</ele>
        <time>2014-04-14T07:58:07Z</time>
      </trkpt>
      <trkpt lat="48.00381" lon="3.32759">
        <ele>73</ele>
        <time>2014-04-14T07:58:11Z</time>
      </trkpt>
      <trkpt lat="48.00384" lon="3.32764">
        <ele>73</ele>
        <time>2014-04-14T07:58:13Z</time>
      </trkpt>
      <trkpt lat="48.00388" lon="3.32776">
        <ele>73</ele>
        <time>2014-04-14T07:58:19Z</time>
      </trkpt>
      <trkpt lat="48.00393" lon="3.32799">
        <ele>73</ele>
        <time>2014-04-14T07:58:32Z</time>
      </trkpt>
      <trkpt lat="48.00398" lon="3.32812">
        <ele>73</ele>
        <time>2014-04-14T07:58:39Z</time>
      </trkpt>
      <trkpt lat="48.00398" lon="3.3282">
        <ele>74</ele>
        <time>2014-04-14T07:58:44Z</time>
      </trkpt>
      <trkpt lat="48.00413" lon="3.32853">
        <ele>74</ele>
        <time>2014-04-14T07:59:03Z</time>
      </trkpt>
      <trkpt lat="48.0042" lon="3.32883">
        <ele>75</ele>
        <time>2014-04-14T07:59:17Z</time>
      </trkpt>
      <trkpt lat="48.00422" lon="3.32905">
        <ele>75</ele>
        <time>2014-04-14T07:59:29Z</time>
      </trkpt>
      <trkpt lat="48.00429" lon="3.3294">
        <ele>75</ele>
        <time>2014-04-14T07:59:48Z</time>
      </trkpt>
      <trkpt lat="48.00427" lon="3.32941">
        <ele>75</ele>
        <time>2014-04-14T07:59:54Z</time>
      </trkpt>
      <trkpt lat="48.00425" lon="3.32947">
        <ele>75</ele>
        <time>2014-04-14T08:00:05Z</time>
      </trkpt>
      <trkpt lat="48.00429" lon="3.32954">
        <ele>75</ele>
        <time>2014-04-14T08:00:10Z</time>
      </trkpt>
      <trkpt lat="48.00433" lon="3.32957">
        <ele>75</ele>
        <time>2014-04-14T08:00:15Z</time>
      </trkpt>
      <trkpt lat="48.00433" lon="3.32973">
        <ele>75</ele>
        <time>2014-04-14T08:00:23Z</time>
      </trkpt>
      <trkpt lat="48.00431" lon="3.32979">
        <ele>75</ele>
        <time>2014-04-14T08:00:26Z</time>
      </trkpt>
      <trkpt lat="48.00428" lon="3.32986">
        <ele>75</ele>
        <time>2014-04-14T08:00:29Z</time>
      </trkpt>
      <trkpt lat="48.00427" lon="3.32994">
        <ele>75</ele>
        <time>2014-04-14T08:00:33Z</time>
      </trkpt>
      <trkpt lat="48.00436" lon="3.33035">
        <ele>76</ele>
        <time>2014-04-14T08:00:59Z</time>
      </trkpt>
      <trkpt lat="48.00438" lon="3.33065">
        <ele>76</ele>
        <time>2014-04-14T08:01:13Z</time>
      </trkpt>
      <trkpt lat="48.00441" lon="3.33078">
        <ele>76</ele>
        <time>2014-04-14T08:01:20Z</time>
      </trkpt>
      <trkpt lat="48.0044" lon="3.33085">
        <ele>77</ele>
        <time>2014-04-14T08:01:25Z</time>
      </trkpt>
      <trkpt lat="48.0044" lon="3.33092">
        <ele>77</ele>
        <time>2014-04-14T08:01:30Z</time>
      </trkpt>
      <trkpt lat="48.00444" lon="3.33116">
        <ele>77</ele>
        <time>2014-04-14T08:01:42Z</time>
      </trkpt>
      <trkpt lat="48.00443" lon="3.33124">
        <ele>77</ele>
        <time>2014-04-14T08:01:45Z</time>
      </trkpt>
      <trkpt lat="48.00441" lon="3.33131">
        <ele>77</ele>
        <time>2014-04-14T08:01:49Z</time>
      </trkpt>
      <trkpt lat="48.00441" lon="3.33138">
        <ele>77</ele>
        <time>2014-04-14T08:01:53Z</time>
      </trkpt>
      <trkpt lat="48.0044" lon="3.33146">
        <ele>77</ele>
        <time>2014-04-14T08:01:57Z</time>
      </trkpt>
      <trkpt lat="48.0044" lon="3.33161">
        <ele>77</ele>
        <time>2014-04-14T08:02:05Z</time>
      </trkpt>
      <trkpt lat="48.00439" lon="3.33169">
        <ele>79</ele>
        <time>2014-04-14T08:02:09Z</time>
      </trkpt>
      <trkpt lat="48.00437" lon="3.33176">
        <ele>79</ele>
        <time>2014-04-14T08:02:13Z</time>
      </trkpt>
      <trkpt lat="48.00433" lon="3.33214">
        <ele>80</ele>
        <time>2014-04-14T08:02:33Z</time>
      </trkpt>
      <trkpt lat="48.00427" lon="3.33236">
        <ele>78</ele>
        <time>2014-04-14T08:02:45Z</time>
      </trkpt>
      <trkpt lat="48.00427" lon="3.33251">
        <ele>79</ele>
        <time>2014-04-14T08:02:53Z</time>
      </trkpt>
      <trkpt lat="48.00425" lon="3.33266">
        <ele>81</ele>
        <time>2014-04-14T08:03:03Z</time>
      </trkpt>
      <trkpt lat="48.00422" lon="3.33273">
        <ele>82</ele>
        <time>2014-04-14T08:03:06Z</time>
      </trkpt>
      <trkpt lat="48.00416" lon="3.33319">
        <ele>78</ele>
        <time>2014-04-14T08:03:31Z</time>
      </trkpt>
      <trkpt lat="48.00414" lon="3.33325">
        <ele>79</ele>
        <time>2014-04-14T08:03:36Z</time>
      </trkpt>
      <trkpt lat="48.00406" lon="3.3337">
        <ele>80</ele>
        <time>2014-04-14T08:04:01Z</time>
      </trkpt>
      <trkpt lat="48.004" lon="3.3339">
        <ele>81</ele>
        <time>2014-04-14T08:04:11Z</time>
      </trkpt>
      <trkpt lat="48.00396" lon="3.33411">
        <ele>82</ele>
        <time>2014-04-14T08:04:22Z</time>
      </trkpt>
      <trkpt lat="48.00393" lon="3.33419">
        <ele>83</ele>
        <time>2014-04-14T08:04:26Z</time>
      </trkpt>
      <trkpt lat="48.00389" lon="3.33425">
        <ele>82</ele>
        <time>2014-04-14T08:04:29Z</time>
      </trkpt>
      <trkpt lat="48.00387" lon="3.33432">
        <ele>82</ele>
        <time>2014-04-14T08:04:33Z</time>
      </trkpt>
      <trkpt lat="48.00386" lon="3.33439">
        <ele>82</ele>
        <time>2014-04-14T08:04:37Z</time>
      </trkpt>
      <trkpt lat="48.00383" lon="3.33453">
        <ele>82</ele>
        <time>2014-04-14T08:04:45Z</time>
      </trkpt>
      <trkpt lat="48.00383" lon="3.33468">
        <ele>82</ele>
        <time>2014-04-14T08:04:54Z</time>
      </trkpt>
      <trkpt lat="48.0037" lon="3.33529">
        <ele>83</ele>
        <time>2014-04-14T08:05:29Z</time>
      </trkpt>
      <trkpt lat="48.00359" lon="3.33595">
        <ele>83</ele>
        <time>2014-04-14T08:06:05Z</time>
      </trkpt>
      <trkpt lat="48.00354" lon="3.33618">
        <ele>84</ele>
        <time>2014-04-14T08:06:17Z</time>
      </trkpt>
      <trkpt lat="48.00352" lon="3.33641">
        <ele>83</ele>
        <time>2014-04-14T08:06:30Z</time>
      </trkpt>
      <trkpt lat="48.00348" lon="3.33657">
        <ele>82</ele>
        <time>2014-04-14T08:06:37Z</time>
      </trkpt>
      <trkpt lat="48.00345" lon="3.33664">
        <ele>81</ele>
        <time>2014-04-14T08:06:41Z</time>
      </trkpt>
      <trkpt lat="48.00347" lon="3.33674">
        <ele>84</ele>
        <time>2014-04-14T08:06:55Z</time>
      </trkpt>
      <trkpt lat="48.00346" lon="3.33681">
        <ele>84</ele>
        <time>2014-04-14T08:06:59Z</time>
      </trkpt>
      <trkpt lat="48.00343" lon="3.33688">
        <ele>85</ele>
        <time>2014-04-14T08:07:04Z</time>
      </trkpt>
      <trkpt lat="48.00343" lon="3.33696">
        <ele>86</ele>
        <time>2014-04-14T08:07:09Z</time>
      </trkpt>
      <trkpt lat="48.00342" lon="3.33703">
        <ele>86</ele>
        <time>2014-04-14T08:07:12Z</time>
      </trkpt>
      <trkpt lat="48.00331" lon="3.33729">
        <ele>79</ele>
        <time>2014-04-14T08:07:28Z</time>
      </trkpt>
      <trkpt lat="48.00328" lon="3.33734">
        <ele>79</ele>
        <time>2014-04-14T08:07:32Z</time>
      </trkpt>
      <trkpt lat="48.00325" lon="3.33737">
        <ele>79</ele>
        <time>2014-04-14T08:07:42Z</time>
      </trkpt>
      <trkpt lat="48.00322" lon="3.33744">
        <ele>79</ele>
        <time>2014-04-14T08:07:47Z</time>
      </trkpt>
      <trkpt lat="48.00319" lon="3.3375">
        <ele>79</ele>
        <time>2014-04-14T08:07:49Z</time>
      </trkpt>
      <trkpt lat="48.00316" lon="3.33773">
        <ele>81</ele>
        <time>2014-04-14T08:08:01Z</time>
      </trkpt>
      <trkpt lat="48.00314" lon="3.33779">
        <ele>81</ele>
        <time>2014-04-14T08:08:06Z</time>
      </trkpt>
      <trkpt lat="48.00312" lon="3.33782">
        <ele>81</ele>
        <time>2014-04-14T08:08:23Z</time>
      </trkpt>
      <trkpt lat="48.00305" lon="3.33826">
        <ele>82</ele>
        <time>2014-04-14T08:08:51Z</time>
      </trkpt>
      <trkpt lat="48.00297" lon="3.33846">
        <ele>83</ele>
        <time>2014-04-14T08:09:04Z</time>
      </trkpt>
      <trkpt lat="48.00296" lon="3.33855">
        <ele>83</ele>
        <time>2014-04-14T08:09:08Z</time>
      </trkpt>
      <trkpt lat="48.0029" lon="3.33876">
        <ele>83</ele>
        <time>2014-04-14T08:09:22Z</time>
      </trkpt>
      <trkpt lat="48.00287" lon="3.33883">
        <ele>83</ele>
        <time>2014-04-14T08:09:26Z</time>
      </trkpt>
      <trkpt lat="48.00281" lon="3.33904">
        <ele>82</ele>
        <time>2014-04-14T08:09:41Z</time>
      </trkpt>
      <trkpt lat="48.00273" lon="3.33912">
        <ele>81</ele>
        <time>2014-04-14T08:09:46Z</time>
      </trkpt>
      <trkpt lat="48.00267" lon="3.33925">
        <ele>82</ele>
        <time>2014-04-14T08:09:52Z</time>
      </trkpt>
      <trkpt lat="48.00262" lon="3.33939">
        <ele>83</ele>
        <time>2014-04-14T08:09:59Z</time>
      </trkpt>
      <trkpt lat="48.00258" lon="3.33944">
        <ele>83</ele>
        <time>2014-04-14T08:10:03Z</time>
      </trkpt>
      <trkpt lat="48.00254" lon="3.33948">
        <ele>83</ele>
        <time>2014-04-14T08:10:11Z</time>
      </trkpt>
      <trkpt lat="48.0025" lon="3.33953">
        <ele>83</ele>
        <time>2014-04-14T08:10:16Z</time>
      </trkpt>
      <trkpt lat="48.00247" lon="3.33958">
        <ele>77</ele>
        <time>2014-04-14T08:10:19Z</time>
      </trkpt>
      <trkpt lat="48.00237" lon="3.33977">
        <ele>77</ele>
        <time>2014-04-14T08:10:31Z</time>
      </trkpt>
      <trkpt lat="48.00236" lon="3.33984">
        <ele>77</ele>
        <time>2014-04-14T08:10:33Z</time>
      </trkpt>
      <trkpt lat="48.00233" lon="3.33991">
        <ele>78</ele>
        <time>2014-04-14T08:10:37Z</time>
      </trkpt>
      <trkpt lat="48.00231" lon="3.33998">
        <ele>78</ele>
        <time>2014-04-14T08:10:40Z</time>
      </trkpt>
      <trkpt lat="48.00218" lon="3.34015">
        <ele>78</ele>
        <time>2014-04-14T08:10:51Z</time>
      </trkpt>
      <trkpt lat="48.00215" lon="3.34019">
        <ele>78</ele>
        <time>2014-04-14T08:10:55Z</time>
      </trkpt>
      <trkpt lat="48.00211" lon="3.34025">
        <ele>78</ele>
        <time>2014-04-14T08:11:02Z</time>
      </trkpt>
      <trkpt lat="48.00207" lon="3.3403">
        <ele>78</ele>
        <time>2014-04-14T08:11:06Z</time>
      </trkpt>
      <trkpt lat="48.00203" lon="3.34033">
        <ele>78</ele>
        <time>2014-04-14T08:11:12Z</time>
      </trkpt>
      <trkpt lat="48.00201" lon="3.34041">
        <ele>78</ele>
        <time>2014-04-14T08:11:17Z</time>
      </trkpt>
      <trkpt lat="48.00197" lon="3.34045">
        <ele>78</ele>
        <time>2014-04-14T08:11:22Z</time>
      </trkpt>
      <trkpt lat="48.00194" lon="3.34051">
        <ele>78</ele>
        <time>2014-04-14T08:11:27Z</time>
      </trkpt>
      <trkpt lat="48.00189" lon="3.34053">
        <ele>77</ele>
        <time>2014-04-14T08:11:31Z</time>
      </trkpt>
      <trkpt lat="48.00184" lon="3.34057">
        <ele>77</ele>
        <time>2014-04-14T08:11:35Z</time>
      </trkpt>
      <trkpt lat="48.00181" lon="3.34062">
        <ele>77</ele>
        <time>2014-04-14T08:11:38Z</time>
      </trkpt>
      <trkpt lat="48.00176" lon="3.34064">
        <ele>77</ele>
        <time>2014-04-14T08:11:42Z</time>
      </trkpt>
      <trkpt lat="48.00173" lon="3.34069">
        <ele>76</ele>
        <time>2014-04-14T08:11:45Z</time>
      </trkpt>
      <trkpt lat="48.00169" lon="3.34074">
        <ele>76</ele>
        <time>2014-04-14T08:11:50Z</time>
      </trkpt>
      <trkpt lat="48.00165" lon="3.34077">
        <ele>75</ele>
        <time>2014-04-14T08:11:53Z</time>
      </trkpt>
      <trkpt lat="48.00163" lon="3.34084">
        <ele>75</ele>
        <time>2014-04-14T08:11:57Z</time>
      </trkpt>
      <trkpt lat="48.00159" lon="3.34088">
        <ele>75</ele>
        <time>2014-04-14T08:12:01Z</time>
      </trkpt>
      <trkpt lat="48.00155" lon="3.34094">
        <ele>75</ele>
        <time>2014-04-14T08:12:05Z</time>
      </trkpt>
      <trkpt lat="48.0015" lon="3.34099">
        <ele>75</ele>
        <time>2014-04-14T08:12:09Z</time>
      </trkpt>
      <trkpt lat="48.00147" lon="3.34105">
        <ele>75</ele>
        <time>2014-04-14T08:12:13Z</time>
      </trkpt>
      <trkpt lat="48.00144" lon="3.3411">
        <ele>75</ele>
        <time>2014-04-14T08:12:16Z</time>
      </trkpt>
      <trkpt lat="48.00139" lon="3.34114">
        <ele>76</ele>
        <time>2014-04-14T08:12:20Z</time>
      </trkpt>
      <trkpt lat="48.00131" lon="3.34125">
        <ele>76</ele>
        <time>2014-04-14T08:12:28Z</time>
      </trkpt>
      <trkpt lat="48.00127" lon="3.34129">
        <ele>76</ele>
        <time>2014-04-14T08:12:33Z</time>
      </trkpt>
      <trkpt lat="48.00121" lon="3.34131">
        <ele>76</ele>
        <time>2014-04-14T08:12:38Z</time>
      </trkpt>
      <trkpt lat="48.00117" lon="3.34135">
        <ele>76</ele>
        <time>2014-04-14T08:12:42Z</time>
      </trkpt>
      <trkpt lat="48.00115" lon="3.34142">
        <ele>76</ele>
        <time>2014-04-14T08:12:47Z</time>
      </trkpt>
      <trkpt lat="48.00111" lon="3.34146">
        <ele>76</ele>
        <time>2014-04-14T08:12:50Z</time>
      </trkpt>
      <trkpt lat="48.00107" lon="3.3415">
        <ele>75</ele>
        <time>2014-04-14T08:12:55Z</time>
      </trkpt>
      <trkpt lat="48.00101" lon="3.34151">
        <ele>75</ele>
        <time>2014-04-14T08:13:01Z</time>
      </trkpt>
      <trkpt lat="48.00099" lon="3.34156">
        <ele>75</ele>
        <time>2014-04-14T08:13:04Z</time>
      </trkpt>
      <trkpt lat="48.00096" lon="3.34164">
        <ele>75</ele>
        <time>2014-04-14T08:13:07Z</time>
      </trkpt>
      <trkpt lat="48.00092" lon="3.34169">
        <ele>76</ele>
        <time>2014-04-14T08:13:12Z</time>
      </trkpt>
      <trkpt lat="48.00088" lon="3.34172">
        <ele>76</ele>
        <time>2014-04-14T08:13:16Z</time>
      </trkpt>
      <trkpt lat="48.0008" lon="3.34182">
        <ele>75</ele>
        <time>2014-04-14T08:13:31Z</time>
      </trkpt>
      <trkpt lat="48.00075" lon="3.34186">
        <ele>75</ele>
        <time>2014-04-14T08:13:37Z</time>
      </trkpt>
      <trkpt lat="48.0007" lon="3.34189">
        <ele>75</ele>
        <time>2014-04-14T08:13:41Z</time>
      </trkpt>
      <trkpt lat="48.00065" lon="3.34192">
        <ele>75</ele>
        <time>2014-04-14T08:13:45Z</time>
      </trkpt>
      <trkpt lat="48.0006" lon="3.34196">
        <ele>75</ele>
        <time>2014-04-14T08:13:48Z</time>
      </trkpt>
      <trkpt lat="48.0005" lon="3.34203">
        <ele>75</ele>
        <time>2014-04-14T08:13:57Z</time>
      </trkpt>
      <trkpt lat="48.00045" lon="3.34205">
        <ele>75</ele>
        <time>2014-04-14T08:14:01Z</time>
      </trkpt>
      <trkpt lat="48.00041" lon="3.34209">
        <ele>75</ele>
        <time>2014-04-14T08:14:04Z</time>
      </trkpt>
      <trkpt lat="48.00032" lon="3.34215">
        <ele>75</ele>
        <time>2014-04-14T08:14:14Z</time>
      </trkpt>
      <trkpt lat="48.00014" lon="3.34232">
        <ele>75</ele>
        <time>2014-04-14T08:14:30Z</time>
      </trkpt>
      <trkpt lat="48.0001" lon="3.34236">
        <ele>75</ele>
        <time>2014-04-14T08:14:32Z</time>
      </trkpt>
      <trkpt lat="48.00006" lon="3.3424">
        <ele>75</ele>
        <time>2014-04-14T08:14:37Z</time>
      </trkpt>
      <trkpt lat="48.00001" lon="3.34244">
        <ele>74</ele>
        <time>2014-04-14T08:14:41Z</time>
      </trkpt>
      <trkpt lat="47.99996" lon="3.34247">
        <ele>74</ele>
        <time>2014-04-14T08:14:45Z</time>
      </trkpt>
      <trkpt lat="47.99992" lon="3.3425">
        <ele>74</ele>
        <time>2014-04-14T08:14:50Z</time>
      </trkpt>
      <trkpt lat="47.99983" lon="3.3426">
        <ele>74</ele>
        <time>2014-04-14T08:14:57Z</time>
      </trkpt>
      <trkpt lat="47.99953" lon="3.3429">
        <ele>74</ele>
        <time>2014-04-14T08:15:26Z</time>
      </trkpt>
      <trkpt lat="47.99952" lon="3.34287">
        <ele>74</ele>
        <time>2014-04-14T08:15:47Z</time>
      </trkpt>
      <trkpt lat="47.99948" lon="3.34295">
        <ele>75</ele>
        <time>2014-04-14T08:16:04Z</time>
      </trkpt>
      <trkpt lat="47.99944" lon="3.343">
        <ele>75</ele>
        <time>2014-04-14T08:16:08Z</time>
      </trkpt>
      <trkpt lat="47.9994" lon="3.34304">
        <ele>75</ele>
        <time>2014-04-14T08:16:11Z</time>
      </trkpt>
      <trkpt lat="47.99936" lon="3.34308">
        <ele>75</ele>
        <time>2014-04-14T08:16:14Z</time>
      </trkpt>
      <trkpt lat="47.99934" lon="3.3431">
        <ele>75</ele>
        <time>2014-04-14T08:16:27Z</time>
      </trkpt>
      <trkpt lat="47.99921" lon="3.34321">
        <ele>75</ele>
        <time>2014-04-14T08:16:41Z</time>
      </trkpt>
      <trkpt lat="47.99913" lon="3.34329">
        <ele>75</ele>
        <time>2014-04-14T08:16:49Z</time>
      </trkpt>
      <trkpt lat="47.9989" lon="3.34347">
        <ele>75</ele>
        <time>2014-04-14T08:17:09Z</time>
      </trkpt>
      <trkpt lat="47.99886" lon="3.34352">
        <ele>75</ele>
        <time>2014-04-14T08:17:14Z</time>
      </trkpt>
      <trkpt lat="47.99882" lon="3.34356">
        <ele>75</ele>
        <time>2014-04-14T08:17:17Z</time>
      </trkpt>
      <trkpt lat="47.99875" lon="3.34367">
        <ele>75</ele>
        <time>2014-04-14T08:17:24Z</time>
      </trkpt>
      <trkpt lat="47.99871" lon="3.34371">
        <ele>75</ele>
        <time>2014-04-14T08:17:28Z</time>
      </trkpt>
      <trkpt lat="47.99859" lon="3.34385">
        <ele>75</ele>
        <time>2014-04-14T08:17:41Z</time>
      </trkpt>
      <trkpt lat="47.99855" lon="3.34389">
        <ele>75</ele>
        <time>2014-04-14T08:17:48Z</time>
      </trkpt>
      <trkpt lat="47.99848" lon="3.34399">
        <ele>75</ele>
        <time>2014-04-14T08:17:55Z</time>
      </trkpt>
      <trkpt lat="47.99843" lon="3.34398">
        <ele>75</ele>
        <time>2014-04-14T08:18:00Z</time>
      </trkpt>
      <trkpt lat="47.99841" lon="3.34406">
        <ele>75</ele>
        <time>2014-04-14T08:18:05Z</time>
      </trkpt>
      <trkpt lat="47.99838" lon="3.34411">
        <ele>75</ele>
        <time>2014-04-14T08:18:10Z</time>
      </trkpt>
      <trkpt lat="47.99839" lon="3.34417">
        <ele>75</ele>
        <time>2014-04-14T08:18:30Z</time>
      </trkpt>
      <trkpt lat="47.99836" lon="3.34424">
        <ele>75</ele>
        <time>2014-04-14T08:18:35Z</time>
      </trkpt>
      <trkpt lat="47.99835" lon="3.34432">
        <ele>76</ele>
        <time>2014-04-14T08:18:40Z</time>
      </trkpt>
      <trkpt lat="47.99805" lon="3.34522">
        <ele>75</ele>
        <time>2014-04-14T08:19:35Z</time>
      </trkpt>
      <trkpt lat="47.99789" lon="3.34561">
        <ele>75</ele>
        <time>2014-04-14T08:19:59Z</time>
      </trkpt>
      <trkpt lat="47.99787" lon="3.34568">
        <ele>75</ele>
        <time>2014-04-14T08:20:05Z</time>
      </trkpt>
      <trkpt lat="47.99787" lon="3.34576">
        <ele>75</ele>
        <time>2014-04-14T08:20:10Z</time>
      </trkpt>
      <trkpt lat="47.99789" lon="3.3458">
        <ele>75</ele>
        <time>2014-04-14T08:20:17Z</time>
      </trkpt>
      <trkpt lat="47.99785" lon="3.34588">
        <ele>75</ele>
        <time>2014-04-14T08:20:48Z</time>
      </trkpt>
      <trkpt lat="47.9978" lon="3.34595">
        <ele>75</ele>
        <time>2014-04-14T08:20:51Z</time>
      </trkpt>
      <trkpt lat="47.99776" lon="3.34598">
        <ele>75</ele>
        <time>2014-04-14T08:20:55Z</time>
      </trkpt>
      <trkpt lat="47.99771" lon="3.34611">
        <ele>75</ele>
        <time>2014-04-14T08:21:05Z</time>
      </trkpt>
      <trkpt lat="47.99771" lon="3.34618">
        <ele>75</ele>
        <time>2014-04-14T08:21:26Z</time>
      </trkpt>
      <trkpt lat="47.99765" lon="3.3463">
        <ele>75</ele>
        <time>2014-04-14T08:21:40Z</time>
      </trkpt>
      <trkpt lat="47.99762" lon="3.34637">
        <ele>75</ele>
        <time>2014-04-14T08:21:46Z</time>
      </trkpt>
      <trkpt lat="47.99759" lon="3.34643">
        <ele>75</ele>
        <time>2014-04-14T08:21:51Z</time>
      </trkpt>
      <trkpt lat="47.99755" lon="3.34647">
        <ele>75</ele>
        <time>2014-04-14T08:21:55Z</time>
      </trkpt>
      <trkpt lat="47.99751" lon="3.34653">
        <ele>75</ele>
        <time>2014-04-14T08:21:59Z</time>
      </trkpt>
      <trkpt lat="47.99747" lon="3.34659">
        <ele>75</ele>
        <time>2014-04-14T08:22:04Z</time>
      </trkpt>
      <trkpt lat="47.99743" lon="3.34664">
        <ele>75</ele>
        <time>2014-04-14T08:22:08Z</time>
      </trkpt>
      <trkpt lat="47.99733" lon="3.34681">
        <ele>75</ele>
        <time>2014-04-14T08:22:17Z</time>
      </trkpt>
      <trkpt lat="47.99725" lon="3.34701">
        <ele>75</ele>
        <time>2014-04-14T08:22:30Z</time>
      </trkpt>
      <trkpt lat="47.99724" lon="3.34708">
        <ele>75</ele>
        <time>2014-04-14T08:22:35Z</time>
      </trkpt>
      <trkpt lat="47.9972" lon="3.34722">
        <ele>75</ele>
        <time>2014-04-14T08:22:44Z</time>
      </trkpt>
      <trkpt lat="47.99717" lon="3.34727">
        <ele>75</ele>
        <time>2014-04-14T08:22:48Z</time>
      </trkpt>
      <trkpt lat="47.99713" lon="3.34732">
        <ele>75</ele>
        <time>2014-04-14T08:22:51Z</time>
      </trkpt>
      <trkpt lat="47.9971" lon="3.34738">
        <ele>75</ele>
        <time>2014-04-14T08:22:56Z</time>
      </trkpt>
      <trkpt lat="47.99705" lon="3.34751">
        <ele>75</ele>
        <time>2014-04-14T08:23:04Z</time>
      </trkpt>
      <trkpt lat="47.99703" lon="3.34757">
        <ele>75</ele>
        <time>2014-04-14T08:23:08Z</time>
      </trkpt>
      <trkpt lat="47.99697" lon="3.34769">
        <ele>75</ele>
        <time>2014-04-14T08:23:17Z</time>
      </trkpt>
      <trkpt lat="47.99697" lon="3.34786">
        <ele>75</ele>
        <time>2014-04-14T08:23:24Z</time>
      </trkpt>
      <trkpt lat="47.99696" lon="3.34793">
        <ele>75</ele>
        <time>2014-04-14T08:23:27Z</time>
      </trkpt>
      <trkpt lat="47.99694" lon="3.34799">
        <ele>75</ele>
        <time>2014-04-14T08:23:30Z</time>
      </trkpt>
      <trkpt lat="47.99674" lon="3.34845">
        <ele>75</ele>
        <time>2014-04-14T08:23:59Z</time>
      </trkpt>
      <trkpt lat="47.99669" lon="3.34852">
        <ele>75</ele>
        <time>2014-04-14T08:24:10Z</time>
      </trkpt>
      <trkpt lat="47.99666" lon="3.34858">
        <ele>76</ele>
        <time>2014-04-14T08:24:14Z</time>
      </trkpt>
      <trkpt lat="47.99663" lon="3.34871">
        <ele>76</ele>
        <time>2014-04-14T08:24:22Z</time>
      </trkpt>
      <trkpt lat="47.9966" lon="3.34878">
        <ele>75</ele>
        <time>2014-04-14T08:24:24Z</time>
      </trkpt>
      <trkpt lat="47.99656" lon="3.34883">
        <ele>75</ele>
        <time>2014-04-14T08:24:29Z</time>
      </trkpt>
      <trkpt lat="47.99641" lon="3.34924">
        <ele>76</ele>
        <time>2014-04-14T08:24:54Z</time>
      </trkpt>
      <trkpt lat="47.99639" lon="3.34931">
        <ele>76</ele>
        <time>2014-04-14T08:24:58Z</time>
      </trkpt>
      <trkpt lat="47.99635" lon="3.34934">
        <ele>76</ele>
        <time>2014-04-14T08:25:00Z</time>
      </trkpt>
      <trkpt lat="47.99631" lon="3.3494">
        <ele>76</ele>
        <time>2014-04-14T08:25:04Z</time>
      </trkpt>
      <trkpt lat="47.99627" lon="3.34954">
        <ele>76</ele>
        <time>2014-04-14T08:25:14Z</time>
      </trkpt>
      <trkpt lat="47.99624" lon="3.34971">
        <ele>76</ele>
        <time>2014-04-14T08:25:22Z</time>
      </trkpt>
      <trkpt lat="47.99621" lon="3.34977">
        <ele>76</ele>
        <time>2014-04-14T08:25:26Z</time>
      </trkpt>
      <trkpt lat="47.99616" lon="3.3498">
        <ele>76</ele>
        <time>2014-04-14T08:25:29Z</time>
      </trkpt>
      <trkpt lat="47.99613" lon="3.34986">
        <ele>76</ele>
        <time>2014-04-14T08:25:32Z</time>
      </trkpt>
      <trkpt lat="47.9961" lon="3.34992">
        <ele>76</ele>
        <time>2014-04-14T08:25:37Z</time>
      </trkpt>
      <trkpt lat="47.99609" lon="3.34999">
        <ele>76</ele>
        <time>2014-04-14T08:25:41Z</time>
      </trkpt>
      <trkpt lat="47.99606" lon="3.35005">
        <ele>76</ele>
        <time>2014-04-14T08:25:45Z</time>
      </trkpt>
      <trkpt lat="47.99606" lon="3.35014">
        <ele>76</ele>
        <time>2014-04-14T08:25:49Z</time>
      </trkpt>
      <trkpt lat="47.99604" lon="3.3502">
        <ele>76</ele>
        <time>2014-04-14T08:25:54Z</time>
      </trkpt>
      <trkpt lat="47.99605" lon="3.35028">
        <ele>76</ele>
        <time>2014-04-14T08:25:57Z</time>
      </trkpt>
      <trkpt lat="47.99602" lon="3.35035">
        <ele>76</ele>
        <time>2014-04-14T08:26:02Z</time>
      </trkpt>
      <trkpt lat="47.99592" lon="3.3505">
        <ele>76</ele>
        <time>2014-04-14T08:26:12Z</time>
      </trkpt>
      <trkpt lat="47.9958" lon="3.35074">
        <ele>75</ele>
        <time>2014-04-14T08:26:28Z</time>
      </trkpt>
      <trkpt lat="47.99575" lon="3.35088">
        <ele>74</ele>
        <time>2014-04-14T08:26:37Z</time>
      </trkpt>
      <trkpt lat="47.99571" lon="3.35093">
        <ele>74</ele>
        <time>2014-04-14T08:26:42Z</time>
      </trkpt>
      <trkpt lat="47.99561" lon="3.3512">
        <ele>74</ele>
        <time>2014-04-14T08:27:18Z</time>
      </trkpt>
      <trkpt lat="47.99555" lon="3.35132">
        <ele>74</ele>
        <time>2014-04-14T08:27:24Z</time>
      </trkpt>
      <trkpt lat="47.99552" lon="3.35135">
        <ele>74</ele>
        <time>2014-04-14T08:27:33Z</time>
      </trkpt>
      <trkpt lat="47.9955" lon="3.35142">
        <ele>74</ele>
        <time>2014-04-14T08:27:37Z</time>
      </trkpt>
      <trkpt lat="47.9955" lon="3.35149">
        <ele>74</ele>
        <time>2014-04-14T08:27:44Z</time>
      </trkpt>
      <trkpt lat="47.99548" lon="3.35151">
        <ele>74</ele>
        <time>2014-04-14T08:27:57Z</time>
      </trkpt>
      <trkpt lat="47.99515" lon="3.35235">
        <ele>73</ele>
        <time>2014-04-14T08:28:50Z</time>
      </trkpt>
      <trkpt lat="47.99513" lon="3.35242">
        <ele>73</ele>
        <time>2014-04-14T08:28:53Z</time>
      </trkpt>
      <trkpt lat="47.9951" lon="3.35248">
        <ele>73</ele>
        <time>2014-04-14T08:28:57Z</time>
      </trkpt>
      <trkpt lat="47.99508" lon="3.35255">
        <ele>73</ele>
        <time>2014-04-14T08:29:01Z</time>
      </trkpt>
      <trkpt lat="47.99506" lon="3.35262">
        <ele>73</ele>
        <time>2014-04-14T08:29:07Z</time>
      </trkpt>
      <trkpt lat="47.99506" lon="3.3527">
        <ele>73</ele>
        <time>2014-04-14T08:29:12Z</time>
      </trkpt>
      <trkpt lat="47.99502" lon="3.35276">
        <ele>74</ele>
        <time>2014-04-14T08:29:16Z</time>
      </trkpt>
      <trkpt lat="47.99498" lon="3.35281">
        <ele>74</ele>
        <time>2014-04-14T08:29:20Z</time>
      </trkpt>
      <trkpt lat="47.99496" lon="3.35287">
        <ele>74</ele>
        <time>2014-04-14T08:29:25Z</time>
      </trkpt>
      <trkpt lat="47.99492" lon="3.35292">
        <ele>74</ele>
        <time>2014-04-14T08:29:29Z</time>
      </trkpt>
      <trkpt lat="47.99485" lon="3.35314">
        <ele>74</ele>
        <time>2014-04-14T08:29:39Z</time>
      </trkpt>
      <trkpt lat="47.99485" lon="3.35322">
        <ele>74</ele>
        <time>2014-04-14T08:29:43Z</time>
      </trkpt>
      <trkpt lat="47.99483" lon="3.35331">
        <ele>74</ele>
        <time>2014-04-14T08:29:47Z</time>
      </trkpt>
      <trkpt lat="47.99476" lon="3.35349">
        <ele>75</ele>
        <time>2014-04-14T08:30:00Z</time>
      </trkpt>
      <trkpt lat="47.99474" lon="3.35355">
        <ele>75</ele>
        <time>2014-04-14T08:30:02Z</time>
      </trkpt>
      <trkpt lat="47.99472" lon="3.35361">
        <ele>75</ele>
        <time>2014-04-14T08:30:07Z</time>
      </trkpt>
      <trkpt lat="47.99467" lon="3.35367">
        <ele>75</ele>
        <time>2014-04-14T08:30:10Z</time>
      </trkpt>
      <trkpt lat="47.99463" lon="3.3537">
        <ele>75</ele>
        <time>2014-04-14T08:30:16Z</time>
      </trkpt>
      <trkpt lat="47.99462" lon="3.35379">
        <ele>75</ele>
        <time>2014-04-14T08:30:20Z</time>
      </trkpt>
      <trkpt lat="47.99457" lon="3.35393">
        <ele>76</ele>
        <time>2014-04-14T08:30:27Z</time>
      </trkpt>
      <trkpt lat="47.99442" lon="3.35424">
        <ele>77</ele>
        <time>2014-04-14T08:30:47Z</time>
      </trkpt>
      <trkpt lat="47.9944" lon="3.3543">
        <ele>77</ele>
        <time>2014-04-14T08:30:52Z</time>
      </trkpt>
      <trkpt lat="47.99433" lon="3.35441">
        <ele>77</ele>
        <time>2014-04-14T08:31:00Z</time>
      </trkpt>
      <trkpt lat="47.99432" lon="3.35445">
        <ele>77</ele>
        <time>2014-04-14T08:31:11Z</time>
      </trkpt>
      <trkpt lat="47.99428" lon="3.35449">
        <ele>77</ele>
        <time>2014-04-14T08:31:24Z</time>
      </trkpt>
      <trkpt lat="47.99427" lon="3.35456">
        <ele>77</ele>
        <time>2014-04-14T08:31:27Z</time>
      </trkpt>
      <trkpt lat="47.99417" lon="3.35475">
        <ele>78</ele>
        <time>2014-04-14T08:31:39Z</time>
      </trkpt>
      <trkpt lat="47.99413" lon="3.3549">
        <ele>77</ele>
        <time>2014-04-14T08:31:47Z</time>
      </trkpt>
      <trkpt lat="47.994" lon="3.35516">
        <ele>77</ele>
        <time>2014-04-14T08:32:02Z</time>
      </trkpt>
      <trkpt lat="47.99398" lon="3.35522">
        <ele>77</ele>
        <time>2014-04-14T08:32:06Z</time>
      </trkpt>
      <trkpt lat="47.99398" lon="3.35529">
        <ele>77</ele>
        <time>2014-04-14T08:32:25Z</time>
      </trkpt>
      <trkpt lat="47.99384" lon="3.3557">
        <ele>77</ele>
        <time>2014-04-14T08:32:56Z</time>
      </trkpt>
      <trkpt lat="47.99378" lon="3.35581">
        <ele>76</ele>
        <time>2014-04-14T08:33:03Z</time>
      </trkpt>
      <trkpt lat="47.99365" lon="3.35613">
        <ele>76</ele>
        <time>2014-04-14T08:33:24Z</time>
      </trkpt>
      <trkpt lat="47.99362" lon="3.35618">
        <ele>76</ele>
        <time>2014-04-14T08:33:28Z</time>
      </trkpt>
      <trkpt lat="47.99357" lon="3.35633">
        <ele>76</ele>
        <time>2014-04-14T08:33:38Z</time>
      </trkpt>
      <trkpt lat="47.99354" lon="3.35638">
        <ele>76</ele>
        <time>2014-04-14T08:33:42Z</time>
      </trkpt>
      <trkpt lat="47.99338" lon="3.35677">
        <ele>76</ele>
        <time>2014-04-14T08:34:05Z</time>
      </trkpt>
      <trkpt lat="47.99337" lon="3.35685">
        <ele>76</ele>
        <time>2014-04-14T08:34:08Z</time>
      </trkpt>
      <trkpt lat="47.99328" lon="3.35702">
        <ele>75</ele>
        <time>2014-04-14T08:34:20Z</time>
      </trkpt>
      <trkpt lat="47.99326" lon="3.35709">
        <ele>75</ele>
        <time>2014-04-14T08:34:25Z</time>
      </trkpt>
      <trkpt lat="47.99325" lon="3.35716">
        <ele>75</ele>
        <time>2014-04-14T08:34:29Z</time>
      </trkpt>
      <trkpt lat="47.99322" lon="3.35722">
        <ele>75</ele>
        <time>2014-04-14T08:34:33Z</time>
      </trkpt>
      <trkpt lat="47.99318" lon="3.3573">
        <ele>75</ele>
        <time>2014-04-14T08:34:37Z</time>
      </trkpt>
      <trkpt lat="47.99316" lon="3.35736">
        <ele>75</ele>
        <time>2014-04-14T08:34:40Z</time>
      </trkpt>
      <trkpt lat="47.99302" lon="3.35766">
        <ele>76</ele>
        <time>2014-04-14T08:35:00Z</time>
      </trkpt>
      <trkpt lat="47.99298" lon="3.35782">
        <ele>76</ele>
        <time>2014-04-14T08:35:09Z</time>
      </trkpt>
      <trkpt lat="47.99294" lon="3.35788">
        <ele>76</ele>
        <time>2014-04-14T08:35:13Z</time>
      </trkpt>
      <trkpt lat="47.99286" lon="3.35809">
        <ele>76</ele>
        <time>2014-04-14T08:35:26Z</time>
      </trkpt>
      <trkpt lat="47.99279" lon="3.35821">
        <ele>76</ele>
        <time>2014-04-14T08:35:35Z</time>
      </trkpt>
      <trkpt lat="47.99277" lon="3.35828">
        <ele>76</ele>
        <time>2014-04-14T08:35:39Z</time>
      </trkpt>
      <trkpt lat="47.99265" lon="3.35851">
        <ele>78</ele>
        <time>2014-04-14T08:35:55Z</time>
      </trkpt>
      <trkpt lat="47.99256" lon="3.35878">
        <ele>78</ele>
        <time>2014-04-14T08:36:11Z</time>
      </trkpt>
      <trkpt lat="47.99254" lon="3.35884">
        <ele>78</ele>
        <time>2014-04-14T08:36:14Z</time>
      </trkpt>
      <trkpt lat="47.99251" lon="3.35891">
        <ele>78</ele>
        <time>2014-04-14T08:36:18Z</time>
      </trkpt>
      <trkpt lat="47.99248" lon="3.35896">
        <ele>78</ele>
        <time>2014-04-14T08:36:21Z</time>
      </trkpt>
      <trkpt lat="47.9923" lon="3.35934">
        <ele>78</ele>
        <time>2014-04-14T08:36:47Z</time>
      </trkpt>
      <trkpt lat="47.99226" lon="3.35948">
        <ele>79</ele>
        <time>2014-04-14T08:36:58Z</time>
      </trkpt>
      <trkpt lat="47.99222" lon="3.35955">
        <ele>79</ele>
        <time>2014-04-14T08:37:02Z</time>
      </trkpt>
      <trkpt lat="47.99219" lon="3.35969">
        <ele>79</ele>
        <time>2014-04-14T08:37:10Z</time>
      </trkpt>
      <trkpt lat="47.99216" lon="3.35975">
        <ele>79</ele>
        <time>2014-04-14T08:37:14Z</time>
      </trkpt>
      <trkpt lat="47.99213" lon="3.35982">
        <ele>79</ele>
        <time>2014-04-14T08:37:18Z</time>
      </trkpt>
      <trkpt lat="47.99209" lon="3.35994">
        <ele>79</ele>
        <time>2014-04-14T08:37:27Z</time>
      </trkpt>
      <trkpt lat="47.99203" lon="3.36007">
        <ele>80</ele>
        <time>2014-04-14T08:37:34Z</time>
      </trkpt>
      <trkpt lat="47.992" lon="3.36021">
        <ele>80</ele>
        <time>2014-04-14T08:37:43Z</time>
      </trkpt>
      <trkpt lat="47.99195" lon="3.36035">
        <ele>81</ele>
        <time>2014-04-14T08:37:51Z</time>
      </trkpt>
      <trkpt lat="47.99187" lon="3.36079">
        <ele>80</ele>
        <time>2014-04-14T08:38:17Z</time>
      </trkpt>
      <trkpt lat="47.9918" lon="3.36105">
        <ele>82</ele>
        <time>2014-04-14T08:38:36Z</time>
      </trkpt>
      <trkpt lat="47.99179" lon="3.36114">
        <ele>82</ele>
        <time>2014-04-14T08:38:40Z</time>
      </trkpt>
      <trkpt lat="47.99171" lon="3.36142">
        <ele>82</ele>
        <time>2014-04-14T08:38:54Z</time>
      </trkpt>
      <trkpt lat="47.99168" lon="3.36147">
        <ele>82</ele>
        <time>2014-04-14T08:38:58Z</time>
      </trkpt>
      <trkpt lat="47.99143" lon="3.36255">
        <ele>83</ele>
        <time>2014-04-14T08:40:02Z</time>
      </trkpt>
      <trkpt lat="47.99138" lon="3.36269">
        <ele>83</ele>
        <time>2014-04-14T08:40:11Z</time>
      </trkpt>
      <trkpt lat="47.99137" lon="3.36276">
        <ele>84</ele>
        <time>2014-04-14T08:40:14Z</time>
      </trkpt>
      <trkpt lat="47.99135" lon="3.36284">
        <ele>84</ele>
        <time>2014-04-14T08:40:16Z</time>
      </trkpt>
      <trkpt lat="47.99134" lon="3.36291">
        <ele>84</ele>
        <time>2014-04-14T08:40:20Z</time>
      </trkpt>
      <trkpt lat="47.99128" lon="3.36302">
        <ele>84</ele>
        <time>2014-04-14T08:40:31Z</time>
      </trkpt>
      <trkpt lat="47.99126" lon="3.36309">
        <ele>85</ele>
        <time>2014-04-14T08:40:37Z</time>
      </trkpt>
      <trkpt lat="47.99121" lon="3.36309">
        <ele>84</ele>
        <time>2014-04-14T08:40:46Z</time>
      </trkpt>
      <trkpt lat="47.99122" lon="3.3631">
        <ele>84</ele>
        <time>2014-04-14T08:40:58Z</time>
      </trkpt>
      <trkpt lat="47.99121" lon="3.36318">
        <ele>85</ele>
        <time>2014-04-14T08:41:39Z</time>
      </trkpt>
      <trkpt lat="47.99122" lon="3.36321">
        <ele>85</ele>
        <time>2014-04-14T08:41:44Z</time>
      </trkpt>
      <trkpt lat="47.99118" lon="3.36326">
        <ele>84</ele>
        <time>2014-04-14T08:41:49Z</time>
      </trkpt>
      <trkpt lat="47.99112" lon="3.36341">
        <ele>88</ele>
        <time>2014-04-14T08:41:57Z</time>
      </trkpt>
      <trkpt lat="47.99109" lon="3.36346">
        <ele>88</ele>
        <time>2014-04-14T08:42:00Z</time>
      </trkpt>
      <trkpt lat="47.99104" lon="3.36358">
        <ele>88</ele>
        <time>2014-04-14T08:42:07Z</time>
      </trkpt>
      <trkpt lat="47.991" lon="3.36361">
        <ele>88</ele>
        <time>2014-04-14T08:42:12Z</time>
      </trkpt>
      <trkpt lat="47.99096" lon="3.36367">
        <ele>88</ele>
        <time>2014-04-14T08:42:15Z</time>
      </trkpt>
      <trkpt lat="47.99087" lon="3.36385">
        <ele>88</ele>
        <time>2014-04-14T08:42:27Z</time>
      </trkpt>
      <trkpt lat="47.99086" lon="3.36409">
        <ele>87</ele>
        <time>2014-04-14T08:42:40Z</time>
      </trkpt>
      <trkpt lat="47.99084" lon="3.36415">
        <ele>85</ele>
        <time>2014-04-14T08:42:44Z</time>
      </trkpt>
      <trkpt lat="47.99071" lon="3.36432">
        <ele>84</ele>
        <time>2014-04-14T08:42:57Z</time>
      </trkpt>
      <trkpt lat="47.99064" lon="3.36445">
        <ele>84</ele>
        <time>2014-04-14T08:43:05Z</time>
      </trkpt>
      <trkpt lat="47.99061" lon="3.36451">
        <ele>84</ele>
        <time>2014-04-14T08:43:09Z</time>
      </trkpt>
      <trkpt lat="47.99059" lon="3.36459">
        <ele>84</ele>
        <time>2014-04-14T08:43:16Z</time>
      </trkpt>
      <trkpt lat="47.99052" lon="3.36471">
        <ele>85</ele>
        <time>2014-04-14T08:43:23Z</time>
      </trkpt>
      <trkpt lat="47.99049" lon="3.36479">
        <ele>85</ele>
        <time>2014-04-14T08:43:27Z</time>
      </trkpt>
      <trkpt lat="47.99048" lon="3.36487">
        <ele>85</ele>
        <time>2014-04-14T08:43:30Z</time>
      </trkpt>
      <trkpt lat="47.99044" lon="3.36491">
        <ele>85</ele>
        <time>2014-04-14T08:43:37Z</time>
      </trkpt>
      <trkpt lat="47.99039" lon="3.36504">
        <ele>90</ele>
        <time>2014-04-14T08:43:47Z</time>
      </trkpt>
      <trkpt lat="47.99036" lon="3.3651">
        <ele>89</ele>
        <time>2014-04-14T08:43:50Z</time>
      </trkpt>
      <trkpt lat="47.99032" lon="3.36524">
        <ele>90</ele>
        <time>2014-04-14T08:43:58Z</time>
      </trkpt>
      <trkpt lat="47.99021" lon="3.36548">
        <ele>90</ele>
        <time>2014-04-14T08:44:12Z</time>
      </trkpt>
      <trkpt lat="47.99018" lon="3.36561">
        <ele>91</ele>
        <time>2014-04-14T08:44:21Z</time>
      </trkpt>
      <trkpt lat="47.99015" lon="3.36567">
        <ele>90</ele>
        <time>2014-04-14T08:44:26Z</time>
      </trkpt>
      <trkpt lat="47.99012" lon="3.36572">
        <ele>90</ele>
        <time>2014-04-14T08:44:30Z</time>
      </trkpt>
      <trkpt lat="47.9901" lon="3.36578">
        <ele>90</ele>
        <time>2014-04-14T08:44:33Z</time>
      </trkpt>
      <trkpt lat="47.99008" lon="3.36595">
        <ele>94</ele>
        <time>2014-04-14T08:44:43Z</time>
      </trkpt>
      <trkpt lat="47.99005" lon="3.36601">
        <ele>95</ele>
        <time>2014-04-14T08:44:46Z</time>
      </trkpt>
      <trkpt lat="47.98996" lon="3.36608">
        <ele>85</ele>
        <time>2014-04-14T08:44:55Z</time>
      </trkpt>
      <trkpt lat="47.98992" lon="3.36613">
        <ele>85</ele>
        <time>2014-04-14T08:44:58Z</time>
      </trkpt>
      <trkpt lat="47.98988" lon="3.36627">
        <ele>85</ele>
        <time>2014-04-14T08:45:06Z</time>
      </trkpt>
      <trkpt lat="47.98982" lon="3.36639">
        <ele>85</ele>
        <time>2014-04-14T08:45:13Z</time>
      </trkpt>
      <trkpt lat="47.9898" lon="3.36646">
        <ele>86</ele>
        <time>2014-04-14T08:45:17Z</time>
      </trkpt>
      <trkpt lat="47.98973" lon="3.36656">
        <ele>85</ele>
        <time>2014-04-14T08:45:27Z</time>
      </trkpt>
      <trkpt lat="47.9897" lon="3.36663">
        <ele>85</ele>
        <time>2014-04-14T08:45:32Z</time>
      </trkpt>
      <trkpt lat="47.98963" lon="3.36675">
        <ele>87</ele>
        <time>2014-04-14T08:45:40Z</time>
      </trkpt>
      <trkpt lat="47.98962" lon="3.36682">
        <ele>87</ele>
        <time>2014-04-14T08:45:45Z</time>
      </trkpt>
      <trkpt lat="47.98959" lon="3.36688">
        <ele>87</ele>
        <time>2014-04-14T08:45:49Z</time>
      </trkpt>
      <trkpt lat="47.98956" lon="3.36693">
        <ele>87</ele>
        <time>2014-04-14T08:45:52Z</time>
      </trkpt>
      <trkpt lat="47.98954" lon="3.367">
        <ele>87</ele>
        <time>2014-04-14T08:45:55Z</time>
      </trkpt>
      <trkpt lat="47.98954" lon="3.36707">
        <ele>87</ele>
        <time>2014-04-14T08:45:58Z</time>
      </trkpt>
      <trkpt lat="47.98947" lon="3.3672">
        <ele>87</ele>
        <time>2014-04-14T08:46:08Z</time>
      </trkpt>
      <trkpt lat="47.98946" lon="3.36727">
        <ele>87</ele>
        <time>2014-04-14T08:46:12Z</time>
      </trkpt>
      <trkpt lat="47.98943" lon="3.36732">
        <ele>87</ele>
        <time>2014-04-14T08:46:15Z</time>
      </trkpt>
      <trkpt lat="47.98938" lon="3.36736">
        <ele>87</ele>
        <time>2014-04-14T08:46:19Z</time>
      </trkpt>
      <trkpt lat="47.98934" lon="3.36739">
        <ele>86</ele>
        <time>2014-04-14T08:46:25Z</time>
      </trkpt>
      <trkpt lat="47.98929" lon="3.36741">
        <ele>85</ele>
        <time>2014-04-14T08:46:30Z</time>
      </trkpt>
      <trkpt lat="47.98927" lon="3.36748">
        <ele>85</ele>
        <time>2014-04-14T08:46:35Z</time>
      </trkpt>
      <trkpt lat="47.98924" lon="3.36764">
        <ele>88</ele>
        <time>2014-04-14T08:46:42Z</time>
      </trkpt>
      <trkpt lat="47.9892" lon="3.36778">
        <ele>90</ele>
        <time>2014-04-14T08:46:48Z</time>
      </trkpt>
      <trkpt lat="47.98917" lon="3.36815">
        <ele>91</ele>
        <time>2014-04-14T08:47:06Z</time>
      </trkpt>
      <trkpt lat="47.98907" lon="3.3683">
        <ele>86</ele>
        <time>2014-04-14T08:47:21Z</time>
      </trkpt>
      <trkpt lat="47.98905" lon="3.36846">
        <ele>86</ele>
        <time>2014-04-14T08:47:31Z</time>
      </trkpt>
      <trkpt lat="47.98903" lon="3.36853">
        <ele>86</ele>
        <time>2014-04-14T08:47:37Z</time>
      </trkpt>
      <trkpt lat="47.989" lon="3.3686">
        <ele>85</ele>
        <time>2014-04-14T08:47:42Z</time>
      </trkpt>
      <trkpt lat="47.98893" lon="3.36858">
        <ele>85</ele>
        <time>2014-04-14T08:47:47Z</time>
      </trkpt>
      <trkpt lat="47.98887" lon="3.36864">
        <ele>85</ele>
        <time>2014-04-14T08:47:59Z</time>
      </trkpt>
      <trkpt lat="47.98875" lon="3.36885">
        <ele>84</ele>
        <time>2014-04-14T08:48:15Z</time>
      </trkpt>
      <trkpt lat="47.9887" lon="3.36898">
        <ele>84</ele>
        <time>2014-04-14T08:48:23Z</time>
      </trkpt>
      <trkpt lat="47.98867" lon="3.36904">
        <ele>83</ele>
        <time>2014-04-14T08:48:26Z</time>
      </trkpt>
      <trkpt lat="47.98863" lon="3.36909">
        <ele>83</ele>
        <time>2014-04-14T08:48:35Z</time>
      </trkpt>
      <trkpt lat="47.98858" lon="3.36911">
        <ele>82</ele>
        <time>2014-04-14T08:48:43Z</time>
      </trkpt>
      <trkpt lat="47.98844" lon="3.36932">
        <ele>83</ele>
        <time>2014-04-14T08:48:57Z</time>
      </trkpt>
      <trkpt lat="47.9884" lon="3.36937">
        <ele>83</ele>
        <time>2014-04-14T08:49:01Z</time>
      </trkpt>
      <trkpt lat="47.98838" lon="3.36943">
        <ele>84</ele>
        <time>2014-04-14T08:49:04Z</time>
      </trkpt>
      <trkpt lat="47.98834" lon="3.36948">
        <ele>84</ele>
        <time>2014-04-14T08:49:08Z</time>
      </trkpt>
      <trkpt lat="47.98825" lon="3.36956">
        <ele>80</ele>
        <time>2014-04-14T08:49:18Z</time>
      </trkpt>
      <trkpt lat="47.98819" lon="3.36966">
        <ele>80</ele>
        <time>2014-04-14T08:49:24Z</time>
      </trkpt>
      <trkpt lat="47.98812" lon="3.36968">
        <ele>80</ele>
        <time>2014-04-14T08:49:34Z</time>
      </trkpt>
      <trkpt lat="47.98808" lon="3.36972">
        <ele>80</ele>
        <time>2014-04-14T08:49:37Z</time>
      </trkpt>
      <trkpt lat="47.98805" lon="3.36977">
        <ele>80</ele>
        <time>2014-04-14T08:49:40Z</time>
      </trkpt>
      <trkpt lat="47.98802" lon="3.36983">
        <ele>80</ele>
        <time>2014-04-14T08:49:44Z</time>
      </trkpt>
      <trkpt lat="47.98795" lon="3.36994">
        <ele>80</ele>
        <time>2014-04-14T08:49:51Z</time>
      </trkpt>
      <trkpt lat="47.98792" lon="3.37">
        <ele>80</ele>
        <time>2014-04-14T08:49:55Z</time>
      </trkpt>
      <trkpt lat="47.98788" lon="3.37003">
        <ele>81</ele>
        <time>2014-04-14T08:49:59Z</time>
      </trkpt>
      <trkpt lat="47.98784" lon="3.37007">
        <ele>81</ele>
        <time>2014-04-14T08:50:02Z</time>
      </trkpt>
      <trkpt lat="47.98775" lon="3.37012">
        <ele>81</ele>
        <time>2014-04-14T08:50:08Z</time>
      </trkpt>
      <trkpt lat="47.9877" lon="3.37016">
        <ele>81</ele>
        <time>2014-04-14T08:50:11Z</time>
      </trkpt>
      <trkpt lat="47.98766" lon="3.37021">
        <ele>81</ele>
        <time>2014-04-14T08:50:14Z</time>
      </trkpt>
      <trkpt lat="47.98761" lon="3.37025">
        <ele>81</ele>
        <time>2014-04-14T08:50:18Z</time>
      </trkpt>
      <trkpt lat="47.98751" lon="3.37024">
        <ele>80</ele>
        <time>2014-04-14T08:50:28Z</time>
      </trkpt>
      <trkpt lat="47.98747" lon="3.37027">
        <ele>79</ele>
        <time>2014-04-14T08:50:32Z</time>
      </trkpt>
      <trkpt lat="47.98743" lon="3.37032">
        <ele>79</ele>
        <time>2014-04-14T08:50:35Z</time>
      </trkpt>
      <trkpt lat="47.98739" lon="3.37036">
        <ele>79</ele>
        <time>2014-04-14T08:50:39Z</time>
      </trkpt>
      <trkpt lat="47.98734" lon="3.37041">
        <ele>79</ele>
        <time>2014-04-14T08:50:44Z</time>
      </trkpt>
      <trkpt lat="47.98731" lon="3.37044">
        <ele>79</ele>
        <time>2014-04-14T08:50:55Z</time>
      </trkpt>
      <trkpt lat="47.98728" lon="3.37048">
        <ele>79</ele>
        <time>2014-04-14T08:50:58Z</time>
      </trkpt>
      <trkpt lat="47.98725" lon="3.37054">
        <ele>79</ele>
        <time>2014-04-14T08:51:04Z</time>
      </trkpt>
      <trkpt lat="47.9872" lon="3.37057">
        <ele>79</ele>
        <time>2014-04-14T08:51:11Z</time>
      </trkpt>
      <trkpt lat="47.98715" lon="3.37063">
        <ele>79</ele>
        <time>2014-04-14T08:51:15Z</time>
      </trkpt>
      <trkpt lat="47.98711" lon="3.37066">
        <ele>79</ele>
        <time>2014-04-14T08:51:18Z</time>
      </trkpt>
      <trkpt lat="47.98706" lon="3.37067">
        <ele>79</ele>
        <time>2014-04-14T08:51:25Z</time>
      </trkpt>
      <trkpt lat="47.98702" lon="3.37072">
        <ele>80</ele>
        <time>2014-04-14T08:51:33Z</time>
      </trkpt>
      <trkpt lat="47.98709" lon="3.37072">
        <ele>79</ele>
        <time>2014-04-14T08:51:51Z</time>
      </trkpt>
      <trkpt lat="47.98711" lon="3.37079">
        <ele>80</ele>
        <time>2014-04-14T08:51:57Z</time>
      </trkpt>
      <trkpt lat="47.98699" lon="3.37093">
        <ele>80</ele>
        <time>2014-04-14T08:52:10Z</time>
      </trkpt>
      <trkpt lat="47.98687" lon="3.37106">
        <ele>80</ele>
        <time>2014-04-14T08:52:29Z</time>
      </trkpt>
      <trkpt lat="47.98683" lon="3.37112">
        <ele>80</ele>
        <time>2014-04-14T08:52:34Z</time>
      </trkpt>
      <trkpt lat="47.98679" lon="3.37117">
        <ele>80</ele>
        <time>2014-04-14T08:52:40Z</time>
      </trkpt>
      <trkpt lat="47.98677" lon="3.37125">
        <ele>80</ele>
        <time>2014-04-14T08:52:43Z</time>
      </trkpt>
      <trkpt lat="47.98674" lon="3.37129">
        <ele>80</ele>
        <time>2014-04-14T08:52:47Z</time>
      </trkpt>
      <trkpt lat="47.9867" lon="3.37133">
        <ele>80</ele>
        <time>2014-04-14T08:52:50Z</time>
      </trkpt>
      <trkpt lat="47.98664" lon="3.37136">
        <ele>79</ele>
        <time>2014-04-14T08:52:54Z</time>
      </trkpt>
      <trkpt lat="47.98661" lon="3.37142">
        <ele>79</ele>
        <time>2014-04-14T08:53:00Z</time>
      </trkpt>
      <trkpt lat="47.98658" lon="3.37148">
        <ele>79</ele>
        <time>2014-04-14T08:53:06Z</time>
      </trkpt>
      <trkpt lat="47.9865" lon="3.37157">
        <ele>79</ele>
        <time>2014-04-14T08:53:15Z</time>
      </trkpt>
      <trkpt lat="47.98647" lon="3.37164">
        <ele>79</ele>
        <time>2014-04-14T08:53:18Z</time>
      </trkpt>
      <trkpt lat="47.98639" lon="3.37174">
        <ele>79</ele>
        <time>2014-04-14T08:53:28Z</time>
      </trkpt>
      <trkpt lat="47.98635" lon="3.37179">
        <ele>79</ele>
        <time>2014-04-14T08:53:32Z</time>
      </trkpt>
      <trkpt lat="47.9863" lon="3.37183">
        <ele>79</ele>
        <time>2014-04-14T08:53:36Z</time>
      </trkpt>
      <trkpt lat="47.98627" lon="3.37189">
        <ele>79</ele>
        <time>2014-04-14T08:53:40Z</time>
      </trkpt>
      <trkpt lat="47.98626" lon="3.37196">
        <ele>79</ele>
        <time>2014-04-14T08:53:43Z</time>
      </trkpt>
      <trkpt lat="47.98615" lon="3.37212">
        <ele>78</ele>
        <time>2014-04-14T08:53:58Z</time>
      </trkpt>
      <trkpt lat="47.98613" lon="3.37216">
        <ele>78</ele>
        <time>2014-04-14T08:54:05Z</time>
      </trkpt>
      <trkpt lat="47.9861" lon="3.37222">
        <ele>78</ele>
        <time>2014-04-14T08:54:18Z</time>
      </trkpt>
      <trkpt lat="47.98606" lon="3.37226">
        <ele>78</ele>
        <time>2014-04-14T08:54:23Z</time>
      </trkpt>
      <trkpt lat="47.98585" lon="3.37258">
        <ele>78</ele>
        <time>2014-04-14T08:54:50Z</time>
      </trkpt>
      <trkpt lat="47.9858" lon="3.37264">
        <ele>78</ele>
        <time>2014-04-14T08:54:53Z</time>
      </trkpt>
      <trkpt lat="47.98577" lon="3.37269">
        <ele>78</ele>
        <time>2014-04-14T08:54:57Z</time>
      </trkpt>
      <trkpt lat="47.98574" lon="3.3727">
        <ele>78</ele>
        <time>2014-04-14T08:55:03Z</time>
      </trkpt>
      <trkpt lat="47.98571" lon="3.37281">
        <ele>78</ele>
        <time>2014-04-14T08:55:08Z</time>
      </trkpt>
      <trkpt lat="47.98567" lon="3.37291">
        <ele>78</ele>
        <time>2014-04-14T08:55:12Z</time>
      </trkpt>
      <trkpt lat="47.98563" lon="3.37295">
        <ele>78</ele>
        <time>2014-04-14T08:55:22Z</time>
      </trkpt>
      <trkpt lat="47.98555" lon="3.37307">
        <ele>78</ele>
        <time>2014-04-14T08:55:34Z</time>
      </trkpt>
      <trkpt lat="47.98551" lon="3.37311">
        <ele>78</ele>
        <time>2014-04-14T08:55:38Z</time>
      </trkpt>
      <trkpt lat="47.98548" lon="3.37317">
        <ele>78</ele>
        <time>2014-04-14T08:55:41Z</time>
      </trkpt>
      <trkpt lat="47.98544" lon="3.37321">
        <ele>78</ele>
        <time>2014-04-14T08:55:45Z</time>
      </trkpt>
      <trkpt lat="47.98541" lon="3.37322">
        <ele>78</ele>
        <time>2014-04-14T08:55:55Z</time>
      </trkpt>
      <trkpt lat="47.98536" lon="3.37326">
        <ele>78</ele>
        <time>2014-04-14T08:56:02Z</time>
      </trkpt>
      <trkpt lat="47.98533" lon="3.37332">
        <ele>78</ele>
        <time>2014-04-14T08:56:06Z</time>
      </trkpt>
      <trkpt lat="47.98528" lon="3.37331">
        <ele>77</ele>
        <time>2014-04-14T08:56:12Z</time>
      </trkpt>
      <trkpt lat="47.98519" lon="3.37333">
        <ele>77</ele>
        <time>2014-04-14T08:56:21Z</time>
      </trkpt>
      <trkpt lat="47.98514" lon="3.37335">
        <ele>78</ele>
        <time>2014-04-14T08:56:27Z</time>
      </trkpt>
      <trkpt lat="47.98512" lon="3.37341">
        <ele>78</ele>
        <time>2014-04-14T08:56:32Z</time>
      </trkpt>
      <trkpt lat="47.98508" lon="3.37345">
        <ele>78</ele>
        <time>2014-04-14T08:56:36Z</time>
      </trkpt>
      <trkpt lat="47.98494" lon="3.37356">
        <ele>77</ele>
        <time>2014-04-14T08:56:45Z</time>
      </trkpt>
      <trkpt lat="47.98469" lon="3.37394">
        <ele>78</ele>
        <time>2014-04-14T08:57:18Z</time>
      </trkpt>
      <trkpt lat="47.98464" lon="3.37397">
        <ele>78</ele>
        <time>2014-04-14T08:57:21Z</time>
      </trkpt>
      <trkpt lat="47.98446" lon="3.37424">
        <ele>79</ele>
        <time>2014-04-14T08:57:45Z</time>
      </trkpt>
      <trkpt lat="47.98442" lon="3.37429">
        <ele>79</ele>
        <time>2014-04-14T08:57:50Z</time>
      </trkpt>
      <trkpt lat="47.98437" lon="3.37432">
        <ele>78</ele>
        <time>2014-04-14T08:57:54Z</time>
      </trkpt>
      <trkpt lat="47.98432" lon="3.37436">
        <ele>78</ele>
        <time>2014-04-14T08:58:02Z</time>
      </trkpt>
      <trkpt lat="47.98415" lon="3.37462">
        <ele>77</ele>
        <time>2014-04-14T08:58:19Z</time>
      </trkpt>
      <trkpt lat="47.98412" lon="3.37467">
        <ele>77</ele>
        <time>2014-04-14T08:58:25Z</time>
      </trkpt>
      <trkpt lat="47.98409" lon="3.37472">
        <ele>77</ele>
        <time>2014-04-14T08:58:29Z</time>
      </trkpt>
      <trkpt lat="47.98401" lon="3.37483">
        <ele>77</ele>
        <time>2014-04-14T08:58:38Z</time>
      </trkpt>
      <trkpt lat="47.98398" lon="3.37489">
        <ele>77</ele>
        <time>2014-04-14T08:58:43Z</time>
      </trkpt>
      <trkpt lat="47.98394" lon="3.37495">
        <ele>77</ele>
        <time>2014-04-14T08:58:47Z</time>
      </trkpt>
      <trkpt lat="47.98389" lon="3.37507">
        <ele>78</ele>
        <time>2014-04-14T08:58:54Z</time>
      </trkpt>
      <trkpt lat="47.98384" lon="3.37513">
        <ele>78</ele>
        <time>2014-04-14T08:58:59Z</time>
      </trkpt>
      <trkpt lat="47.98378" lon="3.37518">
        <ele>78</ele>
        <time>2014-04-14T08:59:02Z</time>
      </trkpt>
      <trkpt lat="47.98378" lon="3.37524">
        <ele>78</ele>
        <time>2014-04-14T08:59:19Z</time>
      </trkpt>
      <trkpt lat="47.98374" lon="3.37531">
        <ele>78</ele>
        <time>2014-04-14T08:59:26Z</time>
      </trkpt>
      <trkpt lat="47.98373" lon="3.37539">
        <ele>78</ele>
        <time>2014-04-14T08:59:29Z</time>
      </trkpt>
      <trkpt lat="47.98369" lon="3.37551">
        <ele>79</ele>
        <time>2014-04-14T08:59:36Z</time>
      </trkpt>
      <trkpt lat="47.98366" lon="3.37567">
        <ele>79</ele>
        <time>2014-04-14T08:59:48Z</time>
      </trkpt>
      <trkpt lat="47.98364" lon="3.37575">
        <ele>79</ele>
        <time>2014-04-14T08:59:51Z</time>
      </trkpt>
      <trkpt lat="47.98361" lon="3.37582">
        <ele>79</ele>
        <time>2014-04-14T08:59:54Z</time>
      </trkpt>
      <trkpt lat="47.98357" lon="3.37586">
        <ele>79</ele>
        <time>2014-04-14T08:59:58Z</time>
      </trkpt>
      <trkpt lat="47.98352" lon="3.37591">
        <ele>79</ele>
        <time>2014-04-14T09:00:01Z</time>
      </trkpt>
      <trkpt lat="47.9835" lon="3.37598">
        <ele>79</ele>
        <time>2014-04-14T09:00:04Z</time>
      </trkpt>
      <trkpt lat="47.9835" lon="3.37612">
        <ele>80</ele>
        <time>2014-04-14T09:00:11Z</time>
      </trkpt>
      <trkpt lat="47.98348" lon="3.3762">
        <ele>80</ele>
        <time>2014-04-14T09:00:16Z</time>
      </trkpt>
      <trkpt lat="47.98344" lon="3.37627">
        <ele>80</ele>
        <time>2014-04-14T09:00:26Z</time>
      </trkpt>
      <trkpt lat="47.98337" lon="3.37638">
        <ele>80</ele>
        <time>2014-04-14T09:00:34Z</time>
      </trkpt>
      <trkpt lat="47.98331" lon="3.37652">
        <ele>78</ele>
        <time>2014-04-14T09:00:38Z</time>
      </trkpt>
      <trkpt lat="47.98327" lon="3.37665">
        <ele>79</ele>
        <time>2014-04-14T09:00:43Z</time>
      </trkpt>
      <trkpt lat="47.98328" lon="3.37673">
        <ele>79</ele>
        <time>2014-04-14T09:00:46Z</time>
      </trkpt>
      <trkpt lat="47.98327" lon="3.37681">
        <ele>79</ele>
        <time>2014-04-14T09:00:50Z</time>
      </trkpt>
      <trkpt lat="47.98323" lon="3.37695">
        <ele>79</ele>
        <time>2014-04-14T09:00:58Z</time>
      </trkpt>
      <trkpt lat="47.98322" lon="3.37702">
        <ele>79</ele>
        <time>2014-04-14T09:01:02Z</time>
      </trkpt>
      <trkpt lat="47.98318" lon="3.37707">
        <ele>79</ele>
        <time>2014-04-14T09:01:11Z</time>
      </trkpt>
      <trkpt lat="47.98316" lon="3.37714">
        <ele>79</ele>
        <time>2014-04-14T09:01:18Z</time>
      </trkpt>
      <trkpt lat="47.9831" lon="3.37728">
        <ele>79</ele>
        <time>2014-04-14T09:01:27Z</time>
      </trkpt>
      <trkpt lat="47.98309" lon="3.37737">
        <ele>79</ele>
        <time>2014-04-14T09:01:30Z</time>
      </trkpt>
      <trkpt lat="47.98303" lon="3.37756">
        <ele>80</ele>
        <time>2014-04-14T09:01:49Z</time>
      </trkpt>
      <trkpt lat="47.98299" lon="3.37761">
        <ele>80</ele>
        <time>2014-04-14T09:01:55Z</time>
      </trkpt>
      <trkpt lat="47.98296" lon="3.37766">
        <ele>80</ele>
        <time>2014-04-14T09:02:00Z</time>
      </trkpt>
      <trkpt lat="47.98288" lon="3.37776">
        <ele>80</ele>
        <time>2014-04-14T09:02:07Z</time>
      </trkpt>
      <trkpt lat="47.98287" lon="3.37783">
        <ele>80</ele>
        <time>2014-04-14T09:02:11Z</time>
      </trkpt>
      <trkpt lat="47.98285" lon="3.3779">
        <ele>80</ele>
        <time>2014-04-14T09:02:16Z</time>
      </trkpt>
      <trkpt lat="47.98286" lon="3.3779">
        <ele>80</ele>
        <time>2014-04-14T09:03:23Z</time>
      </trkpt>
      <trkpt lat="47.98286" lon="3.37797">
        <ele>80</ele>
        <time>2014-04-14T09:03:37Z</time>
      </trkpt>
      <trkpt lat="47.98285" lon="3.37804">
        <ele>80</ele>
        <time>2014-04-14T09:03:43Z</time>
      </trkpt>
      <trkpt lat="47.98281" lon="3.3781">
        <ele>80</ele>
        <time>2014-04-14T09:03:49Z</time>
      </trkpt>
      <trkpt lat="47.98281" lon="3.37828">
        <ele>80</ele>
        <time>2014-04-14T09:04:06Z</time>
      </trkpt>
      <trkpt lat="47.98281" lon="3.37835">
        <ele>80</ele>
        <time>2014-04-14T09:04:10Z</time>
      </trkpt>
      <trkpt lat="47.98282" lon="3.37843">
        <ele>80</ele>
        <time>2014-04-14T09:04:14Z</time>
      </trkpt>
      <trkpt lat="47.98284" lon="3.37849">
        <ele>80</ele>
        <time>2014-04-14T09:04:17Z</time>
      </trkpt>
      <trkpt lat="47.98285" lon="3.37856">
        <ele>80</ele>
        <time>2014-04-14T09:04:21Z</time>
      </trkpt>
      <trkpt lat="47.98282" lon="3.37871">
        <ele>80</ele>
        <time>2014-04-14T09:04:30Z</time>
      </trkpt>
      <trkpt lat="47.98283" lon="3.37879">
        <ele>80</ele>
        <time>2014-04-14T09:04:34Z</time>
      </trkpt>
      <trkpt lat="47.98285" lon="3.37885">
        <ele>80</ele>
        <time>2014-04-14T09:04:37Z</time>
      </trkpt>
      <trkpt lat="47.98285" lon="3.37893">
        <ele>80</ele>
        <time>2014-04-14T09:04:42Z</time>
      </trkpt>
      <trkpt lat="47.98283" lon="3.37901">
        <ele>79</ele>
        <time>2014-04-14T09:04:46Z</time>
      </trkpt>
      <trkpt lat="47.98282" lon="3.37908">
        <ele>79</ele>
        <time>2014-04-14T09:04:50Z</time>
      </trkpt>
      <trkpt lat="47.98282" lon="3.37916">
        <ele>79</ele>
        <time>2014-04-14T09:04:54Z</time>
      </trkpt>
      <trkpt lat="47.98284" lon="3.37922">
        <ele>79</ele>
        <time>2014-04-14T09:04:58Z</time>
      </trkpt>
      <trkpt lat="47.98286" lon="3.3793">
        <ele>79</ele>
        <time>2014-04-14T09:05:04Z</time>
      </trkpt>
      <trkpt lat="47.98287" lon="3.37938">
        <ele>79</ele>
        <time>2014-04-14T09:05:09Z</time>
      </trkpt>
      <trkpt lat="47.98284" lon="3.37954">
        <ele>79</ele>
        <time>2014-04-14T09:05:16Z</time>
      </trkpt>
      <trkpt lat="47.98285" lon="3.37961">
        <ele>79</ele>
        <time>2014-04-14T09:05:19Z</time>
      </trkpt>
      <trkpt lat="47.98284" lon="3.37969">
        <ele>79</ele>
        <time>2014-04-14T09:05:24Z</time>
      </trkpt>
      <trkpt lat="47.98284" lon="3.37976">
        <ele>79</ele>
        <time>2014-04-14T09:05:28Z</time>
      </trkpt>
      <trkpt lat="47.98286" lon="3.37984">
        <ele>79</ele>
        <time>2014-04-14T09:05:33Z</time>
      </trkpt>
      <trkpt lat="47.98286" lon="3.37991">
        <ele>79</ele>
        <time>2014-04-14T09:05:37Z</time>
      </trkpt>
      <trkpt lat="47.98285" lon="3.37998">
        <ele>79</ele>
        <time>2014-04-14T09:05:43Z</time>
      </trkpt>
      <trkpt lat="47.98283" lon="3.38006">
        <ele>79</ele>
        <time>2014-04-14T09:05:49Z</time>
      </trkpt>
      <trkpt lat="47.98281" lon="3.38028">
        <ele>79</ele>
        <time>2014-04-14T09:06:02Z</time>
      </trkpt>
      <trkpt lat="47.98277" lon="3.38043">
        <ele>79</ele>
        <time>2014-04-14T09:06:10Z</time>
      </trkpt>
      <trkpt lat="47.98277" lon="3.3805">
        <ele>79</ele>
        <time>2014-04-14T09:06:14Z</time>
      </trkpt>
      <trkpt lat="47.98279" lon="3.38056">
        <ele>79</ele>
        <time>2014-04-14T09:06:17Z</time>
      </trkpt>
      <trkpt lat="47.98279" lon="3.38064">
        <ele>79</ele>
        <time>2014-04-14T09:06:22Z</time>
      </trkpt>
      <trkpt lat="47.98276" lon="3.38073">
        <ele>78</ele>
        <time>2014-04-14T09:06:27Z</time>
      </trkpt>
      <trkpt lat="47.98279" lon="3.38105">
        <ele>79</ele>
        <time>2014-04-14T09:06:47Z</time>
      </trkpt>
      <trkpt lat="47.98278" lon="3.38111">
        <ele>79</ele>
        <time>2014-04-14T09:06:51Z</time>
      </trkpt>
      <trkpt lat="47.98281" lon="3.38127">
        <ele>79</ele>
        <time>2014-04-14T09:07:15Z</time>
      </trkpt>
      <trkpt lat="47.98279" lon="3.38145">
        <ele>80</ele>
        <time>2014-04-14T09:07:23Z</time>
      </trkpt>
      <trkpt lat="47.98281" lon="3.3816">
        <ele>80</ele>
        <time>2014-04-14T09:07:30Z</time>
      </trkpt>
      <trkpt lat="47.98283" lon="3.38167">
        <ele>81</ele>
        <time>2014-04-14T09:07:33Z</time>
      </trkpt>
      <trkpt lat="47.98279" lon="3.38189">
        <ele>81</ele>
        <time>2014-04-14T09:07:47Z</time>
      </trkpt>
      <trkpt lat="47.9828" lon="3.38196">
        <ele>81</ele>
        <time>2014-04-14T09:07:50Z</time>
      </trkpt>
      <trkpt lat="47.98289" lon="3.38208">
        <ele>81</ele>
        <time>2014-04-14T09:07:56Z</time>
      </trkpt>
      <trkpt lat="47.9829" lon="3.38222">
        <ele>81</ele>
        <time>2014-04-14T09:08:04Z</time>
      </trkpt>
      <trkpt lat="47.98288" lon="3.3823">
        <ele>81</ele>
        <time>2014-04-14T09:08:08Z</time>
      </trkpt>
      <trkpt lat="47.9829" lon="3.38237">
        <ele>81</ele>
        <time>2014-04-14T09:08:12Z</time>
      </trkpt>
      <trkpt lat="47.9829" lon="3.38245">
        <ele>81</ele>
        <time>2014-04-14T09:08:17Z</time>
      </trkpt>
      <trkpt lat="47.98288" lon="3.38261">
        <ele>82</ele>
        <time>2014-04-14T09:08:26Z</time>
      </trkpt>
      <trkpt lat="47.98289" lon="3.38269">
        <ele>83</ele>
        <time>2014-04-14T09:08:29Z</time>
      </trkpt>
      <trkpt lat="47.98292" lon="3.38276">
        <ele>83</ele>
        <time>2014-04-14T09:08:34Z</time>
      </trkpt>
      <trkpt lat="47.98292" lon="3.38283">
        <ele>83</ele>
        <time>2014-04-14T09:08:37Z</time>
      </trkpt>
      <trkpt lat="47.98292" lon="3.3829">
        <ele>83</ele>
        <time>2014-04-14T09:08:41Z</time>
      </trkpt>
      <trkpt lat="47.98291" lon="3.38298">
        <ele>83</ele>
        <time>2014-04-14T09:08:45Z</time>
      </trkpt>
      <trkpt lat="47.98292" lon="3.38312">
        <ele>83</ele>
        <time>2014-04-14T09:08:51Z</time>
      </trkpt>
      <trkpt lat="47.98297" lon="3.38317">
        <ele>83</ele>
        <time>2014-04-14T09:08:55Z</time>
      </trkpt>
      <trkpt lat="47.983" lon="3.38324">
        <ele>83</ele>
        <time>2014-04-14T09:08:58Z</time>
      </trkpt>
      <trkpt lat="47.98302" lon="3.38332">
        <ele>84</ele>
        <time>2014-04-14T09:09:03Z</time>
      </trkpt>
      <trkpt lat="47.98304" lon="3.38339">
        <ele>83</ele>
        <time>2014-04-14T09:09:07Z</time>
      </trkpt>
      <trkpt lat="47.98302" lon="3.38352">
        <ele>83</ele>
        <time>2014-04-14T09:09:15Z</time>
      </trkpt>
      <trkpt lat="47.98303" lon="3.38361">
        <ele>83</ele>
        <time>2014-04-14T09:09:19Z</time>
      </trkpt>
      <trkpt lat="47.98305" lon="3.38371">
        <ele>83</ele>
        <time>2014-04-14T09:09:23Z</time>
      </trkpt>
      <trkpt lat="47.98308" lon="3.38378">
        <ele>83</ele>
        <time>2014-04-14T09:09:27Z</time>
      </trkpt>
      <trkpt lat="47.9831" lon="3.38385">
        <ele>83</ele>
        <time>2014-04-14T09:09:34Z</time>
      </trkpt>
      <trkpt lat="47.98309" lon="3.38392">
        <ele>82</ele>
        <time>2014-04-14T09:09:37Z</time>
      </trkpt>
      <trkpt lat="47.9831" lon="3.384">
        <ele>82</ele>
        <time>2014-04-14T09:09:40Z</time>
      </trkpt>
      <trkpt lat="47.98311" lon="3.38408">
        <ele>83</ele>
        <time>2014-04-14T09:09:44Z</time>
      </trkpt>
      <trkpt lat="47.98311" lon="3.38415">
        <ele>83</ele>
        <time>2014-04-14T09:09:50Z</time>
      </trkpt>
      <trkpt lat="47.98312" lon="3.38422">
        <ele>82</ele>
        <time>2014-04-14T09:09:55Z</time>
      </trkpt>
      <trkpt lat="47.98313" lon="3.38437">
        <ele>82</ele>
        <time>2014-04-14T09:10:02Z</time>
      </trkpt>
      <trkpt lat="47.9831" lon="3.38463">
        <ele>82</ele>
        <time>2014-04-14T09:10:15Z</time>
      </trkpt>
      <trkpt lat="47.98313" lon="3.38469">
        <ele>82</ele>
        <time>2014-04-14T09:10:19Z</time>
      </trkpt>
      <trkpt lat="47.98314" lon="3.38481">
        <ele>82</ele>
        <time>2014-04-14T09:10:26Z</time>
      </trkpt>
      <trkpt lat="47.98314" lon="3.38497">
        <ele>83</ele>
        <time>2014-04-14T09:10:34Z</time>
      </trkpt>
      <trkpt lat="47.98312" lon="3.38509">
        <ele>83</ele>
        <time>2014-04-14T09:10:44Z</time>
      </trkpt>
      <trkpt lat="47.98314" lon="3.38512">
        <ele>83</ele>
        <time>2014-04-14T09:10:51Z</time>
      </trkpt>
      <trkpt lat="47.98313" lon="3.38519">
        <ele>83</ele>
        <time>2014-04-14T09:11:02Z</time>
      </trkpt>
      <trkpt lat="47.98313" lon="3.38528">
        <ele>83</ele>
        <time>2014-04-14T09:11:06Z</time>
      </trkpt>
      <trkpt lat="47.98311" lon="3.38544">
        <ele>83</ele>
        <time>2014-04-14T09:11:15Z</time>
      </trkpt>
      <trkpt lat="47.98313" lon="3.38557">
        <ele>83</ele>
        <time>2014-04-14T09:11:21Z</time>
      </trkpt>
      <trkpt lat="47.98312" lon="3.38565">
        <ele>83</ele>
        <time>2014-04-14T09:11:25Z</time>
      </trkpt>
      <trkpt lat="47.98311" lon="3.38573">
        <ele>84</ele>
        <time>2014-04-14T09:11:30Z</time>
      </trkpt>
      <trkpt lat="47.98312" lon="3.38581">
        <ele>84</ele>
        <time>2014-04-14T09:11:35Z</time>
      </trkpt>
      <trkpt lat="47.98315" lon="3.38588">
        <ele>84</ele>
        <time>2014-04-14T09:11:39Z</time>
      </trkpt>
      <trkpt lat="47.98315" lon="3.38595">
        <ele>84</ele>
        <time>2014-04-14T09:11:43Z</time>
      </trkpt>
      <trkpt lat="47.98314" lon="3.38601">
        <ele>84</ele>
        <time>2014-04-14T09:11:51Z</time>
      </trkpt>
      <trkpt lat="47.98315" lon="3.38606">
        <ele>84</ele>
        <time>2014-04-14T09:12:02Z</time>
      </trkpt>
      <trkpt lat="47.98318" lon="3.38613">
        <ele>83</ele>
        <time>2014-04-14T09:12:06Z</time>
      </trkpt>
      <trkpt lat="47.98318" lon="3.38622">
        <ele>83</ele>
        <time>2014-04-14T09:12:11Z</time>
      </trkpt>
      <trkpt lat="47.98315" lon="3.38628">
        <ele>83</ele>
        <time>2014-04-14T09:12:13Z</time>
      </trkpt>
      <trkpt lat="47.98313" lon="3.38651">
        <ele>83</ele>
        <time>2014-04-14T09:12:26Z</time>
      </trkpt>
      <trkpt lat="47.98314" lon="3.38658">
        <ele>83</ele>
        <time>2014-04-14T09:12:30Z</time>
      </trkpt>
      <trkpt lat="47.98314" lon="3.38667">
        <ele>82</ele>
        <time>2014-04-14T09:12:35Z</time>
      </trkpt>
      <trkpt lat="47.98312" lon="3.38673">
        <ele>82</ele>
        <time>2014-04-14T09:12:39Z</time>
      </trkpt>
      <trkpt lat="47.98312" lon="3.38681">
        <ele>81</ele>
        <time>2014-04-14T09:12:42Z</time>
      </trkpt>
      <trkpt lat="47.98314" lon="3.38689">
        <ele>81</ele>
        <time>2014-04-14T09:12:46Z</time>
      </trkpt>
      <trkpt lat="47.98313" lon="3.38697">
        <ele>81</ele>
        <time>2014-04-14T09:12:51Z</time>
      </trkpt>
      <trkpt lat="47.98313" lon="3.38704">
        <ele>81</ele>
        <time>2014-04-14T09:12:55Z</time>
      </trkpt>
      <trkpt lat="47.98312" lon="3.38712">
        <ele>81</ele>
        <time>2014-04-14T09:12:59Z</time>
      </trkpt>
      <trkpt lat="47.98309" lon="3.38718">
        <ele>81</ele>
        <time>2014-04-14T09:13:02Z</time>
      </trkpt>
      <trkpt lat="47.98307" lon="3.38727">
        <ele>81</ele>
        <time>2014-04-14T09:13:07Z</time>
      </trkpt>
      <trkpt lat="47.98308" lon="3.38741">
        <ele>81</ele>
        <time>2014-04-14T09:13:19Z</time>
      </trkpt>
      <trkpt lat="47.98314" lon="3.38754">
        <ele>82</ele>
        <time>2014-04-14T09:13:28Z</time>
      </trkpt>
      <trkpt lat="47.98317" lon="3.38762">
        <ele>82</ele>
        <time>2014-04-14T09:13:32Z</time>
      </trkpt>
      <trkpt lat="47.98315" lon="3.38766">
        <ele>82</ele>
        <time>2014-04-14T09:15:11Z</time>
      </trkpt>
      <trkpt lat="47.98319" lon="3.3877">
        <ele>82</ele>
        <time>2014-04-14T09:15:14Z</time>
      </trkpt>
      <trkpt lat="47.98324" lon="3.38773">
        <ele>82</ele>
        <time>2014-04-14T09:15:17Z</time>
      </trkpt>
      <trkpt lat="47.98332" lon="3.38773">
        <ele>83</ele>
        <time>2014-04-14T09:15:29Z</time>
      </trkpt>
      <trkpt lat="47.98333" lon="3.38781">
        <ele>83</ele>
        <time>2014-04-14T09:15:36Z</time>
      </trkpt>
      <trkpt lat="47.98336" lon="3.3879">
        <ele>89</ele>
        <time>2014-04-14T09:15:47Z</time>
      </trkpt>
      <trkpt lat="47.98338" lon="3.38796">
        <ele>90</ele>
        <time>2014-04-14T09:15:52Z</time>
      </trkpt>
      <trkpt lat="47.98342" lon="3.38798">
        <ele>90</ele>
        <time>2014-04-14T09:15:59Z</time>
      </trkpt>
      <trkpt lat="47.98344" lon="3.388">
        <ele>90</ele>
        <time>2014-04-14T09:16:05Z</time>
      </trkpt>
      <trkpt lat="47.98345" lon="3.38805">
        <ele>90</ele>
        <time>2014-04-14T09:16:19Z</time>
      </trkpt>
      <trkpt lat="47.98342" lon="3.38818">
        <ele>90</ele>
        <time>2014-04-14T09:16:54Z</time>
      </trkpt>
      <trkpt lat="47.98342" lon="3.38826">
        <ele>89</ele>
        <time>2014-04-14T09:16:58Z</time>
      </trkpt>
      <trkpt lat="47.98346" lon="3.38832">
        <ele>89</ele>
        <time>2014-04-14T09:17:05Z</time>
      </trkpt>
      <trkpt lat="47.98348" lon="3.38838">
        <ele>90</ele>
        <time>2014-04-14T09:17:12Z</time>
      </trkpt>
      <trkpt lat="47.98352" lon="3.38843">
        <ele>91</ele>
        <time>2014-04-14T09:17:16Z</time>
      </trkpt>
      <trkpt lat="47.98355" lon="3.38849">
        <ele>91</ele>
        <time>2014-04-14T09:17:20Z</time>
      </trkpt>
      <trkpt lat="47.98353" lon="3.38857">
        <ele>91</ele>
        <time>2014-04-14T09:17:25Z</time>
      </trkpt>
      <trkpt lat="47.98354" lon="3.38866">
        <ele>91</ele>
        <time>2014-04-14T09:17:29Z</time>
      </trkpt>
      <trkpt lat="47.98352" lon="3.38881">
        <ele>91</ele>
        <time>2014-04-14T09:17:36Z</time>
      </trkpt>
      <trkpt lat="47.9835" lon="3.38888">
        <ele>91</ele>
        <time>2014-04-14T09:17:39Z</time>
      </trkpt>
      <trkpt lat="47.98353" lon="3.38902">
        <ele>91</ele>
        <time>2014-04-14T09:17:47Z</time>
      </trkpt>
      <trkpt lat="47.9835" lon="3.38919">
        <ele>89</ele>
        <time>2014-04-14T09:17:56Z</time>
      </trkpt>
      <trkpt lat="47.98351" lon="3.38926">
        <ele>90</ele>
        <time>2014-04-14T09:18:00Z</time>
      </trkpt>
      <trkpt lat="47.98351" lon="3.38941">
        <ele>90</ele>
        <time>2014-04-14T09:18:08Z</time>
      </trkpt>
      <trkpt lat="47.98358" lon="3.38959">
        <ele>90</ele>
        <time>2014-04-14T09:18:21Z</time>
      </trkpt>
      <trkpt lat="47.98356" lon="3.38964">
        <ele>90</ele>
        <time>2014-04-14T09:18:32Z</time>
      </trkpt>
      <trkpt lat="47.98355" lon="3.38979">
        <ele>90</ele>
        <time>2014-04-14T09:18:38Z</time>
      </trkpt>
      <trkpt lat="47.98359" lon="3.38992">
        <ele>90</ele>
        <time>2014-04-14T09:18:45Z</time>
      </trkpt>
      <trkpt lat="47.98354" lon="3.39007">
        <ele>89</ele>
        <time>2014-04-14T09:18:52Z</time>
      </trkpt>
      <trkpt lat="47.98351" lon="3.39013">
        <ele>89</ele>
        <time>2014-04-14T09:18:55Z</time>
      </trkpt>
      <trkpt lat="47.98349" lon="3.3902">
        <ele>89</ele>
        <time>2014-04-14T09:18:59Z</time>
      </trkpt>
      <trkpt lat="47.98347" lon="3.39028">
        <ele>89</ele>
        <time>2014-04-14T09:19:06Z</time>
      </trkpt>
      <trkpt lat="47.98344" lon="3.39034">
        <ele>89</ele>
        <time>2014-04-14T09:19:10Z</time>
      </trkpt>
      <trkpt lat="47.98346" lon="3.39042">
        <ele>89</ele>
        <time>2014-04-14T09:19:14Z</time>
      </trkpt>
      <trkpt lat="47.98349" lon="3.39049">
        <ele>89</ele>
        <time>2014-04-14T09:19:18Z</time>
      </trkpt>
      <trkpt lat="47.98348" lon="3.39057">
        <ele>88</ele>
        <time>2014-04-14T09:19:22Z</time>
      </trkpt>
      <trkpt lat="47.98351" lon="3.39079">
        <ele>88</ele>
        <time>2014-04-14T09:19:34Z</time>
      </trkpt>
      <trkpt lat="47.9835" lon="3.39086">
        <ele>88</ele>
        <time>2014-04-14T09:19:37Z</time>
      </trkpt>
      <trkpt lat="47.98348" lon="3.39092">
        <ele>88</ele>
        <time>2014-04-14T09:19:42Z</time>
      </trkpt>
      <trkpt lat="47.98348" lon="3.391">
        <ele>88</ele>
        <time>2014-04-14T09:19:45Z</time>
      </trkpt>
      <trkpt lat="47.98349" lon="3.39106">
        <ele>88</ele>
        <time>2014-04-14T09:20:10Z</time>
      </trkpt>
      <trkpt lat="47.98347" lon="3.39113">
        <ele>89</ele>
        <time>2014-04-14T09:20:13Z</time>
      </trkpt>
      <trkpt lat="47.98339" lon="3.39133">
        <ele>89</ele>
        <time>2014-04-14T09:20:22Z</time>
      </trkpt>
      <trkpt lat="47.98338" lon="3.39141">
        <ele>88</ele>
        <time>2014-04-14T09:20:26Z</time>
      </trkpt>
      <trkpt lat="47.98332" lon="3.39163">
        <ele>85</ele>
        <time>2014-04-14T09:20:37Z</time>
      </trkpt>
      <trkpt lat="47.98333" lon="3.3917">
        <ele>86</ele>
        <time>2014-04-14T09:20:41Z</time>
      </trkpt>
      <trkpt lat="47.98335" lon="3.39176">
        <ele>87</ele>
        <time>2014-04-14T09:20:44Z</time>
      </trkpt>
      <trkpt lat="47.98337" lon="3.39207">
        <ele>89</ele>
        <time>2014-04-14T09:20:59Z</time>
      </trkpt>
      <trkpt lat="47.98336" lon="3.39215">
        <ele>89</ele>
        <time>2014-04-14T09:21:03Z</time>
      </trkpt>
      <trkpt lat="47.98335" lon="3.39221">
        <ele>89</ele>
        <time>2014-04-14T09:21:06Z</time>
      </trkpt>
      <trkpt lat="47.98333" lon="3.39238">
        <ele>88</ele>
        <time>2014-04-14T09:21:14Z</time>
      </trkpt>
      <trkpt lat="47.98331" lon="3.39245">
        <ele>86</ele>
        <time>2014-04-14T09:21:18Z</time>
      </trkpt>
      <trkpt lat="47.98331" lon="3.39252">
        <ele>87</ele>
        <time>2014-04-14T09:21:22Z</time>
      </trkpt>
      <trkpt lat="47.9833" lon="3.39275">
        <ele>86</ele>
        <time>2014-04-14T09:21:34Z</time>
      </trkpt>
      <trkpt lat="47.98334" lon="3.39276">
        <ele>89</ele>
        <time>2014-04-14T09:21:43Z</time>
      </trkpt>
      <trkpt lat="47.98338" lon="3.39279">
        <ele>89</ele>
        <time>2014-04-14T09:21:47Z</time>
      </trkpt>
      <trkpt lat="47.98339" lon="3.39286">
        <ele>90</ele>
        <time>2014-04-14T09:21:52Z</time>
      </trkpt>
      <trkpt lat="47.98337" lon="3.39294">
        <ele>90</ele>
        <time>2014-04-14T09:21:56Z</time>
      </trkpt>
      <trkpt lat="47.98332" lon="3.39299">
        <ele>87</ele>
        <time>2014-04-14T09:21:59Z</time>
      </trkpt>
      <trkpt lat="47.98334" lon="3.39321">
        <ele>89</ele>
        <time>2014-04-14T09:22:08Z</time>
      </trkpt>
      <trkpt lat="47.98332" lon="3.39344">
        <ele>88</ele>
        <time>2014-04-14T09:22:20Z</time>
      </trkpt>
      <trkpt lat="47.98336" lon="3.3935">
        <ele>90</ele>
        <time>2014-04-14T09:22:23Z</time>
      </trkpt>
      <trkpt lat="47.98337" lon="3.39357">
        <ele>91</ele>
        <time>2014-04-14T09:22:28Z</time>
      </trkpt>
      <trkpt lat="47.98343" lon="3.39371">
        <ele>91</ele>
        <time>2014-04-14T09:22:35Z</time>
      </trkpt>
      <trkpt lat="47.98344" lon="3.39379">
        <ele>91</ele>
        <time>2014-04-14T09:22:39Z</time>
      </trkpt>
      <trkpt lat="47.98344" lon="3.39386">
        <ele>91</ele>
        <time>2014-04-14T09:22:44Z</time>
      </trkpt>
      <trkpt lat="47.98345" lon="3.39393">
        <ele>92</ele>
        <time>2014-04-14T09:22:47Z</time>
      </trkpt>
      <trkpt lat="47.98343" lon="3.39401">
        <ele>91</ele>
        <time>2014-04-14T09:22:50Z</time>
      </trkpt>
      <trkpt lat="47.9834" lon="3.39423">
        <ele>92</ele>
        <time>2014-04-14T09:23:03Z</time>
      </trkpt>
      <trkpt lat="47.98341" lon="3.39431">
        <ele>93</ele>
        <time>2014-04-14T09:23:08Z</time>
      </trkpt>
      <trkpt lat="47.98346" lon="3.39426">
        <ele>93</ele>
        <time>2014-04-14T09:23:14Z</time>
      </trkpt>
      <trkpt lat="47.98343" lon="3.39441">
        <ele>94</ele>
        <time>2014-04-14T09:23:33Z</time>
      </trkpt>
      <trkpt lat="47.98342" lon="3.39459">
        <ele>95</ele>
        <time>2014-04-14T09:23:39Z</time>
      </trkpt>
      <trkpt lat="47.98344" lon="3.39475">
        <ele>95</ele>
        <time>2014-04-14T09:23:49Z</time>
      </trkpt>
      <trkpt lat="47.98342" lon="3.39481">
        <ele>95</ele>
        <time>2014-04-14T09:23:55Z</time>
      </trkpt>
      <trkpt lat="47.98338" lon="3.39488">
        <ele>95</ele>
        <time>2014-04-14T09:23:59Z</time>
      </trkpt>
      <trkpt lat="47.98336" lon="3.39495">
        <ele>95</ele>
        <time>2014-04-14T09:24:07Z</time>
      </trkpt>
      <trkpt lat="47.98336" lon="3.39504">
        <ele>96</ele>
        <time>2014-04-14T09:24:17Z</time>
      </trkpt>
      <trkpt lat="47.98334" lon="3.395">
        <ele>95</ele>
        <time>2014-04-14T09:24:39Z</time>
      </trkpt>
      <trkpt lat="47.9833" lon="3.39497">
        <ele>94</ele>
        <time>2014-04-14T09:24:50Z</time>
      </trkpt>
      <trkpt lat="47.98332" lon="3.39492">
        <ele>93</ele>
        <time>2014-04-14T09:25:08Z</time>
      </trkpt>
      <trkpt lat="47.98336" lon="3.39493">
        <ele>95</ele>
        <time>2014-04-14T09:25:13Z</time>
      </trkpt>
      <trkpt lat="47.98341" lon="3.39499">
        <ele>95</ele>
        <time>2014-04-14T09:25:16Z</time>
      </trkpt>
      <trkpt lat="47.98343" lon="3.39507">
        <ele>97</ele>
        <time>2014-04-14T09:25:19Z</time>
      </trkpt>
      <trkpt lat="47.98343" lon="3.39515">
        <ele>98</ele>
        <time>2014-04-14T09:25:23Z</time>
      </trkpt>
      <trkpt lat="47.98344" lon="3.39521">
        <ele>98</ele>
        <time>2014-04-14T09:25:27Z</time>
      </trkpt>
      <trkpt lat="47.98346" lon="3.39524">
        <ele>99</ele>
        <time>2014-04-14T09:25:49Z</time>
      </trkpt>
      <trkpt lat="47.98347" lon="3.39548">
        <ele>100</ele>
        <time>2014-04-14T09:26:01Z</time>
      </trkpt>
      <trkpt lat="47.98346" lon="3.39556">
        <ele>100</ele>
        <time>2014-04-14T09:26:05Z</time>
      </trkpt>
      <trkpt lat="47.98344" lon="3.39562">
        <ele>100</ele>
        <time>2014-04-14T09:26:11Z</time>
      </trkpt>
      <trkpt lat="47.98346" lon="3.39573">
        <ele>100</ele>
        <time>2014-04-14T09:26:24Z</time>
      </trkpt>
      <trkpt lat="47.98345" lon="3.39576">
        <ele>100</ele>
        <time>2014-04-14T09:26:30Z</time>
      </trkpt>
      <trkpt lat="47.9834" lon="3.39576">
        <ele>100</ele>
        <time>2014-04-14T09:26:31Z</time>
      </trkpt>
      <trkpt lat="47.98336" lon="3.39578">
        <ele>100</ele>
        <time>2014-04-14T09:26:45Z</time>
      </trkpt>
      <trkpt lat="47.98335" lon="3.39585">
        <ele>100</ele>
        <time>2014-04-14T09:26:49Z</time>
      </trkpt>
      <trkpt lat="47.98332" lon="3.3959">
        <ele>100</ele>
        <time>2014-04-14T09:26:54Z</time>
      </trkpt>
      <trkpt lat="47.98329" lon="3.3959">
        <ele>99</ele>
        <time>2014-04-14T09:27:01Z</time>
      </trkpt>
      <trkpt lat="47.98327" lon="3.39597">
        <ele>99</ele>
        <time>2014-04-14T09:27:08Z</time>
      </trkpt>
      <trkpt lat="47.98329" lon="3.39604">
        <ele>99</ele>
        <time>2014-04-14T09:27:11Z</time>
      </trkpt>
      <trkpt lat="47.98326" lon="3.39621">
        <ele>99</ele>
        <time>2014-04-14T09:27:15Z</time>
      </trkpt>
      <trkpt lat="47.98318" lon="3.39649">
        <ele>100</ele>
        <time>2014-04-14T09:27:29Z</time>
      </trkpt>
      <trkpt lat="47.98317" lon="3.39657">
        <ele>101</ele>
        <time>2014-04-14T09:27:34Z</time>
      </trkpt>
      <trkpt lat="47.98315" lon="3.39664">
        <ele>101</ele>
        <time>2014-04-14T09:27:38Z</time>
      </trkpt>
      <trkpt lat="47.98314" lon="3.39671">
        <ele>104</ele>
        <time>2014-04-14T09:27:42Z</time>
      </trkpt>
      <trkpt lat="47.98314" lon="3.39678">
        <ele>104</ele>
        <time>2014-04-14T09:27:45Z</time>
      </trkpt>
      <trkpt lat="47.98316" lon="3.39692">
        <ele>105</ele>
        <time>2014-04-14T09:27:55Z</time>
      </trkpt>
      <trkpt lat="47.98314" lon="3.397">
        <ele>105</ele>
        <time>2014-04-14T09:28:01Z</time>
      </trkpt>
      <trkpt lat="47.98311" lon="3.39706">
        <ele>105</ele>
        <time>2014-04-14T09:28:05Z</time>
      </trkpt>
      <trkpt lat="47.98307" lon="3.39712">
        <ele>106</ele>
        <time>2014-04-14T09:28:09Z</time>
      </trkpt>
      <trkpt lat="47.98305" lon="3.39719">
        <ele>106</ele>
        <time>2014-04-14T09:28:14Z</time>
      </trkpt>
      <trkpt lat="47.98302" lon="3.39724">
        <ele>106</ele>
        <time>2014-04-14T09:28:17Z</time>
      </trkpt>
      <trkpt lat="47.98298" lon="3.39728">
        <ele>106</ele>
        <time>2014-04-14T09:28:21Z</time>
      </trkpt>
      <trkpt lat="47.98278" lon="3.39754">
        <ele>109</ele>
        <time>2014-04-14T09:28:55Z</time>
      </trkpt>
      <trkpt lat="47.98273" lon="3.39759">
        <ele>109</ele>
        <time>2014-04-14T09:29:10Z</time>
      </trkpt>
      <trkpt lat="47.98263" lon="3.39765">
        <ele>108</ele>
        <time>2014-04-14T09:29:18Z</time>
      </trkpt>
      <trkpt lat="47.98268" lon="3.39753">
        <ele>108</ele>
        <time>2014-04-14T09:29:28Z</time>
      </trkpt>
      <trkpt lat="47.98273" lon="3.39749">
        <ele>105</ele>
        <time>2014-04-14T09:29:34Z</time>
      </trkpt>
      <trkpt lat="47.98275" lon="3.3975">
        <ele>109</ele>
        <time>2014-04-14T09:29:40Z</time>
      </trkpt>
      <trkpt lat="47.98279" lon="3.39753">
        <ele>109</ele>
        <time>2014-04-14T09:30:03Z</time>
      </trkpt>
      <trkpt lat="47.9828" lon="3.3976">
        <ele>110</ele>
        <time>2014-04-14T09:30:07Z</time>
      </trkpt>
      <trkpt lat="47.98281" lon="3.39756">
        <ele>110</ele>
        <time>2014-04-14T09:30:34Z</time>
      </trkpt>
      <trkpt lat="47.9828" lon="3.39748">
        <ele>106</ele>
        <time>2014-04-14T09:30:38Z</time>
      </trkpt>
      <trkpt lat="47.98277" lon="3.39742">
        <ele>105</ele>
        <time>2014-04-14T09:30:42Z</time>
      </trkpt>
      <trkpt lat="47.98274" lon="3.39744">
        <ele>105</ele>
        <time>2014-04-14T09:30:51Z</time>
      </trkpt>
      <trkpt lat="47.98277" lon="3.39749">
        <ele>106</ele>
        <time>2014-04-14T09:30:55Z</time>
      </trkpt>
      <trkpt lat="47.98277" lon="3.39754">
        <ele>109</ele>
        <time>2014-04-14T09:31:04Z</time>
      </trkpt>
      <trkpt lat="47.98266" lon="3.39753">
        <ele>108</ele>
        <time>2014-04-14T09:31:08Z</time>
      </trkpt>
      <trkpt lat="47.98261" lon="3.39751">
        <ele>107</ele>
        <time>2014-04-14T09:31:11Z</time>
      </trkpt>
      <trkpt lat="47.98255" lon="3.39752">
        <ele>106</ele>
        <time>2014-04-14T09:31:15Z</time>
      </trkpt>
      <trkpt lat="47.9825" lon="3.39756">
        <ele>103</ele>
        <time>2014-04-14T09:31:19Z</time>
      </trkpt>
      <trkpt lat="47.98246" lon="3.39761">
        <ele>102</ele>
        <time>2014-04-14T09:31:22Z</time>
      </trkpt>
      <trkpt lat="47.98242" lon="3.39766">
        <ele>101</ele>
        <time>2014-04-14T09:31:26Z</time>
      </trkpt>
      <trkpt lat="47.98238" lon="3.39771">
        <ele>100</ele>
        <time>2014-04-14T09:31:30Z</time>
      </trkpt>
      <trkpt lat="47.98235" lon="3.39777">
        <ele>100</ele>
        <time>2014-04-14T09:31:32Z</time>
      </trkpt>
      <trkpt lat="47.98233" lon="3.39776">
        <ele>100</ele>
        <time>2014-04-14T09:31:39Z</time>
      </trkpt>
      <trkpt lat="47.98242" lon="3.39799">
        <ele>101</ele>
        <time>2014-04-14T09:31:47Z</time>
      </trkpt>
      <trkpt lat="47.98242" lon="3.39808">
        <ele>102</ele>
        <time>2014-04-14T09:31:51Z</time>
      </trkpt>
      <trkpt lat="47.9824" lon="3.39815">
        <ele>103</ele>
        <time>2014-04-14T09:31:54Z</time>
      </trkpt>
      <trkpt lat="47.98238" lon="3.39821">
        <ele>103</ele>
        <time>2014-04-14T09:31:55Z</time>
      </trkpt>
      <trkpt lat="47.98236" lon="3.39828">
        <ele>104</ele>
        <time>2014-04-14T09:31:57Z</time>
      </trkpt>
      <trkpt lat="47.98238" lon="3.39835">
        <ele>105</ele>
        <time>2014-04-14T09:32:01Z</time>
      </trkpt>
      <trkpt lat="47.98237" lon="3.39829">
        <ele>104</ele>
        <time>2014-04-14T09:32:23Z</time>
      </trkpt>
      <trkpt lat="47.98232" lon="3.39813">
        <ele>101</ele>
        <time>2014-04-14T09:32:30Z</time>
      </trkpt>
      <trkpt lat="47.98232" lon="3.39805">
        <ele>101</ele>
        <time>2014-04-14T09:32:34Z</time>
      </trkpt>
      <trkpt lat="47.98228" lon="3.39801">
        <ele>100</ele>
        <time>2014-04-14T09:32:41Z</time>
      </trkpt>
      <trkpt lat="47.98224" lon="3.39801">
        <ele>99</ele>
        <time>2014-04-14T09:32:45Z</time>
      </trkpt>
      <trkpt lat="47.98224" lon="3.39797">
        <ele>99</ele>
        <time>2014-04-14T09:32:52Z</time>
      </trkpt>
      <trkpt lat="47.98227" lon="3.39792">
        <ele>99</ele>
        <time>2014-04-14T09:32:59Z</time>
      </trkpt>
      <trkpt lat="47.98231" lon="3.39786">
        <ele>100</ele>
        <time>2014-04-14T09:33:05Z</time>
      </trkpt>
      <trkpt lat="47.98234" lon="3.3978">
        <ele>100</ele>
        <time>2014-04-14T09:33:10Z</time>
      </trkpt>
      <trkpt lat="47.98239" lon="3.39768">
        <ele>101</ele>
        <time>2014-04-14T09:33:16Z</time>
      </trkpt>
      <trkpt lat="47.98243" lon="3.39764">
        <ele>102</ele>
        <time>2014-04-14T09:33:21Z</time>
      </trkpt>
      <trkpt lat="47.98245" lon="3.39772">
        <ele>101</ele>
        <time>2014-04-14T09:33:30Z</time>
      </trkpt>
      <trkpt lat="47.98244" lon="3.39775">
        <ele>101</ele>
        <time>2014-04-14T09:33:36Z</time>
      </trkpt>
      <trkpt lat="47.98246" lon="3.39778">
        <ele>101</ele>
        <time>2014-04-14T09:34:12Z</time>
      </trkpt>
      <trkpt lat="47.98241" lon="3.39769">
        <ele>101</ele>
        <time>2014-04-14T09:34:29Z</time>
      </trkpt>
      <trkpt lat="47.98241" lon="3.39764">
        <ele>101</ele>
        <time>2014-04-14T09:34:40Z</time>
      </trkpt>
      <trkpt lat="47.98245" lon="3.39764">
        <ele>102</ele>
        <time>2014-04-14T09:34:49Z</time>
      </trkpt>
      <trkpt lat="47.98251" lon="3.3976">
        <ele>107</ele>
        <time>2014-04-14T09:34:54Z</time>
      </trkpt>
      <trkpt lat="47.98255" lon="3.39754">
        <ele>106</ele>
        <time>2014-04-14T09:34:57Z</time>
      </trkpt>
      <trkpt lat="47.98259" lon="3.3975">
        <ele>105</ele>
        <time>2014-04-14T09:35:00Z</time>
      </trkpt>
      <trkpt lat="47.98263" lon="3.39744">
        <ele>105</ele>
        <time>2014-04-14T09:35:05Z</time>
      </trkpt>
      <trkpt lat="47.98268" lon="3.39748">
        <ele>105</ele>
        <time>2014-04-14T09:35:10Z</time>
      </trkpt>
      <trkpt lat="47.98272" lon="3.39751">
        <ele>109</ele>
        <time>2014-04-14T09:35:13Z</time>
      </trkpt>
      <trkpt lat="47.98274" lon="3.39758">
        <ele>109</ele>
        <time>2014-04-14T09:35:21Z</time>
      </trkpt>
      <trkpt lat="47.98276" lon="3.39764">
        <ele>110</ele>
        <time>2014-04-14T09:35:26Z</time>
      </trkpt>
      <trkpt lat="47.98278" lon="3.39772">
        <ele>110</ele>
        <time>2014-04-14T09:35:31Z</time>
      </trkpt>
      <trkpt lat="47.98278" lon="3.39822">
        <ele>111</ele>
        <time>2014-04-14T09:36:29Z</time>
      </trkpt>
      <trkpt lat="47.98276" lon="3.39828">
        <ele>111</ele>
        <time>2014-04-14T09:37:15Z</time>
      </trkpt>
      <trkpt lat="47.98284" lon="3.39832">
        <ele>111</ele>
        <time>2014-04-14T09:37:37Z</time>
      </trkpt>
      <trkpt lat="47.98266" lon="3.39869">
        <ele>111</ele>
        <time>2014-04-14T09:39:00Z</time>
      </trkpt>
      <trkpt lat="47.98258" lon="3.39878">
        <ele>111</ele>
        <time>2014-04-14T09:39:22Z</time>
      </trkpt>
      <trkpt lat="47.98264" lon="3.3989">
        <ele>111</ele>
        <time>2014-04-14T09:39:30Z</time>
      </trkpt>
      <trkpt lat="47.98302" lon="3.39857">
        <ele>113</ele>
        <time>2014-04-14T09:40:19Z</time>
      </trkpt>
      <trkpt lat="47.98281" lon="3.39815">
        <ele>111</ele>
        <time>2014-04-14T09:40:22Z</time>
      </trkpt>
      <trkpt lat="47.98247" lon="3.397">
        <ele>95</ele>
        <time>2014-04-14T09:50:59Z</time>
      </trkpt>
      <trkpt lat="47.98241" lon="3.39697">
        <ele>95</ele>
        <time>2014-04-14T09:51:10Z</time>
      </trkpt>
      <trkpt lat="47.9824" lon="3.39686">
        <ele>94</ele>
        <time>2014-04-14T09:51:21Z</time>
      </trkpt>
      <trkpt lat="47.98236" lon="3.39681">
        <ele>94</ele>
        <time>2014-04-14T09:51:26Z</time>
      </trkpt>
      <trkpt lat="47.98231" lon="3.39679">
        <ele>94</ele>
        <time>2014-04-14T09:51:30Z</time>
      </trkpt>
      <trkpt lat="47.98235" lon="3.39674">
        <ele>94</ele>
        <time>2014-04-14T09:51:43Z</time>
      </trkpt>
      <trkpt lat="47.98238" lon="3.3967">
        <ele>95</ele>
        <time>2014-04-14T09:51:47Z</time>
      </trkpt>
      <trkpt lat="47.98243" lon="3.39666">
        <ele>94</ele>
        <time>2014-04-14T09:51:51Z</time>
      </trkpt>
      <trkpt lat="47.98246" lon="3.3966">
        <ele>94</ele>
        <time>2014-04-14T09:51:55Z</time>
      </trkpt>
      <trkpt lat="47.98249" lon="3.39654">
        <ele>93</ele>
        <time>2014-04-14T09:51:58Z</time>
      </trkpt>
      <trkpt lat="47.98248" lon="3.39646">
        <ele>92</ele>
        <time>2014-04-14T09:52:02Z</time>
      </trkpt>
      <trkpt lat="47.9825" lon="3.3964">
        <ele>97</ele>
        <time>2014-04-14T09:52:06Z</time>
      </trkpt>
      <trkpt lat="47.98254" lon="3.39636">
        <ele>97</ele>
        <time>2014-04-14T09:52:09Z</time>
      </trkpt>
      <trkpt lat="47.98259" lon="3.39631">
        <ele>97</ele>
        <time>2014-04-14T09:52:13Z</time>
      </trkpt>
      <trkpt lat="47.9826" lon="3.39624">
        <ele>97</ele>
        <time>2014-04-14T09:52:16Z</time>
      </trkpt>
      <trkpt lat="47.98262" lon="3.39616">
        <ele>96</ele>
        <time>2014-04-14T09:52:19Z</time>
      </trkpt>
      <trkpt lat="47.98276" lon="3.39581">
        <ele>93</ele>
        <time>2014-04-14T09:52:42Z</time>
      </trkpt>
      <trkpt lat="47.98279" lon="3.39577">
        <ele>93</ele>
        <time>2014-04-14T09:52:45Z</time>
      </trkpt>
      <trkpt lat="47.98282" lon="3.3957">
        <ele>93</ele>
        <time>2014-04-14T09:52:48Z</time>
      </trkpt>
      <trkpt lat="47.98282" lon="3.39562">
        <ele>93</ele>
        <time>2014-04-14T09:52:53Z</time>
      </trkpt>
      <trkpt lat="47.9828" lon="3.39555">
        <ele>93</ele>
        <time>2014-04-14T09:52:56Z</time>
      </trkpt>
      <trkpt lat="47.98277" lon="3.3955">
        <ele>93</ele>
        <time>2014-04-14T09:52:59Z</time>
      </trkpt>
      <trkpt lat="47.98277" lon="3.39543">
        <ele>93</ele>
        <time>2014-04-14T09:53:04Z</time>
      </trkpt>
      <trkpt lat="47.98281" lon="3.39537">
        <ele>93</ele>
        <time>2014-04-14T09:53:08Z</time>
      </trkpt>
      <trkpt lat="47.98285" lon="3.39533">
        <ele>93</ele>
        <time>2014-04-14T09:53:11Z</time>
      </trkpt>
      <trkpt lat="47.9829" lon="3.39531">
        <ele>93</ele>
        <time>2014-04-14T09:53:14Z</time>
      </trkpt>
      <trkpt lat="47.98294" lon="3.39526">
        <ele>93</ele>
        <time>2014-04-14T09:53:18Z</time>
      </trkpt>
      <trkpt lat="47.98294" lon="3.39517">
        <ele>93</ele>
        <time>2014-04-14T09:53:22Z</time>
      </trkpt>
      <trkpt lat="47.98295" lon="3.3951">
        <ele>93</ele>
        <time>2014-04-14T09:53:26Z</time>
      </trkpt>
      <trkpt lat="47.98298" lon="3.39504">
        <ele>93</ele>
        <time>2014-04-14T09:53:30Z</time>
      </trkpt>
      <trkpt lat="47.98302" lon="3.39498">
        <ele>90</ele>
        <time>2014-04-14T09:53:34Z</time>
      </trkpt>
      <trkpt lat="47.98305" lon="3.39491">
        <ele>91</ele>
        <time>2014-04-14T09:53:38Z</time>
      </trkpt>
      <trkpt lat="47.98307" lon="3.39483">
        <ele>91</ele>
        <time>2014-04-14T09:53:42Z</time>
      </trkpt>
      <trkpt lat="47.9831" lon="3.39478">
        <ele>90</ele>
        <time>2014-04-14T09:53:46Z</time>
      </trkpt>
      <trkpt lat="47.98314" lon="3.39474">
        <ele>91</ele>
        <time>2014-04-14T09:53:50Z</time>
      </trkpt>
      <trkpt lat="47.98319" lon="3.39473">
        <ele>91</ele>
        <time>2014-04-14T09:53:59Z</time>
      </trkpt>
      <trkpt lat="47.98327" lon="3.39483">
        <ele>92</ele>
        <time>2014-04-14T09:54:05Z</time>
      </trkpt>
      <trkpt lat="47.98331" lon="3.39488">
        <ele>93</ele>
        <time>2014-04-14T09:54:09Z</time>
      </trkpt>
      <trkpt lat="47.98335" lon="3.39493">
        <ele>95</ele>
        <time>2014-04-14T09:54:14Z</time>
      </trkpt>
      <trkpt lat="47.98339" lon="3.39495">
        <ele>95</ele>
        <time>2014-04-14T09:54:23Z</time>
      </trkpt>
      <trkpt lat="47.98344" lon="3.39478">
        <ele>95</ele>
        <time>2014-04-14T09:54:40Z</time>
      </trkpt>
      <trkpt lat="47.98343" lon="3.39471">
        <ele>95</ele>
        <time>2014-04-14T09:54:49Z</time>
      </trkpt>
      <trkpt lat="47.98341" lon="3.39465">
        <ele>95</ele>
        <time>2014-04-14T09:54:56Z</time>
      </trkpt>
      <trkpt lat="47.98343" lon="3.39458">
        <ele>95</ele>
        <time>2014-04-14T09:55:00Z</time>
      </trkpt>
      <trkpt lat="47.98342" lon="3.39442">
        <ele>94</ele>
        <time>2014-04-14T09:55:06Z</time>
      </trkpt>
      <trkpt lat="47.9834" lon="3.39433">
        <ele>93</ele>
        <time>2014-04-14T09:55:10Z</time>
      </trkpt>
      <trkpt lat="47.98344" lon="3.39427">
        <ele>93</ele>
        <time>2014-04-14T09:55:15Z</time>
      </trkpt>
      <trkpt lat="47.98349" lon="3.39429">
        <ele>93</ele>
        <time>2014-04-14T09:55:19Z</time>
      </trkpt>
      <trkpt lat="47.98355" lon="3.3943">
        <ele>94</ele>
        <time>2014-04-14T09:55:24Z</time>
      </trkpt>
      <trkpt lat="47.98359" lon="3.39426">
        <ele>94</ele>
        <time>2014-04-14T09:55:27Z</time>
      </trkpt>
      <trkpt lat="47.98364" lon="3.39424">
        <ele>94</ele>
        <time>2014-04-14T09:55:31Z</time>
      </trkpt>
      <trkpt lat="47.9837" lon="3.39425">
        <ele>94</ele>
        <time>2014-04-14T09:55:34Z</time>
      </trkpt>
      <trkpt lat="47.98374" lon="3.39427">
        <ele>95</ele>
        <time>2014-04-14T09:55:36Z</time>
      </trkpt>
      <trkpt lat="47.98383" lon="3.39432">
        <ele>95</ele>
        <time>2014-04-14T09:55:41Z</time>
      </trkpt>
      <trkpt lat="47.98385" lon="3.39425">
        <ele>95</ele>
        <time>2014-04-14T09:55:46Z</time>
      </trkpt>
      <trkpt lat="47.98389" lon="3.39421">
        <ele>95</ele>
        <time>2014-04-14T09:55:49Z</time>
      </trkpt>
      <trkpt lat="47.98396" lon="3.39417">
        <ele>95</ele>
        <time>2014-04-14T09:55:52Z</time>
      </trkpt>
      <trkpt lat="47.984" lon="3.39416">
        <ele>94</ele>
        <time>2014-04-14T09:55:54Z</time>
      </trkpt>
      <trkpt lat="47.98406" lon="3.39418">
        <ele>95</ele>
        <time>2014-04-14T09:55:57Z</time>
      </trkpt>
      <trkpt lat="47.98409" lon="3.39425">
        <ele>95</ele>
        <time>2014-04-14T09:56:00Z</time>
      </trkpt>
      <trkpt lat="47.98408" lon="3.39439">
        <ele>96</ele>
        <time>2014-04-14T09:56:15Z</time>
      </trkpt>
      <trkpt lat="47.9841" lon="3.39444">
        <ele>96</ele>
        <time>2014-04-14T09:56:36Z</time>
      </trkpt>
      <trkpt lat="47.98413" lon="3.39447">
        <ele>96</ele>
        <time>2014-04-14T09:56:46Z</time>
      </trkpt>
      <trkpt lat="47.98418" lon="3.39445">
        <ele>98</ele>
        <time>2014-04-14T09:56:49Z</time>
      </trkpt>
      <trkpt lat="47.98423" lon="3.39439">
        <ele>98</ele>
        <time>2014-04-14T09:57:08Z</time>
      </trkpt>
      <trkpt lat="47.98418" lon="3.39435">
        <ele>98</ele>
        <time>2014-04-14T09:57:13Z</time>
      </trkpt>
      <trkpt lat="47.98407" lon="3.3944">
        <ele>96</ele>
        <time>2014-04-14T09:59:05Z</time>
      </trkpt>
      <trkpt lat="47.98402" lon="3.39443">
        <ele>96</ele>
        <time>2014-04-14T09:59:08Z</time>
      </trkpt>
      <trkpt lat="47.98397" lon="3.39447">
        <ele>96</ele>
        <time>2014-04-14T09:59:12Z</time>
      </trkpt>
      <trkpt lat="47.98392" lon="3.39444">
        <ele>95</ele>
        <time>2014-04-14T09:59:17Z</time>
      </trkpt>
      <trkpt lat="47.98387" lon="3.39444">
        <ele>95</ele>
        <time>2014-04-14T09:59:21Z</time>
      </trkpt>
      <trkpt lat="47.98376" lon="3.39444">
        <ele>95</ele>
        <time>2014-04-14T09:59:29Z</time>
      </trkpt>
      <trkpt lat="47.98369" lon="3.39437">
        <ele>95</ele>
        <time>2014-04-14T09:59:41Z</time>
      </trkpt>
      <trkpt lat="47.98365" lon="3.39437">
        <ele>95</ele>
        <time>2014-04-14T09:59:48Z</time>
      </trkpt>
      <trkpt lat="47.9836" lon="3.39436">
        <ele>94</ele>
        <time>2014-04-14T09:59:51Z</time>
      </trkpt>
      <trkpt lat="47.98348" lon="3.39435">
        <ele>94</ele>
        <time>2014-04-14T09:59:59Z</time>
      </trkpt>
      <trkpt lat="47.98344" lon="3.39441">
        <ele>94</ele>
        <time>2014-04-14T10:00:05Z</time>
      </trkpt>
      <trkpt lat="47.9834" lon="3.39445">
        <ele>94</ele>
        <time>2014-04-14T10:00:10Z</time>
      </trkpt>
      <trkpt lat="47.98342" lon="3.39452">
        <ele>94</ele>
        <time>2014-04-14T10:00:15Z</time>
      </trkpt>
      <trkpt lat="47.98342" lon="3.39489">
        <ele>95</ele>
        <time>2014-04-14T10:00:35Z</time>
      </trkpt>
      <trkpt lat="47.98336" lon="3.3949">
        <ele>95</ele>
        <time>2014-04-14T10:00:39Z</time>
      </trkpt>
      <trkpt lat="47.98331" lon="3.39493">
        <ele>93</ele>
        <time>2014-04-14T10:00:43Z</time>
      </trkpt>
      <trkpt lat="47.98329" lon="3.39499">
        <ele>94</ele>
        <time>2014-04-14T10:00:47Z</time>
      </trkpt>
      <trkpt lat="47.98326" lon="3.39494">
        <ele>93</ele>
        <time>2014-04-14T10:00:51Z</time>
      </trkpt>
      <trkpt lat="47.98318" lon="3.39474">
        <ele>91</ele>
        <time>2014-04-14T10:00:57Z</time>
      </trkpt>
      <trkpt lat="47.98312" lon="3.39473">
        <ele>90</ele>
        <time>2014-04-14T10:01:00Z</time>
      </trkpt>
      <trkpt lat="47.98308" lon="3.39475">
        <ele>90</ele>
        <time>2014-04-14T10:01:03Z</time>
      </trkpt>
      <trkpt lat="47.98307" lon="3.39483">
        <ele>91</ele>
        <time>2014-04-14T10:01:07Z</time>
      </trkpt>
      <trkpt lat="47.98301" lon="3.39512">
        <ele>93</ele>
        <time>2014-04-14T10:01:19Z</time>
      </trkpt>
      <trkpt lat="47.98297" lon="3.39516">
        <ele>93</ele>
        <time>2014-04-14T10:01:22Z</time>
      </trkpt>
      <trkpt lat="47.98294" lon="3.39522">
        <ele>93</ele>
        <time>2014-04-14T10:01:26Z</time>
      </trkpt>
      <trkpt lat="47.98293" lon="3.3954">
        <ele>93</ele>
        <time>2014-04-14T10:01:37Z</time>
      </trkpt>
      <trkpt lat="47.98296" lon="3.39547">
        <ele>94</ele>
        <time>2014-04-14T10:01:40Z</time>
      </trkpt>
      <trkpt lat="47.98288" lon="3.39558">
        <ele>94</ele>
        <time>2014-04-14T10:01:48Z</time>
      </trkpt>
      <trkpt lat="47.9828" lon="3.39555">
        <ele>93</ele>
        <time>2014-04-14T10:01:54Z</time>
      </trkpt>
      <trkpt lat="47.98274" lon="3.39549">
        <ele>93</ele>
        <time>2014-04-14T10:01:59Z</time>
      </trkpt>
      <trkpt lat="47.9827" lon="3.39543">
        <ele>92</ele>
        <time>2014-04-14T10:02:03Z</time>
      </trkpt>
      <trkpt lat="47.98265" lon="3.39541">
        <ele>92</ele>
        <time>2014-04-14T10:02:10Z</time>
      </trkpt>
      <trkpt lat="47.98256" lon="3.39534">
        <ele>91</ele>
        <time>2014-04-14T10:02:16Z</time>
      </trkpt>
      <trkpt lat="47.98252" lon="3.39529">
        <ele>91</ele>
        <time>2014-04-14T10:02:20Z</time>
      </trkpt>
      <trkpt lat="47.98243" lon="3.39522">
        <ele>86</ele>
        <time>2014-04-14T10:02:25Z</time>
      </trkpt>
      <trkpt lat="47.98239" lon="3.39519">
        <ele>85</ele>
        <time>2014-04-14T10:02:27Z</time>
      </trkpt>
      <trkpt lat="47.98235" lon="3.39514">
        <ele>85</ele>
        <time>2014-04-14T10:02:31Z</time>
      </trkpt>
      <trkpt lat="47.9823" lon="3.39502">
        <ele>85</ele>
        <time>2014-04-14T10:02:42Z</time>
      </trkpt>
      <trkpt lat="47.98225" lon="3.39495">
        <ele>84</ele>
        <time>2014-04-14T10:02:51Z</time>
      </trkpt>
      <trkpt lat="47.98229" lon="3.39492">
        <ele>84</ele>
        <time>2014-04-14T10:02:58Z</time>
      </trkpt>
      <trkpt lat="47.98231" lon="3.39501">
        <ele>85</ele>
        <time>2014-04-14T10:03:07Z</time>
      </trkpt>
      <trkpt lat="47.98229" lon="3.39495">
        <ele>84</ele>
        <time>2014-04-14T10:03:53Z</time>
      </trkpt>
      <trkpt lat="47.98224" lon="3.39498">
        <ele>84</ele>
        <time>2014-04-14T10:03:57Z</time>
      </trkpt>
      <trkpt lat="47.98219" lon="3.39501">
        <ele>85</ele>
        <time>2014-04-14T10:04:01Z</time>
      </trkpt>
      <trkpt lat="47.98215" lon="3.39505">
        <ele>84</ele>
        <time>2014-04-14T10:04:05Z</time>
      </trkpt>
      <trkpt lat="47.98215" lon="3.39513">
        <ele>84</ele>
        <time>2014-04-14T10:04:09Z</time>
      </trkpt>
      <trkpt lat="47.98217" lon="3.39535">
        <ele>85</ele>
        <time>2014-04-14T10:04:22Z</time>
      </trkpt>
      <trkpt lat="47.98213" lon="3.3954">
        <ele>85</ele>
        <time>2014-04-14T10:04:26Z</time>
      </trkpt>
      <trkpt lat="47.98208" lon="3.39542">
        <ele>84</ele>
        <time>2014-04-14T10:04:29Z</time>
      </trkpt>
      <trkpt lat="47.98203" lon="3.39542">
        <ele>84</ele>
        <time>2014-04-14T10:04:32Z</time>
      </trkpt>
      <trkpt lat="47.98199" lon="3.39546">
        <ele>84</ele>
        <time>2014-04-14T10:04:35Z</time>
      </trkpt>
      <trkpt lat="47.98189" lon="3.39568">
        <ele>83</ele>
        <time>2014-04-14T10:04:44Z</time>
      </trkpt>
      <trkpt lat="47.98187" lon="3.39582">
        <ele>83</ele>
        <time>2014-04-14T10:04:53Z</time>
      </trkpt>
      <trkpt lat="47.9818" lon="3.39592">
        <ele>84</ele>
        <time>2014-04-14T10:05:04Z</time>
      </trkpt>
      <trkpt lat="47.98178" lon="3.39599">
        <ele>84</ele>
        <time>2014-04-14T10:05:07Z</time>
      </trkpt>
      <trkpt lat="47.98171" lon="3.3961">
        <ele>85</ele>
        <time>2014-04-14T10:05:15Z</time>
      </trkpt>
      <trkpt lat="47.98173" lon="3.39617">
        <ele>85</ele>
        <time>2014-04-14T10:05:21Z</time>
      </trkpt>
      <trkpt lat="47.98171" lon="3.3962">
        <ele>85</ele>
        <time>2014-04-14T10:05:42Z</time>
      </trkpt>
      <trkpt lat="47.98166" lon="3.3962">
        <ele>81</ele>
        <time>2014-04-14T10:05:45Z</time>
      </trkpt>
      <trkpt lat="47.98161" lon="3.39617">
        <ele>81</ele>
        <time>2014-04-14T10:05:48Z</time>
      </trkpt>
      <trkpt lat="47.98157" lon="3.39611">
        <ele>81</ele>
        <time>2014-04-14T10:05:52Z</time>
      </trkpt>
      <trkpt lat="47.98154" lon="3.39612">
        <ele>81</ele>
        <time>2014-04-14T10:06:00Z</time>
      </trkpt>
      <trkpt lat="47.98156" lon="3.39603">
        <ele>80</ele>
        <time>2014-04-14T10:06:05Z</time>
      </trkpt>
      <trkpt lat="47.98155" lon="3.39594">
        <ele>80</ele>
        <time>2014-04-14T10:06:10Z</time>
      </trkpt>
      <trkpt lat="47.98153" lon="3.39588">
        <ele>80</ele>
        <time>2014-04-14T10:06:13Z</time>
      </trkpt>
      <trkpt lat="47.98148" lon="3.39584">
        <ele>80</ele>
        <time>2014-04-14T10:06:17Z</time>
      </trkpt>
      <trkpt lat="47.98143" lon="3.39583">
        <ele>79</ele>
        <time>2014-04-14T10:06:21Z</time>
      </trkpt>
      <trkpt lat="47.98133" lon="3.39577">
        <ele>79</ele>
        <time>2014-04-14T10:06:31Z</time>
      </trkpt>
      <trkpt lat="47.98129" lon="3.39576">
        <ele>79</ele>
        <time>2014-04-14T10:06:37Z</time>
      </trkpt>
      <trkpt lat="47.98124" lon="3.39573">
        <ele>79</ele>
        <time>2014-04-14T10:06:41Z</time>
      </trkpt>
      <trkpt lat="47.98104" lon="3.3957">
        <ele>79</ele>
        <time>2014-04-14T10:07:04Z</time>
      </trkpt>
      <trkpt lat="47.98095" lon="3.39562">
        <ele>79</ele>
        <time>2014-04-14T10:07:13Z</time>
      </trkpt>
      <trkpt lat="47.9809" lon="3.3956">
        <ele>79</ele>
        <time>2014-04-14T10:07:17Z</time>
      </trkpt>
      <trkpt lat="47.98085" lon="3.39558">
        <ele>79</ele>
        <time>2014-04-14T10:07:20Z</time>
      </trkpt>
      <trkpt lat="47.98075" lon="3.39556">
        <ele>79</ele>
        <time>2014-04-14T10:07:29Z</time>
      </trkpt>
      <trkpt lat="47.98069" lon="3.39554">
        <ele>79</ele>
        <time>2014-04-14T10:07:33Z</time>
      </trkpt>
      <trkpt lat="47.98065" lon="3.39551">
        <ele>79</ele>
        <time>2014-04-14T10:07:38Z</time>
      </trkpt>
      <trkpt lat="47.9806" lon="3.39549">
        <ele>79</ele>
        <time>2014-04-14T10:07:42Z</time>
      </trkpt>
      <trkpt lat="47.98055" lon="3.39548">
        <ele>79</ele>
        <time>2014-04-14T10:07:46Z</time>
      </trkpt>
      <trkpt lat="47.9805" lon="3.39541">
        <ele>79</ele>
        <time>2014-04-14T10:07:54Z</time>
      </trkpt>
      <trkpt lat="47.98046" lon="3.39546">
        <ele>79</ele>
        <time>2014-04-14T10:07:57Z</time>
      </trkpt>
      <trkpt lat="47.98043" lon="3.39552">
        <ele>79</ele>
        <time>2014-04-14T10:08:00Z</time>
      </trkpt>
      <trkpt lat="47.98042" lon="3.39558">
        <ele>79</ele>
        <time>2014-04-14T10:08:03Z</time>
      </trkpt>
      <trkpt lat="47.98039" lon="3.39564">
        <ele>79</ele>
        <time>2014-04-14T10:08:08Z</time>
      </trkpt>
      <trkpt lat="47.98036" lon="3.39579">
        <ele>79</ele>
        <time>2014-04-14T10:08:18Z</time>
      </trkpt>
      <trkpt lat="47.98025" lon="3.39605">
        <ele>79</ele>
        <time>2014-04-14T10:08:38Z</time>
      </trkpt>
      <trkpt lat="47.98021" lon="3.39611">
        <ele>79</ele>
        <time>2014-04-14T10:08:43Z</time>
      </trkpt>
      <trkpt lat="47.98017" lon="3.39625">
        <ele>79</ele>
        <time>2014-04-14T10:08:55Z</time>
      </trkpt>
      <trkpt lat="47.98015" lon="3.3963">
        <ele>79</ele>
        <time>2014-04-14T10:08:59Z</time>
      </trkpt>
      <trkpt lat="47.98006" lon="3.39635">
        <ele>79</ele>
        <time>2014-04-14T10:09:08Z</time>
      </trkpt>
      <trkpt lat="47.97999" lon="3.39646">
        <ele>79</ele>
        <time>2014-04-14T10:09:15Z</time>
      </trkpt>
      <trkpt lat="47.97991" lon="3.39656">
        <ele>79</ele>
        <time>2014-04-14T10:09:23Z</time>
      </trkpt>
      <trkpt lat="47.97986" lon="3.39659">
        <ele>79</ele>
        <time>2014-04-14T10:09:27Z</time>
      </trkpt>
      <trkpt lat="47.97982" lon="3.39663">
        <ele>79</ele>
        <time>2014-04-14T10:09:31Z</time>
      </trkpt>
      <trkpt lat="47.97978" lon="3.39668">
        <ele>78</ele>
        <time>2014-04-14T10:09:35Z</time>
      </trkpt>
      <trkpt lat="47.97974" lon="3.39672">
        <ele>78</ele>
        <time>2014-04-14T10:09:39Z</time>
      </trkpt>
      <trkpt lat="47.9797" lon="3.39678">
        <ele>78</ele>
        <time>2014-04-14T10:09:44Z</time>
      </trkpt>
      <trkpt lat="47.97966" lon="3.39683">
        <ele>78</ele>
        <time>2014-04-14T10:09:47Z</time>
      </trkpt>
      <trkpt lat="47.97962" lon="3.39686">
        <ele>78</ele>
        <time>2014-04-14T10:09:52Z</time>
      </trkpt>
      <trkpt lat="47.97957" lon="3.39688">
        <ele>78</ele>
        <time>2014-04-14T10:09:58Z</time>
      </trkpt>
      <trkpt lat="47.97952" lon="3.397">
        <ele>78</ele>
        <time>2014-04-14T10:10:16Z</time>
      </trkpt>
      <trkpt lat="47.9795" lon="3.39706">
        <ele>78</ele>
        <time>2014-04-14T10:10:20Z</time>
      </trkpt>
      <trkpt lat="47.97946" lon="3.39713">
        <ele>78</ele>
        <time>2014-04-14T10:10:24Z</time>
      </trkpt>
      <trkpt lat="47.97942" lon="3.39718">
        <ele>77</ele>
        <time>2014-04-14T10:10:29Z</time>
      </trkpt>
      <trkpt lat="47.97937" lon="3.3972">
        <ele>77</ele>
        <time>2014-04-14T10:10:35Z</time>
      </trkpt>
      <trkpt lat="47.97929" lon="3.39729">
        <ele>77</ele>
        <time>2014-04-14T10:10:41Z</time>
      </trkpt>
      <trkpt lat="47.97909" lon="3.39741">
        <ele>77</ele>
        <time>2014-04-14T10:10:52Z</time>
      </trkpt>
      <trkpt lat="47.97889" lon="3.39685">
        <ele>77</ele>
        <time>2014-04-14T12:09:00Z</time>
      </trkpt>
      <trkpt lat="47.97893" lon="3.39753">
        <ele>77</ele>
        <time>2014-04-14T12:09:01Z</time>
      </trkpt>
      <trkpt lat="47.97886" lon="3.39794">
        <ele>77</ele>
        <time>2014-04-14T12:09:06Z</time>
      </trkpt>
      <trkpt lat="47.97884" lon="3.39797">
        <ele>77</ele>
        <time>2014-04-14T12:09:17Z</time>
      </trkpt>
      <trkpt lat="47.97879" lon="3.39795">
        <ele>77</ele>
        <time>2014-04-14T12:09:23Z</time>
      </trkpt>
      <trkpt lat="47.97875" lon="3.39797">
        <ele>78</ele>
        <time>2014-04-14T12:09:27Z</time>
      </trkpt>
      <trkpt lat="47.9787" lon="3.39797">
        <ele>78</ele>
        <time>2014-04-14T12:09:32Z</time>
      </trkpt>
      <trkpt lat="47.9786" lon="3.39798">
        <ele>78</ele>
        <time>2014-04-14T12:09:41Z</time>
      </trkpt>
      <trkpt lat="47.97853" lon="3.39778">
        <ele>78</ele>
        <time>2014-04-14T12:09:53Z</time>
      </trkpt>
      <trkpt lat="47.97849" lon="3.39774">
        <ele>78</ele>
        <time>2014-04-14T12:09:57Z</time>
      </trkpt>
      <trkpt lat="47.97841" lon="3.39766">
        <ele>78</ele>
        <time>2014-04-14T12:10:08Z</time>
      </trkpt>
      <trkpt lat="47.97839" lon="3.3976">
        <ele>78</ele>
        <time>2014-04-14T12:10:12Z</time>
      </trkpt>
      <trkpt lat="47.97835" lon="3.39752">
        <ele>79</ele>
        <time>2014-04-14T12:10:21Z</time>
      </trkpt>
      <trkpt lat="47.9783" lon="3.3975">
        <ele>79</ele>
        <time>2014-04-14T12:10:26Z</time>
      </trkpt>
      <trkpt lat="47.97794" lon="3.39728">
        <ele>79</ele>
        <time>2014-04-14T12:10:55Z</time>
      </trkpt>
      <trkpt lat="47.97789" lon="3.39728">
        <ele>79</ele>
        <time>2014-04-14T12:10:58Z</time>
      </trkpt>
      <trkpt lat="47.97784" lon="3.39728">
        <ele>79</ele>
        <time>2014-04-14T12:11:02Z</time>
      </trkpt>
      <trkpt lat="47.97779" lon="3.39725">
        <ele>79</ele>
        <time>2014-04-14T12:11:07Z</time>
      </trkpt>
      <trkpt lat="47.97774" lon="3.39727">
        <ele>79</ele>
        <time>2014-04-14T12:11:13Z</time>
      </trkpt>
      <trkpt lat="47.9777" lon="3.39723">
        <ele>79</ele>
        <time>2014-04-14T12:11:17Z</time>
      </trkpt>
      <trkpt lat="47.97759" lon="3.39724">
        <ele>79</ele>
        <time>2014-04-14T12:11:24Z</time>
      </trkpt>
      <trkpt lat="47.97757" lon="3.39724">
        <ele>79</ele>
        <time>2014-04-14T12:11:30Z</time>
      </trkpt>
      <trkpt lat="47.97753" lon="3.39719">
        <ele>79</ele>
        <time>2014-04-14T12:11:33Z</time>
      </trkpt>
      <trkpt lat="47.97748" lon="3.39715">
        <ele>78</ele>
        <time>2014-04-14T12:11:37Z</time>
      </trkpt>
      <trkpt lat="47.97743" lon="3.39711">
        <ele>78</ele>
        <time>2014-04-14T12:11:41Z</time>
      </trkpt>
      <trkpt lat="47.97738" lon="3.39711">
        <ele>78</ele>
        <time>2014-04-14T12:11:44Z</time>
      </trkpt>
      <trkpt lat="47.97733" lon="3.39709">
        <ele>78</ele>
        <time>2014-04-14T12:11:47Z</time>
      </trkpt>
      <trkpt lat="47.97729" lon="3.39703">
        <ele>78</ele>
        <time>2014-04-14T12:11:51Z</time>
      </trkpt>
      <trkpt lat="47.97727" lon="3.39689">
        <ele>78</ele>
        <time>2014-04-14T12:11:58Z</time>
      </trkpt>
      <trkpt lat="47.97722" lon="3.39688">
        <ele>78</ele>
        <time>2014-04-14T12:12:04Z</time>
      </trkpt>
      <trkpt lat="47.97717" lon="3.39686">
        <ele>78</ele>
        <time>2014-04-14T12:12:08Z</time>
      </trkpt>
      <trkpt lat="47.97704" lon="3.39674">
        <ele>78</ele>
        <time>2014-04-14T12:12:21Z</time>
      </trkpt>
      <trkpt lat="47.97699" lon="3.39672">
        <ele>78</ele>
        <time>2014-04-14T12:12:25Z</time>
      </trkpt>
      <trkpt lat="47.97686" lon="3.39662">
        <ele>78</ele>
        <time>2014-04-14T12:12:38Z</time>
      </trkpt>
      <trkpt lat="47.97682" lon="3.39661">
        <ele>78</ele>
        <time>2014-04-14T12:12:48Z</time>
      </trkpt>
      <trkpt lat="47.97678" lon="3.39664">
        <ele>78</ele>
        <time>2014-04-14T12:12:56Z</time>
      </trkpt>
      <trkpt lat="47.97675" lon="3.39659">
        <ele>78</ele>
        <time>2014-04-14T12:13:03Z</time>
      </trkpt>
      <trkpt lat="47.9767" lon="3.39655">
        <ele>78</ele>
        <time>2014-04-14T12:13:09Z</time>
      </trkpt>
      <trkpt lat="47.97665" lon="3.39651">
        <ele>78</ele>
        <time>2014-04-14T12:13:14Z</time>
      </trkpt>
      <trkpt lat="47.97659" lon="3.39649">
        <ele>78</ele>
        <time>2014-04-14T12:13:18Z</time>
      </trkpt>
      <trkpt lat="47.9765" lon="3.39642">
        <ele>78</ele>
        <time>2014-04-14T12:13:30Z</time>
      </trkpt>
      <trkpt lat="47.97645" lon="3.39639">
        <ele>78</ele>
        <time>2014-04-14T12:13:35Z</time>
      </trkpt>
      <trkpt lat="47.97642" lon="3.39634">
        <ele>78</ele>
        <time>2014-04-14T12:13:39Z</time>
      </trkpt>
      <trkpt lat="47.97636" lon="3.3963">
        <ele>78</ele>
        <time>2014-04-14T12:13:42Z</time>
      </trkpt>
      <trkpt lat="47.97632" lon="3.39627">
        <ele>78</ele>
        <time>2014-04-14T12:13:46Z</time>
      </trkpt>
      <trkpt lat="47.97627" lon="3.39629">
        <ele>78</ele>
        <time>2014-04-14T12:13:50Z</time>
      </trkpt>
      <trkpt lat="47.97621" lon="3.39626">
        <ele>77</ele>
        <time>2014-04-14T12:13:54Z</time>
      </trkpt>
      <trkpt lat="47.97616" lon="3.39622">
        <ele>78</ele>
        <time>2014-04-14T12:13:58Z</time>
      </trkpt>
      <trkpt lat="47.97611" lon="3.39621">
        <ele>78</ele>
        <time>2014-04-14T12:14:02Z</time>
      </trkpt>
      <trkpt lat="47.97594" lon="3.39611">
        <ele>78</ele>
        <time>2014-04-14T12:14:08Z</time>
      </trkpt>
      <trkpt lat="47.97591" lon="3.3961">
        <ele>78</ele>
        <time>2014-04-14T12:14:10Z</time>
      </trkpt>
      <trkpt lat="47.97586" lon="3.39604">
        <ele>78</ele>
        <time>2014-04-14T12:14:23Z</time>
      </trkpt>
      <trkpt lat="47.97576" lon="3.39599">
        <ele>78</ele>
        <time>2014-04-14T12:14:31Z</time>
      </trkpt>
      <trkpt lat="47.97572" lon="3.39596">
        <ele>78</ele>
        <time>2014-04-14T12:14:35Z</time>
      </trkpt>
      <trkpt lat="47.97548" lon="3.39587">
        <ele>78</ele>
        <time>2014-04-14T12:14:55Z</time>
      </trkpt>
      <trkpt lat="47.97544" lon="3.39584">
        <ele>78</ele>
        <time>2014-04-14T12:14:59Z</time>
      </trkpt>
      <trkpt lat="47.97524" lon="3.39574">
        <ele>78</ele>
        <time>2014-04-14T12:15:16Z</time>
      </trkpt>
      <trkpt lat="47.9752" lon="3.39571">
        <ele>78</ele>
        <time>2014-04-14T12:15:20Z</time>
      </trkpt>
      <trkpt lat="47.97517" lon="3.39566">
        <ele>78</ele>
        <time>2014-04-14T12:15:25Z</time>
      </trkpt>
      <trkpt lat="47.97513" lon="3.39562">
        <ele>78</ele>
        <time>2014-04-14T12:15:29Z</time>
      </trkpt>
      <trkpt lat="47.97509" lon="3.39557">
        <ele>78</ele>
        <time>2014-04-14T12:15:33Z</time>
      </trkpt>
      <trkpt lat="47.97505" lon="3.39552">
        <ele>78</ele>
        <time>2014-04-14T12:15:37Z</time>
      </trkpt>
      <trkpt lat="47.97504" lon="3.39545">
        <ele>78</ele>
        <time>2014-04-14T12:15:41Z</time>
      </trkpt>
      <trkpt lat="47.97499" lon="3.3954">
        <ele>78</ele>
        <time>2014-04-14T12:16:09Z</time>
      </trkpt>
      <trkpt lat="47.97494" lon="3.39537">
        <ele>78</ele>
        <time>2014-04-14T12:16:15Z</time>
      </trkpt>
      <trkpt lat="47.97489" lon="3.39536">
        <ele>78</ele>
        <time>2014-04-14T12:16:20Z</time>
      </trkpt>
      <trkpt lat="47.97484" lon="3.39534">
        <ele>78</ele>
        <time>2014-04-14T12:16:24Z</time>
      </trkpt>
      <trkpt lat="47.97479" lon="3.39531">
        <ele>78</ele>
        <time>2014-04-14T12:16:28Z</time>
      </trkpt>
      <trkpt lat="47.97474" lon="3.39528">
        <ele>78</ele>
        <time>2014-04-14T12:16:32Z</time>
      </trkpt>
      <trkpt lat="47.97464" lon="3.39526">
        <ele>78</ele>
        <time>2014-04-14T12:16:38Z</time>
      </trkpt>
      <trkpt lat="47.97459" lon="3.39527">
        <ele>78</ele>
        <time>2014-04-14T12:16:42Z</time>
      </trkpt>
      <trkpt lat="47.97455" lon="3.39524">
        <ele>78</ele>
        <time>2014-04-14T12:16:46Z</time>
      </trkpt>
      <trkpt lat="47.97458" lon="3.39507">
        <ele>78</ele>
        <time>2014-04-14T12:16:52Z</time>
      </trkpt>
      <trkpt lat="47.97459" lon="3.39479">
        <ele>78</ele>
        <time>2014-04-14T12:17:07Z</time>
      </trkpt>
      <trkpt lat="47.97462" lon="3.39473">
        <ele>78</ele>
        <time>2014-04-14T12:17:13Z</time>
      </trkpt>
      <trkpt lat="47.97463" lon="3.39466">
        <ele>78</ele>
        <time>2014-04-14T12:17:18Z</time>
      </trkpt>
      <trkpt lat="47.9746" lon="3.39459">
        <ele>78</ele>
        <time>2014-04-14T12:17:22Z</time>
      </trkpt>
      <trkpt lat="47.97455" lon="3.39457">
        <ele>78</ele>
        <time>2014-04-14T12:17:26Z</time>
      </trkpt>
      <trkpt lat="47.9745" lon="3.39453">
        <ele>78</ele>
        <time>2014-04-14T12:17:30Z</time>
      </trkpt>
      <trkpt lat="47.97441" lon="3.39445">
        <ele>78</ele>
        <time>2014-04-14T12:17:38Z</time>
      </trkpt>
      <trkpt lat="47.97434" lon="3.39434">
        <ele>78</ele>
        <time>2014-04-14T12:17:46Z</time>
      </trkpt>
      <trkpt lat="47.97433" lon="3.39426">
        <ele>78</ele>
        <time>2014-04-14T12:17:50Z</time>
      </trkpt>
      <trkpt lat="47.97431" lon="3.3942">
        <ele>78</ele>
        <time>2014-04-14T12:17:54Z</time>
      </trkpt>
      <trkpt lat="47.97426" lon="3.39417">
        <ele>78</ele>
        <time>2014-04-14T12:17:58Z</time>
      </trkpt>
      <trkpt lat="47.97423" lon="3.39412">
        <ele>78</ele>
        <time>2014-04-14T12:18:02Z</time>
      </trkpt>
      <trkpt lat="47.97423" lon="3.39405">
        <ele>78</ele>
        <time>2014-04-14T12:18:07Z</time>
      </trkpt>
      <trkpt lat="47.97424" lon="3.39398">
        <ele>78</ele>
        <time>2014-04-14T12:18:12Z</time>
      </trkpt>
      <trkpt lat="47.97428" lon="3.39393">
        <ele>78</ele>
        <time>2014-04-14T12:18:17Z</time>
      </trkpt>
      <trkpt lat="47.9743" lon="3.39386">
        <ele>78</ele>
        <time>2014-04-14T12:18:21Z</time>
      </trkpt>
      <trkpt lat="47.97429" lon="3.39379">
        <ele>78</ele>
        <time>2014-04-14T12:18:23Z</time>
      </trkpt>
      <trkpt lat="47.97426" lon="3.39372">
        <ele>78</ele>
        <time>2014-04-14T12:18:25Z</time>
      </trkpt>
      <trkpt lat="47.97422" lon="3.39367">
        <ele>78</ele>
        <time>2014-04-14T12:18:29Z</time>
      </trkpt>
      <trkpt lat="47.97419" lon="3.3936">
        <ele>78</ele>
        <time>2014-04-14T12:18:34Z</time>
      </trkpt>
      <trkpt lat="47.97419" lon="3.39353">
        <ele>78</ele>
        <time>2014-04-14T12:18:38Z</time>
      </trkpt>
      <trkpt lat="47.97421" lon="3.39347">
        <ele>78</ele>
        <time>2014-04-14T12:18:42Z</time>
      </trkpt>
      <trkpt lat="47.97415" lon="3.39345">
        <ele>78</ele>
        <time>2014-04-14T12:19:00Z</time>
      </trkpt>
      <trkpt lat="47.97346" lon="3.39345">
        <ele>78</ele>
        <time>2014-04-14T12:20:10Z</time>
      </trkpt>
      <trkpt lat="47.97353" lon="3.39349">
        <ele>78</ele>
        <time>2014-04-14T12:20:13Z</time>
      </trkpt>
      <trkpt lat="47.97341" lon="3.39364">
        <ele>78</ele>
        <time>2014-04-14T12:20:16Z</time>
      </trkpt>
      <trkpt lat="47.97343" lon="3.39367">
        <ele>78</ele>
        <time>2014-04-14T12:20:27Z</time>
      </trkpt>
      <trkpt lat="47.97345" lon="3.3938">
        <ele>78</ele>
        <time>2014-04-14T12:20:34Z</time>
      </trkpt>
      <trkpt lat="47.97345" lon="3.39387">
        <ele>78</ele>
        <time>2014-04-14T12:20:39Z</time>
      </trkpt>
      <trkpt lat="47.97344" lon="3.39401">
        <ele>78</ele>
        <time>2014-04-14T12:20:47Z</time>
      </trkpt>
      <trkpt lat="47.97347" lon="3.39415">
        <ele>77</ele>
        <time>2014-04-14T12:20:56Z</time>
      </trkpt>
      <trkpt lat="47.97346" lon="3.39422">
        <ele>77</ele>
        <time>2014-04-14T12:21:00Z</time>
      </trkpt>
      <trkpt lat="47.97342" lon="3.39435">
        <ele>77</ele>
        <time>2014-04-14T12:21:09Z</time>
      </trkpt>
      <trkpt lat="47.97338" lon="3.3943">
        <ele>77</ele>
        <time>2014-04-14T12:21:15Z</time>
      </trkpt>
      <trkpt lat="47.97335" lon="3.39436">
        <ele>77</ele>
        <time>2014-04-14T12:21:20Z</time>
      </trkpt>
      <trkpt lat="47.97335" lon="3.39443">
        <ele>77</ele>
        <time>2014-04-14T12:21:24Z</time>
      </trkpt>
      <trkpt lat="47.97334" lon="3.39452">
        <ele>77</ele>
        <time>2014-04-14T12:21:28Z</time>
      </trkpt>
      <trkpt lat="47.97333" lon="3.3946">
        <ele>77</ele>
        <time>2014-04-14T12:21:33Z</time>
      </trkpt>
      <trkpt lat="47.9733" lon="3.39465">
        <ele>77</ele>
        <time>2014-04-14T12:21:37Z</time>
      </trkpt>
      <trkpt lat="47.97326" lon="3.3947">
        <ele>77</ele>
        <time>2014-04-14T12:21:42Z</time>
      </trkpt>
      <trkpt lat="47.97319" lon="3.3948">
        <ele>77</ele>
        <time>2014-04-14T12:21:50Z</time>
      </trkpt>
      <trkpt lat="47.97304" lon="3.39483">
        <ele>76</ele>
        <time>2014-04-14T12:22:00Z</time>
      </trkpt>
      <trkpt lat="47.97299" lon="3.39483">
        <ele>76</ele>
        <time>2014-04-14T12:22:04Z</time>
      </trkpt>
      <trkpt lat="47.96883" lon="3.39739">
        <ele>78</ele>
        <time>2014-04-14T12:28:20Z</time>
      </trkpt>
      <trkpt lat="47.96924" lon="3.3968">
        <ele>78</ele>
        <time>2014-04-14T12:28:24Z</time>
      </trkpt>
      <trkpt lat="47.96913" lon="3.39699">
        <ele>78</ele>
        <time>2014-04-14T12:28:34Z</time>
      </trkpt>
      <trkpt lat="47.96898" lon="3.39719">
        <ele>78</ele>
        <time>2014-04-14T12:28:42Z</time>
      </trkpt>
      <trkpt lat="47.96896" lon="3.39725">
        <ele>78</ele>
        <time>2014-04-14T12:28:47Z</time>
      </trkpt>
      <trkpt lat="47.96894" lon="3.39727">
        <ele>78</ele>
        <time>2014-04-14T12:28:53Z</time>
      </trkpt>
      <trkpt lat="47.96889" lon="3.39727">
        <ele>78</ele>
        <time>2014-04-14T12:29:07Z</time>
      </trkpt>
      <trkpt lat="47.96494" lon="3.39974">
        <ele>79</ele>
        <time>2014-04-14T12:35:06Z</time>
      </trkpt>
      <trkpt lat="47.96488" lon="3.39975">
        <ele>79</ele>
        <time>2014-04-14T12:35:13Z</time>
      </trkpt>
      <trkpt lat="47.96484" lon="3.39977">
        <ele>79</ele>
        <time>2014-04-14T12:35:17Z</time>
      </trkpt>
      <trkpt lat="47.96479" lon="3.39978">
        <ele>79</ele>
        <time>2014-04-14T12:35:22Z</time>
      </trkpt>
      <trkpt lat="47.96469" lon="3.39982">
        <ele>79</ele>
        <time>2014-04-14T12:35:31Z</time>
      </trkpt>
      <trkpt lat="47.96468" lon="3.39987">
        <ele>79</ele>
        <time>2014-04-14T12:35:40Z</time>
      </trkpt>
      <trkpt lat="47.96045" lon="3.40165">
        <ele>80</ele>
        <time>2014-04-14T12:42:50Z</time>
      </trkpt>
      <trkpt lat="47.96045" lon="3.40144">
        <ele>80</ele>
        <time>2014-04-14T12:43:05Z</time>
      </trkpt>
      <trkpt lat="47.9604" lon="3.40143">
        <ele>81</ele>
        <time>2014-04-14T12:43:11Z</time>
      </trkpt>
      <trkpt lat="47.96035" lon="3.40141">
        <ele>81</ele>
        <time>2014-04-14T12:43:16Z</time>
      </trkpt>
      <trkpt lat="47.9603" lon="3.40143">
        <ele>81</ele>
        <time>2014-04-14T12:43:23Z</time>
      </trkpt>
      <trkpt lat="47.96025" lon="3.40145">
        <ele>81</ele>
        <time>2014-04-14T12:43:27Z</time>
      </trkpt>
      <trkpt lat="47.96019" lon="3.40145">
        <ele>81</ele>
        <time>2014-04-14T12:43:31Z</time>
      </trkpt>
      <trkpt lat="47.9601" lon="3.4015">
        <ele>81</ele>
        <time>2014-04-14T12:43:40Z</time>
      </trkpt>
      <trkpt lat="47.96006" lon="3.40152">
        <ele>81</ele>
        <time>2014-04-14T12:43:43Z</time>
      </trkpt>
      <trkpt lat="47.96001" lon="3.40152">
        <ele>81</ele>
        <time>2014-04-14T12:43:46Z</time>
      </trkpt>
      <trkpt lat="47.95996" lon="3.40152">
        <ele>81</ele>
        <time>2014-04-14T12:43:49Z</time>
      </trkpt>
      <trkpt lat="47.95991" lon="3.40149">
        <ele>81</ele>
        <time>2014-04-14T12:43:53Z</time>
      </trkpt>
      <trkpt lat="47.95976" lon="3.40144">
        <ele>81</ele>
        <time>2014-04-14T12:44:17Z</time>
      </trkpt>
      <trkpt lat="47.9597" lon="3.40145">
        <ele>81</ele>
        <time>2014-04-14T12:44:25Z</time>
      </trkpt>
      <trkpt lat="47.95965" lon="3.40145">
        <ele>81</ele>
        <time>2014-04-14T12:44:30Z</time>
      </trkpt>
      <trkpt lat="47.95961" lon="3.40142">
        <ele>81</ele>
        <time>2014-04-14T12:44:34Z</time>
      </trkpt>
      <trkpt lat="47.95854" lon="3.40106">
        <ele>80</ele>
        <time>2014-04-14T12:46:24Z</time>
      </trkpt>
      <trkpt lat="47.95852" lon="3.40099">
        <ele>80</ele>
        <time>2014-04-14T12:46:27Z</time>
      </trkpt>
      <trkpt lat="47.95849" lon="3.40092">
        <ele>80</ele>
        <time>2014-04-14T12:46:30Z</time>
      </trkpt>
      <trkpt lat="47.95845" lon="3.40087">
        <ele>80</ele>
        <time>2014-04-14T12:46:37Z</time>
      </trkpt>
      <trkpt lat="47.95839" lon="3.40076">
        <ele>80</ele>
        <time>2014-04-14T12:46:47Z</time>
      </trkpt>
      <trkpt lat="47.9583" lon="3.40068">
        <ele>80</ele>
        <time>2014-04-14T12:46:56Z</time>
      </trkpt>
      <trkpt lat="47.95825" lon="3.40068">
        <ele>80</ele>
        <time>2014-04-14T12:47:00Z</time>
      </trkpt>
      <trkpt lat="47.95821" lon="3.40066">
        <ele>80</ele>
        <time>2014-04-14T12:47:05Z</time>
      </trkpt>
      <trkpt lat="47.95811" lon="3.40059">
        <ele>80</ele>
        <time>2014-04-14T12:47:14Z</time>
      </trkpt>
      <trkpt lat="47.95808" lon="3.40054">
        <ele>80</ele>
        <time>2014-04-14T12:47:20Z</time>
      </trkpt>
      <trkpt lat="47.95801" lon="3.40052">
        <ele>80</ele>
        <time>2014-04-14T12:47:27Z</time>
      </trkpt>
      <trkpt lat="47.95797" lon="3.40054">
        <ele>80</ele>
        <time>2014-04-14T12:47:29Z</time>
      </trkpt>
      <trkpt lat="47.95792" lon="3.40055">
        <ele>80</ele>
        <time>2014-04-14T12:47:31Z</time>
      </trkpt>
      <trkpt lat="47.95788" lon="3.40055">
        <ele>80</ele>
        <time>2014-04-14T12:47:33Z</time>
      </trkpt>
      <trkpt lat="47.95781" lon="3.40043">
        <ele>80</ele>
        <time>2014-04-14T12:47:45Z</time>
      </trkpt>
      <trkpt lat="47.9576" lon="3.40021">
        <ele>79</ele>
        <time>2014-04-14T12:48:10Z</time>
      </trkpt>
      <trkpt lat="47.95755" lon="3.40021">
        <ele>79</ele>
        <time>2014-04-14T12:48:15Z</time>
      </trkpt>
      <trkpt lat="47.9575" lon="3.4002">
        <ele>79</ele>
        <time>2014-04-14T12:48:21Z</time>
      </trkpt>
      <trkpt lat="47.95745" lon="3.40018">
        <ele>80</ele>
        <time>2014-04-14T12:48:26Z</time>
      </trkpt>
      <trkpt lat="47.95748" lon="3.40017">
        <ele>80</ele>
        <time>2014-04-14T12:48:41Z</time>
      </trkpt>
      <trkpt lat="47.95753" lon="3.40018">
        <ele>79</ele>
        <time>2014-04-14T12:48:45Z</time>
      </trkpt>
      <trkpt lat="47.95756" lon="3.40023">
        <ele>79</ele>
        <time>2014-04-14T12:48:48Z</time>
      </trkpt>
      <trkpt lat="47.95744" lon="3.40041">
        <ele>80</ele>
        <time>2014-04-14T12:48:57Z</time>
      </trkpt>
      <trkpt lat="47.9574" lon="3.40043">
        <ele>80</ele>
        <time>2014-04-14T12:49:01Z</time>
      </trkpt>
      <trkpt lat="47.95733" lon="3.40052">
        <ele>80</ele>
        <time>2014-04-14T12:49:10Z</time>
      </trkpt>
      <trkpt lat="47.9573" lon="3.40068">
        <ele>80</ele>
        <time>2014-04-14T12:49:18Z</time>
      </trkpt>
      <trkpt lat="47.95727" lon="3.40074">
        <ele>80</ele>
        <time>2014-04-14T12:49:22Z</time>
      </trkpt>
      <trkpt lat="47.95717" lon="3.40092">
        <ele>80</ele>
        <time>2014-04-14T12:49:32Z</time>
      </trkpt>
      <trkpt lat="47.95715" lon="3.40098">
        <ele>80</ele>
        <time>2014-04-14T12:49:37Z</time>
      </trkpt>
      <trkpt lat="47.95713" lon="3.40107">
        <ele>80</ele>
        <time>2014-04-14T12:49:43Z</time>
      </trkpt>
      <trkpt lat="47.95713" lon="3.40114">
        <ele>80</ele>
        <time>2014-04-14T12:49:46Z</time>
      </trkpt>
      <trkpt lat="47.95713" lon="3.40121">
        <ele>80</ele>
        <time>2014-04-14T12:49:51Z</time>
      </trkpt>
      <trkpt lat="47.95722" lon="3.40132">
        <ele>80</ele>
        <time>2014-04-14T12:49:57Z</time>
      </trkpt>
      <trkpt lat="47.9572" lon="3.40138">
        <ele>80</ele>
        <time>2014-04-14T12:50:05Z</time>
      </trkpt>
      <trkpt lat="47.95712" lon="3.40146">
        <ele>80</ele>
        <time>2014-04-14T12:50:15Z</time>
      </trkpt>
      <trkpt lat="47.95704" lon="3.40159">
        <ele>80</ele>
        <time>2014-04-14T12:50:35Z</time>
      </trkpt>
      <trkpt lat="47.95702" lon="3.40165">
        <ele>80</ele>
        <time>2014-04-14T12:50:46Z</time>
      </trkpt>
      <trkpt lat="47.95699" lon="3.4017">
        <ele>80</ele>
        <time>2014-04-14T12:50:52Z</time>
      </trkpt>
      <trkpt lat="47.95694" lon="3.40173">
        <ele>80</ele>
        <time>2014-04-14T12:50:56Z</time>
      </trkpt>
      <trkpt lat="47.9569" lon="3.40178">
        <ele>80</ele>
        <time>2014-04-14T12:51:01Z</time>
      </trkpt>
      <trkpt lat="47.9568" lon="3.40198">
        <ele>80</ele>
        <time>2014-04-14T12:51:15Z</time>
      </trkpt>
      <trkpt lat="47.95678" lon="3.40204">
        <ele>80</ele>
        <time>2014-04-14T12:51:19Z</time>
      </trkpt>
      <trkpt lat="47.95675" lon="3.40211">
        <ele>80</ele>
        <time>2014-04-14T12:51:25Z</time>
      </trkpt>
      <trkpt lat="47.95672" lon="3.40217">
        <ele>80</ele>
        <time>2014-04-14T12:51:29Z</time>
      </trkpt>
      <trkpt lat="47.95668" lon="3.40223">
        <ele>80</ele>
        <time>2014-04-14T12:51:33Z</time>
      </trkpt>
      <trkpt lat="47.95664" lon="3.40239">
        <ele>80</ele>
        <time>2014-04-14T12:51:39Z</time>
      </trkpt>
      <trkpt lat="47.95664" lon="3.40245">
        <ele>79</ele>
        <time>2014-04-14T12:52:07Z</time>
      </trkpt>
      <trkpt lat="47.95659" lon="3.40254">
        <ele>79</ele>
        <time>2014-04-14T12:52:21Z</time>
      </trkpt>
      <trkpt lat="47.95546" lon="3.40353">
        <ele>81</ele>
        <time>2014-04-14T13:01:54Z</time>
      </trkpt>
      <trkpt lat="47.95546" lon="3.40345">
        <ele>81</ele>
        <time>2014-04-14T13:01:58Z</time>
      </trkpt>
      <trkpt lat="47.95549" lon="3.40347">
        <ele>81</ele>
        <time>2014-04-14T13:02:15Z</time>
      </trkpt>
      <trkpt lat="47.95543" lon="3.40367">
        <ele>81</ele>
        <time>2014-04-14T13:02:31Z</time>
      </trkpt>
      <trkpt lat="47.95533" lon="3.40378">
        <ele>81</ele>
        <time>2014-04-14T13:02:39Z</time>
      </trkpt>
      <trkpt lat="47.95529" lon="3.4039">
        <ele>81</ele>
        <time>2014-04-14T13:02:45Z</time>
      </trkpt>
      <trkpt lat="47.95525" lon="3.40404">
        <ele>81</ele>
        <time>2014-04-14T13:02:53Z</time>
      </trkpt>
      <trkpt lat="47.95522" lon="3.40427">
        <ele>80</ele>
        <time>2014-04-14T13:03:09Z</time>
      </trkpt>
      <trkpt lat="47.95523" lon="3.40435">
        <ele>80</ele>
        <time>2014-04-14T13:03:13Z</time>
      </trkpt>
      <trkpt lat="47.95521" lon="3.40442">
        <ele>80</ele>
        <time>2014-04-14T13:03:17Z</time>
      </trkpt>
      <trkpt lat="47.9552" lon="3.40449">
        <ele>80</ele>
        <time>2014-04-14T13:03:21Z</time>
      </trkpt>
      <trkpt lat="47.95504" lon="3.40503">
        <ele>80</ele>
        <time>2014-04-14T13:03:54Z</time>
      </trkpt>
      <trkpt lat="47.955" lon="3.40507">
        <ele>80</ele>
        <time>2014-04-14T13:04:00Z</time>
      </trkpt>
      <trkpt lat="47.95498" lon="3.40514">
        <ele>81</ele>
        <time>2014-04-14T13:04:04Z</time>
      </trkpt>
      <trkpt lat="47.95498" lon="3.40522">
        <ele>81</ele>
        <time>2014-04-14T13:04:09Z</time>
      </trkpt>
      <trkpt lat="47.95492" lon="3.40565">
        <ele>81</ele>
        <time>2014-04-14T13:04:35Z</time>
      </trkpt>
      <trkpt lat="47.95484" lon="3.40592">
        <ele>80</ele>
        <time>2014-04-14T13:04:50Z</time>
      </trkpt>
      <trkpt lat="47.95483" lon="3.406">
        <ele>80</ele>
        <time>2014-04-14T13:04:56Z</time>
      </trkpt>
      <trkpt lat="47.95481" lon="3.40604">
        <ele>80</ele>
        <time>2014-04-14T13:05:11Z</time>
      </trkpt>
      <trkpt lat="47.9548" lon="3.40611">
        <ele>80</ele>
        <time>2014-04-14T13:05:15Z</time>
      </trkpt>
      <trkpt lat="47.95478" lon="3.40618">
        <ele>80</ele>
        <time>2014-04-14T13:05:19Z</time>
      </trkpt>
      <trkpt lat="47.95471" lon="3.40661">
        <ele>80</ele>
        <time>2014-04-14T13:05:42Z</time>
      </trkpt>
      <trkpt lat="47.95467" lon="3.40673">
        <ele>80</ele>
        <time>2014-04-14T13:05:50Z</time>
      </trkpt>
      <trkpt lat="47.95464" lon="3.40687">
        <ele>80</ele>
        <time>2014-04-14T13:05:59Z</time>
      </trkpt>
      <trkpt lat="47.95462" lon="3.40695">
        <ele>80</ele>
        <time>2014-04-14T13:06:04Z</time>
      </trkpt>
      <trkpt lat="47.95461" lon="3.40702">
        <ele>80</ele>
        <time>2014-04-14T13:06:08Z</time>
      </trkpt>
      <trkpt lat="47.9546" lon="3.4071">
        <ele>80</ele>
        <time>2014-04-14T13:06:14Z</time>
      </trkpt>
      <trkpt lat="47.95457" lon="3.4071">
        <ele>80</ele>
        <time>2014-04-14T13:07:01Z</time>
      </trkpt>
      <trkpt lat="47.95455" lon="3.40717">
        <ele>80</ele>
        <time>2014-04-14T13:07:34Z</time>
      </trkpt>
      <trkpt lat="47.95453" lon="3.40725">
        <ele>80</ele>
        <time>2014-04-14T13:07:38Z</time>
      </trkpt>
      <trkpt lat="47.95439" lon="3.40765">
        <ele>80</ele>
        <time>2014-04-14T13:08:08Z</time>
      </trkpt>
      <trkpt lat="47.95435" lon="3.4077">
        <ele>80</ele>
        <time>2014-04-14T13:08:13Z</time>
      </trkpt>
      <trkpt lat="47.95433" lon="3.40779">
        <ele>80</ele>
        <time>2014-04-14T13:08:17Z</time>
      </trkpt>
      <trkpt lat="47.9543" lon="3.40785">
        <ele>80</ele>
        <time>2014-04-14T13:08:21Z</time>
      </trkpt>
      <trkpt lat="47.95427" lon="3.40792">
        <ele>80</ele>
        <time>2014-04-14T13:08:26Z</time>
      </trkpt>
      <trkpt lat="47.95425" lon="3.40813">
        <ele>80</ele>
        <time>2014-04-14T13:08:41Z</time>
      </trkpt>
      <trkpt lat="47.95423" lon="3.4082">
        <ele>79</ele>
        <time>2014-04-14T13:08:44Z</time>
      </trkpt>
      <trkpt lat="47.95423" lon="3.40827">
        <ele>79</ele>
        <time>2014-04-14T13:08:48Z</time>
      </trkpt>
      <trkpt lat="47.95419" lon="3.40834">
        <ele>79</ele>
        <time>2014-04-14T13:08:54Z</time>
      </trkpt>
      <trkpt lat="47.95417" lon="3.40844">
        <ele>80</ele>
        <time>2014-04-14T13:08:57Z</time>
      </trkpt>
      <trkpt lat="47.95413" lon="3.40853">
        <ele>80</ele>
        <time>2014-04-14T13:09:00Z</time>
      </trkpt>
      <trkpt lat="47.95412" lon="3.4086">
        <ele>80</ele>
        <time>2014-04-14T13:09:03Z</time>
      </trkpt>
      <trkpt lat="47.95412" lon="3.40868">
        <ele>80</ele>
        <time>2014-04-14T13:09:07Z</time>
      </trkpt>
      <trkpt lat="47.95412" lon="3.40875">
        <ele>80</ele>
        <time>2014-04-14T13:09:11Z</time>
      </trkpt>
      <trkpt lat="47.95412" lon="3.4089">
        <ele>80</ele>
        <time>2014-04-14T13:09:20Z</time>
      </trkpt>
      <trkpt lat="47.9541" lon="3.40898">
        <ele>80</ele>
        <time>2014-04-14T13:09:24Z</time>
      </trkpt>
      <trkpt lat="47.95404" lon="3.40902">
        <ele>80</ele>
        <time>2014-04-14T13:09:27Z</time>
      </trkpt>
      <trkpt lat="47.95399" lon="3.40905">
        <ele>80</ele>
        <time>2014-04-14T13:09:29Z</time>
      </trkpt>
      <trkpt lat="47.95395" lon="3.40909">
        <ele>80</ele>
        <time>2014-04-14T13:09:33Z</time>
      </trkpt>
      <trkpt lat="47.95396" lon="3.40934">
        <ele>81</ele>
        <time>2014-04-14T13:09:49Z</time>
      </trkpt>
      <trkpt lat="47.95391" lon="3.40949">
        <ele>81</ele>
        <time>2014-04-14T13:09:56Z</time>
      </trkpt>
      <trkpt lat="47.95392" lon="3.40956">
        <ele>81</ele>
        <time>2014-04-14T13:10:00Z</time>
      </trkpt>
      <trkpt lat="47.95389" lon="3.40961">
        <ele>81</ele>
        <time>2014-04-14T13:10:04Z</time>
      </trkpt>
      <trkpt lat="47.95388" lon="3.40968">
        <ele>81</ele>
        <time>2014-04-14T13:10:09Z</time>
      </trkpt>
      <trkpt lat="47.95381" lon="3.40981">
        <ele>81</ele>
        <time>2014-04-14T13:10:15Z</time>
      </trkpt>
      <trkpt lat="47.95379" lon="3.40995">
        <ele>81</ele>
        <time>2014-04-14T13:10:25Z</time>
      </trkpt>
      <trkpt lat="47.95379" lon="3.41002">
        <ele>81</ele>
        <time>2014-04-14T13:10:30Z</time>
      </trkpt>
      <trkpt lat="47.95368" lon="3.41037">
        <ele>81</ele>
        <time>2014-04-14T13:10:52Z</time>
      </trkpt>
      <trkpt lat="47.95367" lon="3.41046">
        <ele>81</ele>
        <time>2014-04-14T13:10:57Z</time>
      </trkpt>
      <trkpt lat="47.95366" lon="3.41052">
        <ele>81</ele>
        <time>2014-04-14T13:11:01Z</time>
      </trkpt>
      <trkpt lat="47.95365" lon="3.4106">
        <ele>81</ele>
        <time>2014-04-14T13:11:06Z</time>
      </trkpt>
      <trkpt lat="47.95367" lon="3.41066">
        <ele>81</ele>
        <time>2014-04-14T13:11:09Z</time>
      </trkpt>
      <trkpt lat="47.95366" lon="3.41082">
        <ele>81</ele>
        <time>2014-04-14T13:11:19Z</time>
      </trkpt>
      <trkpt lat="47.95362" lon="3.41087">
        <ele>81</ele>
        <time>2014-04-14T13:11:23Z</time>
      </trkpt>
      <trkpt lat="47.95361" lon="3.41095">
        <ele>81</ele>
        <time>2014-04-14T13:11:29Z</time>
      </trkpt>
      <trkpt lat="47.95361" lon="3.41102">
        <ele>80</ele>
        <time>2014-04-14T13:11:32Z</time>
      </trkpt>
      <trkpt lat="47.95359" lon="3.41108">
        <ele>80</ele>
        <time>2014-04-14T13:11:35Z</time>
      </trkpt>
      <trkpt lat="47.95359" lon="3.41116">
        <ele>80</ele>
        <time>2014-04-14T13:11:41Z</time>
      </trkpt>
      <trkpt lat="47.95356" lon="3.41122">
        <ele>80</ele>
        <time>2014-04-14T13:11:44Z</time>
      </trkpt>
      <trkpt lat="47.95352" lon="3.41127">
        <ele>80</ele>
        <time>2014-04-14T13:11:47Z</time>
      </trkpt>
      <trkpt lat="47.95349" lon="3.41142">
        <ele>80</ele>
        <time>2014-04-14T13:11:55Z</time>
      </trkpt>
      <trkpt lat="47.95347" lon="3.41149">
        <ele>80</ele>
        <time>2014-04-14T13:12:00Z</time>
      </trkpt>
      <trkpt lat="47.95343" lon="3.41171">
        <ele>80</ele>
        <time>2014-04-14T13:12:14Z</time>
      </trkpt>
      <trkpt lat="47.9534" lon="3.41179">
        <ele>80</ele>
        <time>2014-04-14T13:12:18Z</time>
      </trkpt>
      <trkpt lat="47.95335" lon="3.41191">
        <ele>80</ele>
        <time>2014-04-14T13:12:27Z</time>
      </trkpt>
      <trkpt lat="47.95334" lon="3.41199">
        <ele>80</ele>
        <time>2014-04-14T13:12:33Z</time>
      </trkpt>
      <trkpt lat="47.95327" lon="3.41222">
        <ele>82</ele>
        <time>2014-04-14T13:12:46Z</time>
      </trkpt>
      <trkpt lat="47.95323" lon="3.41244">
        <ele>81</ele>
        <time>2014-04-14T13:12:57Z</time>
      </trkpt>
      <trkpt lat="47.95321" lon="3.41251">
        <ele>81</ele>
        <time>2014-04-14T13:13:01Z</time>
      </trkpt>
      <trkpt lat="47.95317" lon="3.41275">
        <ele>81</ele>
        <time>2014-04-14T13:13:17Z</time>
      </trkpt>
      <trkpt lat="47.95312" lon="3.41289">
        <ele>82</ele>
        <time>2014-04-14T13:13:26Z</time>
      </trkpt>
      <trkpt lat="47.95306" lon="3.41332">
        <ele>81</ele>
        <time>2014-04-14T13:13:51Z</time>
      </trkpt>
      <trkpt lat="47.95304" lon="3.41339">
        <ele>81</ele>
        <time>2014-04-14T13:13:55Z</time>
      </trkpt>
      <trkpt lat="47.95297" lon="3.41369">
        <ele>81</ele>
        <time>2014-04-14T13:14:13Z</time>
      </trkpt>
      <trkpt lat="47.95296" lon="3.41383">
        <ele>81</ele>
        <time>2014-04-14T13:14:19Z</time>
      </trkpt>
      <trkpt lat="47.95293" lon="3.41398">
        <ele>81</ele>
        <time>2014-04-14T13:14:28Z</time>
      </trkpt>
      <trkpt lat="47.95293" lon="3.41405">
        <ele>81</ele>
        <time>2014-04-14T13:14:32Z</time>
      </trkpt>
      <trkpt lat="47.95291" lon="3.41411">
        <ele>81</ele>
        <time>2014-04-14T13:14:37Z</time>
      </trkpt>
      <trkpt lat="47.95291" lon="3.41419">
        <ele>81</ele>
        <time>2014-04-14T13:14:42Z</time>
      </trkpt>
      <trkpt lat="47.95289" lon="3.41426">
        <ele>81</ele>
        <time>2014-04-14T13:14:46Z</time>
      </trkpt>
      <trkpt lat="47.95287" lon="3.41463">
        <ele>81</ele>
        <time>2014-04-14T13:15:09Z</time>
      </trkpt>
      <trkpt lat="47.95284" lon="3.41485">
        <ele>81</ele>
        <time>2014-04-14T13:15:22Z</time>
      </trkpt>
      <trkpt lat="47.95282" lon="3.41492">
        <ele>81</ele>
        <time>2014-04-14T13:15:27Z</time>
      </trkpt>
      <trkpt lat="47.95282" lon="3.415">
        <ele>81</ele>
        <time>2014-04-14T13:15:32Z</time>
      </trkpt>
      <trkpt lat="47.95277" lon="3.41513">
        <ele>81</ele>
        <time>2014-04-14T13:15:42Z</time>
      </trkpt>
      <trkpt lat="47.95276" lon="3.4152">
        <ele>81</ele>
        <time>2014-04-14T13:15:46Z</time>
      </trkpt>
      <trkpt lat="47.95275" lon="3.41528">
        <ele>81</ele>
        <time>2014-04-14T13:15:52Z</time>
      </trkpt>
      <trkpt lat="47.95272" lon="3.41534">
        <ele>81</ele>
        <time>2014-04-14T13:15:55Z</time>
      </trkpt>
      <trkpt lat="47.95271" lon="3.41541">
        <ele>81</ele>
        <time>2014-04-14T13:15:59Z</time>
      </trkpt>
      <trkpt lat="47.95271" lon="3.41548">
        <ele>81</ele>
        <time>2014-04-14T13:16:03Z</time>
      </trkpt>
      <trkpt lat="47.95269" lon="3.41554">
        <ele>81</ele>
        <time>2014-04-14T13:16:07Z</time>
      </trkpt>
      <trkpt lat="47.95269" lon="3.41563">
        <ele>81</ele>
        <time>2014-04-14T13:16:12Z</time>
      </trkpt>
      <trkpt lat="47.95269" lon="3.41571">
        <ele>81</ele>
        <time>2014-04-14T13:16:16Z</time>
      </trkpt>
      <trkpt lat="47.95268" lon="3.41579">
        <ele>81</ele>
        <time>2014-04-14T13:16:21Z</time>
      </trkpt>
      <trkpt lat="47.95266" lon="3.41586">
        <ele>80</ele>
        <time>2014-04-14T13:16:26Z</time>
      </trkpt>
      <trkpt lat="47.95267" lon="3.416">
        <ele>80</ele>
        <time>2014-04-14T13:16:36Z</time>
      </trkpt>
      <trkpt lat="47.95266" lon="3.41607">
        <ele>80</ele>
        <time>2014-04-14T13:16:40Z</time>
      </trkpt>
      <trkpt lat="47.95263" lon="3.41614">
        <ele>80</ele>
        <time>2014-04-14T13:16:45Z</time>
      </trkpt>
      <trkpt lat="47.95264" lon="3.41621">
        <ele>80</ele>
        <time>2014-04-14T13:16:48Z</time>
      </trkpt>
      <trkpt lat="47.95262" lon="3.41637">
        <ele>79</ele>
        <time>2014-04-14T13:16:59Z</time>
      </trkpt>
      <trkpt lat="47.95263" lon="3.41652">
        <ele>79</ele>
        <time>2014-04-14T13:17:07Z</time>
      </trkpt>
      <trkpt lat="47.95261" lon="3.41666">
        <ele>79</ele>
        <time>2014-04-14T13:17:16Z</time>
      </trkpt>
      <trkpt lat="47.95251" lon="3.41724">
        <ele>79</ele>
        <time>2014-04-14T13:17:51Z</time>
      </trkpt>
      <trkpt lat="47.95246" lon="3.41745">
        <ele>79</ele>
        <time>2014-04-14T13:18:07Z</time>
      </trkpt>
      <trkpt lat="47.95242" lon="3.41785">
        <ele>81</ele>
        <time>2014-04-14T13:18:27Z</time>
      </trkpt>
      <trkpt lat="47.95243" lon="3.41793">
        <ele>81</ele>
        <time>2014-04-14T13:18:30Z</time>
      </trkpt>
      <trkpt lat="47.95245" lon="3.41801">
        <ele>81</ele>
        <time>2014-04-14T13:18:33Z</time>
      </trkpt>
      <trkpt lat="47.95243" lon="3.41807">
        <ele>81</ele>
        <time>2014-04-14T13:18:38Z</time>
      </trkpt>
      <trkpt lat="47.9524" lon="3.41822">
        <ele>81</ele>
        <time>2014-04-14T13:18:45Z</time>
      </trkpt>
      <trkpt lat="47.9524" lon="3.41829">
        <ele>80</ele>
        <time>2014-04-14T13:18:49Z</time>
      </trkpt>
      <trkpt lat="47.95239" lon="3.41836">
        <ele>81</ele>
        <time>2014-04-14T13:18:54Z</time>
      </trkpt>
      <trkpt lat="47.95237" lon="3.41851">
        <ele>81</ele>
        <time>2014-04-14T13:19:07Z</time>
      </trkpt>
      <trkpt lat="47.95234" lon="3.41858">
        <ele>82</ele>
        <time>2014-04-14T13:19:13Z</time>
      </trkpt>
      <trkpt lat="47.95233" lon="3.41866">
        <ele>82</ele>
        <time>2014-04-14T13:19:17Z</time>
      </trkpt>
      <trkpt lat="47.95231" lon="3.41873">
        <ele>82</ele>
        <time>2014-04-14T13:19:21Z</time>
      </trkpt>
      <trkpt lat="47.95231" lon="3.41887">
        <ele>82</ele>
        <time>2014-04-14T13:19:31Z</time>
      </trkpt>
      <trkpt lat="47.95226" lon="3.41925">
        <ele>82</ele>
        <time>2014-04-14T13:19:53Z</time>
      </trkpt>
      <trkpt lat="47.95222" lon="3.41932">
        <ele>82</ele>
        <time>2014-04-14T13:19:57Z</time>
      </trkpt>
      <trkpt lat="47.9522" lon="3.41947">
        <ele>82</ele>
        <time>2014-04-14T13:20:06Z</time>
      </trkpt>
      <trkpt lat="47.95217" lon="3.41953">
        <ele>82</ele>
        <time>2014-04-14T13:20:10Z</time>
      </trkpt>
      <trkpt lat="47.95217" lon="3.4196">
        <ele>82</ele>
        <time>2014-04-14T13:20:15Z</time>
      </trkpt>
      <trkpt lat="47.95215" lon="3.41967">
        <ele>82</ele>
        <time>2014-04-14T13:20:20Z</time>
      </trkpt>
      <trkpt lat="47.95215" lon="3.41975">
        <ele>82</ele>
        <time>2014-04-14T13:20:23Z</time>
      </trkpt>
      <trkpt lat="47.95216" lon="3.41991">
        <ele>82</ele>
        <time>2014-04-14T13:20:31Z</time>
      </trkpt>
      <trkpt lat="47.95215" lon="3.41998">
        <ele>82</ele>
        <time>2014-04-14T13:20:35Z</time>
      </trkpt>
      <trkpt lat="47.95213" lon="3.42004">
        <ele>82</ele>
        <time>2014-04-14T13:20:39Z</time>
      </trkpt>
      <trkpt lat="47.9521" lon="3.42034">
        <ele>82</ele>
        <time>2014-04-14T13:20:57Z</time>
      </trkpt>
      <trkpt lat="47.95209" lon="3.42042">
        <ele>82</ele>
        <time>2014-04-14T13:21:03Z</time>
      </trkpt>
      <trkpt lat="47.95207" lon="3.42059">
        <ele>82</ele>
        <time>2014-04-14T13:21:12Z</time>
      </trkpt>
      <trkpt lat="47.95209" lon="3.42066">
        <ele>82</ele>
        <time>2014-04-14T13:21:16Z</time>
      </trkpt>
      <trkpt lat="47.95209" lon="3.42073">
        <ele>82</ele>
        <time>2014-04-14T13:21:22Z</time>
      </trkpt>
      <trkpt lat="47.95211" lon="3.4208">
        <ele>82</ele>
        <time>2014-04-14T13:21:27Z</time>
      </trkpt>
      <trkpt lat="47.95209" lon="3.42088">
        <ele>82</ele>
        <time>2014-04-14T13:21:31Z</time>
      </trkpt>
      <trkpt lat="47.95206" lon="3.42104">
        <ele>82</ele>
        <time>2014-04-14T13:21:41Z</time>
      </trkpt>
      <trkpt lat="47.95202" lon="3.42101">
        <ele>82</ele>
        <time>2014-04-14T13:21:50Z</time>
      </trkpt>
      <trkpt lat="47.95201" lon="3.42109">
        <ele>82</ele>
        <time>2014-04-14T13:22:00Z</time>
      </trkpt>
      <trkpt lat="47.95202" lon="3.42117">
        <ele>82</ele>
        <time>2014-04-14T13:22:05Z</time>
      </trkpt>
      <trkpt lat="47.952" lon="3.42146">
        <ele>82</ele>
        <time>2014-04-14T13:22:20Z</time>
      </trkpt>
      <trkpt lat="47.952" lon="3.42153">
        <ele>82</ele>
        <time>2014-04-14T13:22:23Z</time>
      </trkpt>
      <trkpt lat="47.95199" lon="3.42167">
        <ele>82</ele>
        <time>2014-04-14T13:22:40Z</time>
      </trkpt>
      <trkpt lat="47.952" lon="3.42181">
        <ele>83</ele>
        <time>2014-04-14T13:22:48Z</time>
      </trkpt>
      <trkpt lat="47.95199" lon="3.42189">
        <ele>83</ele>
        <time>2014-04-14T13:22:54Z</time>
      </trkpt>
      <trkpt lat="47.95199" lon="3.42196">
        <ele>83</ele>
        <time>2014-04-14T13:22:58Z</time>
      </trkpt>
      <trkpt lat="47.95195" lon="3.42218">
        <ele>83</ele>
        <time>2014-04-14T13:23:14Z</time>
      </trkpt>
      <trkpt lat="47.95195" lon="3.42228">
        <ele>83</ele>
        <time>2014-04-14T13:23:18Z</time>
      </trkpt>
      <trkpt lat="47.95194" lon="3.42235">
        <ele>83</ele>
        <time>2014-04-14T13:23:24Z</time>
      </trkpt>
      <trkpt lat="47.95194" lon="3.42242">
        <ele>83</ele>
        <time>2014-04-14T13:23:28Z</time>
      </trkpt>
      <trkpt lat="47.95188" lon="3.42331">
        <ele>85</ele>
        <time>2014-04-14T13:24:27Z</time>
      </trkpt>
      <trkpt lat="47.95187" lon="3.42338">
        <ele>86</ele>
        <time>2014-04-14T13:24:32Z</time>
      </trkpt>
      <trkpt lat="47.95187" lon="3.42352">
        <ele>86</ele>
        <time>2014-04-14T13:24:40Z</time>
      </trkpt>
      <trkpt lat="47.95186" lon="3.42359">
        <ele>86</ele>
        <time>2014-04-14T13:24:45Z</time>
      </trkpt>
      <trkpt lat="47.95188" lon="3.42366">
        <ele>86</ele>
        <time>2014-04-14T13:24:48Z</time>
      </trkpt>
      <trkpt lat="47.95189" lon="3.42373">
        <ele>86</ele>
        <time>2014-04-14T13:24:52Z</time>
      </trkpt>
      <trkpt lat="47.9519" lon="3.4238">
        <ele>86</ele>
        <time>2014-04-14T13:24:56Z</time>
      </trkpt>
      <trkpt lat="47.95189" lon="3.42388">
        <ele>86</ele>
        <time>2014-04-14T13:25:01Z</time>
      </trkpt>
      <trkpt lat="47.95187" lon="3.42395">
        <ele>86</ele>
        <time>2014-04-14T13:25:06Z</time>
      </trkpt>
      <trkpt lat="47.95186" lon="3.42448">
        <ele>87</ele>
        <time>2014-04-14T13:25:39Z</time>
      </trkpt>
      <trkpt lat="47.95185" lon="3.42456">
        <ele>87</ele>
        <time>2014-04-14T13:25:45Z</time>
      </trkpt>
      <trkpt lat="47.95185" lon="3.42462">
        <ele>87</ele>
        <time>2014-04-14T13:25:54Z</time>
      </trkpt>
      <trkpt lat="47.95182" lon="3.42494">
        <ele>88</ele>
        <time>2014-04-14T13:26:21Z</time>
      </trkpt>
      <trkpt lat="47.95181" lon="3.42502">
        <ele>88</ele>
        <time>2014-04-14T13:26:27Z</time>
      </trkpt>
      <trkpt lat="47.95183" lon="3.42509">
        <ele>88</ele>
        <time>2014-04-14T13:26:30Z</time>
      </trkpt>
      <trkpt lat="47.95183" lon="3.42517">
        <ele>88</ele>
        <time>2014-04-14T13:26:36Z</time>
      </trkpt>
      <trkpt lat="47.95181" lon="3.42524">
        <ele>88</ele>
        <time>2014-04-14T13:26:43Z</time>
      </trkpt>
      <trkpt lat="47.95179" lon="3.42529">
        <ele>88</ele>
        <time>2014-04-14T13:26:46Z</time>
      </trkpt>
      <trkpt lat="47.95178" lon="3.42537">
        <ele>88</ele>
        <time>2014-04-14T13:26:51Z</time>
      </trkpt>
      <trkpt lat="47.95178" lon="3.42545">
        <ele>88</ele>
        <time>2014-04-14T13:26:55Z</time>
      </trkpt>
      <trkpt lat="47.95177" lon="3.42551">
        <ele>88</ele>
        <time>2014-04-14T13:27:00Z</time>
      </trkpt>
      <trkpt lat="47.95176" lon="3.42574">
        <ele>89</ele>
        <time>2014-04-14T13:27:13Z</time>
      </trkpt>
      <trkpt lat="47.95174" lon="3.42589">
        <ele>90</ele>
        <time>2014-04-14T13:27:27Z</time>
      </trkpt>
      <trkpt lat="47.95175" lon="3.42597">
        <ele>90</ele>
        <time>2014-04-14T13:27:32Z</time>
      </trkpt>
      <trkpt lat="47.95175" lon="3.42604">
        <ele>89</ele>
        <time>2014-04-14T13:27:36Z</time>
      </trkpt>
      <trkpt lat="47.95173" lon="3.4262">
        <ele>89</ele>
        <time>2014-04-14T13:27:47Z</time>
      </trkpt>
      <trkpt lat="47.95169" lon="3.42633">
        <ele>90</ele>
        <time>2014-04-14T13:27:56Z</time>
      </trkpt>
      <trkpt lat="47.95169" lon="3.42648">
        <ele>90</ele>
        <time>2014-04-14T13:28:05Z</time>
      </trkpt>
      <trkpt lat="47.95166" lon="3.42676">
        <ele>92</ele>
        <time>2014-04-14T13:28:23Z</time>
      </trkpt>
      <trkpt lat="47.95168" lon="3.42692">
        <ele>91</ele>
        <time>2014-04-14T13:28:33Z</time>
      </trkpt>
      <trkpt lat="47.95169" lon="3.42699">
        <ele>91</ele>
        <time>2014-04-14T13:28:37Z</time>
      </trkpt>
      <trkpt lat="47.95166" lon="3.42714">
        <ele>93</ele>
        <time>2014-04-14T13:28:47Z</time>
      </trkpt>
      <trkpt lat="47.95167" lon="3.42721">
        <ele>93</ele>
        <time>2014-04-14T13:28:50Z</time>
      </trkpt>
      <trkpt lat="47.95166" lon="3.42735">
        <ele>93</ele>
        <time>2014-04-14T13:28:58Z</time>
      </trkpt>
      <trkpt lat="47.95158" lon="3.42772">
        <ele>94</ele>
        <time>2014-04-14T13:29:22Z</time>
      </trkpt>
      <trkpt lat="47.95154" lon="3.42778">
        <ele>94</ele>
        <time>2014-04-14T13:29:26Z</time>
      </trkpt>
      <trkpt lat="47.95151" lon="3.42791">
        <ele>94</ele>
        <time>2014-04-14T13:29:35Z</time>
      </trkpt>
      <trkpt lat="47.9515" lon="3.42798">
        <ele>94</ele>
        <time>2014-04-14T13:29:39Z</time>
      </trkpt>
      <trkpt lat="47.95148" lon="3.42806">
        <ele>94</ele>
        <time>2014-04-14T13:29:44Z</time>
      </trkpt>
      <trkpt lat="47.95147" lon="3.42814">
        <ele>94</ele>
        <time>2014-04-14T13:29:49Z</time>
      </trkpt>
      <trkpt lat="47.95146" lon="3.42821">
        <ele>94</ele>
        <time>2014-04-14T13:29:53Z</time>
      </trkpt>
      <trkpt lat="47.95147" lon="3.42843">
        <ele>94</ele>
        <time>2014-04-14T13:30:05Z</time>
      </trkpt>
      <trkpt lat="47.95146" lon="3.42851">
        <ele>94</ele>
        <time>2014-04-14T13:30:09Z</time>
      </trkpt>
      <trkpt lat="47.95144" lon="3.42857">
        <ele>94</ele>
        <time>2014-04-14T13:30:15Z</time>
      </trkpt>
      <trkpt lat="47.95141" lon="3.42862">
        <ele>94</ele>
        <time>2014-04-14T13:30:19Z</time>
      </trkpt>
      <trkpt lat="47.9514" lon="3.42871">
        <ele>94</ele>
        <time>2014-04-14T13:30:25Z</time>
      </trkpt>
      <trkpt lat="47.95141" lon="3.42878">
        <ele>94</ele>
        <time>2014-04-14T13:30:28Z</time>
      </trkpt>
      <trkpt lat="47.95141" lon="3.42893">
        <ele>94</ele>
        <time>2014-04-14T13:30:37Z</time>
      </trkpt>
      <trkpt lat="47.95137" lon="3.42912">
        <ele>94</ele>
        <time>2014-04-14T13:30:49Z</time>
      </trkpt>
      <trkpt lat="47.95137" lon="3.42919">
        <ele>95</ele>
        <time>2014-04-14T13:30:52Z</time>
      </trkpt>
      <trkpt lat="47.95137" lon="3.42924">
        <ele>95</ele>
        <time>2014-04-14T13:31:09Z</time>
      </trkpt>
      <trkpt lat="47.95134" lon="3.42939">
        <ele>95</ele>
        <time>2014-04-14T13:31:18Z</time>
      </trkpt>
      <trkpt lat="47.95134" lon="3.42959">
        <ele>95</ele>
        <time>2014-04-14T13:31:31Z</time>
      </trkpt>
      <trkpt lat="47.95132" lon="3.42966">
        <ele>95</ele>
        <time>2014-04-14T13:31:35Z</time>
      </trkpt>
      <trkpt lat="47.95129" lon="3.42972">
        <ele>95</ele>
        <time>2014-04-14T13:31:39Z</time>
      </trkpt>
      <trkpt lat="47.95129" lon="3.42987">
        <ele>95</ele>
        <time>2014-04-14T13:31:49Z</time>
      </trkpt>
      <trkpt lat="47.95122" lon="3.43038">
        <ele>96</ele>
        <time>2014-04-14T13:32:21Z</time>
      </trkpt>
      <trkpt lat="47.95122" lon="3.43046">
        <ele>96</ele>
        <time>2014-04-14T13:32:26Z</time>
      </trkpt>
      <trkpt lat="47.95119" lon="3.43053">
        <ele>96</ele>
        <time>2014-04-14T13:32:31Z</time>
      </trkpt>
      <trkpt lat="47.95113" lon="3.43097">
        <ele>96</ele>
        <time>2014-04-14T13:32:59Z</time>
      </trkpt>
      <trkpt lat="47.95109" lon="3.43103">
        <ele>96</ele>
        <time>2014-04-14T13:33:03Z</time>
      </trkpt>
      <trkpt lat="47.95109" lon="3.4311">
        <ele>96</ele>
        <time>2014-04-14T13:33:07Z</time>
      </trkpt>
      <trkpt lat="47.95109" lon="3.43118">
        <ele>96</ele>
        <time>2014-04-14T13:33:13Z</time>
      </trkpt>
      <trkpt lat="47.95109" lon="3.43125">
        <ele>96</ele>
        <time>2014-04-14T13:33:17Z</time>
      </trkpt>
      <trkpt lat="47.9511" lon="3.43133">
        <ele>96</ele>
        <time>2014-04-14T13:33:20Z</time>
      </trkpt>
      <trkpt lat="47.95109" lon="3.43141">
        <ele>96</ele>
        <time>2014-04-14T13:33:23Z</time>
      </trkpt>
      <trkpt lat="47.95104" lon="3.43155">
        <ele>96</ele>
        <time>2014-04-14T13:33:41Z</time>
      </trkpt>
      <trkpt lat="47.95105" lon="3.43163">
        <ele>96</ele>
        <time>2014-04-14T13:33:47Z</time>
      </trkpt>
      <trkpt lat="47.95104" lon="3.43186">
        <ele>96</ele>
        <time>2014-04-14T13:34:01Z</time>
      </trkpt>
      <trkpt lat="47.951" lon="3.43189">
        <ele>96</ele>
        <time>2014-04-14T13:34:05Z</time>
      </trkpt>
      <trkpt lat="47.951" lon="3.43206">
        <ele>96</ele>
        <time>2014-04-14T13:34:13Z</time>
      </trkpt>
      <trkpt lat="47.95097" lon="3.43213">
        <ele>96</ele>
        <time>2014-04-14T13:34:17Z</time>
      </trkpt>
      <trkpt lat="47.95095" lon="3.43216">
        <ele>96</ele>
        <time>2014-04-14T13:34:23Z</time>
      </trkpt>
      <trkpt lat="47.95096" lon="3.43223">
        <ele>96</ele>
        <time>2014-04-14T13:34:43Z</time>
      </trkpt>
      <trkpt lat="47.95095" lon="3.4323">
        <ele>96</ele>
        <time>2014-04-14T13:34:47Z</time>
      </trkpt>
      <trkpt lat="47.95093" lon="3.43276">
        <ele>96</ele>
        <time>2014-04-14T13:35:14Z</time>
      </trkpt>
      <trkpt lat="47.95094" lon="3.43284">
        <ele>96</ele>
        <time>2014-04-14T13:35:18Z</time>
      </trkpt>
      <trkpt lat="47.95095" lon="3.43293">
        <ele>96</ele>
        <time>2014-04-14T13:35:22Z</time>
      </trkpt>
      <trkpt lat="47.95094" lon="3.43301">
        <ele>96</ele>
        <time>2014-04-14T13:35:26Z</time>
      </trkpt>
      <trkpt lat="47.9509" lon="3.43307">
        <ele>96</ele>
        <time>2014-04-14T13:35:30Z</time>
      </trkpt>
      <trkpt lat="47.95091" lon="3.43314">
        <ele>96</ele>
        <time>2014-04-14T13:35:36Z</time>
      </trkpt>
      <trkpt lat="47.95089" lon="3.43346">
        <ele>96</ele>
        <time>2014-04-14T13:35:51Z</time>
      </trkpt>
      <trkpt lat="47.95085" lon="3.43351">
        <ele>96</ele>
        <time>2014-04-14T13:35:54Z</time>
      </trkpt>
      <trkpt lat="47.95083" lon="3.43357">
        <ele>98</ele>
        <time>2014-04-14T13:35:59Z</time>
      </trkpt>
      <trkpt lat="47.95083" lon="3.43365">
        <ele>98</ele>
        <time>2014-04-14T13:36:05Z</time>
      </trkpt>
      <trkpt lat="47.9508" lon="3.43379">
        <ele>98</ele>
        <time>2014-04-14T13:36:14Z</time>
      </trkpt>
      <trkpt lat="47.95078" lon="3.43386">
        <ele>98</ele>
        <time>2014-04-14T13:36:19Z</time>
      </trkpt>
      <trkpt lat="47.95076" lon="3.43408">
        <ele>97</ele>
        <time>2014-04-14T13:36:33Z</time>
      </trkpt>
      <trkpt lat="47.95079" lon="3.43418">
        <ele>97</ele>
        <time>2014-04-14T13:36:40Z</time>
      </trkpt>
      <trkpt lat="47.9508" lon="3.43425">
        <ele>97</ele>
        <time>2014-04-14T13:36:43Z</time>
      </trkpt>
      <trkpt lat="47.95079" lon="3.43433">
        <ele>97</ele>
        <time>2014-04-14T13:36:46Z</time>
      </trkpt>
      <trkpt lat="47.95077" lon="3.43439">
        <ele>97</ele>
        <time>2014-04-14T13:36:53Z</time>
      </trkpt>
      <trkpt lat="47.95077" lon="3.43447">
        <ele>97</ele>
        <time>2014-04-14T13:36:59Z</time>
      </trkpt>
      <trkpt lat="47.95065" lon="3.43497">
        <ele>96</ele>
        <time>2014-04-14T13:37:29Z</time>
      </trkpt>
      <trkpt lat="47.95056" lon="3.43559">
        <ele>97</ele>
        <time>2014-04-14T13:38:07Z</time>
      </trkpt>
      <trkpt lat="47.95054" lon="3.43567">
        <ele>97</ele>
        <time>2014-04-14T13:38:12Z</time>
      </trkpt>
      <trkpt lat="47.95053" lon="3.43574">
        <ele>97</ele>
        <time>2014-04-14T13:38:16Z</time>
      </trkpt>
      <trkpt lat="47.95053" lon="3.43589">
        <ele>98</ele>
        <time>2014-04-14T13:38:25Z</time>
      </trkpt>
      <trkpt lat="47.95053" lon="3.43597">
        <ele>98</ele>
        <time>2014-04-14T13:38:30Z</time>
      </trkpt>
      <trkpt lat="47.95051" lon="3.43604">
        <ele>98</ele>
        <time>2014-04-14T13:38:34Z</time>
      </trkpt>
      <trkpt lat="47.95048" lon="3.43611">
        <ele>98</ele>
        <time>2014-04-14T13:38:39Z</time>
      </trkpt>
      <trkpt lat="47.95047" lon="3.43618">
        <ele>98</ele>
        <time>2014-04-14T13:38:43Z</time>
      </trkpt>
      <trkpt lat="47.95047" lon="3.43626">
        <ele>98</ele>
        <time>2014-04-14T13:38:47Z</time>
      </trkpt>
      <trkpt lat="47.95046" lon="3.43633">
        <ele>98</ele>
        <time>2014-04-14T13:38:51Z</time>
      </trkpt>
      <trkpt lat="47.95043" lon="3.43639">
        <ele>98</ele>
        <time>2014-04-14T13:38:56Z</time>
      </trkpt>
      <trkpt lat="47.95041" lon="3.43645">
        <ele>98</ele>
        <time>2014-04-14T13:39:00Z</time>
      </trkpt>
      <trkpt lat="47.95039" lon="3.4366">
        <ele>98</ele>
        <time>2014-04-14T13:39:08Z</time>
      </trkpt>
      <trkpt lat="47.95037" lon="3.43666">
        <ele>98</ele>
        <time>2014-04-14T13:39:12Z</time>
      </trkpt>
      <trkpt lat="47.95033" lon="3.43672">
        <ele>99</ele>
        <time>2014-04-14T13:39:17Z</time>
      </trkpt>
      <trkpt lat="47.95031" lon="3.43679">
        <ele>99</ele>
        <time>2014-04-14T13:39:21Z</time>
      </trkpt>
      <trkpt lat="47.9503" lon="3.43687">
        <ele>99</ele>
        <time>2014-04-14T13:39:25Z</time>
      </trkpt>
      <trkpt lat="47.95029" lon="3.43693">
        <ele>99</ele>
        <time>2014-04-14T13:39:29Z</time>
      </trkpt>
      <trkpt lat="47.95028" lon="3.43701">
        <ele>99</ele>
        <time>2014-04-14T13:39:35Z</time>
      </trkpt>
      <trkpt lat="47.95032" lon="3.43699">
        <ele>99</ele>
        <time>2014-04-14T13:39:40Z</time>
      </trkpt>
      <trkpt lat="47.9503" lon="3.43738">
        <ele>99</ele>
        <time>2014-04-14T13:40:08Z</time>
      </trkpt>
      <trkpt lat="47.95031" lon="3.43745">
        <ele>99</ele>
        <time>2014-04-14T13:40:11Z</time>
      </trkpt>
      <trkpt lat="47.95027" lon="3.43751">
        <ele>99</ele>
        <time>2014-04-14T13:40:15Z</time>
      </trkpt>
      <trkpt lat="47.95026" lon="3.43759">
        <ele>99</ele>
        <time>2014-04-14T13:40:20Z</time>
      </trkpt>
      <trkpt lat="47.95026" lon="3.43767">
        <ele>99</ele>
        <time>2014-04-14T13:40:25Z</time>
      </trkpt>
      <trkpt lat="47.95028" lon="3.43774">
        <ele>99</ele>
        <time>2014-04-14T13:40:29Z</time>
      </trkpt>
      <trkpt lat="47.95028" lon="3.43789">
        <ele>99</ele>
        <time>2014-04-14T13:40:39Z</time>
      </trkpt>
      <trkpt lat="47.95028" lon="3.43797">
        <ele>99</ele>
        <time>2014-04-14T13:40:44Z</time>
      </trkpt>
      <trkpt lat="47.95027" lon="3.43812">
        <ele>99</ele>
        <time>2014-04-14T13:40:52Z</time>
      </trkpt>
      <trkpt lat="47.95031" lon="3.43835">
        <ele>98</ele>
        <time>2014-04-14T13:41:06Z</time>
      </trkpt>
      <trkpt lat="47.9503" lon="3.4385">
        <ele>98</ele>
        <time>2014-04-14T13:41:17Z</time>
      </trkpt>
      <trkpt lat="47.95028" lon="3.43856">
        <ele>98</ele>
        <time>2014-04-14T13:41:23Z</time>
      </trkpt>
      <trkpt lat="47.95027" lon="3.43864">
        <ele>98</ele>
        <time>2014-04-14T13:41:28Z</time>
      </trkpt>
      <trkpt lat="47.95022" lon="3.43892">
        <ele>99</ele>
        <time>2014-04-14T13:41:44Z</time>
      </trkpt>
      <trkpt lat="47.95018" lon="3.43898">
        <ele>99</ele>
        <time>2014-04-14T13:41:49Z</time>
      </trkpt>
      <trkpt lat="47.95014" lon="3.43903">
        <ele>99</ele>
        <time>2014-04-14T13:41:53Z</time>
      </trkpt>
      <trkpt lat="47.95012" lon="3.4391">
        <ele>99</ele>
        <time>2014-04-14T13:41:58Z</time>
      </trkpt>
      <trkpt lat="47.95013" lon="3.43918">
        <ele>99</ele>
        <time>2014-04-14T13:42:03Z</time>
      </trkpt>
      <trkpt lat="47.95011" lon="3.43922">
        <ele>99</ele>
        <time>2014-04-14T13:42:11Z</time>
      </trkpt>
      <trkpt lat="47.95008" lon="3.43927">
        <ele>99</ele>
        <time>2014-04-14T13:42:18Z</time>
      </trkpt>
      <trkpt lat="47.94998" lon="3.43969">
        <ele>101</ele>
        <time>2014-04-14T13:42:45Z</time>
      </trkpt>
      <trkpt lat="47.94997" lon="3.43977">
        <ele>101</ele>
        <time>2014-04-14T13:42:50Z</time>
      </trkpt>
      <trkpt lat="47.94997" lon="3.43991">
        <ele>100</ele>
        <time>2014-04-14T13:42:59Z</time>
      </trkpt>
      <trkpt lat="47.94995" lon="3.43998">
        <ele>100</ele>
        <time>2014-04-14T13:43:03Z</time>
      </trkpt>
      <trkpt lat="47.94996" lon="3.44006">
        <ele>100</ele>
        <time>2014-04-14T13:43:07Z</time>
      </trkpt>
      <trkpt lat="47.94995" lon="3.44013">
        <ele>100</ele>
        <time>2014-04-14T13:43:11Z</time>
      </trkpt>
      <trkpt lat="47.94992" lon="3.44019">
        <ele>100</ele>
        <time>2014-04-14T13:43:17Z</time>
      </trkpt>
      <trkpt lat="47.94987" lon="3.44034">
        <ele>100</ele>
        <time>2014-04-14T13:43:27Z</time>
      </trkpt>
      <trkpt lat="47.94986" lon="3.44041">
        <ele>100</ele>
        <time>2014-04-14T13:43:31Z</time>
      </trkpt>
      <trkpt lat="47.94985" lon="3.44048">
        <ele>100</ele>
        <time>2014-04-14T13:43:36Z</time>
      </trkpt>
      <trkpt lat="47.94982" lon="3.44054">
        <ele>100</ele>
        <time>2014-04-14T13:43:42Z</time>
      </trkpt>
      <trkpt lat="47.94981" lon="3.44061">
        <ele>100</ele>
        <time>2014-04-14T13:43:47Z</time>
      </trkpt>
      <trkpt lat="47.94977" lon="3.44072">
        <ele>100</ele>
        <time>2014-04-14T13:44:00Z</time>
      </trkpt>
      <trkpt lat="47.94976" lon="3.44079">
        <ele>99</ele>
        <time>2014-04-14T13:44:08Z</time>
      </trkpt>
      <trkpt lat="47.94971" lon="3.44092">
        <ele>99</ele>
        <time>2014-04-14T13:44:17Z</time>
      </trkpt>
      <trkpt lat="47.94967" lon="3.44106">
        <ele>99</ele>
        <time>2014-04-14T13:44:26Z</time>
      </trkpt>
      <trkpt lat="47.94964" lon="3.44112">
        <ele>99</ele>
        <time>2014-04-14T13:44:31Z</time>
      </trkpt>
      <trkpt lat="47.9496" lon="3.44117">
        <ele>99</ele>
        <time>2014-04-14T13:44:35Z</time>
      </trkpt>
      <trkpt lat="47.94958" lon="3.44124">
        <ele>99</ele>
        <time>2014-04-14T13:44:40Z</time>
      </trkpt>
      <trkpt lat="47.94959" lon="3.44131">
        <ele>99</ele>
        <time>2014-04-14T13:44:44Z</time>
      </trkpt>
      <trkpt lat="47.94958" lon="3.44139">
        <ele>99</ele>
        <time>2014-04-14T13:44:48Z</time>
      </trkpt>
      <trkpt lat="47.94956" lon="3.44145">
        <ele>99</ele>
        <time>2014-04-14T13:44:53Z</time>
      </trkpt>
      <trkpt lat="47.94953" lon="3.44152">
        <ele>99</ele>
        <time>2014-04-14T13:44:58Z</time>
      </trkpt>
      <trkpt lat="47.94949" lon="3.44174">
        <ele>99</ele>
        <time>2014-04-14T13:45:12Z</time>
      </trkpt>
      <trkpt lat="47.94937" lon="3.44193">
        <ele>99</ele>
        <time>2014-04-14T13:45:27Z</time>
      </trkpt>
      <trkpt lat="47.94933" lon="3.44198">
        <ele>99</ele>
        <time>2014-04-14T13:45:31Z</time>
      </trkpt>
      <trkpt lat="47.94929" lon="3.44211">
        <ele>99</ele>
        <time>2014-04-14T13:45:39Z</time>
      </trkpt>
      <trkpt lat="47.94925" lon="3.44217">
        <ele>99</ele>
        <time>2014-04-14T13:45:45Z</time>
      </trkpt>
      <trkpt lat="47.94917" lon="3.44234">
        <ele>99</ele>
        <time>2014-04-14T13:45:59Z</time>
      </trkpt>
      <trkpt lat="47.94916" lon="3.44241">
        <ele>101</ele>
        <time>2014-04-14T13:46:08Z</time>
      </trkpt>
      <trkpt lat="47.94914" lon="3.44247">
        <ele>100</ele>
        <time>2014-04-14T13:46:15Z</time>
      </trkpt>
      <trkpt lat="47.9491" lon="3.44252">
        <ele>100</ele>
        <time>2014-04-14T13:46:20Z</time>
      </trkpt>
      <trkpt lat="47.94907" lon="3.44258">
        <ele>101</ele>
        <time>2014-04-14T13:46:24Z</time>
      </trkpt>
      <trkpt lat="47.94903" lon="3.44262">
        <ele>101</ele>
        <time>2014-04-14T13:46:29Z</time>
      </trkpt>
      <trkpt lat="47.94899" lon="3.4427">
        <ele>101</ele>
        <time>2014-04-14T13:46:34Z</time>
      </trkpt>
      <trkpt lat="47.94894" lon="3.44269">
        <ele>101</ele>
        <time>2014-04-14T13:46:40Z</time>
      </trkpt>
      <trkpt lat="47.94889" lon="3.4427">
        <ele>101</ele>
        <time>2014-04-14T13:46:44Z</time>
      </trkpt>
      <trkpt lat="47.94885" lon="3.44272">
        <ele>101</ele>
        <time>2014-04-14T13:46:47Z</time>
      </trkpt>
      <trkpt lat="47.9488" lon="3.44273">
        <ele>102</ele>
        <time>2014-04-14T13:46:51Z</time>
      </trkpt>
      <trkpt lat="47.94875" lon="3.44277">
        <ele>102</ele>
        <time>2014-04-14T13:46:56Z</time>
      </trkpt>
      <trkpt lat="47.94865" lon="3.44283">
        <ele>102</ele>
        <time>2014-04-14T13:47:14Z</time>
      </trkpt>
      <trkpt lat="47.9486" lon="3.44288">
        <ele>102</ele>
        <time>2014-04-14T13:47:18Z</time>
      </trkpt>
      <trkpt lat="47.94858" lon="3.44295">
        <ele>102</ele>
        <time>2014-04-14T13:47:21Z</time>
      </trkpt>
      <trkpt lat="47.94854" lon="3.44299">
        <ele>102</ele>
        <time>2014-04-14T13:47:24Z</time>
      </trkpt>
      <trkpt lat="47.94847" lon="3.44303">
        <ele>102</ele>
        <time>2014-04-14T13:47:34Z</time>
      </trkpt>
      <trkpt lat="47.94845" lon="3.44306">
        <ele>102</ele>
        <time>2014-04-14T13:47:45Z</time>
      </trkpt>
      <trkpt lat="47.9484" lon="3.44309">
        <ele>102</ele>
        <time>2014-04-14T13:47:49Z</time>
      </trkpt>
      <trkpt lat="47.94835" lon="3.44311">
        <ele>101</ele>
        <time>2014-04-14T13:47:53Z</time>
      </trkpt>
      <trkpt lat="47.94831" lon="3.44312">
        <ele>102</ele>
        <time>2014-04-14T13:47:58Z</time>
      </trkpt>
      <trkpt lat="47.94826" lon="3.44317">
        <ele>102</ele>
        <time>2014-04-14T13:48:04Z</time>
      </trkpt>
      <trkpt lat="47.94821" lon="3.44318">
        <ele>102</ele>
        <time>2014-04-14T13:48:07Z</time>
      </trkpt>
      <trkpt lat="47.94816" lon="3.44319">
        <ele>102</ele>
        <time>2014-04-14T13:48:11Z</time>
      </trkpt>
      <trkpt lat="47.94811" lon="3.44319">
        <ele>102</ele>
        <time>2014-04-14T13:48:16Z</time>
      </trkpt>
      <trkpt lat="47.94801" lon="3.44316">
        <ele>102</ele>
        <time>2014-04-14T13:48:25Z</time>
      </trkpt>
      <trkpt lat="47.94796" lon="3.44314">
        <ele>102</ele>
        <time>2014-04-14T13:48:30Z</time>
      </trkpt>
      <trkpt lat="47.94794" lon="3.44321">
        <ele>101</ele>
        <time>2014-04-14T13:48:37Z</time>
      </trkpt>
      <trkpt lat="47.94792" lon="3.44327">
        <ele>101</ele>
        <time>2014-04-14T13:48:41Z</time>
      </trkpt>
      <trkpt lat="47.94794" lon="3.44344">
        <ele>98</ele>
        <time>2014-04-14T13:48:50Z</time>
      </trkpt>
      <trkpt lat="47.94793" lon="3.44351">
        <ele>97</ele>
        <time>2014-04-14T13:48:55Z</time>
      </trkpt>
      <trkpt lat="47.9479" lon="3.44358">
        <ele>97</ele>
        <time>2014-04-14T13:49:00Z</time>
      </trkpt>
      <trkpt lat="47.94789" lon="3.44368">
        <ele>97</ele>
        <time>2014-04-14T13:49:04Z</time>
      </trkpt>
      <trkpt lat="47.94787" lon="3.44374">
        <ele>97</ele>
        <time>2014-04-14T13:49:08Z</time>
      </trkpt>
      <trkpt lat="47.94783" lon="3.4438">
        <ele>96</ele>
        <time>2014-04-14T13:49:17Z</time>
      </trkpt>
      <trkpt lat="47.94782" lon="3.44389">
        <ele>96</ele>
        <time>2014-04-14T13:49:21Z</time>
      </trkpt>
      <trkpt lat="47.94785" lon="3.44395">
        <ele>96</ele>
        <time>2014-04-14T13:49:25Z</time>
      </trkpt>
      <trkpt lat="47.94789" lon="3.44398">
        <ele>96</ele>
        <time>2014-04-14T13:49:28Z</time>
      </trkpt>
      <trkpt lat="47.94794" lon="3.44403">
        <ele>96</ele>
        <time>2014-04-14T13:49:32Z</time>
      </trkpt>
      <trkpt lat="47.94803" lon="3.44407">
        <ele>96</ele>
        <time>2014-04-14T13:49:42Z</time>
      </trkpt>
      <trkpt lat="47.94806" lon="3.44413">
        <ele>96</ele>
        <time>2014-04-14T13:49:48Z</time>
      </trkpt>
      <trkpt lat="47.94808" lon="3.44419">
        <ele>93</ele>
        <time>2014-04-14T13:49:55Z</time>
      </trkpt>
      <trkpt lat="47.94813" lon="3.44421">
        <ele>93</ele>
        <time>2014-04-14T13:50:00Z</time>
      </trkpt>
      <trkpt lat="47.94822" lon="3.44424">
        <ele>94</ele>
        <time>2014-04-14T13:50:08Z</time>
      </trkpt>
      <trkpt lat="47.94827" lon="3.44428">
        <ele>94</ele>
        <time>2014-04-14T13:50:14Z</time>
      </trkpt>
      <trkpt lat="47.94826" lon="3.44442">
        <ele>93</ele>
        <time>2014-04-14T13:50:25Z</time>
      </trkpt>
      <trkpt lat="47.94826" lon="3.44449">
        <ele>93</ele>
        <time>2014-04-14T13:50:30Z</time>
      </trkpt>
      <trkpt lat="47.94824" lon="3.44464">
        <ele>92</ele>
        <time>2014-04-14T13:50:38Z</time>
      </trkpt>
      <trkpt lat="47.94828" lon="3.44478">
        <ele>92</ele>
        <time>2014-04-14T13:50:47Z</time>
      </trkpt>
      <trkpt lat="47.9483" lon="3.44483">
        <ele>92</ele>
        <time>2014-04-14T13:50:55Z</time>
      </trkpt>
      <trkpt lat="47.94835" lon="3.44481">
        <ele>92</ele>
        <time>2014-04-14T13:51:04Z</time>
      </trkpt>
      <trkpt lat="47.94836" lon="3.44478">
        <ele>92</ele>
        <time>2014-04-14T13:51:10Z</time>
      </trkpt>
      <trkpt lat="47.94835" lon="3.44489">
        <ele>92</ele>
        <time>2014-04-14T13:51:56Z</time>
      </trkpt>
      <trkpt lat="47.9483" lon="3.44491">
        <ele>91</ele>
        <time>2014-04-14T13:52:08Z</time>
      </trkpt>
      <trkpt lat="47.9483" lon="3.44486">
        <ele>92</ele>
        <time>2014-04-14T13:53:01Z</time>
      </trkpt>
      <trkpt lat="47.94831" lon="3.44482">
        <ele>92</ele>
        <time>2014-04-14T13:54:03Z</time>
      </trkpt>
      <trkpt lat="47.9483" lon="3.44481">
        <ele>92</ele>
        <time>2014-04-14T13:54:41Z</time>
      </trkpt>
      <trkpt lat="47.94833" lon="3.44486">
        <ele>92</ele>
        <time>2014-04-14T13:55:29Z</time>
      </trkpt>
      <trkpt lat="47.94831" lon="3.44511">
        <ele>90</ele>
        <time>2014-04-14T14:00:07Z</time>
      </trkpt>
      <trkpt lat="47.94827" lon="3.44501">
        <ele>91</ele>
        <time>2014-04-14T14:01:07Z</time>
      </trkpt>
      <trkpt lat="47.94825" lon="3.44491">
        <ele>92</ele>
        <time>2014-04-14T14:01:22Z</time>
      </trkpt>
      <trkpt lat="47.94831" lon="3.44486">
        <ele>92</ele>
        <time>2014-04-14T14:01:36Z</time>
      </trkpt>
      <trkpt lat="47.94833" lon="3.44488">
        <ele>92</ele>
        <time>2014-04-14T14:06:59Z</time>
      </trkpt>
      <trkpt lat="47.94833" lon="3.44492">
        <ele>91</ele>
        <time>2014-04-14T14:07:05Z</time>
      </trkpt>
      <trkpt lat="47.94829" lon="3.44492">
        <ele>91</ele>
        <time>2014-04-14T14:07:34Z</time>
      </trkpt>
      <trkpt lat="47.94829" lon="3.44497">
        <ele>91</ele>
        <time>2014-04-14T14:09:27Z</time>
      </trkpt>
      <trkpt lat="47.94819" lon="3.44522">
        <ele>90</ele>
        <time>2014-04-14T14:09:53Z</time>
      </trkpt>
      <trkpt lat="47.94819" lon="3.4453">
        <ele>90</ele>
        <time>2014-04-14T14:09:58Z</time>
      </trkpt>
      <trkpt lat="47.94811" lon="3.44557">
        <ele>89</ele>
        <time>2014-04-14T14:10:17Z</time>
      </trkpt>
      <trkpt lat="47.94811" lon="3.44564">
        <ele>89</ele>
        <time>2014-04-14T14:10:21Z</time>
      </trkpt>
      <trkpt lat="47.9481" lon="3.44571">
        <ele>89</ele>
        <time>2014-04-14T14:10:25Z</time>
      </trkpt>
      <trkpt lat="47.94808" lon="3.44577">
        <ele>89</ele>
        <time>2014-04-14T14:10:28Z</time>
      </trkpt>
      <trkpt lat="47.94802" lon="3.44589">
        <ele>88</ele>
        <time>2014-04-14T14:10:36Z</time>
      </trkpt>
      <trkpt lat="47.948" lon="3.44595">
        <ele>88</ele>
        <time>2014-04-14T14:10:39Z</time>
      </trkpt>
      <trkpt lat="47.94799" lon="3.44603">
        <ele>88</ele>
        <time>2014-04-14T14:10:43Z</time>
      </trkpt>
      <trkpt lat="47.94794" lon="3.44614">
        <ele>87</ele>
        <time>2014-04-14T14:10:51Z</time>
      </trkpt>
      <trkpt lat="47.94792" lon="3.44621">
        <ele>87</ele>
        <time>2014-04-14T14:10:55Z</time>
      </trkpt>
      <trkpt lat="47.94794" lon="3.44628">
        <ele>87</ele>
        <time>2014-04-14T14:11:00Z</time>
      </trkpt>
      <trkpt lat="47.94793" lon="3.44635">
        <ele>87</ele>
        <time>2014-04-14T14:11:05Z</time>
      </trkpt>
      <trkpt lat="47.94791" lon="3.44642">
        <ele>87</ele>
        <time>2014-04-14T14:11:10Z</time>
      </trkpt>
      <trkpt lat="47.94789" lon="3.44648">
        <ele>87</ele>
        <time>2014-04-14T14:11:15Z</time>
      </trkpt>
      <trkpt lat="47.9478" lon="3.44691">
        <ele>85</ele>
        <time>2014-04-14T14:11:36Z</time>
      </trkpt>
      <trkpt lat="47.94778" lon="3.44698">
        <ele>85</ele>
        <time>2014-04-14T14:11:40Z</time>
      </trkpt>
      <trkpt lat="47.94775" lon="3.44703">
        <ele>85</ele>
        <time>2014-04-14T14:11:44Z</time>
      </trkpt>
      <trkpt lat="47.94773" lon="3.44703">
        <ele>85</ele>
        <time>2014-04-14T14:11:49Z</time>
      </trkpt>
      <trkpt lat="47.9477" lon="3.44712">
        <ele>85</ele>
        <time>2014-04-14T14:11:59Z</time>
      </trkpt>
      <trkpt lat="47.94769" lon="3.44727">
        <ele>85</ele>
        <time>2014-04-14T14:12:09Z</time>
      </trkpt>
      <trkpt lat="47.94766" lon="3.44735">
        <ele>85</ele>
        <time>2014-04-14T14:12:13Z</time>
      </trkpt>
      <trkpt lat="47.94762" lon="3.44739">
        <ele>84</ele>
        <time>2014-04-14T14:12:17Z</time>
      </trkpt>
      <trkpt lat="47.94759" lon="3.4475">
        <ele>84</ele>
        <time>2014-04-14T14:12:25Z</time>
      </trkpt>
      <trkpt lat="47.94758" lon="3.44759">
        <ele>84</ele>
        <time>2014-04-14T14:12:30Z</time>
      </trkpt>
      <trkpt lat="47.94758" lon="3.44767">
        <ele>84</ele>
        <time>2014-04-14T14:12:34Z</time>
      </trkpt>
      <trkpt lat="47.94754" lon="3.44797">
        <ele>84</ele>
        <time>2014-04-14T14:12:48Z</time>
      </trkpt>
      <trkpt lat="47.94751" lon="3.44802">
        <ele>85</ele>
        <time>2014-04-14T14:12:52Z</time>
      </trkpt>
      <trkpt lat="47.94736" lon="3.44826">
        <ele>85</ele>
        <time>2014-04-14T14:13:09Z</time>
      </trkpt>
      <trkpt lat="47.94728" lon="3.44845">
        <ele>87</ele>
        <time>2014-04-14T14:13:23Z</time>
      </trkpt>
      <trkpt lat="47.94722" lon="3.44856">
        <ele>87</ele>
        <time>2014-04-14T14:13:33Z</time>
      </trkpt>
      <trkpt lat="47.94718" lon="3.44861">
        <ele>87</ele>
        <time>2014-04-14T14:13:38Z</time>
      </trkpt>
      <trkpt lat="47.94714" lon="3.44868">
        <ele>87</ele>
        <time>2014-04-14T14:13:42Z</time>
      </trkpt>
      <trkpt lat="47.94697" lon="3.44887">
        <ele>88</ele>
        <time>2014-04-14T14:13:56Z</time>
      </trkpt>
      <trkpt lat="47.94692" lon="3.44891">
        <ele>88</ele>
        <time>2014-04-14T14:13:59Z</time>
      </trkpt>
      <trkpt lat="47.94687" lon="3.44893">
        <ele>88</ele>
        <time>2014-04-14T14:14:05Z</time>
      </trkpt>
      <trkpt lat="47.94669" lon="3.4489">
        <ele>88</ele>
        <time>2014-04-14T14:14:25Z</time>
      </trkpt>
      <trkpt lat="47.94665" lon="3.44894">
        <ele>89</ele>
        <time>2014-04-14T14:14:29Z</time>
      </trkpt>
      <trkpt lat="47.9466" lon="3.44894">
        <ele>89</ele>
        <time>2014-04-14T14:14:33Z</time>
      </trkpt>
      <trkpt lat="47.94656" lon="3.44891">
        <ele>89</ele>
        <time>2014-04-14T14:14:38Z</time>
      </trkpt>
      <trkpt lat="47.94651" lon="3.44889">
        <ele>89</ele>
        <time>2014-04-14T14:14:43Z</time>
      </trkpt>
      <trkpt lat="47.94646" lon="3.44889">
        <ele>89</ele>
        <time>2014-04-14T14:14:47Z</time>
      </trkpt>
      <trkpt lat="47.94636" lon="3.44892">
        <ele>89</ele>
        <time>2014-04-14T14:14:54Z</time>
      </trkpt>
      <trkpt lat="47.94632" lon="3.44895">
        <ele>89</ele>
        <time>2014-04-14T14:14:57Z</time>
      </trkpt>
      <trkpt lat="47.94622" lon="3.4489">
        <ele>89</ele>
        <time>2014-04-14T14:15:06Z</time>
      </trkpt>
      <trkpt lat="47.94618" lon="3.44887">
        <ele>89</ele>
        <time>2014-04-14T14:15:10Z</time>
      </trkpt>
      <trkpt lat="47.94613" lon="3.44884">
        <ele>89</ele>
        <time>2014-04-14T14:15:15Z</time>
      </trkpt>
      <trkpt lat="47.94608" lon="3.44882">
        <ele>89</ele>
        <time>2014-04-14T14:15:19Z</time>
      </trkpt>
      <trkpt lat="47.94604" lon="3.44884">
        <ele>89</ele>
        <time>2014-04-14T14:15:22Z</time>
      </trkpt>
      <trkpt lat="47.94599" lon="3.44884">
        <ele>89</ele>
        <time>2014-04-14T14:15:26Z</time>
      </trkpt>
      <trkpt lat="47.94595" lon="3.44881">
        <ele>89</ele>
        <time>2014-04-14T14:15:36Z</time>
      </trkpt>
      <trkpt lat="47.9459" lon="3.4488">
        <ele>89</ele>
        <time>2014-04-14T14:15:43Z</time>
      </trkpt>
      <trkpt lat="47.94584" lon="3.44882">
        <ele>89</ele>
        <time>2014-04-14T14:15:47Z</time>
      </trkpt>
      <trkpt lat="47.94558" lon="3.44885">
        <ele>89</ele>
        <time>2014-04-14T14:16:04Z</time>
      </trkpt>
      <trkpt lat="47.94553" lon="3.44885">
        <ele>89</ele>
        <time>2014-04-14T14:16:07Z</time>
      </trkpt>
      <trkpt lat="47.94547" lon="3.44886">
        <ele>89</ele>
        <time>2014-04-14T14:16:11Z</time>
      </trkpt>
      <trkpt lat="47.94542" lon="3.44885">
        <ele>89</ele>
        <time>2014-04-14T14:16:15Z</time>
      </trkpt>
      <trkpt lat="47.94537" lon="3.44885">
        <ele>89</ele>
        <time>2014-04-14T14:16:19Z</time>
      </trkpt>
      <trkpt lat="47.94532" lon="3.44887">
        <ele>89</ele>
        <time>2014-04-14T14:16:24Z</time>
      </trkpt>
      <trkpt lat="47.94526" lon="3.44887">
        <ele>89</ele>
        <time>2014-04-14T14:16:28Z</time>
      </trkpt>
      <trkpt lat="47.94523" lon="3.44892">
        <ele>89</ele>
        <time>2014-04-14T14:16:31Z</time>
      </trkpt>
      <trkpt lat="47.94517" lon="3.44893">
        <ele>89</ele>
        <time>2014-04-14T14:16:35Z</time>
      </trkpt>
      <trkpt lat="47.94512" lon="3.4489">
        <ele>89</ele>
        <time>2014-04-14T14:16:39Z</time>
      </trkpt>
      <trkpt lat="47.94508" lon="3.44885">
        <ele>89</ele>
        <time>2014-04-14T14:16:45Z</time>
      </trkpt>
      <trkpt lat="47.94503" lon="3.44882">
        <ele>89</ele>
        <time>2014-04-14T14:16:50Z</time>
      </trkpt>
      <trkpt lat="47.94497" lon="3.44886">
        <ele>89</ele>
        <time>2014-04-14T14:16:53Z</time>
      </trkpt>
      <trkpt lat="47.94492" lon="3.4489">
        <ele>89</ele>
        <time>2014-04-14T14:16:55Z</time>
      </trkpt>
      <trkpt lat="47.94487" lon="3.44891">
        <ele>89</ele>
        <time>2014-04-14T14:16:58Z</time>
      </trkpt>
      <trkpt lat="47.94482" lon="3.44889">
        <ele>89</ele>
        <time>2014-04-14T14:17:01Z</time>
      </trkpt>
      <trkpt lat="47.94477" lon="3.44888">
        <ele>89</ele>
        <time>2014-04-14T14:17:04Z</time>
      </trkpt>
      <trkpt lat="47.94474" lon="3.44884">
        <ele>89</ele>
        <time>2014-04-14T14:17:13Z</time>
      </trkpt>
      <trkpt lat="47.9447" lon="3.44881">
        <ele>88</ele>
        <time>2014-04-14T14:17:19Z</time>
      </trkpt>
      <trkpt lat="47.94464" lon="3.44881">
        <ele>88</ele>
        <time>2014-04-14T14:17:24Z</time>
      </trkpt>
      <trkpt lat="47.94455" lon="3.44881">
        <ele>88</ele>
        <time>2014-04-14T14:17:33Z</time>
      </trkpt>
      <trkpt lat="47.94449" lon="3.44883">
        <ele>88</ele>
        <time>2014-04-14T14:17:38Z</time>
      </trkpt>
      <trkpt lat="47.94443" lon="3.44884">
        <ele>88</ele>
        <time>2014-04-14T14:17:42Z</time>
      </trkpt>
      <trkpt lat="47.94439" lon="3.44884">
        <ele>88</ele>
        <time>2014-04-14T14:17:48Z</time>
      </trkpt>
      <trkpt lat="47.94434" lon="3.44885">
        <ele>88</ele>
        <time>2014-04-14T14:17:52Z</time>
      </trkpt>
      <trkpt lat="47.94429" lon="3.44884">
        <ele>88</ele>
        <time>2014-04-14T14:17:57Z</time>
      </trkpt>
      <trkpt lat="47.94425" lon="3.44881">
        <ele>88</ele>
        <time>2014-04-14T14:18:01Z</time>
      </trkpt>
      <trkpt lat="47.94421" lon="3.44877">
        <ele>88</ele>
        <time>2014-04-14T14:18:04Z</time>
      </trkpt>
      <trkpt lat="47.94417" lon="3.44874">
        <ele>88</ele>
        <time>2014-04-14T14:18:08Z</time>
      </trkpt>
      <trkpt lat="47.94412" lon="3.44875">
        <ele>88</ele>
        <time>2014-04-14T14:18:12Z</time>
      </trkpt>
      <trkpt lat="47.94407" lon="3.44874">
        <ele>88</ele>
        <time>2014-04-14T14:18:16Z</time>
      </trkpt>
      <trkpt lat="47.94405" lon="3.44866">
        <ele>87</ele>
        <time>2014-04-14T14:18:32Z</time>
      </trkpt>
      <trkpt lat="47.944" lon="3.44863">
        <ele>87</ele>
        <time>2014-04-14T14:18:37Z</time>
      </trkpt>
      <trkpt lat="47.94398" lon="3.44857">
        <ele>87</ele>
        <time>2014-04-14T14:18:43Z</time>
      </trkpt>
      <trkpt lat="47.94395" lon="3.4485">
        <ele>87</ele>
        <time>2014-04-14T14:18:49Z</time>
      </trkpt>
      <trkpt lat="47.9439" lon="3.44848">
        <ele>87</ele>
        <time>2014-04-14T14:18:53Z</time>
      </trkpt>
      <trkpt lat="47.94385" lon="3.44846">
        <ele>87</ele>
        <time>2014-04-14T14:18:57Z</time>
      </trkpt>
      <trkpt lat="47.94369" lon="3.44842">
        <ele>87</ele>
        <time>2014-04-14T14:19:06Z</time>
      </trkpt>
      <trkpt lat="47.9436" lon="3.44835">
        <ele>87</ele>
        <time>2014-04-14T14:19:15Z</time>
      </trkpt>
      <trkpt lat="47.94355" lon="3.44832">
        <ele>86</ele>
        <time>2014-04-14T14:19:19Z</time>
      </trkpt>
      <trkpt lat="47.94351" lon="3.4483">
        <ele>86</ele>
        <time>2014-04-14T14:19:23Z</time>
      </trkpt>
      <trkpt lat="47.94346" lon="3.44827">
        <ele>86</ele>
        <time>2014-04-14T14:19:27Z</time>
      </trkpt>
      <trkpt lat="47.94341" lon="3.44827">
        <ele>86</ele>
        <time>2014-04-14T14:19:35Z</time>
      </trkpt>
      <trkpt lat="47.94337" lon="3.4482">
        <ele>86</ele>
        <time>2014-04-14T14:19:39Z</time>
      </trkpt>
      <trkpt lat="47.94332" lon="3.44816">
        <ele>87</ele>
        <time>2014-04-14T14:19:43Z</time>
      </trkpt>
      <trkpt lat="47.94327" lon="3.44814">
        <ele>87</ele>
        <time>2014-04-14T14:19:47Z</time>
      </trkpt>
      <trkpt lat="47.94323" lon="3.44809">
        <ele>87</ele>
        <time>2014-04-14T14:19:52Z</time>
      </trkpt>
      <trkpt lat="47.94319" lon="3.44807">
        <ele>87</ele>
        <time>2014-04-14T14:19:56Z</time>
      </trkpt>
      <trkpt lat="47.94315" lon="3.44801">
        <ele>87</ele>
        <time>2014-04-14T14:20:01Z</time>
      </trkpt>
      <trkpt lat="47.9431" lon="3.448">
        <ele>87</ele>
        <time>2014-04-14T14:20:04Z</time>
      </trkpt>
      <trkpt lat="47.94306" lon="3.44796">
        <ele>87</ele>
        <time>2014-04-14T14:20:08Z</time>
      </trkpt>
      <trkpt lat="47.94301" lon="3.44793">
        <ele>87</ele>
        <time>2014-04-14T14:20:12Z</time>
      </trkpt>
      <trkpt lat="47.94285" lon="3.44786">
        <ele>87</ele>
        <time>2014-04-14T14:20:24Z</time>
      </trkpt>
      <trkpt lat="47.94282" lon="3.44781">
        <ele>87</ele>
        <time>2014-04-14T14:20:28Z</time>
      </trkpt>
      <trkpt lat="47.94277" lon="3.44779">
        <ele>87</ele>
        <time>2014-04-14T14:20:32Z</time>
      </trkpt>
      <trkpt lat="47.94272" lon="3.44777">
        <ele>87</ele>
        <time>2014-04-14T14:20:36Z</time>
      </trkpt>
      <trkpt lat="47.94268" lon="3.44774">
        <ele>87</ele>
        <time>2014-04-14T14:20:41Z</time>
      </trkpt>
      <trkpt lat="47.9426" lon="3.44764">
        <ele>87</ele>
        <time>2014-04-14T14:20:50Z</time>
      </trkpt>
      <trkpt lat="47.94255" lon="3.44762">
        <ele>87</ele>
        <time>2014-04-14T14:20:54Z</time>
      </trkpt>
      <trkpt lat="47.9425" lon="3.44762">
        <ele>88</ele>
        <time>2014-04-14T14:20:58Z</time>
      </trkpt>
      <trkpt lat="47.94242" lon="3.44754">
        <ele>88</ele>
        <time>2014-04-14T14:21:09Z</time>
      </trkpt>
      <trkpt lat="47.94236" lon="3.44751">
        <ele>88</ele>
        <time>2014-04-14T14:21:13Z</time>
      </trkpt>
      <trkpt lat="47.94231" lon="3.4475">
        <ele>87</ele>
        <time>2014-04-14T14:21:16Z</time>
      </trkpt>
      <trkpt lat="47.94226" lon="3.44746">
        <ele>87</ele>
        <time>2014-04-14T14:21:20Z</time>
      </trkpt>
      <trkpt lat="47.94223" lon="3.44739">
        <ele>86</ele>
        <time>2014-04-14T14:21:24Z</time>
      </trkpt>
      <trkpt lat="47.94216" lon="3.4473">
        <ele>86</ele>
        <time>2014-04-14T14:21:33Z</time>
      </trkpt>
      <trkpt lat="47.94211" lon="3.44729">
        <ele>86</ele>
        <time>2014-04-14T14:21:36Z</time>
      </trkpt>
      <trkpt lat="47.94206" lon="3.44726">
        <ele>86</ele>
        <time>2014-04-14T14:21:39Z</time>
      </trkpt>
      <trkpt lat="47.94202" lon="3.44721">
        <ele>86</ele>
        <time>2014-04-14T14:21:43Z</time>
      </trkpt>
      <trkpt lat="47.94197" lon="3.44719">
        <ele>86</ele>
        <time>2014-04-14T14:21:47Z</time>
      </trkpt>
      <trkpt lat="47.94192" lon="3.4472">
        <ele>87</ele>
        <time>2014-04-14T14:21:51Z</time>
      </trkpt>
      <trkpt lat="47.94183" lon="3.44713">
        <ele>86</ele>
        <time>2014-04-14T14:22:00Z</time>
      </trkpt>
      <trkpt lat="47.94174" lon="3.44708">
        <ele>86</ele>
        <time>2014-04-14T14:22:08Z</time>
      </trkpt>
      <trkpt lat="47.94169" lon="3.44708">
        <ele>86</ele>
        <time>2014-04-14T14:22:14Z</time>
      </trkpt>
      <trkpt lat="47.94164" lon="3.44711">
        <ele>88</ele>
        <time>2014-04-14T14:22:16Z</time>
      </trkpt>
      <trkpt lat="47.9416" lon="3.44715">
        <ele>88</ele>
        <time>2014-04-14T14:22:18Z</time>
      </trkpt>
      <trkpt lat="47.94155" lon="3.44717">
        <ele>88</ele>
        <time>2014-04-14T14:22:21Z</time>
      </trkpt>
      <trkpt lat="47.94151" lon="3.44712">
        <ele>88</ele>
        <time>2014-04-14T14:22:25Z</time>
      </trkpt>
      <trkpt lat="47.94148" lon="3.44706">
        <ele>88</ele>
        <time>2014-04-14T14:22:30Z</time>
      </trkpt>
      <trkpt lat="47.94137" lon="3.4469">
        <ele>87</ele>
        <time>2014-04-14T14:22:42Z</time>
      </trkpt>
      <trkpt lat="47.94133" lon="3.44689">
        <ele>88</ele>
        <time>2014-04-14T14:22:47Z</time>
      </trkpt>
      <trkpt lat="47.94128" lon="3.44685">
        <ele>88</ele>
        <time>2014-04-14T14:22:51Z</time>
      </trkpt>
      <trkpt lat="47.94123" lon="3.4468">
        <ele>88</ele>
        <time>2014-04-14T14:22:55Z</time>
      </trkpt>
      <trkpt lat="47.9412" lon="3.44675">
        <ele>88</ele>
        <time>2014-04-14T14:23:00Z</time>
      </trkpt>
      <trkpt lat="47.94107" lon="3.44662">
        <ele>87</ele>
        <time>2014-04-14T14:23:14Z</time>
      </trkpt>
      <trkpt lat="47.94105" lon="3.44655">
        <ele>87</ele>
        <time>2014-04-14T14:23:20Z</time>
      </trkpt>
      <trkpt lat="47.94101" lon="3.44653">
        <ele>87</ele>
        <time>2014-04-14T14:23:23Z</time>
      </trkpt>
      <trkpt lat="47.94094" lon="3.44651">
        <ele>87</ele>
        <time>2014-04-14T14:23:27Z</time>
      </trkpt>
      <trkpt lat="47.94089" lon="3.44649">
        <ele>87</ele>
        <time>2014-04-14T14:23:33Z</time>
      </trkpt>
      <trkpt lat="47.94084" lon="3.44648">
        <ele>87</ele>
        <time>2014-04-14T14:23:37Z</time>
      </trkpt>
      <trkpt lat="47.94079" lon="3.44644">
        <ele>88</ele>
        <time>2014-04-14T14:23:41Z</time>
      </trkpt>
      <trkpt lat="47.94075" lon="3.44641">
        <ele>88</ele>
        <time>2014-04-14T14:23:45Z</time>
      </trkpt>
      <trkpt lat="47.94069" lon="3.44639">
        <ele>88</ele>
        <time>2014-04-14T14:23:50Z</time>
      </trkpt>
      <trkpt lat="47.94064" lon="3.4464">
        <ele>88</ele>
        <time>2014-04-14T14:23:52Z</time>
      </trkpt>
      <trkpt lat="47.94058" lon="3.44639">
        <ele>88</ele>
        <time>2014-04-14T14:23:55Z</time>
      </trkpt>
      <trkpt lat="47.94055" lon="3.44633">
        <ele>88</ele>
        <time>2014-04-14T14:23:59Z</time>
      </trkpt>
      <trkpt lat="47.94055" lon="3.44626">
        <ele>87</ele>
        <time>2014-04-14T14:24:05Z</time>
      </trkpt>
      <trkpt lat="47.94051" lon="3.4462">
        <ele>87</ele>
        <time>2014-04-14T14:24:10Z</time>
      </trkpt>
      <trkpt lat="47.94047" lon="3.44618">
        <ele>87</ele>
        <time>2014-04-14T14:24:14Z</time>
      </trkpt>
      <trkpt lat="47.94045" lon="3.44612">
        <ele>87</ele>
        <time>2014-04-14T14:24:20Z</time>
      </trkpt>
      <trkpt lat="47.94039" lon="3.4461">
        <ele>87</ele>
        <time>2014-04-14T14:24:26Z</time>
      </trkpt>
      <trkpt lat="47.94037" lon="3.44612">
        <ele>87</ele>
        <time>2014-04-14T14:24:32Z</time>
      </trkpt>
      <trkpt lat="47.94022" lon="3.44605">
        <ele>87</ele>
        <time>2014-04-14T14:24:50Z</time>
      </trkpt>
      <trkpt lat="47.94018" lon="3.44604">
        <ele>87</ele>
        <time>2014-04-14T14:24:53Z</time>
      </trkpt>
      <trkpt lat="47.94013" lon="3.44601">
        <ele>87</ele>
        <time>2014-04-14T14:24:57Z</time>
      </trkpt>
      <trkpt lat="47.93996" lon="3.44586">
        <ele>87</ele>
        <time>2014-04-14T14:25:12Z</time>
      </trkpt>
      <trkpt lat="47.93992" lon="3.44583">
        <ele>87</ele>
        <time>2014-04-14T14:25:16Z</time>
      </trkpt>
      <trkpt lat="47.93987" lon="3.44581">
        <ele>87</ele>
        <time>2014-04-14T14:25:20Z</time>
      </trkpt>
      <trkpt lat="47.93974" lon="3.44572">
        <ele>88</ele>
        <time>2014-04-14T14:25:32Z</time>
      </trkpt>
      <trkpt lat="47.93969" lon="3.44569">
        <ele>88</ele>
        <time>2014-04-14T14:25:36Z</time>
      </trkpt>
      <trkpt lat="47.93965" lon="3.44566">
        <ele>88</ele>
        <time>2014-04-14T14:25:40Z</time>
      </trkpt>
      <trkpt lat="47.93962" lon="3.44561">
        <ele>88</ele>
        <time>2014-04-14T14:25:44Z</time>
      </trkpt>
      <trkpt lat="47.93959" lon="3.44555">
        <ele>88</ele>
        <time>2014-04-14T14:25:48Z</time>
      </trkpt>
      <trkpt lat="47.93954" lon="3.44554">
        <ele>88</ele>
        <time>2014-04-14T14:25:52Z</time>
      </trkpt>
      <trkpt lat="47.93935" lon="3.44545">
        <ele>88</ele>
        <time>2014-04-14T14:26:09Z</time>
      </trkpt>
      <trkpt lat="47.93931" lon="3.44542">
        <ele>88</ele>
        <time>2014-04-14T14:26:13Z</time>
      </trkpt>
      <trkpt lat="47.93926" lon="3.44539">
        <ele>88</ele>
        <time>2014-04-14T14:26:18Z</time>
      </trkpt>
      <trkpt lat="47.93908" lon="3.44529">
        <ele>88</ele>
        <time>2014-04-14T14:26:34Z</time>
      </trkpt>
      <trkpt lat="47.93903" lon="3.44527">
        <ele>88</ele>
        <time>2014-04-14T14:26:38Z</time>
      </trkpt>
      <trkpt lat="47.93895" lon="3.44518">
        <ele>88</ele>
        <time>2014-04-14T14:26:46Z</time>
      </trkpt>
      <trkpt lat="47.93891" lon="3.44514">
        <ele>88</ele>
        <time>2014-04-14T14:26:50Z</time>
      </trkpt>
      <trkpt lat="47.93887" lon="3.44509">
        <ele>88</ele>
        <time>2014-04-14T14:26:54Z</time>
      </trkpt>
      <trkpt lat="47.93882" lon="3.44508">
        <ele>88</ele>
        <time>2014-04-14T14:26:59Z</time>
      </trkpt>
      <trkpt lat="47.93878" lon="3.44505">
        <ele>88</ele>
        <time>2014-04-14T14:27:03Z</time>
      </trkpt>
      <trkpt lat="47.93859" lon="3.44494">
        <ele>87</ele>
        <time>2014-04-14T14:27:19Z</time>
      </trkpt>
      <trkpt lat="47.93851" lon="3.44487">
        <ele>88</ele>
        <time>2014-04-14T14:27:28Z</time>
      </trkpt>
      <trkpt lat="47.93842" lon="3.44482">
        <ele>88</ele>
        <time>2014-04-14T14:27:36Z</time>
      </trkpt>
      <trkpt lat="47.93834" lon="3.44473">
        <ele>87</ele>
        <time>2014-04-14T14:27:45Z</time>
      </trkpt>
      <trkpt lat="47.93826" lon="3.44463">
        <ele>88</ele>
        <time>2014-04-14T14:27:53Z</time>
      </trkpt>
      <trkpt lat="47.93823" lon="3.44458">
        <ele>88</ele>
        <time>2014-04-14T14:27:56Z</time>
      </trkpt>
      <trkpt lat="47.93819" lon="3.44454">
        <ele>88</ele>
        <time>2014-04-14T14:28:00Z</time>
      </trkpt>
      <trkpt lat="47.93815" lon="3.44452">
        <ele>88</ele>
        <time>2014-04-14T14:28:04Z</time>
      </trkpt>
      <trkpt lat="47.93811" lon="3.44448">
        <ele>88</ele>
        <time>2014-04-14T14:28:08Z</time>
      </trkpt>
      <trkpt lat="47.93809" lon="3.44441">
        <ele>88</ele>
        <time>2014-04-14T14:28:12Z</time>
      </trkpt>
      <trkpt lat="47.93797" lon="3.44427">
        <ele>88</ele>
        <time>2014-04-14T14:28:25Z</time>
      </trkpt>
      <trkpt lat="47.93794" lon="3.44419">
        <ele>88</ele>
        <time>2014-04-14T14:28:30Z</time>
      </trkpt>
      <trkpt lat="47.93791" lon="3.44415">
        <ele>88</ele>
        <time>2014-04-14T14:28:34Z</time>
      </trkpt>
      <trkpt lat="47.93787" lon="3.44412">
        <ele>88</ele>
        <time>2014-04-14T14:28:38Z</time>
      </trkpt>
      <trkpt lat="47.93779" lon="3.44403">
        <ele>88</ele>
        <time>2014-04-14T14:28:46Z</time>
      </trkpt>
      <trkpt lat="47.93775" lon="3.44399">
        <ele>88</ele>
        <time>2014-04-14T14:28:51Z</time>
      </trkpt>
      <trkpt lat="47.93771" lon="3.44395">
        <ele>88</ele>
        <time>2014-04-14T14:28:55Z</time>
      </trkpt>
      <trkpt lat="47.93752" lon="3.44366">
        <ele>88</ele>
        <time>2014-04-14T14:29:17Z</time>
      </trkpt>
      <trkpt lat="47.93748" lon="3.44362">
        <ele>89</ele>
        <time>2014-04-14T14:29:21Z</time>
      </trkpt>
      <trkpt lat="47.93743" lon="3.44361">
        <ele>89</ele>
        <time>2014-04-14T14:29:25Z</time>
      </trkpt>
      <trkpt lat="47.9374" lon="3.44357">
        <ele>89</ele>
        <time>2014-04-14T14:29:32Z</time>
      </trkpt>
      <trkpt lat="47.93729" lon="3.4434">
        <ele>89</ele>
        <time>2014-04-14T14:29:44Z</time>
      </trkpt>
      <trkpt lat="47.93725" lon="3.44335">
        <ele>89</ele>
        <time>2014-04-14T14:29:48Z</time>
      </trkpt>
      <trkpt lat="47.93721" lon="3.44331">
        <ele>88</ele>
        <time>2014-04-14T14:29:53Z</time>
      </trkpt>
      <trkpt lat="47.93716" lon="3.44329">
        <ele>89</ele>
        <time>2014-04-14T14:29:58Z</time>
      </trkpt>
      <trkpt lat="47.93711" lon="3.4433">
        <ele>89</ele>
        <time>2014-04-14T14:30:02Z</time>
      </trkpt>
      <trkpt lat="47.93705" lon="3.44329">
        <ele>89</ele>
        <time>2014-04-14T14:30:32Z</time>
      </trkpt>
      <trkpt lat="47.937" lon="3.44331">
        <ele>89</ele>
        <time>2014-04-14T14:30:38Z</time>
      </trkpt>
      <trkpt lat="47.93694" lon="3.4433">
        <ele>89</ele>
        <time>2014-04-14T14:30:42Z</time>
      </trkpt>
      <trkpt lat="47.93689" lon="3.44332">
        <ele>89</ele>
        <time>2014-04-14T14:30:45Z</time>
      </trkpt>
      <trkpt lat="47.93685" lon="3.44333">
        <ele>89</ele>
        <time>2014-04-14T14:30:48Z</time>
      </trkpt>
      <trkpt lat="47.9368" lon="3.44333">
        <ele>89</ele>
        <time>2014-04-14T14:30:51Z</time>
      </trkpt>
      <trkpt lat="47.93676" lon="3.4433">
        <ele>90</ele>
        <time>2014-04-14T14:30:54Z</time>
      </trkpt>
      <trkpt lat="47.93671" lon="3.44329">
        <ele>90</ele>
        <time>2014-04-14T14:30:58Z</time>
      </trkpt>
      <trkpt lat="47.93666" lon="3.44325">
        <ele>90</ele>
        <time>2014-04-14T14:31:03Z</time>
      </trkpt>
      <trkpt lat="47.93658" lon="3.44329">
        <ele>90</ele>
        <time>2014-04-14T14:31:11Z</time>
      </trkpt>
      <trkpt lat="47.93648" lon="3.44332">
        <ele>90</ele>
        <time>2014-04-14T14:31:20Z</time>
      </trkpt>
      <trkpt lat="47.93637" lon="3.44333">
        <ele>90</ele>
        <time>2014-04-14T14:31:29Z</time>
      </trkpt>
      <trkpt lat="47.93632" lon="3.44331">
        <ele>90</ele>
        <time>2014-04-14T14:31:34Z</time>
      </trkpt>
      <trkpt lat="47.9357" lon="3.44334">
        <ele>92</ele>
        <time>2014-04-14T14:32:29Z</time>
      </trkpt>
      <trkpt lat="47.9356" lon="3.44333">
        <ele>91</ele>
        <time>2014-04-14T14:32:38Z</time>
      </trkpt>
      <trkpt lat="47.93554" lon="3.44334">
        <ele>92</ele>
        <time>2014-04-14T14:32:43Z</time>
      </trkpt>
      <trkpt lat="47.93549" lon="3.44334">
        <ele>92</ele>
        <time>2014-04-14T14:32:48Z</time>
      </trkpt>
      <trkpt lat="47.93545" lon="3.4433">
        <ele>91</ele>
        <time>2014-04-14T14:32:53Z</time>
      </trkpt>
      <trkpt lat="47.9354" lon="3.4433">
        <ele>91</ele>
        <time>2014-04-14T14:32:59Z</time>
      </trkpt>
      <trkpt lat="47.93524" lon="3.44332">
        <ele>91</ele>
        <time>2014-04-14T14:33:32Z</time>
      </trkpt>
      <trkpt lat="47.93519" lon="3.44333">
        <ele>91</ele>
        <time>2014-04-14T14:33:36Z</time>
      </trkpt>
      <trkpt lat="47.93513" lon="3.44334">
        <ele>92</ele>
        <time>2014-04-14T14:33:40Z</time>
      </trkpt>
      <trkpt lat="47.93499" lon="3.44339">
        <ele>92</ele>
        <time>2014-04-14T14:33:52Z</time>
      </trkpt>
      <trkpt lat="47.93495" lon="3.44342">
        <ele>92</ele>
        <time>2014-04-14T14:34:00Z</time>
      </trkpt>
      <trkpt lat="47.93481" lon="3.44348">
        <ele>93</ele>
        <time>2014-04-14T14:34:12Z</time>
      </trkpt>
      <trkpt lat="47.93477" lon="3.44351">
        <ele>93</ele>
        <time>2014-04-14T14:34:16Z</time>
      </trkpt>
      <trkpt lat="47.93467" lon="3.44359">
        <ele>93</ele>
        <time>2014-04-14T14:34:24Z</time>
      </trkpt>
      <trkpt lat="47.93463" lon="3.44359">
        <ele>93</ele>
        <time>2014-04-14T14:34:29Z</time>
      </trkpt>
      <trkpt lat="47.93453" lon="3.44364">
        <ele>93</ele>
        <time>2014-04-14T14:34:38Z</time>
      </trkpt>
      <trkpt lat="47.93447" lon="3.44365">
        <ele>93</ele>
        <time>2014-04-14T14:34:42Z</time>
      </trkpt>
      <trkpt lat="47.93443" lon="3.44363">
        <ele>93</ele>
        <time>2014-04-14T14:34:47Z</time>
      </trkpt>
      <trkpt lat="47.93434" lon="3.44367">
        <ele>93</ele>
        <time>2014-04-14T14:34:57Z</time>
      </trkpt>
      <trkpt lat="47.93429" lon="3.44368">
        <ele>93</ele>
        <time>2014-04-14T14:35:02Z</time>
      </trkpt>
      <trkpt lat="47.9342" lon="3.44372">
        <ele>93</ele>
        <time>2014-04-14T14:35:10Z</time>
      </trkpt>
      <trkpt lat="47.93415" lon="3.44373">
        <ele>93</ele>
        <time>2014-04-14T14:35:14Z</time>
      </trkpt>
      <trkpt lat="47.9341" lon="3.44375">
        <ele>93</ele>
        <time>2014-04-14T14:35:18Z</time>
      </trkpt>
      <trkpt lat="47.93406" lon="3.44377">
        <ele>93</ele>
        <time>2014-04-14T14:35:22Z</time>
      </trkpt>
      <trkpt lat="47.93401" lon="3.44378">
        <ele>93</ele>
        <time>2014-04-14T14:35:26Z</time>
      </trkpt>
      <trkpt lat="47.93396" lon="3.44378">
        <ele>93</ele>
        <time>2014-04-14T14:35:30Z</time>
      </trkpt>
      <trkpt lat="47.93376" lon="3.44382">
        <ele>93</ele>
        <time>2014-04-14T14:35:48Z</time>
      </trkpt>
      <trkpt lat="47.93367" lon="3.44386">
        <ele>93</ele>
        <time>2014-04-14T14:35:57Z</time>
      </trkpt>
      <trkpt lat="47.93362" lon="3.44386">
        <ele>93</ele>
        <time>2014-04-14T14:36:02Z</time>
      </trkpt>
      <trkpt lat="47.93352" lon="3.44392">
        <ele>93</ele>
        <time>2014-04-14T14:36:12Z</time>
      </trkpt>
      <trkpt lat="47.93332" lon="3.44396">
        <ele>95</ele>
        <time>2014-04-14T14:36:29Z</time>
      </trkpt>
      <trkpt lat="47.93327" lon="3.44396">
        <ele>95</ele>
        <time>2014-04-14T14:36:33Z</time>
      </trkpt>
      <trkpt lat="47.93322" lon="3.44398">
        <ele>95</ele>
        <time>2014-04-14T14:36:38Z</time>
      </trkpt>
      <trkpt lat="47.93297" lon="3.44401">
        <ele>95</ele>
        <time>2014-04-14T14:37:00Z</time>
      </trkpt>
      <trkpt lat="47.93292" lon="3.44401">
        <ele>95</ele>
        <time>2014-04-14T14:37:05Z</time>
      </trkpt>
      <trkpt lat="47.93287" lon="3.44402">
        <ele>95</ele>
        <time>2014-04-14T14:37:23Z</time>
      </trkpt>
      <trkpt lat="47.93277" lon="3.444">
        <ele>95</ele>
        <time>2014-04-14T14:37:32Z</time>
      </trkpt>
      <trkpt lat="47.93273" lon="3.44401">
        <ele>96</ele>
        <time>2014-04-14T14:37:36Z</time>
      </trkpt>
      <trkpt lat="47.93268" lon="3.44401">
        <ele>96</ele>
        <time>2014-04-14T14:37:40Z</time>
      </trkpt>
      <trkpt lat="47.93263" lon="3.444">
        <ele>96</ele>
        <time>2014-04-14T14:37:46Z</time>
      </trkpt>
      <trkpt lat="47.93257" lon="3.44399">
        <ele>96</ele>
        <time>2014-04-14T14:37:51Z</time>
      </trkpt>
      <trkpt lat="47.93253" lon="3.44395">
        <ele>96</ele>
        <time>2014-04-14T14:37:54Z</time>
      </trkpt>
      <trkpt lat="47.93238" lon="3.44394">
        <ele>97</ele>
        <time>2014-04-14T14:38:07Z</time>
      </trkpt>
      <trkpt lat="47.93233" lon="3.44393">
        <ele>97</ele>
        <time>2014-04-14T14:38:11Z</time>
      </trkpt>
      <trkpt lat="47.93228" lon="3.44391">
        <ele>97</ele>
        <time>2014-04-14T14:38:15Z</time>
      </trkpt>
      <trkpt lat="47.93223" lon="3.44391">
        <ele>97</ele>
        <time>2014-04-14T14:38:20Z</time>
      </trkpt>
      <trkpt lat="47.93218" lon="3.44389">
        <ele>97</ele>
        <time>2014-04-14T14:38:25Z</time>
      </trkpt>
      <trkpt lat="47.93209" lon="3.44389">
        <ele>97</ele>
        <time>2014-04-14T14:38:34Z</time>
      </trkpt>
      <trkpt lat="47.93199" lon="3.44387">
        <ele>97</ele>
        <time>2014-04-14T14:38:44Z</time>
      </trkpt>
      <trkpt lat="47.93194" lon="3.44386">
        <ele>97</ele>
        <time>2014-04-14T14:38:49Z</time>
      </trkpt>
      <trkpt lat="47.9319" lon="3.44396">
        <ele>97</ele>
        <time>2014-04-14T14:38:52Z</time>
      </trkpt>
      <trkpt lat="47.93169" lon="3.44387">
        <ele>97</ele>
        <time>2014-04-14T14:39:10Z</time>
      </trkpt>
      <trkpt lat="47.93158" lon="3.44385">
        <ele>96</ele>
        <time>2014-04-14T14:39:19Z</time>
      </trkpt>
      <trkpt lat="47.93154" lon="3.44382">
        <ele>96</ele>
        <time>2014-04-14T14:39:24Z</time>
      </trkpt>
      <trkpt lat="47.93149" lon="3.4438">
        <ele>96</ele>
        <time>2014-04-14T14:39:29Z</time>
      </trkpt>
      <trkpt lat="47.93144" lon="3.4438">
        <ele>96</ele>
        <time>2014-04-14T14:39:33Z</time>
      </trkpt>
      <trkpt lat="47.93134" lon="3.4438">
        <ele>96</ele>
        <time>2014-04-14T14:39:43Z</time>
      </trkpt>
      <trkpt lat="47.93129" lon="3.44379">
        <ele>95</ele>
        <time>2014-04-14T14:39:47Z</time>
      </trkpt>
      <trkpt lat="47.93123" lon="3.44379">
        <ele>95</ele>
        <time>2014-04-14T14:39:52Z</time>
      </trkpt>
      <trkpt lat="47.93118" lon="3.44379">
        <ele>95</ele>
        <time>2014-04-14T14:39:56Z</time>
      </trkpt>
      <trkpt lat="47.93113" lon="3.4438">
        <ele>95</ele>
        <time>2014-04-14T14:39:59Z</time>
      </trkpt>
      <trkpt lat="47.93104" lon="3.44376">
        <ele>95</ele>
        <time>2014-04-14T14:40:07Z</time>
      </trkpt>
      <trkpt lat="47.93095" lon="3.44374">
        <ele>95</ele>
        <time>2014-04-14T14:40:17Z</time>
      </trkpt>
      <trkpt lat="47.93084" lon="3.44378">
        <ele>95</ele>
        <time>2014-04-14T14:40:23Z</time>
      </trkpt>
      <trkpt lat="47.93081" lon="3.44373">
        <ele>93</ele>
        <time>2014-04-14T14:40:29Z</time>
      </trkpt>
      <trkpt lat="47.93078" lon="3.44367">
        <ele>92</ele>
        <time>2014-04-14T14:40:36Z</time>
      </trkpt>
      <trkpt lat="47.93073" lon="3.44366">
        <ele>92</ele>
        <time>2014-04-14T14:40:41Z</time>
      </trkpt>
      <trkpt lat="47.93068" lon="3.44366">
        <ele>92</ele>
        <time>2014-04-14T14:40:45Z</time>
      </trkpt>
      <trkpt lat="47.93063" lon="3.44363">
        <ele>92</ele>
        <time>2014-04-14T14:40:49Z</time>
      </trkpt>
      <trkpt lat="47.93059" lon="3.44359">
        <ele>92</ele>
        <time>2014-04-14T14:40:54Z</time>
      </trkpt>
      <trkpt lat="47.93054" lon="3.44357">
        <ele>92</ele>
        <time>2014-04-14T14:40:58Z</time>
      </trkpt>
      <trkpt lat="47.93049" lon="3.44354">
        <ele>92</ele>
        <time>2014-04-14T14:41:02Z</time>
      </trkpt>
      <trkpt lat="47.93044" lon="3.44352">
        <ele>92</ele>
        <time>2014-04-14T14:41:07Z</time>
      </trkpt>
      <trkpt lat="47.93039" lon="3.44351">
        <ele>91</ele>
        <time>2014-04-14T14:41:12Z</time>
      </trkpt>
      <trkpt lat="47.9302" lon="3.4434">
        <ele>90</ele>
        <time>2014-04-14T14:41:31Z</time>
      </trkpt>
      <trkpt lat="47.93009" lon="3.44338">
        <ele>89</ele>
        <time>2014-04-14T14:41:41Z</time>
      </trkpt>
      <trkpt lat="47.93005" lon="3.44337">
        <ele>89</ele>
        <time>2014-04-14T14:41:46Z</time>
      </trkpt>
      <trkpt lat="47.92999" lon="3.44336">
        <ele>88</ele>
        <time>2014-04-14T14:41:50Z</time>
      </trkpt>
      <trkpt lat="47.92993" lon="3.44337">
        <ele>89</ele>
        <time>2014-04-14T14:41:56Z</time>
      </trkpt>
      <trkpt lat="47.92989" lon="3.44336">
        <ele>89</ele>
        <time>2014-04-14T14:42:00Z</time>
      </trkpt>
      <trkpt lat="47.92974" lon="3.4433">
        <ele>88</ele>
        <time>2014-04-14T14:42:12Z</time>
      </trkpt>
      <trkpt lat="47.9297" lon="3.44326">
        <ele>88</ele>
        <time>2014-04-14T14:42:16Z</time>
      </trkpt>
      <trkpt lat="47.92966" lon="3.44325">
        <ele>88</ele>
        <time>2014-04-14T14:42:20Z</time>
      </trkpt>
      <trkpt lat="47.92961" lon="3.44323">
        <ele>88</ele>
        <time>2014-04-14T14:42:25Z</time>
      </trkpt>
      <trkpt lat="47.92957" lon="3.44322">
        <ele>88</ele>
        <time>2014-04-14T14:42:30Z</time>
      </trkpt>
      <trkpt lat="47.92952" lon="3.44321">
        <ele>88</ele>
        <time>2014-04-14T14:42:34Z</time>
      </trkpt>
      <trkpt lat="47.92942" lon="3.44318">
        <ele>89</ele>
        <time>2014-04-14T14:42:43Z</time>
      </trkpt>
      <trkpt lat="47.92938" lon="3.44315">
        <ele>89</ele>
        <time>2014-04-14T14:42:48Z</time>
      </trkpt>
      <trkpt lat="47.92933" lon="3.44314">
        <ele>89</ele>
        <time>2014-04-14T14:42:52Z</time>
      </trkpt>
      <trkpt lat="47.92924" lon="3.4431">
        <ele>89</ele>
        <time>2014-04-14T14:43:01Z</time>
      </trkpt>
      <trkpt lat="47.92914" lon="3.44302">
        <ele>89</ele>
        <time>2014-04-14T14:43:11Z</time>
      </trkpt>
      <trkpt lat="47.92904" lon="3.44299">
        <ele>89</ele>
        <time>2014-04-14T14:43:26Z</time>
      </trkpt>
      <trkpt lat="47.929" lon="3.44297">
        <ele>89</ele>
        <time>2014-04-14T14:43:30Z</time>
      </trkpt>
      <trkpt lat="47.92895" lon="3.44295">
        <ele>89</ele>
        <time>2014-04-14T14:43:35Z</time>
      </trkpt>
      <trkpt lat="47.92885" lon="3.4429">
        <ele>89</ele>
        <time>2014-04-14T14:43:45Z</time>
      </trkpt>
      <trkpt lat="47.92881" lon="3.4429">
        <ele>89</ele>
        <time>2014-04-14T14:43:51Z</time>
      </trkpt>
      <trkpt lat="47.92871" lon="3.44282">
        <ele>89</ele>
        <time>2014-04-14T14:43:59Z</time>
      </trkpt>
      <trkpt lat="47.92851" lon="3.44269">
        <ele>89</ele>
        <time>2014-04-14T14:44:18Z</time>
      </trkpt>
      <trkpt lat="47.92846" lon="3.44268">
        <ele>89</ele>
        <time>2014-04-14T14:44:23Z</time>
      </trkpt>
      <trkpt lat="47.92831" lon="3.44261">
        <ele>88</ele>
        <time>2014-04-14T14:44:36Z</time>
      </trkpt>
      <trkpt lat="47.92827" lon="3.44259">
        <ele>88</ele>
        <time>2014-04-14T14:44:41Z</time>
      </trkpt>
      <trkpt lat="47.92823" lon="3.44255">
        <ele>88</ele>
        <time>2014-04-14T14:44:45Z</time>
      </trkpt>
      <trkpt lat="47.92818" lon="3.44252">
        <ele>89</ele>
        <time>2014-04-14T14:44:50Z</time>
      </trkpt>
      <trkpt lat="47.92815" lon="3.44246">
        <ele>88</ele>
        <time>2014-04-14T14:44:54Z</time>
      </trkpt>
      <trkpt lat="47.92811" lon="3.44242">
        <ele>88</ele>
        <time>2014-04-14T14:44:58Z</time>
      </trkpt>
      <trkpt lat="47.92805" lon="3.44242">
        <ele>88</ele>
        <time>2014-04-14T14:45:03Z</time>
      </trkpt>
      <trkpt lat="47.928" lon="3.4424">
        <ele>88</ele>
        <time>2014-04-14T14:45:10Z</time>
      </trkpt>
      <trkpt lat="47.92795" lon="3.44239">
        <ele>88</ele>
        <time>2014-04-14T14:45:15Z</time>
      </trkpt>
      <trkpt lat="47.9279" lon="3.44236">
        <ele>88</ele>
        <time>2014-04-14T14:45:19Z</time>
      </trkpt>
      <trkpt lat="47.9278" lon="3.44233">
        <ele>88</ele>
        <time>2014-04-14T14:45:26Z</time>
      </trkpt>
      <trkpt lat="47.92776" lon="3.4423">
        <ele>88</ele>
        <time>2014-04-14T14:45:30Z</time>
      </trkpt>
      <trkpt lat="47.92771" lon="3.44229">
        <ele>88</ele>
        <time>2014-04-14T14:45:34Z</time>
      </trkpt>
      <trkpt lat="47.92766" lon="3.44228">
        <ele>88</ele>
        <time>2014-04-14T14:45:39Z</time>
      </trkpt>
      <trkpt lat="47.92762" lon="3.44227">
        <ele>88</ele>
        <time>2014-04-14T14:45:44Z</time>
      </trkpt>
      <trkpt lat="47.92757" lon="3.44224">
        <ele>88</ele>
        <time>2014-04-14T14:45:48Z</time>
      </trkpt>
      <trkpt lat="47.92747" lon="3.44221">
        <ele>88</ele>
        <time>2014-04-14T14:45:57Z</time>
      </trkpt>
      <trkpt lat="47.92738" lon="3.44214">
        <ele>88</ele>
        <time>2014-04-14T14:46:06Z</time>
      </trkpt>
      <trkpt lat="47.92733" lon="3.44212">
        <ele>88</ele>
        <time>2014-04-14T14:46:11Z</time>
      </trkpt>
      <trkpt lat="47.92716" lon="3.4421">
        <ele>88</ele>
        <time>2014-04-14T14:46:30Z</time>
      </trkpt>
      <trkpt lat="47.92707" lon="3.44207">
        <ele>88</ele>
        <time>2014-04-14T14:46:39Z</time>
      </trkpt>
      <trkpt lat="47.92705" lon="3.44215">
        <ele>88</ele>
        <time>2014-04-14T14:47:08Z</time>
      </trkpt>
      <trkpt lat="47.927" lon="3.44213">
        <ele>88</ele>
        <time>2014-04-14T14:47:13Z</time>
      </trkpt>
      <trkpt lat="47.92695" lon="3.4421">
        <ele>88</ele>
        <time>2014-04-14T14:47:17Z</time>
      </trkpt>
      <trkpt lat="47.92691" lon="3.44207">
        <ele>88</ele>
        <time>2014-04-14T14:47:20Z</time>
      </trkpt>
      <trkpt lat="47.92685" lon="3.44206">
        <ele>88</ele>
        <time>2014-04-14T14:47:26Z</time>
      </trkpt>
      <trkpt lat="47.9268" lon="3.44207">
        <ele>88</ele>
        <time>2014-04-14T14:47:33Z</time>
      </trkpt>
      <trkpt lat="47.92671" lon="3.44211">
        <ele>88</ele>
        <time>2014-04-14T14:48:03Z</time>
      </trkpt>
      <trkpt lat="47.92666" lon="3.44212">
        <ele>89</ele>
        <time>2014-04-14T14:48:08Z</time>
      </trkpt>
      <trkpt lat="47.92661" lon="3.44214">
        <ele>89</ele>
        <time>2014-04-14T14:48:13Z</time>
      </trkpt>
      <trkpt lat="47.92657" lon="3.44216">
        <ele>89</ele>
        <time>2014-04-14T14:48:18Z</time>
      </trkpt>
      <trkpt lat="47.92652" lon="3.44219">
        <ele>89</ele>
        <time>2014-04-14T14:48:23Z</time>
      </trkpt>
      <trkpt lat="47.92647" lon="3.44222">
        <ele>89</ele>
        <time>2014-04-14T14:48:28Z</time>
      </trkpt>
      <trkpt lat="47.92642" lon="3.44223">
        <ele>89</ele>
        <time>2014-04-14T14:48:33Z</time>
      </trkpt>
      <trkpt lat="47.92634" lon="3.44232">
        <ele>89</ele>
        <time>2014-04-14T14:48:41Z</time>
      </trkpt>
      <trkpt lat="47.92629" lon="3.44235">
        <ele>89</ele>
        <time>2014-04-14T14:48:46Z</time>
      </trkpt>
      <trkpt lat="47.92626" lon="3.4424">
        <ele>89</ele>
        <time>2014-04-14T14:48:52Z</time>
      </trkpt>
      <trkpt lat="47.92624" lon="3.44247">
        <ele>89</ele>
        <time>2014-04-14T14:48:56Z</time>
      </trkpt>
      <trkpt lat="47.92596" lon="3.44282">
        <ele>89</ele>
        <time>2014-04-14T14:49:25Z</time>
      </trkpt>
      <trkpt lat="47.92591" lon="3.44285">
        <ele>89</ele>
        <time>2014-04-14T14:49:29Z</time>
      </trkpt>
      <trkpt lat="47.92585" lon="3.44291">
        <ele>89</ele>
        <time>2014-04-14T14:49:41Z</time>
      </trkpt>
      <trkpt lat="47.92581" lon="3.44292">
        <ele>91</ele>
        <time>2014-04-14T14:49:54Z</time>
      </trkpt>
      <trkpt lat="47.92577" lon="3.44288">
        <ele>91</ele>
        <time>2014-04-14T14:49:59Z</time>
      </trkpt>
      <trkpt lat="47.92573" lon="3.44284">
        <ele>91</ele>
        <time>2014-04-14T14:50:03Z</time>
      </trkpt>
      <trkpt lat="47.92568" lon="3.4428">
        <ele>91</ele>
        <time>2014-04-14T14:50:08Z</time>
      </trkpt>
      <trkpt lat="47.92559" lon="3.44274">
        <ele>92</ele>
        <time>2014-04-14T14:50:17Z</time>
      </trkpt>
      <trkpt lat="47.92555" lon="3.4427">
        <ele>92</ele>
        <time>2014-04-14T14:50:21Z</time>
      </trkpt>
      <trkpt lat="47.9255" lon="3.44267">
        <ele>92</ele>
        <time>2014-04-14T14:50:25Z</time>
      </trkpt>
      <trkpt lat="47.92545" lon="3.44265">
        <ele>92</ele>
        <time>2014-04-14T14:50:30Z</time>
      </trkpt>
      <trkpt lat="47.9254" lon="3.44262">
        <ele>92</ele>
        <time>2014-04-14T14:50:35Z</time>
      </trkpt>
      <trkpt lat="47.92535" lon="3.44261">
        <ele>92</ele>
        <time>2014-04-14T14:50:39Z</time>
      </trkpt>
      <trkpt lat="47.9253" lon="3.4426">
        <ele>93</ele>
        <time>2014-04-14T14:50:43Z</time>
      </trkpt>
      <trkpt lat="47.92521" lon="3.44255">
        <ele>93</ele>
        <time>2014-04-14T14:50:51Z</time>
      </trkpt>
      <trkpt lat="47.92517" lon="3.44254">
        <ele>93</ele>
        <time>2014-04-14T14:50:56Z</time>
      </trkpt>
      <trkpt lat="47.92506" lon="3.44257">
        <ele>94</ele>
        <time>2014-04-14T14:51:05Z</time>
      </trkpt>
      <trkpt lat="47.92501" lon="3.44256">
        <ele>94</ele>
        <time>2014-04-14T14:51:09Z</time>
      </trkpt>
      <trkpt lat="47.92496" lon="3.44254">
        <ele>95</ele>
        <time>2014-04-14T14:51:12Z</time>
      </trkpt>
      <trkpt lat="47.92492" lon="3.44255">
        <ele>94</ele>
        <time>2014-04-14T14:51:16Z</time>
      </trkpt>
      <trkpt lat="47.92487" lon="3.44252">
        <ele>94</ele>
        <time>2014-04-14T14:51:22Z</time>
      </trkpt>
      <trkpt lat="47.92483" lon="3.44248">
        <ele>93</ele>
        <time>2014-04-14T14:51:26Z</time>
      </trkpt>
      <trkpt lat="47.92477" lon="3.44246">
        <ele>93</ele>
        <time>2014-04-14T14:51:30Z</time>
      </trkpt>
      <trkpt lat="47.92467" lon="3.44247">
        <ele>93</ele>
        <time>2014-04-14T14:51:41Z</time>
      </trkpt>
      <trkpt lat="47.92453" lon="3.44244">
        <ele>92</ele>
        <time>2014-04-14T14:51:55Z</time>
      </trkpt>
      <trkpt lat="47.92447" lon="3.44245">
        <ele>92</ele>
        <time>2014-04-14T14:51:59Z</time>
      </trkpt>
      <trkpt lat="47.92442" lon="3.44244">
        <ele>92</ele>
        <time>2014-04-14T14:52:03Z</time>
      </trkpt>
      <trkpt lat="47.92438" lon="3.44241">
        <ele>92</ele>
        <time>2014-04-14T14:52:07Z</time>
      </trkpt>
      <trkpt lat="47.92434" lon="3.44238">
        <ele>92</ele>
        <time>2014-04-14T14:52:11Z</time>
      </trkpt>
      <trkpt lat="47.92429" lon="3.44238">
        <ele>91</ele>
        <time>2014-04-14T14:52:15Z</time>
      </trkpt>
      <trkpt lat="47.92423" lon="3.44237">
        <ele>91</ele>
        <time>2014-04-14T14:52:19Z</time>
      </trkpt>
      <trkpt lat="47.92419" lon="3.44235">
        <ele>91</ele>
        <time>2014-04-14T14:52:23Z</time>
      </trkpt>
      <trkpt lat="47.92414" lon="3.44233">
        <ele>91</ele>
        <time>2014-04-14T14:52:27Z</time>
      </trkpt>
      <trkpt lat="47.9241" lon="3.44229">
        <ele>91</ele>
        <time>2014-04-14T14:52:33Z</time>
      </trkpt>
      <trkpt lat="47.92405" lon="3.44226">
        <ele>91</ele>
        <time>2014-04-14T14:52:38Z</time>
      </trkpt>
      <trkpt lat="47.92401" lon="3.44222">
        <ele>91</ele>
        <time>2014-04-14T14:52:42Z</time>
      </trkpt>
      <trkpt lat="47.92398" lon="3.44217">
        <ele>91</ele>
        <time>2014-04-14T14:53:18Z</time>
      </trkpt>
      <trkpt lat="47.92384" lon="3.44206">
        <ele>91</ele>
        <time>2014-04-14T14:53:30Z</time>
      </trkpt>
      <trkpt lat="47.92379" lon="3.44201">
        <ele>91</ele>
        <time>2014-04-14T14:53:37Z</time>
      </trkpt>
      <trkpt lat="47.92374" lon="3.44197">
        <ele>91</ele>
        <time>2014-04-14T14:53:41Z</time>
      </trkpt>
      <trkpt lat="47.9237" lon="3.44193">
        <ele>91</ele>
        <time>2014-04-14T14:53:46Z</time>
      </trkpt>
      <trkpt lat="47.92365" lon="3.44187">
        <ele>91</ele>
        <time>2014-04-14T14:53:51Z</time>
      </trkpt>
      <trkpt lat="47.92356" lon="3.4418">
        <ele>91</ele>
        <time>2014-04-14T14:53:57Z</time>
      </trkpt>
      <trkpt lat="47.92351" lon="3.44177">
        <ele>91</ele>
        <time>2014-04-14T14:54:03Z</time>
      </trkpt>
      <trkpt lat="47.92341" lon="3.44171">
        <ele>92</ele>
        <time>2014-04-14T14:54:12Z</time>
      </trkpt>
      <trkpt lat="47.92323" lon="3.44153">
        <ele>93</ele>
        <time>2014-04-14T14:54:29Z</time>
      </trkpt>
      <trkpt lat="47.92319" lon="3.44147">
        <ele>93</ele>
        <time>2014-04-14T14:54:33Z</time>
      </trkpt>
      <trkpt lat="47.92306" lon="3.44133">
        <ele>94</ele>
        <time>2014-04-14T14:54:47Z</time>
      </trkpt>
      <trkpt lat="47.92302" lon="3.4413">
        <ele>94</ele>
        <time>2014-04-14T14:54:51Z</time>
      </trkpt>
      <trkpt lat="47.92299" lon="3.44123">
        <ele>94</ele>
        <time>2014-04-14T14:54:55Z</time>
      </trkpt>
      <trkpt lat="47.92289" lon="3.44094">
        <ele>95</ele>
        <time>2014-04-14T14:55:12Z</time>
      </trkpt>
      <trkpt lat="47.92286" lon="3.44089">
        <ele>95</ele>
        <time>2014-04-14T14:55:17Z</time>
      </trkpt>
      <trkpt lat="47.92284" lon="3.44083">
        <ele>96</ele>
        <time>2014-04-14T14:55:24Z</time>
      </trkpt>
      <trkpt lat="47.92278" lon="3.44083">
        <ele>96</ele>
        <time>2014-04-14T14:55:29Z</time>
      </trkpt>
      <trkpt lat="47.92266" lon="3.44087">
        <ele>95</ele>
        <time>2014-04-14T14:55:57Z</time>
      </trkpt>
      <trkpt lat="47.92262" lon="3.44086">
        <ele>95</ele>
        <time>2014-04-14T14:56:02Z</time>
      </trkpt>
      <trkpt lat="47.92242" lon="3.44091">
        <ele>95</ele>
        <time>2014-04-14T14:56:18Z</time>
      </trkpt>
      <trkpt lat="47.92237" lon="3.4409">
        <ele>95</ele>
        <time>2014-04-14T14:56:23Z</time>
      </trkpt>
      <trkpt lat="47.92232" lon="3.44093">
        <ele>95</ele>
        <time>2014-04-14T14:56:28Z</time>
      </trkpt>
      <trkpt lat="47.92223" lon="3.44092">
        <ele>95</ele>
        <time>2014-04-14T14:56:36Z</time>
      </trkpt>
      <trkpt lat="47.92218" lon="3.44094">
        <ele>95</ele>
        <time>2014-04-14T14:56:41Z</time>
      </trkpt>
      <trkpt lat="47.92213" lon="3.44097">
        <ele>95</ele>
        <time>2014-04-14T14:56:46Z</time>
      </trkpt>
      <trkpt lat="47.92208" lon="3.44099">
        <ele>95</ele>
        <time>2014-04-14T14:56:50Z</time>
      </trkpt>
      <trkpt lat="47.92204" lon="3.44101">
        <ele>95</ele>
        <time>2014-04-14T14:56:54Z</time>
      </trkpt>
      <trkpt lat="47.92199" lon="3.44105">
        <ele>95</ele>
        <time>2014-04-14T14:57:00Z</time>
      </trkpt>
      <trkpt lat="47.92195" lon="3.44106">
        <ele>95</ele>
        <time>2014-04-14T14:57:04Z</time>
      </trkpt>
      <trkpt lat="47.9219" lon="3.44106">
        <ele>95</ele>
        <time>2014-04-14T14:57:08Z</time>
      </trkpt>
      <trkpt lat="47.92185" lon="3.44108">
        <ele>95</ele>
        <time>2014-04-14T14:57:12Z</time>
      </trkpt>
      <trkpt lat="47.9218" lon="3.44107">
        <ele>95</ele>
        <time>2014-04-14T14:57:19Z</time>
      </trkpt>
      <trkpt lat="47.92175" lon="3.44109">
        <ele>95</ele>
        <time>2014-04-14T14:57:25Z</time>
      </trkpt>
      <trkpt lat="47.9217" lon="3.44113">
        <ele>95</ele>
        <time>2014-04-14T14:57:29Z</time>
      </trkpt>
      <trkpt lat="47.92164" lon="3.44116">
        <ele>95</ele>
        <time>2014-04-14T14:57:33Z</time>
      </trkpt>
      <trkpt lat="47.92154" lon="3.4412">
        <ele>95</ele>
        <time>2014-04-14T14:57:41Z</time>
      </trkpt>
      <trkpt lat="47.92131" lon="3.44132">
        <ele>95</ele>
        <time>2014-04-14T14:58:01Z</time>
      </trkpt>
      <trkpt lat="47.92126" lon="3.44133">
        <ele>95</ele>
        <time>2014-04-14T14:58:05Z</time>
      </trkpt>
      <trkpt lat="47.92124" lon="3.44135">
        <ele>95</ele>
        <time>2014-04-14T14:58:13Z</time>
      </trkpt>
      <trkpt lat="47.92121" lon="3.44139">
        <ele>95</ele>
        <time>2014-04-14T14:58:37Z</time>
      </trkpt>
      <trkpt lat="47.92091" lon="3.44153">
        <ele>96</ele>
        <time>2014-04-14T14:59:12Z</time>
      </trkpt>
      <trkpt lat="47.92076" lon="3.44159">
        <ele>97</ele>
        <time>2014-04-14T14:59:25Z</time>
      </trkpt>
      <trkpt lat="47.92065" lon="3.44162">
        <ele>97</ele>
        <time>2014-04-14T14:59:35Z</time>
      </trkpt>
      <trkpt lat="47.92055" lon="3.44168">
        <ele>96</ele>
        <time>2014-04-14T14:59:45Z</time>
      </trkpt>
      <trkpt lat="47.92051" lon="3.44171">
        <ele>96</ele>
        <time>2014-04-14T14:59:49Z</time>
      </trkpt>
      <trkpt lat="47.92041" lon="3.44174">
        <ele>97</ele>
        <time>2014-04-14T14:59:58Z</time>
      </trkpt>
      <trkpt lat="47.92038" lon="3.44179">
        <ele>97</ele>
        <time>2014-04-14T15:00:05Z</time>
      </trkpt>
      <trkpt lat="47.92033" lon="3.44182">
        <ele>97</ele>
        <time>2014-04-14T15:00:10Z</time>
      </trkpt>
      <trkpt lat="47.92028" lon="3.44184">
        <ele>97</ele>
        <time>2014-04-14T15:00:13Z</time>
      </trkpt>
      <trkpt lat="47.92015" lon="3.44192">
        <ele>97</ele>
        <time>2014-04-14T15:00:26Z</time>
      </trkpt>
      <trkpt lat="47.92005" lon="3.44195">
        <ele>97</ele>
        <time>2014-04-14T15:00:34Z</time>
      </trkpt>
      <trkpt lat="47.91996" lon="3.442">
        <ele>98</ele>
        <time>2014-04-14T15:00:41Z</time>
      </trkpt>
      <trkpt lat="47.91991" lon="3.44202">
        <ele>98</ele>
        <time>2014-04-14T15:00:46Z</time>
      </trkpt>
      <trkpt lat="47.91987" lon="3.44206">
        <ele>98</ele>
        <time>2014-04-14T15:00:50Z</time>
      </trkpt>
      <trkpt lat="47.91984" lon="3.4421">
        <ele>98</ele>
        <time>2014-04-14T15:00:54Z</time>
      </trkpt>
      <trkpt lat="47.91971" lon="3.4422">
        <ele>98</ele>
        <time>2014-04-14T15:01:06Z</time>
      </trkpt>
      <trkpt lat="47.91967" lon="3.44224">
        <ele>98</ele>
        <time>2014-04-14T15:01:09Z</time>
      </trkpt>
      <trkpt lat="47.91962" lon="3.44226">
        <ele>99</ele>
        <time>2014-04-14T15:01:14Z</time>
      </trkpt>
      <trkpt lat="47.91958" lon="3.44229">
        <ele>99</ele>
        <time>2014-04-14T15:01:19Z</time>
      </trkpt>
      <trkpt lat="47.91953" lon="3.44231">
        <ele>99</ele>
        <time>2014-04-14T15:01:23Z</time>
      </trkpt>
      <trkpt lat="47.91948" lon="3.44232">
        <ele>99</ele>
        <time>2014-04-14T15:01:27Z</time>
      </trkpt>
      <trkpt lat="47.91934" lon="3.44238">
        <ele>99</ele>
        <time>2014-04-14T15:01:40Z</time>
      </trkpt>
      <trkpt lat="47.9193" lon="3.44242">
        <ele>99</ele>
        <time>2014-04-14T15:01:44Z</time>
      </trkpt>
      <trkpt lat="47.91926" lon="3.44244">
        <ele>100</ele>
        <time>2014-04-14T15:01:48Z</time>
      </trkpt>
      <trkpt lat="47.91916" lon="3.4425">
        <ele>100</ele>
        <time>2014-04-14T15:01:58Z</time>
      </trkpt>
      <trkpt lat="47.91906" lon="3.44254">
        <ele>100</ele>
        <time>2014-04-14T15:02:07Z</time>
      </trkpt>
      <trkpt lat="47.91901" lon="3.44255">
        <ele>100</ele>
        <time>2014-04-14T15:02:11Z</time>
      </trkpt>
      <trkpt lat="47.91896" lon="3.44257">
        <ele>100</ele>
        <time>2014-04-14T15:02:15Z</time>
      </trkpt>
      <trkpt lat="47.91888" lon="3.44266">
        <ele>100</ele>
        <time>2014-04-14T15:02:25Z</time>
      </trkpt>
      <trkpt lat="47.91872" lon="3.44269">
        <ele>100</ele>
        <time>2014-04-14T15:02:39Z</time>
      </trkpt>
      <trkpt lat="47.91866" lon="3.44269">
        <ele>100</ele>
        <time>2014-04-14T15:02:42Z</time>
      </trkpt>
      <trkpt lat="47.91862" lon="3.44271">
        <ele>100</ele>
        <time>2014-04-14T15:02:45Z</time>
      </trkpt>
      <trkpt lat="47.91858" lon="3.44273">
        <ele>100</ele>
        <time>2014-04-14T15:02:48Z</time>
      </trkpt>
      <trkpt lat="47.91854" lon="3.44277">
        <ele>100</ele>
        <time>2014-04-14T15:02:53Z</time>
      </trkpt>
      <trkpt lat="47.91834" lon="3.44288">
        <ele>100</ele>
        <time>2014-04-14T15:03:11Z</time>
      </trkpt>
      <trkpt lat="47.9183" lon="3.44293">
        <ele>101</ele>
        <time>2014-04-14T15:03:18Z</time>
      </trkpt>
      <trkpt lat="47.91817" lon="3.443">
        <ele>101</ele>
        <time>2014-04-14T15:03:30Z</time>
      </trkpt>
      <trkpt lat="47.91812" lon="3.44302">
        <ele>101</ele>
        <time>2014-04-14T15:03:35Z</time>
      </trkpt>
      <trkpt lat="47.91794" lon="3.44305">
        <ele>102</ele>
        <time>2014-04-14T15:03:47Z</time>
      </trkpt>
      <trkpt lat="47.91784" lon="3.44306">
        <ele>102</ele>
        <time>2014-04-14T15:03:55Z</time>
      </trkpt>
      <trkpt lat="47.91779" lon="3.44307">
        <ele>102</ele>
        <time>2014-04-14T15:04:00Z</time>
      </trkpt>
      <trkpt lat="47.91774" lon="3.44308">
        <ele>102</ele>
        <time>2014-04-14T15:04:04Z</time>
      </trkpt>
      <trkpt lat="47.91756" lon="3.44313">
        <ele>102</ele>
        <time>2014-04-14T15:04:22Z</time>
      </trkpt>
      <trkpt lat="47.91747" lon="3.44314">
        <ele>103</ele>
        <time>2014-04-14T15:04:30Z</time>
      </trkpt>
      <trkpt lat="47.91742" lon="3.44318">
        <ele>103</ele>
        <time>2014-04-14T15:04:35Z</time>
      </trkpt>
      <trkpt lat="47.91738" lon="3.44318">
        <ele>103</ele>
        <time>2014-04-14T15:04:39Z</time>
      </trkpt>
      <trkpt lat="47.91733" lon="3.44317">
        <ele>103</ele>
        <time>2014-04-14T15:04:42Z</time>
      </trkpt>
      <trkpt lat="47.91728" lon="3.44317">
        <ele>103</ele>
        <time>2014-04-14T15:04:45Z</time>
      </trkpt>
      <trkpt lat="47.91719" lon="3.44319">
        <ele>103</ele>
        <time>2014-04-14T15:04:53Z</time>
      </trkpt>
      <trkpt lat="47.91699" lon="3.44321">
        <ele>104</ele>
        <time>2014-04-14T15:05:12Z</time>
      </trkpt>
      <trkpt lat="47.91688" lon="3.44316">
        <ele>104</ele>
        <time>2014-04-14T15:05:20Z</time>
      </trkpt>
      <trkpt lat="47.91673" lon="3.44318">
        <ele>104</ele>
        <time>2014-04-14T15:05:32Z</time>
      </trkpt>
      <trkpt lat="47.91668" lon="3.44322">
        <ele>104</ele>
        <time>2014-04-14T15:05:36Z</time>
      </trkpt>
      <trkpt lat="47.91653" lon="3.44325">
        <ele>104</ele>
        <time>2014-04-14T15:05:49Z</time>
      </trkpt>
      <trkpt lat="47.91648" lon="3.44323">
        <ele>104</ele>
        <time>2014-04-14T15:05:53Z</time>
      </trkpt>
      <trkpt lat="47.91643" lon="3.44323">
        <ele>104</ele>
        <time>2014-04-14T15:05:59Z</time>
      </trkpt>
      <trkpt lat="47.91639" lon="3.44319">
        <ele>104</ele>
        <time>2014-04-14T15:06:03Z</time>
      </trkpt>
      <trkpt lat="47.91634" lon="3.4432">
        <ele>104</ele>
        <time>2014-04-14T15:06:07Z</time>
      </trkpt>
      <trkpt lat="47.91624" lon="3.44321">
        <ele>104</ele>
        <time>2014-04-14T15:06:15Z</time>
      </trkpt>
      <trkpt lat="47.91619" lon="3.4432">
        <ele>104</ele>
        <time>2014-04-14T15:06:19Z</time>
      </trkpt>
      <trkpt lat="47.91614" lon="3.44319">
        <ele>104</ele>
        <time>2014-04-14T15:06:24Z</time>
      </trkpt>
      <trkpt lat="47.91609" lon="3.44318">
        <ele>104</ele>
        <time>2014-04-14T15:06:28Z</time>
      </trkpt>
      <trkpt lat="47.91594" lon="3.4432">
        <ele>104</ele>
        <time>2014-04-14T15:06:41Z</time>
      </trkpt>
      <trkpt lat="47.91563" lon="3.4432">
        <ele>104</ele>
        <time>2014-04-14T15:07:07Z</time>
      </trkpt>
      <trkpt lat="47.91558" lon="3.44319">
        <ele>104</ele>
        <time>2014-04-14T15:07:11Z</time>
      </trkpt>
      <trkpt lat="47.91542" lon="3.44318">
        <ele>104</ele>
        <time>2014-04-14T15:07:30Z</time>
      </trkpt>
      <trkpt lat="47.9154" lon="3.44317">
        <ele>104</ele>
        <time>2014-04-14T15:07:36Z</time>
      </trkpt>
      <trkpt lat="47.91535" lon="3.44318">
        <ele>104</ele>
        <time>2014-04-14T15:07:47Z</time>
      </trkpt>
      <trkpt lat="47.91531" lon="3.44317">
        <ele>104</ele>
        <time>2014-04-14T15:07:51Z</time>
      </trkpt>
      <trkpt lat="47.91526" lon="3.44317">
        <ele>104</ele>
        <time>2014-04-14T15:07:56Z</time>
      </trkpt>
      <trkpt lat="47.9152" lon="3.44314">
        <ele>104</ele>
        <time>2014-04-14T15:08:01Z</time>
      </trkpt>
      <trkpt lat="47.91516" lon="3.44314">
        <ele>104</ele>
        <time>2014-04-14T15:08:07Z</time>
      </trkpt>
      <trkpt lat="47.9151" lon="3.44307">
        <ele>104</ele>
        <time>2014-04-14T15:08:17Z</time>
      </trkpt>
      <trkpt lat="47.91504" lon="3.44306">
        <ele>104</ele>
        <time>2014-04-14T15:08:22Z</time>
      </trkpt>
      <trkpt lat="47.91485" lon="3.44306">
        <ele>103</ele>
        <time>2014-04-14T15:08:53Z</time>
      </trkpt>
      <trkpt lat="47.9148" lon="3.44308">
        <ele>103</ele>
        <time>2014-04-14T15:08:58Z</time>
      </trkpt>
      <trkpt lat="47.91475" lon="3.44307">
        <ele>103</ele>
        <time>2014-04-14T15:09:02Z</time>
      </trkpt>
      <trkpt lat="47.91469" lon="3.44308">
        <ele>103</ele>
        <time>2014-04-14T15:09:06Z</time>
      </trkpt>
      <trkpt lat="47.91464" lon="3.44307">
        <ele>103</ele>
        <time>2014-04-14T15:09:11Z</time>
      </trkpt>
      <trkpt lat="47.91459" lon="3.44306">
        <ele>103</ele>
        <time>2014-04-14T15:09:15Z</time>
      </trkpt>
      <trkpt lat="47.91454" lon="3.44307">
        <ele>103</ele>
        <time>2014-04-14T15:09:20Z</time>
      </trkpt>
      <trkpt lat="47.91449" lon="3.44307">
        <ele>103</ele>
        <time>2014-04-14T15:09:25Z</time>
      </trkpt>
      <trkpt lat="47.91443" lon="3.44304">
        <ele>103</ele>
        <time>2014-04-14T15:09:30Z</time>
      </trkpt>
      <trkpt lat="47.91438" lon="3.44303">
        <ele>103</ele>
        <time>2014-04-14T15:09:34Z</time>
      </trkpt>
      <trkpt lat="47.91433" lon="3.44303">
        <ele>103</ele>
        <time>2014-04-14T15:09:38Z</time>
      </trkpt>
      <trkpt lat="47.91422" lon="3.44303">
        <ele>103</ele>
        <time>2014-04-14T15:09:45Z</time>
      </trkpt>
      <trkpt lat="47.91418" lon="3.44302">
        <ele>103</ele>
        <time>2014-04-14T15:09:49Z</time>
      </trkpt>
      <trkpt lat="47.91408" lon="3.44298">
        <ele>103</ele>
        <time>2014-04-14T15:09:58Z</time>
      </trkpt>
      <trkpt lat="47.91392" lon="3.44294">
        <ele>102</ele>
        <time>2014-04-14T15:10:13Z</time>
      </trkpt>
      <trkpt lat="47.91387" lon="3.44295">
        <ele>102</ele>
        <time>2014-04-14T15:10:16Z</time>
      </trkpt>
      <trkpt lat="47.91382" lon="3.44297">
        <ele>102</ele>
        <time>2014-04-14T15:10:20Z</time>
      </trkpt>
      <trkpt lat="47.91377" lon="3.44296">
        <ele>102</ele>
        <time>2014-04-14T15:10:25Z</time>
      </trkpt>
      <trkpt lat="47.91372" lon="3.44298">
        <ele>102</ele>
        <time>2014-04-14T15:10:29Z</time>
      </trkpt>
      <trkpt lat="47.91367" lon="3.44299">
        <ele>102</ele>
        <time>2014-04-14T15:10:33Z</time>
      </trkpt>
      <trkpt lat="47.91362" lon="3.44298">
        <ele>102</ele>
        <time>2014-04-14T15:10:38Z</time>
      </trkpt>
      <trkpt lat="47.91358" lon="3.44295">
        <ele>102</ele>
        <time>2014-04-14T15:10:45Z</time>
      </trkpt>
      <trkpt lat="47.91349" lon="3.44284">
        <ele>102</ele>
        <time>2014-04-14T15:10:54Z</time>
      </trkpt>
      <trkpt lat="47.91349" lon="3.44277">
        <ele>102</ele>
        <time>2014-04-14T15:10:59Z</time>
      </trkpt>
      <trkpt lat="47.91352" lon="3.44267">
        <ele>102</ele>
        <time>2014-04-14T15:11:05Z</time>
      </trkpt>
      <trkpt lat="47.9136" lon="3.44212">
        <ele>103</ele>
        <time>2014-04-14T15:11:33Z</time>
      </trkpt>
      <trkpt lat="47.91359" lon="3.44203">
        <ele>103</ele>
        <time>2014-04-14T15:11:41Z</time>
      </trkpt>
      <trkpt lat="47.9136" lon="3.44196">
        <ele>103</ele>
        <time>2014-04-14T15:11:44Z</time>
      </trkpt>
      <trkpt lat="47.91364" lon="3.44173">
        <ele>103</ele>
        <time>2014-04-14T15:12:00Z</time>
      </trkpt>
      <trkpt lat="47.91364" lon="3.44165">
        <ele>104</ele>
        <time>2014-04-14T15:12:05Z</time>
      </trkpt>
      <trkpt lat="47.9136" lon="3.44161">
        <ele>104</ele>
        <time>2014-04-14T15:12:09Z</time>
      </trkpt>
      <trkpt lat="47.91355" lon="3.44159">
        <ele>104</ele>
        <time>2014-04-14T15:12:13Z</time>
      </trkpt>
      <trkpt lat="47.91349" lon="3.44158">
        <ele>104</ele>
        <time>2014-04-14T15:12:16Z</time>
      </trkpt>
      <trkpt lat="47.91344" lon="3.44154">
        <ele>104</ele>
        <time>2014-04-14T15:12:20Z</time>
      </trkpt>
      <trkpt lat="47.91339" lon="3.44154">
        <ele>104</ele>
        <time>2014-04-14T15:12:26Z</time>
      </trkpt>
      <trkpt lat="47.91333" lon="3.44155">
        <ele>103</ele>
        <time>2014-04-14T15:12:30Z</time>
      </trkpt>
      <trkpt lat="47.91324" lon="3.44155">
        <ele>103</ele>
        <time>2014-04-14T15:12:37Z</time>
      </trkpt>
      <trkpt lat="47.91315" lon="3.4415">
        <ele>104</ele>
        <time>2014-04-14T15:12:41Z</time>
      </trkpt>
      <trkpt lat="47.91309" lon="3.44148">
        <ele>104</ele>
        <time>2014-04-14T15:12:45Z</time>
      </trkpt>
      <trkpt lat="47.91294" lon="3.44148">
        <ele>104</ele>
        <time>2014-04-14T15:13:02Z</time>
      </trkpt>
      <trkpt lat="47.91284" lon="3.44147">
        <ele>104</ele>
        <time>2014-04-14T15:13:08Z</time>
      </trkpt>
      <trkpt lat="47.91278" lon="3.44145">
        <ele>104</ele>
        <time>2014-04-14T15:13:15Z</time>
      </trkpt>
      <trkpt lat="47.91273" lon="3.44145">
        <ele>103</ele>
        <time>2014-04-14T15:13:21Z</time>
      </trkpt>
      <trkpt lat="47.91261" lon="3.44141">
        <ele>103</ele>
        <time>2014-04-14T15:13:28Z</time>
      </trkpt>
      <trkpt lat="47.91256" lon="3.44141">
        <ele>103</ele>
        <time>2014-04-14T15:13:33Z</time>
      </trkpt>
      <trkpt lat="47.91226" lon="3.44134">
        <ele>104</ele>
        <time>2014-04-14T15:14:03Z</time>
      </trkpt>
      <trkpt lat="47.91222" lon="3.44133">
        <ele>104</ele>
        <time>2014-04-14T15:14:12Z</time>
      </trkpt>
      <trkpt lat="47.91218" lon="3.4413">
        <ele>104</ele>
        <time>2014-04-14T15:14:26Z</time>
      </trkpt>
      <trkpt lat="47.91202" lon="3.44124">
        <ele>104</ele>
        <time>2014-04-14T15:14:39Z</time>
      </trkpt>
      <trkpt lat="47.91197" lon="3.44125">
        <ele>104</ele>
        <time>2014-04-14T15:14:44Z</time>
      </trkpt>
      <trkpt lat="47.9119" lon="3.44124">
        <ele>104</ele>
        <time>2014-04-14T15:15:02Z</time>
      </trkpt>
      <trkpt lat="47.91184" lon="3.44124">
        <ele>104</ele>
        <time>2014-04-14T15:15:05Z</time>
      </trkpt>
      <trkpt lat="47.91178" lon="3.44124">
        <ele>104</ele>
        <time>2014-04-14T15:15:08Z</time>
      </trkpt>
      <trkpt lat="47.91173" lon="3.44122">
        <ele>104</ele>
        <time>2014-04-14T15:15:12Z</time>
      </trkpt>
      <trkpt lat="47.91168" lon="3.44119">
        <ele>104</ele>
        <time>2014-04-14T15:15:17Z</time>
      </trkpt>
      <trkpt lat="47.91163" lon="3.44117">
        <ele>104</ele>
        <time>2014-04-14T15:15:21Z</time>
      </trkpt>
      <trkpt lat="47.91157" lon="3.44116">
        <ele>104</ele>
        <time>2014-04-14T15:15:24Z</time>
      </trkpt>
      <trkpt lat="47.91154" lon="3.44113">
        <ele>104</ele>
        <time>2014-04-14T15:16:48Z</time>
      </trkpt>
      <trkpt lat="47.91149" lon="3.44112">
        <ele>104</ele>
        <time>2014-04-14T15:16:53Z</time>
      </trkpt>
      <trkpt lat="47.91144" lon="3.44111">
        <ele>104</ele>
        <time>2014-04-14T15:16:58Z</time>
      </trkpt>
      <trkpt lat="47.91139" lon="3.44109">
        <ele>104</ele>
        <time>2014-04-14T15:17:03Z</time>
      </trkpt>
      <trkpt lat="47.9113" lon="3.44107">
        <ele>105</ele>
        <time>2014-04-14T15:17:13Z</time>
      </trkpt>
      <trkpt lat="47.91128" lon="3.44105">
        <ele>105</ele>
        <time>2014-04-14T15:17:51Z</time>
      </trkpt>
      <trkpt lat="47.91123" lon="3.44105">
        <ele>105</ele>
        <time>2014-04-14T15:17:56Z</time>
      </trkpt>
      <trkpt lat="47.91118" lon="3.44103">
        <ele>105</ele>
        <time>2014-04-14T15:18:01Z</time>
      </trkpt>
      <trkpt lat="47.91113" lon="3.44102">
        <ele>105</ele>
        <time>2014-04-14T15:18:05Z</time>
      </trkpt>
      <trkpt lat="47.91107" lon="3.44101">
        <ele>105</ele>
        <time>2014-04-14T15:18:13Z</time>
      </trkpt>
      <trkpt lat="47.91101" lon="3.44101">
        <ele>105</ele>
        <time>2014-04-14T15:18:17Z</time>
      </trkpt>
      <trkpt lat="47.91096" lon="3.44099">
        <ele>105</ele>
        <time>2014-04-14T15:18:21Z</time>
      </trkpt>
      <trkpt lat="47.91093" lon="3.44099">
        <ele>105</ele>
        <time>2014-04-14T15:18:30Z</time>
      </trkpt>
      <trkpt lat="47.91089" lon="3.44097">
        <ele>105</ele>
        <time>2014-04-14T15:18:39Z</time>
      </trkpt>
      <trkpt lat="47.91084" lon="3.44096">
        <ele>105</ele>
        <time>2014-04-14T15:18:43Z</time>
      </trkpt>
      <trkpt lat="47.91073" lon="3.44096">
        <ele>105</ele>
        <time>2014-04-14T15:18:52Z</time>
      </trkpt>
      <trkpt lat="47.91067" lon="3.44096">
        <ele>105</ele>
        <time>2014-04-14T15:18:55Z</time>
      </trkpt>
      <trkpt lat="47.91062" lon="3.44099">
        <ele>105</ele>
        <time>2014-04-14T15:18:59Z</time>
      </trkpt>
      <trkpt lat="47.91058" lon="3.44095">
        <ele>105</ele>
        <time>2014-04-14T15:19:06Z</time>
      </trkpt>
      <trkpt lat="47.91043" lon="3.44087">
        <ele>105</ele>
        <time>2014-04-14T15:19:20Z</time>
      </trkpt>
      <trkpt lat="47.91038" lon="3.44084">
        <ele>105</ele>
        <time>2014-04-14T15:19:24Z</time>
      </trkpt>
      <trkpt lat="47.91028" lon="3.44084">
        <ele>105</ele>
        <time>2014-04-14T15:19:33Z</time>
      </trkpt>
      <trkpt lat="47.91017" lon="3.44081">
        <ele>106</ele>
        <time>2014-04-14T15:19:42Z</time>
      </trkpt>
      <trkpt lat="47.91012" lon="3.4408">
        <ele>106</ele>
        <time>2014-04-14T15:19:46Z</time>
      </trkpt>
      <trkpt lat="47.91007" lon="3.44078">
        <ele>105</ele>
        <time>2014-04-14T15:19:52Z</time>
      </trkpt>
      <trkpt lat="47.91002" lon="3.44079">
        <ele>105</ele>
        <time>2014-04-14T15:19:57Z</time>
      </trkpt>
      <trkpt lat="47.90997" lon="3.44077">
        <ele>105</ele>
        <time>2014-04-14T15:20:03Z</time>
      </trkpt>
      <trkpt lat="47.90992" lon="3.44075">
        <ele>105</ele>
        <time>2014-04-14T15:20:06Z</time>
      </trkpt>
      <trkpt lat="47.90982" lon="3.44073">
        <ele>105</ele>
        <time>2014-04-14T15:20:14Z</time>
      </trkpt>
      <trkpt lat="47.90978" lon="3.44071">
        <ele>105</ele>
        <time>2014-04-14T15:20:18Z</time>
      </trkpt>
      <trkpt lat="47.90974" lon="3.44066">
        <ele>105</ele>
        <time>2014-04-14T15:20:23Z</time>
      </trkpt>
      <trkpt lat="47.9097" lon="3.44062">
        <ele>105</ele>
        <time>2014-04-14T15:20:27Z</time>
      </trkpt>
      <trkpt lat="47.90965" lon="3.44061">
        <ele>105</ele>
        <time>2014-04-14T15:20:32Z</time>
      </trkpt>
      <trkpt lat="47.90956" lon="3.44052">
        <ele>105</ele>
        <time>2014-04-14T15:20:39Z</time>
      </trkpt>
      <trkpt lat="47.90951" lon="3.44051">
        <ele>105</ele>
        <time>2014-04-14T15:20:43Z</time>
      </trkpt>
      <trkpt lat="47.90946" lon="3.44051">
        <ele>105</ele>
        <time>2014-04-14T15:20:50Z</time>
      </trkpt>
      <trkpt lat="47.90941" lon="3.44051">
        <ele>105</ele>
        <time>2014-04-14T15:20:55Z</time>
      </trkpt>
      <trkpt lat="47.90932" lon="3.44045">
        <ele>105</ele>
        <time>2014-04-14T15:21:03Z</time>
      </trkpt>
      <trkpt lat="47.90923" lon="3.44045">
        <ele>105</ele>
        <time>2014-04-14T15:21:11Z</time>
      </trkpt>
      <trkpt lat="47.90913" lon="3.44041">
        <ele>104</ele>
        <time>2014-04-14T15:21:18Z</time>
      </trkpt>
      <trkpt lat="47.90908" lon="3.44042">
        <ele>104</ele>
        <time>2014-04-14T15:21:23Z</time>
      </trkpt>
      <trkpt lat="47.90903" lon="3.4404">
        <ele>104</ele>
        <time>2014-04-14T15:21:28Z</time>
      </trkpt>
      <trkpt lat="47.90898" lon="3.4404">
        <ele>104</ele>
        <time>2014-04-14T15:21:31Z</time>
      </trkpt>
      <trkpt lat="47.90892" lon="3.44041">
        <ele>103</ele>
        <time>2014-04-14T15:21:34Z</time>
      </trkpt>
      <trkpt lat="47.90888" lon="3.44038">
        <ele>104</ele>
        <time>2014-04-14T15:21:39Z</time>
      </trkpt>
      <trkpt lat="47.90884" lon="3.44032">
        <ele>104</ele>
        <time>2014-04-14T15:21:44Z</time>
      </trkpt>
      <trkpt lat="47.9088" lon="3.44031">
        <ele>103</ele>
        <time>2014-04-14T15:21:49Z</time>
      </trkpt>
      <trkpt lat="47.90875" lon="3.44028">
        <ele>103</ele>
        <time>2014-04-14T15:21:54Z</time>
      </trkpt>
      <trkpt lat="47.90865" lon="3.44025">
        <ele>103</ele>
        <time>2014-04-14T15:22:03Z</time>
      </trkpt>
      <trkpt lat="47.90861" lon="3.44022">
        <ele>103</ele>
        <time>2014-04-14T15:22:07Z</time>
      </trkpt>
      <trkpt lat="47.90856" lon="3.44018">
        <ele>103</ele>
        <time>2014-04-14T15:22:12Z</time>
      </trkpt>
      <trkpt lat="47.90851" lon="3.44016">
        <ele>103</ele>
        <time>2014-04-14T15:22:17Z</time>
      </trkpt>
      <trkpt lat="47.90846" lon="3.44013">
        <ele>103</ele>
        <time>2014-04-14T15:22:21Z</time>
      </trkpt>
      <trkpt lat="47.90842" lon="3.44009">
        <ele>103</ele>
        <time>2014-04-14T15:22:26Z</time>
      </trkpt>
      <trkpt lat="47.90836" lon="3.44009">
        <ele>103</ele>
        <time>2014-04-14T15:22:30Z</time>
      </trkpt>
      <trkpt lat="47.9083" lon="3.44011">
        <ele>102</ele>
        <time>2014-04-14T15:22:34Z</time>
      </trkpt>
      <trkpt lat="47.90827" lon="3.44006">
        <ele>102</ele>
        <time>2014-04-14T15:22:44Z</time>
      </trkpt>
      <trkpt lat="47.90819" lon="3.44">
        <ele>103</ele>
        <time>2014-04-14T15:22:54Z</time>
      </trkpt>
      <trkpt lat="47.90813" lon="3.44">
        <ele>102</ele>
        <time>2014-04-14T15:22:58Z</time>
      </trkpt>
      <trkpt lat="47.90808" lon="3.43998">
        <ele>103</ele>
        <time>2014-04-14T15:23:03Z</time>
      </trkpt>
      <trkpt lat="47.90799" lon="3.43991">
        <ele>103</ele>
        <time>2014-04-14T15:23:12Z</time>
      </trkpt>
      <trkpt lat="47.90794" lon="3.43991">
        <ele>103</ele>
        <time>2014-04-14T15:23:16Z</time>
      </trkpt>
      <trkpt lat="47.90789" lon="3.43988">
        <ele>103</ele>
        <time>2014-04-14T15:23:21Z</time>
      </trkpt>
      <trkpt lat="47.90786" lon="3.43982">
        <ele>103</ele>
        <time>2014-04-14T15:23:25Z</time>
      </trkpt>
      <trkpt lat="47.90781" lon="3.4398">
        <ele>103</ele>
        <time>2014-04-14T15:23:29Z</time>
      </trkpt>
      <trkpt lat="47.90776" lon="3.43979">
        <ele>103</ele>
        <time>2014-04-14T15:23:33Z</time>
      </trkpt>
      <trkpt lat="47.90772" lon="3.43978">
        <ele>103</ele>
        <time>2014-04-14T15:23:38Z</time>
      </trkpt>
      <trkpt lat="47.90767" lon="3.43977">
        <ele>103</ele>
        <time>2014-04-14T15:23:42Z</time>
      </trkpt>
      <trkpt lat="47.90763" lon="3.43974">
        <ele>103</ele>
        <time>2014-04-14T15:23:45Z</time>
      </trkpt>
      <trkpt lat="47.90753" lon="3.43967">
        <ele>103</ele>
        <time>2014-04-14T15:23:55Z</time>
      </trkpt>
      <trkpt lat="47.9075" lon="3.43962">
        <ele>104</ele>
        <time>2014-04-14T15:24:02Z</time>
      </trkpt>
      <trkpt lat="47.90745" lon="3.4396">
        <ele>104</ele>
        <time>2014-04-14T15:24:06Z</time>
      </trkpt>
      <trkpt lat="47.9074" lon="3.4396">
        <ele>104</ele>
        <time>2014-04-14T15:24:10Z</time>
      </trkpt>
      <trkpt lat="47.90735" lon="3.43961">
        <ele>104</ele>
        <time>2014-04-14T15:24:13Z</time>
      </trkpt>
      <trkpt lat="47.9073" lon="3.43961">
        <ele>104</ele>
        <time>2014-04-14T15:24:16Z</time>
      </trkpt>
      <trkpt lat="47.90722" lon="3.43956">
        <ele>104</ele>
        <time>2014-04-14T15:24:24Z</time>
      </trkpt>
      <trkpt lat="47.90719" lon="3.43951">
        <ele>104</ele>
        <time>2014-04-14T15:24:29Z</time>
      </trkpt>
      <trkpt lat="47.90714" lon="3.43948">
        <ele>104</ele>
        <time>2014-04-14T15:24:34Z</time>
      </trkpt>
      <trkpt lat="47.90709" lon="3.43949">
        <ele>104</ele>
        <time>2014-04-14T15:24:38Z</time>
      </trkpt>
      <trkpt lat="47.90704" lon="3.4395">
        <ele>104</ele>
        <time>2014-04-14T15:24:42Z</time>
      </trkpt>
      <trkpt lat="47.907" lon="3.43945">
        <ele>104</ele>
        <time>2014-04-14T15:25:24Z</time>
      </trkpt>
      <trkpt lat="47.9069" lon="3.43942">
        <ele>104</ele>
        <time>2014-04-14T15:25:36Z</time>
      </trkpt>
      <trkpt lat="47.90686" lon="3.4394">
        <ele>105</ele>
        <time>2014-04-14T15:25:40Z</time>
      </trkpt>
      <trkpt lat="47.90681" lon="3.43938">
        <ele>105</ele>
        <time>2014-04-14T15:25:44Z</time>
      </trkpt>
      <trkpt lat="47.90675" lon="3.43937">
        <ele>105</ele>
        <time>2014-04-14T15:25:49Z</time>
      </trkpt>
      <trkpt lat="47.90665" lon="3.43932">
        <ele>105</ele>
        <time>2014-04-14T15:25:58Z</time>
      </trkpt>
      <trkpt lat="47.90661" lon="3.43929">
        <ele>105</ele>
        <time>2014-04-14T15:26:02Z</time>
      </trkpt>
      <trkpt lat="47.90656" lon="3.43927">
        <ele>105</ele>
        <time>2014-04-14T15:26:06Z</time>
      </trkpt>
      <trkpt lat="47.90652" lon="3.43922">
        <ele>105</ele>
        <time>2014-04-14T15:26:11Z</time>
      </trkpt>
      <trkpt lat="47.90647" lon="3.43919">
        <ele>105</ele>
        <time>2014-04-14T15:26:15Z</time>
      </trkpt>
      <trkpt lat="47.90642" lon="3.43918">
        <ele>105</ele>
        <time>2014-04-14T15:26:19Z</time>
      </trkpt>
      <trkpt lat="47.90638" lon="3.43917">
        <ele>105</ele>
        <time>2014-04-14T15:26:23Z</time>
      </trkpt>
      <trkpt lat="47.90633" lon="3.43917">
        <ele>105</ele>
        <time>2014-04-14T15:26:27Z</time>
      </trkpt>
      <trkpt lat="47.90629" lon="3.43915">
        <ele>106</ele>
        <time>2014-04-14T15:26:31Z</time>
      </trkpt>
      <trkpt lat="47.9062" lon="3.4391">
        <ele>106</ele>
        <time>2014-04-14T15:26:39Z</time>
      </trkpt>
      <trkpt lat="47.90615" lon="3.43907">
        <ele>106</ele>
        <time>2014-04-14T15:26:43Z</time>
      </trkpt>
      <trkpt lat="47.9061" lon="3.43904">
        <ele>106</ele>
        <time>2014-04-14T15:26:47Z</time>
      </trkpt>
      <trkpt lat="47.90601" lon="3.43901">
        <ele>106</ele>
        <time>2014-04-14T15:26:59Z</time>
      </trkpt>
      <trkpt lat="47.90597" lon="3.43897">
        <ele>106</ele>
        <time>2014-04-14T15:27:05Z</time>
      </trkpt>
      <trkpt lat="47.90591" lon="3.43895">
        <ele>106</ele>
        <time>2014-04-14T15:27:10Z</time>
      </trkpt>
      <trkpt lat="47.90586" lon="3.43891">
        <ele>106</ele>
        <time>2014-04-14T15:27:14Z</time>
      </trkpt>
      <trkpt lat="47.90582" lon="3.43889">
        <ele>106</ele>
        <time>2014-04-14T15:27:18Z</time>
      </trkpt>
      <trkpt lat="47.90577" lon="3.43889">
        <ele>106</ele>
        <time>2014-04-14T15:27:22Z</time>
      </trkpt>
      <trkpt lat="47.90571" lon="3.43884">
        <ele>106</ele>
        <time>2014-04-14T15:27:35Z</time>
      </trkpt>
      <trkpt lat="47.90566" lon="3.43881">
        <ele>106</ele>
        <time>2014-04-14T15:27:39Z</time>
      </trkpt>
      <trkpt lat="47.9056" lon="3.4388">
        <ele>106</ele>
        <time>2014-04-14T15:27:43Z</time>
      </trkpt>
      <trkpt lat="47.90556" lon="3.43876">
        <ele>106</ele>
        <time>2014-04-14T15:27:48Z</time>
      </trkpt>
      <trkpt lat="47.90551" lon="3.43874">
        <ele>106</ele>
        <time>2014-04-14T15:27:52Z</time>
      </trkpt>
      <trkpt lat="47.90546" lon="3.43872">
        <ele>106</ele>
        <time>2014-04-14T15:27:56Z</time>
      </trkpt>
      <trkpt lat="47.90526" lon="3.43862">
        <ele>106</ele>
        <time>2014-04-14T15:28:14Z</time>
      </trkpt>
      <trkpt lat="47.90521" lon="3.43862">
        <ele>106</ele>
        <time>2014-04-14T15:28:18Z</time>
      </trkpt>
      <trkpt lat="47.90512" lon="3.4386">
        <ele>106</ele>
        <time>2014-04-14T15:28:27Z</time>
      </trkpt>
      <trkpt lat="47.90507" lon="3.43857">
        <ele>106</ele>
        <time>2014-04-14T15:28:31Z</time>
      </trkpt>
      <trkpt lat="47.90503" lon="3.43856">
        <ele>106</ele>
        <time>2014-04-14T15:28:35Z</time>
      </trkpt>
      <trkpt lat="47.90498" lon="3.43853">
        <ele>106</ele>
        <time>2014-04-14T15:28:40Z</time>
      </trkpt>
      <trkpt lat="47.90484" lon="3.43847">
        <ele>106</ele>
        <time>2014-04-14T15:28:53Z</time>
      </trkpt>
      <trkpt lat="47.90479" lon="3.43845">
        <ele>106</ele>
        <time>2014-04-14T15:28:57Z</time>
      </trkpt>
      <trkpt lat="47.90474" lon="3.43842">
        <ele>106</ele>
        <time>2014-04-14T15:29:01Z</time>
      </trkpt>
      <trkpt lat="47.90469" lon="3.43841">
        <ele>106</ele>
        <time>2014-04-14T15:29:06Z</time>
      </trkpt>
      <trkpt lat="47.90465" lon="3.43839">
        <ele>106</ele>
        <time>2014-04-14T15:29:11Z</time>
      </trkpt>
      <trkpt lat="47.9046" lon="3.43841">
        <ele>106</ele>
        <time>2014-04-14T15:29:19Z</time>
      </trkpt>
      <trkpt lat="47.90455" lon="3.43839">
        <ele>106</ele>
        <time>2014-04-14T15:29:25Z</time>
      </trkpt>
      <trkpt lat="47.90455" lon="3.43846">
        <ele>106</ele>
        <time>2014-04-14T15:29:31Z</time>
      </trkpt>
      <trkpt lat="47.90443" lon="3.43892">
        <ele>106</ele>
        <time>2014-04-14T15:30:01Z</time>
      </trkpt>
      <trkpt lat="47.90441" lon="3.43897">
        <ele>106</ele>
        <time>2014-04-14T15:30:06Z</time>
      </trkpt>
      <trkpt lat="47.90435" lon="3.43918">
        <ele>105</ele>
        <time>2014-04-14T15:30:18Z</time>
      </trkpt>
      <trkpt lat="47.90434" lon="3.43934">
        <ele>105</ele>
        <time>2014-04-14T15:30:28Z</time>
      </trkpt>
      <trkpt lat="47.90433" lon="3.43941">
        <ele>104</ele>
        <time>2014-04-14T15:30:32Z</time>
      </trkpt>
      <trkpt lat="47.9043" lon="3.43947">
        <ele>104</ele>
        <time>2014-04-14T15:30:35Z</time>
      </trkpt>
      <trkpt lat="47.90424" lon="3.4396">
        <ele>104</ele>
        <time>2014-04-14T15:30:43Z</time>
      </trkpt>
      <trkpt lat="47.90423" lon="3.43967">
        <ele>104</ele>
        <time>2014-04-14T15:30:48Z</time>
      </trkpt>
      <trkpt lat="47.90423" lon="3.43974">
        <ele>104</ele>
        <time>2014-04-14T15:30:53Z</time>
      </trkpt>
      <trkpt lat="47.90414" lon="3.44002">
        <ele>103</ele>
        <time>2014-04-14T15:31:12Z</time>
      </trkpt>
      <trkpt lat="47.90411" lon="3.44009">
        <ele>103</ele>
        <time>2014-04-14T15:31:16Z</time>
      </trkpt>
      <trkpt lat="47.90407" lon="3.44016">
        <ele>102</ele>
        <time>2014-04-14T15:31:19Z</time>
      </trkpt>
      <trkpt lat="47.90393" lon="3.44072">
        <ele>101</ele>
        <time>2014-04-14T15:32:02Z</time>
      </trkpt>
      <trkpt lat="47.90393" lon="3.44083">
        <ele>101</ele>
        <time>2014-04-14T15:32:13Z</time>
      </trkpt>
      <trkpt lat="47.90394" lon="3.4409">
        <ele>99</ele>
        <time>2014-04-14T15:32:20Z</time>
      </trkpt>
      <trkpt lat="47.90394" lon="3.44098">
        <ele>99</ele>
        <time>2014-04-14T15:32:25Z</time>
      </trkpt>
      <trkpt lat="47.90393" lon="3.44106">
        <ele>99</ele>
        <time>2014-04-14T15:32:30Z</time>
      </trkpt>
      <trkpt lat="47.90388" lon="3.44119">
        <ele>99</ele>
        <time>2014-04-14T15:32:39Z</time>
      </trkpt>
      <trkpt lat="47.90387" lon="3.44127">
        <ele>99</ele>
        <time>2014-04-14T15:32:45Z</time>
      </trkpt>
      <trkpt lat="47.90385" lon="3.44134">
        <ele>99</ele>
        <time>2014-04-14T15:32:51Z</time>
      </trkpt>
      <trkpt lat="47.90383" lon="3.44148">
        <ele>99</ele>
        <time>2014-04-14T15:33:00Z</time>
      </trkpt>
      <trkpt lat="47.90378" lon="3.4415">
        <ele>99</ele>
        <time>2014-04-14T15:33:04Z</time>
      </trkpt>
      <trkpt lat="47.90362" lon="3.44149">
        <ele>99</ele>
        <time>2014-04-14T15:33:15Z</time>
      </trkpt>
      <trkpt lat="47.90358" lon="3.44151">
        <ele>99</ele>
        <time>2014-04-14T15:33:19Z</time>
      </trkpt>
      <trkpt lat="47.90353" lon="3.44155">
        <ele>99</ele>
        <time>2014-04-14T15:33:24Z</time>
      </trkpt>
      <trkpt lat="47.90348" lon="3.44154">
        <ele>99</ele>
        <time>2014-04-14T15:33:28Z</time>
      </trkpt>
      <trkpt lat="47.90343" lon="3.44153">
        <ele>99</ele>
        <time>2014-04-14T15:33:32Z</time>
      </trkpt>
      <trkpt lat="47.90338" lon="3.44151">
        <ele>99</ele>
        <time>2014-04-14T15:33:36Z</time>
      </trkpt>
      <trkpt lat="47.90333" lon="3.44149">
        <ele>99</ele>
        <time>2014-04-14T15:33:39Z</time>
      </trkpt>
      <trkpt lat="47.90328" lon="3.44145">
        <ele>99</ele>
        <time>2014-04-14T15:33:43Z</time>
      </trkpt>
      <trkpt lat="47.90324" lon="3.44143">
        <ele>99</ele>
        <time>2014-04-14T15:33:46Z</time>
      </trkpt>
      <trkpt lat="47.90318" lon="3.44141">
        <ele>99</ele>
        <time>2014-04-14T15:33:50Z</time>
      </trkpt>
      <trkpt lat="47.9031" lon="3.44134">
        <ele>99</ele>
        <time>2014-04-14T15:33:59Z</time>
      </trkpt>
      <trkpt lat="47.90302" lon="3.44126">
        <ele>99</ele>
        <time>2014-04-14T15:34:08Z</time>
      </trkpt>
      <trkpt lat="47.90292" lon="3.4412">
        <ele>99</ele>
        <time>2014-04-14T15:34:17Z</time>
      </trkpt>
      <trkpt lat="47.90277" lon="3.44115">
        <ele>99</ele>
        <time>2014-04-14T15:34:29Z</time>
      </trkpt>
      <trkpt lat="47.90273" lon="3.44112">
        <ele>99</ele>
        <time>2014-04-14T15:34:34Z</time>
      </trkpt>
      <trkpt lat="47.90263" lon="3.44108">
        <ele>99</ele>
        <time>2014-04-14T15:34:47Z</time>
      </trkpt>
      <trkpt lat="47.90258" lon="3.44105">
        <ele>99</ele>
        <time>2014-04-14T15:34:51Z</time>
      </trkpt>
      <trkpt lat="47.90254" lon="3.44103">
        <ele>99</ele>
        <time>2014-04-14T15:34:54Z</time>
      </trkpt>
      <trkpt lat="47.90249" lon="3.44104">
        <ele>98</ele>
        <time>2014-04-14T15:34:57Z</time>
      </trkpt>
      <trkpt lat="47.90244" lon="3.44105">
        <ele>98</ele>
        <time>2014-04-14T15:35:00Z</time>
      </trkpt>
      <trkpt lat="47.90239" lon="3.44104">
        <ele>98</ele>
        <time>2014-04-14T15:35:04Z</time>
      </trkpt>
      <trkpt lat="47.90233" lon="3.44102">
        <ele>98</ele>
        <time>2014-04-14T15:35:08Z</time>
      </trkpt>
      <trkpt lat="47.90229" lon="3.44098">
        <ele>98</ele>
        <time>2014-04-14T15:35:13Z</time>
      </trkpt>
      <trkpt lat="47.90226" lon="3.44092">
        <ele>98</ele>
        <time>2014-04-14T15:35:15Z</time>
      </trkpt>
      <trkpt lat="47.90218" lon="3.44084">
        <ele>98</ele>
        <time>2014-04-14T15:35:20Z</time>
      </trkpt>
      <trkpt lat="47.90215" lon="3.44079">
        <ele>98</ele>
        <time>2014-04-14T15:35:26Z</time>
      </trkpt>
      <trkpt lat="47.90205" lon="3.44072">
        <ele>98</ele>
        <time>2014-04-14T15:35:34Z</time>
      </trkpt>
      <trkpt lat="47.90197" lon="3.44064">
        <ele>98</ele>
        <time>2014-04-14T15:35:45Z</time>
      </trkpt>
      <trkpt lat="47.90193" lon="3.44064">
        <ele>98</ele>
        <time>2014-04-14T15:35:49Z</time>
      </trkpt>
      <trkpt lat="47.90187" lon="3.44065">
        <ele>98</ele>
        <time>2014-04-14T15:35:53Z</time>
      </trkpt>
      <trkpt lat="47.90182" lon="3.44065">
        <ele>98</ele>
        <time>2014-04-14T15:35:57Z</time>
      </trkpt>
      <trkpt lat="47.90168" lon="3.4406">
        <ele>98</ele>
        <time>2014-04-14T15:36:10Z</time>
      </trkpt>
      <trkpt lat="47.90163" lon="3.4406">
        <ele>98</ele>
        <time>2014-04-14T15:36:15Z</time>
      </trkpt>
      <trkpt lat="47.90152" lon="3.44059">
        <ele>98</ele>
        <time>2014-04-14T15:36:23Z</time>
      </trkpt>
      <trkpt lat="47.90147" lon="3.44058">
        <ele>98</ele>
        <time>2014-04-14T15:36:27Z</time>
      </trkpt>
      <trkpt lat="47.90142" lon="3.44057">
        <ele>98</ele>
        <time>2014-04-14T15:36:30Z</time>
      </trkpt>
      <trkpt lat="47.90138" lon="3.44053">
        <ele>98</ele>
        <time>2014-04-14T15:36:35Z</time>
      </trkpt>
      <trkpt lat="47.90129" lon="3.44048">
        <ele>98</ele>
        <time>2014-04-14T15:36:44Z</time>
      </trkpt>
      <trkpt lat="47.90124" lon="3.44047">
        <ele>98</ele>
        <time>2014-04-14T15:36:48Z</time>
      </trkpt>
      <trkpt lat="47.9012" lon="3.44041">
        <ele>98</ele>
        <time>2014-04-14T15:36:55Z</time>
      </trkpt>
      <trkpt lat="47.90116" lon="3.44036">
        <ele>98</ele>
        <time>2014-04-14T15:36:59Z</time>
      </trkpt>
      <trkpt lat="47.90113" lon="3.4403">
        <ele>98</ele>
        <time>2014-04-14T15:37:03Z</time>
      </trkpt>
      <trkpt lat="47.90108" lon="3.44025">
        <ele>98</ele>
        <time>2014-04-14T15:37:07Z</time>
      </trkpt>
      <trkpt lat="47.90094" lon="3.44021">
        <ele>98</ele>
        <time>2014-04-14T15:37:21Z</time>
      </trkpt>
      <trkpt lat="47.90089" lon="3.44017">
        <ele>98</ele>
        <time>2014-04-14T15:37:24Z</time>
      </trkpt>
      <trkpt lat="47.90085" lon="3.44015">
        <ele>98</ele>
        <time>2014-04-14T15:37:27Z</time>
      </trkpt>
      <trkpt lat="47.9008" lon="3.44018">
        <ele>99</ele>
        <time>2014-04-14T15:37:36Z</time>
      </trkpt>
      <trkpt lat="47.90076" lon="3.44017">
        <ele>99</ele>
        <time>2014-04-14T15:37:40Z</time>
      </trkpt>
      <trkpt lat="47.9007" lon="3.44012">
        <ele>99</ele>
        <time>2014-04-14T15:37:43Z</time>
      </trkpt>
      <trkpt lat="47.9006" lon="3.44007">
        <ele>99</ele>
        <time>2014-04-14T15:37:51Z</time>
      </trkpt>
      <trkpt lat="47.90056" lon="3.44004">
        <ele>99</ele>
        <time>2014-04-14T15:37:54Z</time>
      </trkpt>
      <trkpt lat="47.90048" lon="3.43995">
        <ele>99</ele>
        <time>2014-04-14T15:38:06Z</time>
      </trkpt>
      <trkpt lat="47.90043" lon="3.43991">
        <ele>99</ele>
        <time>2014-04-14T15:38:11Z</time>
      </trkpt>
      <trkpt lat="47.90037" lon="3.43989">
        <ele>99</ele>
        <time>2014-04-14T15:38:14Z</time>
      </trkpt>
      <trkpt lat="47.90033" lon="3.43986">
        <ele>99</ele>
        <time>2014-04-14T15:38:17Z</time>
      </trkpt>
      <trkpt lat="47.9003" lon="3.4398">
        <ele>99</ele>
        <time>2014-04-14T15:38:22Z</time>
      </trkpt>
      <trkpt lat="47.90027" lon="3.43974">
        <ele>99</ele>
        <time>2014-04-14T15:38:29Z</time>
      </trkpt>
      <trkpt lat="47.90018" lon="3.43969">
        <ele>99</ele>
        <time>2014-04-14T15:38:41Z</time>
      </trkpt>
      <trkpt lat="47.90013" lon="3.43964">
        <ele>99</ele>
        <time>2014-04-14T15:38:47Z</time>
      </trkpt>
      <trkpt lat="47.90008" lon="3.43961">
        <ele>99</ele>
        <time>2014-04-14T15:38:51Z</time>
      </trkpt>
      <trkpt lat="47.90004" lon="3.43958">
        <ele>99</ele>
        <time>2014-04-14T15:38:54Z</time>
      </trkpt>
      <trkpt lat="47.89999" lon="3.43955">
        <ele>99</ele>
        <time>2014-04-14T15:38:58Z</time>
      </trkpt>
      <trkpt lat="47.8999" lon="3.43948">
        <ele>99</ele>
        <time>2014-04-14T15:39:07Z</time>
      </trkpt>
      <trkpt lat="47.89985" lon="3.43945">
        <ele>99</ele>
        <time>2014-04-14T15:39:13Z</time>
      </trkpt>
      <trkpt lat="47.89973" lon="3.43935">
        <ele>99</ele>
        <time>2014-04-14T15:39:27Z</time>
      </trkpt>
      <trkpt lat="47.89968" lon="3.4393">
        <ele>99</ele>
        <time>2014-04-14T15:39:32Z</time>
      </trkpt>
      <trkpt lat="47.89967" lon="3.43926">
        <ele>99</ele>
        <time>2014-04-14T15:39:54Z</time>
      </trkpt>
      <trkpt lat="47.89961" lon="3.43922">
        <ele>99</ele>
        <time>2014-04-14T15:40:12Z</time>
      </trkpt>
      <trkpt lat="47.89957" lon="3.43918">
        <ele>99</ele>
        <time>2014-04-14T15:40:16Z</time>
      </trkpt>
      <trkpt lat="47.89953" lon="3.43916">
        <ele>99</ele>
        <time>2014-04-14T15:40:25Z</time>
      </trkpt>
      <trkpt lat="47.89931" lon="3.4389">
        <ele>98</ele>
        <time>2014-04-14T15:41:01Z</time>
      </trkpt>
      <trkpt lat="47.89928" lon="3.43884">
        <ele>98</ele>
        <time>2014-04-14T15:41:06Z</time>
      </trkpt>
      <trkpt lat="47.89923" lon="3.4388">
        <ele>98</ele>
        <time>2014-04-14T15:41:10Z</time>
      </trkpt>
      <trkpt lat="47.89917" lon="3.43876">
        <ele>98</ele>
        <time>2014-04-14T15:41:13Z</time>
      </trkpt>
      <trkpt lat="47.89914" lon="3.43871">
        <ele>99</ele>
        <time>2014-04-14T15:41:17Z</time>
      </trkpt>
      <trkpt lat="47.89907" lon="3.43861">
        <ele>99</ele>
        <time>2014-04-14T15:41:27Z</time>
      </trkpt>
      <trkpt lat="47.89902" lon="3.43859">
        <ele>99</ele>
        <time>2014-04-14T15:41:33Z</time>
      </trkpt>
      <trkpt lat="47.89898" lon="3.43855">
        <ele>99</ele>
        <time>2014-04-14T15:41:36Z</time>
      </trkpt>
      <trkpt lat="47.89895" lon="3.43849">
        <ele>99</ele>
        <time>2014-04-14T15:41:42Z</time>
      </trkpt>
      <trkpt lat="47.89891" lon="3.43843">
        <ele>99</ele>
        <time>2014-04-14T15:41:49Z</time>
      </trkpt>
      <trkpt lat="47.89885" lon="3.43832">
        <ele>99</ele>
        <time>2014-04-14T15:41:58Z</time>
      </trkpt>
      <trkpt lat="47.89876" lon="3.43823">
        <ele>100</ele>
        <time>2014-04-14T15:42:07Z</time>
      </trkpt>
      <trkpt lat="47.89872" lon="3.43818">
        <ele>100</ele>
        <time>2014-04-14T15:42:11Z</time>
      </trkpt>
      <trkpt lat="47.89869" lon="3.43812">
        <ele>100</ele>
        <time>2014-04-14T15:42:15Z</time>
      </trkpt>
      <trkpt lat="47.89859" lon="3.43805">
        <ele>100</ele>
        <time>2014-04-14T15:42:24Z</time>
      </trkpt>
      <trkpt lat="47.89855" lon="3.438">
        <ele>100</ele>
        <time>2014-04-14T15:42:29Z</time>
      </trkpt>
      <trkpt lat="47.89853" lon="3.43794">
        <ele>100</ele>
        <time>2014-04-14T15:42:34Z</time>
      </trkpt>
      <trkpt lat="47.89851" lon="3.43788">
        <ele>100</ele>
        <time>2014-04-14T15:42:42Z</time>
      </trkpt>
      <trkpt lat="47.89848" lon="3.43782">
        <ele>100</ele>
        <time>2014-04-14T15:42:48Z</time>
      </trkpt>
      <trkpt lat="47.89843" lon="3.43778">
        <ele>100</ele>
        <time>2014-04-14T15:42:51Z</time>
      </trkpt>
      <trkpt lat="47.89843" lon="3.43773">
        <ele>100</ele>
        <time>2014-04-14T15:43:00Z</time>
      </trkpt>
      <trkpt lat="47.89839" lon="3.4377">
        <ele>100</ele>
        <time>2014-04-14T15:43:09Z</time>
      </trkpt>
      <trkpt lat="47.89835" lon="3.43765">
        <ele>100</ele>
        <time>2014-04-14T15:43:17Z</time>
      </trkpt>
      <trkpt lat="47.89839" lon="3.43761">
        <ele>100</ele>
        <time>2014-04-14T15:43:21Z</time>
      </trkpt>
      <trkpt lat="47.89834" lon="3.43758">
        <ele>100</ele>
        <time>2014-04-14T15:43:40Z</time>
      </trkpt>
      <trkpt lat="47.89832" lon="3.43756">
        <ele>100</ele>
        <time>2014-04-14T15:43:47Z</time>
      </trkpt>
      <trkpt lat="47.89823" lon="3.4375">
        <ele>100</ele>
        <time>2014-04-14T15:43:56Z</time>
      </trkpt>
      <trkpt lat="47.89818" lon="3.43746">
        <ele>100</ele>
        <time>2014-04-14T15:44:01Z</time>
      </trkpt>
      <trkpt lat="47.89814" lon="3.43741">
        <ele>100</ele>
        <time>2014-04-14T15:44:04Z</time>
      </trkpt>
      <trkpt lat="47.8981" lon="3.43738">
        <ele>100</ele>
        <time>2014-04-14T15:44:07Z</time>
      </trkpt>
      <trkpt lat="47.89805" lon="3.43735">
        <ele>100</ele>
        <time>2014-04-14T15:44:12Z</time>
      </trkpt>
      <trkpt lat="47.89801" lon="3.43729">
        <ele>101</ele>
        <time>2014-04-14T15:44:16Z</time>
      </trkpt>
      <trkpt lat="47.89798" lon="3.43722">
        <ele>101</ele>
        <time>2014-04-14T15:44:19Z</time>
      </trkpt>
      <trkpt lat="47.89777" lon="3.4369">
        <ele>100</ele>
        <time>2014-04-14T15:44:42Z</time>
      </trkpt>
      <trkpt lat="47.89773" lon="3.43686">
        <ele>100</ele>
        <time>2014-04-14T15:44:48Z</time>
      </trkpt>
      <trkpt lat="47.8977" lon="3.43681">
        <ele>100</ele>
        <time>2014-04-14T15:44:53Z</time>
      </trkpt>
      <trkpt lat="47.89765" lon="3.43678">
        <ele>100</ele>
        <time>2014-04-14T15:44:59Z</time>
      </trkpt>
      <trkpt lat="47.89761" lon="3.43673">
        <ele>100</ele>
        <time>2014-04-14T15:45:03Z</time>
      </trkpt>
      <trkpt lat="47.89745" lon="3.43654">
        <ele>100</ele>
        <time>2014-04-14T15:45:19Z</time>
      </trkpt>
      <trkpt lat="47.8974" lon="3.43649">
        <ele>100</ele>
        <time>2014-04-14T15:45:23Z</time>
      </trkpt>
      <trkpt lat="47.89735" lon="3.43644">
        <ele>100</ele>
        <time>2014-04-14T15:45:34Z</time>
      </trkpt>
      <trkpt lat="47.8973" lon="3.43639">
        <ele>100</ele>
        <time>2014-04-14T15:45:38Z</time>
      </trkpt>
      <trkpt lat="47.8972" lon="3.43622">
        <ele>100</ele>
        <time>2014-04-14T15:45:47Z</time>
      </trkpt>
      <trkpt lat="47.89716" lon="3.43619">
        <ele>100</ele>
        <time>2014-04-14T15:45:50Z</time>
      </trkpt>
      <trkpt lat="47.89707" lon="3.43607">
        <ele>100</ele>
        <time>2014-04-14T15:45:58Z</time>
      </trkpt>
      <trkpt lat="47.89703" lon="3.43603">
        <ele>100</ele>
        <time>2014-04-14T15:46:01Z</time>
      </trkpt>
      <trkpt lat="47.89698" lon="3.436">
        <ele>100</ele>
        <time>2014-04-14T15:46:08Z</time>
      </trkpt>
      <trkpt lat="47.89693" lon="3.43587">
        <ele>100</ele>
        <time>2014-04-14T15:46:16Z</time>
      </trkpt>
      <trkpt lat="47.89691" lon="3.4358">
        <ele>101</ele>
        <time>2014-04-14T15:46:36Z</time>
      </trkpt>
      <trkpt lat="47.89687" lon="3.43576">
        <ele>101</ele>
        <time>2014-04-14T15:46:41Z</time>
      </trkpt>
      <trkpt lat="47.89684" lon="3.4357">
        <ele>101</ele>
        <time>2014-04-14T15:46:45Z</time>
      </trkpt>
      <trkpt lat="47.89681" lon="3.43563">
        <ele>101</ele>
        <time>2014-04-14T15:46:50Z</time>
      </trkpt>
      <trkpt lat="47.8967" lon="3.43547">
        <ele>101</ele>
        <time>2014-04-14T15:47:03Z</time>
      </trkpt>
      <trkpt lat="47.89666" lon="3.43543">
        <ele>100</ele>
        <time>2014-04-14T15:47:23Z</time>
      </trkpt>
      <trkpt lat="47.89662" lon="3.43537">
        <ele>101</ele>
        <time>2014-04-14T15:47:27Z</time>
      </trkpt>
      <trkpt lat="47.89658" lon="3.43533">
        <ele>101</ele>
        <time>2014-04-14T15:47:32Z</time>
      </trkpt>
      <trkpt lat="47.89655" lon="3.43527">
        <ele>101</ele>
        <time>2014-04-14T15:47:37Z</time>
      </trkpt>
      <trkpt lat="47.89643" lon="3.43514">
        <ele>101</ele>
        <time>2014-04-14T15:47:50Z</time>
      </trkpt>
      <trkpt lat="47.8964" lon="3.43508">
        <ele>101</ele>
        <time>2014-04-14T15:47:56Z</time>
      </trkpt>
      <trkpt lat="47.89636" lon="3.43503">
        <ele>101</ele>
        <time>2014-04-14T15:48:02Z</time>
      </trkpt>
      <trkpt lat="47.89629" lon="3.43491">
        <ele>101</ele>
        <time>2014-04-14T15:48:11Z</time>
      </trkpt>
      <trkpt lat="47.89618" lon="3.43477">
        <ele>101</ele>
        <time>2014-04-14T15:48:23Z</time>
      </trkpt>
      <trkpt lat="47.89614" lon="3.43472">
        <ele>101</ele>
        <time>2014-04-14T15:48:26Z</time>
      </trkpt>
      <trkpt lat="47.8961" lon="3.43468">
        <ele>101</ele>
        <time>2014-04-14T15:48:29Z</time>
      </trkpt>
      <trkpt lat="47.89605" lon="3.43461">
        <ele>102</ele>
        <time>2014-04-14T15:48:41Z</time>
      </trkpt>
      <trkpt lat="47.89601" lon="3.43457">
        <ele>102</ele>
        <time>2014-04-14T15:48:45Z</time>
      </trkpt>
      <trkpt lat="47.89597" lon="3.43452">
        <ele>102</ele>
        <time>2014-04-14T15:48:48Z</time>
      </trkpt>
      <trkpt lat="47.89594" lon="3.43447">
        <ele>102</ele>
        <time>2014-04-14T15:48:52Z</time>
      </trkpt>
      <trkpt lat="47.89589" lon="3.43444">
        <ele>102</ele>
        <time>2014-04-14T15:48:59Z</time>
      </trkpt>
      <trkpt lat="47.89585" lon="3.4344">
        <ele>102</ele>
        <time>2014-04-14T15:49:06Z</time>
      </trkpt>
      <trkpt lat="47.89584" lon="3.4343">
        <ele>102</ele>
        <time>2014-04-14T15:49:16Z</time>
      </trkpt>
      <trkpt lat="47.89576" lon="3.43419">
        <ele>102</ele>
        <time>2014-04-14T15:49:25Z</time>
      </trkpt>
      <trkpt lat="47.89573" lon="3.43413">
        <ele>102</ele>
        <time>2014-04-14T15:49:29Z</time>
      </trkpt>
      <trkpt lat="47.89569" lon="3.43408">
        <ele>102</ele>
        <time>2014-04-14T15:49:34Z</time>
      </trkpt>
      <trkpt lat="47.89566" lon="3.43401">
        <ele>102</ele>
        <time>2014-04-14T15:49:39Z</time>
      </trkpt>
      <trkpt lat="47.89563" lon="3.43387">
        <ele>102</ele>
        <time>2014-04-14T15:49:45Z</time>
      </trkpt>
      <trkpt lat="47.89559" lon="3.43382">
        <ele>102</ele>
        <time>2014-04-14T15:49:48Z</time>
      </trkpt>
      <trkpt lat="47.89555" lon="3.43379">
        <ele>102</ele>
        <time>2014-04-14T15:49:51Z</time>
      </trkpt>
      <trkpt lat="47.89546" lon="3.4337">
        <ele>102</ele>
        <time>2014-04-14T15:49:59Z</time>
      </trkpt>
      <trkpt lat="47.89542" lon="3.43367">
        <ele>102</ele>
        <time>2014-04-14T15:50:03Z</time>
      </trkpt>
      <trkpt lat="47.89537" lon="3.43367">
        <ele>102</ele>
        <time>2014-04-14T15:50:08Z</time>
      </trkpt>
      <trkpt lat="47.89534" lon="3.43361">
        <ele>102</ele>
        <time>2014-04-14T15:50:13Z</time>
      </trkpt>
      <trkpt lat="47.89532" lon="3.43355">
        <ele>102</ele>
        <time>2014-04-14T15:50:17Z</time>
      </trkpt>
      <trkpt lat="47.8953" lon="3.43349">
        <ele>102</ele>
        <time>2014-04-14T15:50:23Z</time>
      </trkpt>
      <trkpt lat="47.89526" lon="3.43344">
        <ele>102</ele>
        <time>2014-04-14T15:50:27Z</time>
      </trkpt>
      <trkpt lat="47.89521" lon="3.43339">
        <ele>102</ele>
        <time>2014-04-14T15:50:31Z</time>
      </trkpt>
      <trkpt lat="47.89512" lon="3.43335">
        <ele>102</ele>
        <time>2014-04-14T15:50:38Z</time>
      </trkpt>
      <trkpt lat="47.89507" lon="3.43331">
        <ele>102</ele>
        <time>2014-04-14T15:50:42Z</time>
      </trkpt>
      <trkpt lat="47.89504" lon="3.43326">
        <ele>102</ele>
        <time>2014-04-14T15:50:47Z</time>
      </trkpt>
      <trkpt lat="47.89504" lon="3.43319">
        <ele>102</ele>
        <time>2014-04-14T15:50:53Z</time>
      </trkpt>
      <trkpt lat="47.89502" lon="3.4331">
        <ele>102</ele>
        <time>2014-04-14T15:50:57Z</time>
      </trkpt>
      <trkpt lat="47.89494" lon="3.43299">
        <ele>101</ele>
        <time>2014-04-14T15:51:05Z</time>
      </trkpt>
      <trkpt lat="47.89489" lon="3.43295">
        <ele>102</ele>
        <time>2014-04-14T15:51:10Z</time>
      </trkpt>
      <trkpt lat="47.89484" lon="3.43292">
        <ele>102</ele>
        <time>2014-04-14T15:51:14Z</time>
      </trkpt>
      <trkpt lat="47.89479" lon="3.43287">
        <ele>102</ele>
        <time>2014-04-14T15:51:18Z</time>
      </trkpt>
      <trkpt lat="47.89465" lon="3.43278">
        <ele>102</ele>
        <time>2014-04-14T15:51:30Z</time>
      </trkpt>
      <trkpt lat="47.89456" lon="3.4327">
        <ele>102</ele>
        <time>2014-04-14T15:51:37Z</time>
      </trkpt>
      <trkpt lat="47.89452" lon="3.43265">
        <ele>102</ele>
        <time>2014-04-14T15:51:41Z</time>
      </trkpt>
      <trkpt lat="47.89444" lon="3.43253">
        <ele>102</ele>
        <time>2014-04-14T15:51:49Z</time>
      </trkpt>
      <trkpt lat="47.89442" lon="3.43246">
        <ele>102</ele>
        <time>2014-04-14T15:51:52Z</time>
      </trkpt>
      <trkpt lat="47.89439" lon="3.43249">
        <ele>102</ele>
        <time>2014-04-14T15:52:52Z</time>
      </trkpt>
      <trkpt lat="47.89435" lon="3.43247">
        <ele>102</ele>
        <time>2014-04-14T15:53:16Z</time>
      </trkpt>
      <trkpt lat="47.8943" lon="3.43248">
        <ele>102</ele>
        <time>2014-04-14T15:53:24Z</time>
      </trkpt>
      <trkpt lat="47.89422" lon="3.43266">
        <ele>102</ele>
        <time>2014-04-14T15:53:41Z</time>
      </trkpt>
      <trkpt lat="47.89418" lon="3.4327">
        <ele>102</ele>
        <time>2014-04-14T15:53:49Z</time>
      </trkpt>
      <trkpt lat="47.89411" lon="3.43279">
        <ele>103</ele>
        <time>2014-04-14T15:53:56Z</time>
      </trkpt>
      <trkpt lat="47.89409" lon="3.43286">
        <ele>103</ele>
        <time>2014-04-14T15:53:59Z</time>
      </trkpt>
      <trkpt lat="47.89408" lon="3.43293">
        <ele>103</ele>
        <time>2014-04-14T15:54:03Z</time>
      </trkpt>
      <trkpt lat="47.89404" lon="3.43297">
        <ele>103</ele>
        <time>2014-04-14T15:54:06Z</time>
      </trkpt>
      <trkpt lat="47.89399" lon="3.43298">
        <ele>103</ele>
        <time>2014-04-14T15:54:12Z</time>
      </trkpt>
      <trkpt lat="47.89391" lon="3.43306">
        <ele>103</ele>
        <time>2014-04-14T15:54:23Z</time>
      </trkpt>
      <trkpt lat="47.89388" lon="3.43311">
        <ele>103</ele>
        <time>2014-04-14T15:54:27Z</time>
      </trkpt>
      <trkpt lat="47.89383" lon="3.43316">
        <ele>103</ele>
        <time>2014-04-14T15:54:32Z</time>
      </trkpt>
      <trkpt lat="47.8938" lon="3.43322">
        <ele>103</ele>
        <time>2014-04-14T15:54:39Z</time>
      </trkpt>
      <trkpt lat="47.89377" lon="3.4333">
        <ele>103</ele>
        <time>2014-04-14T15:54:45Z</time>
      </trkpt>
      <trkpt lat="47.89372" lon="3.43334">
        <ele>102</ele>
        <time>2014-04-14T15:54:51Z</time>
      </trkpt>
      <trkpt lat="47.89368" lon="3.43337">
        <ele>102</ele>
        <time>2014-04-14T15:54:55Z</time>
      </trkpt>
      <trkpt lat="47.89362" lon="3.43341">
        <ele>102</ele>
        <time>2014-04-14T15:54:58Z</time>
      </trkpt>
      <trkpt lat="47.89358" lon="3.43346">
        <ele>102</ele>
        <time>2014-04-14T15:55:01Z</time>
      </trkpt>
      <trkpt lat="47.89355" lon="3.43353">
        <ele>102</ele>
        <time>2014-04-14T15:55:07Z</time>
      </trkpt>
      <trkpt lat="47.89351" lon="3.43357">
        <ele>102</ele>
        <time>2014-04-14T15:55:11Z</time>
      </trkpt>
      <trkpt lat="47.89345" lon="3.43361">
        <ele>102</ele>
        <time>2014-04-14T15:55:15Z</time>
      </trkpt>
      <trkpt lat="47.89341" lon="3.43365">
        <ele>102</ele>
        <time>2014-04-14T15:55:19Z</time>
      </trkpt>
      <trkpt lat="47.89336" lon="3.43368">
        <ele>102</ele>
        <time>2014-04-14T15:55:23Z</time>
      </trkpt>
      <trkpt lat="47.89331" lon="3.43372">
        <ele>102</ele>
        <time>2014-04-14T15:55:28Z</time>
      </trkpt>
      <trkpt lat="47.89323" lon="3.43383">
        <ele>102</ele>
        <time>2014-04-14T15:55:36Z</time>
      </trkpt>
      <trkpt lat="47.89313" lon="3.434">
        <ele>102</ele>
        <time>2014-04-14T15:55:48Z</time>
      </trkpt>
      <trkpt lat="47.89305" lon="3.4341">
        <ele>102</ele>
        <time>2014-04-14T15:55:58Z</time>
      </trkpt>
      <trkpt lat="47.893" lon="3.43415">
        <ele>102</ele>
        <time>2014-04-14T15:56:04Z</time>
      </trkpt>
      <trkpt lat="47.89296" lon="3.4342">
        <ele>101</ele>
        <time>2014-04-14T15:56:09Z</time>
      </trkpt>
      <trkpt lat="47.89293" lon="3.43426">
        <ele>101</ele>
        <time>2014-04-14T15:56:13Z</time>
      </trkpt>
      <trkpt lat="47.89289" lon="3.43429">
        <ele>101</ele>
        <time>2014-04-14T15:56:18Z</time>
      </trkpt>
      <trkpt lat="47.89283" lon="3.43441">
        <ele>101</ele>
        <time>2014-04-14T15:56:27Z</time>
      </trkpt>
      <trkpt lat="47.89264" lon="3.43464">
        <ele>101</ele>
        <time>2014-04-14T15:56:48Z</time>
      </trkpt>
      <trkpt lat="47.89252" lon="3.43476">
        <ele>102</ele>
        <time>2014-04-14T15:57:03Z</time>
      </trkpt>
      <trkpt lat="47.89248" lon="3.43481">
        <ele>104</ele>
        <time>2014-04-14T15:57:07Z</time>
      </trkpt>
      <trkpt lat="47.89244" lon="3.43485">
        <ele>104</ele>
        <time>2014-04-14T15:57:13Z</time>
      </trkpt>
      <trkpt lat="47.8924" lon="3.43488">
        <ele>104</ele>
        <time>2014-04-14T15:57:18Z</time>
      </trkpt>
      <trkpt lat="47.89234" lon="3.4351">
        <ele>106</ele>
        <time>2014-04-14T15:57:32Z</time>
      </trkpt>
      <trkpt lat="47.89239" lon="3.43512">
        <ele>105</ele>
        <time>2014-04-14T15:57:36Z</time>
      </trkpt>
      <trkpt lat="47.89241" lon="3.43519">
        <ele>106</ele>
        <time>2014-04-14T15:57:39Z</time>
      </trkpt>
      <trkpt lat="47.89241" lon="3.43527">
        <ele>106</ele>
        <time>2014-04-14T15:57:44Z</time>
      </trkpt>
      <trkpt lat="47.89243" lon="3.43529">
        <ele>106</ele>
        <time>2014-04-14T15:57:51Z</time>
      </trkpt>
      <trkpt lat="47.89242" lon="3.43534">
        <ele>107</ele>
        <time>2014-04-14T15:58:23Z</time>
      </trkpt>
      <trkpt lat="47.89242" lon="3.43542">
        <ele>107</ele>
        <time>2014-04-14T15:58:27Z</time>
      </trkpt>
      <trkpt lat="47.8924" lon="3.43549">
        <ele>107</ele>
        <time>2014-04-14T15:58:31Z</time>
      </trkpt>
      <trkpt lat="47.89232" lon="3.43558">
        <ele>107</ele>
        <time>2014-04-14T15:58:41Z</time>
      </trkpt>
      <trkpt lat="47.89228" lon="3.43563">
        <ele>107</ele>
        <time>2014-04-14T15:58:46Z</time>
      </trkpt>
      <trkpt lat="47.89228" lon="3.43568">
        <ele>107</ele>
        <time>2014-04-14T15:58:54Z</time>
      </trkpt>
      <trkpt lat="47.89232" lon="3.43571">
        <ele>107</ele>
        <time>2014-04-14T15:59:03Z</time>
      </trkpt>
      <trkpt lat="47.89236" lon="3.43569">
        <ele>107</ele>
        <time>2014-04-14T15:59:09Z</time>
      </trkpt>
      <trkpt lat="47.89232" lon="3.43568">
        <ele>107</ele>
        <time>2014-04-14T15:59:38Z</time>
      </trkpt>
      <trkpt lat="47.89228" lon="3.43564">
        <ele>108</ele>
        <time>2014-04-14T15:59:43Z</time>
      </trkpt>
      <trkpt lat="47.89223" lon="3.43563">
        <ele>108</ele>
        <time>2014-04-14T15:59:50Z</time>
      </trkpt>
      <trkpt lat="47.89223" lon="3.43572">
        <ele>108</ele>
        <time>2014-04-14T16:00:09Z</time>
      </trkpt>
      <trkpt lat="47.89219" lon="3.43576">
        <ele>108</ele>
        <time>2014-04-14T16:00:38Z</time>
      </trkpt>
      <trkpt lat="47.89216" lon="3.43577">
        <ele>108</ele>
        <time>2014-04-14T16:01:28Z</time>
      </trkpt>
      <trkpt lat="47.89239" lon="3.43528">
        <ele>106</ele>
        <time>2014-04-15T06:39:27Z</time>
      </trkpt>
      <trkpt lat="47.89236" lon="3.4352">
        <ele>106</ele>
        <time>2014-04-15T06:39:35Z</time>
      </trkpt>
      <trkpt lat="47.89229" lon="3.43508">
        <ele>106</ele>
        <time>2014-04-15T06:39:42Z</time>
      </trkpt>
      <trkpt lat="47.89224" lon="3.43494">
        <ele>104</ele>
        <time>2014-04-15T06:39:49Z</time>
      </trkpt>
      <trkpt lat="47.89215" lon="3.43476">
        <ele>105</ele>
        <time>2014-04-15T06:40:01Z</time>
      </trkpt>
      <trkpt lat="47.89212" lon="3.43471">
        <ele>105</ele>
        <time>2014-04-15T06:40:05Z</time>
      </trkpt>
      <trkpt lat="47.89208" lon="3.43467">
        <ele>105</ele>
        <time>2014-04-15T06:40:12Z</time>
      </trkpt>
      <trkpt lat="47.89204" lon="3.43463">
        <ele>105</ele>
        <time>2014-04-15T06:40:16Z</time>
      </trkpt>
      <trkpt lat="47.89201" lon="3.43456">
        <ele>105</ele>
        <time>2014-04-15T06:40:22Z</time>
      </trkpt>
      <trkpt lat="47.89193" lon="3.43446">
        <ele>105</ele>
        <time>2014-04-15T06:40:31Z</time>
      </trkpt>
      <trkpt lat="47.89189" lon="3.43442">
        <ele>105</ele>
        <time>2014-04-15T06:40:36Z</time>
      </trkpt>
      <trkpt lat="47.89179" lon="3.43434">
        <ele>105</ele>
        <time>2014-04-15T06:40:44Z</time>
      </trkpt>
      <trkpt lat="47.89174" lon="3.43431">
        <ele>105</ele>
        <time>2014-04-15T06:40:48Z</time>
      </trkpt>
      <trkpt lat="47.8917" lon="3.43428">
        <ele>105</ele>
        <time>2014-04-15T06:40:52Z</time>
      </trkpt>
      <trkpt lat="47.89167" lon="3.43422">
        <ele>105</ele>
        <time>2014-04-15T06:40:57Z</time>
      </trkpt>
      <trkpt lat="47.89163" lon="3.43416">
        <ele>105</ele>
        <time>2014-04-15T06:41:02Z</time>
      </trkpt>
      <trkpt lat="47.89157" lon="3.43414">
        <ele>106</ele>
        <time>2014-04-15T06:41:06Z</time>
      </trkpt>
      <trkpt lat="47.89152" lon="3.43412">
        <ele>106</ele>
        <time>2014-04-15T06:41:07Z</time>
      </trkpt>
      <trkpt lat="47.89144" lon="3.43403">
        <ele>106</ele>
        <time>2014-04-15T06:41:16Z</time>
      </trkpt>
      <trkpt lat="47.89141" lon="3.43397">
        <ele>106</ele>
        <time>2014-04-15T06:41:22Z</time>
      </trkpt>
      <trkpt lat="47.89138" lon="3.43391">
        <ele>107</ele>
        <time>2014-04-15T06:41:26Z</time>
      </trkpt>
      <trkpt lat="47.89134" lon="3.43387">
        <ele>107</ele>
        <time>2014-04-15T06:41:29Z</time>
      </trkpt>
      <trkpt lat="47.8913" lon="3.43384">
        <ele>107</ele>
        <time>2014-04-15T06:41:32Z</time>
      </trkpt>
      <trkpt lat="47.89122" lon="3.43374">
        <ele>107</ele>
        <time>2014-04-15T06:41:42Z</time>
      </trkpt>
      <trkpt lat="47.89122" lon="3.43367">
        <ele>107</ele>
        <time>2014-04-15T06:41:48Z</time>
      </trkpt>
      <trkpt lat="47.89119" lon="3.43362">
        <ele>107</ele>
        <time>2014-04-15T06:41:52Z</time>
      </trkpt>
      <trkpt lat="47.89115" lon="3.43356">
        <ele>107</ele>
        <time>2014-04-15T06:41:57Z</time>
      </trkpt>
      <trkpt lat="47.89114" lon="3.4335">
        <ele>107</ele>
        <time>2014-04-15T06:42:03Z</time>
      </trkpt>
      <trkpt lat="47.89108" lon="3.43345">
        <ele>107</ele>
        <time>2014-04-15T06:42:08Z</time>
      </trkpt>
      <trkpt lat="47.89105" lon="3.4334">
        <ele>107</ele>
        <time>2014-04-15T06:42:11Z</time>
      </trkpt>
      <trkpt lat="47.89102" lon="3.43331">
        <ele>106</ele>
        <time>2014-04-15T06:42:15Z</time>
      </trkpt>
      <trkpt lat="47.89102" lon="3.43322">
        <ele>106</ele>
        <time>2014-04-15T06:42:19Z</time>
      </trkpt>
      <trkpt lat="47.89092" lon="3.43295">
        <ele>106</ele>
        <time>2014-04-15T06:42:36Z</time>
      </trkpt>
      <trkpt lat="47.8909" lon="3.43288">
        <ele>106</ele>
        <time>2014-04-15T06:42:40Z</time>
      </trkpt>
      <trkpt lat="47.89089" lon="3.43281">
        <ele>106</ele>
        <time>2014-04-15T06:42:44Z</time>
      </trkpt>
      <trkpt lat="47.89082" lon="3.4327">
        <ele>106</ele>
        <time>2014-04-15T06:42:53Z</time>
      </trkpt>
      <trkpt lat="47.89079" lon="3.43263">
        <ele>106</ele>
        <time>2014-04-15T06:42:57Z</time>
      </trkpt>
      <trkpt lat="47.89078" lon="3.43256">
        <ele>105</ele>
        <time>2014-04-15T06:43:00Z</time>
      </trkpt>
      <trkpt lat="47.89079" lon="3.43249">
        <ele>105</ele>
        <time>2014-04-15T06:43:05Z</time>
      </trkpt>
      <trkpt lat="47.89074" lon="3.43248">
        <ele>105</ele>
        <time>2014-04-15T06:43:09Z</time>
      </trkpt>
      <trkpt lat="47.89069" lon="3.43244">
        <ele>105</ele>
        <time>2014-04-15T06:43:14Z</time>
      </trkpt>
      <trkpt lat="47.89063" lon="3.43242">
        <ele>105</ele>
        <time>2014-04-15T06:43:16Z</time>
      </trkpt>
      <trkpt lat="47.89058" lon="3.43239">
        <ele>106</ele>
        <time>2014-04-15T06:43:20Z</time>
      </trkpt>
      <trkpt lat="47.89053" lon="3.43238">
        <ele>106</ele>
        <time>2014-04-15T06:43:25Z</time>
      </trkpt>
      <trkpt lat="47.89048" lon="3.43238">
        <ele>106</ele>
        <time>2014-04-15T06:43:33Z</time>
      </trkpt>
      <trkpt lat="47.89044" lon="3.43243">
        <ele>105</ele>
        <time>2014-04-15T06:43:41Z</time>
      </trkpt>
      <trkpt lat="47.89025" lon="3.43259">
        <ele>106</ele>
        <time>2014-04-15T06:43:57Z</time>
      </trkpt>
      <trkpt lat="47.8902" lon="3.43261">
        <ele>106</ele>
        <time>2014-04-15T06:44:01Z</time>
      </trkpt>
      <trkpt lat="47.89018" lon="3.4327">
        <ele>106</ele>
        <time>2014-04-15T06:44:16Z</time>
      </trkpt>
      <trkpt lat="47.89015" lon="3.43275">
        <ele>106</ele>
        <time>2014-04-15T06:44:19Z</time>
      </trkpt>
      <trkpt lat="47.89011" lon="3.4328">
        <ele>106</ele>
        <time>2014-04-15T06:44:23Z</time>
      </trkpt>
      <trkpt lat="47.89007" lon="3.43283">
        <ele>106</ele>
        <time>2014-04-15T06:44:28Z</time>
      </trkpt>
      <trkpt lat="47.88997" lon="3.43287">
        <ele>105</ele>
        <time>2014-04-15T06:44:34Z</time>
      </trkpt>
      <trkpt lat="47.88994" lon="3.43291">
        <ele>106</ele>
        <time>2014-04-15T06:44:38Z</time>
      </trkpt>
      <trkpt lat="47.88991" lon="3.43298">
        <ele>106</ele>
        <time>2014-04-15T06:44:44Z</time>
      </trkpt>
      <trkpt lat="47.88988" lon="3.43303">
        <ele>106</ele>
        <time>2014-04-15T06:44:48Z</time>
      </trkpt>
      <trkpt lat="47.88983" lon="3.43307">
        <ele>106</ele>
        <time>2014-04-15T06:44:52Z</time>
      </trkpt>
      <trkpt lat="47.88978" lon="3.43313">
        <ele>106</ele>
        <time>2014-04-15T06:44:56Z</time>
      </trkpt>
      <trkpt lat="47.88974" lon="3.43316">
        <ele>106</ele>
        <time>2014-04-15T06:45:00Z</time>
      </trkpt>
      <trkpt lat="47.8897" lon="3.43321">
        <ele>106</ele>
        <time>2014-04-15T06:45:02Z</time>
      </trkpt>
      <trkpt lat="47.8896" lon="3.43341">
        <ele>107</ele>
        <time>2014-04-15T06:45:11Z</time>
      </trkpt>
      <trkpt lat="47.8896" lon="3.43348">
        <ele>107</ele>
        <time>2014-04-15T06:45:20Z</time>
      </trkpt>
      <trkpt lat="47.88956" lon="3.4336">
        <ele>107</ele>
        <time>2014-04-15T06:45:31Z</time>
      </trkpt>
      <trkpt lat="47.88928" lon="3.43393">
        <ele>106</ele>
        <time>2014-04-15T06:45:57Z</time>
      </trkpt>
      <trkpt lat="47.88923" lon="3.43397">
        <ele>106</ele>
        <time>2014-04-15T06:46:02Z</time>
      </trkpt>
      <trkpt lat="47.88919" lon="3.43402">
        <ele>106</ele>
        <time>2014-04-15T06:46:04Z</time>
      </trkpt>
      <trkpt lat="47.88909" lon="3.43421">
        <ele>105</ele>
        <time>2014-04-15T06:46:17Z</time>
      </trkpt>
      <trkpt lat="47.88902" lon="3.43443">
        <ele>105</ele>
        <time>2014-04-15T06:46:31Z</time>
      </trkpt>
      <trkpt lat="47.88895" lon="3.43456">
        <ele>105</ele>
        <time>2014-04-15T06:46:41Z</time>
      </trkpt>
      <trkpt lat="47.8889" lon="3.43461">
        <ele>105</ele>
        <time>2014-04-15T06:46:45Z</time>
      </trkpt>
      <trkpt lat="47.88889" lon="3.43457">
        <ele>105</ele>
        <time>2014-04-15T06:46:53Z</time>
      </trkpt>
      <trkpt lat="47.88885" lon="3.43461">
        <ele>105</ele>
        <time>2014-04-15T06:46:57Z</time>
      </trkpt>
      <trkpt lat="47.88868" lon="3.43498">
        <ele>105</ele>
        <time>2014-04-15T06:47:23Z</time>
      </trkpt>
      <trkpt lat="47.8885" lon="3.43522">
        <ele>107</ele>
        <time>2014-04-15T06:47:43Z</time>
      </trkpt>
      <trkpt lat="47.88847" lon="3.43528">
        <ele>107</ele>
        <time>2014-04-15T06:47:48Z</time>
      </trkpt>
      <trkpt lat="47.8881" lon="3.43576">
        <ele>105</ele>
        <time>2014-04-15T06:48:28Z</time>
      </trkpt>
      <trkpt lat="47.88806" lon="3.4358">
        <ele>105</ele>
        <time>2014-04-15T06:48:34Z</time>
      </trkpt>
      <trkpt lat="47.88782" lon="3.43616">
        <ele>107</ele>
        <time>2014-04-15T06:49:04Z</time>
      </trkpt>
      <trkpt lat="47.88778" lon="3.43621">
        <ele>107</ele>
        <time>2014-04-15T06:49:09Z</time>
      </trkpt>
      <trkpt lat="47.88773" lon="3.43624">
        <ele>107</ele>
        <time>2014-04-15T06:49:15Z</time>
      </trkpt>
      <trkpt lat="47.88766" lon="3.43635">
        <ele>107</ele>
        <time>2014-04-15T06:49:23Z</time>
      </trkpt>
      <trkpt lat="47.88757" lon="3.43645">
        <ele>107</ele>
        <time>2014-04-15T06:49:32Z</time>
      </trkpt>
      <trkpt lat="47.88753" lon="3.43649">
        <ele>107</ele>
        <time>2014-04-15T06:49:35Z</time>
      </trkpt>
      <trkpt lat="47.88716" lon="3.43677">
        <ele>111</ele>
        <time>2014-04-15T06:50:10Z</time>
      </trkpt>
      <trkpt lat="47.88711" lon="3.43679">
        <ele>111</ele>
        <time>2014-04-15T06:50:14Z</time>
      </trkpt>
      <trkpt lat="47.88705" lon="3.43679">
        <ele>111</ele>
        <time>2014-04-15T06:50:19Z</time>
      </trkpt>
      <trkpt lat="47.88701" lon="3.43681">
        <ele>111</ele>
        <time>2014-04-15T06:50:23Z</time>
      </trkpt>
      <trkpt lat="47.88678" lon="3.43693">
        <ele>111</ele>
        <time>2014-04-15T06:50:44Z</time>
      </trkpt>
      <trkpt lat="47.88673" lon="3.43694">
        <ele>111</ele>
        <time>2014-04-15T06:50:48Z</time>
      </trkpt>
      <trkpt lat="47.88658" lon="3.437">
        <ele>111</ele>
        <time>2014-04-15T06:51:03Z</time>
      </trkpt>
      <trkpt lat="47.88653" lon="3.43702">
        <ele>112</ele>
        <time>2014-04-15T06:51:07Z</time>
      </trkpt>
      <trkpt lat="47.8865" lon="3.43707">
        <ele>112</ele>
        <time>2014-04-15T06:51:11Z</time>
      </trkpt>
      <trkpt lat="47.88646" lon="3.43712">
        <ele>112</ele>
        <time>2014-04-15T06:51:16Z</time>
      </trkpt>
      <trkpt lat="47.88641" lon="3.43715">
        <ele>112</ele>
        <time>2014-04-15T06:51:20Z</time>
      </trkpt>
      <trkpt lat="47.88636" lon="3.43717">
        <ele>112</ele>
        <time>2014-04-15T06:51:26Z</time>
      </trkpt>
      <trkpt lat="47.88631" lon="3.4372">
        <ele>112</ele>
        <time>2014-04-15T06:51:32Z</time>
      </trkpt>
      <trkpt lat="47.88627" lon="3.43722">
        <ele>112</ele>
        <time>2014-04-15T06:51:37Z</time>
      </trkpt>
      <trkpt lat="47.88622" lon="3.43719">
        <ele>112</ele>
        <time>2014-04-15T06:51:42Z</time>
      </trkpt>
      <trkpt lat="47.88608" lon="3.43726">
        <ele>113</ele>
        <time>2014-04-15T06:52:03Z</time>
      </trkpt>
      <trkpt lat="47.88595" lon="3.43734">
        <ele>113</ele>
        <time>2014-04-15T06:52:15Z</time>
      </trkpt>
      <trkpt lat="47.88586" lon="3.43744">
        <ele>114</ele>
        <time>2014-04-15T06:52:23Z</time>
      </trkpt>
      <trkpt lat="47.88582" lon="3.43747">
        <ele>114</ele>
        <time>2014-04-15T06:52:29Z</time>
      </trkpt>
      <trkpt lat="47.88577" lon="3.43748">
        <ele>113</ele>
        <time>2014-04-15T06:52:35Z</time>
      </trkpt>
      <trkpt lat="47.88572" lon="3.4375">
        <ele>113</ele>
        <time>2014-04-15T06:52:42Z</time>
      </trkpt>
      <trkpt lat="47.88567" lon="3.43751">
        <ele>114</ele>
        <time>2014-04-15T06:52:47Z</time>
      </trkpt>
      <trkpt lat="47.88552" lon="3.43757">
        <ele>114</ele>
        <time>2014-04-15T06:52:58Z</time>
      </trkpt>
      <trkpt lat="47.88548" lon="3.43761">
        <ele>114</ele>
        <time>2014-04-15T06:53:03Z</time>
      </trkpt>
      <trkpt lat="47.88546" lon="3.43767">
        <ele>114</ele>
        <time>2014-04-15T06:53:09Z</time>
      </trkpt>
      <trkpt lat="47.88536" lon="3.43774">
        <ele>114</ele>
        <time>2014-04-15T06:53:21Z</time>
      </trkpt>
      <trkpt lat="47.88532" lon="3.43776">
        <ele>114</ele>
        <time>2014-04-15T06:53:24Z</time>
      </trkpt>
      <trkpt lat="47.88529" lon="3.43784">
        <ele>114</ele>
        <time>2014-04-15T06:53:29Z</time>
      </trkpt>
      <trkpt lat="47.88526" lon="3.4379">
        <ele>114</ele>
        <time>2014-04-15T06:53:32Z</time>
      </trkpt>
      <trkpt lat="47.88522" lon="3.43796">
        <ele>114</ele>
        <time>2014-04-15T06:53:36Z</time>
      </trkpt>
      <trkpt lat="47.88521" lon="3.43803">
        <ele>114</ele>
        <time>2014-04-15T06:53:41Z</time>
      </trkpt>
      <trkpt lat="47.88518" lon="3.4381">
        <ele>114</ele>
        <time>2014-04-15T06:53:47Z</time>
      </trkpt>
      <trkpt lat="47.88514" lon="3.43815">
        <ele>114</ele>
        <time>2014-04-15T06:53:52Z</time>
      </trkpt>
      <trkpt lat="47.88509" lon="3.43816">
        <ele>114</ele>
        <time>2014-04-15T06:53:56Z</time>
      </trkpt>
      <trkpt lat="47.88507" lon="3.43825">
        <ele>114</ele>
        <time>2014-04-15T06:54:01Z</time>
      </trkpt>
      <trkpt lat="47.8851" lon="3.43822">
        <ele>114</ele>
        <time>2014-04-15T06:54:22Z</time>
      </trkpt>
      <trkpt lat="47.88507" lon="3.43817">
        <ele>114</ele>
        <time>2014-04-15T06:54:27Z</time>
      </trkpt>
      <trkpt lat="47.88507" lon="3.4382">
        <ele>114</ele>
        <time>2014-04-15T06:55:23Z</time>
      </trkpt>
      <trkpt lat="47.88511" lon="3.43824">
        <ele>114</ele>
        <time>2014-04-15T06:55:49Z</time>
      </trkpt>
      <trkpt lat="47.8851" lon="3.43831">
        <ele>114</ele>
        <time>2014-04-15T06:55:55Z</time>
      </trkpt>
      <trkpt lat="47.88506" lon="3.43836">
        <ele>114</ele>
        <time>2014-04-15T06:55:58Z</time>
      </trkpt>
      <trkpt lat="47.88492" lon="3.43869">
        <ele>115</ele>
        <time>2014-04-15T06:56:22Z</time>
      </trkpt>
      <trkpt lat="47.88489" lon="3.43874">
        <ele>115</ele>
        <time>2014-04-15T06:56:28Z</time>
      </trkpt>
      <trkpt lat="47.88485" lon="3.43896">
        <ele>115</ele>
        <time>2014-04-15T06:56:38Z</time>
      </trkpt>
      <trkpt lat="47.88485" lon="3.43905">
        <ele>116</ele>
        <time>2014-04-15T06:56:42Z</time>
      </trkpt>
      <trkpt lat="47.88481" lon="3.43935">
        <ele>116</ele>
        <time>2014-04-15T06:57:01Z</time>
      </trkpt>
      <trkpt lat="47.88478" lon="3.4394">
        <ele>116</ele>
        <time>2014-04-15T06:57:05Z</time>
      </trkpt>
      <trkpt lat="47.88474" lon="3.43946">
        <ele>116</ele>
        <time>2014-04-15T06:57:11Z</time>
      </trkpt>
      <trkpt lat="47.88472" lon="3.43952">
        <ele>116</ele>
        <time>2014-04-15T06:57:14Z</time>
      </trkpt>
      <trkpt lat="47.88469" lon="3.43956">
        <ele>116</ele>
        <time>2014-04-15T06:57:18Z</time>
      </trkpt>
      <trkpt lat="47.88464" lon="3.43959">
        <ele>116</ele>
        <time>2014-04-15T06:57:20Z</time>
      </trkpt>
      <trkpt lat="47.8846" lon="3.43963">
        <ele>116</ele>
        <time>2014-04-15T06:57:26Z</time>
      </trkpt>
      <trkpt lat="47.88456" lon="3.43968">
        <ele>116</ele>
        <time>2014-04-15T06:57:30Z</time>
      </trkpt>
      <trkpt lat="47.88452" lon="3.43972">
        <ele>116</ele>
        <time>2014-04-15T06:57:35Z</time>
      </trkpt>
      <trkpt lat="47.88448" lon="3.43977">
        <ele>116</ele>
        <time>2014-04-15T06:57:38Z</time>
      </trkpt>
      <trkpt lat="47.88439" lon="3.43983">
        <ele>115</ele>
        <time>2014-04-15T06:57:46Z</time>
      </trkpt>
      <trkpt lat="47.88431" lon="3.43993">
        <ele>114</ele>
        <time>2014-04-15T06:57:51Z</time>
      </trkpt>
      <trkpt lat="47.88429" lon="3.43999">
        <ele>114</ele>
        <time>2014-04-15T06:57:55Z</time>
      </trkpt>
      <trkpt lat="47.88419" lon="3.44017">
        <ele>115</ele>
        <time>2014-04-15T06:58:10Z</time>
      </trkpt>
      <trkpt lat="47.88415" lon="3.44022">
        <ele>112</ele>
        <time>2014-04-15T06:58:14Z</time>
      </trkpt>
      <trkpt lat="47.88402" lon="3.44034">
        <ele>112</ele>
        <time>2014-04-15T06:58:24Z</time>
      </trkpt>
      <trkpt lat="47.88394" lon="3.44042">
        <ele>112</ele>
        <time>2014-04-15T06:58:34Z</time>
      </trkpt>
      <trkpt lat="47.88391" lon="3.44049">
        <ele>112</ele>
        <time>2014-04-15T06:58:40Z</time>
      </trkpt>
      <trkpt lat="47.8838" lon="3.44066">
        <ele>112</ele>
        <time>2014-04-15T06:58:55Z</time>
      </trkpt>
      <trkpt lat="47.88374" lon="3.44069">
        <ele>112</ele>
        <time>2014-04-15T06:58:59Z</time>
      </trkpt>
      <trkpt lat="47.8837" lon="3.44073">
        <ele>112</ele>
        <time>2014-04-15T06:59:01Z</time>
      </trkpt>
      <trkpt lat="47.88368" lon="3.44079">
        <ele>112</ele>
        <time>2014-04-15T06:59:04Z</time>
      </trkpt>
      <trkpt lat="47.88363" lon="3.44093">
        <ele>114</ele>
        <time>2014-04-15T06:59:16Z</time>
      </trkpt>
      <trkpt lat="47.8836" lon="3.44099">
        <ele>114</ele>
        <time>2014-04-15T06:59:22Z</time>
      </trkpt>
      <trkpt lat="47.8836" lon="3.44106">
        <ele>114</ele>
        <time>2014-04-15T06:59:27Z</time>
      </trkpt>
      <trkpt lat="47.88347" lon="3.44129">
        <ele>114</ele>
        <time>2014-04-15T06:59:42Z</time>
      </trkpt>
      <trkpt lat="47.88343" lon="3.44134">
        <ele>114</ele>
        <time>2014-04-15T06:59:48Z</time>
      </trkpt>
      <trkpt lat="47.88339" lon="3.44137">
        <ele>114</ele>
        <time>2014-04-15T06:59:53Z</time>
      </trkpt>
      <trkpt lat="47.88337" lon="3.44143">
        <ele>114</ele>
        <time>2014-04-15T06:59:57Z</time>
      </trkpt>
      <trkpt lat="47.88332" lon="3.44148">
        <ele>112</ele>
        <time>2014-04-15T07:00:00Z</time>
      </trkpt>
      <trkpt lat="47.88328" lon="3.44152">
        <ele>112</ele>
        <time>2014-04-15T07:00:03Z</time>
      </trkpt>
      <trkpt lat="47.88321" lon="3.44162">
        <ele>112</ele>
        <time>2014-04-15T07:00:12Z</time>
      </trkpt>
      <trkpt lat="47.88318" lon="3.44169">
        <ele>113</ele>
        <time>2014-04-15T07:00:17Z</time>
      </trkpt>
      <trkpt lat="47.88314" lon="3.44172">
        <ele>113</ele>
        <time>2014-04-15T07:00:21Z</time>
      </trkpt>
      <trkpt lat="47.88309" lon="3.44174">
        <ele>113</ele>
        <time>2014-04-15T07:00:23Z</time>
      </trkpt>
      <trkpt lat="47.88304" lon="3.44177">
        <ele>113</ele>
        <time>2014-04-15T07:00:27Z</time>
      </trkpt>
      <trkpt lat="47.88301" lon="3.44183">
        <ele>113</ele>
        <time>2014-04-15T07:00:32Z</time>
      </trkpt>
      <trkpt lat="47.88297" lon="3.44187">
        <ele>113</ele>
        <time>2014-04-15T07:00:36Z</time>
      </trkpt>
      <trkpt lat="47.88292" lon="3.44193">
        <ele>113</ele>
        <time>2014-04-15T07:00:40Z</time>
      </trkpt>
      <trkpt lat="47.88289" lon="3.44199">
        <ele>113</ele>
        <time>2014-04-15T07:00:44Z</time>
      </trkpt>
      <trkpt lat="47.88285" lon="3.44212">
        <ele>113</ele>
        <time>2014-04-15T07:00:52Z</time>
      </trkpt>
      <trkpt lat="47.88282" lon="3.44218">
        <ele>113</ele>
        <time>2014-04-15T07:00:56Z</time>
      </trkpt>
      <trkpt lat="47.88274" lon="3.44227">
        <ele>113</ele>
        <time>2014-04-15T07:01:03Z</time>
      </trkpt>
      <trkpt lat="47.88271" lon="3.44233">
        <ele>113</ele>
        <time>2014-04-15T07:01:06Z</time>
      </trkpt>
      <trkpt lat="47.88269" lon="3.44239">
        <ele>113</ele>
        <time>2014-04-15T07:01:11Z</time>
      </trkpt>
      <trkpt lat="47.88261" lon="3.44248">
        <ele>112</ele>
        <time>2014-04-15T07:01:19Z</time>
      </trkpt>
      <trkpt lat="47.88259" lon="3.44254">
        <ele>114</ele>
        <time>2014-04-15T07:01:23Z</time>
      </trkpt>
      <trkpt lat="47.88254" lon="3.4425">
        <ele>112</ele>
        <time>2014-04-15T07:01:29Z</time>
      </trkpt>
      <trkpt lat="47.88249" lon="3.44249">
        <ele>111</ele>
        <time>2014-04-15T07:01:35Z</time>
      </trkpt>
      <trkpt lat="47.88246" lon="3.44255">
        <ele>111</ele>
        <time>2014-04-15T07:01:40Z</time>
      </trkpt>
      <trkpt lat="47.88243" lon="3.44261">
        <ele>111</ele>
        <time>2014-04-15T07:01:45Z</time>
      </trkpt>
      <trkpt lat="47.88239" lon="3.44275">
        <ele>111</ele>
        <time>2014-04-15T07:01:56Z</time>
      </trkpt>
      <trkpt lat="47.88235" lon="3.4428">
        <ele>111</ele>
        <time>2014-04-15T07:02:00Z</time>
      </trkpt>
      <trkpt lat="47.88232" lon="3.44286">
        <ele>111</ele>
        <time>2014-04-15T07:02:04Z</time>
      </trkpt>
      <trkpt lat="47.88227" lon="3.4429">
        <ele>111</ele>
        <time>2014-04-15T07:02:08Z</time>
      </trkpt>
      <trkpt lat="47.88219" lon="3.44299">
        <ele>111</ele>
        <time>2014-04-15T07:02:14Z</time>
      </trkpt>
      <trkpt lat="47.88215" lon="3.44304">
        <ele>111</ele>
        <time>2014-04-15T07:02:17Z</time>
      </trkpt>
      <trkpt lat="47.88207" lon="3.44314">
        <ele>111</ele>
        <time>2014-04-15T07:02:27Z</time>
      </trkpt>
      <trkpt lat="47.88206" lon="3.44322">
        <ele>111</ele>
        <time>2014-04-15T07:02:32Z</time>
      </trkpt>
      <trkpt lat="47.88205" lon="3.44329">
        <ele>111</ele>
        <time>2014-04-15T07:02:38Z</time>
      </trkpt>
      <trkpt lat="47.88198" lon="3.44339">
        <ele>115</ele>
        <time>2014-04-15T07:02:46Z</time>
      </trkpt>
      <trkpt lat="47.88196" lon="3.44347">
        <ele>115</ele>
        <time>2014-04-15T07:02:50Z</time>
      </trkpt>
      <trkpt lat="47.88191" lon="3.44352">
        <ele>115</ele>
        <time>2014-04-15T07:02:55Z</time>
      </trkpt>
      <trkpt lat="47.88186" lon="3.44356">
        <ele>115</ele>
        <time>2014-04-15T07:02:59Z</time>
      </trkpt>
      <trkpt lat="47.88183" lon="3.44362">
        <ele>115</ele>
        <time>2014-04-15T07:03:02Z</time>
      </trkpt>
      <trkpt lat="47.88174" lon="3.44367">
        <ele>115</ele>
        <time>2014-04-15T07:03:10Z</time>
      </trkpt>
      <trkpt lat="47.88171" lon="3.44373">
        <ele>116</ele>
        <time>2014-04-15T07:03:15Z</time>
      </trkpt>
      <trkpt lat="47.88167" lon="3.44386">
        <ele>116</ele>
        <time>2014-04-15T07:03:24Z</time>
      </trkpt>
      <trkpt lat="47.88164" lon="3.4439">
        <ele>114</ele>
        <time>2014-04-15T07:03:28Z</time>
      </trkpt>
      <trkpt lat="47.88157" lon="3.44399">
        <ele>114</ele>
        <time>2014-04-15T07:03:36Z</time>
      </trkpt>
      <trkpt lat="47.88152" lon="3.44401">
        <ele>114</ele>
        <time>2014-04-15T07:03:39Z</time>
      </trkpt>
      <trkpt lat="47.88147" lon="3.44405">
        <ele>114</ele>
        <time>2014-04-15T07:03:44Z</time>
      </trkpt>
      <trkpt lat="47.88142" lon="3.44407">
        <ele>114</ele>
        <time>2014-04-15T07:03:48Z</time>
      </trkpt>
      <trkpt lat="47.88137" lon="3.44408">
        <ele>114</ele>
        <time>2014-04-15T07:03:55Z</time>
      </trkpt>
      <trkpt lat="47.88127" lon="3.44412">
        <ele>114</ele>
        <time>2014-04-15T07:04:05Z</time>
      </trkpt>
      <trkpt lat="47.88114" lon="3.44424">
        <ele>119</ele>
        <time>2014-04-15T07:04:15Z</time>
      </trkpt>
      <trkpt lat="47.88108" lon="3.44427">
        <ele>119</ele>
        <time>2014-04-15T07:04:19Z</time>
      </trkpt>
      <trkpt lat="47.88103" lon="3.44427">
        <ele>119</ele>
        <time>2014-04-15T07:04:24Z</time>
      </trkpt>
      <trkpt lat="47.88098" lon="3.4443">
        <ele>118</ele>
        <time>2014-04-15T07:04:27Z</time>
      </trkpt>
      <trkpt lat="47.88092" lon="3.44429">
        <ele>118</ele>
        <time>2014-04-15T07:04:31Z</time>
      </trkpt>
      <trkpt lat="47.88087" lon="3.44428">
        <ele>117</ele>
        <time>2014-04-15T07:04:34Z</time>
      </trkpt>
      <trkpt lat="47.88067" lon="3.44435">
        <ele>117</ele>
        <time>2014-04-15T07:04:47Z</time>
      </trkpt>
      <trkpt lat="47.88062" lon="3.44437">
        <ele>117</ele>
        <time>2014-04-15T07:04:51Z</time>
      </trkpt>
      <trkpt lat="47.88058" lon="3.44441">
        <ele>117</ele>
        <time>2014-04-15T07:04:54Z</time>
      </trkpt>
      <trkpt lat="47.88048" lon="3.44445">
        <ele>118</ele>
        <time>2014-04-15T07:05:01Z</time>
      </trkpt>
      <trkpt lat="47.88039" lon="3.44451">
        <ele>118</ele>
        <time>2014-04-15T07:05:09Z</time>
      </trkpt>
      <trkpt lat="47.88029" lon="3.4445">
        <ele>118</ele>
        <time>2014-04-15T07:05:21Z</time>
      </trkpt>
      <trkpt lat="47.88024" lon="3.44453">
        <ele>118</ele>
        <time>2014-04-15T07:05:23Z</time>
      </trkpt>
      <trkpt lat="47.88015" lon="3.44461">
        <ele>118</ele>
        <time>2014-04-15T07:05:30Z</time>
      </trkpt>
      <trkpt lat="47.88011" lon="3.44466">
        <ele>118</ele>
        <time>2014-04-15T07:05:35Z</time>
      </trkpt>
      <trkpt lat="47.88006" lon="3.4447">
        <ele>118</ele>
        <time>2014-04-15T07:05:38Z</time>
      </trkpt>
      <trkpt lat="47.88001" lon="3.44473">
        <ele>118</ele>
        <time>2014-04-15T07:05:42Z</time>
      </trkpt>
      <trkpt lat="47.87996" lon="3.44473">
        <ele>117</ele>
        <time>2014-04-15T07:05:45Z</time>
      </trkpt>
      <trkpt lat="47.87992" lon="3.44477">
        <ele>117</ele>
        <time>2014-04-15T07:05:53Z</time>
      </trkpt>
      <trkpt lat="47.87963" lon="3.44489">
        <ele>118</ele>
        <time>2014-04-15T07:06:23Z</time>
      </trkpt>
      <trkpt lat="47.87953" lon="3.44489">
        <ele>118</ele>
        <time>2014-04-15T07:06:26Z</time>
      </trkpt>
      <trkpt lat="47.87949" lon="3.44492">
        <ele>118</ele>
        <time>2014-04-15T07:06:27Z</time>
      </trkpt>
      <trkpt lat="47.87943" lon="3.44497">
        <ele>118</ele>
        <time>2014-04-15T07:06:31Z</time>
      </trkpt>
      <trkpt lat="47.87939" lon="3.44502">
        <ele>120</ele>
        <time>2014-04-15T07:06:36Z</time>
      </trkpt>
      <trkpt lat="47.87935" lon="3.44504">
        <ele>120</ele>
        <time>2014-04-15T07:06:40Z</time>
      </trkpt>
      <trkpt lat="47.8793" lon="3.44506">
        <ele>120</ele>
        <time>2014-04-15T07:06:44Z</time>
      </trkpt>
      <trkpt lat="47.87914" lon="3.44509">
        <ele>119</ele>
        <time>2014-04-15T07:06:57Z</time>
      </trkpt>
      <trkpt lat="47.8791" lon="3.44511">
        <ele>119</ele>
        <time>2014-04-15T07:07:02Z</time>
      </trkpt>
      <trkpt lat="47.87904" lon="3.44514">
        <ele>119</ele>
        <time>2014-04-15T07:07:05Z</time>
      </trkpt>
      <trkpt lat="47.87899" lon="3.44516">
        <ele>119</ele>
        <time>2014-04-15T07:07:08Z</time>
      </trkpt>
      <trkpt lat="47.87893" lon="3.44517">
        <ele>119</ele>
        <time>2014-04-15T07:07:12Z</time>
      </trkpt>
      <trkpt lat="47.87888" lon="3.44516">
        <ele>119</ele>
        <time>2014-04-15T07:07:16Z</time>
      </trkpt>
      <trkpt lat="47.87883" lon="3.44516">
        <ele>119</ele>
        <time>2014-04-15T07:07:19Z</time>
      </trkpt>
      <trkpt lat="47.87879" lon="3.44517">
        <ele>119</ele>
        <time>2014-04-15T07:07:24Z</time>
      </trkpt>
      <trkpt lat="47.87878" lon="3.44521">
        <ele>119</ele>
        <time>2014-04-15T07:07:30Z</time>
      </trkpt>
      <trkpt lat="47.87873" lon="3.44525">
        <ele>119</ele>
        <time>2014-04-15T07:07:36Z</time>
      </trkpt>
      <trkpt lat="47.87867" lon="3.44527">
        <ele>119</ele>
        <time>2014-04-15T07:07:40Z</time>
      </trkpt>
      <trkpt lat="47.87862" lon="3.44528">
        <ele>119</ele>
        <time>2014-04-15T07:07:44Z</time>
      </trkpt>
      <trkpt lat="47.87857" lon="3.44529">
        <ele>118</ele>
        <time>2014-04-15T07:07:48Z</time>
      </trkpt>
      <trkpt lat="47.87852" lon="3.44529">
        <ele>118</ele>
        <time>2014-04-15T07:07:52Z</time>
      </trkpt>
      <trkpt lat="47.87847" lon="3.44532">
        <ele>118</ele>
        <time>2014-04-15T07:07:55Z</time>
      </trkpt>
      <trkpt lat="47.87842" lon="3.44536">
        <ele>118</ele>
        <time>2014-04-15T07:07:58Z</time>
      </trkpt>
      <trkpt lat="47.87838" lon="3.44538">
        <ele>119</ele>
        <time>2014-04-15T07:08:03Z</time>
      </trkpt>
      <trkpt lat="47.87833" lon="3.44534">
        <ele>118</ele>
        <time>2014-04-15T07:08:09Z</time>
      </trkpt>
      <trkpt lat="47.8783" lon="3.44538">
        <ele>115</ele>
        <time>2014-04-15T07:08:16Z</time>
      </trkpt>
      <trkpt lat="47.87826" lon="3.44542">
        <ele>116</ele>
        <time>2014-04-15T07:08:23Z</time>
      </trkpt>
      <trkpt lat="47.87821" lon="3.44543">
        <ele>115</ele>
        <time>2014-04-15T07:08:27Z</time>
      </trkpt>
      <trkpt lat="47.878" lon="3.44559">
        <ele>115</ele>
        <time>2014-04-15T07:08:41Z</time>
      </trkpt>
      <trkpt lat="47.87795" lon="3.44563">
        <ele>115</ele>
        <time>2014-04-15T07:08:46Z</time>
      </trkpt>
      <trkpt lat="47.8779" lon="3.44563">
        <ele>115</ele>
        <time>2014-04-15T07:08:52Z</time>
      </trkpt>
      <trkpt lat="47.87784" lon="3.44563">
        <ele>115</ele>
        <time>2014-04-15T07:08:55Z</time>
      </trkpt>
      <trkpt lat="47.8778" lon="3.44565">
        <ele>114</ele>
        <time>2014-04-15T07:08:58Z</time>
      </trkpt>
      <trkpt lat="47.87775" lon="3.44565">
        <ele>114</ele>
        <time>2014-04-15T07:09:04Z</time>
      </trkpt>
      <trkpt lat="47.87774" lon="3.44557">
        <ele>114</ele>
        <time>2014-04-15T07:09:08Z</time>
      </trkpt>
      <trkpt lat="47.87777" lon="3.4454">
        <ele>114</ele>
        <time>2014-04-15T07:09:14Z</time>
      </trkpt>
      <trkpt lat="47.87782" lon="3.44526">
        <ele>114</ele>
        <time>2014-04-15T07:09:23Z</time>
      </trkpt>
      <trkpt lat="47.87782" lon="3.44518">
        <ele>114</ele>
        <time>2014-04-15T07:09:25Z</time>
      </trkpt>
      <trkpt lat="47.87781" lon="3.44504">
        <ele>113</ele>
        <time>2014-04-15T07:09:31Z</time>
      </trkpt>
      <trkpt lat="47.8778" lon="3.44497">
        <ele>114</ele>
        <time>2014-04-15T07:09:35Z</time>
      </trkpt>
      <trkpt lat="47.87782" lon="3.4449">
        <ele>114</ele>
        <time>2014-04-15T07:09:41Z</time>
      </trkpt>
      <trkpt lat="47.8778" lon="3.44474">
        <ele>114</ele>
        <time>2014-04-15T07:09:48Z</time>
      </trkpt>
      <trkpt lat="47.87778" lon="3.44467">
        <ele>115</ele>
        <time>2014-04-15T07:09:54Z</time>
      </trkpt>
      <trkpt lat="47.87777" lon="3.44459">
        <ele>115</ele>
        <time>2014-04-15T07:09:58Z</time>
      </trkpt>
      <trkpt lat="47.8778" lon="3.44443">
        <ele>116</ele>
        <time>2014-04-15T07:10:08Z</time>
      </trkpt>
      <trkpt lat="47.87774" lon="3.44429">
        <ele>116</ele>
        <time>2014-04-15T07:10:16Z</time>
      </trkpt>
      <trkpt lat="47.87777" lon="3.44426">
        <ele>116</ele>
        <time>2014-04-15T07:10:26Z</time>
      </trkpt>
      <trkpt lat="47.87779" lon="3.44419">
        <ele>116</ele>
        <time>2014-04-15T07:10:29Z</time>
      </trkpt>
      <trkpt lat="47.87779" lon="3.44411">
        <ele>118</ele>
        <time>2014-04-15T07:10:35Z</time>
      </trkpt>
      <trkpt lat="47.87783" lon="3.44398">
        <ele>118</ele>
        <time>2014-04-15T07:10:44Z</time>
      </trkpt>
      <trkpt lat="47.87783" lon="3.44391">
        <ele>118</ele>
        <time>2014-04-15T07:10:48Z</time>
      </trkpt>
      <trkpt lat="47.87784" lon="3.44384">
        <ele>118</ele>
        <time>2014-04-15T07:10:52Z</time>
      </trkpt>
      <trkpt lat="47.87783" lon="3.44377">
        <ele>119</ele>
        <time>2014-04-15T07:10:58Z</time>
      </trkpt>
      <trkpt lat="47.87784" lon="3.44367">
        <ele>119</ele>
        <time>2014-04-15T07:11:03Z</time>
      </trkpt>
      <trkpt lat="47.87783" lon="3.44359">
        <ele>119</ele>
        <time>2014-04-15T07:11:06Z</time>
      </trkpt>
      <trkpt lat="47.8778" lon="3.44352">
        <ele>119</ele>
        <time>2014-04-15T07:11:11Z</time>
      </trkpt>
      <trkpt lat="47.87782" lon="3.4433">
        <ele>119</ele>
        <time>2014-04-15T07:11:22Z</time>
      </trkpt>
      <trkpt lat="47.87782" lon="3.44322">
        <ele>119</ele>
        <time>2014-04-15T07:11:26Z</time>
      </trkpt>
      <trkpt lat="47.87779" lon="3.44286">
        <ele>118</ele>
        <time>2014-04-15T07:11:45Z</time>
      </trkpt>
      <trkpt lat="47.8778" lon="3.44277">
        <ele>118</ele>
        <time>2014-04-15T07:11:57Z</time>
      </trkpt>
      <trkpt lat="47.87777" lon="3.44261">
        <ele>118</ele>
        <time>2014-04-15T07:12:04Z</time>
      </trkpt>
      <trkpt lat="47.87775" lon="3.44254">
        <ele>118</ele>
        <time>2014-04-15T07:12:08Z</time>
      </trkpt>
      <trkpt lat="47.87772" lon="3.44258">
        <ele>118</ele>
        <time>2014-04-15T07:12:26Z</time>
      </trkpt>
      <trkpt lat="47.87767" lon="3.44263">
        <ele>118</ele>
        <time>2014-04-15T07:12:31Z</time>
      </trkpt>
      <trkpt lat="47.87747" lon="3.44272">
        <ele>118</ele>
        <time>2014-04-15T07:12:44Z</time>
      </trkpt>
      <trkpt lat="47.87735" lon="3.44284">
        <ele>118</ele>
        <time>2014-04-15T07:12:57Z</time>
      </trkpt>
      <trkpt lat="47.8773" lon="3.44286">
        <ele>118</ele>
        <time>2014-04-15T07:13:02Z</time>
      </trkpt>
      <trkpt lat="47.87726" lon="3.4429">
        <ele>118</ele>
        <time>2014-04-15T07:13:05Z</time>
      </trkpt>
      <trkpt lat="47.87723" lon="3.44295">
        <ele>118</ele>
        <time>2014-04-15T07:13:10Z</time>
      </trkpt>
      <trkpt lat="47.87718" lon="3.44298">
        <ele>118</ele>
        <time>2014-04-15T07:13:15Z</time>
      </trkpt>
      <trkpt lat="47.87713" lon="3.443">
        <ele>118</ele>
        <time>2014-04-15T07:13:18Z</time>
      </trkpt>
      <trkpt lat="47.877" lon="3.44301">
        <ele>118</ele>
        <time>2014-04-15T07:13:23Z</time>
      </trkpt>
      <trkpt lat="47.87696" lon="3.44303">
        <ele>118</ele>
        <time>2014-04-15T07:13:27Z</time>
      </trkpt>
      <trkpt lat="47.87692" lon="3.44307">
        <ele>118</ele>
        <time>2014-04-15T07:13:32Z</time>
      </trkpt>
      <trkpt lat="47.87686" lon="3.44308">
        <ele>117</ele>
        <time>2014-04-15T07:13:38Z</time>
      </trkpt>
      <trkpt lat="47.87683" lon="3.4431">
        <ele>117</ele>
        <time>2014-04-15T07:14:04Z</time>
      </trkpt>
      <trkpt lat="47.87666" lon="3.44313">
        <ele>115</ele>
        <time>2014-04-15T07:14:14Z</time>
      </trkpt>
      <trkpt lat="47.87656" lon="3.44318">
        <ele>115</ele>
        <time>2014-04-15T07:14:19Z</time>
      </trkpt>
      <trkpt lat="47.87653" lon="3.44324">
        <ele>115</ele>
        <time>2014-04-15T07:14:28Z</time>
      </trkpt>
      <trkpt lat="47.87648" lon="3.44326">
        <ele>115</ele>
        <time>2014-04-15T07:14:32Z</time>
      </trkpt>
      <trkpt lat="47.87644" lon="3.44329">
        <ele>115</ele>
        <time>2014-04-15T07:14:36Z</time>
      </trkpt>
      <trkpt lat="47.8764" lon="3.44334">
        <ele>115</ele>
        <time>2014-04-15T07:14:41Z</time>
      </trkpt>
      <trkpt lat="47.87636" lon="3.44337">
        <ele>114</ele>
        <time>2014-04-15T07:14:46Z</time>
      </trkpt>
      <trkpt lat="47.87626" lon="3.44342">
        <ele>114</ele>
        <time>2014-04-15T07:14:55Z</time>
      </trkpt>
      <trkpt lat="47.87621" lon="3.44344">
        <ele>113</ele>
        <time>2014-04-15T07:14:57Z</time>
      </trkpt>
      <trkpt lat="47.87617" lon="3.44346">
        <ele>113</ele>
        <time>2014-04-15T07:15:02Z</time>
      </trkpt>
      <trkpt lat="47.87605" lon="3.44358">
        <ele>113</ele>
        <time>2014-04-15T07:15:15Z</time>
      </trkpt>
      <trkpt lat="47.87601" lon="3.44364">
        <ele>113</ele>
        <time>2014-04-15T07:15:20Z</time>
      </trkpt>
      <trkpt lat="47.87597" lon="3.44366">
        <ele>113</ele>
        <time>2014-04-15T07:15:23Z</time>
      </trkpt>
      <trkpt lat="47.87591" lon="3.44367">
        <ele>113</ele>
        <time>2014-04-15T07:15:27Z</time>
      </trkpt>
      <trkpt lat="47.87573" lon="3.44379">
        <ele>111</ele>
        <time>2014-04-15T07:15:53Z</time>
      </trkpt>
      <trkpt lat="47.87569" lon="3.44382">
        <ele>111</ele>
        <time>2014-04-15T07:15:55Z</time>
      </trkpt>
      <trkpt lat="47.87563" lon="3.44385">
        <ele>111</ele>
        <time>2014-04-15T07:16:32Z</time>
      </trkpt>
      <trkpt lat="47.87559" lon="3.44389">
        <ele>111</ele>
        <time>2014-04-15T07:16:37Z</time>
      </trkpt>
      <trkpt lat="47.87555" lon="3.44385">
        <ele>111</ele>
        <time>2014-04-15T07:16:42Z</time>
      </trkpt>
      <trkpt lat="47.87552" lon="3.44378">
        <ele>111</ele>
        <time>2014-04-15T07:16:44Z</time>
      </trkpt>
      <trkpt lat="47.87547" lon="3.44379">
        <ele>111</ele>
        <time>2014-04-15T07:16:49Z</time>
      </trkpt>
      <trkpt lat="47.87538" lon="3.44385">
        <ele>112</ele>
        <time>2014-04-15T07:16:57Z</time>
      </trkpt>
      <trkpt lat="47.87534" lon="3.44392">
        <ele>112</ele>
        <time>2014-04-15T07:17:00Z</time>
      </trkpt>
      <trkpt lat="47.87532" lon="3.44399">
        <ele>112</ele>
        <time>2014-04-15T07:17:05Z</time>
      </trkpt>
      <trkpt lat="47.87529" lon="3.44404">
        <ele>112</ele>
        <time>2014-04-15T07:17:10Z</time>
      </trkpt>
      <trkpt lat="47.87525" lon="3.44408">
        <ele>112</ele>
        <time>2014-04-15T07:17:14Z</time>
      </trkpt>
      <trkpt lat="47.87516" lon="3.44412">
        <ele>112</ele>
        <time>2014-04-15T07:17:24Z</time>
      </trkpt>
      <trkpt lat="47.87511" lon="3.44418">
        <ele>112</ele>
        <time>2014-04-15T07:17:29Z</time>
      </trkpt>
      <trkpt lat="47.87506" lon="3.44419">
        <ele>113</ele>
        <time>2014-04-15T07:17:32Z</time>
      </trkpt>
      <trkpt lat="47.87502" lon="3.44423">
        <ele>113</ele>
        <time>2014-04-15T07:17:37Z</time>
      </trkpt>
      <trkpt lat="47.87497" lon="3.44426">
        <ele>113</ele>
        <time>2014-04-15T07:17:42Z</time>
      </trkpt>
      <trkpt lat="47.87492" lon="3.44428">
        <ele>113</ele>
        <time>2014-04-15T07:17:48Z</time>
      </trkpt>
      <trkpt lat="47.87483" lon="3.44434">
        <ele>113</ele>
        <time>2014-04-15T07:17:57Z</time>
      </trkpt>
      <trkpt lat="47.87475" lon="3.44442">
        <ele>113</ele>
        <time>2014-04-15T07:18:07Z</time>
      </trkpt>
      <trkpt lat="47.87469" lon="3.44444">
        <ele>113</ele>
        <time>2014-04-15T07:18:12Z</time>
      </trkpt>
      <trkpt lat="47.87457" lon="3.44445">
        <ele>113</ele>
        <time>2014-04-15T07:18:18Z</time>
      </trkpt>
      <trkpt lat="47.87452" lon="3.44448">
        <ele>113</ele>
        <time>2014-04-15T07:18:21Z</time>
      </trkpt>
      <trkpt lat="47.87448" lon="3.44453">
        <ele>112</ele>
        <time>2014-04-15T07:18:24Z</time>
      </trkpt>
      <trkpt lat="47.87442" lon="3.44465">
        <ele>112</ele>
        <time>2014-04-15T07:18:33Z</time>
      </trkpt>
      <trkpt lat="47.87434" lon="3.44473">
        <ele>112</ele>
        <time>2014-04-15T07:18:40Z</time>
      </trkpt>
      <trkpt lat="47.87429" lon="3.44475">
        <ele>112</ele>
        <time>2014-04-15T07:18:44Z</time>
      </trkpt>
      <trkpt lat="47.87424" lon="3.4448">
        <ele>112</ele>
        <time>2014-04-15T07:18:47Z</time>
      </trkpt>
      <trkpt lat="47.87419" lon="3.44482">
        <ele>112</ele>
        <time>2014-04-15T07:18:49Z</time>
      </trkpt>
      <trkpt lat="47.87414" lon="3.44483">
        <ele>113</ele>
        <time>2014-04-15T07:18:52Z</time>
      </trkpt>
      <trkpt lat="47.87409" lon="3.44485">
        <ele>113</ele>
        <time>2014-04-15T07:18:57Z</time>
      </trkpt>
      <trkpt lat="47.87404" lon="3.44488">
        <ele>113</ele>
        <time>2014-04-15T07:19:02Z</time>
      </trkpt>
      <trkpt lat="47.874" lon="3.44492">
        <ele>113</ele>
        <time>2014-04-15T07:19:06Z</time>
      </trkpt>
      <trkpt lat="47.87396" lon="3.44496">
        <ele>113</ele>
        <time>2014-04-15T07:19:10Z</time>
      </trkpt>
      <trkpt lat="47.8739" lon="3.44498">
        <ele>114</ele>
        <time>2014-04-15T07:19:14Z</time>
      </trkpt>
      <trkpt lat="47.87385" lon="3.44502">
        <ele>112</ele>
        <time>2014-04-15T07:19:18Z</time>
      </trkpt>
      <trkpt lat="47.87381" lon="3.44505">
        <ele>112</ele>
        <time>2014-04-15T07:19:20Z</time>
      </trkpt>
      <trkpt lat="47.87376" lon="3.44505">
        <ele>112</ele>
        <time>2014-04-15T07:19:26Z</time>
      </trkpt>
      <trkpt lat="47.87371" lon="3.44505">
        <ele>113</ele>
        <time>2014-04-15T07:19:31Z</time>
      </trkpt>
      <trkpt lat="47.87367" lon="3.44508">
        <ele>113</ele>
        <time>2014-04-15T07:19:37Z</time>
      </trkpt>
      <trkpt lat="47.87363" lon="3.44511">
        <ele>113</ele>
        <time>2014-04-15T07:19:42Z</time>
      </trkpt>
      <trkpt lat="47.87358" lon="3.44514">
        <ele>113</ele>
        <time>2014-04-15T07:19:48Z</time>
      </trkpt>
      <trkpt lat="47.87353" lon="3.44516">
        <ele>113</ele>
        <time>2014-04-15T07:19:52Z</time>
      </trkpt>
      <trkpt lat="47.87323" lon="3.44536">
        <ele>113</ele>
        <time>2014-04-15T07:20:14Z</time>
      </trkpt>
      <trkpt lat="47.87318" lon="3.44536">
        <ele>113</ele>
        <time>2014-04-15T07:20:21Z</time>
      </trkpt>
      <trkpt lat="47.87313" lon="3.44539">
        <ele>113</ele>
        <time>2014-04-15T07:20:26Z</time>
      </trkpt>
      <trkpt lat="47.8731" lon="3.44544">
        <ele>113</ele>
        <time>2014-04-15T07:20:29Z</time>
      </trkpt>
      <trkpt lat="47.87305" lon="3.44548">
        <ele>113</ele>
        <time>2014-04-15T07:20:32Z</time>
      </trkpt>
      <trkpt lat="47.873" lon="3.44551">
        <ele>112</ele>
        <time>2014-04-15T07:20:36Z</time>
      </trkpt>
      <trkpt lat="47.87295" lon="3.4455">
        <ele>113</ele>
        <time>2014-04-15T07:20:40Z</time>
      </trkpt>
      <trkpt lat="47.87289" lon="3.44552">
        <ele>113</ele>
        <time>2014-04-15T07:20:44Z</time>
      </trkpt>
      <trkpt lat="47.87282" lon="3.44553">
        <ele>113</ele>
        <time>2014-04-15T07:20:48Z</time>
      </trkpt>
      <trkpt lat="47.87274" lon="3.44559">
        <ele>113</ele>
        <time>2014-04-15T07:20:54Z</time>
      </trkpt>
      <trkpt lat="47.87268" lon="3.44565">
        <ele>113</ele>
        <time>2014-04-15T07:20:59Z</time>
      </trkpt>
      <trkpt lat="47.87262" lon="3.44565">
        <ele>113</ele>
        <time>2014-04-15T07:21:03Z</time>
      </trkpt>
      <trkpt lat="47.87258" lon="3.44568">
        <ele>113</ele>
        <time>2014-04-15T07:21:07Z</time>
      </trkpt>
      <trkpt lat="47.8725" lon="3.44575">
        <ele>114</ele>
        <time>2014-04-15T07:21:14Z</time>
      </trkpt>
      <trkpt lat="47.8724" lon="3.44581">
        <ele>114</ele>
        <time>2014-04-15T07:21:24Z</time>
      </trkpt>
      <trkpt lat="47.8723" lon="3.44589">
        <ele>115</ele>
        <time>2014-04-15T07:21:32Z</time>
      </trkpt>
      <trkpt lat="47.87226" lon="3.44593">
        <ele>115</ele>
        <time>2014-04-15T07:21:35Z</time>
      </trkpt>
      <trkpt lat="47.87222" lon="3.44587">
        <ele>116</ele>
        <time>2014-04-15T07:21:42Z</time>
      </trkpt>
      <trkpt lat="47.87217" lon="3.44588">
        <ele>116</ele>
        <time>2014-04-15T07:21:48Z</time>
      </trkpt>
      <trkpt lat="47.87212" lon="3.44593">
        <ele>116</ele>
        <time>2014-04-15T07:21:53Z</time>
      </trkpt>
      <trkpt lat="47.87202" lon="3.446">
        <ele>117</ele>
        <time>2014-04-15T07:21:59Z</time>
      </trkpt>
      <trkpt lat="47.87198" lon="3.44605">
        <ele>117</ele>
        <time>2014-04-15T07:22:06Z</time>
      </trkpt>
      <trkpt lat="47.87193" lon="3.44609">
        <ele>117</ele>
        <time>2014-04-15T07:22:11Z</time>
      </trkpt>
      <trkpt lat="47.87189" lon="3.4461">
        <ele>118</ele>
        <time>2014-04-15T07:22:15Z</time>
      </trkpt>
      <trkpt lat="47.87174" lon="3.44616">
        <ele>118</ele>
        <time>2014-04-15T07:22:31Z</time>
      </trkpt>
      <trkpt lat="47.87169" lon="3.4462">
        <ele>118</ele>
        <time>2014-04-15T07:22:35Z</time>
      </trkpt>
      <trkpt lat="47.87165" lon="3.44625">
        <ele>120</ele>
        <time>2014-04-15T07:22:39Z</time>
      </trkpt>
      <trkpt lat="47.8716" lon="3.44629">
        <ele>120</ele>
        <time>2014-04-15T07:22:45Z</time>
      </trkpt>
      <trkpt lat="47.87155" lon="3.44631">
        <ele>120</ele>
        <time>2014-04-15T07:22:49Z</time>
      </trkpt>
      <trkpt lat="47.8715" lon="3.44637">
        <ele>120</ele>
        <time>2014-04-15T07:22:54Z</time>
      </trkpt>
      <trkpt lat="47.87146" lon="3.44644">
        <ele>120</ele>
        <time>2014-04-15T07:22:57Z</time>
      </trkpt>
      <trkpt lat="47.87142" lon="3.44648">
        <ele>120</ele>
        <time>2014-04-15T07:23:01Z</time>
      </trkpt>
      <trkpt lat="47.87136" lon="3.4465">
        <ele>120</ele>
        <time>2014-04-15T07:23:06Z</time>
      </trkpt>
      <trkpt lat="47.87131" lon="3.44649">
        <ele>120</ele>
        <time>2014-04-15T07:23:10Z</time>
      </trkpt>
      <trkpt lat="47.87126" lon="3.4465">
        <ele>120</ele>
        <time>2014-04-15T07:23:13Z</time>
      </trkpt>
      <trkpt lat="47.87121" lon="3.44651">
        <ele>120</ele>
        <time>2014-04-15T07:23:20Z</time>
      </trkpt>
      <trkpt lat="47.87117" lon="3.44655">
        <ele>120</ele>
        <time>2014-04-15T07:23:24Z</time>
      </trkpt>
      <trkpt lat="47.87112" lon="3.44658">
        <ele>120</ele>
        <time>2014-04-15T07:23:27Z</time>
      </trkpt>
      <trkpt lat="47.87106" lon="3.44657">
        <ele>120</ele>
        <time>2014-04-15T07:23:31Z</time>
      </trkpt>
      <trkpt lat="47.87101" lon="3.44655">
        <ele>120</ele>
        <time>2014-04-15T07:23:35Z</time>
      </trkpt>
      <trkpt lat="47.87096" lon="3.44653">
        <ele>120</ele>
        <time>2014-04-15T07:23:40Z</time>
      </trkpt>
      <trkpt lat="47.87092" lon="3.4466">
        <ele>120</ele>
        <time>2014-04-15T07:23:44Z</time>
      </trkpt>
      <trkpt lat="47.87087" lon="3.44666">
        <ele>120</ele>
        <time>2014-04-15T07:23:46Z</time>
      </trkpt>
      <trkpt lat="47.87082" lon="3.44666">
        <ele>120</ele>
        <time>2014-04-15T07:23:52Z</time>
      </trkpt>
      <trkpt lat="47.87078" lon="3.44667">
        <ele>120</ele>
        <time>2014-04-15T07:23:54Z</time>
      </trkpt>
      <trkpt lat="47.87073" lon="3.44667">
        <ele>120</ele>
        <time>2014-04-15T07:23:58Z</time>
      </trkpt>
      <trkpt lat="47.87068" lon="3.44664">
        <ele>120</ele>
        <time>2014-04-15T07:24:02Z</time>
      </trkpt>
      <trkpt lat="47.87063" lon="3.44666">
        <ele>120</ele>
        <time>2014-04-15T07:24:06Z</time>
      </trkpt>
      <trkpt lat="47.87052" lon="3.44668">
        <ele>120</ele>
        <time>2014-04-15T07:24:14Z</time>
      </trkpt>
      <trkpt lat="47.87046" lon="3.44666">
        <ele>120</ele>
        <time>2014-04-15T07:24:18Z</time>
      </trkpt>
      <trkpt lat="47.87042" lon="3.44665">
        <ele>120</ele>
        <time>2014-04-15T07:24:22Z</time>
      </trkpt>
      <trkpt lat="47.87037" lon="3.4466">
        <ele>120</ele>
        <time>2014-04-15T07:24:26Z</time>
      </trkpt>
      <trkpt lat="47.87033" lon="3.44656">
        <ele>120</ele>
        <time>2014-04-15T07:24:30Z</time>
      </trkpt>
      <trkpt lat="47.8703" lon="3.4465">
        <ele>120</ele>
        <time>2014-04-15T07:24:34Z</time>
      </trkpt>
      <trkpt lat="47.87021" lon="3.44641">
        <ele>120</ele>
        <time>2014-04-15T07:24:40Z</time>
      </trkpt>
      <trkpt lat="47.87019" lon="3.44634">
        <ele>120</ele>
        <time>2014-04-15T07:24:44Z</time>
      </trkpt>
      <trkpt lat="47.87016" lon="3.44629">
        <ele>120</ele>
        <time>2014-04-15T07:24:50Z</time>
      </trkpt>
      <trkpt lat="47.87012" lon="3.44622">
        <ele>120</ele>
        <time>2014-04-15T07:24:56Z</time>
      </trkpt>
      <trkpt lat="47.87009" lon="3.44616">
        <ele>120</ele>
        <time>2014-04-15T07:25:01Z</time>
      </trkpt>
      <trkpt lat="47.87006" lon="3.4461">
        <ele>120</ele>
        <time>2014-04-15T07:25:04Z</time>
      </trkpt>
      <trkpt lat="47.87009" lon="3.44604">
        <ele>120</ele>
        <time>2014-04-15T07:25:09Z</time>
      </trkpt>
      <trkpt lat="47.87012" lon="3.44599">
        <ele>120</ele>
        <time>2014-04-15T07:25:12Z</time>
      </trkpt>
      <trkpt lat="47.87014" lon="3.44593">
        <ele>120</ele>
        <time>2014-04-15T07:25:15Z</time>
      </trkpt>
      <trkpt lat="47.87016" lon="3.44585">
        <ele>120</ele>
        <time>2014-04-15T07:25:18Z</time>
      </trkpt>
      <trkpt lat="47.87022" lon="3.44571">
        <ele>121</ele>
        <time>2014-04-15T07:25:26Z</time>
      </trkpt>
      <trkpt lat="47.87023" lon="3.44564">
        <ele>121</ele>
        <time>2014-04-15T07:25:31Z</time>
      </trkpt>
      <trkpt lat="47.87027" lon="3.44557">
        <ele>121</ele>
        <time>2014-04-15T07:25:38Z</time>
      </trkpt>
      <trkpt lat="47.87034" lon="3.44538">
        <ele>121</ele>
        <time>2014-04-15T07:25:55Z</time>
      </trkpt>
      <trkpt lat="47.87033" lon="3.44524">
        <ele>121</ele>
        <time>2014-04-15T07:26:01Z</time>
      </trkpt>
      <trkpt lat="47.87033" lon="3.44517">
        <ele>121</ele>
        <time>2014-04-15T07:26:08Z</time>
      </trkpt>
      <trkpt lat="47.87032" lon="3.44509">
        <ele>121</ele>
        <time>2014-04-15T07:26:13Z</time>
      </trkpt>
      <trkpt lat="47.87035" lon="3.44504">
        <ele>121</ele>
        <time>2014-04-15T07:26:22Z</time>
      </trkpt>
      <trkpt lat="47.87032" lon="3.44503">
        <ele>121</ele>
        <time>2014-04-15T07:26:36Z</time>
      </trkpt>
      <trkpt lat="47.87028" lon="3.44508">
        <ele>121</ele>
        <time>2014-04-15T07:26:41Z</time>
      </trkpt>
      <trkpt lat="47.87024" lon="3.44507">
        <ele>121</ele>
        <time>2014-04-15T07:26:46Z</time>
      </trkpt>
      <trkpt lat="47.8702" lon="3.44503">
        <ele>121</ele>
        <time>2014-04-15T07:26:50Z</time>
      </trkpt>
      <trkpt lat="47.87018" lon="3.44496">
        <ele>122</ele>
        <time>2014-04-15T07:26:56Z</time>
      </trkpt>
      <trkpt lat="47.87022" lon="3.4449">
        <ele>122</ele>
        <time>2014-04-15T07:26:58Z</time>
      </trkpt>
      <trkpt lat="47.8703" lon="3.44482">
        <ele>123</ele>
        <time>2014-04-15T07:27:05Z</time>
      </trkpt>
      <trkpt lat="47.87033" lon="3.44469">
        <ele>123</ele>
        <time>2014-04-15T07:27:12Z</time>
      </trkpt>
      <trkpt lat="47.87029" lon="3.44464">
        <ele>123</ele>
        <time>2014-04-15T07:27:19Z</time>
      </trkpt>
      <trkpt lat="47.87024" lon="3.44479">
        <ele>123</ele>
        <time>2014-04-15T07:27:27Z</time>
      </trkpt>
      <trkpt lat="47.87023" lon="3.44496">
        <ele>122</ele>
        <time>2014-04-15T07:27:35Z</time>
      </trkpt>
      <trkpt lat="47.87021" lon="3.44504">
        <ele>121</ele>
        <time>2014-04-15T07:27:37Z</time>
      </trkpt>
      <trkpt lat="47.87017" lon="3.44509">
        <ele>121</ele>
        <time>2014-04-15T07:27:41Z</time>
      </trkpt>
      <trkpt lat="47.87012" lon="3.44506">
        <ele>121</ele>
        <time>2014-04-15T07:27:43Z</time>
      </trkpt>
      <trkpt lat="47.87004" lon="3.44497">
        <ele>121</ele>
        <time>2014-04-15T07:27:49Z</time>
      </trkpt>
      <trkpt lat="47.87" lon="3.4448">
        <ele>122</ele>
        <time>2014-04-15T07:27:55Z</time>
      </trkpt>
      <trkpt lat="47.86994" lon="3.44448">
        <ele>123</ele>
        <time>2014-04-15T07:28:12Z</time>
      </trkpt>
      <trkpt lat="47.86995" lon="3.4444">
        <ele>124</ele>
        <time>2014-04-15T07:28:16Z</time>
      </trkpt>
      <trkpt lat="47.86994" lon="3.44433">
        <ele>124</ele>
        <time>2014-04-15T07:28:20Z</time>
      </trkpt>
      <trkpt lat="47.86991" lon="3.44428">
        <ele>125</ele>
        <time>2014-04-15T07:28:23Z</time>
      </trkpt>
      <trkpt lat="47.86985" lon="3.44425">
        <ele>124</ele>
        <time>2014-04-15T07:28:28Z</time>
      </trkpt>
      <trkpt lat="47.8698" lon="3.44424">
        <ele>124</ele>
        <time>2014-04-15T07:28:33Z</time>
      </trkpt>
      <trkpt lat="47.86971" lon="3.44427">
        <ele>124</ele>
        <time>2014-04-15T07:28:38Z</time>
      </trkpt>
      <trkpt lat="47.86956" lon="3.44428">
        <ele>123</ele>
        <time>2014-04-15T07:28:47Z</time>
      </trkpt>
      <trkpt lat="47.86951" lon="3.44425">
        <ele>123</ele>
        <time>2014-04-15T07:28:51Z</time>
      </trkpt>
      <trkpt lat="47.86947" lon="3.44421">
        <ele>123</ele>
        <time>2014-04-15T07:28:55Z</time>
      </trkpt>
      <trkpt lat="47.86943" lon="3.44418">
        <ele>123</ele>
        <time>2014-04-15T07:28:58Z</time>
      </trkpt>
      <trkpt lat="47.86939" lon="3.44413">
        <ele>124</ele>
        <time>2014-04-15T07:29:02Z</time>
      </trkpt>
      <trkpt lat="47.86937" lon="3.44408">
        <ele>124</ele>
        <time>2014-04-15T07:29:05Z</time>
      </trkpt>
      <trkpt lat="47.86927" lon="3.44403">
        <ele>124</ele>
        <time>2014-04-15T07:29:16Z</time>
      </trkpt>
      <trkpt lat="47.86922" lon="3.44403">
        <ele>124</ele>
        <time>2014-04-15T07:29:22Z</time>
      </trkpt>
      <trkpt lat="47.86918" lon="3.44397">
        <ele>124</ele>
        <time>2014-04-15T07:29:26Z</time>
      </trkpt>
      <trkpt lat="47.86914" lon="3.44393">
        <ele>124</ele>
        <time>2014-04-15T07:29:30Z</time>
      </trkpt>
      <trkpt lat="47.86909" lon="3.44396">
        <ele>124</ele>
        <time>2014-04-15T07:29:34Z</time>
      </trkpt>
      <trkpt lat="47.86904" lon="3.44396">
        <ele>124</ele>
        <time>2014-04-15T07:29:39Z</time>
      </trkpt>
      <trkpt lat="47.86898" lon="3.44396">
        <ele>124</ele>
        <time>2014-04-15T07:29:44Z</time>
      </trkpt>
      <trkpt lat="47.86883" lon="3.44391">
        <ele>124</ele>
        <time>2014-04-15T07:29:55Z</time>
      </trkpt>
      <trkpt lat="47.86879" lon="3.44387">
        <ele>124</ele>
        <time>2014-04-15T07:29:59Z</time>
      </trkpt>
      <trkpt lat="47.86875" lon="3.44384">
        <ele>124</ele>
        <time>2014-04-15T07:30:03Z</time>
      </trkpt>
      <trkpt lat="47.8687" lon="3.44384">
        <ele>124</ele>
        <time>2014-04-15T07:30:07Z</time>
      </trkpt>
      <trkpt lat="47.86863" lon="3.44385">
        <ele>124</ele>
        <time>2014-04-15T07:30:10Z</time>
      </trkpt>
      <trkpt lat="47.86858" lon="3.44383">
        <ele>124</ele>
        <time>2014-04-15T07:30:14Z</time>
      </trkpt>
      <trkpt lat="47.86857" lon="3.44376">
        <ele>124</ele>
        <time>2014-04-15T07:30:16Z</time>
      </trkpt>
      <trkpt lat="47.86853" lon="3.44371">
        <ele>124</ele>
        <time>2014-04-15T07:30:21Z</time>
      </trkpt>
      <trkpt lat="47.86849" lon="3.44366">
        <ele>124</ele>
        <time>2014-04-15T07:30:25Z</time>
      </trkpt>
      <trkpt lat="47.86846" lon="3.44359">
        <ele>124</ele>
        <time>2014-04-15T07:30:30Z</time>
      </trkpt>
      <trkpt lat="47.86844" lon="3.44344">
        <ele>124</ele>
        <time>2014-04-15T07:30:39Z</time>
      </trkpt>
      <trkpt lat="47.86841" lon="3.44331">
        <ele>124</ele>
        <time>2014-04-15T07:30:47Z</time>
      </trkpt>
      <trkpt lat="47.86834" lon="3.4432">
        <ele>124</ele>
        <time>2014-04-15T07:30:55Z</time>
      </trkpt>
      <trkpt lat="47.86829" lon="3.44316">
        <ele>124</ele>
        <time>2014-04-15T07:31:00Z</time>
      </trkpt>
      <trkpt lat="47.86824" lon="3.4431">
        <ele>123</ele>
        <time>2014-04-15T07:31:07Z</time>
      </trkpt>
      <trkpt lat="47.86821" lon="3.44303">
        <ele>123</ele>
        <time>2014-04-15T07:31:11Z</time>
      </trkpt>
      <trkpt lat="47.86816" lon="3.44298">
        <ele>123</ele>
        <time>2014-04-15T07:31:15Z</time>
      </trkpt>
      <trkpt lat="47.86811" lon="3.44299">
        <ele>123</ele>
        <time>2014-04-15T07:31:20Z</time>
      </trkpt>
      <trkpt lat="47.86807" lon="3.44295">
        <ele>123</ele>
        <time>2014-04-15T07:31:25Z</time>
      </trkpt>
      <trkpt lat="47.86803" lon="3.44288">
        <ele>123</ele>
        <time>2014-04-15T07:31:30Z</time>
      </trkpt>
      <trkpt lat="47.86801" lon="3.44282">
        <ele>123</ele>
        <time>2014-04-15T07:31:35Z</time>
      </trkpt>
      <trkpt lat="47.86796" lon="3.4428">
        <ele>123</ele>
        <time>2014-04-15T07:31:40Z</time>
      </trkpt>
      <trkpt lat="47.86791" lon="3.44276">
        <ele>123</ele>
        <time>2014-04-15T07:31:44Z</time>
      </trkpt>
      <trkpt lat="47.86787" lon="3.44271">
        <ele>123</ele>
        <time>2014-04-15T07:31:48Z</time>
      </trkpt>
      <trkpt lat="47.86774" lon="3.44262">
        <ele>123</ele>
        <time>2014-04-15T07:32:02Z</time>
      </trkpt>
      <trkpt lat="47.8677" lon="3.44255">
        <ele>123</ele>
        <time>2014-04-15T07:32:04Z</time>
      </trkpt>
      <trkpt lat="47.86767" lon="3.44251">
        <ele>122</ele>
        <time>2014-04-15T07:32:07Z</time>
      </trkpt>
      <trkpt lat="47.86762" lon="3.44248">
        <ele>122</ele>
        <time>2014-04-15T07:32:11Z</time>
      </trkpt>
      <trkpt lat="47.86758" lon="3.44246">
        <ele>122</ele>
        <time>2014-04-15T07:32:16Z</time>
      </trkpt>
      <trkpt lat="47.86753" lon="3.44241">
        <ele>122</ele>
        <time>2014-04-15T07:32:20Z</time>
      </trkpt>
      <trkpt lat="47.86749" lon="3.44236">
        <ele>122</ele>
        <time>2014-04-15T07:32:23Z</time>
      </trkpt>
      <trkpt lat="47.86745" lon="3.44232">
        <ele>122</ele>
        <time>2014-04-15T07:32:27Z</time>
      </trkpt>
      <trkpt lat="47.8674" lon="3.4423">
        <ele>121</ele>
        <time>2014-04-15T07:32:30Z</time>
      </trkpt>
      <trkpt lat="47.86726" lon="3.44219">
        <ele>121</ele>
        <time>2014-04-15T07:32:44Z</time>
      </trkpt>
      <trkpt lat="47.86718" lon="3.44208">
        <ele>121</ele>
        <time>2014-04-15T07:32:53Z</time>
      </trkpt>
      <trkpt lat="47.86713" lon="3.44207">
        <ele>121</ele>
        <time>2014-04-15T07:33:00Z</time>
      </trkpt>
      <trkpt lat="47.86708" lon="3.44207">
        <ele>121</ele>
        <time>2014-04-15T07:33:03Z</time>
      </trkpt>
      <trkpt lat="47.86703" lon="3.44205">
        <ele>121</ele>
        <time>2014-04-15T07:33:09Z</time>
      </trkpt>
      <trkpt lat="47.86699" lon="3.44206">
        <ele>121</ele>
        <time>2014-04-15T07:33:24Z</time>
      </trkpt>
      <trkpt lat="47.86699" lon="3.44222">
        <ele>121</ele>
        <time>2014-04-15T07:33:45Z</time>
      </trkpt>
      <trkpt lat="47.86701" lon="3.44229">
        <ele>121</ele>
        <time>2014-04-15T07:33:47Z</time>
      </trkpt>
      <trkpt lat="47.86711" lon="3.44248">
        <ele>121</ele>
        <time>2014-04-15T07:33:58Z</time>
      </trkpt>
      <trkpt lat="47.86716" lon="3.44261">
        <ele>122</ele>
        <time>2014-04-15T07:34:04Z</time>
      </trkpt>
      <trkpt lat="47.86711" lon="3.44267">
        <ele>122</ele>
        <time>2014-04-15T07:34:08Z</time>
      </trkpt>
      <trkpt lat="47.86699" lon="3.44262">
        <ele>122</ele>
        <time>2014-04-15T07:34:14Z</time>
      </trkpt>
      <trkpt lat="47.86686" lon="3.44247">
        <ele>121</ele>
        <time>2014-04-15T07:34:29Z</time>
      </trkpt>
      <trkpt lat="47.8668" lon="3.44236">
        <ele>121</ele>
        <time>2014-04-15T07:34:34Z</time>
      </trkpt>
      <trkpt lat="47.86676" lon="3.44232">
        <ele>121</ele>
        <time>2014-04-15T07:34:38Z</time>
      </trkpt>
      <trkpt lat="47.86666" lon="3.44229">
        <ele>121</ele>
        <time>2014-04-15T07:34:43Z</time>
      </trkpt>
      <trkpt lat="47.86662" lon="3.44223">
        <ele>121</ele>
        <time>2014-04-15T07:34:48Z</time>
      </trkpt>
      <trkpt lat="47.86658" lon="3.44218">
        <ele>121</ele>
        <time>2014-04-15T07:34:53Z</time>
      </trkpt>
      <trkpt lat="47.86631" lon="3.44202">
        <ele>121</ele>
        <time>2014-04-15T07:35:28Z</time>
      </trkpt>
      <trkpt lat="47.86627" lon="3.44198">
        <ele>121</ele>
        <time>2014-04-15T07:35:31Z</time>
      </trkpt>
      <trkpt lat="47.86624" lon="3.44192">
        <ele>121</ele>
        <time>2014-04-15T07:35:36Z</time>
      </trkpt>
      <trkpt lat="47.86619" lon="3.44189">
        <ele>121</ele>
        <time>2014-04-15T07:35:41Z</time>
      </trkpt>
      <trkpt lat="47.86615" lon="3.44187">
        <ele>121</ele>
        <time>2014-04-15T07:35:46Z</time>
      </trkpt>
      <trkpt lat="47.86611" lon="3.44184">
        <ele>121</ele>
        <time>2014-04-15T07:35:49Z</time>
      </trkpt>
      <trkpt lat="47.86603" lon="3.44173">
        <ele>121</ele>
        <time>2014-04-15T07:35:55Z</time>
      </trkpt>
      <trkpt lat="47.86598" lon="3.44161">
        <ele>120</ele>
        <time>2014-04-15T07:36:03Z</time>
      </trkpt>
      <trkpt lat="47.8659" lon="3.44151">
        <ele>120</ele>
        <time>2014-04-15T07:36:12Z</time>
      </trkpt>
      <trkpt lat="47.86585" lon="3.44149">
        <ele>120</ele>
        <time>2014-04-15T07:36:15Z</time>
      </trkpt>
      <trkpt lat="47.86581" lon="3.44146">
        <ele>122</ele>
        <time>2014-04-15T07:36:19Z</time>
      </trkpt>
      <trkpt lat="47.86572" lon="3.44139">
        <ele>122</ele>
        <time>2014-04-15T07:36:27Z</time>
      </trkpt>
      <trkpt lat="47.86568" lon="3.44134">
        <ele>122</ele>
        <time>2014-04-15T07:36:31Z</time>
      </trkpt>
      <trkpt lat="47.8656" lon="3.44126">
        <ele>123</ele>
        <time>2014-04-15T07:36:40Z</time>
      </trkpt>
      <trkpt lat="47.86555" lon="3.44122">
        <ele>123</ele>
        <time>2014-04-15T07:36:43Z</time>
      </trkpt>
      <trkpt lat="47.86551" lon="3.44118">
        <ele>123</ele>
        <time>2014-04-15T07:36:47Z</time>
      </trkpt>
      <trkpt lat="47.86547" lon="3.44114">
        <ele>123</ele>
        <time>2014-04-15T07:36:52Z</time>
      </trkpt>
      <trkpt lat="47.86543" lon="3.44109">
        <ele>123</ele>
        <time>2014-04-15T07:36:56Z</time>
      </trkpt>
      <trkpt lat="47.86538" lon="3.44104">
        <ele>123</ele>
        <time>2014-04-15T07:37:01Z</time>
      </trkpt>
      <trkpt lat="47.86533" lon="3.44102">
        <ele>124</ele>
        <time>2014-04-15T07:37:05Z</time>
      </trkpt>
      <trkpt lat="47.86528" lon="3.44101">
        <ele>124</ele>
        <time>2014-04-15T07:37:08Z</time>
      </trkpt>
      <trkpt lat="47.86514" lon="3.44089">
        <ele>125</ele>
        <time>2014-04-15T07:37:18Z</time>
      </trkpt>
      <trkpt lat="47.86509" lon="3.44087">
        <ele>125</ele>
        <time>2014-04-15T07:37:22Z</time>
      </trkpt>
      <trkpt lat="47.86505" lon="3.44084">
        <ele>125</ele>
        <time>2014-04-15T07:37:28Z</time>
      </trkpt>
      <trkpt lat="47.86495" lon="3.44079">
        <ele>126</ele>
        <time>2014-04-15T07:37:37Z</time>
      </trkpt>
      <trkpt lat="47.86491" lon="3.44076">
        <ele>126</ele>
        <time>2014-04-15T07:37:44Z</time>
      </trkpt>
      <trkpt lat="47.86486" lon="3.44075">
        <ele>127</ele>
        <time>2014-04-15T07:37:51Z</time>
      </trkpt>
      <trkpt lat="47.86481" lon="3.44072">
        <ele>127</ele>
        <time>2014-04-15T07:37:56Z</time>
      </trkpt>
      <trkpt lat="47.86476" lon="3.44068">
        <ele>127</ele>
        <time>2014-04-15T07:38:00Z</time>
      </trkpt>
      <trkpt lat="47.86471" lon="3.44066">
        <ele>127</ele>
        <time>2014-04-15T07:38:04Z</time>
      </trkpt>
      <trkpt lat="47.86466" lon="3.44065">
        <ele>127</ele>
        <time>2014-04-15T07:38:09Z</time>
      </trkpt>
      <trkpt lat="47.86462" lon="3.4406">
        <ele>127</ele>
        <time>2014-04-15T07:38:14Z</time>
      </trkpt>
      <trkpt lat="47.86456" lon="3.44058">
        <ele>127</ele>
        <time>2014-04-15T07:38:18Z</time>
      </trkpt>
      <trkpt lat="47.86446" lon="3.44051">
        <ele>127</ele>
        <time>2014-04-15T07:38:27Z</time>
      </trkpt>
      <trkpt lat="47.86441" lon="3.44047">
        <ele>127</ele>
        <time>2014-04-15T07:38:32Z</time>
      </trkpt>
      <trkpt lat="47.86436" lon="3.44044">
        <ele>127</ele>
        <time>2014-04-15T07:38:36Z</time>
      </trkpt>
      <trkpt lat="47.86426" lon="3.44042">
        <ele>127</ele>
        <time>2014-04-15T07:38:43Z</time>
      </trkpt>
      <trkpt lat="47.86417" lon="3.44031">
        <ele>127</ele>
        <time>2014-04-15T07:38:50Z</time>
      </trkpt>
      <trkpt lat="47.86417" lon="3.44035">
        <ele>127</ele>
        <time>2014-04-15T07:39:00Z</time>
      </trkpt>
      <trkpt lat="47.86412" lon="3.44036">
        <ele>126</ele>
        <time>2014-04-15T07:39:20Z</time>
      </trkpt>
      <trkpt lat="47.86408" lon="3.4403">
        <ele>126</ele>
        <time>2014-04-15T07:39:24Z</time>
      </trkpt>
      <trkpt lat="47.86405" lon="3.44023">
        <ele>126</ele>
        <time>2014-04-15T07:39:32Z</time>
      </trkpt>
      <trkpt lat="47.864" lon="3.44018">
        <ele>126</ele>
        <time>2014-04-15T07:39:36Z</time>
      </trkpt>
      <trkpt lat="47.86394" lon="3.44019">
        <ele>125</ele>
        <time>2014-04-15T07:40:00Z</time>
      </trkpt>
      <trkpt lat="47.86389" lon="3.44016">
        <ele>125</ele>
        <time>2014-04-15T07:40:04Z</time>
      </trkpt>
      <trkpt lat="47.86385" lon="3.44014">
        <ele>125</ele>
        <time>2014-04-15T07:40:07Z</time>
      </trkpt>
      <trkpt lat="47.8638" lon="3.44012">
        <ele>125</ele>
        <time>2014-04-15T07:40:11Z</time>
      </trkpt>
      <trkpt lat="47.86375" lon="3.44012">
        <ele>125</ele>
        <time>2014-04-15T07:40:14Z</time>
      </trkpt>
      <trkpt lat="47.8637" lon="3.44011">
        <ele>124</ele>
        <time>2014-04-15T07:40:17Z</time>
      </trkpt>
      <trkpt lat="47.86366" lon="3.44007">
        <ele>124</ele>
        <time>2014-04-15T07:40:27Z</time>
      </trkpt>
      <trkpt lat="47.86361" lon="3.44007">
        <ele>124</ele>
        <time>2014-04-15T07:40:31Z</time>
      </trkpt>
      <trkpt lat="47.86355" lon="3.44006">
        <ele>124</ele>
        <time>2014-04-15T07:40:36Z</time>
      </trkpt>
      <trkpt lat="47.8635" lon="3.44004">
        <ele>123</ele>
        <time>2014-04-15T07:40:40Z</time>
      </trkpt>
      <trkpt lat="47.86345" lon="3.44003">
        <ele>123</ele>
        <time>2014-04-15T07:40:43Z</time>
      </trkpt>
      <trkpt lat="47.86341" lon="3.44003">
        <ele>123</ele>
        <time>2014-04-15T07:40:47Z</time>
      </trkpt>
      <trkpt lat="47.8633" lon="3.43999">
        <ele>122</ele>
        <time>2014-04-15T07:40:55Z</time>
      </trkpt>
      <trkpt lat="47.8631" lon="3.43986">
        <ele>121</ele>
        <time>2014-04-15T07:41:10Z</time>
      </trkpt>
      <trkpt lat="47.86306" lon="3.43982">
        <ele>121</ele>
        <time>2014-04-15T07:41:15Z</time>
      </trkpt>
      <trkpt lat="47.86301" lon="3.43981">
        <ele>121</ele>
        <time>2014-04-15T07:41:20Z</time>
      </trkpt>
      <trkpt lat="47.86296" lon="3.43979">
        <ele>121</ele>
        <time>2014-04-15T07:41:24Z</time>
      </trkpt>
      <trkpt lat="47.86291" lon="3.43979">
        <ele>121</ele>
        <time>2014-04-15T07:41:28Z</time>
      </trkpt>
      <trkpt lat="47.86287" lon="3.43977">
        <ele>121</ele>
        <time>2014-04-15T07:41:32Z</time>
      </trkpt>
      <trkpt lat="47.86282" lon="3.43976">
        <ele>121</ele>
        <time>2014-04-15T07:41:36Z</time>
      </trkpt>
      <trkpt lat="47.86277" lon="3.43976">
        <ele>121</ele>
        <time>2014-04-15T07:41:40Z</time>
      </trkpt>
      <trkpt lat="47.86271" lon="3.43977">
        <ele>122</ele>
        <time>2014-04-15T07:41:44Z</time>
      </trkpt>
      <trkpt lat="47.86266" lon="3.43977">
        <ele>122</ele>
        <time>2014-04-15T07:41:47Z</time>
      </trkpt>
      <trkpt lat="47.86261" lon="3.43974">
        <ele>122</ele>
        <time>2014-04-15T07:41:51Z</time>
      </trkpt>
      <trkpt lat="47.86256" lon="3.43973">
        <ele>122</ele>
        <time>2014-04-15T07:41:56Z</time>
      </trkpt>
      <trkpt lat="47.86251" lon="3.43973">
        <ele>122</ele>
        <time>2014-04-15T07:42:00Z</time>
      </trkpt>
      <trkpt lat="47.86246" lon="3.43972">
        <ele>123</ele>
        <time>2014-04-15T07:42:06Z</time>
      </trkpt>
      <trkpt lat="47.86241" lon="3.43971">
        <ele>123</ele>
        <time>2014-04-15T07:42:10Z</time>
      </trkpt>
      <trkpt lat="47.86237" lon="3.43969">
        <ele>123</ele>
        <time>2014-04-15T07:42:16Z</time>
      </trkpt>
      <trkpt lat="47.86225" lon="3.43969">
        <ele>123</ele>
        <time>2014-04-15T07:42:24Z</time>
      </trkpt>
      <trkpt lat="47.86216" lon="3.4397">
        <ele>123</ele>
        <time>2014-04-15T07:42:31Z</time>
      </trkpt>
      <trkpt lat="47.86195" lon="3.43969">
        <ele>124</ele>
        <time>2014-04-15T07:42:48Z</time>
      </trkpt>
      <trkpt lat="47.8619" lon="3.43968">
        <ele>124</ele>
        <time>2014-04-15T07:42:53Z</time>
      </trkpt>
      <trkpt lat="47.86185" lon="3.43968">
        <ele>124</ele>
        <time>2014-04-15T07:42:57Z</time>
      </trkpt>
      <trkpt lat="47.8618" lon="3.4397">
        <ele>124</ele>
        <time>2014-04-15T07:43:01Z</time>
      </trkpt>
      <trkpt lat="47.86174" lon="3.43969">
        <ele>124</ele>
        <time>2014-04-15T07:43:05Z</time>
      </trkpt>
      <trkpt lat="47.86164" lon="3.43965">
        <ele>126</ele>
        <time>2014-04-15T07:43:13Z</time>
      </trkpt>
      <trkpt lat="47.8616" lon="3.43967">
        <ele>126</ele>
        <time>2014-04-15T07:43:17Z</time>
      </trkpt>
      <trkpt lat="47.86154" lon="3.43968">
        <ele>126</ele>
        <time>2014-04-15T07:43:20Z</time>
      </trkpt>
      <trkpt lat="47.86149" lon="3.43965">
        <ele>126</ele>
        <time>2014-04-15T07:43:25Z</time>
      </trkpt>
      <trkpt lat="47.86143" lon="3.43962">
        <ele>126</ele>
        <time>2014-04-15T07:43:29Z</time>
      </trkpt>
      <trkpt lat="47.86138" lon="3.43958">
        <ele>125</ele>
        <time>2014-04-15T07:43:33Z</time>
      </trkpt>
      <trkpt lat="47.86133" lon="3.43955">
        <ele>125</ele>
        <time>2014-04-15T07:43:38Z</time>
      </trkpt>
      <trkpt lat="47.86128" lon="3.43954">
        <ele>125</ele>
        <time>2014-04-15T07:43:42Z</time>
      </trkpt>
      <trkpt lat="47.86124" lon="3.43956">
        <ele>125</ele>
        <time>2014-04-15T07:43:46Z</time>
      </trkpt>
      <trkpt lat="47.86114" lon="3.43958">
        <ele>126</ele>
        <time>2014-04-15T07:43:56Z</time>
      </trkpt>
      <trkpt lat="47.8611" lon="3.43957">
        <ele>126</ele>
        <time>2014-04-15T07:43:59Z</time>
      </trkpt>
      <trkpt lat="47.86104" lon="3.43955">
        <ele>126</ele>
        <time>2014-04-15T07:44:01Z</time>
      </trkpt>
      <trkpt lat="47.86095" lon="3.4395">
        <ele>125</ele>
        <time>2014-04-15T07:44:10Z</time>
      </trkpt>
      <trkpt lat="47.86089" lon="3.43949">
        <ele>125</ele>
        <time>2014-04-15T07:44:15Z</time>
      </trkpt>
      <trkpt lat="47.86084" lon="3.43947">
        <ele>125</ele>
        <time>2014-04-15T07:44:19Z</time>
      </trkpt>
      <trkpt lat="47.86074" lon="3.43946">
        <ele>124</ele>
        <time>2014-04-15T07:44:28Z</time>
      </trkpt>
      <trkpt lat="47.86063" lon="3.43947">
        <ele>124</ele>
        <time>2014-04-15T07:44:37Z</time>
      </trkpt>
      <trkpt lat="47.86054" lon="3.4395">
        <ele>124</ele>
        <time>2014-04-15T07:44:47Z</time>
      </trkpt>
      <trkpt lat="47.86049" lon="3.4395">
        <ele>123</ele>
        <time>2014-04-15T07:44:51Z</time>
      </trkpt>
      <trkpt lat="47.86044" lon="3.43949">
        <ele>123</ele>
        <time>2014-04-15T07:44:55Z</time>
      </trkpt>
      <trkpt lat="47.86038" lon="3.43949">
        <ele>123</ele>
        <time>2014-04-15T07:45:00Z</time>
      </trkpt>
      <trkpt lat="47.86033" lon="3.4395">
        <ele>123</ele>
        <time>2014-04-15T07:45:04Z</time>
      </trkpt>
      <trkpt lat="47.86023" lon="3.43954">
        <ele>123</ele>
        <time>2014-04-15T07:45:12Z</time>
      </trkpt>
      <trkpt lat="47.86007" lon="3.43958">
        <ele>122</ele>
        <time>2014-04-15T07:45:23Z</time>
      </trkpt>
      <trkpt lat="47.86002" lon="3.4396">
        <ele>122</ele>
        <time>2014-04-15T07:45:28Z</time>
      </trkpt>
      <trkpt lat="47.85998" lon="3.43962">
        <ele>121</ele>
        <time>2014-04-15T07:45:32Z</time>
      </trkpt>
      <trkpt lat="47.85993" lon="3.43964">
        <ele>121</ele>
        <time>2014-04-15T07:45:35Z</time>
      </trkpt>
      <trkpt lat="47.85989" lon="3.43958">
        <ele>121</ele>
        <time>2014-04-15T07:45:40Z</time>
      </trkpt>
      <trkpt lat="47.85984" lon="3.43959">
        <ele>121</ele>
        <time>2014-04-15T07:45:43Z</time>
      </trkpt>
      <trkpt lat="47.8598" lon="3.43963">
        <ele>121</ele>
        <time>2014-04-15T07:45:46Z</time>
      </trkpt>
      <trkpt lat="47.85976" lon="3.43966">
        <ele>121</ele>
        <time>2014-04-15T07:45:51Z</time>
      </trkpt>
      <trkpt lat="47.8597" lon="3.43969">
        <ele>121</ele>
        <time>2014-04-15T07:45:55Z</time>
      </trkpt>
      <trkpt lat="47.85966" lon="3.43973">
        <ele>121</ele>
        <time>2014-04-15T07:45:59Z</time>
      </trkpt>
      <trkpt lat="47.85961" lon="3.43976">
        <ele>121</ele>
        <time>2014-04-15T07:46:02Z</time>
      </trkpt>
      <trkpt lat="47.85956" lon="3.43977">
        <ele>121</ele>
        <time>2014-04-15T07:46:06Z</time>
      </trkpt>
      <trkpt lat="47.85951" lon="3.4398">
        <ele>121</ele>
        <time>2014-04-15T07:46:11Z</time>
      </trkpt>
      <trkpt lat="47.85947" lon="3.43985">
        <ele>121</ele>
        <time>2014-04-15T07:46:16Z</time>
      </trkpt>
      <trkpt lat="47.85943" lon="3.43987">
        <ele>122</ele>
        <time>2014-04-15T07:46:20Z</time>
      </trkpt>
      <trkpt lat="47.85934" lon="3.43996">
        <ele>122</ele>
        <time>2014-04-15T07:46:28Z</time>
      </trkpt>
      <trkpt lat="47.85929" lon="3.43997">
        <ele>122</ele>
        <time>2014-04-15T07:46:32Z</time>
      </trkpt>
      <trkpt lat="47.85924" lon="3.43999">
        <ele>122</ele>
        <time>2014-04-15T07:46:36Z</time>
      </trkpt>
      <trkpt lat="47.85917" lon="3.44001">
        <ele>123</ele>
        <time>2014-04-15T07:46:46Z</time>
      </trkpt>
      <trkpt lat="47.85912" lon="3.44001">
        <ele>123</ele>
        <time>2014-04-15T07:46:54Z</time>
      </trkpt>
      <trkpt lat="47.85903" lon="3.44007">
        <ele>123</ele>
        <time>2014-04-15T07:47:04Z</time>
      </trkpt>
      <trkpt lat="47.85897" lon="3.44009">
        <ele>124</ele>
        <time>2014-04-15T07:47:08Z</time>
      </trkpt>
      <trkpt lat="47.85893" lon="3.4401">
        <ele>124</ele>
        <time>2014-04-15T07:47:13Z</time>
      </trkpt>
      <trkpt lat="47.85883" lon="3.44013">
        <ele>124</ele>
        <time>2014-04-15T07:47:22Z</time>
      </trkpt>
      <trkpt lat="47.85873" lon="3.44017">
        <ele>124</ele>
        <time>2014-04-15T07:47:30Z</time>
      </trkpt>
      <trkpt lat="47.85859" lon="3.44027">
        <ele>124</ele>
        <time>2014-04-15T07:47:43Z</time>
      </trkpt>
      <trkpt lat="47.85854" lon="3.44028">
        <ele>124</ele>
        <time>2014-04-15T07:47:48Z</time>
      </trkpt>
      <trkpt lat="47.85849" lon="3.4403">
        <ele>124</ele>
        <time>2014-04-15T07:47:54Z</time>
      </trkpt>
      <trkpt lat="47.85844" lon="3.44034">
        <ele>124</ele>
        <time>2014-04-15T07:47:57Z</time>
      </trkpt>
      <trkpt lat="47.8584" lon="3.44036">
        <ele>124</ele>
        <time>2014-04-15T07:48:02Z</time>
      </trkpt>
      <trkpt lat="47.85835" lon="3.4404">
        <ele>124</ele>
        <time>2014-04-15T07:48:07Z</time>
      </trkpt>
      <trkpt lat="47.8583" lon="3.44042">
        <ele>125</ele>
        <time>2014-04-15T07:48:09Z</time>
      </trkpt>
      <trkpt lat="47.85825" lon="3.44044">
        <ele>125</ele>
        <time>2014-04-15T07:48:14Z</time>
      </trkpt>
      <trkpt lat="47.8582" lon="3.44047">
        <ele>125</ele>
        <time>2014-04-15T07:48:16Z</time>
      </trkpt>
      <trkpt lat="47.8581" lon="3.44051">
        <ele>125</ele>
        <time>2014-04-15T07:48:25Z</time>
      </trkpt>
      <trkpt lat="47.85806" lon="3.44054">
        <ele>125</ele>
        <time>2014-04-15T07:48:30Z</time>
      </trkpt>
      <trkpt lat="47.85792" lon="3.44059">
        <ele>125</ele>
        <time>2014-04-15T07:48:42Z</time>
      </trkpt>
      <trkpt lat="47.85788" lon="3.44063">
        <ele>125</ele>
        <time>2014-04-15T07:48:46Z</time>
      </trkpt>
      <trkpt lat="47.85782" lon="3.44065">
        <ele>125</ele>
        <time>2014-04-15T07:48:50Z</time>
      </trkpt>
      <trkpt lat="47.85777" lon="3.44068">
        <ele>125</ele>
        <time>2014-04-15T07:48:55Z</time>
      </trkpt>
      <trkpt lat="47.85773" lon="3.44073">
        <ele>125</ele>
        <time>2014-04-15T07:49:03Z</time>
      </trkpt>
      <trkpt lat="47.85762" lon="3.44077">
        <ele>125</ele>
        <time>2014-04-15T07:49:11Z</time>
      </trkpt>
      <trkpt lat="47.85757" lon="3.4408">
        <ele>126</ele>
        <time>2014-04-15T07:49:17Z</time>
      </trkpt>
      <trkpt lat="47.85752" lon="3.44084">
        <ele>126</ele>
        <time>2014-04-15T07:49:22Z</time>
      </trkpt>
      <trkpt lat="47.85748" lon="3.44082">
        <ele>126</ele>
        <time>2014-04-15T07:49:25Z</time>
      </trkpt>
      <trkpt lat="47.85742" lon="3.44082">
        <ele>126</ele>
        <time>2014-04-15T07:49:31Z</time>
      </trkpt>
      <trkpt lat="47.85737" lon="3.44084">
        <ele>127</ele>
        <time>2014-04-15T07:49:41Z</time>
      </trkpt>
      <trkpt lat="47.85734" lon="3.44083">
        <ele>127</ele>
        <time>2014-04-15T07:50:02Z</time>
      </trkpt>
      <trkpt lat="47.85736" lon="3.44089">
        <ele>127</ele>
        <time>2014-04-15T07:51:53Z</time>
      </trkpt>
      <trkpt lat="47.85734" lon="3.44092">
        <ele>127</ele>
        <time>2014-04-15T07:52:04Z</time>
      </trkpt>
      <trkpt lat="47.85732" lon="3.44098">
        <ele>127</ele>
        <time>2014-04-15T07:52:58Z</time>
      </trkpt>
      <trkpt lat="47.85728" lon="3.44095">
        <ele>127</ele>
        <time>2014-04-15T07:53:14Z</time>
      </trkpt>
      <trkpt lat="47.85722" lon="3.44097">
        <ele>128</ele>
        <time>2014-04-15T07:53:19Z</time>
      </trkpt>
      <trkpt lat="47.85717" lon="3.44098">
        <ele>128</ele>
        <time>2014-04-15T07:53:23Z</time>
      </trkpt>
      <trkpt lat="47.85709" lon="3.44106">
        <ele>128</ele>
        <time>2014-04-15T07:53:30Z</time>
      </trkpt>
      <trkpt lat="47.85704" lon="3.44109">
        <ele>128</ele>
        <time>2014-04-15T07:53:34Z</time>
      </trkpt>
      <trkpt lat="47.85699" lon="3.44111">
        <ele>128</ele>
        <time>2014-04-15T07:53:37Z</time>
      </trkpt>
      <trkpt lat="47.85695" lon="3.44114">
        <ele>128</ele>
        <time>2014-04-15T07:53:43Z</time>
      </trkpt>
      <trkpt lat="47.8568" lon="3.4412">
        <ele>129</ele>
        <time>2014-04-15T07:53:56Z</time>
      </trkpt>
      <trkpt lat="47.8567" lon="3.44128">
        <ele>129</ele>
        <time>2014-04-15T07:54:04Z</time>
      </trkpt>
      <trkpt lat="47.85667" lon="3.44132">
        <ele>129</ele>
        <time>2014-04-15T07:54:08Z</time>
      </trkpt>
      <trkpt lat="47.85662" lon="3.44133">
        <ele>130</ele>
        <time>2014-04-15T07:54:13Z</time>
      </trkpt>
      <trkpt lat="47.85657" lon="3.44131">
        <ele>129</ele>
        <time>2014-04-15T07:54:19Z</time>
      </trkpt>
      <trkpt lat="47.85652" lon="3.44131">
        <ele>129</ele>
        <time>2014-04-15T07:54:22Z</time>
      </trkpt>
      <trkpt lat="47.85648" lon="3.44135">
        <ele>129</ele>
        <time>2014-04-15T07:54:31Z</time>
      </trkpt>
      <trkpt lat="47.85644" lon="3.44137">
        <ele>129</ele>
        <time>2014-04-15T07:54:35Z</time>
      </trkpt>
      <trkpt lat="47.8564" lon="3.4414">
        <ele>129</ele>
        <time>2014-04-15T07:54:39Z</time>
      </trkpt>
      <trkpt lat="47.85634" lon="3.44142">
        <ele>129</ele>
        <time>2014-04-15T07:54:42Z</time>
      </trkpt>
      <trkpt lat="47.85623" lon="3.44143">
        <ele>129</ele>
        <time>2014-04-15T07:54:49Z</time>
      </trkpt>
      <trkpt lat="47.85612" lon="3.44157">
        <ele>129</ele>
        <time>2014-04-15T07:55:01Z</time>
      </trkpt>
      <trkpt lat="47.85607" lon="3.44169">
        <ele>131</ele>
        <time>2014-04-15T07:55:08Z</time>
      </trkpt>
      <trkpt lat="47.85598" lon="3.44176">
        <ele>131</ele>
        <time>2014-04-15T07:55:16Z</time>
      </trkpt>
      <trkpt lat="47.85595" lon="3.4418">
        <ele>131</ele>
        <time>2014-04-15T07:55:22Z</time>
      </trkpt>
      <trkpt lat="47.85589" lon="3.44192">
        <ele>131</ele>
        <time>2014-04-15T07:55:29Z</time>
      </trkpt>
      <trkpt lat="47.85585" lon="3.44195">
        <ele>131</ele>
        <time>2014-04-15T07:55:32Z</time>
      </trkpt>
      <trkpt lat="47.85581" lon="3.442">
        <ele>129</ele>
        <time>2014-04-15T07:55:37Z</time>
      </trkpt>
      <trkpt lat="47.85578" lon="3.44205">
        <ele>130</ele>
        <time>2014-04-15T07:55:42Z</time>
      </trkpt>
      <trkpt lat="47.85574" lon="3.4421">
        <ele>130</ele>
        <time>2014-04-15T07:55:46Z</time>
      </trkpt>
      <trkpt lat="47.85571" lon="3.44217">
        <ele>130</ele>
        <time>2014-04-15T07:55:52Z</time>
      </trkpt>
      <trkpt lat="47.85563" lon="3.44226">
        <ele>130</ele>
        <time>2014-04-15T07:56:00Z</time>
      </trkpt>
      <trkpt lat="47.85557" lon="3.44236">
        <ele>130</ele>
        <time>2014-04-15T07:56:12Z</time>
      </trkpt>
      <trkpt lat="47.85554" lon="3.44241">
        <ele>130</ele>
        <time>2014-04-15T07:56:16Z</time>
      </trkpt>
      <trkpt lat="47.8555" lon="3.44246">
        <ele>129</ele>
        <time>2014-04-15T07:56:20Z</time>
      </trkpt>
      <trkpt lat="47.8554" lon="3.44266">
        <ele>131</ele>
        <time>2014-04-15T07:56:31Z</time>
      </trkpt>
      <trkpt lat="47.85536" lon="3.44271">
        <ele>130</ele>
        <time>2014-04-15T07:56:35Z</time>
      </trkpt>
      <trkpt lat="47.85521" lon="3.44295">
        <ele>131</ele>
        <time>2014-04-15T07:56:52Z</time>
      </trkpt>
      <trkpt lat="47.85517" lon="3.44299">
        <ele>131</ele>
        <time>2014-04-15T07:56:56Z</time>
      </trkpt>
      <trkpt lat="47.8551" lon="3.4431">
        <ele>131</ele>
        <time>2014-04-15T07:57:05Z</time>
      </trkpt>
      <trkpt lat="47.85504" lon="3.4433">
        <ele>131</ele>
        <time>2014-04-15T07:57:18Z</time>
      </trkpt>
      <trkpt lat="47.85501" lon="3.44337">
        <ele>131</ele>
        <time>2014-04-15T07:57:22Z</time>
      </trkpt>
      <trkpt lat="47.85494" lon="3.44347">
        <ele>131</ele>
        <time>2014-04-15T07:57:29Z</time>
      </trkpt>
      <trkpt lat="47.85491" lon="3.44351">
        <ele>131</ele>
        <time>2014-04-15T07:57:34Z</time>
      </trkpt>
      <trkpt lat="47.85487" lon="3.44358">
        <ele>131</ele>
        <time>2014-04-15T07:57:38Z</time>
      </trkpt>
      <trkpt lat="47.85485" lon="3.44365">
        <ele>131</ele>
        <time>2014-04-15T07:57:41Z</time>
      </trkpt>
      <trkpt lat="47.85482" lon="3.44371">
        <ele>131</ele>
        <time>2014-04-15T07:57:47Z</time>
      </trkpt>
      <trkpt lat="47.85478" lon="3.44376">
        <ele>131</ele>
        <time>2014-04-15T07:57:49Z</time>
      </trkpt>
      <trkpt lat="47.85475" lon="3.44382">
        <ele>131</ele>
        <time>2014-04-15T07:57:53Z</time>
      </trkpt>
      <trkpt lat="47.85467" lon="3.44391">
        <ele>131</ele>
        <time>2014-04-15T07:58:03Z</time>
      </trkpt>
      <trkpt lat="47.85463" lon="3.44396">
        <ele>131</ele>
        <time>2014-04-15T07:58:08Z</time>
      </trkpt>
      <trkpt lat="47.85461" lon="3.44405">
        <ele>131</ele>
        <time>2014-04-15T07:58:13Z</time>
      </trkpt>
      <trkpt lat="47.85455" lon="3.44417">
        <ele>131</ele>
        <time>2014-04-15T07:58:22Z</time>
      </trkpt>
      <trkpt lat="47.85445" lon="3.44432">
        <ele>132</ele>
        <time>2014-04-15T07:58:31Z</time>
      </trkpt>
      <trkpt lat="47.8544" lon="3.44437">
        <ele>132</ele>
        <time>2014-04-15T07:58:35Z</time>
      </trkpt>
      <trkpt lat="47.85436" lon="3.4444">
        <ele>132</ele>
        <time>2014-04-15T07:58:41Z</time>
      </trkpt>
      <trkpt lat="47.85432" lon="3.44445">
        <ele>132</ele>
        <time>2014-04-15T07:58:44Z</time>
      </trkpt>
      <trkpt lat="47.85429" lon="3.44451">
        <ele>132</ele>
        <time>2014-04-15T07:58:48Z</time>
      </trkpt>
      <trkpt lat="47.85418" lon="3.44477">
        <ele>133</ele>
        <time>2014-04-15T07:59:03Z</time>
      </trkpt>
      <trkpt lat="47.85415" lon="3.44484">
        <ele>131</ele>
        <time>2014-04-15T07:59:06Z</time>
      </trkpt>
      <trkpt lat="47.85411" lon="3.44488">
        <ele>131</ele>
        <time>2014-04-15T07:59:11Z</time>
      </trkpt>
      <trkpt lat="47.85407" lon="3.44493">
        <ele>132</ele>
        <time>2014-04-15T07:59:18Z</time>
      </trkpt>
      <trkpt lat="47.85401" lon="3.44506">
        <ele>132</ele>
        <time>2014-04-15T07:59:27Z</time>
      </trkpt>
      <trkpt lat="47.8539" lon="3.44522">
        <ele>132</ele>
        <time>2014-04-15T07:59:36Z</time>
      </trkpt>
      <trkpt lat="47.85388" lon="3.44528">
        <ele>132</ele>
        <time>2014-04-15T07:59:40Z</time>
      </trkpt>
      <trkpt lat="47.85385" lon="3.44534">
        <ele>132</ele>
        <time>2014-04-15T07:59:44Z</time>
      </trkpt>
      <trkpt lat="47.85381" lon="3.4454">
        <ele>132</ele>
        <time>2014-04-15T07:59:48Z</time>
      </trkpt>
      <trkpt lat="47.85377" lon="3.44543">
        <ele>132</ele>
        <time>2014-04-15T07:59:53Z</time>
      </trkpt>
      <trkpt lat="47.85374" lon="3.44548">
        <ele>132</ele>
        <time>2014-04-15T07:59:57Z</time>
      </trkpt>
      <trkpt lat="47.85368" lon="3.44562">
        <ele>132</ele>
        <time>2014-04-15T08:00:04Z</time>
      </trkpt>
      <trkpt lat="47.8536" lon="3.44572">
        <ele>132</ele>
        <time>2014-04-15T08:00:15Z</time>
      </trkpt>
      <trkpt lat="47.85357" lon="3.44578">
        <ele>132</ele>
        <time>2014-04-15T08:00:17Z</time>
      </trkpt>
      <trkpt lat="47.85353" lon="3.44582">
        <ele>132</ele>
        <time>2014-04-15T08:00:20Z</time>
      </trkpt>
      <trkpt lat="47.8534" lon="3.446">
        <ele>133</ele>
        <time>2014-04-15T08:00:32Z</time>
      </trkpt>
      <trkpt lat="47.85336" lon="3.44604">
        <ele>133</ele>
        <time>2014-04-15T08:00:34Z</time>
      </trkpt>
      <trkpt lat="47.85334" lon="3.4461">
        <ele>133</ele>
        <time>2014-04-15T08:00:41Z</time>
      </trkpt>
      <trkpt lat="47.85331" lon="3.44616">
        <ele>133</ele>
        <time>2014-04-15T08:00:46Z</time>
      </trkpt>
      <trkpt lat="47.85322" lon="3.44624">
        <ele>133</ele>
        <time>2014-04-15T08:00:57Z</time>
      </trkpt>
      <trkpt lat="47.85321" lon="3.44631">
        <ele>134</ele>
        <time>2014-04-15T08:01:04Z</time>
      </trkpt>
      <trkpt lat="47.85293" lon="3.44664">
        <ele>134</ele>
        <time>2014-04-15T08:01:28Z</time>
      </trkpt>
      <trkpt lat="47.85285" lon="3.44671">
        <ele>136</ele>
        <time>2014-04-15T08:01:36Z</time>
      </trkpt>
      <trkpt lat="47.85277" lon="3.44681">
        <ele>136</ele>
        <time>2014-04-15T08:01:44Z</time>
      </trkpt>
      <trkpt lat="47.85272" lon="3.44686">
        <ele>135</ele>
        <time>2014-04-15T08:01:48Z</time>
      </trkpt>
      <trkpt lat="47.85262" lon="3.44692">
        <ele>135</ele>
        <time>2014-04-15T08:01:55Z</time>
      </trkpt>
      <trkpt lat="47.85254" lon="3.44699">
        <ele>135</ele>
        <time>2014-04-15T08:02:00Z</time>
      </trkpt>
      <trkpt lat="47.85245" lon="3.44702">
        <ele>133</ele>
        <time>2014-04-15T08:02:08Z</time>
      </trkpt>
      <trkpt lat="47.85235" lon="3.44708">
        <ele>133</ele>
        <time>2014-04-15T08:02:15Z</time>
      </trkpt>
      <trkpt lat="47.85231" lon="3.44712">
        <ele>133</ele>
        <time>2014-04-15T08:02:18Z</time>
      </trkpt>
      <trkpt lat="47.85226" lon="3.44715">
        <ele>133</ele>
        <time>2014-04-15T08:02:23Z</time>
      </trkpt>
      <trkpt lat="47.85222" lon="3.44718">
        <ele>133</ele>
        <time>2014-04-15T08:02:26Z</time>
      </trkpt>
      <trkpt lat="47.85206" lon="3.44723">
        <ele>133</ele>
        <time>2014-04-15T08:02:38Z</time>
      </trkpt>
      <trkpt lat="47.85201" lon="3.44727">
        <ele>133</ele>
        <time>2014-04-15T08:02:44Z</time>
      </trkpt>
      <trkpt lat="47.85196" lon="3.44726">
        <ele>132</ele>
        <time>2014-04-15T08:02:48Z</time>
      </trkpt>
      <trkpt lat="47.8519" lon="3.44729">
        <ele>132</ele>
        <time>2014-04-15T08:02:51Z</time>
      </trkpt>
      <trkpt lat="47.85185" lon="3.44733">
        <ele>132</ele>
        <time>2014-04-15T08:02:54Z</time>
      </trkpt>
      <trkpt lat="47.8518" lon="3.44736">
        <ele>132</ele>
        <time>2014-04-15T08:02:57Z</time>
      </trkpt>
      <trkpt lat="47.85175" lon="3.44735">
        <ele>132</ele>
        <time>2014-04-15T08:03:03Z</time>
      </trkpt>
      <trkpt lat="47.85171" lon="3.44737">
        <ele>132</ele>
        <time>2014-04-15T08:03:07Z</time>
      </trkpt>
      <trkpt lat="47.85166" lon="3.44739">
        <ele>131</ele>
        <time>2014-04-15T08:03:11Z</time>
      </trkpt>
      <trkpt lat="47.8516" lon="3.44739">
        <ele>131</ele>
        <time>2014-04-15T08:03:15Z</time>
      </trkpt>
      <trkpt lat="47.85156" lon="3.44741">
        <ele>131</ele>
        <time>2014-04-15T08:03:21Z</time>
      </trkpt>
      <trkpt lat="47.85147" lon="3.44749">
        <ele>131</ele>
        <time>2014-04-15T08:03:29Z</time>
      </trkpt>
      <trkpt lat="47.85141" lon="3.44751">
        <ele>132</ele>
        <time>2014-04-15T08:03:33Z</time>
      </trkpt>
      <trkpt lat="47.85136" lon="3.44754">
        <ele>133</ele>
        <time>2014-04-15T08:03:38Z</time>
      </trkpt>
      <trkpt lat="47.85138" lon="3.44747">
        <ele>131</ele>
        <time>2014-04-15T08:03:41Z</time>
      </trkpt>
      <trkpt lat="47.85132" lon="3.44748">
        <ele>131</ele>
        <time>2014-04-15T08:03:47Z</time>
      </trkpt>
      <trkpt lat="47.85127" lon="3.44751">
        <ele>133</ele>
        <time>2014-04-15T08:03:51Z</time>
      </trkpt>
      <trkpt lat="47.85121" lon="3.44752">
        <ele>133</ele>
        <time>2014-04-15T08:03:53Z</time>
      </trkpt>
      <trkpt lat="47.85107" lon="3.4476">
        <ele>132</ele>
        <time>2014-04-15T08:04:05Z</time>
      </trkpt>
      <trkpt lat="47.85102" lon="3.44764">
        <ele>132</ele>
        <time>2014-04-15T08:04:07Z</time>
      </trkpt>
      <trkpt lat="47.85097" lon="3.44766">
        <ele>132</ele>
        <time>2014-04-15T08:04:11Z</time>
      </trkpt>
      <trkpt lat="47.85092" lon="3.44767">
        <ele>132</ele>
        <time>2014-04-15T08:04:17Z</time>
      </trkpt>
      <trkpt lat="47.85088" lon="3.44769">
        <ele>132</ele>
        <time>2014-04-15T08:04:20Z</time>
      </trkpt>
      <trkpt lat="47.85083" lon="3.4477">
        <ele>133</ele>
        <time>2014-04-15T08:04:22Z</time>
      </trkpt>
      <trkpt lat="47.85068" lon="3.44776">
        <ele>133</ele>
        <time>2014-04-15T08:04:32Z</time>
      </trkpt>
      <trkpt lat="47.85063" lon="3.44777">
        <ele>133</ele>
        <time>2014-04-15T08:04:40Z</time>
      </trkpt>
      <trkpt lat="47.85058" lon="3.4478">
        <ele>133</ele>
        <time>2014-04-15T08:04:44Z</time>
      </trkpt>
      <trkpt lat="47.85053" lon="3.44784">
        <ele>133</ele>
        <time>2014-04-15T08:04:48Z</time>
      </trkpt>
      <trkpt lat="47.8505" lon="3.4479">
        <ele>134</ele>
        <time>2014-04-15T08:04:53Z</time>
      </trkpt>
      <trkpt lat="47.85033" lon="3.44793">
        <ele>134</ele>
        <time>2014-04-15T08:05:04Z</time>
      </trkpt>
      <trkpt lat="47.84995" lon="3.44826">
        <ele>135</ele>
        <time>2014-04-15T08:05:32Z</time>
      </trkpt>
      <trkpt lat="47.8499" lon="3.44829">
        <ele>135</ele>
        <time>2014-04-15T08:05:37Z</time>
      </trkpt>
      <trkpt lat="47.84985" lon="3.4483">
        <ele>135</ele>
        <time>2014-04-15T08:05:43Z</time>
      </trkpt>
      <trkpt lat="47.8498" lon="3.44833">
        <ele>136</ele>
        <time>2014-04-15T08:05:47Z</time>
      </trkpt>
      <trkpt lat="47.84978" lon="3.44837">
        <ele>136</ele>
        <time>2014-04-15T08:05:54Z</time>
      </trkpt>
      <trkpt lat="47.84976" lon="3.44843">
        <ele>136</ele>
        <time>2014-04-15T08:06:00Z</time>
      </trkpt>
      <trkpt lat="47.84971" lon="3.44849">
        <ele>136</ele>
        <time>2014-04-15T08:06:04Z</time>
      </trkpt>
      <trkpt lat="47.84968" lon="3.44851">
        <ele>136</ele>
        <time>2014-04-15T08:06:12Z</time>
      </trkpt>
      <trkpt lat="47.84964" lon="3.44855">
        <ele>136</ele>
        <time>2014-04-15T08:06:23Z</time>
      </trkpt>
      <trkpt lat="47.8496" lon="3.44859">
        <ele>136</ele>
        <time>2014-04-15T08:06:27Z</time>
      </trkpt>
      <trkpt lat="47.84954" lon="3.44858">
        <ele>136</ele>
        <time>2014-04-15T08:06:32Z</time>
      </trkpt>
      <trkpt lat="47.8495" lon="3.44857">
        <ele>136</ele>
        <time>2014-04-15T08:06:37Z</time>
      </trkpt>
      <trkpt lat="47.84942" lon="3.44867">
        <ele>136</ele>
        <time>2014-04-15T08:06:46Z</time>
      </trkpt>
      <trkpt lat="47.84934" lon="3.44873">
        <ele>136</ele>
        <time>2014-04-15T08:06:55Z</time>
      </trkpt>
      <trkpt lat="47.84929" lon="3.44876">
        <ele>136</ele>
        <time>2014-04-15T08:07:00Z</time>
      </trkpt>
      <trkpt lat="47.84926" lon="3.44882">
        <ele>136</ele>
        <time>2014-04-15T08:07:04Z</time>
      </trkpt>
      <trkpt lat="47.84921" lon="3.44884">
        <ele>136</ele>
        <time>2014-04-15T08:07:08Z</time>
      </trkpt>
      <trkpt lat="47.84915" lon="3.44884">
        <ele>135</ele>
        <time>2014-04-15T08:07:12Z</time>
      </trkpt>
      <trkpt lat="47.84897" lon="3.44914">
        <ele>136</ele>
        <time>2014-04-15T08:07:29Z</time>
      </trkpt>
      <trkpt lat="47.84894" lon="3.44921">
        <ele>137</ele>
        <time>2014-04-15T08:07:35Z</time>
      </trkpt>
      <trkpt lat="47.84891" lon="3.44923">
        <ele>137</ele>
        <time>2014-04-15T08:07:42Z</time>
      </trkpt>
      <trkpt lat="47.84882" lon="3.44941">
        <ele>137</ele>
        <time>2014-04-15T08:07:58Z</time>
      </trkpt>
      <trkpt lat="47.84877" lon="3.44945">
        <ele>137</ele>
        <time>2014-04-15T08:08:02Z</time>
      </trkpt>
      <trkpt lat="47.84872" lon="3.44947">
        <ele>137</ele>
        <time>2014-04-15T08:08:04Z</time>
      </trkpt>
      <trkpt lat="47.84863" lon="3.44954">
        <ele>137</ele>
        <time>2014-04-15T08:08:11Z</time>
      </trkpt>
      <trkpt lat="47.8486" lon="3.4496">
        <ele>137</ele>
        <time>2014-04-15T08:08:17Z</time>
      </trkpt>
      <trkpt lat="47.84856" lon="3.44964">
        <ele>137</ele>
        <time>2014-04-15T08:08:20Z</time>
      </trkpt>
      <trkpt lat="47.84851" lon="3.44966">
        <ele>137</ele>
        <time>2014-04-15T08:08:24Z</time>
      </trkpt>
      <trkpt lat="47.84847" lon="3.44969">
        <ele>137</ele>
        <time>2014-04-15T08:08:28Z</time>
      </trkpt>
      <trkpt lat="47.84843" lon="3.44976">
        <ele>137</ele>
        <time>2014-04-15T08:08:31Z</time>
      </trkpt>
      <trkpt lat="47.84833" lon="3.44992">
        <ele>137</ele>
        <time>2014-04-15T08:08:39Z</time>
      </trkpt>
      <trkpt lat="47.84824" lon="3.45">
        <ele>137</ele>
        <time>2014-04-15T08:08:47Z</time>
      </trkpt>
      <trkpt lat="47.84818" lon="3.45004">
        <ele>137</ele>
        <time>2014-04-15T08:08:51Z</time>
      </trkpt>
      <trkpt lat="47.84812" lon="3.45015">
        <ele>137</ele>
        <time>2014-04-15T08:08:59Z</time>
      </trkpt>
      <trkpt lat="47.84791" lon="3.45037">
        <ele>136</ele>
        <time>2014-04-15T08:09:18Z</time>
      </trkpt>
      <trkpt lat="47.84783" lon="3.45048">
        <ele>136</ele>
        <time>2014-04-15T08:09:26Z</time>
      </trkpt>
      <trkpt lat="47.84774" lon="3.45056">
        <ele>136</ele>
        <time>2014-04-15T08:09:36Z</time>
      </trkpt>
      <trkpt lat="47.84769" lon="3.45058">
        <ele>136</ele>
        <time>2014-04-15T08:09:39Z</time>
      </trkpt>
      <trkpt lat="47.84758" lon="3.45074">
        <ele>135</ele>
        <time>2014-04-15T08:09:55Z</time>
      </trkpt>
      <trkpt lat="47.84749" lon="3.45082">
        <ele>134</ele>
        <time>2014-04-15T08:10:02Z</time>
      </trkpt>
      <trkpt lat="47.84746" lon="3.45088">
        <ele>134</ele>
        <time>2014-04-15T08:10:06Z</time>
      </trkpt>
      <trkpt lat="47.84741" lon="3.45094">
        <ele>135</ele>
        <time>2014-04-15T08:10:11Z</time>
      </trkpt>
      <trkpt lat="47.84736" lon="3.45094">
        <ele>135</ele>
        <time>2014-04-15T08:10:18Z</time>
      </trkpt>
      <trkpt lat="47.84732" lon="3.451">
        <ele>135</ele>
        <time>2014-04-15T08:10:24Z</time>
      </trkpt>
      <trkpt lat="47.8473" lon="3.45105">
        <ele>135</ele>
        <time>2014-04-15T08:10:29Z</time>
      </trkpt>
      <trkpt lat="47.84725" lon="3.45109">
        <ele>135</ele>
        <time>2014-04-15T08:10:32Z</time>
      </trkpt>
      <trkpt lat="47.84721" lon="3.45116">
        <ele>135</ele>
        <time>2014-04-15T08:10:36Z</time>
      </trkpt>
      <trkpt lat="47.84712" lon="3.45121">
        <ele>135</ele>
        <time>2014-04-15T08:10:42Z</time>
      </trkpt>
      <trkpt lat="47.84702" lon="3.45131">
        <ele>136</ele>
        <time>2014-04-15T08:10:51Z</time>
      </trkpt>
      <trkpt lat="47.84699" lon="3.45137">
        <ele>136</ele>
        <time>2014-04-15T08:10:55Z</time>
      </trkpt>
      <trkpt lat="47.84689" lon="3.45145">
        <ele>137</ele>
        <time>2014-04-15T08:11:00Z</time>
      </trkpt>
      <trkpt lat="47.84686" lon="3.45151">
        <ele>137</ele>
        <time>2014-04-15T08:11:03Z</time>
      </trkpt>
      <trkpt lat="47.84682" lon="3.45155">
        <ele>137</ele>
        <time>2014-04-15T08:11:08Z</time>
      </trkpt>
      <trkpt lat="47.84678" lon="3.45159">
        <ele>138</ele>
        <time>2014-04-15T08:11:14Z</time>
      </trkpt>
      <trkpt lat="47.84658" lon="3.45186">
        <ele>141</ele>
        <time>2014-04-15T08:11:33Z</time>
      </trkpt>
      <trkpt lat="47.84654" lon="3.4519">
        <ele>142</ele>
        <time>2014-04-15T08:11:36Z</time>
      </trkpt>
      <trkpt lat="47.8465" lon="3.45195">
        <ele>142</ele>
        <time>2014-04-15T08:11:41Z</time>
      </trkpt>
      <trkpt lat="47.84621" lon="3.45227">
        <ele>143</ele>
        <time>2014-04-15T08:12:10Z</time>
      </trkpt>
      <trkpt lat="47.84616" lon="3.4523">
        <ele>143</ele>
        <time>2014-04-15T08:12:14Z</time>
      </trkpt>
      <trkpt lat="47.846" lon="3.4525">
        <ele>144</ele>
        <time>2014-04-15T08:12:25Z</time>
      </trkpt>
      <trkpt lat="47.84598" lon="3.45257">
        <ele>144</ele>
        <time>2014-04-15T08:12:31Z</time>
      </trkpt>
      <trkpt lat="47.84594" lon="3.45262">
        <ele>144</ele>
        <time>2014-04-15T08:12:38Z</time>
      </trkpt>
      <trkpt lat="47.8459" lon="3.45266">
        <ele>144</ele>
        <time>2014-04-15T08:12:44Z</time>
      </trkpt>
      <trkpt lat="47.84587" lon="3.45271">
        <ele>144</ele>
        <time>2014-04-15T08:12:49Z</time>
      </trkpt>
      <trkpt lat="47.84578" lon="3.4528">
        <ele>146</ele>
        <time>2014-04-15T08:12:59Z</time>
      </trkpt>
      <trkpt lat="47.84574" lon="3.45282">
        <ele>146</ele>
        <time>2014-04-15T08:13:06Z</time>
      </trkpt>
      <trkpt lat="47.84569" lon="3.45289">
        <ele>146</ele>
        <time>2014-04-15T08:13:11Z</time>
      </trkpt>
      <trkpt lat="47.84565" lon="3.45293">
        <ele>146</ele>
        <time>2014-04-15T08:13:15Z</time>
      </trkpt>
      <trkpt lat="47.8456" lon="3.45295">
        <ele>146</ele>
        <time>2014-04-15T08:13:21Z</time>
      </trkpt>
      <trkpt lat="47.84556" lon="3.453">
        <ele>146</ele>
        <time>2014-04-15T08:13:24Z</time>
      </trkpt>
      <trkpt lat="47.84539" lon="3.45317">
        <ele>146</ele>
        <time>2014-04-15T08:13:40Z</time>
      </trkpt>
      <trkpt lat="47.84534" lon="3.45319">
        <ele>147</ele>
        <time>2014-04-15T08:13:44Z</time>
      </trkpt>
      <trkpt lat="47.84529" lon="3.45321">
        <ele>147</ele>
        <time>2014-04-15T08:13:49Z</time>
      </trkpt>
      <trkpt lat="47.84525" lon="3.45323">
        <ele>147</ele>
        <time>2014-04-15T08:13:54Z</time>
      </trkpt>
      <trkpt lat="47.84519" lon="3.45327">
        <ele>147</ele>
        <time>2014-04-15T08:13:57Z</time>
      </trkpt>
      <trkpt lat="47.84516" lon="3.45332">
        <ele>147</ele>
        <time>2014-04-15T08:14:00Z</time>
      </trkpt>
      <trkpt lat="47.84511" lon="3.45336">
        <ele>146</ele>
        <time>2014-04-15T08:14:04Z</time>
      </trkpt>
      <trkpt lat="47.84505" lon="3.45339">
        <ele>146</ele>
        <time>2014-04-15T08:14:09Z</time>
      </trkpt>
      <trkpt lat="47.84501" lon="3.45343">
        <ele>146</ele>
        <time>2014-04-15T08:14:12Z</time>
      </trkpt>
      <trkpt lat="47.84496" lon="3.45344">
        <ele>145</ele>
        <time>2014-04-15T08:14:16Z</time>
      </trkpt>
      <trkpt lat="47.84493" lon="3.45349">
        <ele>145</ele>
        <time>2014-04-15T08:14:20Z</time>
      </trkpt>
      <trkpt lat="47.84489" lon="3.45356">
        <ele>144</ele>
        <time>2014-04-15T08:14:24Z</time>
      </trkpt>
      <trkpt lat="47.84485" lon="3.45361">
        <ele>143</ele>
        <time>2014-04-15T08:14:28Z</time>
      </trkpt>
      <trkpt lat="47.84481" lon="3.45365">
        <ele>143</ele>
        <time>2014-04-15T08:14:30Z</time>
      </trkpt>
      <trkpt lat="47.84478" lon="3.45371">
        <ele>143</ele>
        <time>2014-04-15T08:14:32Z</time>
      </trkpt>
      <trkpt lat="47.84468" lon="3.45384">
        <ele>142</ele>
        <time>2014-04-15T08:14:44Z</time>
      </trkpt>
      <trkpt lat="47.84457" lon="3.45389">
        <ele>142</ele>
        <time>2014-04-15T08:15:00Z</time>
      </trkpt>
      <trkpt lat="47.84454" lon="3.45394">
        <ele>142</ele>
        <time>2014-04-15T08:15:05Z</time>
      </trkpt>
      <trkpt lat="47.84444" lon="3.45403">
        <ele>142</ele>
        <time>2014-04-15T08:15:13Z</time>
      </trkpt>
      <trkpt lat="47.84439" lon="3.45406">
        <ele>141</ele>
        <time>2014-04-15T08:15:17Z</time>
      </trkpt>
      <trkpt lat="47.84435" lon="3.45409">
        <ele>141</ele>
        <time>2014-04-15T08:15:21Z</time>
      </trkpt>
      <trkpt lat="47.8443" lon="3.45411">
        <ele>141</ele>
        <time>2014-04-15T08:15:27Z</time>
      </trkpt>
      <trkpt lat="47.84426" lon="3.45415">
        <ele>141</ele>
        <time>2014-04-15T08:15:30Z</time>
      </trkpt>
      <trkpt lat="47.84421" lon="3.45419">
        <ele>140</ele>
        <time>2014-04-15T08:15:33Z</time>
      </trkpt>
      <trkpt lat="47.84413" lon="3.45431">
        <ele>141</ele>
        <time>2014-04-15T08:15:37Z</time>
      </trkpt>
      <trkpt lat="47.84409" lon="3.45435">
        <ele>142</ele>
        <time>2014-04-15T08:15:41Z</time>
      </trkpt>
      <trkpt lat="47.84404" lon="3.45439">
        <ele>142</ele>
        <time>2014-04-15T08:15:46Z</time>
      </trkpt>
      <trkpt lat="47.84389" lon="3.45446">
        <ele>142</ele>
        <time>2014-04-15T08:15:56Z</time>
      </trkpt>
      <trkpt lat="47.84383" lon="3.45447">
        <ele>143</ele>
        <time>2014-04-15T08:16:02Z</time>
      </trkpt>
      <trkpt lat="47.84373" lon="3.45451">
        <ele>143</ele>
        <time>2014-04-15T08:16:12Z</time>
      </trkpt>
      <trkpt lat="47.84368" lon="3.45452">
        <ele>143</ele>
        <time>2014-04-15T08:16:15Z</time>
      </trkpt>
      <trkpt lat="47.84359" lon="3.45457">
        <ele>143</ele>
        <time>2014-04-15T08:16:24Z</time>
      </trkpt>
      <trkpt lat="47.84353" lon="3.45459">
        <ele>143</ele>
        <time>2014-04-15T08:16:31Z</time>
      </trkpt>
      <trkpt lat="47.84348" lon="3.45462">
        <ele>144</ele>
        <time>2014-04-15T08:16:33Z</time>
      </trkpt>
      <trkpt lat="47.84343" lon="3.45467">
        <ele>144</ele>
        <time>2014-04-15T08:16:36Z</time>
      </trkpt>
      <trkpt lat="47.84325" lon="3.45478">
        <ele>145</ele>
        <time>2014-04-15T08:16:54Z</time>
      </trkpt>
      <trkpt lat="47.84314" lon="3.45481">
        <ele>145</ele>
        <time>2014-04-15T08:17:03Z</time>
      </trkpt>
      <trkpt lat="47.84305" lon="3.45486">
        <ele>145</ele>
        <time>2014-04-15T08:17:10Z</time>
      </trkpt>
      <trkpt lat="47.84291" lon="3.45498">
        <ele>145</ele>
        <time>2014-04-15T08:17:26Z</time>
      </trkpt>
      <trkpt lat="47.84286" lon="3.45499">
        <ele>145</ele>
        <time>2014-04-15T08:17:30Z</time>
      </trkpt>
      <trkpt lat="47.84281" lon="3.45498">
        <ele>145</ele>
        <time>2014-04-15T08:17:35Z</time>
      </trkpt>
      <trkpt lat="47.84276" lon="3.455">
        <ele>145</ele>
        <time>2014-04-15T08:17:38Z</time>
      </trkpt>
      <trkpt lat="47.84272" lon="3.45503">
        <ele>146</ele>
        <time>2014-04-15T08:17:42Z</time>
      </trkpt>
      <trkpt lat="47.84267" lon="3.45505">
        <ele>146</ele>
        <time>2014-04-15T08:17:44Z</time>
      </trkpt>
      <trkpt lat="47.84264" lon="3.45506">
        <ele>146</ele>
        <time>2014-04-15T08:17:51Z</time>
      </trkpt>
      <trkpt lat="47.84251" lon="3.45519">
        <ele>146</ele>
        <time>2014-04-15T08:17:59Z</time>
      </trkpt>
      <trkpt lat="47.84246" lon="3.45523">
        <ele>145</ele>
        <time>2014-04-15T08:18:03Z</time>
      </trkpt>
      <trkpt lat="47.84241" lon="3.45523">
        <ele>145</ele>
        <time>2014-04-15T08:18:05Z</time>
      </trkpt>
      <trkpt lat="47.84236" lon="3.45521">
        <ele>145</ele>
        <time>2014-04-15T08:18:10Z</time>
      </trkpt>
      <trkpt lat="47.84231" lon="3.45522">
        <ele>145</ele>
        <time>2014-04-15T08:18:14Z</time>
      </trkpt>
      <trkpt lat="47.84226" lon="3.45524">
        <ele>145</ele>
        <time>2014-04-15T08:18:19Z</time>
      </trkpt>
      <trkpt lat="47.84222" lon="3.45528">
        <ele>145</ele>
        <time>2014-04-15T08:18:22Z</time>
      </trkpt>
      <trkpt lat="47.84212" lon="3.45533">
        <ele>145</ele>
        <time>2014-04-15T08:18:31Z</time>
      </trkpt>
      <trkpt lat="47.84209" lon="3.45534">
        <ele>145</ele>
        <time>2014-04-15T08:18:38Z</time>
      </trkpt>
      <trkpt lat="47.84205" lon="3.45539">
        <ele>145</ele>
        <time>2014-04-15T08:18:43Z</time>
      </trkpt>
      <trkpt lat="47.84187" lon="3.45559">
        <ele>146</ele>
        <time>2014-04-15T08:19:01Z</time>
      </trkpt>
      <trkpt lat="47.84183" lon="3.45562">
        <ele>146</ele>
        <time>2014-04-15T08:19:06Z</time>
      </trkpt>
      <trkpt lat="47.8418" lon="3.45568">
        <ele>146</ele>
        <time>2014-04-15T08:19:12Z</time>
      </trkpt>
      <trkpt lat="47.84176" lon="3.4558">
        <ele>146</ele>
        <time>2014-04-15T08:19:20Z</time>
      </trkpt>
      <trkpt lat="47.84171" lon="3.45586">
        <ele>147</ele>
        <time>2014-04-15T08:19:24Z</time>
      </trkpt>
      <trkpt lat="47.84168" lon="3.45593">
        <ele>147</ele>
        <time>2014-04-15T08:19:27Z</time>
      </trkpt>
      <trkpt lat="47.84163" lon="3.4561">
        <ele>148</ele>
        <time>2014-04-15T08:19:35Z</time>
      </trkpt>
      <trkpt lat="47.8416" lon="3.45616">
        <ele>149</ele>
        <time>2014-04-15T08:19:37Z</time>
      </trkpt>
      <trkpt lat="47.8416" lon="3.45621">
        <ele>149</ele>
        <time>2014-04-15T08:19:47Z</time>
      </trkpt>
      <trkpt lat="47.84156" lon="3.45625">
        <ele>149</ele>
        <time>2014-04-15T08:19:57Z</time>
      </trkpt>
      <trkpt lat="47.84153" lon="3.45632">
        <ele>150</ele>
        <time>2014-04-15T08:20:09Z</time>
      </trkpt>
      <trkpt lat="47.84144" lon="3.45639">
        <ele>150</ele>
        <time>2014-04-15T08:20:15Z</time>
      </trkpt>
      <trkpt lat="47.8414" lon="3.45643">
        <ele>150</ele>
        <time>2014-04-15T08:20:20Z</time>
      </trkpt>
      <trkpt lat="47.8413" lon="3.45661">
        <ele>151</ele>
        <time>2014-04-15T08:20:36Z</time>
      </trkpt>
      <trkpt lat="47.84128" lon="3.45667">
        <ele>154</ele>
        <time>2014-04-15T08:20:39Z</time>
      </trkpt>
      <trkpt lat="47.84127" lon="3.45674">
        <ele>154</ele>
        <time>2014-04-15T08:20:41Z</time>
      </trkpt>
      <trkpt lat="47.84121" lon="3.45688">
        <ele>155</ele>
        <time>2014-04-15T08:20:51Z</time>
      </trkpt>
      <trkpt lat="47.8412" lon="3.45696">
        <ele>155</ele>
        <time>2014-04-15T08:20:56Z</time>
      </trkpt>
      <trkpt lat="47.84117" lon="3.45702">
        <ele>155</ele>
        <time>2014-04-15T08:21:00Z</time>
      </trkpt>
      <trkpt lat="47.8411" lon="3.45713">
        <ele>155</ele>
        <time>2014-04-15T08:21:08Z</time>
      </trkpt>
      <trkpt lat="47.84104" lon="3.45727">
        <ele>156</ele>
        <time>2014-04-15T08:21:16Z</time>
      </trkpt>
      <trkpt lat="47.84101" lon="3.45733">
        <ele>156</ele>
        <time>2014-04-15T08:21:20Z</time>
      </trkpt>
      <trkpt lat="47.84093" lon="3.45741">
        <ele>156</ele>
        <time>2014-04-15T08:21:28Z</time>
      </trkpt>
      <trkpt lat="47.84092" lon="3.45755">
        <ele>157</ele>
        <time>2014-04-15T08:21:35Z</time>
      </trkpt>
      <trkpt lat="47.84089" lon="3.45769">
        <ele>157</ele>
        <time>2014-04-15T08:21:40Z</time>
      </trkpt>
      <trkpt lat="47.84073" lon="3.45797">
        <ele>157</ele>
        <time>2014-04-15T08:21:55Z</time>
      </trkpt>
      <trkpt lat="47.84065" lon="3.45807">
        <ele>157</ele>
        <time>2014-04-15T08:22:02Z</time>
      </trkpt>
      <trkpt lat="47.84061" lon="3.45809">
        <ele>157</ele>
        <time>2014-04-15T08:22:07Z</time>
      </trkpt>
      <trkpt lat="47.84056" lon="3.45811">
        <ele>157</ele>
        <time>2014-04-15T08:22:13Z</time>
      </trkpt>
      <trkpt lat="47.84051" lon="3.45813">
        <ele>157</ele>
        <time>2014-04-15T08:22:17Z</time>
      </trkpt>
      <trkpt lat="47.84047" lon="3.45817">
        <ele>157</ele>
        <time>2014-04-15T08:22:22Z</time>
      </trkpt>
      <trkpt lat="47.84043" lon="3.45823">
        <ele>157</ele>
        <time>2014-04-15T08:22:26Z</time>
      </trkpt>
      <trkpt lat="47.8404" lon="3.4583">
        <ele>157</ele>
        <time>2014-04-15T08:22:28Z</time>
      </trkpt>
      <trkpt lat="47.84035" lon="3.45842">
        <ele>158</ele>
        <time>2014-04-15T08:22:33Z</time>
      </trkpt>
      <trkpt lat="47.84031" lon="3.45849">
        <ele>158</ele>
        <time>2014-04-15T08:22:36Z</time>
      </trkpt>
      <trkpt lat="47.84026" lon="3.45854">
        <ele>158</ele>
        <time>2014-04-15T08:22:40Z</time>
      </trkpt>
      <trkpt lat="47.84022" lon="3.45857">
        <ele>158</ele>
        <time>2014-04-15T08:22:43Z</time>
      </trkpt>
      <trkpt lat="47.84017" lon="3.45859">
        <ele>158</ele>
        <time>2014-04-15T08:22:49Z</time>
      </trkpt>
      <trkpt lat="47.84012" lon="3.45859">
        <ele>158</ele>
        <time>2014-04-15T08:22:54Z</time>
      </trkpt>
      <trkpt lat="47.84002" lon="3.45863">
        <ele>158</ele>
        <time>2014-04-15T08:23:02Z</time>
      </trkpt>
      <trkpt lat="47.83997" lon="3.45867">
        <ele>158</ele>
        <time>2014-04-15T08:23:08Z</time>
      </trkpt>
      <trkpt lat="47.83992" lon="3.4587">
        <ele>158</ele>
        <time>2014-04-15T08:23:12Z</time>
      </trkpt>
      <trkpt lat="47.83986" lon="3.45875">
        <ele>158</ele>
        <time>2014-04-15T08:23:15Z</time>
      </trkpt>
      <trkpt lat="47.83976" lon="3.45874">
        <ele>158</ele>
        <time>2014-04-15T08:23:26Z</time>
      </trkpt>
      <trkpt lat="47.8397" lon="3.45877">
        <ele>159</ele>
        <time>2014-04-15T08:23:29Z</time>
      </trkpt>
      <trkpt lat="47.83965" lon="3.45878">
        <ele>159</ele>
        <time>2014-04-15T08:23:33Z</time>
      </trkpt>
      <trkpt lat="47.8396" lon="3.45876">
        <ele>159</ele>
        <time>2014-04-15T08:23:39Z</time>
      </trkpt>
      <trkpt lat="47.83955" lon="3.45875">
        <ele>159</ele>
        <time>2014-04-15T08:23:43Z</time>
      </trkpt>
      <trkpt lat="47.8395" lon="3.45876">
        <ele>159</ele>
        <time>2014-04-15T08:23:45Z</time>
      </trkpt>
      <trkpt lat="47.83945" lon="3.45879">
        <ele>159</ele>
        <time>2014-04-15T08:23:49Z</time>
      </trkpt>
      <trkpt lat="47.8394" lon="3.45882">
        <ele>159</ele>
        <time>2014-04-15T08:23:53Z</time>
      </trkpt>
      <trkpt lat="47.83937" lon="3.45887">
        <ele>159</ele>
        <time>2014-04-15T08:23:58Z</time>
      </trkpt>
      <trkpt lat="47.83932" lon="3.45892">
        <ele>159</ele>
        <time>2014-04-15T08:24:02Z</time>
      </trkpt>
      <trkpt lat="47.83926" lon="3.45894">
        <ele>159</ele>
        <time>2014-04-15T08:24:06Z</time>
      </trkpt>
      <trkpt lat="47.83922" lon="3.45899">
        <ele>159</ele>
        <time>2014-04-15T08:24:10Z</time>
      </trkpt>
      <trkpt lat="47.83918" lon="3.45904">
        <ele>159</ele>
        <time>2014-04-15T08:24:13Z</time>
      </trkpt>
      <trkpt lat="47.83912" lon="3.45908">
        <ele>159</ele>
        <time>2014-04-15T08:24:15Z</time>
      </trkpt>
      <trkpt lat="47.83908" lon="3.45913">
        <ele>160</ele>
        <time>2014-04-15T08:24:18Z</time>
      </trkpt>
      <trkpt lat="47.83904" lon="3.45915">
        <ele>160</ele>
        <time>2014-04-15T08:24:24Z</time>
      </trkpt>
      <trkpt lat="47.83899" lon="3.4592">
        <ele>161</ele>
        <time>2014-04-15T08:24:27Z</time>
      </trkpt>
      <trkpt lat="47.83892" lon="3.4593">
        <ele>162</ele>
        <time>2014-04-15T08:24:38Z</time>
      </trkpt>
      <trkpt lat="47.83887" lon="3.45934">
        <ele>162</ele>
        <time>2014-04-15T08:24:42Z</time>
      </trkpt>
      <trkpt lat="47.83883" lon="3.45937">
        <ele>162</ele>
        <time>2014-04-15T08:24:47Z</time>
      </trkpt>
      <trkpt lat="47.83878" lon="3.45939">
        <ele>163</ele>
        <time>2014-04-15T08:24:52Z</time>
      </trkpt>
      <trkpt lat="47.83869" lon="3.45945">
        <ele>163</ele>
        <time>2014-04-15T08:24:59Z</time>
      </trkpt>
      <trkpt lat="47.83856" lon="3.45959">
        <ele>164</ele>
        <time>2014-04-15T08:25:13Z</time>
      </trkpt>
      <trkpt lat="47.83852" lon="3.45964">
        <ele>164</ele>
        <time>2014-04-15T08:25:26Z</time>
      </trkpt>
      <trkpt lat="47.83841" lon="3.45972">
        <ele>164</ele>
        <time>2014-04-15T08:25:55Z</time>
      </trkpt>
      <trkpt lat="47.83838" lon="3.45978">
        <ele>165</ele>
        <time>2014-04-15T08:26:00Z</time>
      </trkpt>
      <trkpt lat="47.83833" lon="3.45981">
        <ele>166</ele>
        <time>2014-04-15T08:26:04Z</time>
      </trkpt>
      <trkpt lat="47.8383" lon="3.45985">
        <ele>166</ele>
        <time>2014-04-15T08:26:11Z</time>
      </trkpt>
      <trkpt lat="47.83825" lon="3.45989">
        <ele>166</ele>
        <time>2014-04-15T08:26:16Z</time>
      </trkpt>
      <trkpt lat="47.8381" lon="3.45998">
        <ele>166</ele>
        <time>2014-04-15T08:26:27Z</time>
      </trkpt>
      <trkpt lat="47.83804" lon="3.46001">
        <ele>169</ele>
        <time>2014-04-15T08:26:33Z</time>
      </trkpt>
      <trkpt lat="47.838" lon="3.46006">
        <ele>169</ele>
        <time>2014-04-15T08:26:36Z</time>
      </trkpt>
      <trkpt lat="47.83795" lon="3.46008">
        <ele>170</ele>
        <time>2014-04-15T08:26:41Z</time>
      </trkpt>
      <trkpt lat="47.8379" lon="3.46009">
        <ele>170</ele>
        <time>2014-04-15T08:26:45Z</time>
      </trkpt>
      <trkpt lat="47.83786" lon="3.46012">
        <ele>170</ele>
        <time>2014-04-15T08:26:49Z</time>
      </trkpt>
      <trkpt lat="47.83782" lon="3.46016">
        <ele>170</ele>
        <time>2014-04-15T08:26:55Z</time>
      </trkpt>
      <trkpt lat="47.83775" lon="3.46025">
        <ele>170</ele>
        <time>2014-04-15T08:27:06Z</time>
      </trkpt>
      <trkpt lat="47.83771" lon="3.46029">
        <ele>170</ele>
        <time>2014-04-15T08:27:12Z</time>
      </trkpt>
      <trkpt lat="47.83757" lon="3.4604">
        <ele>171</ele>
        <time>2014-04-15T08:27:24Z</time>
      </trkpt>
      <trkpt lat="47.83753" lon="3.4604">
        <ele>171</ele>
        <time>2014-04-15T08:27:29Z</time>
      </trkpt>
      <trkpt lat="47.83748" lon="3.4604">
        <ele>169</ele>
        <time>2014-04-15T08:27:36Z</time>
      </trkpt>
      <trkpt lat="47.83726" lon="3.4606">
        <ele>169</ele>
        <time>2014-04-15T08:27:53Z</time>
      </trkpt>
      <trkpt lat="47.83721" lon="3.46062">
        <ele>169</ele>
        <time>2014-04-15T08:27:58Z</time>
      </trkpt>
      <trkpt lat="47.83707" lon="3.46064">
        <ele>168</ele>
        <time>2014-04-15T08:28:15Z</time>
      </trkpt>
      <trkpt lat="47.83703" lon="3.46068">
        <ele>168</ele>
        <time>2014-04-15T08:28:17Z</time>
      </trkpt>
      <trkpt lat="47.83693" lon="3.46072">
        <ele>168</ele>
        <time>2014-04-15T08:28:24Z</time>
      </trkpt>
      <trkpt lat="47.83681" lon="3.46082">
        <ele>168</ele>
        <time>2014-04-15T08:28:33Z</time>
      </trkpt>
      <trkpt lat="47.83667" lon="3.4609">
        <ele>169</ele>
        <time>2014-04-15T08:28:44Z</time>
      </trkpt>
      <trkpt lat="47.83653" lon="3.46102">
        <ele>170</ele>
        <time>2014-04-15T08:28:55Z</time>
      </trkpt>
      <trkpt lat="47.83649" lon="3.46107">
        <ele>170</ele>
        <time>2014-04-15T08:28:57Z</time>
      </trkpt>
      <trkpt lat="47.83644" lon="3.46111">
        <ele>170</ele>
        <time>2014-04-15T08:28:59Z</time>
      </trkpt>
      <trkpt lat="47.83641" lon="3.46115">
        <ele>170</ele>
        <time>2014-04-15T08:29:03Z</time>
      </trkpt>
      <trkpt lat="47.83636" lon="3.46118">
        <ele>170</ele>
        <time>2014-04-15T08:29:08Z</time>
      </trkpt>
      <trkpt lat="47.8363" lon="3.46122">
        <ele>170</ele>
        <time>2014-04-15T08:29:32Z</time>
      </trkpt>
      <trkpt lat="47.8362" lon="3.46119">
        <ele>170</ele>
        <time>2014-04-15T08:29:44Z</time>
      </trkpt>
      <trkpt lat="47.83616" lon="3.46122">
        <ele>170</ele>
        <time>2014-04-15T08:29:49Z</time>
      </trkpt>
      <trkpt lat="47.83595" lon="3.46128">
        <ele>170</ele>
        <time>2014-04-15T08:30:06Z</time>
      </trkpt>
      <trkpt lat="47.8359" lon="3.46129">
        <ele>170</ele>
        <time>2014-04-15T08:30:10Z</time>
      </trkpt>
      <trkpt lat="47.83585" lon="3.46131">
        <ele>170</ele>
        <time>2014-04-15T08:30:13Z</time>
      </trkpt>
      <trkpt lat="47.83579" lon="3.46133">
        <ele>169</ele>
        <time>2014-04-15T08:30:18Z</time>
      </trkpt>
      <trkpt lat="47.83575" lon="3.4613">
        <ele>169</ele>
        <time>2014-04-15T08:30:21Z</time>
      </trkpt>
      <trkpt lat="47.83571" lon="3.46126">
        <ele>169</ele>
        <time>2014-04-15T08:30:26Z</time>
      </trkpt>
      <trkpt lat="47.83566" lon="3.46126">
        <ele>169</ele>
        <time>2014-04-15T08:30:29Z</time>
      </trkpt>
      <trkpt lat="47.83562" lon="3.46127">
        <ele>169</ele>
        <time>2014-04-15T08:30:32Z</time>
      </trkpt>
      <trkpt lat="47.83557" lon="3.4613">
        <ele>169</ele>
        <time>2014-04-15T08:30:34Z</time>
      </trkpt>
      <trkpt lat="47.83552" lon="3.46131">
        <ele>169</ele>
        <time>2014-04-15T08:30:38Z</time>
      </trkpt>
      <trkpt lat="47.83543" lon="3.46131">
        <ele>169</ele>
        <time>2014-04-15T08:30:48Z</time>
      </trkpt>
      <trkpt lat="47.83538" lon="3.46127">
        <ele>169</ele>
        <time>2014-04-15T08:30:51Z</time>
      </trkpt>
      <trkpt lat="47.83533" lon="3.46124">
        <ele>169</ele>
        <time>2014-04-15T08:30:58Z</time>
      </trkpt>
      <trkpt lat="47.83526" lon="3.46123">
        <ele>169</ele>
        <time>2014-04-15T08:31:01Z</time>
      </trkpt>
      <trkpt lat="47.83521" lon="3.46125">
        <ele>169</ele>
        <time>2014-04-15T08:31:04Z</time>
      </trkpt>
      <trkpt lat="47.83506" lon="3.4613">
        <ele>169</ele>
        <time>2014-04-15T08:31:16Z</time>
      </trkpt>
      <trkpt lat="47.83501" lon="3.4613">
        <ele>169</ele>
        <time>2014-04-15T08:31:19Z</time>
      </trkpt>
      <trkpt lat="47.83496" lon="3.46132">
        <ele>171</ele>
        <time>2014-04-15T08:31:21Z</time>
      </trkpt>
      <trkpt lat="47.83492" lon="3.46134">
        <ele>171</ele>
        <time>2014-04-15T08:31:26Z</time>
      </trkpt>
      <trkpt lat="47.83481" lon="3.46133">
        <ele>171</ele>
        <time>2014-04-15T08:31:39Z</time>
      </trkpt>
      <trkpt lat="47.83467" lon="3.46128">
        <ele>171</ele>
        <time>2014-04-15T08:31:50Z</time>
      </trkpt>
      <trkpt lat="47.83461" lon="3.4613">
        <ele>171</ele>
        <time>2014-04-15T08:31:55Z</time>
      </trkpt>
      <trkpt lat="47.83455" lon="3.46129">
        <ele>171</ele>
        <time>2014-04-15T08:31:58Z</time>
      </trkpt>
      <trkpt lat="47.83446" lon="3.46125">
        <ele>171</ele>
        <time>2014-04-15T08:32:04Z</time>
      </trkpt>
      <trkpt lat="47.83441" lon="3.46122">
        <ele>171</ele>
        <time>2014-04-15T08:32:09Z</time>
      </trkpt>
      <trkpt lat="47.83436" lon="3.46119">
        <ele>171</ele>
        <time>2014-04-15T08:32:12Z</time>
      </trkpt>
      <trkpt lat="47.83431" lon="3.46117">
        <ele>171</ele>
        <time>2014-04-15T08:32:15Z</time>
      </trkpt>
      <trkpt lat="47.83416" lon="3.46118">
        <ele>173</ele>
        <time>2014-04-15T08:32:25Z</time>
      </trkpt>
      <trkpt lat="47.83411" lon="3.46117">
        <ele>173</ele>
        <time>2014-04-15T08:32:31Z</time>
      </trkpt>
      <trkpt lat="47.83401" lon="3.4611">
        <ele>173</ele>
        <time>2014-04-15T08:32:39Z</time>
      </trkpt>
      <trkpt lat="47.83397" lon="3.46108">
        <ele>173</ele>
        <time>2014-04-15T08:32:43Z</time>
      </trkpt>
      <trkpt lat="47.83393" lon="3.46105">
        <ele>173</ele>
        <time>2014-04-15T08:32:48Z</time>
      </trkpt>
      <trkpt lat="47.83387" lon="3.46105">
        <ele>173</ele>
        <time>2014-04-15T08:32:52Z</time>
      </trkpt>
      <trkpt lat="47.83376" lon="3.46103">
        <ele>174</ele>
        <time>2014-04-15T08:33:00Z</time>
      </trkpt>
      <trkpt lat="47.83372" lon="3.46103">
        <ele>174</ele>
        <time>2014-04-15T08:33:27Z</time>
      </trkpt>
      <trkpt lat="47.83362" lon="3.46098">
        <ele>174</ele>
        <time>2014-04-15T08:34:03Z</time>
      </trkpt>
      <trkpt lat="47.83348" lon="3.46092">
        <ele>174</ele>
        <time>2014-04-15T08:34:16Z</time>
      </trkpt>
      <trkpt lat="47.83343" lon="3.46089">
        <ele>174</ele>
        <time>2014-04-15T08:34:21Z</time>
      </trkpt>
      <trkpt lat="47.83338" lon="3.46087">
        <ele>175</ele>
        <time>2014-04-15T08:34:25Z</time>
      </trkpt>
      <trkpt lat="47.83333" lon="3.46086">
        <ele>175</ele>
        <time>2014-04-15T08:34:29Z</time>
      </trkpt>
      <trkpt lat="47.83328" lon="3.46084">
        <ele>175</ele>
        <time>2014-04-15T08:34:33Z</time>
      </trkpt>
      <trkpt lat="47.83318" lon="3.46084">
        <ele>175</ele>
        <time>2014-04-15T08:34:41Z</time>
      </trkpt>
      <trkpt lat="47.83308" lon="3.46079">
        <ele>176</ele>
        <time>2014-04-15T08:35:16Z</time>
      </trkpt>
      <trkpt lat="47.83303" lon="3.46078">
        <ele>176</ele>
        <time>2014-04-15T08:35:19Z</time>
      </trkpt>
      <trkpt lat="47.83299" lon="3.46077">
        <ele>176</ele>
        <time>2014-04-15T08:35:22Z</time>
      </trkpt>
      <trkpt lat="47.83294" lon="3.46078">
        <ele>176</ele>
        <time>2014-04-15T08:35:26Z</time>
      </trkpt>
      <trkpt lat="47.83289" lon="3.46076">
        <ele>176</ele>
        <time>2014-04-15T08:35:30Z</time>
      </trkpt>
      <trkpt lat="47.83284" lon="3.46076">
        <ele>176</ele>
        <time>2014-04-15T08:35:35Z</time>
      </trkpt>
      <trkpt lat="47.83279" lon="3.46074">
        <ele>176</ele>
        <time>2014-04-15T08:35:39Z</time>
      </trkpt>
      <trkpt lat="47.83275" lon="3.4607">
        <ele>176</ele>
        <time>2014-04-15T08:35:42Z</time>
      </trkpt>
      <trkpt lat="47.83274" lon="3.46067">
        <ele>176</ele>
        <time>2014-04-15T08:35:48Z</time>
      </trkpt>
      <trkpt lat="47.83275" lon="3.46078">
        <ele>176</ele>
        <time>2014-04-15T08:37:17Z</time>
      </trkpt>
      <trkpt lat="47.83273" lon="3.46079">
        <ele>176</ele>
        <time>2014-04-15T08:37:32Z</time>
      </trkpt>
      <trkpt lat="47.83269" lon="3.46075">
        <ele>176</ele>
        <time>2014-04-15T08:37:42Z</time>
      </trkpt>
      <trkpt lat="47.83264" lon="3.46073">
        <ele>176</ele>
        <time>2014-04-15T08:37:48Z</time>
      </trkpt>
      <trkpt lat="47.83258" lon="3.46066">
        <ele>176</ele>
        <time>2014-04-15T08:37:59Z</time>
      </trkpt>
      <trkpt lat="47.83253" lon="3.46066">
        <ele>176</ele>
        <time>2014-04-15T08:38:02Z</time>
      </trkpt>
      <trkpt lat="47.83248" lon="3.46065">
        <ele>176</ele>
        <time>2014-04-15T08:38:05Z</time>
      </trkpt>
      <trkpt lat="47.83243" lon="3.46064">
        <ele>176</ele>
        <time>2014-04-15T08:38:07Z</time>
      </trkpt>
      <trkpt lat="47.83238" lon="3.4606">
        <ele>177</ele>
        <time>2014-04-15T08:38:13Z</time>
      </trkpt>
      <trkpt lat="47.83233" lon="3.46061">
        <ele>177</ele>
        <time>2014-04-15T08:38:17Z</time>
      </trkpt>
      <trkpt lat="47.8323" lon="3.46056">
        <ele>177</ele>
        <time>2014-04-15T08:38:19Z</time>
      </trkpt>
      <trkpt lat="47.83229" lon="3.46049">
        <ele>177</ele>
        <time>2014-04-15T08:38:24Z</time>
      </trkpt>
      <trkpt lat="47.83222" lon="3.46022">
        <ele>177</ele>
        <time>2014-04-15T08:38:43Z</time>
      </trkpt>
      <trkpt lat="47.83217" lon="3.46015">
        <ele>177</ele>
        <time>2014-04-15T08:38:58Z</time>
      </trkpt>
      <trkpt lat="47.83214" lon="3.46009">
        <ele>177</ele>
        <time>2014-04-15T08:39:02Z</time>
      </trkpt>
      <trkpt lat="47.83205" lon="3.46001">
        <ele>177</ele>
        <time>2014-04-15T08:39:07Z</time>
      </trkpt>
      <trkpt lat="47.832" lon="3.45997">
        <ele>177</ele>
        <time>2014-04-15T08:39:13Z</time>
      </trkpt>
      <trkpt lat="47.83195" lon="3.45995">
        <ele>177</ele>
        <time>2014-04-15T08:39:17Z</time>
      </trkpt>
      <trkpt lat="47.83181" lon="3.45993">
        <ele>177</ele>
        <time>2014-04-15T08:39:26Z</time>
      </trkpt>
      <trkpt lat="47.83175" lon="3.45993">
        <ele>177</ele>
        <time>2014-04-15T08:39:30Z</time>
      </trkpt>
      <trkpt lat="47.83171" lon="3.45991">
        <ele>177</ele>
        <time>2014-04-15T08:39:35Z</time>
      </trkpt>
      <trkpt lat="47.83161" lon="3.45984">
        <ele>177</ele>
        <time>2014-04-15T08:39:43Z</time>
      </trkpt>
      <trkpt lat="47.83158" lon="3.45979">
        <ele>177</ele>
        <time>2014-04-15T08:39:49Z</time>
      </trkpt>
      <trkpt lat="47.83143" lon="3.4597">
        <ele>177</ele>
        <time>2014-04-15T08:40:46Z</time>
      </trkpt>
      <trkpt lat="47.83137" lon="3.45969">
        <ele>177</ele>
        <time>2014-04-15T08:40:50Z</time>
      </trkpt>
      <trkpt lat="47.83127" lon="3.45963">
        <ele>177</ele>
        <time>2014-04-15T08:40:55Z</time>
      </trkpt>
      <trkpt lat="47.83122" lon="3.4596">
        <ele>177</ele>
        <time>2014-04-15T08:41:00Z</time>
      </trkpt>
      <trkpt lat="47.83117" lon="3.45957">
        <ele>177</ele>
        <time>2014-04-15T08:41:04Z</time>
      </trkpt>
      <trkpt lat="47.83113" lon="3.45956">
        <ele>177</ele>
        <time>2014-04-15T08:41:08Z</time>
      </trkpt>
      <trkpt lat="47.83108" lon="3.45954">
        <ele>177</ele>
        <time>2014-04-15T08:41:13Z</time>
      </trkpt>
      <trkpt lat="47.83104" lon="3.45949">
        <ele>177</ele>
        <time>2014-04-15T08:41:18Z</time>
      </trkpt>
      <trkpt lat="47.83099" lon="3.45946">
        <ele>177</ele>
        <time>2014-04-15T08:41:22Z</time>
      </trkpt>
      <trkpt lat="47.83094" lon="3.45945">
        <ele>177</ele>
        <time>2014-04-15T08:41:25Z</time>
      </trkpt>
      <trkpt lat="47.8309" lon="3.45943">
        <ele>177</ele>
        <time>2014-04-15T08:41:29Z</time>
      </trkpt>
      <trkpt lat="47.8308" lon="3.45941">
        <ele>177</ele>
        <time>2014-04-15T08:41:35Z</time>
      </trkpt>
      <trkpt lat="47.83076" lon="3.45938">
        <ele>177</ele>
        <time>2014-04-15T08:41:38Z</time>
      </trkpt>
      <trkpt lat="47.83071" lon="3.45935">
        <ele>177</ele>
        <time>2014-04-15T08:41:42Z</time>
      </trkpt>
      <trkpt lat="47.83066" lon="3.45934">
        <ele>177</ele>
        <time>2014-04-15T08:41:48Z</time>
      </trkpt>
      <trkpt lat="47.83062" lon="3.4593">
        <ele>177</ele>
        <time>2014-04-15T08:41:53Z</time>
      </trkpt>
      <trkpt lat="47.83036" lon="3.45921">
        <ele>177</ele>
        <time>2014-04-15T08:42:09Z</time>
      </trkpt>
      <trkpt lat="47.83033" lon="3.45915">
        <ele>178</ele>
        <time>2014-04-15T08:42:13Z</time>
      </trkpt>
      <trkpt lat="47.83028" lon="3.45915">
        <ele>178</ele>
        <time>2014-04-15T08:42:19Z</time>
      </trkpt>
      <trkpt lat="47.83008" lon="3.45912">
        <ele>178</ele>
        <time>2014-04-15T08:42:38Z</time>
      </trkpt>
      <trkpt lat="47.82993" lon="3.45905">
        <ele>178</ele>
        <time>2014-04-15T08:43:00Z</time>
      </trkpt>
      <trkpt lat="47.82989" lon="3.45904">
        <ele>178</ele>
        <time>2014-04-15T08:43:03Z</time>
      </trkpt>
      <trkpt lat="47.8298" lon="3.45898">
        <ele>178</ele>
        <time>2014-04-15T08:43:14Z</time>
      </trkpt>
      <trkpt lat="47.82974" lon="3.45895">
        <ele>178</ele>
        <time>2014-04-15T08:43:18Z</time>
      </trkpt>
      <trkpt lat="47.82955" lon="3.45888">
        <ele>178</ele>
        <time>2014-04-15T08:43:33Z</time>
      </trkpt>
      <trkpt lat="47.82951" lon="3.45884">
        <ele>178</ele>
        <time>2014-04-15T08:43:37Z</time>
      </trkpt>
      <trkpt lat="47.82947" lon="3.45884">
        <ele>178</ele>
        <time>2014-04-15T08:43:43Z</time>
      </trkpt>
      <trkpt lat="47.82942" lon="3.45881">
        <ele>178</ele>
        <time>2014-04-15T08:43:47Z</time>
      </trkpt>
      <trkpt lat="47.82931" lon="3.45876">
        <ele>178</ele>
        <time>2014-04-15T08:43:53Z</time>
      </trkpt>
      <trkpt lat="47.82922" lon="3.45869">
        <ele>178</ele>
        <time>2014-04-15T08:44:03Z</time>
      </trkpt>
      <trkpt lat="47.82913" lon="3.45866">
        <ele>177</ele>
        <time>2014-04-15T08:44:18Z</time>
      </trkpt>
      <trkpt lat="47.82909" lon="3.4586">
        <ele>177</ele>
        <time>2014-04-15T08:44:21Z</time>
      </trkpt>
      <trkpt lat="47.82905" lon="3.45857">
        <ele>177</ele>
        <time>2014-04-15T08:44:24Z</time>
      </trkpt>
      <trkpt lat="47.829" lon="3.45854">
        <ele>177</ele>
        <time>2014-04-15T08:44:28Z</time>
      </trkpt>
      <trkpt lat="47.82896" lon="3.45851">
        <ele>177</ele>
        <time>2014-04-15T08:44:31Z</time>
      </trkpt>
      <trkpt lat="47.82893" lon="3.45845">
        <ele>177</ele>
        <time>2014-04-15T08:44:35Z</time>
      </trkpt>
      <trkpt lat="47.82887" lon="3.45841">
        <ele>177</ele>
        <time>2014-04-15T08:44:40Z</time>
      </trkpt>
      <trkpt lat="47.82882" lon="3.45838">
        <ele>177</ele>
        <time>2014-04-15T08:44:43Z</time>
      </trkpt>
      <trkpt lat="47.82878" lon="3.45834">
        <ele>177</ele>
        <time>2014-04-15T08:44:51Z</time>
      </trkpt>
      <trkpt lat="47.82874" lon="3.45829">
        <ele>178</ele>
        <time>2014-04-15T08:44:55Z</time>
      </trkpt>
      <trkpt lat="47.8287" lon="3.45824">
        <ele>178</ele>
        <time>2014-04-15T08:44:58Z</time>
      </trkpt>
      <trkpt lat="47.82866" lon="3.45821">
        <ele>178</ele>
        <time>2014-04-15T08:45:03Z</time>
      </trkpt>
      <trkpt lat="47.82861" lon="3.45819">
        <ele>178</ele>
        <time>2014-04-15T08:45:08Z</time>
      </trkpt>
      <trkpt lat="47.82856" lon="3.45816">
        <ele>178</ele>
        <time>2014-04-15T08:45:13Z</time>
      </trkpt>
      <trkpt lat="47.82852" lon="3.45812">
        <ele>178</ele>
        <time>2014-04-15T08:45:18Z</time>
      </trkpt>
      <trkpt lat="47.82848" lon="3.45806">
        <ele>178</ele>
        <time>2014-04-15T08:45:22Z</time>
      </trkpt>
      <trkpt lat="47.82844" lon="3.45803">
        <ele>178</ele>
        <time>2014-04-15T08:45:26Z</time>
      </trkpt>
      <trkpt lat="47.82839" lon="3.458">
        <ele>178</ele>
        <time>2014-04-15T08:45:29Z</time>
      </trkpt>
      <trkpt lat="47.82831" lon="3.45792">
        <ele>177</ele>
        <time>2014-04-15T08:45:36Z</time>
      </trkpt>
      <trkpt lat="47.82826" lon="3.45791">
        <ele>177</ele>
        <time>2014-04-15T08:45:41Z</time>
      </trkpt>
      <trkpt lat="47.82821" lon="3.45788">
        <ele>177</ele>
        <time>2014-04-15T08:45:44Z</time>
      </trkpt>
      <trkpt lat="47.82817" lon="3.45784">
        <ele>177</ele>
        <time>2014-04-15T08:45:48Z</time>
      </trkpt>
      <trkpt lat="47.82812" lon="3.4578">
        <ele>177</ele>
        <time>2014-04-15T08:45:52Z</time>
      </trkpt>
      <trkpt lat="47.82802" lon="3.45775">
        <ele>177</ele>
        <time>2014-04-15T08:46:01Z</time>
      </trkpt>
      <trkpt lat="47.82798" lon="3.45773">
        <ele>177</ele>
        <time>2014-04-15T08:46:06Z</time>
      </trkpt>
      <trkpt lat="47.82779" lon="3.45758">
        <ele>177</ele>
        <time>2014-04-15T08:46:20Z</time>
      </trkpt>
      <trkpt lat="47.82775" lon="3.45756">
        <ele>177</ele>
        <time>2014-04-15T08:46:24Z</time>
      </trkpt>
      <trkpt lat="47.8277" lon="3.45752">
        <ele>177</ele>
        <time>2014-04-15T08:46:30Z</time>
      </trkpt>
      <trkpt lat="47.82762" lon="3.45741">
        <ele>178</ele>
        <time>2014-04-15T08:46:38Z</time>
      </trkpt>
      <trkpt lat="47.82753" lon="3.45732">
        <ele>179</ele>
        <time>2014-04-15T08:46:44Z</time>
      </trkpt>
      <trkpt lat="47.82749" lon="3.45729">
        <ele>177</ele>
        <time>2014-04-15T08:46:47Z</time>
      </trkpt>
      <trkpt lat="47.82744" lon="3.45727">
        <ele>177</ele>
        <time>2014-04-15T08:46:54Z</time>
      </trkpt>
      <trkpt lat="47.8274" lon="3.45723">
        <ele>178</ele>
        <time>2014-04-15T08:46:57Z</time>
      </trkpt>
      <trkpt lat="47.82734" lon="3.45721">
        <ele>178</ele>
        <time>2014-04-15T08:47:02Z</time>
      </trkpt>
      <trkpt lat="47.82726" lon="3.45715">
        <ele>178</ele>
        <time>2014-04-15T08:47:08Z</time>
      </trkpt>
      <trkpt lat="47.82722" lon="3.45709">
        <ele>178</ele>
        <time>2014-04-15T08:47:13Z</time>
      </trkpt>
      <trkpt lat="47.82717" lon="3.45707">
        <ele>178</ele>
        <time>2014-04-15T08:47:16Z</time>
      </trkpt>
      <trkpt lat="47.82713" lon="3.45701">
        <ele>178</ele>
        <time>2014-04-15T08:47:21Z</time>
      </trkpt>
      <trkpt lat="47.82708" lon="3.45699">
        <ele>178</ele>
        <time>2014-04-15T08:47:26Z</time>
      </trkpt>
      <trkpt lat="47.82702" lon="3.45698">
        <ele>178</ele>
        <time>2014-04-15T08:47:31Z</time>
      </trkpt>
      <trkpt lat="47.82697" lon="3.45695">
        <ele>178</ele>
        <time>2014-04-15T08:47:35Z</time>
      </trkpt>
      <trkpt lat="47.82692" lon="3.4569">
        <ele>178</ele>
        <time>2014-04-15T08:47:38Z</time>
      </trkpt>
      <trkpt lat="47.82687" lon="3.45686">
        <ele>178</ele>
        <time>2014-04-15T08:47:42Z</time>
      </trkpt>
      <trkpt lat="47.82683" lon="3.45682">
        <ele>178</ele>
        <time>2014-04-15T08:47:46Z</time>
      </trkpt>
      <trkpt lat="47.82679" lon="3.45678">
        <ele>178</ele>
        <time>2014-04-15T08:47:50Z</time>
      </trkpt>
      <trkpt lat="47.82676" lon="3.45674">
        <ele>178</ele>
        <time>2014-04-15T08:47:54Z</time>
      </trkpt>
      <trkpt lat="47.82672" lon="3.45669">
        <ele>178</ele>
        <time>2014-04-15T08:48:00Z</time>
      </trkpt>
      <trkpt lat="47.82651" lon="3.45658">
        <ele>179</ele>
        <time>2014-04-15T08:48:15Z</time>
      </trkpt>
      <trkpt lat="47.82647" lon="3.45652">
        <ele>179</ele>
        <time>2014-04-15T08:48:19Z</time>
      </trkpt>
      <trkpt lat="47.82642" lon="3.45648">
        <ele>179</ele>
        <time>2014-04-15T08:48:24Z</time>
      </trkpt>
      <trkpt lat="47.82631" lon="3.45672">
        <ele>176</ele>
        <time>2014-04-15T08:48:26Z</time>
      </trkpt>
      <trkpt lat="47.82631" lon="3.45664">
        <ele>179</ele>
        <time>2014-04-15T08:48:28Z</time>
      </trkpt>
      <trkpt lat="47.82625" lon="3.45651">
        <ele>179</ele>
        <time>2014-04-15T08:48:35Z</time>
      </trkpt>
      <trkpt lat="47.8262" lon="3.45646">
        <ele>179</ele>
        <time>2014-04-15T08:48:39Z</time>
      </trkpt>
      <trkpt lat="47.82618" lon="3.45641">
        <ele>179</ele>
        <time>2014-04-15T08:48:43Z</time>
      </trkpt>
      <trkpt lat="47.82618" lon="3.45625">
        <ele>180</ele>
        <time>2014-04-15T08:48:50Z</time>
      </trkpt>
      <trkpt lat="47.8262" lon="3.45617">
        <ele>180</ele>
        <time>2014-04-15T08:48:54Z</time>
      </trkpt>
      <trkpt lat="47.82618" lon="3.456">
        <ele>180</ele>
        <time>2014-04-15T08:49:02Z</time>
      </trkpt>
      <trkpt lat="47.82625" lon="3.45599">
        <ele>180</ele>
        <time>2014-04-15T08:50:24Z</time>
      </trkpt>
      <trkpt lat="47.82625" lon="3.45615">
        <ele>180</ele>
        <time>2014-04-15T08:50:31Z</time>
      </trkpt>
      <trkpt lat="47.82626" lon="3.45621">
        <ele>180</ele>
        <time>2014-04-15T08:50:35Z</time>
      </trkpt>
      <trkpt lat="47.82629" lon="3.45626">
        <ele>179</ele>
        <time>2014-04-15T08:50:39Z</time>
      </trkpt>
      <trkpt lat="47.82633" lon="3.4563">
        <ele>179</ele>
        <time>2014-04-15T08:50:42Z</time>
      </trkpt>
      <trkpt lat="47.82638" lon="3.45634">
        <ele>179</ele>
        <time>2014-04-15T08:50:46Z</time>
      </trkpt>
      <trkpt lat="47.82643" lon="3.45636">
        <ele>179</ele>
        <time>2014-04-15T08:50:50Z</time>
      </trkpt>
      <trkpt lat="47.82648" lon="3.4564">
        <ele>179</ele>
        <time>2014-04-15T08:50:54Z</time>
      </trkpt>
      <trkpt lat="47.82652" lon="3.45642">
        <ele>179</ele>
        <time>2014-04-15T08:50:58Z</time>
      </trkpt>
      <trkpt lat="47.82658" lon="3.45644">
        <ele>179</ele>
        <time>2014-04-15T08:51:02Z</time>
      </trkpt>
      <trkpt lat="47.82663" lon="3.45648">
        <ele>179</ele>
        <time>2014-04-15T08:51:07Z</time>
      </trkpt>
      <trkpt lat="47.82666" lon="3.45654">
        <ele>179</ele>
        <time>2014-04-15T08:51:10Z</time>
      </trkpt>
      <trkpt lat="47.82675" lon="3.45661">
        <ele>179</ele>
        <time>2014-04-15T08:51:20Z</time>
      </trkpt>
      <trkpt lat="47.82686" lon="3.45677">
        <ele>178</ele>
        <time>2014-04-15T08:51:31Z</time>
      </trkpt>
      <trkpt lat="47.8269" lon="3.45681">
        <ele>178</ele>
        <time>2014-04-15T08:51:35Z</time>
      </trkpt>
      <trkpt lat="47.82695" lon="3.45681">
        <ele>178</ele>
        <time>2014-04-15T08:51:38Z</time>
      </trkpt>
      <trkpt lat="47.827" lon="3.45685">
        <ele>178</ele>
        <time>2014-04-15T08:51:42Z</time>
      </trkpt>
      <trkpt lat="47.82704" lon="3.45691">
        <ele>178</ele>
        <time>2014-04-15T08:51:45Z</time>
      </trkpt>
      <trkpt lat="47.82708" lon="3.45696">
        <ele>178</ele>
        <time>2014-04-15T08:51:50Z</time>
      </trkpt>
      <trkpt lat="47.82713" lon="3.45699">
        <ele>178</ele>
        <time>2014-04-15T08:51:55Z</time>
      </trkpt>
      <trkpt lat="47.82717" lon="3.45705">
        <ele>178</ele>
        <time>2014-04-15T08:51:59Z</time>
      </trkpt>
      <trkpt lat="47.82719" lon="3.45712">
        <ele>178</ele>
        <time>2014-04-15T08:52:03Z</time>
      </trkpt>
      <trkpt lat="47.82729" lon="3.45714">
        <ele>178</ele>
        <time>2014-04-15T08:52:11Z</time>
      </trkpt>
      <trkpt lat="47.82737" lon="3.45722">
        <ele>178</ele>
        <time>2014-04-15T08:52:19Z</time>
      </trkpt>
      <trkpt lat="47.82768" lon="3.4574">
        <ele>179</ele>
        <time>2014-04-15T08:52:53Z</time>
      </trkpt>
      <trkpt lat="47.82782" lon="3.45752">
        <ele>177</ele>
        <time>2014-04-15T08:53:06Z</time>
      </trkpt>
      <trkpt lat="47.82786" lon="3.45754">
        <ele>177</ele>
        <time>2014-04-15T08:53:08Z</time>
      </trkpt>
      <trkpt lat="47.82793" lon="3.45764">
        <ele>177</ele>
        <time>2014-04-15T08:53:17Z</time>
      </trkpt>
      <trkpt lat="47.82798" lon="3.45767">
        <ele>177</ele>
        <time>2014-04-15T08:53:20Z</time>
      </trkpt>
      <trkpt lat="47.82802" lon="3.45772">
        <ele>177</ele>
        <time>2014-04-15T08:53:26Z</time>
      </trkpt>
      <trkpt lat="47.82806" lon="3.45775">
        <ele>177</ele>
        <time>2014-04-15T08:53:30Z</time>
      </trkpt>
      <trkpt lat="47.82811" lon="3.45777">
        <ele>177</ele>
        <time>2014-04-15T08:53:34Z</time>
      </trkpt>
      <trkpt lat="47.82815" lon="3.45783">
        <ele>177</ele>
        <time>2014-04-15T08:53:38Z</time>
      </trkpt>
      <trkpt lat="47.82817" lon="3.4579">
        <ele>177</ele>
        <time>2014-04-15T08:53:46Z</time>
      </trkpt>
      <trkpt lat="47.8282" lon="3.4579">
        <ele>177</ele>
        <time>2014-04-15T08:53:53Z</time>
      </trkpt>
      <trkpt lat="47.82829" lon="3.45794">
        <ele>177</ele>
        <time>2014-04-15T08:54:10Z</time>
      </trkpt>
      <trkpt lat="47.82839" lon="3.45802">
        <ele>178</ele>
        <time>2014-04-15T08:54:41Z</time>
      </trkpt>
      <trkpt lat="47.82844" lon="3.45803">
        <ele>178</ele>
        <time>2014-04-15T08:54:45Z</time>
      </trkpt>
      <trkpt lat="47.82848" lon="3.45807">
        <ele>178</ele>
        <time>2014-04-15T08:54:49Z</time>
      </trkpt>
      <trkpt lat="47.82854" lon="3.45816">
        <ele>178</ele>
        <time>2014-04-15T08:55:00Z</time>
      </trkpt>
      <trkpt lat="47.82859" lon="3.45802">
        <ele>178</ele>
        <time>2014-04-15T08:55:06Z</time>
      </trkpt>
      <trkpt lat="47.82862" lon="3.45796">
        <ele>179</ele>
        <time>2014-04-15T08:55:11Z</time>
      </trkpt>
      <trkpt lat="47.82866" lon="3.45791">
        <ele>179</ele>
        <time>2014-04-15T08:55:15Z</time>
      </trkpt>
      <trkpt lat="47.82858" lon="3.45808">
        <ele>178</ele>
        <time>2014-04-15T08:57:37Z</time>
      </trkpt>
      <trkpt lat="47.82858" lon="3.45816">
        <ele>178</ele>
        <time>2014-04-15T08:57:41Z</time>
      </trkpt>
      <trkpt lat="47.82859" lon="3.45821">
        <ele>178</ele>
        <time>2014-04-15T08:58:03Z</time>
      </trkpt>
      <trkpt lat="47.82853" lon="3.45825">
        <ele>178</ele>
        <time>2014-04-15T08:58:08Z</time>
      </trkpt>
      <trkpt lat="47.82848" lon="3.45823">
        <ele>177</ele>
        <time>2014-04-15T08:58:14Z</time>
      </trkpt>
      <trkpt lat="47.82848" lon="3.45816">
        <ele>178</ele>
        <time>2014-04-15T08:58:18Z</time>
      </trkpt>
      <trkpt lat="47.82845" lon="3.4581">
        <ele>178</ele>
        <time>2014-04-15T08:58:23Z</time>
      </trkpt>
      <trkpt lat="47.8284" lon="3.45809">
        <ele>178</ele>
        <time>2014-04-15T08:58:27Z</time>
      </trkpt>
      <trkpt lat="47.82835" lon="3.45807">
        <ele>178</ele>
        <time>2014-04-15T08:58:31Z</time>
      </trkpt>
      <trkpt lat="47.82831" lon="3.45803">
        <ele>177</ele>
        <time>2014-04-15T08:58:37Z</time>
      </trkpt>
      <trkpt lat="47.82827" lon="3.45799">
        <ele>177</ele>
        <time>2014-04-15T08:58:42Z</time>
      </trkpt>
      <trkpt lat="47.82822" lon="3.45797">
        <ele>177</ele>
        <time>2014-04-15T08:58:45Z</time>
      </trkpt>
      <trkpt lat="47.82817" lon="3.45794">
        <ele>177</ele>
        <time>2014-04-15T08:58:50Z</time>
      </trkpt>
      <trkpt lat="47.828" lon="3.45777">
        <ele>177</ele>
        <time>2014-04-15T08:59:02Z</time>
      </trkpt>
      <trkpt lat="47.82795" lon="3.45773">
        <ele>177</ele>
        <time>2014-04-15T08:59:08Z</time>
      </trkpt>
      <trkpt lat="47.82784" lon="3.45762">
        <ele>177</ele>
        <time>2014-04-15T08:59:20Z</time>
      </trkpt>
      <trkpt lat="47.82773" lon="3.45756">
        <ele>177</ele>
        <time>2014-04-15T08:59:27Z</time>
      </trkpt>
      <trkpt lat="47.82764" lon="3.45748">
        <ele>178</ele>
        <time>2014-04-15T08:59:34Z</time>
      </trkpt>
      <trkpt lat="47.82755" lon="3.45738">
        <ele>178</ele>
        <time>2014-04-15T08:59:39Z</time>
      </trkpt>
      <trkpt lat="47.82741" lon="3.45726">
        <ele>177</ele>
        <time>2014-04-15T08:59:54Z</time>
      </trkpt>
      <trkpt lat="47.82737" lon="3.45723">
        <ele>178</ele>
        <time>2014-04-15T09:00:00Z</time>
      </trkpt>
      <trkpt lat="47.82728" lon="3.45717">
        <ele>178</ele>
        <time>2014-04-15T09:00:09Z</time>
      </trkpt>
      <trkpt lat="47.82723" lon="3.45712">
        <ele>178</ele>
        <time>2014-04-15T09:00:14Z</time>
      </trkpt>
      <trkpt lat="47.82711" lon="3.45695">
        <ele>178</ele>
        <time>2014-04-15T09:00:23Z</time>
      </trkpt>
      <trkpt lat="47.82706" lon="3.45691">
        <ele>178</ele>
        <time>2014-04-15T09:00:27Z</time>
      </trkpt>
      <trkpt lat="47.82691" lon="3.45683">
        <ele>178</ele>
        <time>2014-04-15T09:00:40Z</time>
      </trkpt>
      <trkpt lat="47.82677" lon="3.45672">
        <ele>178</ele>
        <time>2014-04-15T09:00:52Z</time>
      </trkpt>
      <trkpt lat="47.8267" lon="3.45662">
        <ele>179</ele>
        <time>2014-04-15T09:01:02Z</time>
      </trkpt>
      <trkpt lat="47.82667" lon="3.45656">
        <ele>179</ele>
        <time>2014-04-15T09:01:06Z</time>
      </trkpt>
      <trkpt lat="47.82663" lon="3.45654">
        <ele>179</ele>
        <time>2014-04-15T09:01:10Z</time>
      </trkpt>
      <trkpt lat="47.82649" lon="3.45642">
        <ele>179</ele>
        <time>2014-04-15T09:01:17Z</time>
      </trkpt>
      <trkpt lat="47.82645" lon="3.45638">
        <ele>179</ele>
        <time>2014-04-15T09:01:21Z</time>
      </trkpt>
      <trkpt lat="47.8264" lon="3.45634">
        <ele>179</ele>
        <time>2014-04-15T09:01:25Z</time>
      </trkpt>
      <trkpt lat="47.82635" lon="3.45632">
        <ele>179</ele>
        <time>2014-04-15T09:01:29Z</time>
      </trkpt>
      <trkpt lat="47.8263" lon="3.45631">
        <ele>179</ele>
        <time>2014-04-15T09:01:36Z</time>
      </trkpt>
      <trkpt lat="47.82621" lon="3.45621">
        <ele>180</ele>
        <time>2014-04-15T09:01:44Z</time>
      </trkpt>
      <trkpt lat="47.82616" lon="3.45618">
        <ele>180</ele>
        <time>2014-04-15T09:01:47Z</time>
      </trkpt>
      <trkpt lat="47.82611" lon="3.45618">
        <ele>180</ele>
        <time>2014-04-15T09:01:51Z</time>
      </trkpt>
      <trkpt lat="47.82606" lon="3.4562">
        <ele>180</ele>
        <time>2014-04-15T09:01:55Z</time>
      </trkpt>
      <trkpt lat="47.82601" lon="3.45622">
        <ele>180</ele>
        <time>2014-04-15T09:01:59Z</time>
      </trkpt>
      <trkpt lat="47.82596" lon="3.45629">
        <ele>179</ele>
        <time>2014-04-15T09:02:03Z</time>
      </trkpt>
      <trkpt lat="47.82592" lon="3.45634">
        <ele>179</ele>
        <time>2014-04-15T09:02:06Z</time>
      </trkpt>
      <trkpt lat="47.82588" lon="3.45638">
        <ele>179</ele>
        <time>2014-04-15T09:02:10Z</time>
      </trkpt>
      <trkpt lat="47.82576" lon="3.45655">
        <ele>179</ele>
        <time>2014-04-15T09:02:22Z</time>
      </trkpt>
      <trkpt lat="47.82561" lon="3.45686">
        <ele>178</ele>
        <time>2014-04-15T09:02:41Z</time>
      </trkpt>
      <trkpt lat="47.82557" lon="3.45716">
        <ele>177</ele>
        <time>2014-04-15T09:02:58Z</time>
      </trkpt>
      <trkpt lat="47.82556" lon="3.45723">
        <ele>177</ele>
        <time>2014-04-15T09:03:04Z</time>
      </trkpt>
      <trkpt lat="47.82552" lon="3.45738">
        <ele>177</ele>
        <time>2014-04-15T09:03:12Z</time>
      </trkpt>
      <trkpt lat="47.82551" lon="3.45752">
        <ele>176</ele>
        <time>2014-04-15T09:03:20Z</time>
      </trkpt>
      <trkpt lat="47.82552" lon="3.45769">
        <ele>176</ele>
        <time>2014-04-15T09:03:29Z</time>
      </trkpt>
      <trkpt lat="47.82545" lon="3.45797">
        <ele>176</ele>
        <time>2014-04-15T09:03:44Z</time>
      </trkpt>
      <trkpt lat="47.82542" lon="3.45805">
        <ele>176</ele>
        <time>2014-04-15T09:03:50Z</time>
      </trkpt>
      <trkpt lat="47.82539" lon="3.4582">
        <ele>176</ele>
        <time>2014-04-15T09:03:58Z</time>
      </trkpt>
      <trkpt lat="47.82538" lon="3.45827">
        <ele>176</ele>
        <time>2014-04-15T09:04:00Z</time>
      </trkpt>
      <trkpt lat="47.82536" lon="3.4584">
        <ele>175</ele>
        <time>2014-04-15T09:04:07Z</time>
      </trkpt>
      <trkpt lat="47.82542" lon="3.45877">
        <ele>175</ele>
        <time>2014-04-15T09:04:29Z</time>
      </trkpt>
      <trkpt lat="47.82543" lon="3.45884">
        <ele>175</ele>
        <time>2014-04-15T09:04:33Z</time>
      </trkpt>
      <trkpt lat="47.82543" lon="3.45892">
        <ele>175</ele>
        <time>2014-04-15T09:04:37Z</time>
      </trkpt>
      <trkpt lat="47.82541" lon="3.45898">
        <ele>175</ele>
        <time>2014-04-15T09:04:39Z</time>
      </trkpt>
      <trkpt lat="47.82539" lon="3.45921">
        <ele>175</ele>
        <time>2014-04-15T09:04:50Z</time>
      </trkpt>
      <trkpt lat="47.82535" lon="3.45929">
        <ele>175</ele>
        <time>2014-04-15T09:04:54Z</time>
      </trkpt>
      <trkpt lat="47.82537" lon="3.45935">
        <ele>175</ele>
        <time>2014-04-15T09:04:58Z</time>
      </trkpt>
      <trkpt lat="47.82536" lon="3.45947">
        <ele>174</ele>
        <time>2014-04-15T09:05:06Z</time>
      </trkpt>
      <trkpt lat="47.82533" lon="3.45954">
        <ele>174</ele>
        <time>2014-04-15T09:05:10Z</time>
      </trkpt>
      <trkpt lat="47.82532" lon="3.45961">
        <ele>174</ele>
        <time>2014-04-15T09:05:14Z</time>
      </trkpt>
      <trkpt lat="47.82533" lon="3.45969">
        <ele>174</ele>
        <time>2014-04-15T09:05:19Z</time>
      </trkpt>
      <trkpt lat="47.82532" lon="3.4599">
        <ele>174</ele>
        <time>2014-04-15T09:05:30Z</time>
      </trkpt>
      <trkpt lat="47.82534" lon="3.45997">
        <ele>174</ele>
        <time>2014-04-15T09:05:34Z</time>
      </trkpt>
      <trkpt lat="47.82533" lon="3.46005">
        <ele>172</ele>
        <time>2014-04-15T09:05:36Z</time>
      </trkpt>
      <trkpt lat="47.82531" lon="3.46011">
        <ele>172</ele>
        <time>2014-04-15T09:05:40Z</time>
      </trkpt>
      <trkpt lat="47.82521" lon="3.46019">
        <ele>173</ele>
        <time>2014-04-15T09:05:45Z</time>
      </trkpt>
      <trkpt lat="47.82519" lon="3.46025">
        <ele>172</ele>
        <time>2014-04-15T09:05:48Z</time>
      </trkpt>
      <trkpt lat="47.82519" lon="3.46033">
        <ele>172</ele>
        <time>2014-04-15T09:05:52Z</time>
      </trkpt>
      <trkpt lat="47.82515" lon="3.46047">
        <ele>172</ele>
        <time>2014-04-15T09:06:01Z</time>
      </trkpt>
      <trkpt lat="47.82515" lon="3.46054">
        <ele>172</ele>
        <time>2014-04-15T09:06:04Z</time>
      </trkpt>
      <trkpt lat="47.82517" lon="3.46063">
        <ele>172</ele>
        <time>2014-04-15T09:06:08Z</time>
      </trkpt>
      <trkpt lat="47.82517" lon="3.4607">
        <ele>172</ele>
        <time>2014-04-15T09:06:13Z</time>
      </trkpt>
      <trkpt lat="47.82517" lon="3.46079">
        <ele>172</ele>
        <time>2014-04-15T09:06:17Z</time>
      </trkpt>
      <trkpt lat="47.82508" lon="3.46128">
        <ele>169</ele>
        <time>2014-04-15T09:06:48Z</time>
      </trkpt>
      <trkpt lat="47.82507" lon="3.46143">
        <ele>169</ele>
        <time>2014-04-15T09:07:00Z</time>
      </trkpt>
      <trkpt lat="47.82501" lon="3.46176">
        <ele>169</ele>
        <time>2014-04-15T09:07:14Z</time>
      </trkpt>
      <trkpt lat="47.82498" lon="3.46185">
        <ele>170</ele>
        <time>2014-04-15T09:07:18Z</time>
      </trkpt>
      <trkpt lat="47.82497" lon="3.46192">
        <ele>169</ele>
        <time>2014-04-15T09:07:20Z</time>
      </trkpt>
      <trkpt lat="47.82496" lon="3.46199">
        <ele>169</ele>
        <time>2014-04-15T09:07:25Z</time>
      </trkpt>
      <trkpt lat="47.82499" lon="3.46205">
        <ele>169</ele>
        <time>2014-04-15T09:07:28Z</time>
      </trkpt>
      <trkpt lat="47.82493" lon="3.46216">
        <ele>169</ele>
        <time>2014-04-15T09:07:35Z</time>
      </trkpt>
      <trkpt lat="47.82487" lon="3.46246">
        <ele>168</ele>
        <time>2014-04-15T09:07:51Z</time>
      </trkpt>
      <trkpt lat="47.82483" lon="3.4626">
        <ele>167</ele>
        <time>2014-04-15T09:08:01Z</time>
      </trkpt>
      <trkpt lat="47.82482" lon="3.46275">
        <ele>167</ele>
        <time>2014-04-15T09:08:10Z</time>
      </trkpt>
      <trkpt lat="47.8248" lon="3.46282">
        <ele>167</ele>
        <time>2014-04-15T09:08:14Z</time>
      </trkpt>
      <trkpt lat="47.82475" lon="3.46294">
        <ele>166</ele>
        <time>2014-04-15T09:08:22Z</time>
      </trkpt>
      <trkpt lat="47.82476" lon="3.46309">
        <ele>166</ele>
        <time>2014-04-15T09:08:34Z</time>
      </trkpt>
      <trkpt lat="47.82476" lon="3.46318">
        <ele>166</ele>
        <time>2014-04-15T09:08:37Z</time>
      </trkpt>
      <trkpt lat="47.82475" lon="3.46325">
        <ele>166</ele>
        <time>2014-04-15T09:08:42Z</time>
      </trkpt>
      <trkpt lat="47.82473" lon="3.46332">
        <ele>166</ele>
        <time>2014-04-15T09:08:46Z</time>
      </trkpt>
      <trkpt lat="47.8247" lon="3.46338">
        <ele>164</ele>
        <time>2014-04-15T09:08:51Z</time>
      </trkpt>
      <trkpt lat="47.82462" lon="3.46376">
        <ele>164</ele>
        <time>2014-04-15T09:09:12Z</time>
      </trkpt>
      <trkpt lat="47.8246" lon="3.46382">
        <ele>164</ele>
        <time>2014-04-15T09:09:15Z</time>
      </trkpt>
      <trkpt lat="47.82458" lon="3.46397">
        <ele>163</ele>
        <time>2014-04-15T09:09:25Z</time>
      </trkpt>
      <trkpt lat="47.82458" lon="3.46395">
        <ele>163</ele>
        <time>2014-04-15T09:09:42Z</time>
      </trkpt>
      <trkpt lat="47.8246" lon="3.4639">
        <ele>164</ele>
        <time>2014-04-15T09:09:56Z</time>
      </trkpt>
      <trkpt lat="47.82459" lon="3.46391">
        <ele>164</ele>
        <time>2014-04-15T09:10:42Z</time>
      </trkpt>
      <trkpt lat="47.82457" lon="3.46397">
        <ele>163</ele>
        <time>2014-04-15T09:10:48Z</time>
      </trkpt>
      <trkpt lat="47.82458" lon="3.46398">
        <ele>163</ele>
        <time>2014-04-15T09:11:02Z</time>
      </trkpt>
      <trkpt lat="47.82455" lon="3.46404">
        <ele>163</ele>
        <time>2014-04-15T09:11:08Z</time>
      </trkpt>
      <trkpt lat="47.82457" lon="3.46406">
        <ele>163</ele>
        <time>2014-04-15T09:11:28Z</time>
      </trkpt>
      <trkpt lat="47.82454" lon="3.46412">
        <ele>163</ele>
        <time>2014-04-15T09:11:33Z</time>
      </trkpt>
      <trkpt lat="47.8245" lon="3.46412">
        <ele>163</ele>
        <time>2014-04-15T09:11:45Z</time>
      </trkpt>
      <trkpt lat="47.82448" lon="3.46413">
        <ele>163</ele>
        <time>2014-04-15T09:12:06Z</time>
      </trkpt>
      <trkpt lat="47.8245" lon="3.46413">
        <ele>163</ele>
        <time>2014-04-15T09:12:53Z</time>
      </trkpt>
      <trkpt lat="47.82457" lon="3.46401">
        <ele>163</ele>
        <time>2014-04-15T09:13:11Z</time>
      </trkpt>
      <trkpt lat="47.82458" lon="3.46395">
        <ele>163</ele>
        <time>2014-04-15T09:23:46Z</time>
      </trkpt>
      <trkpt lat="47.82456" lon="3.46392">
        <ele>164</ele>
        <time>2014-04-15T09:41:17Z</time>
      </trkpt>
      <trkpt lat="47.82457" lon="3.46385">
        <ele>164</ele>
        <time>2014-04-15T09:41:23Z</time>
      </trkpt>
      <trkpt lat="47.82458" lon="3.4639">
        <ele>164</ele>
        <time>2014-04-15T09:41:45Z</time>
      </trkpt>
      <trkpt lat="47.82459" lon="3.46387">
        <ele>164</ele>
        <time>2014-04-15T09:42:17Z</time>
      </trkpt>
      <trkpt lat="47.82461" lon="3.46394">
        <ele>163</ele>
        <time>2014-04-15T09:42:21Z</time>
      </trkpt>
      <trkpt lat="47.82463" lon="3.46403">
        <ele>163</ele>
        <time>2014-04-15T09:42:26Z</time>
      </trkpt>
      <trkpt lat="47.82456" lon="3.46448">
        <ele>161</ele>
        <time>2014-04-15T09:42:49Z</time>
      </trkpt>
      <trkpt lat="47.82457" lon="3.46455">
        <ele>161</ele>
        <time>2014-04-15T09:42:53Z</time>
      </trkpt>
      <trkpt lat="47.82456" lon="3.46464">
        <ele>161</ele>
        <time>2014-04-15T09:42:56Z</time>
      </trkpt>
      <trkpt lat="47.8246" lon="3.46485">
        <ele>161</ele>
        <time>2014-04-15T09:43:11Z</time>
      </trkpt>
      <trkpt lat="47.82458" lon="3.465">
        <ele>159</ele>
        <time>2014-04-15T09:43:19Z</time>
      </trkpt>
      <trkpt lat="47.82461" lon="3.46517">
        <ele>159</ele>
        <time>2014-04-15T09:43:29Z</time>
      </trkpt>
      <trkpt lat="47.82462" lon="3.46525">
        <ele>159</ele>
        <time>2014-04-15T09:43:32Z</time>
      </trkpt>
      <trkpt lat="47.8246" lon="3.46532">
        <ele>159</ele>
        <time>2014-04-15T09:43:36Z</time>
      </trkpt>
      <trkpt lat="47.8246" lon="3.46541">
        <ele>159</ele>
        <time>2014-04-15T09:43:40Z</time>
      </trkpt>
      <trkpt lat="47.82457" lon="3.46549">
        <ele>159</ele>
        <time>2014-04-15T09:43:43Z</time>
      </trkpt>
      <trkpt lat="47.82455" lon="3.46556">
        <ele>159</ele>
        <time>2014-04-15T09:43:46Z</time>
      </trkpt>
      <trkpt lat="47.82453" lon="3.46563">
        <ele>159</ele>
        <time>2014-04-15T09:43:50Z</time>
      </trkpt>
      <trkpt lat="47.82452" lon="3.4657">
        <ele>159</ele>
        <time>2014-04-15T09:43:54Z</time>
      </trkpt>
      <trkpt lat="47.82452" lon="3.46577">
        <ele>159</ele>
        <time>2014-04-15T09:44:02Z</time>
      </trkpt>
      <trkpt lat="47.82448" lon="3.46607">
        <ele>157</ele>
        <time>2014-04-15T09:44:20Z</time>
      </trkpt>
      <trkpt lat="47.82452" lon="3.46609">
        <ele>157</ele>
        <time>2014-04-15T09:44:28Z</time>
      </trkpt>
      <trkpt lat="47.82457" lon="3.46611">
        <ele>157</ele>
        <time>2014-04-15T09:44:32Z</time>
      </trkpt>
      <trkpt lat="47.82462" lon="3.46614">
        <ele>157</ele>
        <time>2014-04-15T09:44:35Z</time>
      </trkpt>
      <trkpt lat="47.82467" lon="3.46616">
        <ele>157</ele>
        <time>2014-04-15T09:44:38Z</time>
      </trkpt>
      <trkpt lat="47.82472" lon="3.46617">
        <ele>157</ele>
        <time>2014-04-15T09:44:43Z</time>
      </trkpt>
      <trkpt lat="47.82477" lon="3.46621">
        <ele>157</ele>
        <time>2014-04-15T09:44:47Z</time>
      </trkpt>
      <trkpt lat="47.82497" lon="3.46633">
        <ele>157</ele>
        <time>2014-04-15T09:45:04Z</time>
      </trkpt>
      <trkpt lat="47.82501" lon="3.46637">
        <ele>156</ele>
        <time>2014-04-15T09:45:09Z</time>
      </trkpt>
      <trkpt lat="47.82506" lon="3.46642">
        <ele>156</ele>
        <time>2014-04-15T09:45:13Z</time>
      </trkpt>
      <trkpt lat="47.82511" lon="3.46645">
        <ele>156</ele>
        <time>2014-04-15T09:45:16Z</time>
      </trkpt>
      <trkpt lat="47.82516" lon="3.46647">
        <ele>156</ele>
        <time>2014-04-15T09:45:21Z</time>
      </trkpt>
      <trkpt lat="47.82521" lon="3.4665">
        <ele>156</ele>
        <time>2014-04-15T09:45:26Z</time>
      </trkpt>
      <trkpt lat="47.82525" lon="3.46655">
        <ele>156</ele>
        <time>2014-04-15T09:45:30Z</time>
      </trkpt>
      <trkpt lat="47.82544" lon="3.46667">
        <ele>154</ele>
        <time>2014-04-15T09:45:47Z</time>
      </trkpt>
      <trkpt lat="47.82549" lon="3.4667">
        <ele>154</ele>
        <time>2014-04-15T09:45:51Z</time>
      </trkpt>
      <trkpt lat="47.82554" lon="3.46668">
        <ele>154</ele>
        <time>2014-04-15T09:45:54Z</time>
      </trkpt>
      <trkpt lat="47.82559" lon="3.4667">
        <ele>154</ele>
        <time>2014-04-15T09:45:57Z</time>
      </trkpt>
      <trkpt lat="47.82563" lon="3.46676">
        <ele>154</ele>
        <time>2014-04-15T09:46:03Z</time>
      </trkpt>
      <trkpt lat="47.82567" lon="3.4668">
        <ele>154</ele>
        <time>2014-04-15T09:46:07Z</time>
      </trkpt>
      <trkpt lat="47.82576" lon="3.46686">
        <ele>154</ele>
        <time>2014-04-15T09:46:13Z</time>
      </trkpt>
      <trkpt lat="47.82585" lon="3.46693">
        <ele>155</ele>
        <time>2014-04-15T09:46:20Z</time>
      </trkpt>
      <trkpt lat="47.82589" lon="3.46698">
        <ele>155</ele>
        <time>2014-04-15T09:46:24Z</time>
      </trkpt>
      <trkpt lat="47.82604" lon="3.46707">
        <ele>155</ele>
        <time>2014-04-15T09:46:35Z</time>
      </trkpt>
      <trkpt lat="47.82614" lon="3.46715">
        <ele>155</ele>
        <time>2014-04-15T09:46:45Z</time>
      </trkpt>
      <trkpt lat="47.82617" lon="3.46721">
        <ele>155</ele>
        <time>2014-04-15T09:46:50Z</time>
      </trkpt>
      <trkpt lat="47.82617" lon="3.46729">
        <ele>155</ele>
        <time>2014-04-15T09:46:54Z</time>
      </trkpt>
      <trkpt lat="47.82615" lon="3.46736">
        <ele>155</ele>
        <time>2014-04-15T09:47:00Z</time>
      </trkpt>
      <trkpt lat="47.82613" lon="3.46758">
        <ele>153</ele>
        <time>2014-04-15T09:47:12Z</time>
      </trkpt>
      <trkpt lat="47.82607" lon="3.4677">
        <ele>153</ele>
        <time>2014-04-15T09:47:19Z</time>
      </trkpt>
      <trkpt lat="47.82596" lon="3.46814">
        <ele>153</ele>
        <time>2014-04-15T09:47:44Z</time>
      </trkpt>
      <trkpt lat="47.82593" lon="3.46821">
        <ele>153</ele>
        <time>2014-04-15T09:47:48Z</time>
      </trkpt>
      <trkpt lat="47.82592" lon="3.46838">
        <ele>153</ele>
        <time>2014-04-15T09:47:54Z</time>
      </trkpt>
      <trkpt lat="47.8259" lon="3.46845">
        <ele>153</ele>
        <time>2014-04-15T09:47:58Z</time>
      </trkpt>
      <trkpt lat="47.82586" lon="3.46876">
        <ele>154</ele>
        <time>2014-04-15T09:48:13Z</time>
      </trkpt>
      <trkpt lat="47.82576" lon="3.46895">
        <ele>154</ele>
        <time>2014-04-15T09:48:25Z</time>
      </trkpt>
      <trkpt lat="47.82574" lon="3.46901">
        <ele>154</ele>
        <time>2014-04-15T09:48:31Z</time>
      </trkpt>
      <trkpt lat="47.8257" lon="3.46906">
        <ele>154</ele>
        <time>2014-04-15T09:48:35Z</time>
      </trkpt>
      <trkpt lat="47.82568" lon="3.46913">
        <ele>154</ele>
        <time>2014-04-15T09:48:40Z</time>
      </trkpt>
      <trkpt lat="47.82567" lon="3.4692">
        <ele>154</ele>
        <time>2014-04-15T09:48:45Z</time>
      </trkpt>
      <trkpt lat="47.82573" lon="3.46922">
        <ele>154</ele>
        <time>2014-04-15T09:48:53Z</time>
      </trkpt>
      <trkpt lat="47.82569" lon="3.46921">
        <ele>154</ele>
        <time>2014-04-15T09:49:33Z</time>
      </trkpt>
      <trkpt lat="47.82564" lon="3.46926">
        <ele>154</ele>
        <time>2014-04-15T09:49:36Z</time>
      </trkpt>
      <trkpt lat="47.82559" lon="3.46956">
        <ele>153</ele>
        <time>2014-04-15T09:49:57Z</time>
      </trkpt>
      <trkpt lat="47.82551" lon="3.46974">
        <ele>152</ele>
        <time>2014-04-15T09:50:10Z</time>
      </trkpt>
      <trkpt lat="47.8255" lon="3.46981">
        <ele>152</ele>
        <time>2014-04-15T09:50:13Z</time>
      </trkpt>
      <trkpt lat="47.82548" lon="3.46989">
        <ele>152</ele>
        <time>2014-04-15T09:50:17Z</time>
      </trkpt>
      <trkpt lat="47.82544" lon="3.46995">
        <ele>152</ele>
        <time>2014-04-15T09:50:20Z</time>
      </trkpt>
      <trkpt lat="47.82543" lon="3.47001">
        <ele>150</ele>
        <time>2014-04-15T09:50:24Z</time>
      </trkpt>
      <trkpt lat="47.8254" lon="3.47008">
        <ele>150</ele>
        <time>2014-04-15T09:50:29Z</time>
      </trkpt>
      <trkpt lat="47.82536" lon="3.47013">
        <ele>150</ele>
        <time>2014-04-15T09:50:33Z</time>
      </trkpt>
      <trkpt lat="47.82533" lon="3.4702">
        <ele>150</ele>
        <time>2014-04-15T09:50:37Z</time>
      </trkpt>
      <trkpt lat="47.8253" lon="3.47024">
        <ele>149</ele>
        <time>2014-04-15T09:50:43Z</time>
      </trkpt>
      <trkpt lat="47.82523" lon="3.47045">
        <ele>149</ele>
        <time>2014-04-15T09:50:57Z</time>
      </trkpt>
      <trkpt lat="47.82523" lon="3.47054">
        <ele>149</ele>
        <time>2014-04-15T09:51:00Z</time>
      </trkpt>
      <trkpt lat="47.82515" lon="3.47084">
        <ele>146</ele>
        <time>2014-04-15T09:51:14Z</time>
      </trkpt>
      <trkpt lat="47.82511" lon="3.47089">
        <ele>145</ele>
        <time>2014-04-15T09:51:17Z</time>
      </trkpt>
      <trkpt lat="47.82509" lon="3.47092">
        <ele>145</ele>
        <time>2014-04-15T09:51:25Z</time>
      </trkpt>
      <trkpt lat="47.82505" lon="3.471">
        <ele>145</ele>
        <time>2014-04-15T09:51:37Z</time>
      </trkpt>
      <trkpt lat="47.82505" lon="3.47108">
        <ele>145</ele>
        <time>2014-04-15T09:51:41Z</time>
      </trkpt>
      <trkpt lat="47.82502" lon="3.47116">
        <ele>145</ele>
        <time>2014-04-15T09:51:46Z</time>
      </trkpt>
      <trkpt lat="47.82499" lon="3.47121">
        <ele>145</ele>
        <time>2014-04-15T09:51:49Z</time>
      </trkpt>
      <trkpt lat="47.82496" lon="3.47129">
        <ele>145</ele>
        <time>2014-04-15T09:51:53Z</time>
      </trkpt>
      <trkpt lat="47.82494" lon="3.47136">
        <ele>145</ele>
        <time>2014-04-15T09:51:57Z</time>
      </trkpt>
      <trkpt lat="47.82494" lon="3.47144">
        <ele>144</ele>
        <time>2014-04-15T09:52:02Z</time>
      </trkpt>
      <trkpt lat="47.82488" lon="3.47159">
        <ele>143</ele>
        <time>2014-04-15T09:52:08Z</time>
      </trkpt>
      <trkpt lat="47.82485" lon="3.47164">
        <ele>144</ele>
        <time>2014-04-15T09:52:12Z</time>
      </trkpt>
      <trkpt lat="47.82482" lon="3.4717">
        <ele>143</ele>
        <time>2014-04-15T09:52:16Z</time>
      </trkpt>
      <trkpt lat="47.82475" lon="3.47182">
        <ele>143</ele>
        <time>2014-04-15T09:52:22Z</time>
      </trkpt>
      <trkpt lat="47.82471" lon="3.47187">
        <ele>143</ele>
        <time>2014-04-15T09:52:25Z</time>
      </trkpt>
      <trkpt lat="47.82467" lon="3.47191">
        <ele>144</ele>
        <time>2014-04-15T09:52:28Z</time>
      </trkpt>
      <trkpt lat="47.82464" lon="3.47197">
        <ele>144</ele>
        <time>2014-04-15T09:52:31Z</time>
      </trkpt>
      <trkpt lat="47.82463" lon="3.47205">
        <ele>144</ele>
        <time>2014-04-15T09:52:36Z</time>
      </trkpt>
      <trkpt lat="47.82453" lon="3.47223">
        <ele>144</ele>
        <time>2014-04-15T09:52:48Z</time>
      </trkpt>
      <trkpt lat="47.8245" lon="3.4723">
        <ele>144</ele>
        <time>2014-04-15T09:52:53Z</time>
      </trkpt>
      <trkpt lat="47.82448" lon="3.47237">
        <ele>144</ele>
        <time>2014-04-15T09:52:57Z</time>
      </trkpt>
      <trkpt lat="47.82446" lon="3.47244">
        <ele>144</ele>
        <time>2014-04-15T09:53:02Z</time>
      </trkpt>
      <trkpt lat="47.82438" lon="3.4729">
        <ele>144</ele>
        <time>2014-04-15T09:53:29Z</time>
      </trkpt>
      <trkpt lat="47.82434" lon="3.47296">
        <ele>145</ele>
        <time>2014-04-15T09:53:35Z</time>
      </trkpt>
      <trkpt lat="47.8243" lon="3.47317">
        <ele>145</ele>
        <time>2014-04-15T09:53:47Z</time>
      </trkpt>
      <trkpt lat="47.8243" lon="3.47325">
        <ele>146</ele>
        <time>2014-04-15T09:53:54Z</time>
      </trkpt>
      <trkpt lat="47.82423" lon="3.47346">
        <ele>146</ele>
        <time>2014-04-15T09:54:02Z</time>
      </trkpt>
      <trkpt lat="47.82422" lon="3.47353">
        <ele>146</ele>
        <time>2014-04-15T09:54:05Z</time>
      </trkpt>
      <trkpt lat="47.82423" lon="3.4736">
        <ele>146</ele>
        <time>2014-04-15T09:54:09Z</time>
      </trkpt>
      <trkpt lat="47.82423" lon="3.47368">
        <ele>146</ele>
        <time>2014-04-15T09:54:14Z</time>
      </trkpt>
      <trkpt lat="47.82422" lon="3.47375">
        <ele>146</ele>
        <time>2014-04-15T09:54:18Z</time>
      </trkpt>
      <trkpt lat="47.82422" lon="3.47382">
        <ele>147</ele>
        <time>2014-04-15T09:54:22Z</time>
      </trkpt>
      <trkpt lat="47.82421" lon="3.47389">
        <ele>147</ele>
        <time>2014-04-15T09:54:26Z</time>
      </trkpt>
      <trkpt lat="47.82422" lon="3.47397">
        <ele>147</ele>
        <time>2014-04-15T09:54:31Z</time>
      </trkpt>
      <trkpt lat="47.8242" lon="3.47428">
        <ele>148</ele>
        <time>2014-04-15T09:54:47Z</time>
      </trkpt>
      <trkpt lat="47.8242" lon="3.47435">
        <ele>148</ele>
        <time>2014-04-15T09:54:55Z</time>
      </trkpt>
      <trkpt lat="47.82421" lon="3.47445">
        <ele>148</ele>
        <time>2014-04-15T09:55:02Z</time>
      </trkpt>
      <trkpt lat="47.8242" lon="3.47458">
        <ele>148</ele>
        <time>2014-04-15T09:55:08Z</time>
      </trkpt>
      <trkpt lat="47.82422" lon="3.47466">
        <ele>148</ele>
        <time>2014-04-15T09:55:11Z</time>
      </trkpt>
      <trkpt lat="47.82421" lon="3.47474">
        <ele>149</ele>
        <time>2014-04-15T09:55:16Z</time>
      </trkpt>
      <trkpt lat="47.82421" lon="3.47482">
        <ele>149</ele>
        <time>2014-04-15T09:55:20Z</time>
      </trkpt>
      <trkpt lat="47.82418" lon="3.47514">
        <ele>150</ele>
        <time>2014-04-15T09:55:38Z</time>
      </trkpt>
      <trkpt lat="47.82418" lon="3.47521">
        <ele>150</ele>
        <time>2014-04-15T09:55:44Z</time>
      </trkpt>
      <trkpt lat="47.82417" lon="3.47528">
        <ele>152</ele>
        <time>2014-04-15T09:55:50Z</time>
      </trkpt>
      <trkpt lat="47.82419" lon="3.47551">
        <ele>151</ele>
        <time>2014-04-15T09:56:04Z</time>
      </trkpt>
      <trkpt lat="47.82421" lon="3.47558">
        <ele>151</ele>
        <time>2014-04-15T09:56:08Z</time>
      </trkpt>
      <trkpt lat="47.82421" lon="3.47566">
        <ele>151</ele>
        <time>2014-04-15T09:56:12Z</time>
      </trkpt>
      <trkpt lat="47.8242" lon="3.47574">
        <ele>152</ele>
        <time>2014-04-15T09:56:16Z</time>
      </trkpt>
      <trkpt lat="47.8242" lon="3.47581">
        <ele>152</ele>
        <time>2014-04-15T09:56:19Z</time>
      </trkpt>
      <trkpt lat="47.82421" lon="3.47589">
        <ele>152</ele>
        <time>2014-04-15T09:56:23Z</time>
      </trkpt>
      <trkpt lat="47.82424" lon="3.47603">
        <ele>150</ele>
        <time>2014-04-15T09:56:31Z</time>
      </trkpt>
      <trkpt lat="47.82423" lon="3.4761">
        <ele>150</ele>
        <time>2014-04-15T09:56:35Z</time>
      </trkpt>
      <trkpt lat="47.82421" lon="3.47618">
        <ele>150</ele>
        <time>2014-04-15T09:56:38Z</time>
      </trkpt>
      <trkpt lat="47.82421" lon="3.47625">
        <ele>149</ele>
        <time>2014-04-15T09:56:41Z</time>
      </trkpt>
      <trkpt lat="47.82424" lon="3.47647">
        <ele>149</ele>
        <time>2014-04-15T09:56:52Z</time>
      </trkpt>
      <trkpt lat="47.82426" lon="3.47655">
        <ele>149</ele>
        <time>2014-04-15T09:56:56Z</time>
      </trkpt>
      <trkpt lat="47.82428" lon="3.47662">
        <ele>149</ele>
        <time>2014-04-15T09:57:00Z</time>
      </trkpt>
      <trkpt lat="47.82429" lon="3.47686">
        <ele>146</ele>
        <time>2014-04-15T09:57:10Z</time>
      </trkpt>
      <trkpt lat="47.82431" lon="3.47694">
        <ele>146</ele>
        <time>2014-04-15T09:57:14Z</time>
      </trkpt>
      <trkpt lat="47.82426" lon="3.47721">
        <ele>145</ele>
        <time>2014-04-15T09:59:00Z</time>
      </trkpt>
      <trkpt lat="47.82427" lon="3.47729">
        <ele>145</ele>
        <time>2014-04-15T09:59:04Z</time>
      </trkpt>
      <trkpt lat="47.82428" lon="3.47736">
        <ele>144</ele>
        <time>2014-04-15T09:59:08Z</time>
      </trkpt>
      <trkpt lat="47.82428" lon="3.4775">
        <ele>144</ele>
        <time>2014-04-15T09:59:18Z</time>
      </trkpt>
      <trkpt lat="47.82429" lon="3.47758">
        <ele>144</ele>
        <time>2014-04-15T09:59:22Z</time>
      </trkpt>
      <trkpt lat="47.82432" lon="3.47764">
        <ele>143</ele>
        <time>2014-04-15T09:59:26Z</time>
      </trkpt>
      <trkpt lat="47.82435" lon="3.47771">
        <ele>143</ele>
        <time>2014-04-15T09:59:29Z</time>
      </trkpt>
      <trkpt lat="47.82431" lon="3.47776">
        <ele>143</ele>
        <time>2014-04-15T09:59:33Z</time>
      </trkpt>
      <trkpt lat="47.82428" lon="3.47783">
        <ele>143</ele>
        <time>2014-04-15T09:59:36Z</time>
      </trkpt>
      <trkpt lat="47.8243" lon="3.47798">
        <ele>143</ele>
        <time>2014-04-15T09:59:46Z</time>
      </trkpt>
      <trkpt lat="47.8243" lon="3.47826">
        <ele>143</ele>
        <time>2014-04-15T10:00:01Z</time>
      </trkpt>
      <trkpt lat="47.82429" lon="3.47832">
        <ele>143</ele>
        <time>2014-04-15T10:00:05Z</time>
      </trkpt>
      <trkpt lat="47.8243" lon="3.47846">
        <ele>143</ele>
        <time>2014-04-15T10:00:14Z</time>
      </trkpt>
      <trkpt lat="47.82429" lon="3.4787">
        <ele>142</ele>
        <time>2014-04-15T10:00:27Z</time>
      </trkpt>
      <trkpt lat="47.82432" lon="3.47877">
        <ele>142</ele>
        <time>2014-04-15T10:00:31Z</time>
      </trkpt>
      <trkpt lat="47.82434" lon="3.47892">
        <ele>142</ele>
        <time>2014-04-15T10:00:39Z</time>
      </trkpt>
      <trkpt lat="47.82434" lon="3.47908">
        <ele>143</ele>
        <time>2014-04-15T10:00:47Z</time>
      </trkpt>
      <trkpt lat="47.8243" lon="3.47912">
        <ele>143</ele>
        <time>2014-04-15T10:00:56Z</time>
      </trkpt>
      <trkpt lat="47.82428" lon="3.4791">
        <ele>143</ele>
        <time>2014-04-15T10:01:03Z</time>
      </trkpt>
      <trkpt lat="47.82428" lon="3.4792">
        <ele>142</ele>
        <time>2014-04-15T10:01:24Z</time>
      </trkpt>
      <trkpt lat="47.8243" lon="3.47933">
        <ele>142</ele>
        <time>2014-04-15T10:01:34Z</time>
      </trkpt>
      <trkpt lat="47.82436" lon="3.47944">
        <ele>141</ele>
        <time>2014-04-15T10:01:41Z</time>
      </trkpt>
      <trkpt lat="47.82441" lon="3.47949">
        <ele>141</ele>
        <time>2014-04-15T10:01:45Z</time>
      </trkpt>
      <trkpt lat="47.82445" lon="3.47954">
        <ele>140</ele>
        <time>2014-04-15T10:01:49Z</time>
      </trkpt>
      <trkpt lat="47.82449" lon="3.47957">
        <ele>140</ele>
        <time>2014-04-15T10:01:53Z</time>
      </trkpt>
      <trkpt lat="47.82453" lon="3.47962">
        <ele>140</ele>
        <time>2014-04-15T10:01:58Z</time>
      </trkpt>
      <trkpt lat="47.82456" lon="3.47967">
        <ele>140</ele>
        <time>2014-04-15T10:02:02Z</time>
      </trkpt>
      <trkpt lat="47.82461" lon="3.47981">
        <ele>140</ele>
        <time>2014-04-15T10:02:10Z</time>
      </trkpt>
      <trkpt lat="47.82469" lon="3.47992">
        <ele>139</ele>
        <time>2014-04-15T10:02:39Z</time>
      </trkpt>
      <trkpt lat="47.82469" lon="3.47998">
        <ele>139</ele>
        <time>2014-04-15T10:02:54Z</time>
      </trkpt>
      <trkpt lat="47.82473" lon="3.48002">
        <ele>138</ele>
        <time>2014-04-15T10:02:57Z</time>
      </trkpt>
      <trkpt lat="47.82483" lon="3.48008">
        <ele>138</ele>
        <time>2014-04-15T10:03:03Z</time>
      </trkpt>
      <trkpt lat="47.82488" lon="3.48013">
        <ele>138</ele>
        <time>2014-04-15T10:03:06Z</time>
      </trkpt>
      <trkpt lat="47.82491" lon="3.48018">
        <ele>138</ele>
        <time>2014-04-15T10:03:12Z</time>
      </trkpt>
      <trkpt lat="47.82492" lon="3.48023">
        <ele>138</ele>
        <time>2014-04-15T10:03:20Z</time>
      </trkpt>
      <trkpt lat="47.8249" lon="3.48029">
        <ele>138</ele>
        <time>2014-04-15T10:03:24Z</time>
      </trkpt>
      <trkpt lat="47.82493" lon="3.48035">
        <ele>138</ele>
        <time>2014-04-15T10:03:29Z</time>
      </trkpt>
      <trkpt lat="47.82498" lon="3.48038">
        <ele>138</ele>
        <time>2014-04-15T10:03:33Z</time>
      </trkpt>
      <trkpt lat="47.82503" lon="3.48043">
        <ele>136</ele>
        <time>2014-04-15T10:03:37Z</time>
      </trkpt>
      <trkpt lat="47.82506" lon="3.48049">
        <ele>136</ele>
        <time>2014-04-15T10:03:41Z</time>
      </trkpt>
      <trkpt lat="47.82511" lon="3.48054">
        <ele>136</ele>
        <time>2014-04-15T10:03:45Z</time>
      </trkpt>
      <trkpt lat="47.82515" lon="3.4806">
        <ele>136</ele>
        <time>2014-04-15T10:03:49Z</time>
      </trkpt>
      <trkpt lat="47.82519" lon="3.48064">
        <ele>136</ele>
        <time>2014-04-15T10:03:52Z</time>
      </trkpt>
      <trkpt lat="47.82524" lon="3.48066">
        <ele>136</ele>
        <time>2014-04-15T10:03:55Z</time>
      </trkpt>
      <trkpt lat="47.82528" lon="3.48071">
        <ele>136</ele>
        <time>2014-04-15T10:04:00Z</time>
      </trkpt>
      <trkpt lat="47.82536" lon="3.48089">
        <ele>135</ele>
        <time>2014-04-15T10:04:14Z</time>
      </trkpt>
      <trkpt lat="47.82539" lon="3.48094">
        <ele>135</ele>
        <time>2014-04-15T10:04:17Z</time>
      </trkpt>
      <trkpt lat="47.82544" lon="3.48099">
        <ele>135</ele>
        <time>2014-04-15T10:04:21Z</time>
      </trkpt>
      <trkpt lat="47.8254" lon="3.48102">
        <ele>135</ele>
        <time>2014-04-15T10:05:22Z</time>
      </trkpt>
      <trkpt lat="47.82544" lon="3.48107">
        <ele>135</ele>
        <time>2014-04-15T10:05:27Z</time>
      </trkpt>
      <trkpt lat="47.8255" lon="3.48109">
        <ele>135</ele>
        <time>2014-04-15T10:05:30Z</time>
      </trkpt>
      <trkpt lat="47.82554" lon="3.48113">
        <ele>135</ele>
        <time>2014-04-15T10:05:33Z</time>
      </trkpt>
      <trkpt lat="47.82562" lon="3.48133">
        <ele>135</ele>
        <time>2014-04-15T10:05:49Z</time>
      </trkpt>
      <trkpt lat="47.82565" lon="3.48138">
        <ele>135</ele>
        <time>2014-04-15T10:05:52Z</time>
      </trkpt>
      <trkpt lat="47.82569" lon="3.48143">
        <ele>135</ele>
        <time>2014-04-15T10:05:55Z</time>
      </trkpt>
      <trkpt lat="47.82574" lon="3.48147">
        <ele>135</ele>
        <time>2014-04-15T10:05:58Z</time>
      </trkpt>
      <trkpt lat="47.8258" lon="3.48159">
        <ele>134</ele>
        <time>2014-04-15T10:06:07Z</time>
      </trkpt>
      <trkpt lat="47.82588" lon="3.48168">
        <ele>134</ele>
        <time>2014-04-15T10:06:15Z</time>
      </trkpt>
      <trkpt lat="47.8261" lon="3.48195">
        <ele>134</ele>
        <time>2014-04-15T10:06:36Z</time>
      </trkpt>
      <trkpt lat="47.82617" lon="3.48207">
        <ele>134</ele>
        <time>2014-04-15T10:06:44Z</time>
      </trkpt>
      <trkpt lat="47.8262" lon="3.48211">
        <ele>134</ele>
        <time>2014-04-15T10:06:48Z</time>
      </trkpt>
      <trkpt lat="47.82627" lon="3.48222">
        <ele>134</ele>
        <time>2014-04-15T10:06:59Z</time>
      </trkpt>
      <trkpt lat="47.82629" lon="3.48229">
        <ele>134</ele>
        <time>2014-04-15T10:07:03Z</time>
      </trkpt>
      <trkpt lat="47.8264" lon="3.48244">
        <ele>134</ele>
        <time>2014-04-15T10:07:15Z</time>
      </trkpt>
      <trkpt lat="47.82643" lon="3.4825">
        <ele>134</ele>
        <time>2014-04-15T10:07:19Z</time>
      </trkpt>
      <trkpt lat="47.82647" lon="3.48252">
        <ele>132</ele>
        <time>2014-04-15T10:07:22Z</time>
      </trkpt>
      <trkpt lat="47.82651" lon="3.48257">
        <ele>132</ele>
        <time>2014-04-15T10:07:26Z</time>
      </trkpt>
      <trkpt lat="47.82658" lon="3.48269">
        <ele>132</ele>
        <time>2014-04-15T10:07:34Z</time>
      </trkpt>
      <trkpt lat="47.82661" lon="3.48276">
        <ele>132</ele>
        <time>2014-04-15T10:07:38Z</time>
      </trkpt>
      <trkpt lat="47.82664" lon="3.48283">
        <ele>132</ele>
        <time>2014-04-15T10:07:43Z</time>
      </trkpt>
      <trkpt lat="47.82666" lon="3.48289">
        <ele>132</ele>
        <time>2014-04-15T10:07:49Z</time>
      </trkpt>
      <trkpt lat="47.82685" lon="3.48314">
        <ele>131</ele>
        <time>2014-04-15T10:08:10Z</time>
      </trkpt>
      <trkpt lat="47.82685" lon="3.48327">
        <ele>131</ele>
        <time>2014-04-15T10:08:22Z</time>
      </trkpt>
      <trkpt lat="47.8269" lon="3.48327">
        <ele>131</ele>
        <time>2014-04-15T10:08:38Z</time>
      </trkpt>
      <trkpt lat="47.82696" lon="3.4834">
        <ele>131</ele>
        <time>2014-04-15T10:08:49Z</time>
      </trkpt>
      <trkpt lat="47.827" lon="3.48369">
        <ele>132</ele>
        <time>2014-04-15T10:09:06Z</time>
      </trkpt>
      <trkpt lat="47.827" lon="3.48377">
        <ele>132</ele>
        <time>2014-04-15T10:09:13Z</time>
      </trkpt>
      <trkpt lat="47.82702" lon="3.48384">
        <ele>132</ele>
        <time>2014-04-15T10:09:17Z</time>
      </trkpt>
      <trkpt lat="47.82709" lon="3.48399">
        <ele>132</ele>
        <time>2014-04-15T10:09:25Z</time>
      </trkpt>
      <trkpt lat="47.8271" lon="3.48407">
        <ele>132</ele>
        <time>2014-04-15T10:09:29Z</time>
      </trkpt>
      <trkpt lat="47.8271" lon="3.48413">
        <ele>132</ele>
        <time>2014-04-15T10:09:32Z</time>
      </trkpt>
      <trkpt lat="47.82711" lon="3.48421">
        <ele>131</ele>
        <time>2014-04-15T10:09:36Z</time>
      </trkpt>
      <trkpt lat="47.82719" lon="3.48434">
        <ele>131</ele>
        <time>2014-04-15T10:09:43Z</time>
      </trkpt>
      <trkpt lat="47.82721" lon="3.4844">
        <ele>131</ele>
        <time>2014-04-15T10:09:46Z</time>
      </trkpt>
      <trkpt lat="47.82721" lon="3.48447">
        <ele>131</ele>
        <time>2014-04-15T10:09:50Z</time>
      </trkpt>
      <trkpt lat="47.82719" lon="3.48455">
        <ele>131</ele>
        <time>2014-04-15T10:09:56Z</time>
      </trkpt>
      <trkpt lat="47.82719" lon="3.48464">
        <ele>130</ele>
        <time>2014-04-15T10:09:59Z</time>
      </trkpt>
      <trkpt lat="47.8272" lon="3.48472">
        <ele>130</ele>
        <time>2014-04-15T10:10:02Z</time>
      </trkpt>
      <trkpt lat="47.82717" lon="3.48478">
        <ele>130</ele>
        <time>2014-04-15T10:10:07Z</time>
      </trkpt>
      <trkpt lat="47.82718" lon="3.48485">
        <ele>130</ele>
        <time>2014-04-15T10:10:11Z</time>
      </trkpt>
      <trkpt lat="47.8272" lon="3.48498">
        <ele>130</ele>
        <time>2014-04-15T10:10:39Z</time>
      </trkpt>
      <trkpt lat="47.82719" lon="3.48503">
        <ele>129</ele>
        <time>2014-04-15T10:11:23Z</time>
      </trkpt>
      <trkpt lat="47.82719" lon="3.48509">
        <ele>129</ele>
        <time>2014-04-15T10:11:42Z</time>
      </trkpt>
      <trkpt lat="47.82722" lon="3.48518">
        <ele>129</ele>
        <time>2014-04-15T10:11:47Z</time>
      </trkpt>
      <trkpt lat="47.82727" lon="3.48527">
        <ele>129</ele>
        <time>2014-04-15T10:11:57Z</time>
      </trkpt>
      <trkpt lat="47.82726" lon="3.48531">
        <ele>129</ele>
        <time>2014-04-15T10:12:03Z</time>
      </trkpt>
      <trkpt lat="47.82723" lon="3.48538">
        <ele>129</ele>
        <time>2014-04-15T10:12:07Z</time>
      </trkpt>
      <trkpt lat="47.82723" lon="3.48547">
        <ele>129</ele>
        <time>2014-04-15T10:12:13Z</time>
      </trkpt>
      <trkpt lat="47.82725" lon="3.48569">
        <ele>129</ele>
        <time>2014-04-15T10:12:24Z</time>
      </trkpt>
      <trkpt lat="47.82725" lon="3.48577">
        <ele>129</ele>
        <time>2014-04-15T10:12:28Z</time>
      </trkpt>
      <trkpt lat="47.82726" lon="3.48584">
        <ele>129</ele>
        <time>2014-04-15T10:12:32Z</time>
      </trkpt>
      <trkpt lat="47.82726" lon="3.48591">
        <ele>130</ele>
        <time>2014-04-15T10:12:36Z</time>
      </trkpt>
      <trkpt lat="47.82716" lon="3.48595">
        <ele>130</ele>
        <time>2014-04-15T10:12:44Z</time>
      </trkpt>
      <trkpt lat="47.8272" lon="3.48602">
        <ele>130</ele>
        <time>2014-04-15T10:12:49Z</time>
      </trkpt>
      <trkpt lat="47.82725" lon="3.48606">
        <ele>130</ele>
        <time>2014-04-15T10:12:53Z</time>
      </trkpt>
      <trkpt lat="47.8273" lon="3.48611">
        <ele>130</ele>
        <time>2014-04-15T10:13:08Z</time>
      </trkpt>
      <trkpt lat="47.82726" lon="3.48625">
        <ele>130</ele>
        <time>2014-04-15T10:13:15Z</time>
      </trkpt>
      <trkpt lat="47.82732" lon="3.48652">
        <ele>130</ele>
        <time>2014-04-15T10:13:38Z</time>
      </trkpt>
      <trkpt lat="47.82727" lon="3.48683">
        <ele>130</ele>
        <time>2014-04-15T10:13:50Z</time>
      </trkpt>
      <trkpt lat="47.82729" lon="3.48697">
        <ele>130</ele>
        <time>2014-04-15T10:13:56Z</time>
      </trkpt>
      <trkpt lat="47.82737" lon="3.48725">
        <ele>130</ele>
        <time>2014-04-15T10:14:10Z</time>
      </trkpt>
      <trkpt lat="47.82738" lon="3.48738">
        <ele>130</ele>
        <time>2014-04-15T10:14:21Z</time>
      </trkpt>
      <trkpt lat="47.82724" lon="3.48825">
        <ele>129</ele>
        <time>2014-04-15T10:15:01Z</time>
      </trkpt>
      <trkpt lat="47.82715" lon="3.48852">
        <ele>128</ele>
        <time>2014-04-15T10:15:18Z</time>
      </trkpt>
      <trkpt lat="47.82716" lon="3.48865">
        <ele>127</ele>
        <time>2014-04-15T10:15:24Z</time>
      </trkpt>
      <trkpt lat="47.82719" lon="3.48878">
        <ele>127</ele>
        <time>2014-04-15T10:15:33Z</time>
      </trkpt>
      <trkpt lat="47.82715" lon="3.48887">
        <ele>127</ele>
        <time>2014-04-15T10:15:39Z</time>
      </trkpt>
      <trkpt lat="47.82713" lon="3.48894">
        <ele>127</ele>
        <time>2014-04-15T10:15:43Z</time>
      </trkpt>
      <trkpt lat="47.82711" lon="3.489">
        <ele>127</ele>
        <time>2014-04-15T10:15:46Z</time>
      </trkpt>
      <trkpt lat="47.82706" lon="3.48915">
        <ele>127</ele>
        <time>2014-04-15T10:15:52Z</time>
      </trkpt>
      <trkpt lat="47.82696" lon="3.48956">
        <ele>126</ele>
        <time>2014-04-15T10:16:08Z</time>
      </trkpt>
      <trkpt lat="47.8269" lon="3.48964">
        <ele>126</ele>
        <time>2014-04-15T10:16:17Z</time>
      </trkpt>
      <trkpt lat="47.82684" lon="3.48963">
        <ele>126</ele>
        <time>2014-04-15T10:16:21Z</time>
      </trkpt>
      <trkpt lat="47.82677" lon="3.48955">
        <ele>126</ele>
        <time>2014-04-15T10:16:30Z</time>
      </trkpt>
      <trkpt lat="47.82658" lon="3.48963">
        <ele>127</ele>
        <time>2014-04-15T10:16:40Z</time>
      </trkpt>
      <trkpt lat="47.82648" lon="3.48964">
        <ele>127</ele>
        <time>2014-04-15T10:16:47Z</time>
      </trkpt>
      <trkpt lat="47.82639" lon="3.48967">
        <ele>127</ele>
        <time>2014-04-15T10:17:00Z</time>
      </trkpt>
      <trkpt lat="47.82637" lon="3.4898">
        <ele>127</ele>
        <time>2014-04-15T10:17:06Z</time>
      </trkpt>
      <trkpt lat="47.82638" lon="3.48995">
        <ele>127</ele>
        <time>2014-04-15T10:17:11Z</time>
      </trkpt>
      <trkpt lat="47.82643" lon="3.49006">
        <ele>128</ele>
        <time>2014-04-15T10:17:18Z</time>
      </trkpt>
      <trkpt lat="47.82649" lon="3.49016">
        <ele>128</ele>
        <time>2014-04-15T10:17:28Z</time>
      </trkpt>
      <trkpt lat="47.82642" lon="3.49026">
        <ele>128</ele>
        <time>2014-04-15T10:17:38Z</time>
      </trkpt>
      <trkpt lat="47.82634" lon="3.49033">
        <ele>128</ele>
        <time>2014-04-15T10:17:41Z</time>
      </trkpt>
      <trkpt lat="47.82627" lon="3.49044">
        <ele>128</ele>
        <time>2014-04-15T10:17:44Z</time>
      </trkpt>
      <trkpt lat="47.82606" lon="3.49068">
        <ele>129</ele>
        <time>2014-04-15T10:18:03Z</time>
      </trkpt>
      <trkpt lat="47.82596" lon="3.49072">
        <ele>129</ele>
        <time>2014-04-15T10:18:08Z</time>
      </trkpt>
      <trkpt lat="47.82583" lon="3.49093">
        <ele>130</ele>
        <time>2014-04-15T10:18:23Z</time>
      </trkpt>
      <trkpt lat="47.82579" lon="3.49105">
        <ele>129</ele>
        <time>2014-04-15T10:18:32Z</time>
      </trkpt>
      <trkpt lat="47.82577" lon="3.49118">
        <ele>129</ele>
        <time>2014-04-15T10:18:40Z</time>
      </trkpt>
      <trkpt lat="47.82566" lon="3.49121">
        <ele>128</ele>
        <time>2014-04-15T10:18:46Z</time>
      </trkpt>
      <trkpt lat="47.82552" lon="3.4914">
        <ele>128</ele>
        <time>2014-04-15T10:18:58Z</time>
      </trkpt>
      <trkpt lat="47.82543" lon="3.49144">
        <ele>128</ele>
        <time>2014-04-15T10:19:03Z</time>
      </trkpt>
      <trkpt lat="47.82528" lon="3.49153">
        <ele>127</ele>
        <time>2014-04-15T10:19:19Z</time>
      </trkpt>
      <trkpt lat="47.82525" lon="3.49144">
        <ele>127</ele>
        <time>2014-04-15T10:19:24Z</time>
      </trkpt>
      <trkpt lat="47.82519" lon="3.49147">
        <ele>127</ele>
        <time>2014-04-15T10:19:41Z</time>
      </trkpt>
      <trkpt lat="47.82499" lon="3.49157">
        <ele>126</ele>
        <time>2014-04-15T10:19:55Z</time>
      </trkpt>
      <trkpt lat="47.82495" lon="3.49159">
        <ele>126</ele>
        <time>2014-04-15T10:19:59Z</time>
      </trkpt>
      <trkpt lat="47.8249" lon="3.49162">
        <ele>126</ele>
        <time>2014-04-15T10:20:04Z</time>
      </trkpt>
      <trkpt lat="47.82485" lon="3.49163">
        <ele>126</ele>
        <time>2014-04-15T10:20:06Z</time>
      </trkpt>
      <trkpt lat="47.82481" lon="3.49164">
        <ele>126</ele>
        <time>2014-04-15T10:20:09Z</time>
      </trkpt>
      <trkpt lat="47.8247" lon="3.49163">
        <ele>126</ele>
        <time>2014-04-15T10:20:19Z</time>
      </trkpt>
      <trkpt lat="47.82469" lon="3.4917">
        <ele>126</ele>
        <time>2014-04-15T10:20:25Z</time>
      </trkpt>
      <trkpt lat="47.8246" lon="3.49174">
        <ele>126</ele>
        <time>2014-04-15T10:20:34Z</time>
      </trkpt>
      <trkpt lat="47.82457" lon="3.49177">
        <ele>125</ele>
        <time>2014-04-15T10:20:41Z</time>
      </trkpt>
      <trkpt lat="47.82458" lon="3.49181">
        <ele>125</ele>
        <time>2014-04-15T10:20:52Z</time>
      </trkpt>
      <trkpt lat="47.82457" lon="3.49189">
        <ele>125</ele>
        <time>2014-04-15T10:20:57Z</time>
      </trkpt>
      <trkpt lat="47.82462" lon="3.49201">
        <ele>125</ele>
        <time>2014-04-15T10:21:07Z</time>
      </trkpt>
      <trkpt lat="47.8246" lon="3.49208">
        <ele>125</ele>
        <time>2014-04-15T10:21:13Z</time>
      </trkpt>
      <trkpt lat="47.82463" lon="3.49212">
        <ele>125</ele>
        <time>2014-04-15T10:21:17Z</time>
      </trkpt>
      <trkpt lat="47.82474" lon="3.49229">
        <ele>125</ele>
        <time>2014-04-15T10:21:28Z</time>
      </trkpt>
      <trkpt lat="47.82477" lon="3.49236">
        <ele>125</ele>
        <time>2014-04-15T10:21:32Z</time>
      </trkpt>
      <trkpt lat="47.82481" lon="3.49241">
        <ele>125</ele>
        <time>2014-04-15T10:21:37Z</time>
      </trkpt>
      <trkpt lat="47.82487" lon="3.49246">
        <ele>125</ele>
        <time>2014-04-15T10:21:48Z</time>
      </trkpt>
      <trkpt lat="47.82491" lon="3.49252">
        <ele>124</ele>
        <time>2014-04-15T10:21:52Z</time>
      </trkpt>
      <trkpt lat="47.82493" lon="3.49259">
        <ele>124</ele>
        <time>2014-04-15T10:21:55Z</time>
      </trkpt>
      <trkpt lat="47.82494" lon="3.49267">
        <ele>124</ele>
        <time>2014-04-15T10:21:58Z</time>
      </trkpt>
      <trkpt lat="47.82493" lon="3.49275">
        <ele>125</ele>
        <time>2014-04-15T10:22:02Z</time>
      </trkpt>
      <trkpt lat="47.82493" lon="3.49282">
        <ele>125</ele>
        <time>2014-04-15T10:22:08Z</time>
      </trkpt>
      <trkpt lat="47.82498" lon="3.49286">
        <ele>125</ele>
        <time>2014-04-15T10:22:13Z</time>
      </trkpt>
      <trkpt lat="47.82502" lon="3.49286">
        <ele>126</ele>
        <time>2014-04-15T10:22:16Z</time>
      </trkpt>
      <trkpt lat="47.82507" lon="3.49287">
        <ele>126</ele>
        <time>2014-04-15T10:22:20Z</time>
      </trkpt>
      <trkpt lat="47.82507" lon="3.49295">
        <ele>126</ele>
        <time>2014-04-15T10:22:26Z</time>
      </trkpt>
      <trkpt lat="47.82508" lon="3.49301">
        <ele>126</ele>
        <time>2014-04-15T10:22:31Z</time>
      </trkpt>
      <trkpt lat="47.82498" lon="3.49317">
        <ele>125</ele>
        <time>2014-04-15T10:22:40Z</time>
      </trkpt>
      <trkpt lat="47.82495" lon="3.49323">
        <ele>125</ele>
        <time>2014-04-15T10:22:48Z</time>
      </trkpt>
      <trkpt lat="47.82492" lon="3.49328">
        <ele>126</ele>
        <time>2014-04-15T10:22:56Z</time>
      </trkpt>
      <trkpt lat="47.82487" lon="3.49331">
        <ele>125</ele>
        <time>2014-04-15T10:23:00Z</time>
      </trkpt>
      <trkpt lat="47.82482" lon="3.49332">
        <ele>125</ele>
        <time>2014-04-15T10:23:03Z</time>
      </trkpt>
      <trkpt lat="47.82477" lon="3.49335">
        <ele>126</ele>
        <time>2014-04-15T10:23:07Z</time>
      </trkpt>
      <trkpt lat="47.82468" lon="3.49341">
        <ele>125</ele>
        <time>2014-04-15T10:23:16Z</time>
      </trkpt>
      <trkpt lat="47.82459" lon="3.4935">
        <ele>125</ele>
        <time>2014-04-15T10:23:22Z</time>
      </trkpt>
      <trkpt lat="47.82454" lon="3.49354">
        <ele>125</ele>
        <time>2014-04-15T10:23:26Z</time>
      </trkpt>
      <trkpt lat="47.82451" lon="3.49358">
        <ele>125</ele>
        <time>2014-04-15T10:23:32Z</time>
      </trkpt>
      <trkpt lat="47.82446" lon="3.49361">
        <ele>125</ele>
        <time>2014-04-15T10:23:36Z</time>
      </trkpt>
      <trkpt lat="47.82441" lon="3.49363">
        <ele>125</ele>
        <time>2014-04-15T10:23:41Z</time>
      </trkpt>
      <trkpt lat="47.82437" lon="3.49366">
        <ele>125</ele>
        <time>2014-04-15T10:23:45Z</time>
      </trkpt>
      <trkpt lat="47.82433" lon="3.4937">
        <ele>125</ele>
        <time>2014-04-15T10:23:49Z</time>
      </trkpt>
      <trkpt lat="47.82426" lon="3.49382">
        <ele>125</ele>
        <time>2014-04-15T10:23:57Z</time>
      </trkpt>
      <trkpt lat="47.82423" lon="3.49397">
        <ele>124</ele>
        <time>2014-04-15T10:24:08Z</time>
      </trkpt>
      <trkpt lat="47.82419" lon="3.49404">
        <ele>124</ele>
        <time>2014-04-15T10:24:11Z</time>
      </trkpt>
      <trkpt lat="47.82415" lon="3.49409">
        <ele>123</ele>
        <time>2014-04-15T10:24:13Z</time>
      </trkpt>
      <trkpt lat="47.82411" lon="3.49413">
        <ele>123</ele>
        <time>2014-04-15T10:24:16Z</time>
      </trkpt>
      <trkpt lat="47.82408" lon="3.4942">
        <ele>123</ele>
        <time>2014-04-15T10:24:22Z</time>
      </trkpt>
      <trkpt lat="47.82406" lon="3.49426">
        <ele>123</ele>
        <time>2014-04-15T10:24:26Z</time>
      </trkpt>
      <trkpt lat="47.82405" lon="3.49434">
        <ele>123</ele>
        <time>2014-04-15T10:24:29Z</time>
      </trkpt>
      <trkpt lat="47.82399" lon="3.49445">
        <ele>123</ele>
        <time>2014-04-15T10:24:38Z</time>
      </trkpt>
      <trkpt lat="47.82386" lon="3.49459">
        <ele>123</ele>
        <time>2014-04-15T10:24:55Z</time>
      </trkpt>
      <trkpt lat="47.82382" lon="3.49462">
        <ele>123</ele>
        <time>2014-04-15T10:24:58Z</time>
      </trkpt>
      <trkpt lat="47.82378" lon="3.49467">
        <ele>123</ele>
        <time>2014-04-15T10:25:02Z</time>
      </trkpt>
      <trkpt lat="47.82374" lon="3.4947">
        <ele>123</ele>
        <time>2014-04-15T10:25:07Z</time>
      </trkpt>
      <trkpt lat="47.8237" lon="3.49476">
        <ele>123</ele>
        <time>2014-04-15T10:25:13Z</time>
      </trkpt>
      <trkpt lat="47.82359" lon="3.4949">
        <ele>123</ele>
        <time>2014-04-15T10:25:25Z</time>
      </trkpt>
      <trkpt lat="47.82354" lon="3.49493">
        <ele>123</ele>
        <time>2014-04-15T10:25:28Z</time>
      </trkpt>
      <trkpt lat="47.82349" lon="3.49495">
        <ele>123</ele>
        <time>2014-04-15T10:25:32Z</time>
      </trkpt>
      <trkpt lat="47.8234" lon="3.49515">
        <ele>123</ele>
        <time>2014-04-15T10:25:46Z</time>
      </trkpt>
      <trkpt lat="47.82334" lon="3.49516">
        <ele>123</ele>
        <time>2014-04-15T10:25:51Z</time>
      </trkpt>
      <trkpt lat="47.82329" lon="3.49517">
        <ele>123</ele>
        <time>2014-04-15T10:25:54Z</time>
      </trkpt>
      <trkpt lat="47.82323" lon="3.49521">
        <ele>123</ele>
        <time>2014-04-15T10:25:58Z</time>
      </trkpt>
      <trkpt lat="47.82306" lon="3.49541">
        <ele>124</ele>
        <time>2014-04-15T10:26:12Z</time>
      </trkpt>
      <trkpt lat="47.82307" lon="3.49548">
        <ele>124</ele>
        <time>2014-04-15T10:26:17Z</time>
      </trkpt>
      <trkpt lat="47.82303" lon="3.49554">
        <ele>124</ele>
        <time>2014-04-15T10:26:24Z</time>
      </trkpt>
      <trkpt lat="47.82299" lon="3.49555">
        <ele>124</ele>
        <time>2014-04-15T10:26:28Z</time>
      </trkpt>
      <trkpt lat="47.82274" lon="3.49569">
        <ele>124</ele>
        <time>2014-04-15T10:26:42Z</time>
      </trkpt>
      <trkpt lat="47.82269" lon="3.4957">
        <ele>124</ele>
        <time>2014-04-15T10:26:46Z</time>
      </trkpt>
      <trkpt lat="47.82265" lon="3.49572">
        <ele>124</ele>
        <time>2014-04-15T10:26:50Z</time>
      </trkpt>
      <trkpt lat="47.82257" lon="3.49577">
        <ele>125</ele>
        <time>2014-04-15T10:27:00Z</time>
      </trkpt>
      <trkpt lat="47.82247" lon="3.49576">
        <ele>125</ele>
        <time>2014-04-15T10:27:12Z</time>
      </trkpt>
      <trkpt lat="47.82238" lon="3.4958">
        <ele>125</ele>
        <time>2014-04-15T10:27:21Z</time>
      </trkpt>
      <trkpt lat="47.82229" lon="3.49577">
        <ele>124</ele>
        <time>2014-04-15T10:27:26Z</time>
      </trkpt>
      <trkpt lat="47.82216" lon="3.49576">
        <ele>124</ele>
        <time>2014-04-15T10:27:46Z</time>
      </trkpt>
      <trkpt lat="47.82211" lon="3.49577">
        <ele>124</ele>
        <time>2014-04-15T10:27:49Z</time>
      </trkpt>
      <trkpt lat="47.82208" lon="3.49574">
        <ele>124</ele>
        <time>2014-04-15T10:27:57Z</time>
      </trkpt>
      <trkpt lat="47.82204" lon="3.49578">
        <ele>124</ele>
        <time>2014-04-15T10:28:17Z</time>
      </trkpt>
      <trkpt lat="47.82199" lon="3.4958">
        <ele>124</ele>
        <time>2014-04-15T10:28:21Z</time>
      </trkpt>
      <trkpt lat="47.82194" lon="3.49583">
        <ele>124</ele>
        <time>2014-04-15T10:28:25Z</time>
      </trkpt>
      <trkpt lat="47.8219" lon="3.49588">
        <ele>124</ele>
        <time>2014-04-15T10:28:29Z</time>
      </trkpt>
      <trkpt lat="47.8218" lon="3.49606">
        <ele>123</ele>
        <time>2014-04-15T10:28:54Z</time>
      </trkpt>
      <trkpt lat="47.82175" lon="3.49609">
        <ele>123</ele>
        <time>2014-04-15T10:28:59Z</time>
      </trkpt>
      <trkpt lat="47.82157" lon="3.49623">
        <ele>122</ele>
        <time>2014-04-15T10:29:17Z</time>
      </trkpt>
      <trkpt lat="47.82146" lon="3.49642">
        <ele>122</ele>
        <time>2014-04-15T10:29:26Z</time>
      </trkpt>
      <trkpt lat="47.82143" lon="3.49646">
        <ele>122</ele>
        <time>2014-04-15T10:29:29Z</time>
      </trkpt>
      <trkpt lat="47.82138" lon="3.49651">
        <ele>122</ele>
        <time>2014-04-15T10:29:35Z</time>
      </trkpt>
      <trkpt lat="47.82131" lon="3.4966">
        <ele>122</ele>
        <time>2014-04-15T10:29:43Z</time>
      </trkpt>
      <trkpt lat="47.82127" lon="3.49664">
        <ele>122</ele>
        <time>2014-04-15T10:29:46Z</time>
      </trkpt>
      <trkpt lat="47.82123" lon="3.49665">
        <ele>122</ele>
        <time>2014-04-15T10:29:51Z</time>
      </trkpt>
      <trkpt lat="47.82112" lon="3.49672">
        <ele>121</ele>
        <time>2014-04-15T10:29:59Z</time>
      </trkpt>
      <trkpt lat="47.82104" lon="3.49682">
        <ele>121</ele>
        <time>2014-04-15T10:30:07Z</time>
      </trkpt>
      <trkpt lat="47.82098" lon="3.49686">
        <ele>121</ele>
        <time>2014-04-15T10:30:11Z</time>
      </trkpt>
      <trkpt lat="47.8209" lon="3.49691">
        <ele>121</ele>
        <time>2014-04-15T10:30:17Z</time>
      </trkpt>
      <trkpt lat="47.82085" lon="3.49695">
        <ele>121</ele>
        <time>2014-04-15T10:30:20Z</time>
      </trkpt>
      <trkpt lat="47.82082" lon="3.49699">
        <ele>120</ele>
        <time>2014-04-15T10:30:29Z</time>
      </trkpt>
      <trkpt lat="47.82077" lon="3.49702">
        <ele>120</ele>
        <time>2014-04-15T10:30:43Z</time>
      </trkpt>
      <trkpt lat="47.82073" lon="3.49718">
        <ele>120</ele>
        <time>2014-04-15T10:30:50Z</time>
      </trkpt>
      <trkpt lat="47.82072" lon="3.49724">
        <ele>120</ele>
        <time>2014-04-15T10:30:53Z</time>
      </trkpt>
      <trkpt lat="47.82071" lon="3.49731">
        <ele>120</ele>
        <time>2014-04-15T10:30:58Z</time>
      </trkpt>
      <trkpt lat="47.82071" lon="3.49738">
        <ele>119</ele>
        <time>2014-04-15T10:31:03Z</time>
      </trkpt>
      <trkpt lat="47.82075" lon="3.49744">
        <ele>119</ele>
        <time>2014-04-15T10:31:08Z</time>
      </trkpt>
      <trkpt lat="47.82078" lon="3.49759">
        <ele>120</ele>
        <time>2014-04-15T10:31:17Z</time>
      </trkpt>
      <trkpt lat="47.82082" lon="3.49765">
        <ele>120</ele>
        <time>2014-04-15T10:31:21Z</time>
      </trkpt>
      <trkpt lat="47.82084" lon="3.49771">
        <ele>121</ele>
        <time>2014-04-15T10:31:24Z</time>
      </trkpt>
      <trkpt lat="47.82086" lon="3.49778">
        <ele>122</ele>
        <time>2014-04-15T10:31:29Z</time>
      </trkpt>
      <trkpt lat="47.8209" lon="3.49782">
        <ele>122</ele>
        <time>2014-04-15T10:31:34Z</time>
      </trkpt>
      <trkpt lat="47.82095" lon="3.49785">
        <ele>122</ele>
        <time>2014-04-15T10:31:38Z</time>
      </trkpt>
      <trkpt lat="47.82098" lon="3.49791">
        <ele>123</ele>
        <time>2014-04-15T10:31:42Z</time>
      </trkpt>
      <trkpt lat="47.82102" lon="3.49795">
        <ele>123</ele>
        <time>2014-04-15T10:31:51Z</time>
      </trkpt>
      <trkpt lat="47.82106" lon="3.49794">
        <ele>123</ele>
        <time>2014-04-15T10:31:56Z</time>
      </trkpt>
      <trkpt lat="47.8211" lon="3.498">
        <ele>123</ele>
        <time>2014-04-15T10:32:03Z</time>
      </trkpt>
      <trkpt lat="47.82109" lon="3.49807">
        <ele>123</ele>
        <time>2014-04-15T10:32:07Z</time>
      </trkpt>
      <trkpt lat="47.82107" lon="3.49801">
        <ele>123</ele>
        <time>2014-04-15T10:32:19Z</time>
      </trkpt>
      <trkpt lat="47.82103" lon="3.49805">
        <ele>123</ele>
        <time>2014-04-15T10:32:24Z</time>
      </trkpt>
      <trkpt lat="47.82101" lon="3.49805">
        <ele>123</ele>
        <time>2014-04-15T10:32:30Z</time>
      </trkpt>
      <trkpt lat="47.82098" lon="3.49811">
        <ele>124</ele>
        <time>2014-04-15T10:32:37Z</time>
      </trkpt>
      <trkpt lat="47.82096" lon="3.49814">
        <ele>124</ele>
        <time>2014-04-15T10:32:44Z</time>
      </trkpt>
      <trkpt lat="47.82094" lon="3.49808">
        <ele>123</ele>
        <time>2014-04-15T10:32:53Z</time>
      </trkpt>
      <trkpt lat="47.8209" lon="3.49812">
        <ele>124</ele>
        <time>2014-04-15T10:33:00Z</time>
      </trkpt>
      <trkpt lat="47.8209" lon="3.49815">
        <ele>124</ele>
        <time>2014-04-15T10:33:18Z</time>
      </trkpt>
      <trkpt lat="47.82085" lon="3.49824">
        <ele>124</ele>
        <time>2014-04-15T10:33:43Z</time>
      </trkpt>
      <trkpt lat="47.82076" lon="3.4983">
        <ele>124</ele>
        <time>2014-04-15T10:33:55Z</time>
      </trkpt>
      <trkpt lat="47.82069" lon="3.49839">
        <ele>125</ele>
        <time>2014-04-15T10:34:03Z</time>
      </trkpt>
      <trkpt lat="47.82049" lon="3.49841">
        <ele>125</ele>
        <time>2014-04-15T10:34:16Z</time>
      </trkpt>
      <trkpt lat="47.82044" lon="3.49848">
        <ele>125</ele>
        <time>2014-04-15T10:34:20Z</time>
      </trkpt>
      <trkpt lat="47.82039" lon="3.49849">
        <ele>125</ele>
        <time>2014-04-15T10:34:24Z</time>
      </trkpt>
      <trkpt lat="47.82034" lon="3.4985">
        <ele>125</ele>
        <time>2014-04-15T10:34:31Z</time>
      </trkpt>
      <trkpt lat="47.82024" lon="3.49848">
        <ele>124</ele>
        <time>2014-04-15T10:34:38Z</time>
      </trkpt>
      <trkpt lat="47.82016" lon="3.49842">
        <ele>124</ele>
        <time>2014-04-15T10:34:48Z</time>
      </trkpt>
      <trkpt lat="47.82012" lon="3.49838">
        <ele>123</ele>
        <time>2014-04-15T10:34:53Z</time>
      </trkpt>
      <trkpt lat="47.82013" lon="3.49842">
        <ele>124</ele>
        <time>2014-04-15T10:35:34Z</time>
      </trkpt>
      <trkpt lat="47.82024" lon="3.49841">
        <ele>124</ele>
        <time>2014-04-15T10:35:41Z</time>
      </trkpt>
      <trkpt lat="47.82029" lon="3.49839">
        <ele>124</ele>
        <time>2014-04-15T10:35:43Z</time>
      </trkpt>
      <trkpt lat="47.82035" lon="3.4984">
        <ele>124</ele>
        <time>2014-04-15T10:35:46Z</time>
      </trkpt>
      <trkpt lat="47.82041" lon="3.4984">
        <ele>125</ele>
        <time>2014-04-15T10:35:50Z</time>
      </trkpt>
      <trkpt lat="47.82045" lon="3.49841">
        <ele>125</ele>
        <time>2014-04-15T10:35:53Z</time>
      </trkpt>
      <trkpt lat="47.8205" lon="3.49839">
        <ele>125</ele>
        <time>2014-04-15T10:35:56Z</time>
      </trkpt>
      <trkpt lat="47.8206" lon="3.49829">
        <ele>123</ele>
        <time>2014-04-15T10:36:04Z</time>
      </trkpt>
      <trkpt lat="47.82065" lon="3.49826">
        <ele>123</ele>
        <time>2014-04-15T10:36:09Z</time>
      </trkpt>
      <trkpt lat="47.82068" lon="3.49821">
        <ele>123</ele>
        <time>2014-04-15T10:36:14Z</time>
      </trkpt>
      <trkpt lat="47.82074" lon="3.49819">
        <ele>123</ele>
        <time>2014-04-15T10:36:19Z</time>
      </trkpt>
      <trkpt lat="47.82079" lon="3.49817">
        <ele>123</ele>
        <time>2014-04-15T10:36:23Z</time>
      </trkpt>
      <trkpt lat="47.82084" lon="3.49816">
        <ele>124</ele>
        <time>2014-04-15T10:36:26Z</time>
      </trkpt>
      <trkpt lat="47.82089" lon="3.49816">
        <ele>124</ele>
        <time>2014-04-15T10:36:30Z</time>
      </trkpt>
      <trkpt lat="47.82094" lon="3.49818">
        <ele>124</ele>
        <time>2014-04-15T10:36:37Z</time>
      </trkpt>
      <trkpt lat="47.82098" lon="3.49814">
        <ele>124</ele>
        <time>2014-04-15T10:36:42Z</time>
      </trkpt>
      <trkpt lat="47.82102" lon="3.49809">
        <ele>123</ele>
        <time>2014-04-15T10:36:46Z</time>
      </trkpt>
      <trkpt lat="47.82107" lon="3.49806">
        <ele>123</ele>
        <time>2014-04-15T10:36:50Z</time>
      </trkpt>
      <trkpt lat="47.82111" lon="3.49808">
        <ele>123</ele>
        <time>2014-04-15T10:36:56Z</time>
      </trkpt>
      <trkpt lat="47.82112" lon="3.49815">
        <ele>124</ele>
        <time>2014-04-15T10:37:02Z</time>
      </trkpt>
      <trkpt lat="47.8211" lon="3.49824">
        <ele>124</ele>
        <time>2014-04-15T10:37:07Z</time>
      </trkpt>
      <trkpt lat="47.82107" lon="3.49829">
        <ele>124</ele>
        <time>2014-04-15T10:37:11Z</time>
      </trkpt>
      <trkpt lat="47.82103" lon="3.49834">
        <ele>126</ele>
        <time>2014-04-15T10:37:15Z</time>
      </trkpt>
      <trkpt lat="47.82098" lon="3.49846">
        <ele>126</ele>
        <time>2014-04-15T10:37:22Z</time>
      </trkpt>
      <trkpt lat="47.82095" lon="3.49851">
        <ele>126</ele>
        <time>2014-04-15T10:37:26Z</time>
      </trkpt>
      <trkpt lat="47.82086" lon="3.49871">
        <ele>127</ele>
        <time>2014-04-15T10:37:38Z</time>
      </trkpt>
      <trkpt lat="47.82087" lon="3.49879">
        <ele>127</ele>
        <time>2014-04-15T10:37:48Z</time>
      </trkpt>
      <trkpt lat="47.82088" lon="3.49884">
        <ele>128</ele>
        <time>2014-04-15T10:38:02Z</time>
      </trkpt>
      <trkpt lat="47.82083" lon="3.49897">
        <ele>127</ele>
        <time>2014-04-15T10:38:12Z</time>
      </trkpt>
      <trkpt lat="47.82078" lon="3.49897">
        <ele>127</ele>
        <time>2014-04-15T10:38:18Z</time>
      </trkpt>
      <trkpt lat="47.82074" lon="3.49898">
        <ele>127</ele>
        <time>2014-04-15T10:38:23Z</time>
      </trkpt>
      <trkpt lat="47.82063" lon="3.49915">
        <ele>127</ele>
        <time>2014-04-15T10:38:42Z</time>
      </trkpt>
      <trkpt lat="47.82062" lon="3.49922">
        <ele>129</ele>
        <time>2014-04-15T10:38:46Z</time>
      </trkpt>
      <trkpt lat="47.82061" lon="3.49929">
        <ele>129</ele>
        <time>2014-04-15T10:38:52Z</time>
      </trkpt>
      <trkpt lat="47.82059" lon="3.49936">
        <ele>129</ele>
        <time>2014-04-15T10:38:58Z</time>
      </trkpt>
      <trkpt lat="47.82055" lon="3.49939">
        <ele>129</ele>
        <time>2014-04-15T10:39:04Z</time>
      </trkpt>
      <trkpt lat="47.82046" lon="3.49957">
        <ele>129</ele>
        <time>2014-04-15T10:39:17Z</time>
      </trkpt>
      <trkpt lat="47.82044" lon="3.49963">
        <ele>129</ele>
        <time>2014-04-15T10:39:24Z</time>
      </trkpt>
      <trkpt lat="47.82039" lon="3.49967">
        <ele>129</ele>
        <time>2014-04-15T10:39:30Z</time>
      </trkpt>
      <trkpt lat="47.82036" lon="3.49973">
        <ele>129</ele>
        <time>2014-04-15T10:39:37Z</time>
      </trkpt>
      <trkpt lat="47.82033" lon="3.49978">
        <ele>129</ele>
        <time>2014-04-15T10:39:41Z</time>
      </trkpt>
      <trkpt lat="47.8203" lon="3.49983">
        <ele>129</ele>
        <time>2014-04-15T10:39:45Z</time>
      </trkpt>
      <trkpt lat="47.82026" lon="3.49987">
        <ele>129</ele>
        <time>2014-04-15T10:39:49Z</time>
      </trkpt>
      <trkpt lat="47.82017" lon="3.50006">
        <ele>130</ele>
        <time>2014-04-15T10:39:59Z</time>
      </trkpt>
      <trkpt lat="47.82013" lon="3.50029">
        <ele>131</ele>
        <time>2014-04-15T10:40:10Z</time>
      </trkpt>
      <trkpt lat="47.82011" lon="3.50035">
        <ele>131</ele>
        <time>2014-04-15T10:40:14Z</time>
      </trkpt>
      <trkpt lat="47.82007" lon="3.50039">
        <ele>131</ele>
        <time>2014-04-15T10:40:18Z</time>
      </trkpt>
      <trkpt lat="47.82003" lon="3.50045">
        <ele>131</ele>
        <time>2014-04-15T10:40:22Z</time>
      </trkpt>
      <trkpt lat="47.81999" lon="3.5005">
        <ele>127</ele>
        <time>2014-04-15T10:40:26Z</time>
      </trkpt>
      <trkpt lat="47.81992" lon="3.50061">
        <ele>128</ele>
        <time>2014-04-15T10:40:35Z</time>
      </trkpt>
      <trkpt lat="47.8199" lon="3.50068">
        <ele>128</ele>
        <time>2014-04-15T10:40:40Z</time>
      </trkpt>
      <trkpt lat="47.81987" lon="3.50073">
        <ele>128</ele>
        <time>2014-04-15T10:40:44Z</time>
      </trkpt>
      <trkpt lat="47.81981" lon="3.50077">
        <ele>128</ele>
        <time>2014-04-15T10:40:48Z</time>
      </trkpt>
      <trkpt lat="47.81976" lon="3.50097">
        <ele>128</ele>
        <time>2014-04-15T10:41:01Z</time>
      </trkpt>
      <trkpt lat="47.81972" lon="3.50101">
        <ele>128</ele>
        <time>2014-04-15T10:41:05Z</time>
      </trkpt>
      <trkpt lat="47.81968" lon="3.50107">
        <ele>128</ele>
        <time>2014-04-15T10:41:09Z</time>
      </trkpt>
      <trkpt lat="47.81963" lon="3.5012">
        <ele>128</ele>
        <time>2014-04-15T10:41:17Z</time>
      </trkpt>
      <trkpt lat="47.81953" lon="3.50137">
        <ele>127</ele>
        <time>2014-04-15T10:41:30Z</time>
      </trkpt>
      <trkpt lat="47.81953" lon="3.50145">
        <ele>127</ele>
        <time>2014-04-15T10:41:33Z</time>
      </trkpt>
      <trkpt lat="47.81952" lon="3.50152">
        <ele>127</ele>
        <time>2014-04-15T10:41:36Z</time>
      </trkpt>
      <trkpt lat="47.8195" lon="3.50158">
        <ele>127</ele>
        <time>2014-04-15T10:41:41Z</time>
      </trkpt>
      <trkpt lat="47.81949" lon="3.50166">
        <ele>127</ele>
        <time>2014-04-15T10:41:48Z</time>
      </trkpt>
      <trkpt lat="47.81945" lon="3.50171">
        <ele>128</ele>
        <time>2014-04-15T10:41:54Z</time>
      </trkpt>
      <trkpt lat="47.81942" lon="3.50177">
        <ele>127</ele>
        <time>2014-04-15T10:41:59Z</time>
      </trkpt>
      <trkpt lat="47.81942" lon="3.50184">
        <ele>128</ele>
        <time>2014-04-15T10:42:03Z</time>
      </trkpt>
      <trkpt lat="47.81935" lon="3.50195">
        <ele>128</ele>
        <time>2014-04-15T10:42:14Z</time>
      </trkpt>
      <trkpt lat="47.81935" lon="3.50207">
        <ele>128</ele>
        <time>2014-04-15T10:42:24Z</time>
      </trkpt>
      <trkpt lat="47.81933" lon="3.50216">
        <ele>128</ele>
        <time>2014-04-15T10:42:34Z</time>
      </trkpt>
      <trkpt lat="47.8193" lon="3.50221">
        <ele>128</ele>
        <time>2014-04-15T10:42:37Z</time>
      </trkpt>
      <trkpt lat="47.81928" lon="3.50228">
        <ele>127</ele>
        <time>2014-04-15T10:42:41Z</time>
      </trkpt>
      <trkpt lat="47.81928" lon="3.50238">
        <ele>127</ele>
        <time>2014-04-15T10:42:46Z</time>
      </trkpt>
      <trkpt lat="47.81926" lon="3.50245">
        <ele>126</ele>
        <time>2014-04-15T10:42:49Z</time>
      </trkpt>
      <trkpt lat="47.81921" lon="3.50258">
        <ele>127</ele>
        <time>2014-04-15T10:42:56Z</time>
      </trkpt>
      <trkpt lat="47.81915" lon="3.5027">
        <ele>124</ele>
        <time>2014-04-15T10:43:04Z</time>
      </trkpt>
      <trkpt lat="47.81909" lon="3.50283">
        <ele>124</ele>
        <time>2014-04-15T10:43:13Z</time>
      </trkpt>
      <trkpt lat="47.81898" lon="3.50299">
        <ele>124</ele>
        <time>2014-04-15T10:43:23Z</time>
      </trkpt>
      <trkpt lat="47.81896" lon="3.50306">
        <ele>124</ele>
        <time>2014-04-15T10:43:27Z</time>
      </trkpt>
      <trkpt lat="47.81893" lon="3.50312">
        <ele>124</ele>
        <time>2014-04-15T10:43:31Z</time>
      </trkpt>
      <trkpt lat="47.81889" lon="3.50317">
        <ele>124</ele>
        <time>2014-04-15T10:43:35Z</time>
      </trkpt>
      <trkpt lat="47.81886" lon="3.50323">
        <ele>124</ele>
        <time>2014-04-15T10:43:40Z</time>
      </trkpt>
      <trkpt lat="47.81882" lon="3.50327">
        <ele>124</ele>
        <time>2014-04-15T10:43:44Z</time>
      </trkpt>
      <trkpt lat="47.81879" lon="3.50333">
        <ele>123</ele>
        <time>2014-04-15T10:43:48Z</time>
      </trkpt>
      <trkpt lat="47.81875" lon="3.50338">
        <ele>124</ele>
        <time>2014-04-15T10:43:53Z</time>
      </trkpt>
      <trkpt lat="47.81866" lon="3.50346">
        <ele>124</ele>
        <time>2014-04-15T10:44:02Z</time>
      </trkpt>
      <trkpt lat="47.81861" lon="3.50349">
        <ele>123</ele>
        <time>2014-04-15T10:44:07Z</time>
      </trkpt>
      <trkpt lat="47.81855" lon="3.50351">
        <ele>123</ele>
        <time>2014-04-15T10:44:11Z</time>
      </trkpt>
      <trkpt lat="47.8185" lon="3.50353">
        <ele>123</ele>
        <time>2014-04-15T10:44:14Z</time>
      </trkpt>
      <trkpt lat="47.81837" lon="3.50365">
        <ele>123</ele>
        <time>2014-04-15T10:44:25Z</time>
      </trkpt>
      <trkpt lat="47.81827" lon="3.5037">
        <ele>122</ele>
        <time>2014-04-15T10:44:33Z</time>
      </trkpt>
      <trkpt lat="47.81818" lon="3.50373">
        <ele>122</ele>
        <time>2014-04-15T10:44:39Z</time>
      </trkpt>
      <trkpt lat="47.81809" lon="3.50382">
        <ele>122</ele>
        <time>2014-04-15T10:44:47Z</time>
      </trkpt>
      <trkpt lat="47.81803" lon="3.50384">
        <ele>122</ele>
        <time>2014-04-15T10:44:51Z</time>
      </trkpt>
      <trkpt lat="47.81798" lon="3.50386">
        <ele>122</ele>
        <time>2014-04-15T10:44:55Z</time>
      </trkpt>
      <trkpt lat="47.81794" lon="3.50389">
        <ele>122</ele>
        <time>2014-04-15T10:44:59Z</time>
      </trkpt>
      <trkpt lat="47.81789" lon="3.50391">
        <ele>122</ele>
        <time>2014-04-15T10:45:04Z</time>
      </trkpt>
      <trkpt lat="47.8178" lon="3.50398">
        <ele>123</ele>
        <time>2014-04-15T10:45:11Z</time>
      </trkpt>
      <trkpt lat="47.81776" lon="3.50402">
        <ele>123</ele>
        <time>2014-04-15T10:45:14Z</time>
      </trkpt>
      <trkpt lat="47.81773" lon="3.50406">
        <ele>123</ele>
        <time>2014-04-15T10:45:17Z</time>
      </trkpt>
      <trkpt lat="47.81777" lon="3.50404">
        <ele>123</ele>
        <time>2014-04-15T10:45:48Z</time>
      </trkpt>
      <trkpt lat="47.81779" lon="3.504">
        <ele>123</ele>
        <time>2014-04-15T10:45:50Z</time>
      </trkpt>
      <trkpt lat="47.81779" lon="3.50395">
        <ele>123</ele>
        <time>2014-04-15T10:45:57Z</time>
      </trkpt>
      <trkpt lat="47.81776" lon="3.50389">
        <ele>123</ele>
        <time>2014-04-15T10:46:04Z</time>
      </trkpt>
      <trkpt lat="47.81772" lon="3.50387">
        <ele>122</ele>
        <time>2014-04-15T10:46:25Z</time>
      </trkpt>
      <trkpt lat="47.81766" lon="3.50389">
        <ele>123</ele>
        <time>2014-04-15T10:46:55Z</time>
      </trkpt>
      <trkpt lat="47.81762" lon="3.50392">
        <ele>123</ele>
        <time>2014-04-15T10:46:58Z</time>
      </trkpt>
      <trkpt lat="47.81747" lon="3.50396">
        <ele>125</ele>
        <time>2014-04-15T10:47:09Z</time>
      </trkpt>
      <trkpt lat="47.81744" lon="3.50407">
        <ele>125</ele>
        <time>2014-04-15T10:47:17Z</time>
      </trkpt>
      <trkpt lat="47.81738" lon="3.50407">
        <ele>125</ele>
        <time>2014-04-15T10:47:26Z</time>
      </trkpt>
      <trkpt lat="47.81734" lon="3.5041">
        <ele>125</ele>
        <time>2014-04-15T10:47:29Z</time>
      </trkpt>
      <trkpt lat="47.81725" lon="3.5041">
        <ele>125</ele>
        <time>2014-04-15T10:47:46Z</time>
      </trkpt>
      <trkpt lat="47.81722" lon="3.50415">
        <ele>125</ele>
        <time>2014-04-15T10:47:57Z</time>
      </trkpt>
      <trkpt lat="47.81717" lon="3.50419">
        <ele>127</ele>
        <time>2014-04-15T10:48:12Z</time>
      </trkpt>
      <trkpt lat="47.81712" lon="3.50414">
        <ele>125</ele>
        <time>2014-04-15T10:48:44Z</time>
      </trkpt>
      <trkpt lat="47.81707" lon="3.50409">
        <ele>126</ele>
        <time>2014-04-15T10:48:49Z</time>
      </trkpt>
      <trkpt lat="47.81703" lon="3.50412">
        <ele>126</ele>
        <time>2014-04-15T10:48:57Z</time>
      </trkpt>
      <trkpt lat="47.81693" lon="3.50418">
        <ele>128</ele>
        <time>2014-04-15T10:49:13Z</time>
      </trkpt>
      <trkpt lat="47.81691" lon="3.50412">
        <ele>126</ele>
        <time>2014-04-15T10:49:20Z</time>
      </trkpt>
      <trkpt lat="47.81689" lon="3.50406">
        <ele>126</ele>
        <time>2014-04-15T10:49:25Z</time>
      </trkpt>
      <trkpt lat="47.81684" lon="3.50404">
        <ele>126</ele>
        <time>2014-04-15T10:49:29Z</time>
      </trkpt>
      <trkpt lat="47.81679" lon="3.50405">
        <ele>127</ele>
        <time>2014-04-15T10:49:33Z</time>
      </trkpt>
      <trkpt lat="47.81674" lon="3.50405">
        <ele>127</ele>
        <time>2014-04-15T10:49:39Z</time>
      </trkpt>
      <trkpt lat="47.81669" lon="3.50406">
        <ele>127</ele>
        <time>2014-04-15T10:49:44Z</time>
      </trkpt>
      <trkpt lat="47.81665" lon="3.5041">
        <ele>129</ele>
        <time>2014-04-15T10:49:48Z</time>
      </trkpt>
      <trkpt lat="47.81663" lon="3.50417">
        <ele>129</ele>
        <time>2014-04-15T10:49:52Z</time>
      </trkpt>
      <trkpt lat="47.81661" lon="3.50423">
        <ele>130</ele>
        <time>2014-04-15T10:49:57Z</time>
      </trkpt>
      <trkpt lat="47.81657" lon="3.50427">
        <ele>131</ele>
        <time>2014-04-15T10:50:01Z</time>
      </trkpt>
      <trkpt lat="47.81652" lon="3.50432">
        <ele>131</ele>
        <time>2014-04-15T10:50:08Z</time>
      </trkpt>
      <trkpt lat="47.81648" lon="3.50437">
        <ele>132</ele>
        <time>2014-04-15T10:50:12Z</time>
      </trkpt>
      <trkpt lat="47.81643" lon="3.50438">
        <ele>132</ele>
        <time>2014-04-15T10:50:18Z</time>
      </trkpt>
      <trkpt lat="47.81638" lon="3.50441">
        <ele>133</ele>
        <time>2014-04-15T10:50:24Z</time>
      </trkpt>
      <trkpt lat="47.81633" lon="3.50442">
        <ele>133</ele>
        <time>2014-04-15T10:50:28Z</time>
      </trkpt>
      <trkpt lat="47.81628" lon="3.50443">
        <ele>133</ele>
        <time>2014-04-15T10:50:32Z</time>
      </trkpt>
      <trkpt lat="47.81619" lon="3.50462">
        <ele>134</ele>
        <time>2014-04-15T10:50:46Z</time>
      </trkpt>
      <trkpt lat="47.81615" lon="3.50467">
        <ele>134</ele>
        <time>2014-04-15T10:50:51Z</time>
      </trkpt>
      <trkpt lat="47.81612" lon="3.50474">
        <ele>135</ele>
        <time>2014-04-15T10:50:55Z</time>
      </trkpt>
      <trkpt lat="47.81611" lon="3.50481">
        <ele>135</ele>
        <time>2014-04-15T10:51:02Z</time>
      </trkpt>
      <trkpt lat="47.81607" lon="3.50487">
        <ele>135</ele>
        <time>2014-04-15T10:51:09Z</time>
      </trkpt>
      <trkpt lat="47.81604" lon="3.50493">
        <ele>135</ele>
        <time>2014-04-15T10:51:13Z</time>
      </trkpt>
      <trkpt lat="47.81601" lon="3.50497">
        <ele>136</ele>
        <time>2014-04-15T10:51:16Z</time>
      </trkpt>
      <trkpt lat="47.81596" lon="3.50501">
        <ele>137</ele>
        <time>2014-04-15T10:51:20Z</time>
      </trkpt>
      <trkpt lat="47.81592" lon="3.50506">
        <ele>137</ele>
        <time>2014-04-15T10:51:25Z</time>
      </trkpt>
      <trkpt lat="47.81584" lon="3.50517">
        <ele>137</ele>
        <time>2014-04-15T10:51:33Z</time>
      </trkpt>
      <trkpt lat="47.8158" lon="3.50521">
        <ele>142</ele>
        <time>2014-04-15T10:51:39Z</time>
      </trkpt>
      <trkpt lat="47.81576" lon="3.50524">
        <ele>142</ele>
        <time>2014-04-15T10:51:44Z</time>
      </trkpt>
      <trkpt lat="47.81563" lon="3.5055">
        <ele>144</ele>
        <time>2014-04-15T10:51:58Z</time>
      </trkpt>
      <trkpt lat="47.81559" lon="3.50555">
        <ele>144</ele>
        <time>2014-04-15T10:52:03Z</time>
      </trkpt>
      <trkpt lat="47.81556" lon="3.5056">
        <ele>144</ele>
        <time>2014-04-15T10:52:08Z</time>
      </trkpt>
      <trkpt lat="47.81552" lon="3.50566">
        <ele>144</ele>
        <time>2014-04-15T10:52:13Z</time>
      </trkpt>
      <trkpt lat="47.81546" lon="3.50569">
        <ele>145</ele>
        <time>2014-04-15T10:52:17Z</time>
      </trkpt>
      <trkpt lat="47.81538" lon="3.50577">
        <ele>146</ele>
        <time>2014-04-15T10:52:25Z</time>
      </trkpt>
      <trkpt lat="47.81537" lon="3.50585">
        <ele>148</ele>
        <time>2014-04-15T10:52:29Z</time>
      </trkpt>
      <trkpt lat="47.81535" lon="3.50591">
        <ele>148</ele>
        <time>2014-04-15T10:52:36Z</time>
      </trkpt>
      <trkpt lat="47.81534" lon="3.50599">
        <ele>149</ele>
        <time>2014-04-15T10:52:40Z</time>
      </trkpt>
      <trkpt lat="47.81529" lon="3.50614">
        <ele>149</ele>
        <time>2014-04-15T10:52:49Z</time>
      </trkpt>
      <trkpt lat="47.81526" lon="3.50619">
        <ele>149</ele>
        <time>2014-04-15T10:52:53Z</time>
      </trkpt>
      <trkpt lat="47.81525" lon="3.50626">
        <ele>150</ele>
        <time>2014-04-15T10:52:57Z</time>
      </trkpt>
      <trkpt lat="47.81527" lon="3.50633">
        <ele>150</ele>
        <time>2014-04-15T10:53:01Z</time>
      </trkpt>
      <trkpt lat="47.81527" lon="3.50641">
        <ele>150</ele>
        <time>2014-04-15T10:53:05Z</time>
      </trkpt>
      <trkpt lat="47.81523" lon="3.50653">
        <ele>151</ele>
        <time>2014-04-15T10:53:12Z</time>
      </trkpt>
      <trkpt lat="47.81519" lon="3.50691">
        <ele>153</ele>
        <time>2014-04-15T10:53:41Z</time>
      </trkpt>
      <trkpt lat="47.81519" lon="3.50699">
        <ele>153</ele>
        <time>2014-04-15T10:53:44Z</time>
      </trkpt>
      <trkpt lat="47.81511" lon="3.50729">
        <ele>154</ele>
        <time>2014-04-15T10:54:03Z</time>
      </trkpt>
      <trkpt lat="47.81512" lon="3.50743">
        <ele>155</ele>
        <time>2014-04-15T10:54:11Z</time>
      </trkpt>
      <trkpt lat="47.81511" lon="3.5075">
        <ele>156</ele>
        <time>2014-04-15T10:54:15Z</time>
      </trkpt>
      <trkpt lat="47.81509" lon="3.50758">
        <ele>156</ele>
        <time>2014-04-15T10:54:19Z</time>
      </trkpt>
      <trkpt lat="47.81508" lon="3.50766">
        <ele>155</ele>
        <time>2014-04-15T10:54:25Z</time>
      </trkpt>
      <trkpt lat="47.81506" lon="3.50774">
        <ele>155</ele>
        <time>2014-04-15T10:54:30Z</time>
      </trkpt>
      <trkpt lat="47.81505" lon="3.50781">
        <ele>155</ele>
        <time>2014-04-15T10:54:34Z</time>
      </trkpt>
      <trkpt lat="47.81505" lon="3.50788">
        <ele>155</ele>
        <time>2014-04-15T10:54:39Z</time>
      </trkpt>
      <trkpt lat="47.81504" lon="3.50795">
        <ele>155</ele>
        <time>2014-04-15T10:54:42Z</time>
      </trkpt>
      <trkpt lat="47.815" lon="3.50802">
        <ele>155</ele>
        <time>2014-04-15T10:54:46Z</time>
      </trkpt>
      <trkpt lat="47.81497" lon="3.50807">
        <ele>160</ele>
        <time>2014-04-15T10:54:52Z</time>
      </trkpt>
      <trkpt lat="47.81497" lon="3.50814">
        <ele>159</ele>
        <time>2014-04-15T10:54:56Z</time>
      </trkpt>
      <trkpt lat="47.81495" lon="3.5082">
        <ele>159</ele>
        <time>2014-04-15T10:54:59Z</time>
      </trkpt>
      <trkpt lat="47.81496" lon="3.50843">
        <ele>159</ele>
        <time>2014-04-15T10:55:10Z</time>
      </trkpt>
      <trkpt lat="47.81495" lon="3.50851">
        <ele>159</ele>
        <time>2014-04-15T10:55:15Z</time>
      </trkpt>
      <trkpt lat="47.81492" lon="3.50857">
        <ele>160</ele>
        <time>2014-04-15T10:55:19Z</time>
      </trkpt>
      <trkpt lat="47.81485" lon="3.50867">
        <ele>160</ele>
        <time>2014-04-15T10:55:26Z</time>
      </trkpt>
      <trkpt lat="47.81484" lon="3.50875">
        <ele>160</ele>
        <time>2014-04-15T10:55:33Z</time>
      </trkpt>
      <trkpt lat="47.81485" lon="3.50878">
        <ele>160</ele>
        <time>2014-04-15T10:55:39Z</time>
      </trkpt>
      <trkpt lat="47.81489" lon="3.50882">
        <ele>160</ele>
        <time>2014-04-15T10:55:46Z</time>
      </trkpt>
      <trkpt lat="47.81486" lon="3.50888">
        <ele>160</ele>
        <time>2014-04-15T10:56:01Z</time>
      </trkpt>
      <trkpt lat="47.8148" lon="3.50894">
        <ele>160</ele>
        <time>2014-04-15T10:56:10Z</time>
      </trkpt>
      <trkpt lat="47.81474" lon="3.50901">
        <ele>160</ele>
        <time>2014-04-15T10:56:13Z</time>
      </trkpt>
      <trkpt lat="47.81469" lon="3.50905">
        <ele>161</ele>
        <time>2014-04-15T10:56:16Z</time>
      </trkpt>
      <trkpt lat="47.81461" lon="3.50932">
        <ele>160</ele>
        <time>2014-04-15T10:56:36Z</time>
      </trkpt>
      <trkpt lat="47.81457" lon="3.50937">
        <ele>160</ele>
        <time>2014-04-15T10:56:40Z</time>
      </trkpt>
      <trkpt lat="47.81446" lon="3.50965">
        <ele>160</ele>
        <time>2014-04-15T10:56:58Z</time>
      </trkpt>
      <trkpt lat="47.81445" lon="3.50973">
        <ele>159</ele>
        <time>2014-04-15T10:57:02Z</time>
      </trkpt>
      <trkpt lat="47.81431" lon="3.50999">
        <ele>160</ele>
        <time>2014-04-15T10:57:20Z</time>
      </trkpt>
      <trkpt lat="47.8143" lon="3.51006">
        <ele>158</ele>
        <time>2014-04-15T10:57:24Z</time>
      </trkpt>
      <trkpt lat="47.81428" lon="3.51014">
        <ele>158</ele>
        <time>2014-04-15T10:57:28Z</time>
      </trkpt>
      <trkpt lat="47.81424" lon="3.51017">
        <ele>157</ele>
        <time>2014-04-15T10:57:33Z</time>
      </trkpt>
      <trkpt lat="47.8142" lon="3.5102">
        <ele>157</ele>
        <time>2014-04-15T10:57:39Z</time>
      </trkpt>
      <trkpt lat="47.81412" lon="3.51039">
        <ele>159</ele>
        <time>2014-04-15T10:57:51Z</time>
      </trkpt>
      <trkpt lat="47.81411" lon="3.51047">
        <ele>159</ele>
        <time>2014-04-15T10:57:55Z</time>
      </trkpt>
      <trkpt lat="47.814" lon="3.51071">
        <ele>158</ele>
        <time>2014-04-15T10:58:13Z</time>
      </trkpt>
      <trkpt lat="47.81398" lon="3.51079">
        <ele>158</ele>
        <time>2014-04-15T10:58:18Z</time>
      </trkpt>
      <trkpt lat="47.8139" lon="3.51092">
        <ele>156</ele>
        <time>2014-04-15T10:58:26Z</time>
      </trkpt>
      <trkpt lat="47.81388" lon="3.51099">
        <ele>156</ele>
        <time>2014-04-15T10:58:30Z</time>
      </trkpt>
      <trkpt lat="47.81388" lon="3.51106">
        <ele>156</ele>
        <time>2014-04-15T10:58:35Z</time>
      </trkpt>
      <trkpt lat="47.81385" lon="3.51112">
        <ele>156</ele>
        <time>2014-04-15T10:58:39Z</time>
      </trkpt>
      <trkpt lat="47.81383" lon="3.51119">
        <ele>156</ele>
        <time>2014-04-15T10:58:43Z</time>
      </trkpt>
      <trkpt lat="47.81383" lon="3.51127">
        <ele>156</ele>
        <time>2014-04-15T10:58:47Z</time>
      </trkpt>
      <trkpt lat="47.81379" lon="3.51141">
        <ele>156</ele>
        <time>2014-04-15T10:58:55Z</time>
      </trkpt>
      <trkpt lat="47.81379" lon="3.51148">
        <ele>155</ele>
        <time>2014-04-15T10:58:59Z</time>
      </trkpt>
      <trkpt lat="47.81377" lon="3.51155">
        <ele>155</ele>
        <time>2014-04-15T10:59:04Z</time>
      </trkpt>
      <trkpt lat="47.81382" lon="3.51159">
        <ele>155</ele>
        <time>2014-04-15T10:59:09Z</time>
      </trkpt>
      <trkpt lat="47.81377" lon="3.5118">
        <ele>153</ele>
        <time>2014-04-15T10:59:21Z</time>
      </trkpt>
      <trkpt lat="47.81372" lon="3.51188">
        <ele>153</ele>
        <time>2014-04-15T10:59:24Z</time>
      </trkpt>
      <trkpt lat="47.81367" lon="3.51193">
        <ele>153</ele>
        <time>2014-04-15T10:59:27Z</time>
      </trkpt>
      <trkpt lat="47.81363" lon="3.51195">
        <ele>153</ele>
        <time>2014-04-15T10:59:39Z</time>
      </trkpt>
      <trkpt lat="47.81361" lon="3.51203">
        <ele>153</ele>
        <time>2014-04-15T10:59:48Z</time>
      </trkpt>
      <trkpt lat="47.81359" lon="3.51209">
        <ele>153</ele>
        <time>2014-04-15T10:59:55Z</time>
      </trkpt>
      <trkpt lat="47.8136" lon="3.51217">
        <ele>153</ele>
        <time>2014-04-15T10:59:59Z</time>
      </trkpt>
      <trkpt lat="47.81357" lon="3.51222">
        <ele>153</ele>
        <time>2014-04-15T11:00:04Z</time>
      </trkpt>
      <trkpt lat="47.81348" lon="3.51239">
        <ele>152</ele>
        <time>2014-04-15T11:00:14Z</time>
      </trkpt>
      <trkpt lat="47.81336" lon="3.51272">
        <ele>151</ele>
        <time>2014-04-15T11:00:29Z</time>
      </trkpt>
      <trkpt lat="47.81331" lon="3.51275">
        <ele>151</ele>
        <time>2014-04-15T11:00:34Z</time>
      </trkpt>
      <trkpt lat="47.81328" lon="3.51289">
        <ele>151</ele>
        <time>2014-04-15T11:00:44Z</time>
      </trkpt>
      <trkpt lat="47.81327" lon="3.51304">
        <ele>150</ele>
        <time>2014-04-15T11:00:51Z</time>
      </trkpt>
      <trkpt lat="47.81328" lon="3.51312">
        <ele>150</ele>
        <time>2014-04-15T11:00:55Z</time>
      </trkpt>
      <trkpt lat="47.81326" lon="3.51321">
        <ele>149</ele>
        <time>2014-04-15T11:00:58Z</time>
      </trkpt>
      <trkpt lat="47.81322" lon="3.51326">
        <ele>149</ele>
        <time>2014-04-15T11:01:02Z</time>
      </trkpt>
      <trkpt lat="47.81316" lon="3.5134">
        <ele>148</ele>
        <time>2014-04-15T11:01:14Z</time>
      </trkpt>
      <trkpt lat="47.81314" lon="3.51346">
        <ele>148</ele>
        <time>2014-04-15T11:01:19Z</time>
      </trkpt>
      <trkpt lat="47.81311" lon="3.51352">
        <ele>148</ele>
        <time>2014-04-15T11:01:23Z</time>
      </trkpt>
      <trkpt lat="47.81307" lon="3.51362">
        <ele>147</ele>
        <time>2014-04-15T11:01:37Z</time>
      </trkpt>
      <trkpt lat="47.81306" lon="3.51369">
        <ele>147</ele>
        <time>2014-04-15T11:01:42Z</time>
      </trkpt>
      <trkpt lat="47.81305" lon="3.51379">
        <ele>147</ele>
        <time>2014-04-15T11:02:05Z</time>
      </trkpt>
      <trkpt lat="47.81304" lon="3.51385">
        <ele>147</ele>
        <time>2014-04-15T11:02:09Z</time>
      </trkpt>
      <trkpt lat="47.81301" lon="3.51392">
        <ele>147</ele>
        <time>2014-04-15T11:02:13Z</time>
      </trkpt>
      <trkpt lat="47.813" lon="3.514">
        <ele>147</ele>
        <time>2014-04-15T11:02:19Z</time>
      </trkpt>
      <trkpt lat="47.81297" lon="3.51405">
        <ele>147</ele>
        <time>2014-04-15T11:02:22Z</time>
      </trkpt>
      <trkpt lat="47.81293" lon="3.51418">
        <ele>144</ele>
        <time>2014-04-15T11:02:32Z</time>
      </trkpt>
      <trkpt lat="47.8129" lon="3.51425">
        <ele>144</ele>
        <time>2014-04-15T11:02:40Z</time>
      </trkpt>
      <trkpt lat="47.81287" lon="3.5143">
        <ele>144</ele>
        <time>2014-04-15T11:02:44Z</time>
      </trkpt>
      <trkpt lat="47.81268" lon="3.51472">
        <ele>142</ele>
        <time>2014-04-15T11:03:10Z</time>
      </trkpt>
      <trkpt lat="47.81264" lon="3.51479">
        <ele>141</ele>
        <time>2014-04-15T11:03:15Z</time>
      </trkpt>
      <trkpt lat="47.81259" lon="3.515">
        <ele>140</ele>
        <time>2014-04-15T11:03:24Z</time>
      </trkpt>
      <trkpt lat="47.8125" lon="3.51521">
        <ele>139</ele>
        <time>2014-04-15T11:03:37Z</time>
      </trkpt>
      <trkpt lat="47.81246" lon="3.51524">
        <ele>135</ele>
        <time>2014-04-15T11:03:42Z</time>
      </trkpt>
      <trkpt lat="47.81241" lon="3.51538">
        <ele>134</ele>
        <time>2014-04-15T11:03:49Z</time>
      </trkpt>
      <trkpt lat="47.81237" lon="3.51544">
        <ele>134</ele>
        <time>2014-04-15T11:03:52Z</time>
      </trkpt>
      <trkpt lat="47.81233" lon="3.51547">
        <ele>134</ele>
        <time>2014-04-15T11:03:58Z</time>
      </trkpt>
      <trkpt lat="47.8122" lon="3.5156">
        <ele>133</ele>
        <time>2014-04-15T11:04:09Z</time>
      </trkpt>
      <trkpt lat="47.81215" lon="3.51566">
        <ele>133</ele>
        <time>2014-04-15T11:04:13Z</time>
      </trkpt>
      <trkpt lat="47.81206" lon="3.51573">
        <ele>133</ele>
        <time>2014-04-15T11:04:21Z</time>
      </trkpt>
      <trkpt lat="47.81202" lon="3.51578">
        <ele>132</ele>
        <time>2014-04-15T11:04:25Z</time>
      </trkpt>
      <trkpt lat="47.81199" lon="3.51584">
        <ele>131</ele>
        <time>2014-04-15T11:04:29Z</time>
      </trkpt>
      <trkpt lat="47.81196" lon="3.51588">
        <ele>131</ele>
        <time>2014-04-15T11:04:32Z</time>
      </trkpt>
      <trkpt lat="47.81192" lon="3.51588">
        <ele>130</ele>
        <time>2014-04-15T11:04:39Z</time>
      </trkpt>
      <trkpt lat="47.81188" lon="3.51592">
        <ele>130</ele>
        <time>2014-04-15T11:04:53Z</time>
      </trkpt>
      <trkpt lat="47.81187" lon="3.516">
        <ele>130</ele>
        <time>2014-04-15T11:04:57Z</time>
      </trkpt>
      <trkpt lat="47.81185" lon="3.51607">
        <ele>130</ele>
        <time>2014-04-15T11:05:01Z</time>
      </trkpt>
      <trkpt lat="47.8118" lon="3.51611">
        <ele>130</ele>
        <time>2014-04-15T11:05:08Z</time>
      </trkpt>
      <trkpt lat="47.81177" lon="3.51617">
        <ele>130</ele>
        <time>2014-04-15T11:05:11Z</time>
      </trkpt>
      <trkpt lat="47.81174" lon="3.51623">
        <ele>130</ele>
        <time>2014-04-15T11:05:16Z</time>
      </trkpt>
      <trkpt lat="47.81168" lon="3.51629">
        <ele>129</ele>
        <time>2014-04-15T11:05:31Z</time>
      </trkpt>
      <trkpt lat="47.81165" lon="3.51624">
        <ele>125</ele>
        <time>2014-04-15T11:05:51Z</time>
      </trkpt>
      <trkpt lat="47.81163" lon="3.51632">
        <ele>125</ele>
        <time>2014-04-15T11:05:56Z</time>
      </trkpt>
      <trkpt lat="47.81155" lon="3.51648">
        <ele>125</ele>
        <time>2014-04-15T11:06:02Z</time>
      </trkpt>
      <trkpt lat="47.81153" lon="3.51656">
        <ele>125</ele>
        <time>2014-04-15T11:06:05Z</time>
      </trkpt>
      <trkpt lat="47.81151" lon="3.51662">
        <ele>125</ele>
        <time>2014-04-15T11:06:08Z</time>
      </trkpt>
      <trkpt lat="47.81146" lon="3.51667">
        <ele>123</ele>
        <time>2014-04-15T11:06:12Z</time>
      </trkpt>
      <trkpt lat="47.81143" lon="3.51672">
        <ele>123</ele>
        <time>2014-04-15T11:06:17Z</time>
      </trkpt>
      <trkpt lat="47.81135" lon="3.517">
        <ele>121</ele>
        <time>2014-04-15T11:06:32Z</time>
      </trkpt>
      <trkpt lat="47.81134" lon="3.51708">
        <ele>121</ele>
        <time>2014-04-15T11:06:35Z</time>
      </trkpt>
      <trkpt lat="47.81131" lon="3.51713">
        <ele>121</ele>
        <time>2014-04-15T11:06:39Z</time>
      </trkpt>
      <trkpt lat="47.81126" lon="3.51718">
        <ele>121</ele>
        <time>2014-04-15T11:06:43Z</time>
      </trkpt>
      <trkpt lat="47.81123" lon="3.51723">
        <ele>120</ele>
        <time>2014-04-15T11:06:47Z</time>
      </trkpt>
      <trkpt lat="47.81121" lon="3.5173">
        <ele>120</ele>
        <time>2014-04-15T11:06:52Z</time>
      </trkpt>
      <trkpt lat="47.81115" lon="3.5174">
        <ele>120</ele>
        <time>2014-04-15T11:06:58Z</time>
      </trkpt>
      <trkpt lat="47.81111" lon="3.51745">
        <ele>119</ele>
        <time>2014-04-15T11:07:07Z</time>
      </trkpt>
      <trkpt lat="47.81104" lon="3.51756">
        <ele>117</ele>
        <time>2014-04-15T11:07:16Z</time>
      </trkpt>
      <trkpt lat="47.811" lon="3.51761">
        <ele>117</ele>
        <time>2014-04-15T11:07:20Z</time>
      </trkpt>
      <trkpt lat="47.81087" lon="3.51784">
        <ele>116</ele>
        <time>2014-04-15T11:07:39Z</time>
      </trkpt>
      <trkpt lat="47.81088" lon="3.51791">
        <ele>116</ele>
        <time>2014-04-15T11:07:45Z</time>
      </trkpt>
      <trkpt lat="47.81086" lon="3.51797">
        <ele>116</ele>
        <time>2014-04-15T11:07:51Z</time>
      </trkpt>
      <trkpt lat="47.81083" lon="3.51804">
        <ele>114</ele>
        <time>2014-04-15T11:07:55Z</time>
      </trkpt>
      <trkpt lat="47.81081" lon="3.51811">
        <ele>114</ele>
        <time>2014-04-15T11:07:59Z</time>
      </trkpt>
      <trkpt lat="47.8107" lon="3.51827">
        <ele>114</ele>
        <time>2014-04-15T11:08:09Z</time>
      </trkpt>
      <trkpt lat="47.81067" lon="3.51833">
        <ele>114</ele>
        <time>2014-04-15T11:08:13Z</time>
      </trkpt>
      <trkpt lat="47.81063" lon="3.51837">
        <ele>113</ele>
        <time>2014-04-15T11:08:19Z</time>
      </trkpt>
      <trkpt lat="47.81056" lon="3.51849">
        <ele>112</ele>
        <time>2014-04-15T11:08:29Z</time>
      </trkpt>
      <trkpt lat="47.81053" lon="3.51856">
        <ele>112</ele>
        <time>2014-04-15T11:08:34Z</time>
      </trkpt>
      <trkpt lat="47.81053" lon="3.51863">
        <ele>112</ele>
        <time>2014-04-15T11:08:39Z</time>
      </trkpt>
      <trkpt lat="47.81049" lon="3.51869">
        <ele>112</ele>
        <time>2014-04-15T11:08:47Z</time>
      </trkpt>
      <trkpt lat="47.8104" lon="3.51897">
        <ele>112</ele>
        <time>2014-04-15T11:09:05Z</time>
      </trkpt>
      <trkpt lat="47.81029" lon="3.51913">
        <ele>112</ele>
        <time>2014-04-15T11:09:18Z</time>
      </trkpt>
      <trkpt lat="47.81024" lon="3.51925">
        <ele>112</ele>
        <time>2014-04-15T11:09:24Z</time>
      </trkpt>
      <trkpt lat="47.81006" lon="3.51951">
        <ele>112</ele>
        <time>2014-04-15T11:09:43Z</time>
      </trkpt>
      <trkpt lat="47.81004" lon="3.51958">
        <ele>112</ele>
        <time>2014-04-15T11:09:47Z</time>
      </trkpt>
      <trkpt lat="47.81001" lon="3.51964">
        <ele>112</ele>
        <time>2014-04-15T11:09:51Z</time>
      </trkpt>
      <trkpt lat="47.81" lon="3.5197">
        <ele>112</ele>
        <time>2014-04-15T11:09:55Z</time>
      </trkpt>
      <trkpt lat="47.80994" lon="3.51982">
        <ele>112</ele>
        <time>2014-04-15T11:10:03Z</time>
      </trkpt>
      <trkpt lat="47.8099" lon="3.51986">
        <ele>112</ele>
        <time>2014-04-15T11:10:08Z</time>
      </trkpt>
      <trkpt lat="47.80987" lon="3.51993">
        <ele>112</ele>
        <time>2014-04-15T11:10:12Z</time>
      </trkpt>
      <trkpt lat="47.80985" lon="3.51999">
        <ele>112</ele>
        <time>2014-04-15T11:10:17Z</time>
      </trkpt>
      <trkpt lat="47.80988" lon="3.52022">
        <ele>113</ele>
        <time>2014-04-15T11:10:27Z</time>
      </trkpt>
      <trkpt lat="47.80987" lon="3.52029">
        <ele>113</ele>
        <time>2014-04-15T11:10:31Z</time>
      </trkpt>
      <trkpt lat="47.80977" lon="3.52061">
        <ele>113</ele>
        <time>2014-04-15T11:10:52Z</time>
      </trkpt>
      <trkpt lat="47.8097" lon="3.5207">
        <ele>113</ele>
        <time>2014-04-15T11:11:00Z</time>
      </trkpt>
      <trkpt lat="47.80968" lon="3.52077">
        <ele>113</ele>
        <time>2014-04-15T11:11:03Z</time>
      </trkpt>
      <trkpt lat="47.80966" lon="3.52084">
        <ele>113</ele>
        <time>2014-04-15T11:11:05Z</time>
      </trkpt>
      <trkpt lat="47.80963" lon="3.52091">
        <ele>113</ele>
        <time>2014-04-15T11:11:08Z</time>
      </trkpt>
      <trkpt lat="47.80951" lon="3.52101">
        <ele>113</ele>
        <time>2014-04-15T11:11:18Z</time>
      </trkpt>
      <trkpt lat="47.80947" lon="3.52102">
        <ele>113</ele>
        <time>2014-04-15T11:11:21Z</time>
      </trkpt>
      <trkpt lat="47.80941" lon="3.52107">
        <ele>113</ele>
        <time>2014-04-15T11:11:25Z</time>
      </trkpt>
      <trkpt lat="47.80937" lon="3.52111">
        <ele>113</ele>
        <time>2014-04-15T11:11:29Z</time>
      </trkpt>
      <trkpt lat="47.80933" lon="3.52107">
        <ele>113</ele>
        <time>2014-04-15T11:11:36Z</time>
      </trkpt>
      <trkpt lat="47.80935" lon="3.5209">
        <ele>113</ele>
        <time>2014-04-15T11:11:43Z</time>
      </trkpt>
      <trkpt lat="47.80938" lon="3.52077">
        <ele>113</ele>
        <time>2014-04-15T11:13:23Z</time>
      </trkpt>
      <trkpt lat="47.8094" lon="3.52078">
        <ele>113</ele>
        <time>2014-04-15T11:16:42Z</time>
      </trkpt>
      <trkpt lat="47.80938" lon="3.52079">
        <ele>113</ele>
        <time>2014-04-15T11:23:36Z</time>
      </trkpt>
      <trkpt lat="47.80935" lon="3.52084">
        <ele>113</ele>
        <time>2014-04-15T11:23:49Z</time>
      </trkpt>
      <trkpt lat="47.80934" lon="3.52091">
        <ele>113</ele>
        <time>2014-04-15T11:24:25Z</time>
      </trkpt>
      <trkpt lat="47.80937" lon="3.52097">
        <ele>113</ele>
        <time>2014-04-15T11:24:30Z</time>
      </trkpt>
      <trkpt lat="47.80939" lon="3.52085">
        <ele>113</ele>
        <time>2014-04-15T11:24:59Z</time>
      </trkpt>
      <trkpt lat="47.80937" lon="3.52079">
        <ele>113</ele>
        <time>2014-04-15T11:25:10Z</time>
      </trkpt>
      <trkpt lat="47.80937" lon="3.52072">
        <ele>113</ele>
        <time>2014-04-15T11:26:23Z</time>
      </trkpt>
      <trkpt lat="47.80943" lon="3.52068">
        <ele>113</ele>
        <time>2014-04-15T11:28:54Z</time>
      </trkpt>
      <trkpt lat="47.80947" lon="3.52071">
        <ele>113</ele>
        <time>2014-04-15T11:29:03Z</time>
      </trkpt>
      <trkpt lat="47.80955" lon="3.52076">
        <ele>113</ele>
        <time>2014-04-15T11:29:51Z</time>
      </trkpt>
      <trkpt lat="47.8096" lon="3.52075">
        <ele>113</ele>
        <time>2014-04-15T11:30:00Z</time>
      </trkpt>
      <trkpt lat="47.80962" lon="3.52081">
        <ele>113</ele>
        <time>2014-04-15T11:30:14Z</time>
      </trkpt>
      <trkpt lat="47.8096" lon="3.52081">
        <ele>113</ele>
        <time>2014-04-15T11:30:34Z</time>
      </trkpt>
      <trkpt lat="47.80956" lon="3.52076">
        <ele>113</ele>
        <time>2014-04-15T11:31:03Z</time>
      </trkpt>
      <trkpt lat="47.80958" lon="3.52069">
        <ele>113</ele>
        <time>2014-04-15T11:32:03Z</time>
      </trkpt>
      <trkpt lat="47.80964" lon="3.52074">
        <ele>113</ele>
        <time>2014-04-15T11:32:31Z</time>
      </trkpt>
      <trkpt lat="47.80963" lon="3.52072">
        <ele>113</ele>
        <time>2014-04-15T11:33:47Z</time>
      </trkpt>
      <trkpt lat="47.80959" lon="3.52076">
        <ele>113</ele>
        <time>2014-04-15T11:34:07Z</time>
      </trkpt>
      <trkpt lat="47.80957" lon="3.52078">
        <ele>113</ele>
        <time>2014-04-15T11:34:47Z</time>
      </trkpt>
      <trkpt lat="47.80952" lon="3.52079">
        <ele>113</ele>
        <time>2014-04-15T11:34:50Z</time>
      </trkpt>
      <trkpt lat="47.80947" lon="3.52079">
        <ele>113</ele>
        <time>2014-04-15T11:35:31Z</time>
      </trkpt>
      <trkpt lat="47.8095" lon="3.52082">
        <ele>113</ele>
        <time>2014-04-15T11:36:35Z</time>
      </trkpt>
      <trkpt lat="47.80954" lon="3.52079">
        <ele>113</ele>
        <time>2014-04-15T11:36:42Z</time>
      </trkpt>
      <trkpt lat="47.80957" lon="3.52073">
        <ele>113</ele>
        <time>2014-04-15T11:36:52Z</time>
      </trkpt>
      <trkpt lat="47.80951" lon="3.52072">
        <ele>113</ele>
        <time>2014-04-15T11:40:32Z</time>
      </trkpt>
      <trkpt lat="47.80947" lon="3.52074">
        <ele>113</ele>
        <time>2014-04-15T11:40:41Z</time>
      </trkpt>
      <trkpt lat="47.80945" lon="3.52077">
        <ele>113</ele>
        <time>2014-04-15T11:41:31Z</time>
      </trkpt>
      <trkpt lat="47.80944" lon="3.52073">
        <ele>113</ele>
        <time>2014-04-15T11:43:07Z</time>
      </trkpt>
      <trkpt lat="47.80949" lon="3.52077">
        <ele>113</ele>
        <time>2014-04-15T11:45:29Z</time>
      </trkpt>
      <trkpt lat="47.80964" lon="3.52079">
        <ele>113</ele>
        <time>2014-04-15T11:45:57Z</time>
      </trkpt>
      <trkpt lat="47.80967" lon="3.52074">
        <ele>113</ele>
        <time>2014-04-15T11:46:01Z</time>
      </trkpt>
      <trkpt lat="47.80965" lon="3.52071">
        <ele>113</ele>
        <time>2014-04-15T11:46:30Z</time>
      </trkpt>
      <trkpt lat="47.8096" lon="3.52072">
        <ele>113</ele>
        <time>2014-04-15T11:46:32Z</time>
      </trkpt>
      <trkpt lat="47.80957" lon="3.52076">
        <ele>113</ele>
        <time>2014-04-15T11:50:32Z</time>
      </trkpt>
      <trkpt lat="47.80954" lon="3.52076">
        <ele>113</ele>
        <time>2014-04-15T11:54:45Z</time>
      </trkpt>
      <trkpt lat="47.80948" lon="3.52078">
        <ele>113</ele>
        <time>2014-04-15T11:54:47Z</time>
      </trkpt>
      <trkpt lat="47.80943" lon="3.52081">
        <ele>113</ele>
        <time>2014-04-15T11:54:49Z</time>
      </trkpt>
      <trkpt lat="47.80939" lon="3.52085">
        <ele>113</ele>
        <time>2014-04-15T11:54:51Z</time>
      </trkpt>
      <trkpt lat="47.8094" lon="3.52085">
        <ele>113</ele>
        <time>2014-04-15T11:55:15Z</time>
      </trkpt>
      <trkpt lat="47.80936" lon="3.52088">
        <ele>113</ele>
        <time>2014-04-15T11:55:35Z</time>
      </trkpt>
      <trkpt lat="47.80937" lon="3.52096">
        <ele>113</ele>
        <time>2014-04-15T11:55:39Z</time>
      </trkpt>
      <trkpt lat="47.80941" lon="3.52102">
        <ele>113</ele>
        <time>2014-04-15T11:55:45Z</time>
      </trkpt>
      <trkpt lat="47.80941" lon="3.5211">
        <ele>113</ele>
        <time>2014-04-15T11:55:51Z</time>
      </trkpt>
      <trkpt lat="47.80935" lon="3.52122">
        <ele>113</ele>
        <time>2014-04-15T11:55:59Z</time>
      </trkpt>
      <trkpt lat="47.80932" lon="3.52128">
        <ele>113</ele>
        <time>2014-04-15T11:56:02Z</time>
      </trkpt>
      <trkpt lat="47.80926" lon="3.5214">
        <ele>112</ele>
        <time>2014-04-15T11:56:10Z</time>
      </trkpt>
      <trkpt lat="47.80922" lon="3.52144">
        <ele>112</ele>
        <time>2014-04-15T11:56:14Z</time>
      </trkpt>
      <trkpt lat="47.80923" lon="3.52151">
        <ele>112</ele>
        <time>2014-04-15T11:56:20Z</time>
      </trkpt>
      <trkpt lat="47.80927" lon="3.52154">
        <ele>112</ele>
        <time>2014-04-15T11:56:23Z</time>
      </trkpt>
      <trkpt lat="47.80929" lon="3.5216">
        <ele>112</ele>
        <time>2014-04-15T11:56:29Z</time>
      </trkpt>
      <trkpt lat="47.80926" lon="3.52167">
        <ele>112</ele>
        <time>2014-04-15T11:56:33Z</time>
      </trkpt>
      <trkpt lat="47.80929" lon="3.52167">
        <ele>112</ele>
        <time>2014-04-15T11:56:39Z</time>
      </trkpt>
      <trkpt lat="47.80928" lon="3.52174">
        <ele>112</ele>
        <time>2014-04-15T11:56:45Z</time>
      </trkpt>
      <trkpt lat="47.80918" lon="3.52194">
        <ele>112</ele>
        <time>2014-04-15T11:56:56Z</time>
      </trkpt>
      <trkpt lat="47.80917" lon="3.522">
        <ele>112</ele>
        <time>2014-04-15T11:57:01Z</time>
      </trkpt>
      <trkpt lat="47.80918" lon="3.52205">
        <ele>112</ele>
        <time>2014-04-15T11:57:08Z</time>
      </trkpt>
      <trkpt lat="47.80916" lon="3.52219">
        <ele>112</ele>
        <time>2014-04-15T11:57:18Z</time>
      </trkpt>
      <trkpt lat="47.80914" lon="3.52226">
        <ele>112</ele>
        <time>2014-04-15T11:57:23Z</time>
      </trkpt>
      <trkpt lat="47.8091" lon="3.5223">
        <ele>112</ele>
        <time>2014-04-15T11:57:26Z</time>
      </trkpt>
      <trkpt lat="47.80905" lon="3.52234">
        <ele>112</ele>
        <time>2014-04-15T11:57:29Z</time>
      </trkpt>
      <trkpt lat="47.80901" lon="3.52236">
        <ele>112</ele>
        <time>2014-04-15T11:57:31Z</time>
      </trkpt>
      <trkpt lat="47.80896" lon="3.52241">
        <ele>113</ele>
        <time>2014-04-15T11:57:34Z</time>
      </trkpt>
      <trkpt lat="47.80891" lon="3.52247">
        <ele>113</ele>
        <time>2014-04-15T11:57:37Z</time>
      </trkpt>
      <trkpt lat="47.80889" lon="3.52253">
        <ele>114</ele>
        <time>2014-04-15T11:57:42Z</time>
      </trkpt>
      <trkpt lat="47.80887" lon="3.52267">
        <ele>114</ele>
        <time>2014-04-15T11:57:50Z</time>
      </trkpt>
      <trkpt lat="47.80884" lon="3.52274">
        <ele>114</ele>
        <time>2014-04-15T11:57:55Z</time>
      </trkpt>
      <trkpt lat="47.80878" lon="3.52284">
        <ele>115</ele>
        <time>2014-04-15T11:58:03Z</time>
      </trkpt>
      <trkpt lat="47.80874" lon="3.52289">
        <ele>115</ele>
        <time>2014-04-15T11:58:07Z</time>
      </trkpt>
      <trkpt lat="47.80868" lon="3.52292">
        <ele>115</ele>
        <time>2014-04-15T11:58:11Z</time>
      </trkpt>
      <trkpt lat="47.80874" lon="3.523">
        <ele>115</ele>
        <time>2014-04-15T11:58:16Z</time>
      </trkpt>
      <trkpt lat="47.80879" lon="3.52302">
        <ele>115</ele>
        <time>2014-04-15T11:58:19Z</time>
      </trkpt>
      <trkpt lat="47.80881" lon="3.52309">
        <ele>115</ele>
        <time>2014-04-15T11:58:33Z</time>
      </trkpt>
      <trkpt lat="47.80878" lon="3.52324">
        <ele>116</ele>
        <time>2014-04-15T11:58:40Z</time>
      </trkpt>
      <trkpt lat="47.80876" lon="3.52331">
        <ele>116</ele>
        <time>2014-04-15T11:58:44Z</time>
      </trkpt>
      <trkpt lat="47.80866" lon="3.52348">
        <ele>118</ele>
        <time>2014-04-15T11:58:55Z</time>
      </trkpt>
      <trkpt lat="47.80864" lon="3.52354">
        <ele>118</ele>
        <time>2014-04-15T11:59:00Z</time>
      </trkpt>
      <trkpt lat="47.80859" lon="3.5236">
        <ele>118</ele>
        <time>2014-04-15T11:59:03Z</time>
      </trkpt>
      <trkpt lat="47.80858" lon="3.52367">
        <ele>118</ele>
        <time>2014-04-15T11:59:07Z</time>
      </trkpt>
      <trkpt lat="47.80858" lon="3.52375">
        <ele>119</ele>
        <time>2014-04-15T11:59:12Z</time>
      </trkpt>
      <trkpt lat="47.80857" lon="3.52382">
        <ele>119</ele>
        <time>2014-04-15T11:59:16Z</time>
      </trkpt>
      <trkpt lat="47.80855" lon="3.52389">
        <ele>119</ele>
        <time>2014-04-15T11:59:20Z</time>
      </trkpt>
      <trkpt lat="47.80851" lon="3.52395">
        <ele>119</ele>
        <time>2014-04-15T11:59:24Z</time>
      </trkpt>
      <trkpt lat="47.80847" lon="3.524">
        <ele>119</ele>
        <time>2014-04-15T11:59:27Z</time>
      </trkpt>
      <trkpt lat="47.80842" lon="3.52404">
        <ele>119</ele>
        <time>2014-04-15T11:59:30Z</time>
      </trkpt>
      <trkpt lat="47.80835" lon="3.52417">
        <ele>120</ele>
        <time>2014-04-15T11:59:38Z</time>
      </trkpt>
      <trkpt lat="47.80828" lon="3.52455">
        <ele>123</ele>
        <time>2014-04-15T12:00:01Z</time>
      </trkpt>
      <trkpt lat="47.80831" lon="3.52459">
        <ele>123</ele>
        <time>2014-04-15T12:00:26Z</time>
      </trkpt>
      <trkpt lat="47.80826" lon="3.52463">
        <ele>123</ele>
        <time>2014-04-15T12:00:28Z</time>
      </trkpt>
      <trkpt lat="47.80829" lon="3.52466">
        <ele>123</ele>
        <time>2014-04-15T12:00:38Z</time>
      </trkpt>
      <trkpt lat="47.80827" lon="3.52481">
        <ele>123</ele>
        <time>2014-04-15T12:01:40Z</time>
      </trkpt>
      <trkpt lat="47.8081" lon="3.52518">
        <ele>126</ele>
        <time>2014-04-15T12:02:03Z</time>
      </trkpt>
      <trkpt lat="47.80807" lon="3.52524">
        <ele>126</ele>
        <time>2014-04-15T12:02:07Z</time>
      </trkpt>
      <trkpt lat="47.80809" lon="3.52531">
        <ele>127</ele>
        <time>2014-04-15T12:02:11Z</time>
      </trkpt>
      <trkpt lat="47.8081" lon="3.52539">
        <ele>127</ele>
        <time>2014-04-15T12:02:16Z</time>
      </trkpt>
      <trkpt lat="47.80808" lon="3.52546">
        <ele>127</ele>
        <time>2014-04-15T12:02:20Z</time>
      </trkpt>
      <trkpt lat="47.80789" lon="3.52591">
        <ele>130</ele>
        <time>2014-04-15T12:02:52Z</time>
      </trkpt>
      <trkpt lat="47.80785" lon="3.52596">
        <ele>130</ele>
        <time>2014-04-15T12:02:57Z</time>
      </trkpt>
      <trkpt lat="47.80782" lon="3.52609">
        <ele>131</ele>
        <time>2014-04-15T12:03:03Z</time>
      </trkpt>
      <trkpt lat="47.8077" lon="3.52635">
        <ele>131</ele>
        <time>2014-04-15T12:03:19Z</time>
      </trkpt>
      <trkpt lat="47.80763" lon="3.52646">
        <ele>131</ele>
        <time>2014-04-15T12:03:29Z</time>
      </trkpt>
      <trkpt lat="47.80753" lon="3.52654">
        <ele>132</ele>
        <time>2014-04-15T12:03:40Z</time>
      </trkpt>
      <trkpt lat="47.8075" lon="3.5266">
        <ele>132</ele>
        <time>2014-04-15T12:03:44Z</time>
      </trkpt>
      <trkpt lat="47.80748" lon="3.52675">
        <ele>134</ele>
        <time>2014-04-15T12:03:52Z</time>
      </trkpt>
      <trkpt lat="47.80746" lon="3.52682">
        <ele>135</ele>
        <time>2014-04-15T12:03:55Z</time>
      </trkpt>
      <trkpt lat="47.80746" lon="3.52689">
        <ele>135</ele>
        <time>2014-04-15T12:03:59Z</time>
      </trkpt>
      <trkpt lat="47.80749" lon="3.52696">
        <ele>136</ele>
        <time>2014-04-15T12:04:03Z</time>
      </trkpt>
      <trkpt lat="47.80746" lon="3.52709">
        <ele>136</ele>
        <time>2014-04-15T12:04:09Z</time>
      </trkpt>
      <trkpt lat="47.80746" lon="3.52717">
        <ele>137</ele>
        <time>2014-04-15T12:04:14Z</time>
      </trkpt>
      <trkpt lat="47.80744" lon="3.52725">
        <ele>137</ele>
        <time>2014-04-15T12:04:18Z</time>
      </trkpt>
      <trkpt lat="47.80739" lon="3.52728">
        <ele>137</ele>
        <time>2014-04-15T12:04:20Z</time>
      </trkpt>
      <trkpt lat="47.80735" lon="3.52732">
        <ele>137</ele>
        <time>2014-04-15T12:04:23Z</time>
      </trkpt>
      <trkpt lat="47.80738" lon="3.52754">
        <ele>139</ele>
        <time>2014-04-15T12:04:36Z</time>
      </trkpt>
      <trkpt lat="47.80741" lon="3.52761">
        <ele>139</ele>
        <time>2014-04-15T12:04:40Z</time>
      </trkpt>
      <trkpt lat="47.80747" lon="3.52783">
        <ele>139</ele>
        <time>2014-04-15T12:04:51Z</time>
      </trkpt>
      <trkpt lat="47.80749" lon="3.52791">
        <ele>139</ele>
        <time>2014-04-15T12:04:56Z</time>
      </trkpt>
      <trkpt lat="47.80748" lon="3.52798">
        <ele>139</ele>
        <time>2014-04-15T12:05:00Z</time>
      </trkpt>
      <trkpt lat="47.80746" lon="3.52813">
        <ele>140</ele>
        <time>2014-04-15T12:05:08Z</time>
      </trkpt>
      <trkpt lat="47.80746" lon="3.52821">
        <ele>139</ele>
        <time>2014-04-15T12:05:12Z</time>
      </trkpt>
      <trkpt lat="47.80737" lon="3.52849">
        <ele>141</ele>
        <time>2014-04-15T12:05:29Z</time>
      </trkpt>
      <trkpt lat="47.80734" lon="3.52855">
        <ele>141</ele>
        <time>2014-04-15T12:05:34Z</time>
      </trkpt>
      <trkpt lat="47.8073" lon="3.5287">
        <ele>142</ele>
        <time>2014-04-15T12:05:43Z</time>
      </trkpt>
      <trkpt lat="47.80729" lon="3.52877">
        <ele>142</ele>
        <time>2014-04-15T12:05:47Z</time>
      </trkpt>
      <trkpt lat="47.80724" lon="3.52891">
        <ele>142</ele>
        <time>2014-04-15T12:05:56Z</time>
      </trkpt>
      <trkpt lat="47.80722" lon="3.52898">
        <ele>142</ele>
        <time>2014-04-15T12:06:01Z</time>
      </trkpt>
      <trkpt lat="47.80723" lon="3.52913">
        <ele>142</ele>
        <time>2014-04-15T12:06:10Z</time>
      </trkpt>
      <trkpt lat="47.80721" lon="3.5292">
        <ele>144</ele>
        <time>2014-04-15T12:06:14Z</time>
      </trkpt>
      <trkpt lat="47.80719" lon="3.52934">
        <ele>144</ele>
        <time>2014-04-15T12:06:23Z</time>
      </trkpt>
      <trkpt lat="47.80721" lon="3.52946">
        <ele>144</ele>
        <time>2014-04-15T12:06:36Z</time>
      </trkpt>
      <trkpt lat="47.80717" lon="3.5297">
        <ele>145</ele>
        <time>2014-04-15T12:06:45Z</time>
      </trkpt>
      <trkpt lat="47.80714" lon="3.52979">
        <ele>145</ele>
        <time>2014-04-15T12:06:48Z</time>
      </trkpt>
      <trkpt lat="47.80697" lon="3.53012">
        <ele>148</ele>
        <time>2014-04-15T12:07:03Z</time>
      </trkpt>
      <trkpt lat="47.80694" lon="3.53027">
        <ele>149</ele>
        <time>2014-04-15T12:07:10Z</time>
      </trkpt>
      <trkpt lat="47.80692" lon="3.53033">
        <ele>149</ele>
        <time>2014-04-15T12:07:15Z</time>
      </trkpt>
      <trkpt lat="47.80684" lon="3.53043">
        <ele>149</ele>
        <time>2014-04-15T12:07:24Z</time>
      </trkpt>
      <trkpt lat="47.80681" lon="3.53049">
        <ele>149</ele>
        <time>2014-04-15T12:07:29Z</time>
      </trkpt>
      <trkpt lat="47.80673" lon="3.5306">
        <ele>150</ele>
        <time>2014-04-15T12:07:37Z</time>
      </trkpt>
      <trkpt lat="47.8067" lon="3.53065">
        <ele>150</ele>
        <time>2014-04-15T12:07:40Z</time>
      </trkpt>
      <trkpt lat="47.80665" lon="3.53078">
        <ele>152</ele>
        <time>2014-04-15T12:07:47Z</time>
      </trkpt>
      <trkpt lat="47.80663" lon="3.53086">
        <ele>152</ele>
        <time>2014-04-15T12:07:51Z</time>
      </trkpt>
      <trkpt lat="47.80663" lon="3.53093">
        <ele>153</ele>
        <time>2014-04-15T12:07:55Z</time>
      </trkpt>
      <trkpt lat="47.80664" lon="3.531">
        <ele>153</ele>
        <time>2014-04-15T12:08:01Z</time>
      </trkpt>
      <trkpt lat="47.80666" lon="3.53105">
        <ele>153</ele>
        <time>2014-04-15T12:08:06Z</time>
      </trkpt>
      <trkpt lat="47.80673" lon="3.53116">
        <ele>153</ele>
        <time>2014-04-15T12:08:16Z</time>
      </trkpt>
      <trkpt lat="47.80677" lon="3.53122">
        <ele>153</ele>
        <time>2014-04-15T12:08:22Z</time>
      </trkpt>
      <trkpt lat="47.80679" lon="3.53129">
        <ele>153</ele>
        <time>2014-04-15T12:08:27Z</time>
      </trkpt>
      <trkpt lat="47.80679" lon="3.53136">
        <ele>153</ele>
        <time>2014-04-15T12:08:32Z</time>
      </trkpt>
      <trkpt lat="47.80678" lon="3.53143">
        <ele>154</ele>
        <time>2014-04-15T12:08:37Z</time>
      </trkpt>
      <trkpt lat="47.80681" lon="3.5315">
        <ele>154</ele>
        <time>2014-04-15T12:08:41Z</time>
      </trkpt>
      <trkpt lat="47.80681" lon="3.53159">
        <ele>154</ele>
        <time>2014-04-15T12:08:45Z</time>
      </trkpt>
      <trkpt lat="47.8068" lon="3.53165">
        <ele>154</ele>
        <time>2014-04-15T12:08:48Z</time>
      </trkpt>
      <trkpt lat="47.80678" lon="3.53171">
        <ele>155</ele>
        <time>2014-04-15T12:08:50Z</time>
      </trkpt>
      <trkpt lat="47.8067" lon="3.53183">
        <ele>155</ele>
        <time>2014-04-15T12:08:58Z</time>
      </trkpt>
      <trkpt lat="47.80669" lon="3.5319">
        <ele>155</ele>
        <time>2014-04-15T12:09:04Z</time>
      </trkpt>
      <trkpt lat="47.80665" lon="3.53193">
        <ele>156</ele>
        <time>2014-04-15T12:09:09Z</time>
      </trkpt>
      <trkpt lat="47.8065" lon="3.5323">
        <ele>157</ele>
        <time>2014-04-15T12:09:37Z</time>
      </trkpt>
      <trkpt lat="47.80639" lon="3.53248">
        <ele>157</ele>
        <time>2014-04-15T12:09:50Z</time>
      </trkpt>
      <trkpt lat="47.80639" lon="3.53256">
        <ele>158</ele>
        <time>2014-04-15T12:09:54Z</time>
      </trkpt>
      <trkpt lat="47.8064" lon="3.53263">
        <ele>158</ele>
        <time>2014-04-15T12:09:57Z</time>
      </trkpt>
      <trkpt lat="47.80645" lon="3.53268">
        <ele>158</ele>
        <time>2014-04-15T12:10:01Z</time>
      </trkpt>
      <trkpt lat="47.80648" lon="3.53273">
        <ele>158</ele>
        <time>2014-04-15T12:10:04Z</time>
      </trkpt>
      <trkpt lat="47.80648" lon="3.5328">
        <ele>158</ele>
        <time>2014-04-15T12:10:08Z</time>
      </trkpt>
      <trkpt lat="47.80645" lon="3.53287">
        <ele>158</ele>
        <time>2014-04-15T12:10:12Z</time>
      </trkpt>
      <trkpt lat="47.80645" lon="3.53302">
        <ele>159</ele>
        <time>2014-04-15T12:10:18Z</time>
      </trkpt>
      <trkpt lat="47.80643" lon="3.5331">
        <ele>159</ele>
        <time>2014-04-15T12:10:20Z</time>
      </trkpt>
      <trkpt lat="47.80641" lon="3.53316">
        <ele>159</ele>
        <time>2014-04-15T12:10:34Z</time>
      </trkpt>
      <trkpt lat="47.80638" lon="3.53321">
        <ele>159</ele>
        <time>2014-04-15T12:10:37Z</time>
      </trkpt>
      <trkpt lat="47.80636" lon="3.53335">
        <ele>160</ele>
        <time>2014-04-15T12:10:45Z</time>
      </trkpt>
      <trkpt lat="47.80633" lon="3.53348">
        <ele>160</ele>
        <time>2014-04-15T12:10:54Z</time>
      </trkpt>
      <trkpt lat="47.80628" lon="3.53353">
        <ele>161</ele>
        <time>2014-04-15T12:11:00Z</time>
      </trkpt>
      <trkpt lat="47.80628" lon="3.53359">
        <ele>161</ele>
        <time>2014-04-15T12:11:09Z</time>
      </trkpt>
      <trkpt lat="47.80626" lon="3.53366">
        <ele>161</ele>
        <time>2014-04-15T12:11:23Z</time>
      </trkpt>
      <trkpt lat="47.80621" lon="3.53366">
        <ele>161</ele>
        <time>2014-04-15T12:11:30Z</time>
      </trkpt>
      <trkpt lat="47.80617" lon="3.53362">
        <ele>161</ele>
        <time>2014-04-15T12:11:35Z</time>
      </trkpt>
      <trkpt lat="47.80615" lon="3.53369">
        <ele>161</ele>
        <time>2014-04-15T12:11:42Z</time>
      </trkpt>
      <trkpt lat="47.80612" lon="3.53385">
        <ele>161</ele>
        <time>2014-04-15T12:11:48Z</time>
      </trkpt>
      <trkpt lat="47.8061" lon="3.53393">
        <ele>161</ele>
        <time>2014-04-15T12:11:51Z</time>
      </trkpt>
      <trkpt lat="47.80606" lon="3.53399">
        <ele>162</ele>
        <time>2014-04-15T12:11:55Z</time>
      </trkpt>
      <trkpt lat="47.80604" lon="3.53405">
        <ele>162</ele>
        <time>2014-04-15T12:11:58Z</time>
      </trkpt>
      <trkpt lat="47.80601" lon="3.53419">
        <ele>163</ele>
        <time>2014-04-15T12:12:06Z</time>
      </trkpt>
      <trkpt lat="47.80599" lon="3.53434">
        <ele>163</ele>
        <time>2014-04-15T12:12:15Z</time>
      </trkpt>
      <trkpt lat="47.80597" lon="3.53441">
        <ele>163</ele>
        <time>2014-04-15T12:12:18Z</time>
      </trkpt>
      <trkpt lat="47.80593" lon="3.53448">
        <ele>163</ele>
        <time>2014-04-15T12:12:22Z</time>
      </trkpt>
      <trkpt lat="47.80591" lon="3.53455">
        <ele>164</ele>
        <time>2014-04-15T12:12:30Z</time>
      </trkpt>
      <trkpt lat="47.80588" lon="3.53462">
        <ele>164</ele>
        <time>2014-04-15T12:12:34Z</time>
      </trkpt>
      <trkpt lat="47.80586" lon="3.53468">
        <ele>164</ele>
        <time>2014-04-15T12:12:38Z</time>
      </trkpt>
      <trkpt lat="47.80585" lon="3.53476">
        <ele>164</ele>
        <time>2014-04-15T12:12:45Z</time>
      </trkpt>
      <trkpt lat="47.80575" lon="3.53493">
        <ele>165</ele>
        <time>2014-04-15T12:12:55Z</time>
      </trkpt>
      <trkpt lat="47.8057" lon="3.53505">
        <ele>166</ele>
        <time>2014-04-15T12:13:01Z</time>
      </trkpt>
      <trkpt lat="47.80568" lon="3.53512">
        <ele>166</ele>
        <time>2014-04-15T12:13:05Z</time>
      </trkpt>
      <trkpt lat="47.80568" lon="3.5352">
        <ele>167</ele>
        <time>2014-04-15T12:13:09Z</time>
      </trkpt>
      <trkpt lat="47.80566" lon="3.53528">
        <ele>167</ele>
        <time>2014-04-15T12:13:12Z</time>
      </trkpt>
      <trkpt lat="47.80554" lon="3.53551">
        <ele>168</ele>
        <time>2014-04-15T12:13:29Z</time>
      </trkpt>
      <trkpt lat="47.80551" lon="3.53556">
        <ele>168</ele>
        <time>2014-04-15T12:13:33Z</time>
      </trkpt>
      <trkpt lat="47.80542" lon="3.53565">
        <ele>168</ele>
        <time>2014-04-15T12:13:41Z</time>
      </trkpt>
      <trkpt lat="47.80539" lon="3.53571">
        <ele>168</ele>
        <time>2014-04-15T12:13:46Z</time>
      </trkpt>
      <trkpt lat="47.80538" lon="3.53579">
        <ele>168</ele>
        <time>2014-04-15T12:13:53Z</time>
      </trkpt>
      <trkpt lat="47.80534" lon="3.53583">
        <ele>168</ele>
        <time>2014-04-15T12:13:57Z</time>
      </trkpt>
      <trkpt lat="47.80529" lon="3.53586">
        <ele>170</ele>
        <time>2014-04-15T12:14:00Z</time>
      </trkpt>
      <trkpt lat="47.80524" lon="3.5359">
        <ele>170</ele>
        <time>2014-04-15T12:14:03Z</time>
      </trkpt>
      <trkpt lat="47.8052" lon="3.53595">
        <ele>170</ele>
        <time>2014-04-15T12:14:07Z</time>
      </trkpt>
      <trkpt lat="47.80517" lon="3.53602">
        <ele>170</ele>
        <time>2014-04-15T12:14:10Z</time>
      </trkpt>
      <trkpt lat="47.80513" lon="3.53605">
        <ele>170</ele>
        <time>2014-04-15T12:14:13Z</time>
      </trkpt>
      <trkpt lat="47.80501" lon="3.53617">
        <ele>171</ele>
        <time>2014-04-15T12:14:24Z</time>
      </trkpt>
      <trkpt lat="47.80493" lon="3.53629">
        <ele>172</ele>
        <time>2014-04-15T12:14:33Z</time>
      </trkpt>
      <trkpt lat="47.8048" lon="3.53641">
        <ele>172</ele>
        <time>2014-04-15T12:14:43Z</time>
      </trkpt>
      <trkpt lat="47.80476" lon="3.53644">
        <ele>172</ele>
        <time>2014-04-15T12:14:47Z</time>
      </trkpt>
      <trkpt lat="47.80473" lon="3.5365">
        <ele>172</ele>
        <time>2014-04-15T12:14:52Z</time>
      </trkpt>
      <trkpt lat="47.80476" lon="3.53658">
        <ele>172</ele>
        <time>2014-04-15T12:14:56Z</time>
      </trkpt>
      <trkpt lat="47.80485" lon="3.53665">
        <ele>173</ele>
        <time>2014-04-15T12:15:04Z</time>
      </trkpt>
      <trkpt lat="47.80488" lon="3.53671">
        <ele>174</ele>
        <time>2014-04-15T12:15:08Z</time>
      </trkpt>
      <trkpt lat="47.80484" lon="3.53676">
        <ele>174</ele>
        <time>2014-04-15T12:15:12Z</time>
      </trkpt>
      <trkpt lat="47.80479" lon="3.53674">
        <ele>174</ele>
        <time>2014-04-15T12:15:15Z</time>
      </trkpt>
      <trkpt lat="47.80474" lon="3.5367">
        <ele>174</ele>
        <time>2014-04-15T12:15:18Z</time>
      </trkpt>
      <trkpt lat="47.80469" lon="3.5367">
        <ele>174</ele>
        <time>2014-04-15T12:15:21Z</time>
      </trkpt>
      <trkpt lat="47.80464" lon="3.53668">
        <ele>174</ele>
        <time>2014-04-15T12:15:26Z</time>
      </trkpt>
      <trkpt lat="47.80458" lon="3.53666">
        <ele>172</ele>
        <time>2014-04-15T12:15:33Z</time>
      </trkpt>
      <trkpt lat="47.80448" lon="3.5368">
        <ele>174</ele>
        <time>2014-04-15T12:15:41Z</time>
      </trkpt>
      <trkpt lat="47.80439" lon="3.537">
        <ele>174</ele>
        <time>2014-04-15T12:15:50Z</time>
      </trkpt>
      <trkpt lat="47.80431" lon="3.53711">
        <ele>174</ele>
        <time>2014-04-15T12:15:57Z</time>
      </trkpt>
      <trkpt lat="47.80428" lon="3.53716">
        <ele>174</ele>
        <time>2014-04-15T12:16:02Z</time>
      </trkpt>
      <trkpt lat="47.80426" lon="3.53723">
        <ele>175</ele>
        <time>2014-04-15T12:16:08Z</time>
      </trkpt>
      <trkpt lat="47.80422" lon="3.53727">
        <ele>175</ele>
        <time>2014-04-15T12:16:12Z</time>
      </trkpt>
      <trkpt lat="47.80418" lon="3.53733">
        <ele>175</ele>
        <time>2014-04-15T12:16:16Z</time>
      </trkpt>
      <trkpt lat="47.80416" lon="3.5374">
        <ele>175</ele>
        <time>2014-04-15T12:16:20Z</time>
      </trkpt>
      <trkpt lat="47.8041" lon="3.53753">
        <ele>177</ele>
        <time>2014-04-15T12:16:28Z</time>
      </trkpt>
      <trkpt lat="47.80405" lon="3.53759">
        <ele>177</ele>
        <time>2014-04-15T12:16:32Z</time>
      </trkpt>
      <trkpt lat="47.80403" lon="3.53766">
        <ele>177</ele>
        <time>2014-04-15T12:16:36Z</time>
      </trkpt>
      <trkpt lat="47.80404" lon="3.53771">
        <ele>177</ele>
        <time>2014-04-15T12:16:45Z</time>
      </trkpt>
      <trkpt lat="47.80402" lon="3.53778">
        <ele>178</ele>
        <time>2014-04-15T12:17:02Z</time>
      </trkpt>
      <trkpt lat="47.8039" lon="3.53804">
        <ele>178</ele>
        <time>2014-04-15T12:17:16Z</time>
      </trkpt>
      <trkpt lat="47.80389" lon="3.53811">
        <ele>179</ele>
        <time>2014-04-15T12:17:27Z</time>
      </trkpt>
      <trkpt lat="47.80385" lon="3.53816">
        <ele>179</ele>
        <time>2014-04-15T12:17:32Z</time>
      </trkpt>
      <trkpt lat="47.80375" lon="3.5385">
        <ele>181</ele>
        <time>2014-04-15T12:17:53Z</time>
      </trkpt>
      <trkpt lat="47.80371" lon="3.53856">
        <ele>181</ele>
        <time>2014-04-15T12:17:57Z</time>
      </trkpt>
      <trkpt lat="47.80367" lon="3.53858">
        <ele>182</ele>
        <time>2014-04-15T12:18:00Z</time>
      </trkpt>
      <trkpt lat="47.80361" lon="3.53859">
        <ele>182</ele>
        <time>2014-04-15T12:18:03Z</time>
      </trkpt>
      <trkpt lat="47.80357" lon="3.53863">
        <ele>182</ele>
        <time>2014-04-15T12:18:07Z</time>
      </trkpt>
      <trkpt lat="47.80352" lon="3.53885">
        <ele>182</ele>
        <time>2014-04-15T12:18:19Z</time>
      </trkpt>
      <trkpt lat="47.80349" lon="3.53891">
        <ele>183</ele>
        <time>2014-04-15T12:18:23Z</time>
      </trkpt>
      <trkpt lat="47.80345" lon="3.53913">
        <ele>184</ele>
        <time>2014-04-15T12:18:34Z</time>
      </trkpt>
      <trkpt lat="47.8034" lon="3.53928">
        <ele>184</ele>
        <time>2014-04-15T12:18:42Z</time>
      </trkpt>
      <trkpt lat="47.80336" lon="3.53934">
        <ele>184</ele>
        <time>2014-04-15T12:18:47Z</time>
      </trkpt>
      <trkpt lat="47.80327" lon="3.53944">
        <ele>187</ele>
        <time>2014-04-15T12:18:56Z</time>
      </trkpt>
      <trkpt lat="47.80326" lon="3.53951">
        <ele>187</ele>
        <time>2014-04-15T12:19:00Z</time>
      </trkpt>
      <trkpt lat="47.80322" lon="3.53957">
        <ele>187</ele>
        <time>2014-04-15T12:19:03Z</time>
      </trkpt>
      <trkpt lat="47.80311" lon="3.53973">
        <ele>188</ele>
        <time>2014-04-15T12:19:16Z</time>
      </trkpt>
      <trkpt lat="47.80311" lon="3.53988">
        <ele>187</ele>
        <time>2014-04-15T12:19:28Z</time>
      </trkpt>
      <trkpt lat="47.80308" lon="3.53994">
        <ele>187</ele>
        <time>2014-04-15T12:19:34Z</time>
      </trkpt>
      <trkpt lat="47.80305" lon="3.54001">
        <ele>188</ele>
        <time>2014-04-15T12:19:39Z</time>
      </trkpt>
      <trkpt lat="47.80301" lon="3.54007">
        <ele>188</ele>
        <time>2014-04-15T12:19:43Z</time>
      </trkpt>
      <trkpt lat="47.803" lon="3.54015">
        <ele>188</ele>
        <time>2014-04-15T12:19:47Z</time>
      </trkpt>
      <trkpt lat="47.80282" lon="3.54042">
        <ele>189</ele>
        <time>2014-04-15T12:20:06Z</time>
      </trkpt>
      <trkpt lat="47.80279" lon="3.54049">
        <ele>189</ele>
        <time>2014-04-15T12:20:10Z</time>
      </trkpt>
      <trkpt lat="47.8028" lon="3.54057">
        <ele>189</ele>
        <time>2014-04-15T12:20:14Z</time>
      </trkpt>
      <trkpt lat="47.80278" lon="3.54065">
        <ele>189</ele>
        <time>2014-04-15T12:20:18Z</time>
      </trkpt>
      <trkpt lat="47.80274" lon="3.5407">
        <ele>190</ele>
        <time>2014-04-15T12:20:21Z</time>
      </trkpt>
      <trkpt lat="47.80268" lon="3.54073">
        <ele>190</ele>
        <time>2014-04-15T12:20:24Z</time>
      </trkpt>
      <trkpt lat="47.80263" lon="3.54076">
        <ele>190</ele>
        <time>2014-04-15T12:20:27Z</time>
      </trkpt>
      <trkpt lat="47.80259" lon="3.5408">
        <ele>190</ele>
        <time>2014-04-15T12:20:30Z</time>
      </trkpt>
      <trkpt lat="47.80255" lon="3.54086">
        <ele>191</ele>
        <time>2014-04-15T12:20:34Z</time>
      </trkpt>
      <trkpt lat="47.80238" lon="3.54107">
        <ele>192</ele>
        <time>2014-04-15T12:20:46Z</time>
      </trkpt>
      <trkpt lat="47.80231" lon="3.54118">
        <ele>193</ele>
        <time>2014-04-15T12:20:55Z</time>
      </trkpt>
      <trkpt lat="47.8023" lon="3.54134">
        <ele>192</ele>
        <time>2014-04-15T12:21:03Z</time>
      </trkpt>
      <trkpt lat="47.80227" lon="3.54146">
        <ele>192</ele>
        <time>2014-04-15T12:21:12Z</time>
      </trkpt>
      <trkpt lat="47.80223" lon="3.5415">
        <ele>192</ele>
        <time>2014-04-15T12:21:17Z</time>
      </trkpt>
      <trkpt lat="47.80221" lon="3.54156">
        <ele>192</ele>
        <time>2014-04-15T12:21:22Z</time>
      </trkpt>
      <trkpt lat="47.80221" lon="3.54171">
        <ele>192</ele>
        <time>2014-04-15T12:21:31Z</time>
      </trkpt>
      <trkpt lat="47.80219" lon="3.54179">
        <ele>192</ele>
        <time>2014-04-15T12:21:35Z</time>
      </trkpt>
      <trkpt lat="47.8021" lon="3.54186">
        <ele>193</ele>
        <time>2014-04-15T12:21:46Z</time>
      </trkpt>
      <trkpt lat="47.80209" lon="3.54195">
        <ele>193</ele>
        <time>2014-04-15T12:21:51Z</time>
      </trkpt>
      <trkpt lat="47.80206" lon="3.542">
        <ele>193</ele>
        <time>2014-04-15T12:21:54Z</time>
      </trkpt>
      <trkpt lat="47.80202" lon="3.54205">
        <ele>194</ele>
        <time>2014-04-15T12:21:57Z</time>
      </trkpt>
      <trkpt lat="47.80199" lon="3.5421">
        <ele>194</ele>
        <time>2014-04-15T12:22:00Z</time>
      </trkpt>
      <trkpt lat="47.80198" lon="3.54218">
        <ele>194</ele>
        <time>2014-04-15T12:22:03Z</time>
      </trkpt>
      <trkpt lat="47.80202" lon="3.54224">
        <ele>194</ele>
        <time>2014-04-15T12:22:07Z</time>
      </trkpt>
      <trkpt lat="47.80204" lon="3.5423">
        <ele>194</ele>
        <time>2014-04-15T12:22:10Z</time>
      </trkpt>
      <trkpt lat="47.80205" lon="3.54239">
        <ele>194</ele>
        <time>2014-04-15T12:22:14Z</time>
      </trkpt>
      <trkpt lat="47.80203" lon="3.54246">
        <ele>194</ele>
        <time>2014-04-15T12:22:18Z</time>
      </trkpt>
      <trkpt lat="47.80198" lon="3.54251">
        <ele>196</ele>
        <time>2014-04-15T12:22:22Z</time>
      </trkpt>
      <trkpt lat="47.80196" lon="3.54258">
        <ele>196</ele>
        <time>2014-04-15T12:22:26Z</time>
      </trkpt>
      <trkpt lat="47.80195" lon="3.54265">
        <ele>196</ele>
        <time>2014-04-15T12:22:30Z</time>
      </trkpt>
      <trkpt lat="47.80191" lon="3.54271">
        <ele>197</ele>
        <time>2014-04-15T12:22:34Z</time>
      </trkpt>
      <trkpt lat="47.80177" lon="3.54281">
        <ele>198</ele>
        <time>2014-04-15T12:22:41Z</time>
      </trkpt>
      <trkpt lat="47.80172" lon="3.54286">
        <ele>198</ele>
        <time>2014-04-15T12:22:44Z</time>
      </trkpt>
      <trkpt lat="47.80173" lon="3.54294">
        <ele>198</ele>
        <time>2014-04-15T12:22:49Z</time>
      </trkpt>
      <trkpt lat="47.80171" lon="3.54303">
        <ele>198</ele>
        <time>2014-04-15T12:22:54Z</time>
      </trkpt>
      <trkpt lat="47.80173" lon="3.54311">
        <ele>199</ele>
        <time>2014-04-15T12:22:57Z</time>
      </trkpt>
      <trkpt lat="47.80177" lon="3.54317">
        <ele>199</ele>
        <time>2014-04-15T12:23:00Z</time>
      </trkpt>
      <trkpt lat="47.80179" lon="3.54323">
        <ele>200</ele>
        <time>2014-04-15T12:23:05Z</time>
      </trkpt>
      <trkpt lat="47.80178" lon="3.54329">
        <ele>200</ele>
        <time>2014-04-15T12:23:10Z</time>
      </trkpt>
      <trkpt lat="47.8018" lon="3.54337">
        <ele>201</ele>
        <time>2014-04-15T12:23:16Z</time>
      </trkpt>
      <trkpt lat="47.80184" lon="3.54341">
        <ele>201</ele>
        <time>2014-04-15T12:23:18Z</time>
      </trkpt>
      <trkpt lat="47.80187" lon="3.54346">
        <ele>201</ele>
        <time>2014-04-15T12:23:21Z</time>
      </trkpt>
      <trkpt lat="47.80183" lon="3.54353">
        <ele>201</ele>
        <time>2014-04-15T12:23:25Z</time>
      </trkpt>
      <trkpt lat="47.80174" lon="3.54363">
        <ele>201</ele>
        <time>2014-04-15T12:23:31Z</time>
      </trkpt>
      <trkpt lat="47.8017" lon="3.54368">
        <ele>201</ele>
        <time>2014-04-15T12:23:34Z</time>
      </trkpt>
      <trkpt lat="47.80156" lon="3.54379">
        <ele>203</ele>
        <time>2014-04-15T12:23:41Z</time>
      </trkpt>
      <trkpt lat="47.80156" lon="3.54385">
        <ele>203</ele>
        <time>2014-04-15T12:23:51Z</time>
      </trkpt>
      <trkpt lat="47.80158" lon="3.54387">
        <ele>203</ele>
        <time>2014-04-15T12:24:09Z</time>
      </trkpt>
      <trkpt lat="47.80155" lon="3.54394">
        <ele>203</ele>
        <time>2014-04-15T12:24:13Z</time>
      </trkpt>
      <trkpt lat="47.80155" lon="3.54402">
        <ele>204</ele>
        <time>2014-04-15T12:24:17Z</time>
      </trkpt>
      <trkpt lat="47.80152" lon="3.54409">
        <ele>204</ele>
        <time>2014-04-15T12:24:21Z</time>
      </trkpt>
      <trkpt lat="47.80141" lon="3.54428">
        <ele>204</ele>
        <time>2014-04-15T12:24:31Z</time>
      </trkpt>
      <trkpt lat="47.80137" lon="3.54433">
        <ele>204</ele>
        <time>2014-04-15T12:24:34Z</time>
      </trkpt>
      <trkpt lat="47.80132" lon="3.54437">
        <ele>204</ele>
        <time>2014-04-15T12:24:37Z</time>
      </trkpt>
      <trkpt lat="47.80128" lon="3.54442">
        <ele>204</ele>
        <time>2014-04-15T12:24:40Z</time>
      </trkpt>
      <trkpt lat="47.80126" lon="3.54449">
        <ele>204</ele>
        <time>2014-04-15T12:24:44Z</time>
      </trkpt>
      <trkpt lat="47.80123" lon="3.54456">
        <ele>204</ele>
        <time>2014-04-15T12:24:48Z</time>
      </trkpt>
      <trkpt lat="47.80118" lon="3.54461">
        <ele>204</ele>
        <time>2014-04-15T12:24:51Z</time>
      </trkpt>
      <trkpt lat="47.80114" lon="3.54467">
        <ele>204</ele>
        <time>2014-04-15T12:24:55Z</time>
      </trkpt>
      <trkpt lat="47.80112" lon="3.54473">
        <ele>204</ele>
        <time>2014-04-15T12:24:59Z</time>
      </trkpt>
      <trkpt lat="47.80114" lon="3.54479">
        <ele>204</ele>
        <time>2014-04-15T12:25:02Z</time>
      </trkpt>
      <trkpt lat="47.80117" lon="3.54485">
        <ele>204</ele>
        <time>2014-04-15T12:25:05Z</time>
      </trkpt>
      <trkpt lat="47.80115" lon="3.54492">
        <ele>204</ele>
        <time>2014-04-15T12:25:10Z</time>
      </trkpt>
      <trkpt lat="47.8011" lon="3.54497">
        <ele>204</ele>
        <time>2014-04-15T12:25:13Z</time>
      </trkpt>
      <trkpt lat="47.80104" lon="3.545">
        <ele>204</ele>
        <time>2014-04-15T12:25:15Z</time>
      </trkpt>
      <trkpt lat="47.80101" lon="3.54504">
        <ele>204</ele>
        <time>2014-04-15T12:25:17Z</time>
      </trkpt>
      <trkpt lat="47.80098" lon="3.54512">
        <ele>204</ele>
        <time>2014-04-15T12:25:21Z</time>
      </trkpt>
      <trkpt lat="47.801" lon="3.54522">
        <ele>204</ele>
        <time>2014-04-15T12:25:26Z</time>
      </trkpt>
      <trkpt lat="47.80103" lon="3.54526">
        <ele>204</ele>
        <time>2014-04-15T12:25:29Z</time>
      </trkpt>
      <trkpt lat="47.80106" lon="3.54532">
        <ele>205</ele>
        <time>2014-04-15T12:25:32Z</time>
      </trkpt>
      <trkpt lat="47.80111" lon="3.54547">
        <ele>205</ele>
        <time>2014-04-15T12:25:40Z</time>
      </trkpt>
      <trkpt lat="47.80112" lon="3.54555">
        <ele>205</ele>
        <time>2014-04-15T12:25:44Z</time>
      </trkpt>
      <trkpt lat="47.80112" lon="3.54563">
        <ele>205</ele>
        <time>2014-04-15T12:25:49Z</time>
      </trkpt>
      <trkpt lat="47.80113" lon="3.5457">
        <ele>205</ele>
        <time>2014-04-15T12:25:53Z</time>
      </trkpt>
      <trkpt lat="47.8011" lon="3.54593">
        <ele>204</ele>
        <time>2014-04-15T12:26:06Z</time>
      </trkpt>
      <trkpt lat="47.80109" lon="3.546">
        <ele>203</ele>
        <time>2014-04-15T12:26:09Z</time>
      </trkpt>
      <trkpt lat="47.80101" lon="3.54616">
        <ele>203</ele>
        <time>2014-04-15T12:26:19Z</time>
      </trkpt>
      <trkpt lat="47.801" lon="3.54624">
        <ele>203</ele>
        <time>2014-04-15T12:26:24Z</time>
      </trkpt>
      <trkpt lat="47.80097" lon="3.54631">
        <ele>203</ele>
        <time>2014-04-15T12:26:28Z</time>
      </trkpt>
      <trkpt lat="47.80096" lon="3.54638">
        <ele>202</ele>
        <time>2014-04-15T12:26:32Z</time>
      </trkpt>
      <trkpt lat="47.80102" lon="3.54652">
        <ele>202</ele>
        <time>2014-04-15T12:26:39Z</time>
      </trkpt>
      <trkpt lat="47.80102" lon="3.54659">
        <ele>202</ele>
        <time>2014-04-15T12:26:43Z</time>
      </trkpt>
      <trkpt lat="47.80098" lon="3.54666">
        <ele>202</ele>
        <time>2014-04-15T12:26:47Z</time>
      </trkpt>
      <trkpt lat="47.80096" lon="3.54672">
        <ele>200</ele>
        <time>2014-04-15T12:26:51Z</time>
      </trkpt>
      <trkpt lat="47.80097" lon="3.5468">
        <ele>200</ele>
        <time>2014-04-15T12:26:55Z</time>
      </trkpt>
      <trkpt lat="47.80097" lon="3.54688">
        <ele>200</ele>
        <time>2014-04-15T12:26:59Z</time>
      </trkpt>
      <trkpt lat="47.80098" lon="3.54695">
        <ele>200</ele>
        <time>2014-04-15T12:27:03Z</time>
      </trkpt>
      <trkpt lat="47.80097" lon="3.54702">
        <ele>200</ele>
        <time>2014-04-15T12:27:08Z</time>
      </trkpt>
      <trkpt lat="47.80099" lon="3.54709">
        <ele>200</ele>
        <time>2014-04-15T12:27:12Z</time>
      </trkpt>
      <trkpt lat="47.80098" lon="3.54719">
        <ele>200</ele>
        <time>2014-04-15T12:27:19Z</time>
      </trkpt>
      <trkpt lat="47.80092" lon="3.54734">
        <ele>199</ele>
        <time>2014-04-15T12:27:27Z</time>
      </trkpt>
      <trkpt lat="47.80086" lon="3.54746">
        <ele>198</ele>
        <time>2014-04-15T12:27:34Z</time>
      </trkpt>
      <trkpt lat="47.80083" lon="3.54753">
        <ele>197</ele>
        <time>2014-04-15T12:27:38Z</time>
      </trkpt>
      <trkpt lat="47.80082" lon="3.5476">
        <ele>197</ele>
        <time>2014-04-15T12:27:43Z</time>
      </trkpt>
      <trkpt lat="47.80077" lon="3.54763">
        <ele>197</ele>
        <time>2014-04-15T12:27:47Z</time>
      </trkpt>
      <trkpt lat="47.80072" lon="3.54775">
        <ele>197</ele>
        <time>2014-04-15T12:27:54Z</time>
      </trkpt>
      <trkpt lat="47.80076" lon="3.54782">
        <ele>197</ele>
        <time>2014-04-15T12:27:58Z</time>
      </trkpt>
      <trkpt lat="47.80079" lon="3.54789">
        <ele>197</ele>
        <time>2014-04-15T12:28:02Z</time>
      </trkpt>
      <trkpt lat="47.8008" lon="3.54802">
        <ele>197</ele>
        <time>2014-04-15T12:28:09Z</time>
      </trkpt>
      <trkpt lat="47.8008" lon="3.54809">
        <ele>198</ele>
        <time>2014-04-15T12:28:13Z</time>
      </trkpt>
      <trkpt lat="47.80076" lon="3.54814">
        <ele>198</ele>
        <time>2014-04-15T12:28:17Z</time>
      </trkpt>
      <trkpt lat="47.80069" lon="3.54828">
        <ele>198</ele>
        <time>2014-04-15T12:28:26Z</time>
      </trkpt>
      <trkpt lat="47.80065" lon="3.54833">
        <ele>197</ele>
        <time>2014-04-15T12:28:30Z</time>
      </trkpt>
      <trkpt lat="47.80063" lon="3.5484">
        <ele>197</ele>
        <time>2014-04-15T12:28:37Z</time>
      </trkpt>
      <trkpt lat="47.80062" lon="3.54849">
        <ele>197</ele>
        <time>2014-04-15T12:28:41Z</time>
      </trkpt>
      <trkpt lat="47.8006" lon="3.54855">
        <ele>197</ele>
        <time>2014-04-15T12:28:44Z</time>
      </trkpt>
      <trkpt lat="47.80036" lon="3.54894">
        <ele>196</ele>
        <time>2014-04-15T12:29:12Z</time>
      </trkpt>
      <trkpt lat="47.80036" lon="3.54909">
        <ele>196</ele>
        <time>2014-04-15T12:29:26Z</time>
      </trkpt>
      <trkpt lat="47.80034" lon="3.54916">
        <ele>195</ele>
        <time>2014-04-15T12:29:31Z</time>
      </trkpt>
      <trkpt lat="47.80034" lon="3.54924">
        <ele>193</ele>
        <time>2014-04-15T12:29:37Z</time>
      </trkpt>
      <trkpt lat="47.80037" lon="3.54931">
        <ele>193</ele>
        <time>2014-04-15T12:29:40Z</time>
      </trkpt>
      <trkpt lat="47.80035" lon="3.54939">
        <ele>193</ele>
        <time>2014-04-15T12:29:44Z</time>
      </trkpt>
      <trkpt lat="47.80033" lon="3.54946">
        <ele>193</ele>
        <time>2014-04-15T12:29:48Z</time>
      </trkpt>
      <trkpt lat="47.80036" lon="3.54951">
        <ele>193</ele>
        <time>2014-04-15T12:29:52Z</time>
      </trkpt>
      <trkpt lat="47.8004" lon="3.54956">
        <ele>193</ele>
        <time>2014-04-15T12:29:55Z</time>
      </trkpt>
      <trkpt lat="47.80042" lon="3.54962">
        <ele>193</ele>
        <time>2014-04-15T12:29:58Z</time>
      </trkpt>
      <trkpt lat="47.80041" lon="3.54969">
        <ele>192</ele>
        <time>2014-04-15T12:30:01Z</time>
      </trkpt>
      <trkpt lat="47.80038" lon="3.54975">
        <ele>192</ele>
        <time>2014-04-15T12:30:04Z</time>
      </trkpt>
      <trkpt lat="47.80037" lon="3.54983">
        <ele>192</ele>
        <time>2014-04-15T12:30:08Z</time>
      </trkpt>
      <trkpt lat="47.80038" lon="3.5499">
        <ele>192</ele>
        <time>2014-04-15T12:30:11Z</time>
      </trkpt>
      <trkpt lat="47.80036" lon="3.55005">
        <ele>189</ele>
        <time>2014-04-15T12:30:22Z</time>
      </trkpt>
      <trkpt lat="47.80031" lon="3.55027">
        <ele>189</ele>
        <time>2014-04-15T12:30:34Z</time>
      </trkpt>
      <trkpt lat="47.80031" lon="3.55035">
        <ele>189</ele>
        <time>2014-04-15T12:30:38Z</time>
      </trkpt>
      <trkpt lat="47.80034" lon="3.55063">
        <ele>188</ele>
        <time>2014-04-15T12:30:56Z</time>
      </trkpt>
      <trkpt lat="47.80031" lon="3.55068">
        <ele>188</ele>
        <time>2014-04-15T12:31:00Z</time>
      </trkpt>
      <trkpt lat="47.80028" lon="3.55076">
        <ele>188</ele>
        <time>2014-04-15T12:31:04Z</time>
      </trkpt>
      <trkpt lat="47.80024" lon="3.55082">
        <ele>188</ele>
        <time>2014-04-15T12:31:08Z</time>
      </trkpt>
      <trkpt lat="47.80018" lon="3.55086">
        <ele>186</ele>
        <time>2014-04-15T12:31:12Z</time>
      </trkpt>
      <trkpt lat="47.80018" lon="3.55093">
        <ele>186</ele>
        <time>2014-04-15T12:31:17Z</time>
      </trkpt>
      <trkpt lat="47.80018" lon="3.55101">
        <ele>186</ele>
        <time>2014-04-15T12:31:21Z</time>
      </trkpt>
      <trkpt lat="47.80015" lon="3.55106">
        <ele>186</ele>
        <time>2014-04-15T12:31:26Z</time>
      </trkpt>
      <trkpt lat="47.80014" lon="3.55113">
        <ele>185</ele>
        <time>2014-04-15T12:31:30Z</time>
      </trkpt>
      <trkpt lat="47.80011" lon="3.55119">
        <ele>185</ele>
        <time>2014-04-15T12:31:33Z</time>
      </trkpt>
      <trkpt lat="47.80008" lon="3.55124">
        <ele>185</ele>
        <time>2014-04-15T12:31:37Z</time>
      </trkpt>
      <trkpt lat="47.80005" lon="3.5513">
        <ele>185</ele>
        <time>2014-04-15T12:31:41Z</time>
      </trkpt>
      <trkpt lat="47.80006" lon="3.55136">
        <ele>185</ele>
        <time>2014-04-15T12:31:45Z</time>
      </trkpt>
      <trkpt lat="47.80004" lon="3.55152">
        <ele>184</ele>
        <time>2014-04-15T12:31:54Z</time>
      </trkpt>
      <trkpt lat="47.8" lon="3.55158">
        <ele>184</ele>
        <time>2014-04-15T12:31:58Z</time>
      </trkpt>
      <trkpt lat="47.79994" lon="3.55173">
        <ele>182</ele>
        <time>2014-04-15T12:32:07Z</time>
      </trkpt>
      <trkpt lat="47.79994" lon="3.5518">
        <ele>181</ele>
        <time>2014-04-15T12:32:13Z</time>
      </trkpt>
      <trkpt lat="47.79992" lon="3.55186">
        <ele>181</ele>
        <time>2014-04-15T12:32:17Z</time>
      </trkpt>
      <trkpt lat="47.79989" lon="3.55192">
        <ele>181</ele>
        <time>2014-04-15T12:32:20Z</time>
      </trkpt>
      <trkpt lat="47.79988" lon="3.55199">
        <ele>180</ele>
        <time>2014-04-15T12:32:24Z</time>
      </trkpt>
      <trkpt lat="47.79984" lon="3.55206">
        <ele>180</ele>
        <time>2014-04-15T12:32:28Z</time>
      </trkpt>
      <trkpt lat="47.79983" lon="3.55213">
        <ele>180</ele>
        <time>2014-04-15T12:32:33Z</time>
      </trkpt>
      <trkpt lat="47.79981" lon="3.5522">
        <ele>179</ele>
        <time>2014-04-15T12:32:38Z</time>
      </trkpt>
      <trkpt lat="47.79964" lon="3.55236">
        <ele>179</ele>
        <time>2014-04-15T12:33:18Z</time>
      </trkpt>
      <trkpt lat="47.79963" lon="3.55243">
        <ele>179</ele>
        <time>2014-04-15T12:33:23Z</time>
      </trkpt>
      <trkpt lat="47.79962" lon="3.5525">
        <ele>176</ele>
        <time>2014-04-15T12:33:28Z</time>
      </trkpt>
      <trkpt lat="47.79959" lon="3.55256">
        <ele>176</ele>
        <time>2014-04-15T12:33:33Z</time>
      </trkpt>
      <trkpt lat="47.79951" lon="3.55266">
        <ele>176</ele>
        <time>2014-04-15T12:33:43Z</time>
      </trkpt>
      <trkpt lat="47.79949" lon="3.55274">
        <ele>176</ele>
        <time>2014-04-15T12:33:47Z</time>
      </trkpt>
      <trkpt lat="47.7995" lon="3.55281">
        <ele>176</ele>
        <time>2014-04-15T12:33:51Z</time>
      </trkpt>
      <trkpt lat="47.79947" lon="3.55289">
        <ele>176</ele>
        <time>2014-04-15T12:33:55Z</time>
      </trkpt>
      <trkpt lat="47.79947" lon="3.55296">
        <ele>175</ele>
        <time>2014-04-15T12:33:58Z</time>
      </trkpt>
      <trkpt lat="47.7995" lon="3.55303">
        <ele>175</ele>
        <time>2014-04-15T12:34:01Z</time>
      </trkpt>
      <trkpt lat="47.79951" lon="3.5531">
        <ele>175</ele>
        <time>2014-04-15T12:34:08Z</time>
      </trkpt>
      <trkpt lat="47.7995" lon="3.55318">
        <ele>175</ele>
        <time>2014-04-15T12:34:14Z</time>
      </trkpt>
      <trkpt lat="47.79947" lon="3.55325">
        <ele>175</ele>
        <time>2014-04-15T12:34:18Z</time>
      </trkpt>
      <trkpt lat="47.79943" lon="3.55332">
        <ele>174</ele>
        <time>2014-04-15T12:34:21Z</time>
      </trkpt>
      <trkpt lat="47.7994" lon="3.55337">
        <ele>172</ele>
        <time>2014-04-15T12:34:24Z</time>
      </trkpt>
      <trkpt lat="47.79934" lon="3.55367">
        <ele>171</ele>
        <time>2014-04-15T12:34:43Z</time>
      </trkpt>
      <trkpt lat="47.79933" lon="3.55382">
        <ele>171</ele>
        <time>2014-04-15T12:34:52Z</time>
      </trkpt>
      <trkpt lat="47.79927" lon="3.55403">
        <ele>170</ele>
        <time>2014-04-15T12:35:04Z</time>
      </trkpt>
      <trkpt lat="47.79925" lon="3.55433">
        <ele>167</ele>
        <time>2014-04-15T12:35:22Z</time>
      </trkpt>
      <trkpt lat="47.79922" lon="3.55441">
        <ele>167</ele>
        <time>2014-04-15T12:35:27Z</time>
      </trkpt>
      <trkpt lat="47.79911" lon="3.55459">
        <ele>165</ele>
        <time>2014-04-15T12:35:40Z</time>
      </trkpt>
      <trkpt lat="47.79908" lon="3.55464">
        <ele>165</ele>
        <time>2014-04-15T12:35:44Z</time>
      </trkpt>
      <trkpt lat="47.79905" lon="3.55471">
        <ele>165</ele>
        <time>2014-04-15T12:35:49Z</time>
      </trkpt>
      <trkpt lat="47.79898" lon="3.55483">
        <ele>164</ele>
        <time>2014-04-15T12:35:56Z</time>
      </trkpt>
      <trkpt lat="47.79895" lon="3.55492">
        <ele>164</ele>
        <time>2014-04-15T12:36:23Z</time>
      </trkpt>
      <trkpt lat="47.79891" lon="3.55496">
        <ele>164</ele>
        <time>2014-04-15T12:36:29Z</time>
      </trkpt>
      <trkpt lat="47.79882" lon="3.55514">
        <ele>161</ele>
        <time>2014-04-15T12:36:39Z</time>
      </trkpt>
      <trkpt lat="47.79881" lon="3.55521">
        <ele>160</ele>
        <time>2014-04-15T12:36:43Z</time>
      </trkpt>
      <trkpt lat="47.79878" lon="3.55527">
        <ele>160</ele>
        <time>2014-04-15T12:36:47Z</time>
      </trkpt>
      <trkpt lat="47.79875" lon="3.55533">
        <ele>160</ele>
        <time>2014-04-15T12:36:51Z</time>
      </trkpt>
      <trkpt lat="47.79874" lon="3.55541">
        <ele>160</ele>
        <time>2014-04-15T12:36:56Z</time>
      </trkpt>
      <trkpt lat="47.79869" lon="3.55543">
        <ele>160</ele>
        <time>2014-04-15T12:37:00Z</time>
      </trkpt>
      <trkpt lat="47.79864" lon="3.55544">
        <ele>159</ele>
        <time>2014-04-15T12:37:05Z</time>
      </trkpt>
      <trkpt lat="47.79858" lon="3.55557">
        <ele>159</ele>
        <time>2014-04-15T12:37:14Z</time>
      </trkpt>
      <trkpt lat="47.79855" lon="3.5557">
        <ele>158</ele>
        <time>2014-04-15T12:37:22Z</time>
      </trkpt>
      <trkpt lat="47.79852" lon="3.55576">
        <ele>157</ele>
        <time>2014-04-15T12:37:26Z</time>
      </trkpt>
      <trkpt lat="47.79848" lon="3.55582">
        <ele>157</ele>
        <time>2014-04-15T12:37:30Z</time>
      </trkpt>
      <trkpt lat="47.79845" lon="3.55588">
        <ele>154</ele>
        <time>2014-04-15T12:37:33Z</time>
      </trkpt>
      <trkpt lat="47.79841" lon="3.5561">
        <ele>153</ele>
        <time>2014-04-15T12:37:46Z</time>
      </trkpt>
      <trkpt lat="47.79839" lon="3.55617">
        <ele>153</ele>
        <time>2014-04-15T12:37:50Z</time>
      </trkpt>
      <trkpt lat="47.79838" lon="3.55623">
        <ele>153</ele>
        <time>2014-04-15T12:37:55Z</time>
      </trkpt>
      <trkpt lat="47.79835" lon="3.55629">
        <ele>152</ele>
        <time>2014-04-15T12:37:59Z</time>
      </trkpt>
      <trkpt lat="47.79834" lon="3.55636">
        <ele>152</ele>
        <time>2014-04-15T12:38:05Z</time>
      </trkpt>
      <trkpt lat="47.79831" lon="3.55641">
        <ele>150</ele>
        <time>2014-04-15T12:38:10Z</time>
      </trkpt>
      <trkpt lat="47.79827" lon="3.55646">
        <ele>149</ele>
        <time>2014-04-15T12:38:14Z</time>
      </trkpt>
      <trkpt lat="47.79823" lon="3.55653">
        <ele>149</ele>
        <time>2014-04-15T12:38:18Z</time>
      </trkpt>
      <trkpt lat="47.79822" lon="3.5566">
        <ele>149</ele>
        <time>2014-04-15T12:38:22Z</time>
      </trkpt>
      <trkpt lat="47.79817" lon="3.55673">
        <ele>146</ele>
        <time>2014-04-15T12:38:29Z</time>
      </trkpt>
      <trkpt lat="47.79813" lon="3.5568">
        <ele>145</ele>
        <time>2014-04-15T12:38:50Z</time>
      </trkpt>
      <trkpt lat="47.79811" lon="3.55686">
        <ele>145</ele>
        <time>2014-04-15T12:38:54Z</time>
      </trkpt>
      <trkpt lat="47.79804" lon="3.55708">
        <ele>144</ele>
        <time>2014-04-15T12:39:08Z</time>
      </trkpt>
      <trkpt lat="47.79806" lon="3.55714">
        <ele>144</ele>
        <time>2014-04-15T12:39:14Z</time>
      </trkpt>
      <trkpt lat="47.79809" lon="3.55719">
        <ele>143</ele>
        <time>2014-04-15T12:39:18Z</time>
      </trkpt>
      <trkpt lat="47.79809" lon="3.55726">
        <ele>143</ele>
        <time>2014-04-15T12:39:23Z</time>
      </trkpt>
      <trkpt lat="47.79799" lon="3.55755">
        <ele>140</ele>
        <time>2014-04-15T12:39:39Z</time>
      </trkpt>
      <trkpt lat="47.79796" lon="3.55777">
        <ele>139</ele>
        <time>2014-04-15T12:39:55Z</time>
      </trkpt>
      <trkpt lat="47.79788" lon="3.55796">
        <ele>139</ele>
        <time>2014-04-15T12:40:05Z</time>
      </trkpt>
      <trkpt lat="47.79782" lon="3.55808">
        <ele>138</ele>
        <time>2014-04-15T12:40:16Z</time>
      </trkpt>
      <trkpt lat="47.79778" lon="3.55811">
        <ele>138</ele>
        <time>2014-04-15T12:40:21Z</time>
      </trkpt>
      <trkpt lat="47.79776" lon="3.55819">
        <ele>138</ele>
        <time>2014-04-15T12:40:29Z</time>
      </trkpt>
      <trkpt lat="47.79773" lon="3.55824">
        <ele>138</ele>
        <time>2014-04-15T12:40:34Z</time>
      </trkpt>
      <trkpt lat="47.79771" lon="3.5583">
        <ele>138</ele>
        <time>2014-04-15T12:40:38Z</time>
      </trkpt>
      <trkpt lat="47.79773" lon="3.55836">
        <ele>136</ele>
        <time>2014-04-15T12:40:42Z</time>
      </trkpt>
      <trkpt lat="47.79774" lon="3.55844">
        <ele>136</ele>
        <time>2014-04-15T12:40:47Z</time>
      </trkpt>
      <trkpt lat="47.79765" lon="3.55853">
        <ele>136</ele>
        <time>2014-04-15T12:40:56Z</time>
      </trkpt>
      <trkpt lat="47.7976" lon="3.55865">
        <ele>136</ele>
        <time>2014-04-15T12:41:03Z</time>
      </trkpt>
      <trkpt lat="47.79758" lon="3.55872">
        <ele>136</ele>
        <time>2014-04-15T12:41:09Z</time>
      </trkpt>
      <trkpt lat="47.79758" lon="3.55879">
        <ele>136</ele>
        <time>2014-04-15T12:41:15Z</time>
      </trkpt>
      <trkpt lat="47.79755" lon="3.55885">
        <ele>136</ele>
        <time>2014-04-15T12:41:23Z</time>
      </trkpt>
      <trkpt lat="47.79751" lon="3.55891">
        <ele>135</ele>
        <time>2014-04-15T12:41:26Z</time>
      </trkpt>
      <trkpt lat="47.79747" lon="3.55899">
        <ele>136</ele>
        <time>2014-04-15T12:41:29Z</time>
      </trkpt>
      <trkpt lat="47.79745" lon="3.55907">
        <ele>136</ele>
        <time>2014-04-15T12:41:32Z</time>
      </trkpt>
      <trkpt lat="47.79742" lon="3.55902">
        <ele>136</ele>
        <time>2014-04-15T12:41:47Z</time>
      </trkpt>
      <trkpt lat="47.79743" lon="3.55899">
        <ele>136</ele>
        <time>2014-04-15T12:42:09Z</time>
      </trkpt>
      <trkpt lat="47.79743" lon="3.55893">
        <ele>136</ele>
        <time>2014-04-15T12:42:18Z</time>
      </trkpt>
      <trkpt lat="47.79747" lon="3.55892">
        <ele>136</ele>
        <time>2014-04-15T12:42:31Z</time>
      </trkpt>
      <trkpt lat="47.79744" lon="3.55892">
        <ele>136</ele>
        <time>2014-04-15T12:45:02Z</time>
      </trkpt>
      <trkpt lat="47.79742" lon="3.559">
        <ele>136</ele>
        <time>2014-04-15T12:45:05Z</time>
      </trkpt>
      <trkpt lat="47.79742" lon="3.55907">
        <ele>136</ele>
        <time>2014-04-15T12:45:08Z</time>
      </trkpt>
      <trkpt lat="47.79739" lon="3.55915">
        <ele>136</ele>
        <time>2014-04-15T12:45:11Z</time>
      </trkpt>
      <trkpt lat="47.79736" lon="3.5592">
        <ele>135</ele>
        <time>2014-04-15T12:45:14Z</time>
      </trkpt>
      <trkpt lat="47.79733" lon="3.55926">
        <ele>135</ele>
        <time>2014-04-15T12:45:18Z</time>
      </trkpt>
      <trkpt lat="47.7973" lon="3.55933">
        <ele>135</ele>
        <time>2014-04-15T12:45:22Z</time>
      </trkpt>
      <trkpt lat="47.79729" lon="3.5594">
        <ele>135</ele>
        <time>2014-04-15T12:45:26Z</time>
      </trkpt>
      <trkpt lat="47.79726" lon="3.55946">
        <ele>135</ele>
        <time>2014-04-15T12:45:30Z</time>
      </trkpt>
      <trkpt lat="47.79722" lon="3.5595">
        <ele>135</ele>
        <time>2014-04-15T12:45:34Z</time>
      </trkpt>
      <trkpt lat="47.79718" lon="3.55955">
        <ele>135</ele>
        <time>2014-04-15T12:45:39Z</time>
      </trkpt>
      <trkpt lat="47.79709" lon="3.5599">
        <ele>135</ele>
        <time>2014-04-15T12:46:00Z</time>
      </trkpt>
      <trkpt lat="47.79712" lon="3.56003">
        <ele>134</ele>
        <time>2014-04-15T12:46:10Z</time>
      </trkpt>
      <trkpt lat="47.79717" lon="3.56004">
        <ele>134</ele>
        <time>2014-04-15T12:46:24Z</time>
      </trkpt>
      <trkpt lat="47.79713" lon="3.56011">
        <ele>134</ele>
        <time>2014-04-15T12:46:34Z</time>
      </trkpt>
      <trkpt lat="47.79708" lon="3.56013">
        <ele>134</ele>
        <time>2014-04-15T12:46:37Z</time>
      </trkpt>
      <trkpt lat="47.79703" lon="3.56016">
        <ele>134</ele>
        <time>2014-04-15T12:46:41Z</time>
      </trkpt>
      <trkpt lat="47.79695" lon="3.56025">
        <ele>134</ele>
        <time>2014-04-15T12:46:50Z</time>
      </trkpt>
      <trkpt lat="47.79693" lon="3.56028">
        <ele>134</ele>
        <time>2014-04-15T12:46:56Z</time>
      </trkpt>
      <trkpt lat="47.79693" lon="3.56035">
        <ele>134</ele>
        <time>2014-04-15T12:47:07Z</time>
      </trkpt>
      <trkpt lat="47.79689" lon="3.56049">
        <ele>134</ele>
        <time>2014-04-15T12:47:19Z</time>
      </trkpt>
      <trkpt lat="47.79686" lon="3.56056">
        <ele>134</ele>
        <time>2014-04-15T12:47:24Z</time>
      </trkpt>
      <trkpt lat="47.79681" lon="3.56061">
        <ele>134</ele>
        <time>2014-04-15T12:47:28Z</time>
      </trkpt>
      <trkpt lat="47.79679" lon="3.56068">
        <ele>134</ele>
        <time>2014-04-15T12:47:33Z</time>
      </trkpt>
      <trkpt lat="47.79678" lon="3.56075">
        <ele>134</ele>
        <time>2014-04-15T12:47:37Z</time>
      </trkpt>
      <trkpt lat="47.79671" lon="3.56087">
        <ele>135</ele>
        <time>2014-04-15T12:47:45Z</time>
      </trkpt>
      <trkpt lat="47.79669" lon="3.56094">
        <ele>134</ele>
        <time>2014-04-15T12:47:51Z</time>
      </trkpt>
      <trkpt lat="47.79668" lon="3.56109">
        <ele>134</ele>
        <time>2014-04-15T12:48:00Z</time>
      </trkpt>
      <trkpt lat="47.79665" lon="3.56115">
        <ele>135</ele>
        <time>2014-04-15T12:48:04Z</time>
      </trkpt>
      <trkpt lat="47.7966" lon="3.5612">
        <ele>135</ele>
        <time>2014-04-15T12:48:07Z</time>
      </trkpt>
      <trkpt lat="47.79657" lon="3.56126">
        <ele>135</ele>
        <time>2014-04-15T12:48:12Z</time>
      </trkpt>
      <trkpt lat="47.79655" lon="3.56132">
        <ele>135</ele>
        <time>2014-04-15T12:48:15Z</time>
      </trkpt>
      <trkpt lat="47.79646" lon="3.56146">
        <ele>135</ele>
        <time>2014-04-15T12:48:21Z</time>
      </trkpt>
      <trkpt lat="47.79643" lon="3.56153">
        <ele>135</ele>
        <time>2014-04-15T12:48:25Z</time>
      </trkpt>
      <trkpt lat="47.79643" lon="3.56161">
        <ele>135</ele>
        <time>2014-04-15T12:48:28Z</time>
      </trkpt>
      <trkpt lat="47.79643" lon="3.56168">
        <ele>135</ele>
        <time>2014-04-15T12:48:32Z</time>
      </trkpt>
      <trkpt lat="47.79641" lon="3.56175">
        <ele>135</ele>
        <time>2014-04-15T12:48:37Z</time>
      </trkpt>
      <trkpt lat="47.7964" lon="3.56183">
        <ele>135</ele>
        <time>2014-04-15T12:48:42Z</time>
      </trkpt>
      <trkpt lat="47.79631" lon="3.56195">
        <ele>135</ele>
        <time>2014-04-15T12:48:52Z</time>
      </trkpt>
      <trkpt lat="47.79625" lon="3.56216">
        <ele>134</ele>
        <time>2014-04-15T12:49:03Z</time>
      </trkpt>
      <trkpt lat="47.79622" lon="3.56221">
        <ele>134</ele>
        <time>2014-04-15T12:49:08Z</time>
      </trkpt>
      <trkpt lat="47.79621" lon="3.56228">
        <ele>134</ele>
        <time>2014-04-15T12:49:13Z</time>
      </trkpt>
      <trkpt lat="47.7962" lon="3.56235">
        <ele>134</ele>
        <time>2014-04-15T12:49:19Z</time>
      </trkpt>
      <trkpt lat="47.79618" lon="3.56243">
        <ele>134</ele>
        <time>2014-04-15T12:49:24Z</time>
      </trkpt>
      <trkpt lat="47.79614" lon="3.56255">
        <ele>134</ele>
        <time>2014-04-15T12:49:32Z</time>
      </trkpt>
      <trkpt lat="47.79612" lon="3.56271">
        <ele>134</ele>
        <time>2014-04-15T12:49:42Z</time>
      </trkpt>
      <trkpt lat="47.79609" lon="3.56278">
        <ele>134</ele>
        <time>2014-04-15T12:49:46Z</time>
      </trkpt>
      <trkpt lat="47.79606" lon="3.56285">
        <ele>134</ele>
        <time>2014-04-15T12:49:50Z</time>
      </trkpt>
      <trkpt lat="47.79604" lon="3.56292">
        <ele>134</ele>
        <time>2014-04-15T12:49:55Z</time>
      </trkpt>
      <trkpt lat="47.79604" lon="3.563">
        <ele>134</ele>
        <time>2014-04-15T12:49:59Z</time>
      </trkpt>
      <trkpt lat="47.79603" lon="3.56307">
        <ele>134</ele>
        <time>2014-04-15T12:50:03Z</time>
      </trkpt>
      <trkpt lat="47.79598" lon="3.56322">
        <ele>134</ele>
        <time>2014-04-15T12:50:10Z</time>
      </trkpt>
      <trkpt lat="47.79598" lon="3.5633">
        <ele>134</ele>
        <time>2014-04-15T12:50:14Z</time>
      </trkpt>
      <trkpt lat="47.79596" lon="3.56336">
        <ele>133</ele>
        <time>2014-04-15T12:50:17Z</time>
      </trkpt>
      <trkpt lat="47.79593" lon="3.56343">
        <ele>133</ele>
        <time>2014-04-15T12:50:21Z</time>
      </trkpt>
      <trkpt lat="47.79589" lon="3.56348">
        <ele>133</ele>
        <time>2014-04-15T12:50:25Z</time>
      </trkpt>
      <trkpt lat="47.79581" lon="3.56368">
        <ele>133</ele>
        <time>2014-04-15T12:50:38Z</time>
      </trkpt>
      <trkpt lat="47.79577" lon="3.56373">
        <ele>133</ele>
        <time>2014-04-15T12:50:43Z</time>
      </trkpt>
      <trkpt lat="47.79576" lon="3.56381">
        <ele>133</ele>
        <time>2014-04-15T12:50:48Z</time>
      </trkpt>
      <trkpt lat="47.79578" lon="3.56387">
        <ele>133</ele>
        <time>2014-04-15T12:50:53Z</time>
      </trkpt>
      <trkpt lat="47.79578" lon="3.56392">
        <ele>133</ele>
        <time>2014-04-15T12:51:01Z</time>
      </trkpt>
      <trkpt lat="47.79575" lon="3.56397">
        <ele>133</ele>
        <time>2014-04-15T12:51:34Z</time>
      </trkpt>
      <trkpt lat="47.79572" lon="3.56404">
        <ele>133</ele>
        <time>2014-04-15T12:51:36Z</time>
      </trkpt>
      <trkpt lat="47.79574" lon="3.56414">
        <ele>133</ele>
        <time>2014-04-15T12:51:41Z</time>
      </trkpt>
      <trkpt lat="47.79574" lon="3.56421">
        <ele>133</ele>
        <time>2014-04-15T12:51:45Z</time>
      </trkpt>
      <trkpt lat="47.79571" lon="3.56426">
        <ele>132</ele>
        <time>2014-04-15T12:51:49Z</time>
      </trkpt>
      <trkpt lat="47.79568" lon="3.56432">
        <ele>132</ele>
        <time>2014-04-15T12:51:55Z</time>
      </trkpt>
      <trkpt lat="47.79564" lon="3.56435">
        <ele>132</ele>
        <time>2014-04-15T12:52:00Z</time>
      </trkpt>
      <trkpt lat="47.7956" lon="3.56441">
        <ele>132</ele>
        <time>2014-04-15T12:52:03Z</time>
      </trkpt>
      <trkpt lat="47.79556" lon="3.56477">
        <ele>132</ele>
        <time>2014-04-15T12:52:20Z</time>
      </trkpt>
      <trkpt lat="47.79556" lon="3.56485">
        <ele>132</ele>
        <time>2014-04-15T12:52:25Z</time>
      </trkpt>
      <trkpt lat="47.79553" lon="3.56492">
        <ele>132</ele>
        <time>2014-04-15T12:52:31Z</time>
      </trkpt>
      <trkpt lat="47.79549" lon="3.56497">
        <ele>131</ele>
        <time>2014-04-15T12:52:35Z</time>
      </trkpt>
      <trkpt lat="47.79544" lon="3.56508">
        <ele>130</ele>
        <time>2014-04-15T12:52:48Z</time>
      </trkpt>
      <trkpt lat="47.79546" lon="3.56531">
        <ele>130</ele>
        <time>2014-04-15T12:53:04Z</time>
      </trkpt>
      <trkpt lat="47.79545" lon="3.56547">
        <ele>130</ele>
        <time>2014-04-15T12:53:15Z</time>
      </trkpt>
      <trkpt lat="47.79546" lon="3.56555">
        <ele>130</ele>
        <time>2014-04-15T12:53:19Z</time>
      </trkpt>
      <trkpt lat="47.79546" lon="3.56562">
        <ele>130</ele>
        <time>2014-04-15T12:53:22Z</time>
      </trkpt>
      <trkpt lat="47.79547" lon="3.5657">
        <ele>130</ele>
        <time>2014-04-15T12:53:26Z</time>
      </trkpt>
      <trkpt lat="47.79544" lon="3.56599">
        <ele>129</ele>
        <time>2014-04-15T12:53:42Z</time>
      </trkpt>
      <trkpt lat="47.79542" lon="3.56605">
        <ele>129</ele>
        <time>2014-04-15T12:53:47Z</time>
      </trkpt>
      <trkpt lat="47.79544" lon="3.56611">
        <ele>129</ele>
        <time>2014-04-15T12:53:51Z</time>
      </trkpt>
      <trkpt lat="47.79548" lon="3.56618">
        <ele>129</ele>
        <time>2014-04-15T12:53:55Z</time>
      </trkpt>
      <trkpt lat="47.79552" lon="3.56621">
        <ele>129</ele>
        <time>2014-04-15T12:53:58Z</time>
      </trkpt>
      <trkpt lat="47.79557" lon="3.56625">
        <ele>129</ele>
        <time>2014-04-15T12:54:02Z</time>
      </trkpt>
      <trkpt lat="47.79551" lon="3.56661">
        <ele>129</ele>
        <time>2014-04-15T12:54:19Z</time>
      </trkpt>
      <trkpt lat="47.79554" lon="3.56669">
        <ele>129</ele>
        <time>2014-04-15T12:54:23Z</time>
      </trkpt>
      <trkpt lat="47.79552" lon="3.56675">
        <ele>129</ele>
        <time>2014-04-15T12:54:28Z</time>
      </trkpt>
      <trkpt lat="47.7955" lon="3.56683">
        <ele>129</ele>
        <time>2014-04-15T12:54:34Z</time>
      </trkpt>
      <trkpt lat="47.79555" lon="3.5671">
        <ele>129</ele>
        <time>2014-04-15T12:54:51Z</time>
      </trkpt>
      <trkpt lat="47.79556" lon="3.56741">
        <ele>129</ele>
        <time>2014-04-15T12:55:16Z</time>
      </trkpt>
      <trkpt lat="47.79552" lon="3.56754">
        <ele>129</ele>
        <time>2014-04-15T12:55:26Z</time>
      </trkpt>
      <trkpt lat="47.79556" lon="3.56762">
        <ele>129</ele>
        <time>2014-04-15T12:55:35Z</time>
      </trkpt>
      <trkpt lat="47.7956" lon="3.56789">
        <ele>129</ele>
        <time>2014-04-15T12:55:52Z</time>
      </trkpt>
      <trkpt lat="47.79568" lon="3.56808">
        <ele>129</ele>
        <time>2014-04-15T12:56:03Z</time>
      </trkpt>
      <trkpt lat="47.79569" lon="3.56816">
        <ele>129</ele>
        <time>2014-04-15T12:56:07Z</time>
      </trkpt>
      <trkpt lat="47.79568" lon="3.56827">
        <ele>128</ele>
        <time>2014-04-15T12:56:17Z</time>
      </trkpt>
      <trkpt lat="47.79569" lon="3.56833">
        <ele>128</ele>
        <time>2014-04-15T12:56:27Z</time>
      </trkpt>
      <trkpt lat="47.79576" lon="3.56845">
        <ele>128</ele>
        <time>2014-04-15T12:56:45Z</time>
      </trkpt>
      <trkpt lat="47.79577" lon="3.56852">
        <ele>129</ele>
        <time>2014-04-15T12:56:53Z</time>
      </trkpt>
      <trkpt lat="47.79576" lon="3.5686">
        <ele>129</ele>
        <time>2014-04-15T12:56:58Z</time>
      </trkpt>
      <trkpt lat="47.79573" lon="3.56869">
        <ele>130</ele>
        <time>2014-04-15T12:57:00Z</time>
      </trkpt>
      <trkpt lat="47.79572" lon="3.56877">
        <ele>130</ele>
        <time>2014-04-15T12:57:02Z</time>
      </trkpt>
      <trkpt lat="47.79576" lon="3.56882">
        <ele>130</ele>
        <time>2014-04-15T12:57:06Z</time>
      </trkpt>
      <trkpt lat="47.79581" lon="3.56883">
        <ele>130</ele>
        <time>2014-04-15T12:57:09Z</time>
      </trkpt>
      <trkpt lat="47.79592" lon="3.56882">
        <ele>127</ele>
        <time>2014-04-15T12:57:18Z</time>
      </trkpt>
      <trkpt lat="47.79612" lon="3.56887">
        <ele>126</ele>
        <time>2014-04-15T12:57:42Z</time>
      </trkpt>
      <trkpt lat="47.79619" lon="3.56898">
        <ele>126</ele>
        <time>2014-04-15T12:57:47Z</time>
      </trkpt>
      <trkpt lat="47.79624" lon="3.56904">
        <ele>126</ele>
        <time>2014-04-15T12:57:50Z</time>
      </trkpt>
      <trkpt lat="47.79633" lon="3.56922">
        <ele>126</ele>
        <time>2014-04-15T12:58:01Z</time>
      </trkpt>
      <trkpt lat="47.79636" lon="3.56929">
        <ele>126</ele>
        <time>2014-04-15T12:58:05Z</time>
      </trkpt>
      <trkpt lat="47.79638" lon="3.56943">
        <ele>126</ele>
        <time>2014-04-15T12:58:14Z</time>
      </trkpt>
      <trkpt lat="47.79649" lon="3.56969">
        <ele>127</ele>
        <time>2014-04-15T12:58:30Z</time>
      </trkpt>
      <trkpt lat="47.7965" lon="3.56977">
        <ele>127</ele>
        <time>2014-04-15T12:58:34Z</time>
      </trkpt>
      <trkpt lat="47.79643" lon="3.56998">
        <ele>127</ele>
        <time>2014-04-15T12:58:47Z</time>
      </trkpt>
      <trkpt lat="47.79644" lon="3.57013">
        <ele>128</ele>
        <time>2014-04-15T12:58:55Z</time>
      </trkpt>
      <trkpt lat="47.79646" lon="3.57019">
        <ele>128</ele>
        <time>2014-04-15T12:58:58Z</time>
      </trkpt>
      <trkpt lat="47.79648" lon="3.57027">
        <ele>128</ele>
        <time>2014-04-15T12:59:02Z</time>
      </trkpt>
      <trkpt lat="47.79649" lon="3.57034">
        <ele>129</ele>
        <time>2014-04-15T12:59:06Z</time>
      </trkpt>
      <trkpt lat="47.79654" lon="3.57047">
        <ele>129</ele>
        <time>2014-04-15T12:59:16Z</time>
      </trkpt>
      <trkpt lat="47.79655" lon="3.57054">
        <ele>129</ele>
        <time>2014-04-15T12:59:20Z</time>
      </trkpt>
      <trkpt lat="47.79656" lon="3.57061">
        <ele>129</ele>
        <time>2014-04-15T12:59:25Z</time>
      </trkpt>
      <trkpt lat="47.7966" lon="3.57065">
        <ele>129</ele>
        <time>2014-04-15T12:59:29Z</time>
      </trkpt>
      <trkpt lat="47.79664" lon="3.57071">
        <ele>130</ele>
        <time>2014-04-15T12:59:34Z</time>
      </trkpt>
      <trkpt lat="47.79671" lon="3.5708">
        <ele>129</ele>
        <time>2014-04-15T12:59:44Z</time>
      </trkpt>
      <trkpt lat="47.79673" lon="3.57088">
        <ele>129</ele>
        <time>2014-04-15T12:59:49Z</time>
      </trkpt>
      <trkpt lat="47.79679" lon="3.571">
        <ele>127</ele>
        <time>2014-04-15T13:00:00Z</time>
      </trkpt>
      <trkpt lat="47.79683" lon="3.57106">
        <ele>127</ele>
        <time>2014-04-15T13:00:04Z</time>
      </trkpt>
      <trkpt lat="47.79685" lon="3.57121">
        <ele>126</ele>
        <time>2014-04-15T13:00:12Z</time>
      </trkpt>
      <trkpt lat="47.79688" lon="3.57127">
        <ele>126</ele>
        <time>2014-04-15T13:00:17Z</time>
      </trkpt>
      <trkpt lat="47.79693" lon="3.57131">
        <ele>126</ele>
        <time>2014-04-15T13:00:20Z</time>
      </trkpt>
      <trkpt lat="47.79698" lon="3.57135">
        <ele>126</ele>
        <time>2014-04-15T13:00:24Z</time>
      </trkpt>
      <trkpt lat="47.79708" lon="3.57136">
        <ele>126</ele>
        <time>2014-04-15T13:00:30Z</time>
      </trkpt>
      <trkpt lat="47.79713" lon="3.57148">
        <ele>125</ele>
        <time>2014-04-15T13:00:42Z</time>
      </trkpt>
      <trkpt lat="47.79718" lon="3.5715">
        <ele>125</ele>
        <time>2014-04-15T13:00:47Z</time>
      </trkpt>
      <trkpt lat="47.79729" lon="3.5715">
        <ele>125</ele>
        <time>2014-04-15T13:00:55Z</time>
      </trkpt>
      <trkpt lat="47.79734" lon="3.57148">
        <ele>125</ele>
        <time>2014-04-15T13:01:00Z</time>
      </trkpt>
      <trkpt lat="47.79736" lon="3.57142">
        <ele>125</ele>
        <time>2014-04-15T13:01:07Z</time>
      </trkpt>
      <trkpt lat="47.79741" lon="3.57142">
        <ele>125</ele>
        <time>2014-04-15T13:01:14Z</time>
      </trkpt>
      <trkpt lat="47.79749" lon="3.57154">
        <ele>124</ele>
        <time>2014-04-15T13:01:21Z</time>
      </trkpt>
      <trkpt lat="47.79752" lon="3.57161">
        <ele>123</ele>
        <time>2014-04-15T13:01:25Z</time>
      </trkpt>
      <trkpt lat="47.79752" lon="3.57166">
        <ele>124</ele>
        <time>2014-04-15T13:01:36Z</time>
      </trkpt>
      <trkpt lat="47.79759" lon="3.57176">
        <ele>123</ele>
        <time>2014-04-15T13:02:01Z</time>
      </trkpt>
      <trkpt lat="47.79764" lon="3.57188">
        <ele>122</ele>
        <time>2014-04-15T13:02:12Z</time>
      </trkpt>
      <trkpt lat="47.79765" lon="3.57196">
        <ele>122</ele>
        <time>2014-04-15T13:02:18Z</time>
      </trkpt>
      <trkpt lat="47.79764" lon="3.57203">
        <ele>122</ele>
        <time>2014-04-15T13:02:23Z</time>
      </trkpt>
      <trkpt lat="47.79766" lon="3.5721">
        <ele>122</ele>
        <time>2014-04-15T13:02:30Z</time>
      </trkpt>
      <trkpt lat="47.7977" lon="3.57214">
        <ele>122</ele>
        <time>2014-04-15T13:02:40Z</time>
      </trkpt>
      <trkpt lat="47.79699" lon="3.57149">
        <ele>126</ele>
        <time>2014-04-15T13:27:50Z</time>
      </trkpt>
      <trkpt lat="47.79706" lon="3.5715">
        <ele>126</ele>
        <time>2014-04-15T13:27:57Z</time>
      </trkpt>
      <trkpt lat="47.79705" lon="3.57157">
        <ele>126</ele>
        <time>2014-04-15T13:28:06Z</time>
      </trkpt>
      <trkpt lat="47.79698" lon="3.57168">
        <ele>125</ele>
        <time>2014-04-15T13:28:15Z</time>
      </trkpt>
      <trkpt lat="47.79694" lon="3.57173">
        <ele>125</ele>
        <time>2014-04-15T13:28:19Z</time>
      </trkpt>
      <trkpt lat="47.79689" lon="3.57176">
        <ele>125</ele>
        <time>2014-04-15T13:28:23Z</time>
      </trkpt>
      <trkpt lat="47.79684" lon="3.57177">
        <ele>125</ele>
        <time>2014-04-15T13:28:26Z</time>
      </trkpt>
      <trkpt lat="47.7968" lon="3.57181">
        <ele>125</ele>
        <time>2014-04-15T13:28:30Z</time>
      </trkpt>
      <trkpt lat="47.79669" lon="3.57184">
        <ele>125</ele>
        <time>2014-04-15T13:28:39Z</time>
      </trkpt>
      <trkpt lat="47.79666" lon="3.57188">
        <ele>124</ele>
        <time>2014-04-15T13:28:45Z</time>
      </trkpt>
      <trkpt lat="47.79661" lon="3.57192">
        <ele>124</ele>
        <time>2014-04-15T13:28:50Z</time>
      </trkpt>
      <trkpt lat="47.79656" lon="3.57194">
        <ele>123</ele>
        <time>2014-04-15T13:28:52Z</time>
      </trkpt>
      <trkpt lat="47.79643" lon="3.57206">
        <ele>123</ele>
        <time>2014-04-15T13:29:00Z</time>
      </trkpt>
      <trkpt lat="47.79637" lon="3.57207">
        <ele>122</ele>
        <time>2014-04-15T13:29:07Z</time>
      </trkpt>
      <trkpt lat="47.79632" lon="3.57208">
        <ele>122</ele>
        <time>2014-04-15T13:29:10Z</time>
      </trkpt>
      <trkpt lat="47.79628" lon="3.57212">
        <ele>122</ele>
        <time>2014-04-15T13:29:15Z</time>
      </trkpt>
      <trkpt lat="47.79624" lon="3.57222">
        <ele>122</ele>
        <time>2014-04-15T13:29:23Z</time>
      </trkpt>
      <trkpt lat="47.79621" lon="3.57226">
        <ele>121</ele>
        <time>2014-04-15T13:29:27Z</time>
      </trkpt>
      <trkpt lat="47.79616" lon="3.5723">
        <ele>121</ele>
        <time>2014-04-15T13:29:33Z</time>
      </trkpt>
      <trkpt lat="47.79609" lon="3.5724">
        <ele>120</ele>
        <time>2014-04-15T13:29:44Z</time>
      </trkpt>
      <trkpt lat="47.79603" lon="3.57245">
        <ele>120</ele>
        <time>2014-04-15T13:29:49Z</time>
      </trkpt>
      <trkpt lat="47.79604" lon="3.57259">
        <ele>116</ele>
        <time>2014-04-15T13:30:01Z</time>
      </trkpt>
      <trkpt lat="47.796" lon="3.57273">
        <ele>116</ele>
        <time>2014-04-15T13:30:09Z</time>
      </trkpt>
      <trkpt lat="47.79596" lon="3.57276">
        <ele>116</ele>
        <time>2014-04-15T13:30:14Z</time>
      </trkpt>
      <trkpt lat="47.79589" lon="3.57287">
        <ele>115</ele>
        <time>2014-04-15T13:30:22Z</time>
      </trkpt>
      <trkpt lat="47.79579" lon="3.57288">
        <ele>114</ele>
        <time>2014-04-15T13:30:29Z</time>
      </trkpt>
      <trkpt lat="47.79575" lon="3.57302">
        <ele>113</ele>
        <time>2014-04-15T13:30:42Z</time>
      </trkpt>
      <trkpt lat="47.79569" lon="3.573">
        <ele>113</ele>
        <time>2014-04-15T13:30:47Z</time>
      </trkpt>
      <trkpt lat="47.79564" lon="3.57301">
        <ele>113</ele>
        <time>2014-04-15T13:31:01Z</time>
      </trkpt>
      <trkpt lat="47.7955" lon="3.5732">
        <ele>113</ele>
        <time>2014-04-15T13:31:14Z</time>
      </trkpt>
      <trkpt lat="47.79547" lon="3.57325">
        <ele>113</ele>
        <time>2014-04-15T13:31:20Z</time>
      </trkpt>
      <trkpt lat="47.79542" lon="3.57337">
        <ele>110</ele>
        <time>2014-04-15T13:31:30Z</time>
      </trkpt>
      <trkpt lat="47.79522" lon="3.57355">
        <ele>110</ele>
        <time>2014-04-15T13:31:47Z</time>
      </trkpt>
      <trkpt lat="47.79517" lon="3.57359">
        <ele>110</ele>
        <time>2014-04-15T13:31:50Z</time>
      </trkpt>
      <trkpt lat="47.79512" lon="3.57359">
        <ele>110</ele>
        <time>2014-04-15T13:31:52Z</time>
      </trkpt>
      <trkpt lat="47.79507" lon="3.5736">
        <ele>110</ele>
        <time>2014-04-15T13:31:55Z</time>
      </trkpt>
      <trkpt lat="47.79502" lon="3.57357">
        <ele>111</ele>
        <time>2014-04-15T13:31:58Z</time>
      </trkpt>
      <trkpt lat="47.795" lon="3.57363">
        <ele>110</ele>
        <time>2014-04-15T13:32:04Z</time>
      </trkpt>
      <trkpt lat="47.79497" lon="3.57369">
        <ele>111</ele>
        <time>2014-04-15T13:32:09Z</time>
      </trkpt>
      <trkpt lat="47.79494" lon="3.57375">
        <ele>111</ele>
        <time>2014-04-15T13:32:15Z</time>
      </trkpt>
      <trkpt lat="47.79493" lon="3.57397">
        <ele>110</ele>
        <time>2014-04-15T13:32:28Z</time>
      </trkpt>
      <trkpt lat="47.7949" lon="3.57403">
        <ele>110</ele>
        <time>2014-04-15T13:32:34Z</time>
      </trkpt>
      <trkpt lat="47.79485" lon="3.57406">
        <ele>110</ele>
        <time>2014-04-15T13:32:41Z</time>
      </trkpt>
      <trkpt lat="47.7948" lon="3.57401">
        <ele>110</ele>
        <time>2014-04-15T13:32:46Z</time>
      </trkpt>
      <trkpt lat="47.79476" lon="3.57398">
        <ele>110</ele>
        <time>2014-04-15T13:32:51Z</time>
      </trkpt>
      <trkpt lat="47.79473" lon="3.57397">
        <ele>110</ele>
        <time>2014-04-15T13:32:59Z</time>
      </trkpt>
      <trkpt lat="47.79466" lon="3.57401">
        <ele>110</ele>
        <time>2014-04-15T13:33:22Z</time>
      </trkpt>
      <trkpt lat="47.79463" lon="3.57407">
        <ele>110</ele>
        <time>2014-04-15T13:33:25Z</time>
      </trkpt>
      <trkpt lat="47.79458" lon="3.57412">
        <ele>110</ele>
        <time>2014-04-15T13:33:28Z</time>
      </trkpt>
      <trkpt lat="47.79455" lon="3.57417">
        <ele>108</ele>
        <time>2014-04-15T13:33:31Z</time>
      </trkpt>
      <trkpt lat="47.79465" lon="3.57454">
        <ele>108</ele>
        <time>2014-04-15T13:33:47Z</time>
      </trkpt>
      <trkpt lat="47.79469" lon="3.57452">
        <ele>108</ele>
        <time>2014-04-15T13:34:17Z</time>
      </trkpt>
      <trkpt lat="47.79473" lon="3.57457">
        <ele>107</ele>
        <time>2014-04-15T13:34:25Z</time>
      </trkpt>
      <trkpt lat="47.79462" lon="3.5746">
        <ele>107</ele>
        <time>2014-04-15T13:34:37Z</time>
      </trkpt>
      <trkpt lat="47.79463" lon="3.57467">
        <ele>107</ele>
        <time>2014-04-15T13:34:40Z</time>
      </trkpt>
      <trkpt lat="47.79466" lon="3.57473">
        <ele>107</ele>
        <time>2014-04-15T13:34:44Z</time>
      </trkpt>
      <trkpt lat="47.79477" lon="3.57479">
        <ele>107</ele>
        <time>2014-04-15T13:34:49Z</time>
      </trkpt>
      <trkpt lat="47.79482" lon="3.57484">
        <ele>107</ele>
        <time>2014-04-15T13:34:51Z</time>
      </trkpt>
      <trkpt lat="47.79483" lon="3.5749">
        <ele>107</ele>
        <time>2014-04-15T13:34:54Z</time>
      </trkpt>
      <trkpt lat="47.79477" lon="3.57492">
        <ele>107</ele>
        <time>2014-04-15T13:34:58Z</time>
      </trkpt>
      <trkpt lat="47.79467" lon="3.5749">
        <ele>107</ele>
        <time>2014-04-15T13:35:03Z</time>
      </trkpt>
      <trkpt lat="47.79467" lon="3.575">
        <ele>107</ele>
        <time>2014-04-15T13:35:09Z</time>
      </trkpt>
      <trkpt lat="47.79469" lon="3.57506">
        <ele>105</ele>
        <time>2014-04-15T13:35:11Z</time>
      </trkpt>
      <trkpt lat="47.79473" lon="3.57504">
        <ele>105</ele>
        <time>2014-04-15T13:35:23Z</time>
      </trkpt>
      <trkpt lat="47.79471" lon="3.57497">
        <ele>107</ele>
        <time>2014-04-15T13:35:24Z</time>
      </trkpt>
      <trkpt lat="47.79467" lon="3.57495">
        <ele>107</ele>
        <time>2014-04-15T13:35:32Z</time>
      </trkpt>
      <trkpt lat="47.79454" lon="3.57497">
        <ele>107</ele>
        <time>2014-04-15T13:35:54Z</time>
      </trkpt>
      <trkpt lat="47.79454" lon="3.57489">
        <ele>107</ele>
        <time>2014-04-15T13:35:57Z</time>
      </trkpt>
      <trkpt lat="47.79457" lon="3.57483">
        <ele>107</ele>
        <time>2014-04-15T13:36:00Z</time>
      </trkpt>
      <trkpt lat="47.79461" lon="3.5748">
        <ele>107</ele>
        <time>2014-04-15T13:36:02Z</time>
      </trkpt>
      <trkpt lat="47.79464" lon="3.57475">
        <ele>107</ele>
        <time>2014-04-15T13:36:07Z</time>
      </trkpt>
      <trkpt lat="47.79464" lon="3.57467">
        <ele>107</ele>
        <time>2014-04-15T13:36:12Z</time>
      </trkpt>
      <trkpt lat="47.79469" lon="3.57461">
        <ele>107</ele>
        <time>2014-04-15T13:36:15Z</time>
      </trkpt>
      <trkpt lat="47.79472" lon="3.57456">
        <ele>107</ele>
        <time>2014-04-15T13:36:18Z</time>
      </trkpt>
      <trkpt lat="47.79471" lon="3.57449">
        <ele>108</ele>
        <time>2014-04-15T13:36:22Z</time>
      </trkpt>
      <trkpt lat="47.79469" lon="3.57441">
        <ele>108</ele>
        <time>2014-04-15T13:37:01Z</time>
      </trkpt>
      <trkpt lat="47.79469" lon="3.57434">
        <ele>108</ele>
        <time>2014-04-15T13:37:04Z</time>
      </trkpt>
      <trkpt lat="47.79464" lon="3.57411">
        <ele>110</ele>
        <time>2014-04-15T13:37:13Z</time>
      </trkpt>
      <trkpt lat="47.79462" lon="3.57403">
        <ele>110</ele>
        <time>2014-04-15T13:37:16Z</time>
      </trkpt>
      <trkpt lat="47.79461" lon="3.57397">
        <ele>110</ele>
        <time>2014-04-15T13:37:19Z</time>
      </trkpt>
      <trkpt lat="47.79462" lon="3.5739">
        <ele>111</ele>
        <time>2014-04-15T13:37:23Z</time>
      </trkpt>
      <trkpt lat="47.79458" lon="3.57376">
        <ele>111</ele>
        <time>2014-04-15T13:37:33Z</time>
      </trkpt>
      <trkpt lat="47.79455" lon="3.57369">
        <ele>111</ele>
        <time>2014-04-15T13:37:37Z</time>
      </trkpt>
      <trkpt lat="47.79458" lon="3.57356">
        <ele>111</ele>
        <time>2014-04-15T13:37:43Z</time>
      </trkpt>
      <trkpt lat="47.79461" lon="3.57352">
        <ele>112</ele>
        <time>2014-04-15T13:37:45Z</time>
      </trkpt>
      <trkpt lat="47.79465" lon="3.57347">
        <ele>112</ele>
        <time>2014-04-15T13:37:48Z</time>
      </trkpt>
      <trkpt lat="47.79464" lon="3.57339">
        <ele>112</ele>
        <time>2014-04-15T13:37:53Z</time>
      </trkpt>
      <trkpt lat="47.79463" lon="3.57331">
        <ele>113</ele>
        <time>2014-04-15T13:37:58Z</time>
      </trkpt>
      <trkpt lat="47.79459" lon="3.57326">
        <ele>113</ele>
        <time>2014-04-15T13:38:06Z</time>
      </trkpt>
      <trkpt lat="47.79456" lon="3.5732">
        <ele>113</ele>
        <time>2014-04-15T13:38:09Z</time>
      </trkpt>
      <trkpt lat="47.79456" lon="3.57313">
        <ele>113</ele>
        <time>2014-04-15T13:38:12Z</time>
      </trkpt>
      <trkpt lat="47.79459" lon="3.57298">
        <ele>113</ele>
        <time>2014-04-15T13:38:19Z</time>
      </trkpt>
      <trkpt lat="47.79459" lon="3.57289">
        <ele>113</ele>
        <time>2014-04-15T13:38:23Z</time>
      </trkpt>
      <trkpt lat="47.7946" lon="3.57283">
        <ele>113</ele>
        <time>2014-04-15T13:38:28Z</time>
      </trkpt>
      <trkpt lat="47.79447" lon="3.57258">
        <ele>113</ele>
        <time>2014-04-15T13:38:44Z</time>
      </trkpt>
      <trkpt lat="47.79443" lon="3.57253">
        <ele>113</ele>
        <time>2014-04-15T13:38:49Z</time>
      </trkpt>
      <trkpt lat="47.79439" lon="3.57249">
        <ele>114</ele>
        <time>2014-04-15T13:38:53Z</time>
      </trkpt>
      <trkpt lat="47.79434" lon="3.57248">
        <ele>114</ele>
        <time>2014-04-15T13:38:56Z</time>
      </trkpt>
      <trkpt lat="47.79429" lon="3.5725">
        <ele>114</ele>
        <time>2014-04-15T13:38:59Z</time>
      </trkpt>
      <trkpt lat="47.79425" lon="3.57248">
        <ele>113</ele>
        <time>2014-04-15T13:39:01Z</time>
      </trkpt>
      <trkpt lat="47.79414" lon="3.57235">
        <ele>114</ele>
        <time>2014-04-15T13:39:05Z</time>
      </trkpt>
      <trkpt lat="47.79408" lon="3.57227">
        <ele>115</ele>
        <time>2014-04-15T13:39:07Z</time>
      </trkpt>
      <trkpt lat="47.79407" lon="3.57222">
        <ele>115</ele>
        <time>2014-04-15T13:39:09Z</time>
      </trkpt>
      <trkpt lat="47.79408" lon="3.57218">
        <ele>115</ele>
        <time>2014-04-15T13:39:12Z</time>
      </trkpt>
      <trkpt lat="47.79403" lon="3.57216">
        <ele>115</ele>
        <time>2014-04-15T13:39:21Z</time>
      </trkpt>
      <trkpt lat="47.79399" lon="3.5721">
        <ele>116</ele>
        <time>2014-04-15T13:39:25Z</time>
      </trkpt>
      <trkpt lat="47.79388" lon="3.57204">
        <ele>116</ele>
        <time>2014-04-15T13:39:43Z</time>
      </trkpt>
      <trkpt lat="47.79378" lon="3.57202">
        <ele>116</ele>
        <time>2014-04-15T13:39:52Z</time>
      </trkpt>
      <trkpt lat="47.79374" lon="3.57196">
        <ele>116</ele>
        <time>2014-04-15T13:39:55Z</time>
      </trkpt>
      <trkpt lat="47.7937" lon="3.57192">
        <ele>116</ele>
        <time>2014-04-15T13:40:00Z</time>
      </trkpt>
      <trkpt lat="47.79365" lon="3.57188">
        <ele>116</ele>
        <time>2014-04-15T13:40:03Z</time>
      </trkpt>
      <trkpt lat="47.79361" lon="3.57184">
        <ele>117</ele>
        <time>2014-04-15T13:40:09Z</time>
      </trkpt>
      <trkpt lat="47.79323" lon="3.57175">
        <ele>117</ele>
        <time>2014-04-16T06:30:51Z</time>
      </trkpt>
      <trkpt lat="47.79317" lon="3.57177">
        <ele>117</ele>
        <time>2014-04-16T06:31:03Z</time>
      </trkpt>
      <trkpt lat="47.79321" lon="3.57181">
        <ele>117</ele>
        <time>2014-04-16T06:31:09Z</time>
      </trkpt>
      <trkpt lat="47.79317" lon="3.57186">
        <ele>116</ele>
        <time>2014-04-16T06:31:16Z</time>
      </trkpt>
      <trkpt lat="47.7931" lon="3.57206">
        <ele>115</ele>
        <time>2014-04-16T06:31:26Z</time>
      </trkpt>
      <trkpt lat="47.7931" lon="3.57214">
        <ele>115</ele>
        <time>2014-04-16T06:31:30Z</time>
      </trkpt>
      <trkpt lat="47.79307" lon="3.5722">
        <ele>115</ele>
        <time>2014-04-16T06:31:35Z</time>
      </trkpt>
      <trkpt lat="47.79299" lon="3.57227">
        <ele>115</ele>
        <time>2014-04-16T06:31:42Z</time>
      </trkpt>
      <trkpt lat="47.79272" lon="3.57237">
        <ele>114</ele>
        <time>2014-04-16T06:32:04Z</time>
      </trkpt>
      <trkpt lat="47.79265" lon="3.57228">
        <ele>114</ele>
        <time>2014-04-16T06:32:09Z</time>
      </trkpt>
      <trkpt lat="47.79255" lon="3.57225">
        <ele>114</ele>
        <time>2014-04-16T06:32:15Z</time>
      </trkpt>
      <trkpt lat="47.79249" lon="3.57231">
        <ele>113</ele>
        <time>2014-04-16T06:32:23Z</time>
      </trkpt>
      <trkpt lat="47.79247" lon="3.57239">
        <ele>113</ele>
        <time>2014-04-16T06:32:27Z</time>
      </trkpt>
      <trkpt lat="47.79242" lon="3.57241">
        <ele>113</ele>
        <time>2014-04-16T06:32:31Z</time>
      </trkpt>
      <trkpt lat="47.79237" lon="3.57235">
        <ele>113</ele>
        <time>2014-04-16T06:32:34Z</time>
      </trkpt>
      <trkpt lat="47.7923" lon="3.57221">
        <ele>113</ele>
        <time>2014-04-16T06:32:39Z</time>
      </trkpt>
      <trkpt lat="47.79225" lon="3.57221">
        <ele>113</ele>
        <time>2014-04-16T06:32:44Z</time>
      </trkpt>
      <trkpt lat="47.79222" lon="3.57226">
        <ele>113</ele>
        <time>2014-04-16T06:32:48Z</time>
      </trkpt>
      <trkpt lat="47.79217" lon="3.5723">
        <ele>112</ele>
        <time>2014-04-16T06:32:52Z</time>
      </trkpt>
      <trkpt lat="47.79211" lon="3.57232">
        <ele>112</ele>
        <time>2014-04-16T06:32:56Z</time>
      </trkpt>
      <trkpt lat="47.79206" lon="3.57232">
        <ele>112</ele>
        <time>2014-04-16T06:33:03Z</time>
      </trkpt>
      <trkpt lat="47.792" lon="3.57236">
        <ele>112</ele>
        <time>2014-04-16T06:33:07Z</time>
      </trkpt>
      <trkpt lat="47.79194" lon="3.57239">
        <ele>111</ele>
        <time>2014-04-16T06:33:10Z</time>
      </trkpt>
      <trkpt lat="47.79188" lon="3.57238">
        <ele>111</ele>
        <time>2014-04-16T06:33:13Z</time>
      </trkpt>
      <trkpt lat="47.79183" lon="3.57241">
        <ele>111</ele>
        <time>2014-04-16T06:33:16Z</time>
      </trkpt>
      <trkpt lat="47.79178" lon="3.57245">
        <ele>110</ele>
        <time>2014-04-16T06:33:19Z</time>
      </trkpt>
      <trkpt lat="47.79171" lon="3.57255">
        <ele>109</ele>
        <time>2014-04-16T06:33:25Z</time>
      </trkpt>
      <trkpt lat="47.79167" lon="3.57257">
        <ele>109</ele>
        <time>2014-04-16T06:33:29Z</time>
      </trkpt>
      <trkpt lat="47.79161" lon="3.57261">
        <ele>108</ele>
        <time>2014-04-16T06:33:32Z</time>
      </trkpt>
      <trkpt lat="47.79149" lon="3.57275">
        <ele>107</ele>
        <time>2014-04-16T06:33:41Z</time>
      </trkpt>
      <trkpt lat="47.79145" lon="3.57274">
        <ele>107</ele>
        <time>2014-04-16T06:33:45Z</time>
      </trkpt>
      <trkpt lat="47.79141" lon="3.57269">
        <ele>107</ele>
        <time>2014-04-16T06:33:48Z</time>
      </trkpt>
      <trkpt lat="47.79137" lon="3.57263">
        <ele>107</ele>
        <time>2014-04-16T06:33:51Z</time>
      </trkpt>
      <trkpt lat="47.79132" lon="3.57265">
        <ele>107</ele>
        <time>2014-04-16T06:33:56Z</time>
      </trkpt>
      <trkpt lat="47.79129" lon="3.57269">
        <ele>107</ele>
        <time>2014-04-16T06:34:00Z</time>
      </trkpt>
      <trkpt lat="47.79124" lon="3.57273">
        <ele>107</ele>
        <time>2014-04-16T06:34:04Z</time>
      </trkpt>
      <trkpt lat="47.79119" lon="3.57276">
        <ele>106</ele>
        <time>2014-04-16T06:34:09Z</time>
      </trkpt>
      <trkpt lat="47.79116" lon="3.57281">
        <ele>106</ele>
        <time>2014-04-16T06:34:13Z</time>
      </trkpt>
      <trkpt lat="47.79111" lon="3.57286">
        <ele>106</ele>
        <time>2014-04-16T06:34:17Z</time>
      </trkpt>
      <trkpt lat="47.79106" lon="3.57288">
        <ele>106</ele>
        <time>2014-04-16T06:34:21Z</time>
      </trkpt>
      <trkpt lat="47.79102" lon="3.57292">
        <ele>106</ele>
        <time>2014-04-16T06:34:25Z</time>
      </trkpt>
      <trkpt lat="47.79092" lon="3.57297">
        <ele>106</ele>
        <time>2014-04-16T06:34:31Z</time>
      </trkpt>
      <trkpt lat="47.79088" lon="3.57301">
        <ele>106</ele>
        <time>2014-04-16T06:34:36Z</time>
      </trkpt>
      <trkpt lat="47.79085" lon="3.57306">
        <ele>106</ele>
        <time>2014-04-16T06:34:40Z</time>
      </trkpt>
      <trkpt lat="47.79074" lon="3.57312">
        <ele>106</ele>
        <time>2014-04-16T06:34:48Z</time>
      </trkpt>
      <trkpt lat="47.79069" lon="3.57315">
        <ele>106</ele>
        <time>2014-04-16T06:34:52Z</time>
      </trkpt>
      <trkpt lat="47.79067" lon="3.57315">
        <ele>106</ele>
        <time>2014-04-16T06:34:58Z</time>
      </trkpt>
      <trkpt lat="47.79061" lon="3.57317">
        <ele>106</ele>
        <time>2014-04-16T06:35:03Z</time>
      </trkpt>
      <trkpt lat="47.79057" lon="3.57315">
        <ele>106</ele>
        <time>2014-04-16T06:35:06Z</time>
      </trkpt>
      <trkpt lat="47.79052" lon="3.57315">
        <ele>106</ele>
        <time>2014-04-16T06:35:10Z</time>
      </trkpt>
      <trkpt lat="47.79038" lon="3.57323">
        <ele>106</ele>
        <time>2014-04-16T06:35:22Z</time>
      </trkpt>
      <trkpt lat="47.79029" lon="3.57332">
        <ele>106</ele>
        <time>2014-04-16T06:35:29Z</time>
      </trkpt>
      <trkpt lat="47.79025" lon="3.57336">
        <ele>106</ele>
        <time>2014-04-16T06:35:31Z</time>
      </trkpt>
      <trkpt lat="47.79017" lon="3.57347">
        <ele>106</ele>
        <time>2014-04-16T06:35:37Z</time>
      </trkpt>
      <trkpt lat="47.79013" lon="3.57351">
        <ele>106</ele>
        <time>2014-04-16T06:35:40Z</time>
      </trkpt>
      <trkpt lat="47.79008" lon="3.57354">
        <ele>106</ele>
        <time>2014-04-16T06:35:44Z</time>
      </trkpt>
      <trkpt lat="47.79002" lon="3.57356">
        <ele>106</ele>
        <time>2014-04-16T06:35:49Z</time>
      </trkpt>
      <trkpt lat="47.78998" lon="3.57359">
        <ele>107</ele>
        <time>2014-04-16T06:35:53Z</time>
      </trkpt>
      <trkpt lat="47.78989" lon="3.57364">
        <ele>107</ele>
        <time>2014-04-16T06:36:03Z</time>
      </trkpt>
      <trkpt lat="47.78978" lon="3.57372">
        <ele>107</ele>
        <time>2014-04-16T06:36:10Z</time>
      </trkpt>
      <trkpt lat="47.78974" lon="3.57375">
        <ele>107</ele>
        <time>2014-04-16T06:36:17Z</time>
      </trkpt>
      <trkpt lat="47.78968" lon="3.57377">
        <ele>107</ele>
        <time>2014-04-16T06:36:22Z</time>
      </trkpt>
      <trkpt lat="47.78963" lon="3.57382">
        <ele>107</ele>
        <time>2014-04-16T06:36:27Z</time>
      </trkpt>
      <trkpt lat="47.78954" lon="3.57383">
        <ele>107</ele>
        <time>2014-04-16T06:36:39Z</time>
      </trkpt>
      <trkpt lat="47.78949" lon="3.57387">
        <ele>107</ele>
        <time>2014-04-16T06:36:43Z</time>
      </trkpt>
      <trkpt lat="47.78944" lon="3.57392">
        <ele>107</ele>
        <time>2014-04-16T06:36:48Z</time>
      </trkpt>
      <trkpt lat="47.7893" lon="3.57397">
        <ele>107</ele>
        <time>2014-04-16T06:36:56Z</time>
      </trkpt>
      <trkpt lat="47.78926" lon="3.574">
        <ele>107</ele>
        <time>2014-04-16T06:36:59Z</time>
      </trkpt>
      <trkpt lat="47.7892" lon="3.57403">
        <ele>107</ele>
        <time>2014-04-16T06:37:03Z</time>
      </trkpt>
      <trkpt lat="47.78915" lon="3.57404">
        <ele>107</ele>
        <time>2014-04-16T06:37:07Z</time>
      </trkpt>
      <trkpt lat="47.7891" lon="3.57408">
        <ele>107</ele>
        <time>2014-04-16T06:37:12Z</time>
      </trkpt>
      <trkpt lat="47.78906" lon="3.57408">
        <ele>107</ele>
        <time>2014-04-16T06:37:18Z</time>
      </trkpt>
      <trkpt lat="47.78906" lon="3.57417">
        <ele>107</ele>
        <time>2014-04-16T06:37:24Z</time>
      </trkpt>
      <trkpt lat="47.78904" lon="3.57423">
        <ele>107</ele>
        <time>2014-04-16T06:37:27Z</time>
      </trkpt>
      <trkpt lat="47.78898" lon="3.57422">
        <ele>107</ele>
        <time>2014-04-16T06:37:31Z</time>
      </trkpt>
      <trkpt lat="47.78894" lon="3.57422">
        <ele>107</ele>
        <time>2014-04-16T06:37:34Z</time>
      </trkpt>
      <trkpt lat="47.78889" lon="3.57423">
        <ele>107</ele>
        <time>2014-04-16T06:37:37Z</time>
      </trkpt>
      <trkpt lat="47.78884" lon="3.57424">
        <ele>107</ele>
        <time>2014-04-16T06:37:40Z</time>
      </trkpt>
      <trkpt lat="47.78879" lon="3.57426">
        <ele>107</ele>
        <time>2014-04-16T06:37:43Z</time>
      </trkpt>
      <trkpt lat="47.78869" lon="3.57436">
        <ele>107</ele>
        <time>2014-04-16T06:37:49Z</time>
      </trkpt>
      <trkpt lat="47.78865" lon="3.57439">
        <ele>107</ele>
        <time>2014-04-16T06:37:55Z</time>
      </trkpt>
      <trkpt lat="47.7886" lon="3.5744">
        <ele>107</ele>
        <time>2014-04-16T06:38:00Z</time>
      </trkpt>
      <trkpt lat="47.78855" lon="3.57439">
        <ele>107</ele>
        <time>2014-04-16T06:38:06Z</time>
      </trkpt>
      <trkpt lat="47.7885" lon="3.5744">
        <ele>107</ele>
        <time>2014-04-16T06:38:09Z</time>
      </trkpt>
      <trkpt lat="47.78846" lon="3.57437">
        <ele>107</ele>
        <time>2014-04-16T06:38:18Z</time>
      </trkpt>
      <trkpt lat="47.78835" lon="3.57438">
        <ele>107</ele>
        <time>2014-04-16T06:38:26Z</time>
      </trkpt>
      <trkpt lat="47.78831" lon="3.57438">
        <ele>107</ele>
        <time>2014-04-16T06:38:29Z</time>
      </trkpt>
      <trkpt lat="47.78821" lon="3.5744">
        <ele>107</ele>
        <time>2014-04-16T06:38:36Z</time>
      </trkpt>
      <trkpt lat="47.78816" lon="3.57444">
        <ele>107</ele>
        <time>2014-04-16T06:38:41Z</time>
      </trkpt>
      <trkpt lat="47.78813" lon="3.57451">
        <ele>107</ele>
        <time>2014-04-16T06:38:46Z</time>
      </trkpt>
      <trkpt lat="47.78809" lon="3.57455">
        <ele>107</ele>
        <time>2014-04-16T06:38:50Z</time>
      </trkpt>
      <trkpt lat="47.78803" lon="3.57456">
        <ele>107</ele>
        <time>2014-04-16T06:38:54Z</time>
      </trkpt>
      <trkpt lat="47.78798" lon="3.57458">
        <ele>107</ele>
        <time>2014-04-16T06:38:58Z</time>
      </trkpt>
      <trkpt lat="47.78794" lon="3.57462">
        <ele>107</ele>
        <time>2014-04-16T06:39:02Z</time>
      </trkpt>
      <trkpt lat="47.78789" lon="3.57463">
        <ele>107</ele>
        <time>2014-04-16T06:39:07Z</time>
      </trkpt>
      <trkpt lat="47.78784" lon="3.57465">
        <ele>107</ele>
        <time>2014-04-16T06:39:11Z</time>
      </trkpt>
      <trkpt lat="47.78779" lon="3.57468">
        <ele>107</ele>
        <time>2014-04-16T06:39:15Z</time>
      </trkpt>
      <trkpt lat="47.78771" lon="3.57475">
        <ele>107</ele>
        <time>2014-04-16T06:39:24Z</time>
      </trkpt>
      <trkpt lat="47.78766" lon="3.57478">
        <ele>107</ele>
        <time>2014-04-16T06:39:28Z</time>
      </trkpt>
      <trkpt lat="47.78761" lon="3.57476">
        <ele>107</ele>
        <time>2014-04-16T06:39:32Z</time>
      </trkpt>
      <trkpt lat="47.78756" lon="3.57475">
        <ele>107</ele>
        <time>2014-04-16T06:39:36Z</time>
      </trkpt>
      <trkpt lat="47.78748" lon="3.57483">
        <ele>109</ele>
        <time>2014-04-16T06:39:44Z</time>
      </trkpt>
      <trkpt lat="47.78743" lon="3.57486">
        <ele>109</ele>
        <time>2014-04-16T06:39:48Z</time>
      </trkpt>
      <trkpt lat="47.78734" lon="3.57495">
        <ele>109</ele>
        <time>2014-04-16T06:39:56Z</time>
      </trkpt>
      <trkpt lat="47.78729" lon="3.57496">
        <ele>109</ele>
        <time>2014-04-16T06:40:00Z</time>
      </trkpt>
      <trkpt lat="47.78725" lon="3.57497">
        <ele>109</ele>
        <time>2014-04-16T06:40:06Z</time>
      </trkpt>
      <trkpt lat="47.7872" lon="3.57498">
        <ele>110</ele>
        <time>2014-04-16T06:40:12Z</time>
      </trkpt>
      <trkpt lat="47.78715" lon="3.575">
        <ele>110</ele>
        <time>2014-04-16T06:40:17Z</time>
      </trkpt>
      <trkpt lat="47.78704" lon="3.57501">
        <ele>110</ele>
        <time>2014-04-16T06:40:25Z</time>
      </trkpt>
      <trkpt lat="47.78689" lon="3.57508">
        <ele>111</ele>
        <time>2014-04-16T06:40:36Z</time>
      </trkpt>
      <trkpt lat="47.7868" lon="3.57507">
        <ele>112</ele>
        <time>2014-04-16T06:40:47Z</time>
      </trkpt>
      <trkpt lat="47.78671" lon="3.57511">
        <ele>112</ele>
        <time>2014-04-16T06:40:52Z</time>
      </trkpt>
      <trkpt lat="47.78662" lon="3.5751">
        <ele>115</ele>
        <time>2014-04-16T06:40:58Z</time>
      </trkpt>
      <trkpt lat="47.78653" lon="3.57512">
        <ele>116</ele>
        <time>2014-04-16T06:41:03Z</time>
      </trkpt>
      <trkpt lat="47.78646" lon="3.57521">
        <ele>116</ele>
        <time>2014-04-16T06:41:17Z</time>
      </trkpt>
      <trkpt lat="47.78646" lon="3.57534">
        <ele>116</ele>
        <time>2014-04-16T06:41:25Z</time>
      </trkpt>
      <trkpt lat="47.7864" lon="3.57542">
        <ele>116</ele>
        <time>2014-04-16T06:41:33Z</time>
      </trkpt>
      <trkpt lat="47.78634" lon="3.5754">
        <ele>116</ele>
        <time>2014-04-16T06:41:36Z</time>
      </trkpt>
      <trkpt lat="47.78629" lon="3.5754">
        <ele>117</ele>
        <time>2014-04-16T06:41:41Z</time>
      </trkpt>
      <trkpt lat="47.78609" lon="3.57547">
        <ele>118</ele>
        <time>2014-04-16T06:41:59Z</time>
      </trkpt>
      <trkpt lat="47.78599" lon="3.5755">
        <ele>118</ele>
        <time>2014-04-16T06:42:04Z</time>
      </trkpt>
      <trkpt lat="47.78589" lon="3.57553">
        <ele>119</ele>
        <time>2014-04-16T06:42:08Z</time>
      </trkpt>
      <trkpt lat="47.78586" lon="3.57563">
        <ele>119</ele>
        <time>2014-04-16T06:42:20Z</time>
      </trkpt>
      <trkpt lat="47.78576" lon="3.57566">
        <ele>123</ele>
        <time>2014-04-16T06:42:27Z</time>
      </trkpt>
      <trkpt lat="47.78571" lon="3.57568">
        <ele>123</ele>
        <time>2014-04-16T06:42:32Z</time>
      </trkpt>
      <trkpt lat="47.7856" lon="3.57565">
        <ele>124</ele>
        <time>2014-04-16T06:42:38Z</time>
      </trkpt>
      <trkpt lat="47.78554" lon="3.57562">
        <ele>125</ele>
        <time>2014-04-16T06:42:42Z</time>
      </trkpt>
      <trkpt lat="47.7855" lon="3.57563">
        <ele>125</ele>
        <time>2014-04-16T06:42:48Z</time>
      </trkpt>
      <trkpt lat="47.78541" lon="3.57571">
        <ele>125</ele>
        <time>2014-04-16T06:42:54Z</time>
      </trkpt>
      <trkpt lat="47.78536" lon="3.57573">
        <ele>126</ele>
        <time>2014-04-16T06:42:57Z</time>
      </trkpt>
      <trkpt lat="47.78526" lon="3.57575">
        <ele>126</ele>
        <time>2014-04-16T06:43:04Z</time>
      </trkpt>
      <trkpt lat="47.78521" lon="3.57573">
        <ele>126</ele>
        <time>2014-04-16T06:43:06Z</time>
      </trkpt>
      <trkpt lat="47.78519" lon="3.5757">
        <ele>126</ele>
        <time>2014-04-16T06:43:14Z</time>
      </trkpt>
      <trkpt lat="47.78514" lon="3.5757">
        <ele>127</ele>
        <time>2014-04-16T06:43:20Z</time>
      </trkpt>
      <trkpt lat="47.78509" lon="3.57567">
        <ele>127</ele>
        <time>2014-04-16T06:43:23Z</time>
      </trkpt>
      <trkpt lat="47.78503" lon="3.57567">
        <ele>127</ele>
        <time>2014-04-16T06:43:28Z</time>
      </trkpt>
      <trkpt lat="47.78489" lon="3.57569">
        <ele>129</ele>
        <time>2014-04-16T06:43:40Z</time>
      </trkpt>
      <trkpt lat="47.78483" lon="3.57567">
        <ele>129</ele>
        <time>2014-04-16T06:43:43Z</time>
      </trkpt>
      <trkpt lat="47.78478" lon="3.57568">
        <ele>130</ele>
        <time>2014-04-16T06:43:46Z</time>
      </trkpt>
      <trkpt lat="47.78468" lon="3.57566">
        <ele>130</ele>
        <time>2014-04-16T06:43:55Z</time>
      </trkpt>
      <trkpt lat="47.78463" lon="3.57567">
        <ele>130</ele>
        <time>2014-04-16T06:43:59Z</time>
      </trkpt>
      <trkpt lat="47.78432" lon="3.57563">
        <ele>131</ele>
        <time>2014-04-16T06:44:22Z</time>
      </trkpt>
      <trkpt lat="47.78435" lon="3.57566">
        <ele>130</ele>
        <time>2014-04-16T06:44:45Z</time>
      </trkpt>
      <trkpt lat="47.78434" lon="3.57574">
        <ele>131</ele>
        <time>2014-04-16T06:44:49Z</time>
      </trkpt>
      <trkpt lat="47.78429" lon="3.57576">
        <ele>131</ele>
        <time>2014-04-16T06:44:54Z</time>
      </trkpt>
      <trkpt lat="47.7842" lon="3.57573">
        <ele>131</ele>
        <time>2014-04-16T06:45:01Z</time>
      </trkpt>
      <trkpt lat="47.78415" lon="3.57571">
        <ele>132</ele>
        <time>2014-04-16T06:45:06Z</time>
      </trkpt>
      <trkpt lat="47.78394" lon="3.57563">
        <ele>134</ele>
        <time>2014-04-16T06:45:25Z</time>
      </trkpt>
      <trkpt lat="47.7839" lon="3.57562">
        <ele>134</ele>
        <time>2014-04-16T06:45:29Z</time>
      </trkpt>
      <trkpt lat="47.78384" lon="3.57561">
        <ele>134</ele>
        <time>2014-04-16T06:45:33Z</time>
      </trkpt>
      <trkpt lat="47.7838" lon="3.57559">
        <ele>134</ele>
        <time>2014-04-16T06:45:36Z</time>
      </trkpt>
      <trkpt lat="47.78375" lon="3.5756">
        <ele>135</ele>
        <time>2014-04-16T06:45:39Z</time>
      </trkpt>
      <trkpt lat="47.7837" lon="3.57558">
        <ele>135</ele>
        <time>2014-04-16T06:45:44Z</time>
      </trkpt>
      <trkpt lat="47.78366" lon="3.57555">
        <ele>135</ele>
        <time>2014-04-16T06:45:48Z</time>
      </trkpt>
      <trkpt lat="47.78361" lon="3.57554">
        <ele>135</ele>
        <time>2014-04-16T06:45:52Z</time>
      </trkpt>
      <trkpt lat="47.78356" lon="3.57555">
        <ele>136</ele>
        <time>2014-04-16T06:45:56Z</time>
      </trkpt>
      <trkpt lat="47.78351" lon="3.57561">
        <ele>136</ele>
        <time>2014-04-16T06:46:00Z</time>
      </trkpt>
      <trkpt lat="47.7834" lon="3.57566">
        <ele>136</ele>
        <time>2014-04-16T06:46:08Z</time>
      </trkpt>
      <trkpt lat="47.78336" lon="3.57569">
        <ele>137</ele>
        <time>2014-04-16T06:46:11Z</time>
      </trkpt>
      <trkpt lat="47.78335" lon="3.57576">
        <ele>137</ele>
        <time>2014-04-16T06:46:15Z</time>
      </trkpt>
      <trkpt lat="47.78336" lon="3.57583">
        <ele>138</ele>
        <time>2014-04-16T06:46:18Z</time>
      </trkpt>
      <trkpt lat="47.78334" lon="3.57598">
        <ele>136</ele>
        <time>2014-04-16T06:46:26Z</time>
      </trkpt>
      <trkpt lat="47.78329" lon="3.57611">
        <ele>139</ele>
        <time>2014-04-16T06:46:36Z</time>
      </trkpt>
      <trkpt lat="47.78323" lon="3.57623">
        <ele>139</ele>
        <time>2014-04-16T06:46:44Z</time>
      </trkpt>
      <trkpt lat="47.78316" lon="3.57632">
        <ele>139</ele>
        <time>2014-04-16T06:46:50Z</time>
      </trkpt>
      <trkpt lat="47.78312" lon="3.57636">
        <ele>139</ele>
        <time>2014-04-16T06:46:54Z</time>
      </trkpt>
      <trkpt lat="47.78302" lon="3.57641">
        <ele>139</ele>
        <time>2014-04-16T06:47:01Z</time>
      </trkpt>
      <trkpt lat="47.78297" lon="3.57642">
        <ele>139</ele>
        <time>2014-04-16T06:47:05Z</time>
      </trkpt>
      <trkpt lat="47.78292" lon="3.57645">
        <ele>139</ele>
        <time>2014-04-16T06:47:09Z</time>
      </trkpt>
      <trkpt lat="47.78287" lon="3.57646">
        <ele>140</ele>
        <time>2014-04-16T06:47:13Z</time>
      </trkpt>
      <trkpt lat="47.78277" lon="3.57646">
        <ele>140</ele>
        <time>2014-04-16T06:47:21Z</time>
      </trkpt>
      <trkpt lat="47.78272" lon="3.57648">
        <ele>140</ele>
        <time>2014-04-16T06:47:25Z</time>
      </trkpt>
      <trkpt lat="47.78267" lon="3.57651">
        <ele>140</ele>
        <time>2014-04-16T06:47:29Z</time>
      </trkpt>
      <trkpt lat="47.78263" lon="3.57656">
        <ele>140</ele>
        <time>2014-04-16T06:47:33Z</time>
      </trkpt>
      <trkpt lat="47.78237" lon="3.5768">
        <ele>141</ele>
        <time>2014-04-16T06:48:00Z</time>
      </trkpt>
      <trkpt lat="47.78233" lon="3.57683">
        <ele>141</ele>
        <time>2014-04-16T06:48:04Z</time>
      </trkpt>
      <trkpt lat="47.7822" lon="3.57696">
        <ele>142</ele>
        <time>2014-04-16T06:48:14Z</time>
      </trkpt>
      <trkpt lat="47.78217" lon="3.57702">
        <ele>142</ele>
        <time>2014-04-16T06:48:20Z</time>
      </trkpt>
      <trkpt lat="47.78213" lon="3.57705">
        <ele>142</ele>
        <time>2014-04-16T06:48:23Z</time>
      </trkpt>
      <trkpt lat="47.78208" lon="3.57707">
        <ele>142</ele>
        <time>2014-04-16T06:48:27Z</time>
      </trkpt>
      <trkpt lat="47.78203" lon="3.57709">
        <ele>142</ele>
        <time>2014-04-16T06:48:31Z</time>
      </trkpt>
      <trkpt lat="47.78189" lon="3.5772">
        <ele>142</ele>
        <time>2014-04-16T06:48:43Z</time>
      </trkpt>
      <trkpt lat="47.78173" lon="3.57729">
        <ele>142</ele>
        <time>2014-04-16T06:48:56Z</time>
      </trkpt>
      <trkpt lat="47.78168" lon="3.57731">
        <ele>142</ele>
        <time>2014-04-16T06:49:01Z</time>
      </trkpt>
      <trkpt lat="47.78164" lon="3.57736">
        <ele>144</ele>
        <time>2014-04-16T06:49:05Z</time>
      </trkpt>
      <trkpt lat="47.7816" lon="3.57739">
        <ele>144</ele>
        <time>2014-04-16T06:49:10Z</time>
      </trkpt>
      <trkpt lat="47.78144" lon="3.57747">
        <ele>144</ele>
        <time>2014-04-16T06:49:22Z</time>
      </trkpt>
      <trkpt lat="47.7814" lon="3.5775">
        <ele>144</ele>
        <time>2014-04-16T06:49:25Z</time>
      </trkpt>
      <trkpt lat="47.78135" lon="3.57752">
        <ele>144</ele>
        <time>2014-04-16T06:49:28Z</time>
      </trkpt>
      <trkpt lat="47.7813" lon="3.57754">
        <ele>144</ele>
        <time>2014-04-16T06:49:34Z</time>
      </trkpt>
      <trkpt lat="47.78121" lon="3.57759">
        <ele>145</ele>
        <time>2014-04-16T06:49:41Z</time>
      </trkpt>
      <trkpt lat="47.78116" lon="3.57761">
        <ele>145</ele>
        <time>2014-04-16T06:49:44Z</time>
      </trkpt>
      <trkpt lat="47.78108" lon="3.57769">
        <ele>145</ele>
        <time>2014-04-16T06:49:53Z</time>
      </trkpt>
      <trkpt lat="47.78098" lon="3.57777">
        <ele>145</ele>
        <time>2014-04-16T06:50:03Z</time>
      </trkpt>
      <trkpt lat="47.78093" lon="3.57779">
        <ele>145</ele>
        <time>2014-04-16T06:50:07Z</time>
      </trkpt>
      <trkpt lat="47.78088" lon="3.57779">
        <ele>145</ele>
        <time>2014-04-16T06:50:14Z</time>
      </trkpt>
      <trkpt lat="47.78083" lon="3.57782">
        <ele>148</ele>
        <time>2014-04-16T06:50:18Z</time>
      </trkpt>
      <trkpt lat="47.78076" lon="3.57791">
        <ele>148</ele>
        <time>2014-04-16T06:50:24Z</time>
      </trkpt>
      <trkpt lat="47.78067" lon="3.57796">
        <ele>148</ele>
        <time>2014-04-16T06:50:30Z</time>
      </trkpt>
      <trkpt lat="47.78062" lon="3.57797">
        <ele>148</ele>
        <time>2014-04-16T06:50:36Z</time>
      </trkpt>
      <trkpt lat="47.78058" lon="3.57799">
        <ele>148</ele>
        <time>2014-04-16T06:50:40Z</time>
      </trkpt>
      <trkpt lat="47.78053" lon="3.57802">
        <ele>148</ele>
        <time>2014-04-16T06:50:43Z</time>
      </trkpt>
      <trkpt lat="47.78048" lon="3.57806">
        <ele>148</ele>
        <time>2014-04-16T06:50:47Z</time>
      </trkpt>
      <trkpt lat="47.78042" lon="3.57808">
        <ele>149</ele>
        <time>2014-04-16T06:50:52Z</time>
      </trkpt>
      <trkpt lat="47.78038" lon="3.57812">
        <ele>149</ele>
        <time>2014-04-16T06:50:57Z</time>
      </trkpt>
      <trkpt lat="47.78022" lon="3.57829">
        <ele>150</ele>
        <time>2014-04-16T06:51:14Z</time>
      </trkpt>
      <trkpt lat="47.78016" lon="3.57833">
        <ele>150</ele>
        <time>2014-04-16T06:51:18Z</time>
      </trkpt>
      <trkpt lat="47.78007" lon="3.57842">
        <ele>151</ele>
        <time>2014-04-16T06:51:26Z</time>
      </trkpt>
      <trkpt lat="47.78002" lon="3.57846">
        <ele>151</ele>
        <time>2014-04-16T06:51:29Z</time>
      </trkpt>
      <trkpt lat="47.77978" lon="3.57858">
        <ele>152</ele>
        <time>2014-04-16T06:51:51Z</time>
      </trkpt>
      <trkpt lat="47.77975" lon="3.57864">
        <ele>152</ele>
        <time>2014-04-16T06:51:55Z</time>
      </trkpt>
      <trkpt lat="47.77971" lon="3.57869">
        <ele>152</ele>
        <time>2014-04-16T06:51:59Z</time>
      </trkpt>
      <trkpt lat="47.77969" lon="3.57876">
        <ele>152</ele>
        <time>2014-04-16T06:52:03Z</time>
      </trkpt>
      <trkpt lat="47.77965" lon="3.57881">
        <ele>152</ele>
        <time>2014-04-16T06:52:08Z</time>
      </trkpt>
      <trkpt lat="47.77959" lon="3.57881">
        <ele>152</ele>
        <time>2014-04-16T06:52:12Z</time>
      </trkpt>
      <trkpt lat="47.77954" lon="3.57879">
        <ele>152</ele>
        <time>2014-04-16T06:52:16Z</time>
      </trkpt>
      <trkpt lat="47.7795" lon="3.57877">
        <ele>152</ele>
        <time>2014-04-16T06:52:18Z</time>
      </trkpt>
      <trkpt lat="47.77942" lon="3.57867">
        <ele>152</ele>
        <time>2014-04-16T06:52:26Z</time>
      </trkpt>
      <trkpt lat="47.77939" lon="3.57854">
        <ele>152</ele>
        <time>2014-04-16T06:52:34Z</time>
      </trkpt>
      <trkpt lat="47.77931" lon="3.57844">
        <ele>152</ele>
        <time>2014-04-16T06:52:45Z</time>
      </trkpt>
      <trkpt lat="47.77928" lon="3.57836">
        <ele>153</ele>
        <time>2014-04-16T06:52:49Z</time>
      </trkpt>
      <trkpt lat="47.77928" lon="3.57831">
        <ele>152</ele>
        <time>2014-04-16T06:55:35Z</time>
      </trkpt>
      <trkpt lat="47.77918" lon="3.57825">
        <ele>153</ele>
        <time>2014-04-16T06:55:44Z</time>
      </trkpt>
      <trkpt lat="47.77914" lon="3.57821">
        <ele>154</ele>
        <time>2014-04-16T06:55:47Z</time>
      </trkpt>
      <trkpt lat="47.77911" lon="3.57816">
        <ele>154</ele>
        <time>2014-04-16T06:55:51Z</time>
      </trkpt>
      <trkpt lat="47.7791" lon="3.57809">
        <ele>154</ele>
        <time>2014-04-16T06:55:56Z</time>
      </trkpt>
      <trkpt lat="47.7791" lon="3.57801">
        <ele>154</ele>
        <time>2014-04-16T06:56:00Z</time>
      </trkpt>
      <trkpt lat="47.77909" lon="3.57793">
        <ele>154</ele>
        <time>2014-04-16T06:56:04Z</time>
      </trkpt>
      <trkpt lat="47.77906" lon="3.57786">
        <ele>154</ele>
        <time>2014-04-16T06:56:08Z</time>
      </trkpt>
      <trkpt lat="47.77901" lon="3.57784">
        <ele>154</ele>
        <time>2014-04-16T06:56:12Z</time>
      </trkpt>
      <trkpt lat="47.77897" lon="3.57781">
        <ele>154</ele>
        <time>2014-04-16T06:56:16Z</time>
      </trkpt>
      <trkpt lat="47.77892" lon="3.57775">
        <ele>154</ele>
        <time>2014-04-16T06:56:21Z</time>
      </trkpt>
      <trkpt lat="47.77883" lon="3.57755">
        <ele>154</ele>
        <time>2014-04-16T06:56:33Z</time>
      </trkpt>
      <trkpt lat="47.77882" lon="3.57748">
        <ele>153</ele>
        <time>2014-04-16T06:56:39Z</time>
      </trkpt>
      <trkpt lat="47.77878" lon="3.57744">
        <ele>154</ele>
        <time>2014-04-16T06:56:44Z</time>
      </trkpt>
      <trkpt lat="47.77875" lon="3.57737">
        <ele>154</ele>
        <time>2014-04-16T06:56:48Z</time>
      </trkpt>
      <trkpt lat="47.77875" lon="3.57729">
        <ele>154</ele>
        <time>2014-04-16T06:56:53Z</time>
      </trkpt>
      <trkpt lat="47.77872" lon="3.57714">
        <ele>154</ele>
        <time>2014-04-16T06:57:02Z</time>
      </trkpt>
      <trkpt lat="47.7787" lon="3.57708">
        <ele>154</ele>
        <time>2014-04-16T06:57:07Z</time>
      </trkpt>
      <trkpt lat="47.77866" lon="3.57706">
        <ele>154</ele>
        <time>2014-04-16T06:57:11Z</time>
      </trkpt>
      <trkpt lat="47.77861" lon="3.57707">
        <ele>154</ele>
        <time>2014-04-16T06:57:15Z</time>
      </trkpt>
      <trkpt lat="47.77862" lon="3.57712">
        <ele>154</ele>
        <time>2014-04-16T06:57:31Z</time>
      </trkpt>
      <trkpt lat="47.77865" lon="3.57705">
        <ele>154</ele>
        <time>2014-04-16T06:57:36Z</time>
      </trkpt>
      <trkpt lat="47.77869" lon="3.577">
        <ele>154</ele>
        <time>2014-04-16T06:57:39Z</time>
      </trkpt>
      <trkpt lat="47.77873" lon="3.57697">
        <ele>153</ele>
        <time>2014-04-16T06:57:43Z</time>
      </trkpt>
      <trkpt lat="47.77876" lon="3.57691">
        <ele>153</ele>
        <time>2014-04-16T06:57:48Z</time>
      </trkpt>
      <trkpt lat="47.77875" lon="3.57683">
        <ele>153</ele>
        <time>2014-04-16T06:57:51Z</time>
      </trkpt>
      <trkpt lat="47.77877" lon="3.57677">
        <ele>153</ele>
        <time>2014-04-16T06:57:56Z</time>
      </trkpt>
      <trkpt lat="47.77876" lon="3.57669">
        <ele>153</ele>
        <time>2014-04-16T06:58:01Z</time>
      </trkpt>
      <trkpt lat="47.77874" lon="3.57661">
        <ele>152</ele>
        <time>2014-04-16T06:58:05Z</time>
      </trkpt>
      <trkpt lat="47.7787" lon="3.57656">
        <ele>152</ele>
        <time>2014-04-16T06:58:09Z</time>
      </trkpt>
      <trkpt lat="47.77861" lon="3.57657">
        <ele>153</ele>
        <time>2014-04-16T06:58:15Z</time>
      </trkpt>
      <trkpt lat="47.77852" lon="3.5766">
        <ele>153</ele>
        <time>2014-04-16T06:58:21Z</time>
      </trkpt>
      <trkpt lat="47.77846" lon="3.5766">
        <ele>153</ele>
        <time>2014-04-16T06:58:25Z</time>
      </trkpt>
      <trkpt lat="47.77841" lon="3.57662">
        <ele>153</ele>
        <time>2014-04-16T06:58:30Z</time>
      </trkpt>
      <trkpt lat="47.77838" lon="3.5767">
        <ele>154</ele>
        <time>2014-04-16T06:58:34Z</time>
      </trkpt>
      <trkpt lat="47.77835" lon="3.57676">
        <ele>154</ele>
        <time>2014-04-16T06:58:38Z</time>
      </trkpt>
      <trkpt lat="47.7783" lon="3.57676">
        <ele>155</ele>
        <time>2014-04-16T06:58:42Z</time>
      </trkpt>
      <trkpt lat="47.77825" lon="3.57676">
        <ele>155</ele>
        <time>2014-04-16T06:58:46Z</time>
      </trkpt>
      <trkpt lat="47.7781" lon="3.57681">
        <ele>156</ele>
        <time>2014-04-16T06:59:00Z</time>
      </trkpt>
      <trkpt lat="47.77805" lon="3.57685">
        <ele>157</ele>
        <time>2014-04-16T06:59:04Z</time>
      </trkpt>
      <trkpt lat="47.77801" lon="3.5769">
        <ele>157</ele>
        <time>2014-04-16T06:59:08Z</time>
      </trkpt>
      <trkpt lat="47.77796" lon="3.57692">
        <ele>157</ele>
        <time>2014-04-16T06:59:12Z</time>
      </trkpt>
      <trkpt lat="47.77792" lon="3.57694">
        <ele>157</ele>
        <time>2014-04-16T06:59:16Z</time>
      </trkpt>
      <trkpt lat="47.77787" lon="3.57697">
        <ele>158</ele>
        <time>2014-04-16T06:59:20Z</time>
      </trkpt>
      <trkpt lat="47.77782" lon="3.57698">
        <ele>158</ele>
        <time>2014-04-16T06:59:23Z</time>
      </trkpt>
      <trkpt lat="47.7778" lon="3.57694">
        <ele>158</ele>
        <time>2014-04-16T06:59:35Z</time>
      </trkpt>
      <trkpt lat="47.77776" lon="3.57696">
        <ele>158</ele>
        <time>2014-04-16T06:59:49Z</time>
      </trkpt>
      <trkpt lat="47.77771" lon="3.57701">
        <ele>158</ele>
        <time>2014-04-16T06:59:53Z</time>
      </trkpt>
      <trkpt lat="47.77766" lon="3.57705">
        <ele>158</ele>
        <time>2014-04-16T06:59:57Z</time>
      </trkpt>
      <trkpt lat="47.77746" lon="3.57717">
        <ele>161</ele>
        <time>2014-04-16T07:00:16Z</time>
      </trkpt>
      <trkpt lat="47.7774" lon="3.57719">
        <ele>161</ele>
        <time>2014-04-16T07:00:19Z</time>
      </trkpt>
      <trkpt lat="47.77736" lon="3.57723">
        <ele>162</ele>
        <time>2014-04-16T07:00:23Z</time>
      </trkpt>
      <trkpt lat="47.7773" lon="3.57726">
        <ele>162</ele>
        <time>2014-04-16T07:00:27Z</time>
      </trkpt>
      <trkpt lat="47.77726" lon="3.57728">
        <ele>162</ele>
        <time>2014-04-16T07:00:31Z</time>
      </trkpt>
      <trkpt lat="47.77721" lon="3.57732">
        <ele>162</ele>
        <time>2014-04-16T07:00:37Z</time>
      </trkpt>
      <trkpt lat="47.77716" lon="3.57733">
        <ele>162</ele>
        <time>2014-04-16T07:00:42Z</time>
      </trkpt>
      <trkpt lat="47.77711" lon="3.57734">
        <ele>162</ele>
        <time>2014-04-16T07:00:47Z</time>
      </trkpt>
      <trkpt lat="47.77707" lon="3.57737">
        <ele>162</ele>
        <time>2014-04-16T07:00:51Z</time>
      </trkpt>
      <trkpt lat="47.77697" lon="3.5774">
        <ele>163</ele>
        <time>2014-04-16T07:01:02Z</time>
      </trkpt>
      <trkpt lat="47.77692" lon="3.5774">
        <ele>163</ele>
        <time>2014-04-16T07:01:06Z</time>
      </trkpt>
      <trkpt lat="47.77687" lon="3.57745">
        <ele>163</ele>
        <time>2014-04-16T07:01:10Z</time>
      </trkpt>
      <trkpt lat="47.77683" lon="3.57749">
        <ele>164</ele>
        <time>2014-04-16T07:01:13Z</time>
      </trkpt>
      <trkpt lat="47.77678" lon="3.57751">
        <ele>165</ele>
        <time>2014-04-16T07:01:17Z</time>
      </trkpt>
      <trkpt lat="47.77674" lon="3.57755">
        <ele>165</ele>
        <time>2014-04-16T07:01:21Z</time>
      </trkpt>
      <trkpt lat="47.7767" lon="3.57757">
        <ele>165</ele>
        <time>2014-04-16T07:01:27Z</time>
      </trkpt>
      <trkpt lat="47.77666" lon="3.57761">
        <ele>166</ele>
        <time>2014-04-16T07:01:33Z</time>
      </trkpt>
      <trkpt lat="47.77655" lon="3.57762">
        <ele>167</ele>
        <time>2014-04-16T07:01:42Z</time>
      </trkpt>
      <trkpt lat="47.7765" lon="3.57765">
        <ele>167</ele>
        <time>2014-04-16T07:01:45Z</time>
      </trkpt>
      <trkpt lat="47.77646" lon="3.57768">
        <ele>167</ele>
        <time>2014-04-16T07:01:48Z</time>
      </trkpt>
      <trkpt lat="47.77629" lon="3.57778">
        <ele>168</ele>
        <time>2014-04-16T07:01:59Z</time>
      </trkpt>
      <trkpt lat="47.77624" lon="3.5778">
        <ele>168</ele>
        <time>2014-04-16T07:02:05Z</time>
      </trkpt>
      <trkpt lat="47.77619" lon="3.57778">
        <ele>168</ele>
        <time>2014-04-16T07:02:12Z</time>
      </trkpt>
      <trkpt lat="47.77592" lon="3.578">
        <ele>169</ele>
        <time>2014-04-16T07:02:31Z</time>
      </trkpt>
      <trkpt lat="47.77583" lon="3.57803">
        <ele>172</ele>
        <time>2014-04-16T07:02:41Z</time>
      </trkpt>
      <trkpt lat="47.77565" lon="3.57816">
        <ele>172</ele>
        <time>2014-04-16T07:02:58Z</time>
      </trkpt>
      <trkpt lat="47.77556" lon="3.57821">
        <ele>172</ele>
        <time>2014-04-16T07:03:07Z</time>
      </trkpt>
      <trkpt lat="47.77547" lon="3.57827">
        <ele>172</ele>
        <time>2014-04-16T07:03:18Z</time>
      </trkpt>
      <trkpt lat="47.77533" lon="3.57841">
        <ele>173</ele>
        <time>2014-04-16T07:03:32Z</time>
      </trkpt>
      <trkpt lat="47.77528" lon="3.57844">
        <ele>173</ele>
        <time>2014-04-16T07:03:36Z</time>
      </trkpt>
      <trkpt lat="47.77524" lon="3.57846">
        <ele>173</ele>
        <time>2014-04-16T07:03:40Z</time>
      </trkpt>
      <trkpt lat="47.77515" lon="3.5785">
        <ele>174</ele>
        <time>2014-04-16T07:03:45Z</time>
      </trkpt>
      <trkpt lat="47.77507" lon="3.5786">
        <ele>174</ele>
        <time>2014-04-16T07:03:53Z</time>
      </trkpt>
      <trkpt lat="47.77499" lon="3.57867">
        <ele>176</ele>
        <time>2014-04-16T07:04:00Z</time>
      </trkpt>
      <trkpt lat="47.77491" lon="3.5787">
        <ele>176</ele>
        <time>2014-04-16T07:04:10Z</time>
      </trkpt>
      <trkpt lat="47.77486" lon="3.5787">
        <ele>176</ele>
        <time>2014-04-16T07:04:31Z</time>
      </trkpt>
      <trkpt lat="47.77482" lon="3.57873">
        <ele>176</ele>
        <time>2014-04-16T07:04:34Z</time>
      </trkpt>
      <trkpt lat="47.77477" lon="3.57875">
        <ele>176</ele>
        <time>2014-04-16T07:04:38Z</time>
      </trkpt>
      <trkpt lat="47.77473" lon="3.57879">
        <ele>176</ele>
        <time>2014-04-16T07:04:41Z</time>
      </trkpt>
      <trkpt lat="47.77469" lon="3.57885">
        <ele>176</ele>
        <time>2014-04-16T07:04:44Z</time>
      </trkpt>
      <trkpt lat="47.77464" lon="3.57889">
        <ele>176</ele>
        <time>2014-04-16T07:04:48Z</time>
      </trkpt>
      <trkpt lat="47.77458" lon="3.57891">
        <ele>176</ele>
        <time>2014-04-16T07:04:53Z</time>
      </trkpt>
      <trkpt lat="47.77444" lon="3.57899">
        <ele>176</ele>
        <time>2014-04-16T07:05:06Z</time>
      </trkpt>
      <trkpt lat="47.77438" lon="3.57902">
        <ele>176</ele>
        <time>2014-04-16T07:05:10Z</time>
      </trkpt>
      <trkpt lat="47.77434" lon="3.57906">
        <ele>177</ele>
        <time>2014-04-16T07:05:13Z</time>
      </trkpt>
      <trkpt lat="47.7743" lon="3.57912">
        <ele>177</ele>
        <time>2014-04-16T07:05:16Z</time>
      </trkpt>
      <trkpt lat="47.77421" lon="3.57922">
        <ele>176</ele>
        <time>2014-04-16T07:05:23Z</time>
      </trkpt>
      <trkpt lat="47.77414" lon="3.57924">
        <ele>177</ele>
        <time>2014-04-16T07:05:28Z</time>
      </trkpt>
      <trkpt lat="47.77409" lon="3.57926">
        <ele>177</ele>
        <time>2014-04-16T07:05:34Z</time>
      </trkpt>
      <trkpt lat="47.77404" lon="3.57925">
        <ele>177</ele>
        <time>2014-04-16T07:05:39Z</time>
      </trkpt>
      <trkpt lat="47.77395" lon="3.57927">
        <ele>177</ele>
        <time>2014-04-16T07:05:48Z</time>
      </trkpt>
      <trkpt lat="47.77386" lon="3.57934">
        <ele>177</ele>
        <time>2014-04-16T07:05:54Z</time>
      </trkpt>
      <trkpt lat="47.77379" lon="3.57944">
        <ele>177</ele>
        <time>2014-04-16T07:05:59Z</time>
      </trkpt>
      <trkpt lat="47.7737" lon="3.57948">
        <ele>177</ele>
        <time>2014-04-16T07:06:06Z</time>
      </trkpt>
      <trkpt lat="47.77366" lon="3.57952">
        <ele>177</ele>
        <time>2014-04-16T07:06:10Z</time>
      </trkpt>
      <trkpt lat="47.77361" lon="3.57954">
        <ele>177</ele>
        <time>2014-04-16T07:06:16Z</time>
      </trkpt>
      <trkpt lat="47.77352" lon="3.57958">
        <ele>177</ele>
        <time>2014-04-16T07:06:27Z</time>
      </trkpt>
      <trkpt lat="47.77349" lon="3.57963">
        <ele>177</ele>
        <time>2014-04-16T07:06:31Z</time>
      </trkpt>
      <trkpt lat="47.77348" lon="3.57966">
        <ele>177</ele>
        <time>2014-04-16T07:06:37Z</time>
      </trkpt>
      <trkpt lat="47.77343" lon="3.57969">
        <ele>177</ele>
        <time>2014-04-16T07:06:49Z</time>
      </trkpt>
      <trkpt lat="47.77339" lon="3.57973">
        <ele>177</ele>
        <time>2014-04-16T07:06:53Z</time>
      </trkpt>
      <trkpt lat="47.77329" lon="3.5798">
        <ele>178</ele>
        <time>2014-04-16T07:07:02Z</time>
      </trkpt>
      <trkpt lat="47.77323" lon="3.57983">
        <ele>178</ele>
        <time>2014-04-16T07:07:06Z</time>
      </trkpt>
      <trkpt lat="47.77319" lon="3.57983">
        <ele>178</ele>
        <time>2014-04-16T07:07:10Z</time>
      </trkpt>
      <trkpt lat="47.77314" lon="3.57984">
        <ele>178</ele>
        <time>2014-04-16T07:07:14Z</time>
      </trkpt>
      <trkpt lat="47.7729" lon="3.57996">
        <ele>178</ele>
        <time>2014-04-16T07:07:34Z</time>
      </trkpt>
      <trkpt lat="47.77285" lon="3.57999">
        <ele>179</ele>
        <time>2014-04-16T07:07:38Z</time>
      </trkpt>
      <trkpt lat="47.7728" lon="3.58001">
        <ele>179</ele>
        <time>2014-04-16T07:07:42Z</time>
      </trkpt>
      <trkpt lat="47.77275" lon="3.58001">
        <ele>179</ele>
        <time>2014-04-16T07:07:47Z</time>
      </trkpt>
      <trkpt lat="47.7727" lon="3.58002">
        <ele>179</ele>
        <time>2014-04-16T07:07:52Z</time>
      </trkpt>
      <trkpt lat="47.77265" lon="3.58">
        <ele>179</ele>
        <time>2014-04-16T07:07:56Z</time>
      </trkpt>
      <trkpt lat="47.7726" lon="3.57999">
        <ele>179</ele>
        <time>2014-04-16T07:08:00Z</time>
      </trkpt>
      <trkpt lat="47.77251" lon="3.58007">
        <ele>180</ele>
        <time>2014-04-16T07:08:07Z</time>
      </trkpt>
      <trkpt lat="47.77247" lon="3.58009">
        <ele>180</ele>
        <time>2014-04-16T07:08:10Z</time>
      </trkpt>
      <trkpt lat="47.77242" lon="3.5801">
        <ele>180</ele>
        <time>2014-04-16T07:08:14Z</time>
      </trkpt>
      <trkpt lat="47.77233" lon="3.58017">
        <ele>180</ele>
        <time>2014-04-16T07:08:25Z</time>
      </trkpt>
      <trkpt lat="47.77223" lon="3.5802">
        <ele>180</ele>
        <time>2014-04-16T07:08:32Z</time>
      </trkpt>
      <trkpt lat="47.77212" lon="3.58021">
        <ele>180</ele>
        <time>2014-04-16T07:08:40Z</time>
      </trkpt>
      <trkpt lat="47.77198" lon="3.58024">
        <ele>180</ele>
        <time>2014-04-16T07:08:50Z</time>
      </trkpt>
      <trkpt lat="47.77192" lon="3.58027">
        <ele>180</ele>
        <time>2014-04-16T07:08:54Z</time>
      </trkpt>
      <trkpt lat="47.77188" lon="3.58031">
        <ele>180</ele>
        <time>2014-04-16T07:08:58Z</time>
      </trkpt>
      <trkpt lat="47.77184" lon="3.58031">
        <ele>180</ele>
        <time>2014-04-16T07:09:03Z</time>
      </trkpt>
      <trkpt lat="47.7718" lon="3.58036">
        <ele>180</ele>
        <time>2014-04-16T07:09:19Z</time>
      </trkpt>
      <trkpt lat="47.77175" lon="3.58037">
        <ele>181</ele>
        <time>2014-04-16T07:09:22Z</time>
      </trkpt>
      <trkpt lat="47.7717" lon="3.58036">
        <ele>181</ele>
        <time>2014-04-16T07:09:25Z</time>
      </trkpt>
      <trkpt lat="47.7716" lon="3.58038">
        <ele>181</ele>
        <time>2014-04-16T07:09:35Z</time>
      </trkpt>
      <trkpt lat="47.77155" lon="3.58037">
        <ele>181</ele>
        <time>2014-04-16T07:09:40Z</time>
      </trkpt>
      <trkpt lat="47.7715" lon="3.58041">
        <ele>181</ele>
        <time>2014-04-16T07:09:44Z</time>
      </trkpt>
      <trkpt lat="47.77145" lon="3.58045">
        <ele>181</ele>
        <time>2014-04-16T07:09:48Z</time>
      </trkpt>
      <trkpt lat="47.77135" lon="3.58051">
        <ele>181</ele>
        <time>2014-04-16T07:09:56Z</time>
      </trkpt>
      <trkpt lat="47.7713" lon="3.58052">
        <ele>181</ele>
        <time>2014-04-16T07:10:00Z</time>
      </trkpt>
      <trkpt lat="47.77125" lon="3.58052">
        <ele>181</ele>
        <time>2014-04-16T07:10:03Z</time>
      </trkpt>
      <trkpt lat="47.77117" lon="3.58053">
        <ele>181</ele>
        <time>2014-04-16T07:10:09Z</time>
      </trkpt>
      <trkpt lat="47.77112" lon="3.58056">
        <ele>181</ele>
        <time>2014-04-16T07:10:15Z</time>
      </trkpt>
      <trkpt lat="47.77107" lon="3.58057">
        <ele>181</ele>
        <time>2014-04-16T07:10:19Z</time>
      </trkpt>
      <trkpt lat="47.77102" lon="3.58061">
        <ele>181</ele>
        <time>2014-04-16T07:10:24Z</time>
      </trkpt>
      <trkpt lat="47.77097" lon="3.58062">
        <ele>181</ele>
        <time>2014-04-16T07:10:27Z</time>
      </trkpt>
      <trkpt lat="47.77093" lon="3.58059">
        <ele>181</ele>
        <time>2014-04-16T07:10:30Z</time>
      </trkpt>
      <trkpt lat="47.77088" lon="3.58061">
        <ele>181</ele>
        <time>2014-04-16T07:10:34Z</time>
      </trkpt>
      <trkpt lat="47.7707" lon="3.58075">
        <ele>181</ele>
        <time>2014-04-16T07:10:55Z</time>
      </trkpt>
      <trkpt lat="47.77064" lon="3.58077">
        <ele>181</ele>
        <time>2014-04-16T07:10:59Z</time>
      </trkpt>
      <trkpt lat="47.77059" lon="3.58077">
        <ele>181</ele>
        <time>2014-04-16T07:11:02Z</time>
      </trkpt>
      <trkpt lat="47.77036" lon="3.58095">
        <ele>180</ele>
        <time>2014-04-16T07:11:23Z</time>
      </trkpt>
      <trkpt lat="47.77031" lon="3.58094">
        <ele>180</ele>
        <time>2014-04-16T07:11:27Z</time>
      </trkpt>
      <trkpt lat="47.77027" lon="3.58099">
        <ele>180</ele>
        <time>2014-04-16T07:11:32Z</time>
      </trkpt>
      <trkpt lat="47.77022" lon="3.58103">
        <ele>180</ele>
        <time>2014-04-16T07:11:35Z</time>
      </trkpt>
      <trkpt lat="47.77018" lon="3.58107">
        <ele>180</ele>
        <time>2014-04-16T07:11:40Z</time>
      </trkpt>
      <trkpt lat="47.77013" lon="3.58109">
        <ele>180</ele>
        <time>2014-04-16T07:11:43Z</time>
      </trkpt>
      <trkpt lat="47.77008" lon="3.5811">
        <ele>179</ele>
        <time>2014-04-16T07:11:46Z</time>
      </trkpt>
      <trkpt lat="47.77004" lon="3.58112">
        <ele>179</ele>
        <time>2014-04-16T07:11:50Z</time>
      </trkpt>
      <trkpt lat="47.77" lon="3.58119">
        <ele>179</ele>
        <time>2014-04-16T07:11:53Z</time>
      </trkpt>
      <trkpt lat="47.76996" lon="3.58124">
        <ele>179</ele>
        <time>2014-04-16T07:11:56Z</time>
      </trkpt>
      <trkpt lat="47.76991" lon="3.58123">
        <ele>179</ele>
        <time>2014-04-16T07:12:02Z</time>
      </trkpt>
      <trkpt lat="47.76987" lon="3.58119">
        <ele>179</ele>
        <time>2014-04-16T07:12:07Z</time>
      </trkpt>
      <trkpt lat="47.76982" lon="3.58116">
        <ele>179</ele>
        <time>2014-04-16T07:12:12Z</time>
      </trkpt>
      <trkpt lat="47.76978" lon="3.58118">
        <ele>179</ele>
        <time>2014-04-16T07:12:15Z</time>
      </trkpt>
      <trkpt lat="47.76973" lon="3.58121">
        <ele>179</ele>
        <time>2014-04-16T07:12:18Z</time>
      </trkpt>
      <trkpt lat="47.76969" lon="3.58126">
        <ele>178</ele>
        <time>2014-04-16T07:12:21Z</time>
      </trkpt>
      <trkpt lat="47.76964" lon="3.58129">
        <ele>178</ele>
        <time>2014-04-16T07:12:25Z</time>
      </trkpt>
      <trkpt lat="47.7696" lon="3.58132">
        <ele>178</ele>
        <time>2014-04-16T07:12:28Z</time>
      </trkpt>
      <trkpt lat="47.76954" lon="3.58134">
        <ele>178</ele>
        <time>2014-04-16T07:12:31Z</time>
      </trkpt>
      <trkpt lat="47.7695" lon="3.58136">
        <ele>178</ele>
        <time>2014-04-16T07:12:37Z</time>
      </trkpt>
      <trkpt lat="47.76946" lon="3.58143">
        <ele>178</ele>
        <time>2014-04-16T07:12:43Z</time>
      </trkpt>
      <trkpt lat="47.76941" lon="3.58145">
        <ele>178</ele>
        <time>2014-04-16T07:12:49Z</time>
      </trkpt>
      <trkpt lat="47.76937" lon="3.58148">
        <ele>178</ele>
        <time>2014-04-16T07:12:55Z</time>
      </trkpt>
      <trkpt lat="47.76933" lon="3.58153">
        <ele>177</ele>
        <time>2014-04-16T07:12:59Z</time>
      </trkpt>
      <trkpt lat="47.7692" lon="3.58163">
        <ele>176</ele>
        <time>2014-04-16T07:13:12Z</time>
      </trkpt>
      <trkpt lat="47.76912" lon="3.58173">
        <ele>176</ele>
        <time>2014-04-16T07:13:18Z</time>
      </trkpt>
      <trkpt lat="47.76902" lon="3.58179">
        <ele>175</ele>
        <time>2014-04-16T07:13:26Z</time>
      </trkpt>
      <trkpt lat="47.76893" lon="3.58185">
        <ele>175</ele>
        <time>2014-04-16T07:13:33Z</time>
      </trkpt>
      <trkpt lat="47.76889" lon="3.58189">
        <ele>175</ele>
        <time>2014-04-16T07:13:36Z</time>
      </trkpt>
      <trkpt lat="47.76885" lon="3.58193">
        <ele>175</ele>
        <time>2014-04-16T07:13:41Z</time>
      </trkpt>
      <trkpt lat="47.76881" lon="3.58195">
        <ele>175</ele>
        <time>2014-04-16T07:13:46Z</time>
      </trkpt>
      <trkpt lat="47.76876" lon="3.58196">
        <ele>175</ele>
        <time>2014-04-16T07:13:51Z</time>
      </trkpt>
      <trkpt lat="47.76871" lon="3.58199">
        <ele>175</ele>
        <time>2014-04-16T07:13:56Z</time>
      </trkpt>
      <trkpt lat="47.76861" lon="3.58198">
        <ele>175</ele>
        <time>2014-04-16T07:14:05Z</time>
      </trkpt>
      <trkpt lat="47.76857" lon="3.58202">
        <ele>175</ele>
        <time>2014-04-16T07:14:09Z</time>
      </trkpt>
      <trkpt lat="47.76853" lon="3.58205">
        <ele>175</ele>
        <time>2014-04-16T07:14:13Z</time>
      </trkpt>
      <trkpt lat="47.76843" lon="3.58212">
        <ele>175</ele>
        <time>2014-04-16T07:14:22Z</time>
      </trkpt>
      <trkpt lat="47.76839" lon="3.58216">
        <ele>174</ele>
        <time>2014-04-16T07:14:25Z</time>
      </trkpt>
      <trkpt lat="47.76835" lon="3.58223">
        <ele>174</ele>
        <time>2014-04-16T07:14:29Z</time>
      </trkpt>
      <trkpt lat="47.7683" lon="3.58227">
        <ele>174</ele>
        <time>2014-04-16T07:14:34Z</time>
      </trkpt>
      <trkpt lat="47.76827" lon="3.58231">
        <ele>174</ele>
        <time>2014-04-16T07:14:39Z</time>
      </trkpt>
      <trkpt lat="47.76821" lon="3.58233">
        <ele>174</ele>
        <time>2014-04-16T07:14:45Z</time>
      </trkpt>
      <trkpt lat="47.76818" lon="3.58238">
        <ele>174</ele>
        <time>2014-04-16T07:14:49Z</time>
      </trkpt>
      <trkpt lat="47.76818" lon="3.58244">
        <ele>173</ele>
        <time>2014-04-16T07:15:14Z</time>
      </trkpt>
      <trkpt lat="47.76813" lon="3.58242">
        <ele>174</ele>
        <time>2014-04-16T07:15:21Z</time>
      </trkpt>
      <trkpt lat="47.76812" lon="3.58246">
        <ele>174</ele>
        <time>2014-04-16T07:15:48Z</time>
      </trkpt>
      <trkpt lat="47.76807" lon="3.58249">
        <ele>174</ele>
        <time>2014-04-16T07:15:53Z</time>
      </trkpt>
      <trkpt lat="47.76802" lon="3.58251">
        <ele>172</ele>
        <time>2014-04-16T07:16:01Z</time>
      </trkpt>
      <trkpt lat="47.76797" lon="3.5825">
        <ele>175</ele>
        <time>2014-04-16T07:16:07Z</time>
      </trkpt>
      <trkpt lat="47.76792" lon="3.58252">
        <ele>173</ele>
        <time>2014-04-16T07:16:11Z</time>
      </trkpt>
      <trkpt lat="47.76788" lon="3.58255">
        <ele>173</ele>
        <time>2014-04-16T07:16:15Z</time>
      </trkpt>
      <trkpt lat="47.76784" lon="3.5826">
        <ele>173</ele>
        <time>2014-04-16T07:16:19Z</time>
      </trkpt>
      <trkpt lat="47.76779" lon="3.58263">
        <ele>173</ele>
        <time>2014-04-16T07:16:25Z</time>
      </trkpt>
      <trkpt lat="47.76774" lon="3.58264">
        <ele>173</ele>
        <time>2014-04-16T07:16:29Z</time>
      </trkpt>
      <trkpt lat="47.76769" lon="3.58267">
        <ele>174</ele>
        <time>2014-04-16T07:16:34Z</time>
      </trkpt>
      <trkpt lat="47.76765" lon="3.58267">
        <ele>174</ele>
        <time>2014-04-16T07:16:41Z</time>
      </trkpt>
      <trkpt lat="47.7676" lon="3.58266">
        <ele>174</ele>
        <time>2014-04-16T07:16:46Z</time>
      </trkpt>
      <trkpt lat="47.76755" lon="3.58268">
        <ele>174</ele>
        <time>2014-04-16T07:16:51Z</time>
      </trkpt>
      <trkpt lat="47.76751" lon="3.58271">
        <ele>174</ele>
        <time>2014-04-16T07:16:55Z</time>
      </trkpt>
      <trkpt lat="47.76745" lon="3.58273">
        <ele>178</ele>
        <time>2014-04-16T07:17:00Z</time>
      </trkpt>
      <trkpt lat="47.7674" lon="3.58275">
        <ele>178</ele>
        <time>2014-04-16T07:17:04Z</time>
      </trkpt>
      <trkpt lat="47.7673" lon="3.58276">
        <ele>179</ele>
        <time>2014-04-16T07:17:15Z</time>
      </trkpt>
      <trkpt lat="47.76726" lon="3.58279">
        <ele>179</ele>
        <time>2014-04-16T07:17:19Z</time>
      </trkpt>
      <trkpt lat="47.76721" lon="3.58283">
        <ele>179</ele>
        <time>2014-04-16T07:17:23Z</time>
      </trkpt>
      <trkpt lat="47.76712" lon="3.58289">
        <ele>179</ele>
        <time>2014-04-16T07:17:32Z</time>
      </trkpt>
      <trkpt lat="47.76706" lon="3.58291">
        <ele>180</ele>
        <time>2014-04-16T07:17:36Z</time>
      </trkpt>
      <trkpt lat="47.76701" lon="3.58291">
        <ele>180</ele>
        <time>2014-04-16T07:17:39Z</time>
      </trkpt>
      <trkpt lat="47.76696" lon="3.58291">
        <ele>180</ele>
        <time>2014-04-16T07:17:44Z</time>
      </trkpt>
      <trkpt lat="47.76692" lon="3.58298">
        <ele>180</ele>
        <time>2014-04-16T07:17:55Z</time>
      </trkpt>
      <trkpt lat="47.76688" lon="3.58303">
        <ele>180</ele>
        <time>2014-04-16T07:18:00Z</time>
      </trkpt>
      <trkpt lat="47.76683" lon="3.58306">
        <ele>181</ele>
        <time>2014-04-16T07:18:05Z</time>
      </trkpt>
      <trkpt lat="47.76677" lon="3.58309">
        <ele>181</ele>
        <time>2014-04-16T07:18:09Z</time>
      </trkpt>
      <trkpt lat="47.76674" lon="3.58314">
        <ele>181</ele>
        <time>2014-04-16T07:18:14Z</time>
      </trkpt>
      <trkpt lat="47.7666" lon="3.58323">
        <ele>184</ele>
        <time>2014-04-16T07:18:26Z</time>
      </trkpt>
      <trkpt lat="47.7665" lon="3.58327">
        <ele>184</ele>
        <time>2014-04-16T07:18:35Z</time>
      </trkpt>
      <trkpt lat="47.76646" lon="3.5833">
        <ele>184</ele>
        <time>2014-04-16T07:18:39Z</time>
      </trkpt>
      <trkpt lat="47.76642" lon="3.58334">
        <ele>183</ele>
        <time>2014-04-16T07:18:43Z</time>
      </trkpt>
      <trkpt lat="47.76637" lon="3.58336">
        <ele>184</ele>
        <time>2014-04-16T07:18:47Z</time>
      </trkpt>
      <trkpt lat="47.76628" lon="3.58345">
        <ele>184</ele>
        <time>2014-04-16T07:18:55Z</time>
      </trkpt>
      <trkpt lat="47.76623" lon="3.58345">
        <ele>184</ele>
        <time>2014-04-16T07:18:59Z</time>
      </trkpt>
      <trkpt lat="47.76615" lon="3.58354">
        <ele>184</ele>
        <time>2014-04-16T07:19:07Z</time>
      </trkpt>
      <trkpt lat="47.76611" lon="3.58357">
        <ele>184</ele>
        <time>2014-04-16T07:19:10Z</time>
      </trkpt>
      <trkpt lat="47.76574" lon="3.58379">
        <ele>187</ele>
        <time>2014-04-16T07:19:45Z</time>
      </trkpt>
      <trkpt lat="47.76569" lon="3.58383">
        <ele>187</ele>
        <time>2014-04-16T07:19:49Z</time>
      </trkpt>
      <trkpt lat="47.76565" lon="3.58387">
        <ele>187</ele>
        <time>2014-04-16T07:19:53Z</time>
      </trkpt>
      <trkpt lat="47.76556" lon="3.58392">
        <ele>187</ele>
        <time>2014-04-16T07:20:01Z</time>
      </trkpt>
      <trkpt lat="47.76542" lon="3.58402">
        <ele>188</ele>
        <time>2014-04-16T07:20:10Z</time>
      </trkpt>
      <trkpt lat="47.76536" lon="3.58404">
        <ele>188</ele>
        <time>2014-04-16T07:20:14Z</time>
      </trkpt>
      <trkpt lat="47.76531" lon="3.58406">
        <ele>188</ele>
        <time>2014-04-16T07:20:19Z</time>
      </trkpt>
      <trkpt lat="47.76526" lon="3.58408">
        <ele>188</ele>
        <time>2014-04-16T07:20:24Z</time>
      </trkpt>
      <trkpt lat="47.76521" lon="3.5841">
        <ele>189</ele>
        <time>2014-04-16T07:20:28Z</time>
      </trkpt>
      <trkpt lat="47.76512" lon="3.58416">
        <ele>189</ele>
        <time>2014-04-16T07:20:36Z</time>
      </trkpt>
      <trkpt lat="47.76507" lon="3.58417">
        <ele>189</ele>
        <time>2014-04-16T07:20:40Z</time>
      </trkpt>
      <trkpt lat="47.76502" lon="3.58416">
        <ele>190</ele>
        <time>2014-04-16T07:20:44Z</time>
      </trkpt>
      <trkpt lat="47.76492" lon="3.58417">
        <ele>190</ele>
        <time>2014-04-16T07:20:53Z</time>
      </trkpt>
      <trkpt lat="47.76488" lon="3.58419">
        <ele>190</ele>
        <time>2014-04-16T07:20:57Z</time>
      </trkpt>
      <trkpt lat="47.76484" lon="3.58422">
        <ele>190</ele>
        <time>2014-04-16T07:21:01Z</time>
      </trkpt>
      <trkpt lat="47.76479" lon="3.58426">
        <ele>190</ele>
        <time>2014-04-16T07:21:05Z</time>
      </trkpt>
      <trkpt lat="47.76475" lon="3.58432">
        <ele>191</ele>
        <time>2014-04-16T07:21:09Z</time>
      </trkpt>
      <trkpt lat="47.76469" lon="3.58435">
        <ele>191</ele>
        <time>2014-04-16T07:21:13Z</time>
      </trkpt>
      <trkpt lat="47.76464" lon="3.58435">
        <ele>191</ele>
        <time>2014-04-16T07:21:17Z</time>
      </trkpt>
      <trkpt lat="47.76459" lon="3.58437">
        <ele>191</ele>
        <time>2014-04-16T07:21:20Z</time>
      </trkpt>
      <trkpt lat="47.76454" lon="3.58442">
        <ele>191</ele>
        <time>2014-04-16T07:21:23Z</time>
      </trkpt>
      <trkpt lat="47.7645" lon="3.58446">
        <ele>191</ele>
        <time>2014-04-16T07:21:26Z</time>
      </trkpt>
      <trkpt lat="47.76446" lon="3.58449">
        <ele>191</ele>
        <time>2014-04-16T07:21:30Z</time>
      </trkpt>
      <trkpt lat="47.76441" lon="3.5845">
        <ele>191</ele>
        <time>2014-04-16T07:21:35Z</time>
      </trkpt>
      <trkpt lat="47.76437" lon="3.58454">
        <ele>191</ele>
        <time>2014-04-16T07:21:39Z</time>
      </trkpt>
      <trkpt lat="47.76426" lon="3.58455">
        <ele>191</ele>
        <time>2014-04-16T07:21:48Z</time>
      </trkpt>
      <trkpt lat="47.76421" lon="3.58455">
        <ele>191</ele>
        <time>2014-04-16T07:21:53Z</time>
      </trkpt>
      <trkpt lat="47.76416" lon="3.58455">
        <ele>193</ele>
        <time>2014-04-16T07:21:58Z</time>
      </trkpt>
      <trkpt lat="47.76411" lon="3.58458">
        <ele>193</ele>
        <time>2014-04-16T07:22:03Z</time>
      </trkpt>
      <trkpt lat="47.76406" lon="3.58459">
        <ele>193</ele>
        <time>2014-04-16T07:22:07Z</time>
      </trkpt>
      <trkpt lat="47.764" lon="3.5846">
        <ele>193</ele>
        <time>2014-04-16T07:22:12Z</time>
      </trkpt>
      <trkpt lat="47.76395" lon="3.58463">
        <ele>193</ele>
        <time>2014-04-16T07:22:16Z</time>
      </trkpt>
      <trkpt lat="47.7638" lon="3.58464">
        <ele>193</ele>
        <time>2014-04-16T07:22:28Z</time>
      </trkpt>
      <trkpt lat="47.76372" lon="3.58472">
        <ele>193</ele>
        <time>2014-04-16T07:22:36Z</time>
      </trkpt>
      <trkpt lat="47.76368" lon="3.58473">
        <ele>193</ele>
        <time>2014-04-16T07:22:42Z</time>
      </trkpt>
      <trkpt lat="47.76363" lon="3.58473">
        <ele>193</ele>
        <time>2014-04-16T07:22:48Z</time>
      </trkpt>
      <trkpt lat="47.76358" lon="3.58473">
        <ele>193</ele>
        <time>2014-04-16T07:22:54Z</time>
      </trkpt>
      <trkpt lat="47.76353" lon="3.58475">
        <ele>193</ele>
        <time>2014-04-16T07:22:59Z</time>
      </trkpt>
      <trkpt lat="47.76348" lon="3.58479">
        <ele>193</ele>
        <time>2014-04-16T07:23:03Z</time>
      </trkpt>
      <trkpt lat="47.76333" lon="3.58487">
        <ele>194</ele>
        <time>2014-04-16T07:23:16Z</time>
      </trkpt>
      <trkpt lat="47.76328" lon="3.58491">
        <ele>194</ele>
        <time>2014-04-16T07:23:19Z</time>
      </trkpt>
      <trkpt lat="47.76324" lon="3.58493">
        <ele>194</ele>
        <time>2014-04-16T07:23:23Z</time>
      </trkpt>
      <trkpt lat="47.76319" lon="3.58495">
        <ele>194</ele>
        <time>2014-04-16T07:23:29Z</time>
      </trkpt>
      <trkpt lat="47.76309" lon="3.58496">
        <ele>193</ele>
        <time>2014-04-16T07:23:40Z</time>
      </trkpt>
      <trkpt lat="47.76304" lon="3.58498">
        <ele>193</ele>
        <time>2014-04-16T07:23:44Z</time>
      </trkpt>
      <trkpt lat="47.763" lon="3.58501">
        <ele>193</ele>
        <time>2014-04-16T07:23:49Z</time>
      </trkpt>
      <trkpt lat="47.76296" lon="3.58503">
        <ele>192</ele>
        <time>2014-04-16T07:23:53Z</time>
      </trkpt>
      <trkpt lat="47.76291" lon="3.58501">
        <ele>192</ele>
        <time>2014-04-16T07:23:58Z</time>
      </trkpt>
      <trkpt lat="47.76284" lon="3.58506">
        <ele>192</ele>
        <time>2014-04-16T07:24:02Z</time>
      </trkpt>
      <trkpt lat="47.7628" lon="3.5851">
        <ele>192</ele>
        <time>2014-04-16T07:24:06Z</time>
      </trkpt>
      <trkpt lat="47.76275" lon="3.58516">
        <ele>192</ele>
        <time>2014-04-16T07:24:09Z</time>
      </trkpt>
      <trkpt lat="47.7627" lon="3.58516">
        <ele>192</ele>
        <time>2014-04-16T07:24:13Z</time>
      </trkpt>
      <trkpt lat="47.76265" lon="3.58516">
        <ele>192</ele>
        <time>2014-04-16T07:24:16Z</time>
      </trkpt>
      <trkpt lat="47.76256" lon="3.58523">
        <ele>192</ele>
        <time>2014-04-16T07:24:28Z</time>
      </trkpt>
      <trkpt lat="47.76251" lon="3.58524">
        <ele>192</ele>
        <time>2014-04-16T07:24:33Z</time>
      </trkpt>
      <trkpt lat="47.76241" lon="3.58525">
        <ele>190</ele>
        <time>2014-04-16T07:24:40Z</time>
      </trkpt>
      <trkpt lat="47.76236" lon="3.5853">
        <ele>190</ele>
        <time>2014-04-16T07:24:48Z</time>
      </trkpt>
      <trkpt lat="47.76226" lon="3.58533">
        <ele>190</ele>
        <time>2014-04-16T07:24:57Z</time>
      </trkpt>
      <trkpt lat="47.76219" lon="3.58536">
        <ele>189</ele>
        <time>2014-04-16T07:25:02Z</time>
      </trkpt>
      <trkpt lat="47.76214" lon="3.58539">
        <ele>189</ele>
        <time>2014-04-16T07:25:07Z</time>
      </trkpt>
      <trkpt lat="47.76209" lon="3.58541">
        <ele>189</ele>
        <time>2014-04-16T07:25:09Z</time>
      </trkpt>
      <trkpt lat="47.7619" lon="3.58548">
        <ele>189</ele>
        <time>2014-04-16T07:25:24Z</time>
      </trkpt>
      <trkpt lat="47.76185" lon="3.58551">
        <ele>188</ele>
        <time>2014-04-16T07:25:29Z</time>
      </trkpt>
      <trkpt lat="47.7618" lon="3.58554">
        <ele>188</ele>
        <time>2014-04-16T07:25:33Z</time>
      </trkpt>
      <trkpt lat="47.76175" lon="3.58557">
        <ele>188</ele>
        <time>2014-04-16T07:25:37Z</time>
      </trkpt>
      <trkpt lat="47.76166" lon="3.58565">
        <ele>186</ele>
        <time>2014-04-16T07:25:43Z</time>
      </trkpt>
      <trkpt lat="47.76162" lon="3.58567">
        <ele>186</ele>
        <time>2014-04-16T07:25:47Z</time>
      </trkpt>
      <trkpt lat="47.76157" lon="3.58569">
        <ele>186</ele>
        <time>2014-04-16T07:25:51Z</time>
      </trkpt>
      <trkpt lat="47.7615" lon="3.58572">
        <ele>186</ele>
        <time>2014-04-16T07:26:00Z</time>
      </trkpt>
      <trkpt lat="47.7614" lon="3.58574">
        <ele>186</ele>
        <time>2014-04-16T07:26:10Z</time>
      </trkpt>
      <trkpt lat="47.7613" lon="3.58578">
        <ele>186</ele>
        <time>2014-04-16T07:26:16Z</time>
      </trkpt>
      <trkpt lat="47.7612" lon="3.58586">
        <ele>187</ele>
        <time>2014-04-16T07:26:28Z</time>
      </trkpt>
      <trkpt lat="47.76115" lon="3.58586">
        <ele>187</ele>
        <time>2014-04-16T07:26:33Z</time>
      </trkpt>
      <trkpt lat="47.7611" lon="3.58587">
        <ele>187</ele>
        <time>2014-04-16T07:26:38Z</time>
      </trkpt>
      <trkpt lat="47.76105" lon="3.58589">
        <ele>187</ele>
        <time>2014-04-16T07:26:42Z</time>
      </trkpt>
      <trkpt lat="47.761" lon="3.58591">
        <ele>187</ele>
        <time>2014-04-16T07:26:46Z</time>
      </trkpt>
      <trkpt lat="47.76089" lon="3.58604">
        <ele>187</ele>
        <time>2014-04-16T07:26:58Z</time>
      </trkpt>
      <trkpt lat="47.76079" lon="3.58607">
        <ele>186</ele>
        <time>2014-04-16T07:27:06Z</time>
      </trkpt>
      <trkpt lat="47.76074" lon="3.58609">
        <ele>186</ele>
        <time>2014-04-16T07:27:10Z</time>
      </trkpt>
      <trkpt lat="47.7607" lon="3.58613">
        <ele>186</ele>
        <time>2014-04-16T07:27:14Z</time>
      </trkpt>
      <trkpt lat="47.76067" lon="3.58617">
        <ele>186</ele>
        <time>2014-04-16T07:27:19Z</time>
      </trkpt>
      <trkpt lat="47.76063" lon="3.58622">
        <ele>186</ele>
        <time>2014-04-16T07:27:24Z</time>
      </trkpt>
      <trkpt lat="47.7606" lon="3.58626">
        <ele>186</ele>
        <time>2014-04-16T07:27:28Z</time>
      </trkpt>
      <trkpt lat="47.76055" lon="3.58629">
        <ele>186</ele>
        <time>2014-04-16T07:27:33Z</time>
      </trkpt>
      <trkpt lat="47.76046" lon="3.58637">
        <ele>186</ele>
        <time>2014-04-16T07:27:40Z</time>
      </trkpt>
      <trkpt lat="47.76043" lon="3.58643">
        <ele>186</ele>
        <time>2014-04-16T07:27:44Z</time>
      </trkpt>
      <trkpt lat="47.76039" lon="3.58641">
        <ele>186</ele>
        <time>2014-04-16T07:27:54Z</time>
      </trkpt>
      <trkpt lat="47.7603" lon="3.58648">
        <ele>186</ele>
        <time>2014-04-16T07:28:01Z</time>
      </trkpt>
      <trkpt lat="47.76018" lon="3.58662">
        <ele>185</ele>
        <time>2014-04-16T07:28:13Z</time>
      </trkpt>
      <trkpt lat="47.76013" lon="3.58665">
        <ele>185</ele>
        <time>2014-04-16T07:28:19Z</time>
      </trkpt>
      <trkpt lat="47.76008" lon="3.58667">
        <ele>186</ele>
        <time>2014-04-16T07:28:24Z</time>
      </trkpt>
      <trkpt lat="47.76004" lon="3.58671">
        <ele>185</ele>
        <time>2014-04-16T07:28:29Z</time>
      </trkpt>
      <trkpt lat="47.76" lon="3.58675">
        <ele>184</ele>
        <time>2014-04-16T07:28:34Z</time>
      </trkpt>
      <trkpt lat="47.75995" lon="3.58679">
        <ele>183</ele>
        <time>2014-04-16T07:28:39Z</time>
      </trkpt>
      <trkpt lat="47.75986" lon="3.58687">
        <ele>182</ele>
        <time>2014-04-16T07:28:53Z</time>
      </trkpt>
      <trkpt lat="47.75982" lon="3.58692">
        <ele>182</ele>
        <time>2014-04-16T07:28:57Z</time>
      </trkpt>
      <trkpt lat="47.75972" lon="3.58699">
        <ele>181</ele>
        <time>2014-04-16T07:29:08Z</time>
      </trkpt>
      <trkpt lat="47.75969" lon="3.58704">
        <ele>181</ele>
        <time>2014-04-16T07:29:11Z</time>
      </trkpt>
      <trkpt lat="47.75964" lon="3.58707">
        <ele>181</ele>
        <time>2014-04-16T07:29:16Z</time>
      </trkpt>
      <trkpt lat="47.75959" lon="3.58711">
        <ele>180</ele>
        <time>2014-04-16T07:29:21Z</time>
      </trkpt>
      <trkpt lat="47.75951" lon="3.58719">
        <ele>180</ele>
        <time>2014-04-16T07:29:28Z</time>
      </trkpt>
      <trkpt lat="47.75948" lon="3.58725">
        <ele>180</ele>
        <time>2014-04-16T07:30:21Z</time>
      </trkpt>
      <trkpt lat="47.75942" lon="3.58727">
        <ele>179</ele>
        <time>2014-04-16T07:30:25Z</time>
      </trkpt>
      <trkpt lat="47.75934" lon="3.58733">
        <ele>179</ele>
        <time>2014-04-16T07:30:33Z</time>
      </trkpt>
      <trkpt lat="47.7593" lon="3.58736">
        <ele>178</ele>
        <time>2014-04-16T07:30:36Z</time>
      </trkpt>
      <trkpt lat="47.75926" lon="3.5874">
        <ele>178</ele>
        <time>2014-04-16T07:30:40Z</time>
      </trkpt>
      <trkpt lat="47.75921" lon="3.58741">
        <ele>177</ele>
        <time>2014-04-16T07:30:44Z</time>
      </trkpt>
      <trkpt lat="47.75917" lon="3.58744">
        <ele>177</ele>
        <time>2014-04-16T07:30:49Z</time>
      </trkpt>
      <trkpt lat="47.75911" lon="3.58742">
        <ele>173</ele>
        <time>2014-04-16T07:30:57Z</time>
      </trkpt>
      <trkpt lat="47.75907" lon="3.58745">
        <ele>173</ele>
        <time>2014-04-16T07:31:02Z</time>
      </trkpt>
      <trkpt lat="47.75903" lon="3.5875">
        <ele>172</ele>
        <time>2014-04-16T07:31:08Z</time>
      </trkpt>
      <trkpt lat="47.75899" lon="3.58749">
        <ele>171</ele>
        <time>2014-04-16T07:31:15Z</time>
      </trkpt>
      <trkpt lat="47.75891" lon="3.58745">
        <ele>170</ele>
        <time>2014-04-16T07:31:25Z</time>
      </trkpt>
      <trkpt lat="47.75888" lon="3.58745">
        <ele>169</ele>
        <time>2014-04-16T07:31:33Z</time>
      </trkpt>
      <trkpt lat="47.75884" lon="3.58749">
        <ele>168</ele>
        <time>2014-04-16T07:31:39Z</time>
      </trkpt>
      <trkpt lat="47.75879" lon="3.58749">
        <ele>168</ele>
        <time>2014-04-16T07:31:45Z</time>
      </trkpt>
      <trkpt lat="47.75874" lon="3.5875">
        <ele>167</ele>
        <time>2014-04-16T07:31:52Z</time>
      </trkpt>
      <trkpt lat="47.75872" lon="3.58749">
        <ele>167</ele>
        <time>2014-04-16T07:31:58Z</time>
      </trkpt>
      <trkpt lat="47.7587" lon="3.58751">
        <ele>168</ele>
        <time>2014-04-16T07:32:05Z</time>
      </trkpt>
      <trkpt lat="47.75865" lon="3.58753">
        <ele>167</ele>
        <time>2014-04-16T07:32:13Z</time>
      </trkpt>
      <trkpt lat="47.75862" lon="3.58756">
        <ele>167</ele>
        <time>2014-04-16T07:33:02Z</time>
      </trkpt>
      <trkpt lat="47.75859" lon="3.58758">
        <ele>166</ele>
        <time>2014-04-16T07:35:27Z</time>
      </trkpt>
      <trkpt lat="47.75854" lon="3.5876">
        <ele>166</ele>
        <time>2014-04-16T07:35:50Z</time>
      </trkpt>
      <trkpt lat="47.75849" lon="3.58761">
        <ele>165</ele>
        <time>2014-04-16T07:35:55Z</time>
      </trkpt>
      <trkpt lat="47.75845" lon="3.5876">
        <ele>164</ele>
        <time>2014-04-16T07:36:00Z</time>
      </trkpt>
      <trkpt lat="47.7584" lon="3.58757">
        <ele>163</ele>
        <time>2014-04-16T07:36:06Z</time>
      </trkpt>
      <trkpt lat="47.75802" lon="3.5875">
        <ele>148</ele>
        <time>2014-04-16T07:36:56Z</time>
      </trkpt>
      <trkpt lat="47.75799" lon="3.58751">
        <ele>150</ele>
        <time>2014-04-16T07:37:02Z</time>
      </trkpt>
      <trkpt lat="47.75794" lon="3.58746">
        <ele>146</ele>
        <time>2014-04-16T07:37:15Z</time>
      </trkpt>
      <trkpt lat="47.75789" lon="3.58746">
        <ele>145</ele>
        <time>2014-04-16T07:37:21Z</time>
      </trkpt>
      <trkpt lat="47.75784" lon="3.58747">
        <ele>144</ele>
        <time>2014-04-16T07:37:26Z</time>
      </trkpt>
      <trkpt lat="47.75775" lon="3.58756">
        <ele>145</ele>
        <time>2014-04-16T07:37:38Z</time>
      </trkpt>
      <trkpt lat="47.7577" lon="3.58757">
        <ele>144</ele>
        <time>2014-04-16T07:37:44Z</time>
      </trkpt>
      <trkpt lat="47.75765" lon="3.58758">
        <ele>142</ele>
        <time>2014-04-16T07:37:49Z</time>
      </trkpt>
      <trkpt lat="47.75757" lon="3.58765">
        <ele>142</ele>
        <time>2014-04-16T07:37:59Z</time>
      </trkpt>
      <trkpt lat="47.75752" lon="3.58768">
        <ele>142</ele>
        <time>2014-04-16T07:38:04Z</time>
      </trkpt>
      <trkpt lat="47.75751" lon="3.58767">
        <ele>142</ele>
        <time>2014-04-16T07:38:21Z</time>
      </trkpt>
      <trkpt lat="47.75747" lon="3.5877">
        <ele>131</ele>
        <time>2014-04-16T07:38:27Z</time>
      </trkpt>
      <trkpt lat="47.75737" lon="3.58774">
        <ele>130</ele>
        <time>2014-04-16T07:39:29Z</time>
      </trkpt>
      <trkpt lat="47.75732" lon="3.58775">
        <ele>129</ele>
        <time>2014-04-16T07:39:34Z</time>
      </trkpt>
      <trkpt lat="47.75727" lon="3.58774">
        <ele>129</ele>
        <time>2014-04-16T07:39:39Z</time>
      </trkpt>
      <trkpt lat="47.75722" lon="3.58777">
        <ele>128</ele>
        <time>2014-04-16T07:39:43Z</time>
      </trkpt>
      <trkpt lat="47.7571" lon="3.58789">
        <ele>127</ele>
        <time>2014-04-16T07:39:57Z</time>
      </trkpt>
      <trkpt lat="47.75701" lon="3.58792">
        <ele>126</ele>
        <time>2014-04-16T07:40:09Z</time>
      </trkpt>
      <trkpt lat="47.75702" lon="3.58787">
        <ele>126</ele>
        <time>2014-04-16T07:40:57Z</time>
      </trkpt>
      <trkpt lat="47.7569" lon="3.58797">
        <ele>125</ele>
        <time>2014-04-16T07:41:37Z</time>
      </trkpt>
      <trkpt lat="47.75686" lon="3.58801">
        <ele>124</ele>
        <time>2014-04-16T07:41:42Z</time>
      </trkpt>
      <trkpt lat="47.75681" lon="3.588">
        <ele>124</ele>
        <time>2014-04-16T07:41:47Z</time>
      </trkpt>
      <trkpt lat="47.75676" lon="3.58801">
        <ele>123</ele>
        <time>2014-04-16T07:41:53Z</time>
      </trkpt>
      <trkpt lat="47.75671" lon="3.58805">
        <ele>123</ele>
        <time>2014-04-16T07:41:58Z</time>
      </trkpt>
      <trkpt lat="47.7567" lon="3.58809">
        <ele>122</ele>
        <time>2014-04-16T07:42:05Z</time>
      </trkpt>
      <trkpt lat="47.75664" lon="3.58809">
        <ele>115</ele>
        <time>2014-04-16T07:42:10Z</time>
      </trkpt>
      <trkpt lat="47.75659" lon="3.58811">
        <ele>115</ele>
        <time>2014-04-16T07:42:14Z</time>
      </trkpt>
      <trkpt lat="47.75654" lon="3.58812">
        <ele>115</ele>
        <time>2014-04-16T07:42:17Z</time>
      </trkpt>
      <trkpt lat="47.75649" lon="3.58815">
        <ele>115</ele>
        <time>2014-04-16T07:42:21Z</time>
      </trkpt>
      <trkpt lat="47.75645" lon="3.58821">
        <ele>115</ele>
        <time>2014-04-16T07:42:25Z</time>
      </trkpt>
      <trkpt lat="47.75641" lon="3.58822">
        <ele>115</ele>
        <time>2014-04-16T07:42:30Z</time>
      </trkpt>
      <trkpt lat="47.75636" lon="3.58824">
        <ele>115</ele>
        <time>2014-04-16T07:42:35Z</time>
      </trkpt>
      <trkpt lat="47.75632" lon="3.5883">
        <ele>115</ele>
        <time>2014-04-16T07:42:40Z</time>
      </trkpt>
      <trkpt lat="47.75628" lon="3.58835">
        <ele>114</ele>
        <time>2014-04-16T07:42:45Z</time>
      </trkpt>
      <trkpt lat="47.75619" lon="3.5884">
        <ele>113</ele>
        <time>2014-04-16T07:42:54Z</time>
      </trkpt>
      <trkpt lat="47.75616" lon="3.58838">
        <ele>113</ele>
        <time>2014-04-16T07:43:01Z</time>
      </trkpt>
      <trkpt lat="47.75615" lon="3.58835">
        <ele>113</ele>
        <time>2014-04-16T07:43:23Z</time>
      </trkpt>
      <trkpt lat="47.75611" lon="3.58839">
        <ele>113</ele>
        <time>2014-04-16T07:43:27Z</time>
      </trkpt>
      <trkpt lat="47.756" lon="3.58873">
        <ele>112</ele>
        <time>2014-04-16T07:43:43Z</time>
      </trkpt>
      <trkpt lat="47.75603" lon="3.58881">
        <ele>112</ele>
        <time>2014-04-16T07:43:50Z</time>
      </trkpt>
      <trkpt lat="47.756" lon="3.58902">
        <ele>111</ele>
        <time>2014-04-16T07:44:04Z</time>
      </trkpt>
      <trkpt lat="47.75601" lon="3.5891">
        <ele>110</ele>
        <time>2014-04-16T07:44:10Z</time>
      </trkpt>
      <trkpt lat="47.75601" lon="3.58918">
        <ele>108</ele>
        <time>2014-04-16T07:44:15Z</time>
      </trkpt>
      <trkpt lat="47.75601" lon="3.58925">
        <ele>108</ele>
        <time>2014-04-16T07:44:20Z</time>
      </trkpt>
      <trkpt lat="47.75598" lon="3.58931">
        <ele>108</ele>
        <time>2014-04-16T07:44:24Z</time>
      </trkpt>
      <trkpt lat="47.75591" lon="3.5896">
        <ele>108</ele>
        <time>2014-04-16T07:44:42Z</time>
      </trkpt>
      <trkpt lat="47.75588" lon="3.58965">
        <ele>107</ele>
        <time>2014-04-16T07:44:45Z</time>
      </trkpt>
      <trkpt lat="47.75583" lon="3.5897">
        <ele>107</ele>
        <time>2014-04-16T07:44:49Z</time>
      </trkpt>
      <trkpt lat="47.75578" lon="3.58972">
        <ele>105</ele>
        <time>2014-04-16T07:44:53Z</time>
      </trkpt>
      <trkpt lat="47.75574" lon="3.58973">
        <ele>105</ele>
        <time>2014-04-16T07:44:56Z</time>
      </trkpt>
      <trkpt lat="47.75569" lon="3.58974">
        <ele>105</ele>
        <time>2014-04-16T07:45:00Z</time>
      </trkpt>
      <trkpt lat="47.75565" lon="3.58978">
        <ele>105</ele>
        <time>2014-04-16T07:45:05Z</time>
      </trkpt>
      <trkpt lat="47.75565" lon="3.58986">
        <ele>104</ele>
        <time>2014-04-16T07:45:10Z</time>
      </trkpt>
      <trkpt lat="47.7556" lon="3.58987">
        <ele>104</ele>
        <time>2014-04-16T07:45:20Z</time>
      </trkpt>
      <trkpt lat="47.75553" lon="3.58998">
        <ele>104</ele>
        <time>2014-04-16T07:45:30Z</time>
      </trkpt>
      <trkpt lat="47.75548" lon="3.58997">
        <ele>104</ele>
        <time>2014-04-16T07:45:34Z</time>
      </trkpt>
      <trkpt lat="47.75544" lon="3.58995">
        <ele>104</ele>
        <time>2014-04-16T07:45:38Z</time>
      </trkpt>
      <trkpt lat="47.75538" lon="3.58998">
        <ele>104</ele>
        <time>2014-04-16T07:45:42Z</time>
      </trkpt>
      <trkpt lat="47.75533" lon="3.58997">
        <ele>104</ele>
        <time>2014-04-16T07:45:45Z</time>
      </trkpt>
      <trkpt lat="47.75529" lon="3.58992">
        <ele>104</ele>
        <time>2014-04-16T07:45:51Z</time>
      </trkpt>
      <trkpt lat="47.75525" lon="3.58996">
        <ele>104</ele>
        <time>2014-04-16T07:45:57Z</time>
      </trkpt>
      <trkpt lat="47.75519" lon="3.58997">
        <ele>103</ele>
        <time>2014-04-16T07:46:02Z</time>
      </trkpt>
      <trkpt lat="47.75514" lon="3.58997">
        <ele>103</ele>
        <time>2014-04-16T07:46:07Z</time>
      </trkpt>
      <trkpt lat="47.75511" lon="3.58995">
        <ele>103</ele>
        <time>2014-04-16T07:46:23Z</time>
      </trkpt>
      <trkpt lat="47.75505" lon="3.58997">
        <ele>103</ele>
        <time>2014-04-16T07:46:28Z</time>
      </trkpt>
      <trkpt lat="47.75495" lon="3.58996">
        <ele>102</ele>
        <time>2014-04-16T07:46:36Z</time>
      </trkpt>
      <trkpt lat="47.7549" lon="3.58994">
        <ele>102</ele>
        <time>2014-04-16T07:46:39Z</time>
      </trkpt>
      <trkpt lat="47.75486" lon="3.58993">
        <ele>102</ele>
        <time>2014-04-16T07:46:42Z</time>
      </trkpt>
      <trkpt lat="47.7548" lon="3.58993">
        <ele>102</ele>
        <time>2014-04-16T07:46:46Z</time>
      </trkpt>
      <trkpt lat="47.75477" lon="3.58998">
        <ele>102</ele>
        <time>2014-04-16T07:46:51Z</time>
      </trkpt>
      <trkpt lat="47.75476" lon="3.59006">
        <ele>101</ele>
        <time>2014-04-16T07:46:57Z</time>
      </trkpt>
      <trkpt lat="47.7547" lon="3.59011">
        <ele>101</ele>
        <time>2014-04-16T07:47:07Z</time>
      </trkpt>
      <trkpt lat="47.75467" lon="3.59016">
        <ele>101</ele>
        <time>2014-04-16T07:47:10Z</time>
      </trkpt>
      <trkpt lat="47.75465" lon="3.59031">
        <ele>101</ele>
        <time>2014-04-16T07:47:18Z</time>
      </trkpt>
      <trkpt lat="47.7546" lon="3.59046">
        <ele>101</ele>
        <time>2014-04-16T07:47:27Z</time>
      </trkpt>
      <trkpt lat="47.75452" lon="3.59066">
        <ele>101</ele>
        <time>2014-04-16T07:47:40Z</time>
      </trkpt>
      <trkpt lat="47.7545" lon="3.59073">
        <ele>101</ele>
        <time>2014-04-16T07:47:44Z</time>
      </trkpt>
      <trkpt lat="47.75449" lon="3.59077">
        <ele>101</ele>
        <time>2014-04-16T07:47:51Z</time>
      </trkpt>
      <trkpt lat="47.75445" lon="3.59084">
        <ele>101</ele>
        <time>2014-04-16T07:48:00Z</time>
      </trkpt>
      <trkpt lat="47.75442" lon="3.59098">
        <ele>101</ele>
        <time>2014-04-16T07:48:08Z</time>
      </trkpt>
      <trkpt lat="47.75438" lon="3.59102">
        <ele>101</ele>
        <time>2014-04-16T07:48:10Z</time>
      </trkpt>
      <trkpt lat="47.75437" lon="3.5911">
        <ele>101</ele>
        <time>2014-04-16T07:48:18Z</time>
      </trkpt>
      <trkpt lat="47.75433" lon="3.59115">
        <ele>101</ele>
        <time>2014-04-16T07:48:21Z</time>
      </trkpt>
      <trkpt lat="47.75429" lon="3.5912">
        <ele>101</ele>
        <time>2014-04-16T07:48:24Z</time>
      </trkpt>
      <trkpt lat="47.7542" lon="3.59143">
        <ele>101</ele>
        <time>2014-04-16T07:48:37Z</time>
      </trkpt>
      <trkpt lat="47.75412" lon="3.59173">
        <ele>101</ele>
        <time>2014-04-16T07:48:52Z</time>
      </trkpt>
      <trkpt lat="47.75408" lon="3.59179">
        <ele>101</ele>
        <time>2014-04-16T07:48:56Z</time>
      </trkpt>
      <trkpt lat="47.75403" lon="3.59179">
        <ele>101</ele>
        <time>2014-04-16T07:49:01Z</time>
      </trkpt>
      <trkpt lat="47.75401" lon="3.59155">
        <ele>101</ele>
        <time>2014-04-16T07:49:12Z</time>
      </trkpt>
      <trkpt lat="47.75398" lon="3.59151">
        <ele>101</ele>
        <time>2014-04-16T07:49:20Z</time>
      </trkpt>
      <trkpt lat="47.75395" lon="3.59146">
        <ele>100</ele>
        <time>2014-04-16T07:49:27Z</time>
      </trkpt>
      <trkpt lat="47.7539" lon="3.59145">
        <ele>100</ele>
        <time>2014-04-16T07:49:30Z</time>
      </trkpt>
      <trkpt lat="47.7537" lon="3.59138">
        <ele>100</ele>
        <time>2014-04-16T07:49:44Z</time>
      </trkpt>
      <trkpt lat="47.75362" lon="3.59133">
        <ele>100</ele>
        <time>2014-04-16T07:49:53Z</time>
      </trkpt>
      <trkpt lat="47.75356" lon="3.59132">
        <ele>100</ele>
        <time>2014-04-16T07:49:57Z</time>
      </trkpt>
      <trkpt lat="47.75351" lon="3.59131">
        <ele>100</ele>
        <time>2014-04-16T07:50:01Z</time>
      </trkpt>
      <trkpt lat="47.75346" lon="3.59127">
        <ele>100</ele>
        <time>2014-04-16T07:50:06Z</time>
      </trkpt>
      <trkpt lat="47.75331" lon="3.5911">
        <ele>100</ele>
        <time>2014-04-16T07:50:20Z</time>
      </trkpt>
      <trkpt lat="47.75327" lon="3.59106">
        <ele>100</ele>
        <time>2014-04-16T07:50:24Z</time>
      </trkpt>
      <trkpt lat="47.75315" lon="3.59094">
        <ele>100</ele>
        <time>2014-04-16T07:50:40Z</time>
      </trkpt>
      <trkpt lat="47.75313" lon="3.59087">
        <ele>100</ele>
        <time>2014-04-16T07:50:45Z</time>
      </trkpt>
      <trkpt lat="47.7531" lon="3.59082">
        <ele>100</ele>
        <time>2014-04-16T07:50:48Z</time>
      </trkpt>
      <trkpt lat="47.75299" lon="3.59074">
        <ele>100</ele>
        <time>2014-04-16T07:50:54Z</time>
      </trkpt>
      <trkpt lat="47.75295" lon="3.59069">
        <ele>100</ele>
        <time>2014-04-16T07:50:57Z</time>
      </trkpt>
      <trkpt lat="47.75291" lon="3.59065">
        <ele>100</ele>
        <time>2014-04-16T07:51:00Z</time>
      </trkpt>
      <trkpt lat="47.75286" lon="3.59062">
        <ele>100</ele>
        <time>2014-04-16T07:51:04Z</time>
      </trkpt>
      <trkpt lat="47.75282" lon="3.59058">
        <ele>100</ele>
        <time>2014-04-16T07:51:09Z</time>
      </trkpt>
      <trkpt lat="47.7528" lon="3.59051">
        <ele>100</ele>
        <time>2014-04-16T07:51:14Z</time>
      </trkpt>
      <trkpt lat="47.75274" lon="3.5905">
        <ele>100</ele>
        <time>2014-04-16T07:51:19Z</time>
      </trkpt>
      <trkpt lat="47.75268" lon="3.59049">
        <ele>101</ele>
        <time>2014-04-16T07:51:23Z</time>
      </trkpt>
      <trkpt lat="47.75263" lon="3.59048">
        <ele>101</ele>
        <time>2014-04-16T07:51:27Z</time>
      </trkpt>
      <trkpt lat="47.75259" lon="3.59045">
        <ele>101</ele>
        <time>2014-04-16T07:51:31Z</time>
      </trkpt>
      <trkpt lat="47.75255" lon="3.59039">
        <ele>100</ele>
        <time>2014-04-16T07:51:37Z</time>
      </trkpt>
      <trkpt lat="47.75251" lon="3.59037">
        <ele>100</ele>
        <time>2014-04-16T07:51:42Z</time>
      </trkpt>
      <trkpt lat="47.75246" lon="3.59035">
        <ele>101</ele>
        <time>2014-04-16T07:51:47Z</time>
      </trkpt>
      <trkpt lat="47.7524" lon="3.59034">
        <ele>101</ele>
        <time>2014-04-16T07:51:50Z</time>
      </trkpt>
      <trkpt lat="47.75235" lon="3.59032">
        <ele>101</ele>
        <time>2014-04-16T07:51:53Z</time>
      </trkpt>
      <trkpt lat="47.7523" lon="3.59029">
        <ele>100</ele>
        <time>2014-04-16T07:51:57Z</time>
      </trkpt>
      <trkpt lat="47.75225" lon="3.59029">
        <ele>100</ele>
        <time>2014-04-16T07:52:01Z</time>
      </trkpt>
      <trkpt lat="47.75221" lon="3.59028">
        <ele>100</ele>
        <time>2014-04-16T07:52:05Z</time>
      </trkpt>
      <trkpt lat="47.75217" lon="3.59022">
        <ele>100</ele>
        <time>2014-04-16T07:52:09Z</time>
      </trkpt>
      <trkpt lat="47.75213" lon="3.59019">
        <ele>100</ele>
        <time>2014-04-16T07:52:13Z</time>
      </trkpt>
      <trkpt lat="47.75208" lon="3.59017">
        <ele>100</ele>
        <time>2014-04-16T07:52:18Z</time>
      </trkpt>
      <trkpt lat="47.75204" lon="3.59012">
        <ele>100</ele>
        <time>2014-04-16T07:52:22Z</time>
      </trkpt>
      <trkpt lat="47.75201" lon="3.59006">
        <ele>100</ele>
        <time>2014-04-16T07:52:27Z</time>
      </trkpt>
      <trkpt lat="47.75204" lon="3.58999">
        <ele>100</ele>
        <time>2014-04-16T07:52:34Z</time>
      </trkpt>
      <trkpt lat="47.75197" lon="3.58995">
        <ele>100</ele>
        <time>2014-04-16T07:53:42Z</time>
      </trkpt>
      <trkpt lat="47.75195" lon="3.58987">
        <ele>100</ele>
        <time>2014-04-16T07:53:49Z</time>
      </trkpt>
      <trkpt lat="47.75199" lon="3.58987">
        <ele>100</ele>
        <time>2014-04-16T07:55:55Z</time>
      </trkpt>
      <trkpt lat="47.75199" lon="3.58992">
        <ele>100</ele>
        <time>2014-04-16T07:56:19Z</time>
      </trkpt>
      <trkpt lat="47.75194" lon="3.58992">
        <ele>100</ele>
        <time>2014-04-16T07:56:23Z</time>
      </trkpt>
      <trkpt lat="47.75189" lon="3.58989">
        <ele>100</ele>
        <time>2014-04-16T07:56:27Z</time>
      </trkpt>
      <trkpt lat="47.75185" lon="3.58985">
        <ele>100</ele>
        <time>2014-04-16T07:56:30Z</time>
      </trkpt>
      <trkpt lat="47.75181" lon="3.58981">
        <ele>100</ele>
        <time>2014-04-16T07:56:36Z</time>
      </trkpt>
      <trkpt lat="47.75171" lon="3.58977">
        <ele>100</ele>
        <time>2014-04-16T07:56:47Z</time>
      </trkpt>
      <trkpt lat="47.75161" lon="3.58969">
        <ele>101</ele>
        <time>2014-04-16T07:56:55Z</time>
      </trkpt>
      <trkpt lat="47.75151" lon="3.58964">
        <ele>101</ele>
        <time>2014-04-16T07:57:05Z</time>
      </trkpt>
      <trkpt lat="47.75147" lon="3.58961">
        <ele>101</ele>
        <time>2014-04-16T07:57:09Z</time>
      </trkpt>
      <trkpt lat="47.75144" lon="3.58956">
        <ele>101</ele>
        <time>2014-04-16T07:57:16Z</time>
      </trkpt>
      <trkpt lat="47.7513" lon="3.58944">
        <ele>102</ele>
        <time>2014-04-16T07:57:29Z</time>
      </trkpt>
      <trkpt lat="47.75119" lon="3.58938">
        <ele>102</ele>
        <time>2014-04-16T07:57:36Z</time>
      </trkpt>
      <trkpt lat="47.75114" lon="3.58937">
        <ele>102</ele>
        <time>2014-04-16T07:57:40Z</time>
      </trkpt>
      <trkpt lat="47.75103" lon="3.58937">
        <ele>102</ele>
        <time>2014-04-16T07:57:48Z</time>
      </trkpt>
      <trkpt lat="47.75099" lon="3.58935">
        <ele>102</ele>
        <time>2014-04-16T07:57:53Z</time>
      </trkpt>
      <trkpt lat="47.75094" lon="3.58936">
        <ele>102</ele>
        <time>2014-04-16T07:57:57Z</time>
      </trkpt>
      <trkpt lat="47.75088" lon="3.58937">
        <ele>102</ele>
        <time>2014-04-16T07:58:01Z</time>
      </trkpt>
      <trkpt lat="47.75084" lon="3.58934">
        <ele>102</ele>
        <time>2014-04-16T07:58:06Z</time>
      </trkpt>
      <trkpt lat="47.75079" lon="3.58931">
        <ele>103</ele>
        <time>2014-04-16T07:58:12Z</time>
      </trkpt>
      <trkpt lat="47.75075" lon="3.58929">
        <ele>103</ele>
        <time>2014-04-16T07:58:16Z</time>
      </trkpt>
      <trkpt lat="47.7507" lon="3.58927">
        <ele>103</ele>
        <time>2014-04-16T07:58:20Z</time>
      </trkpt>
      <trkpt lat="47.75056" lon="3.5892">
        <ele>103</ele>
        <time>2014-04-16T07:58:34Z</time>
      </trkpt>
      <trkpt lat="47.7505" lon="3.58918">
        <ele>103</ele>
        <time>2014-04-16T07:58:41Z</time>
      </trkpt>
      <trkpt lat="47.75045" lon="3.58918">
        <ele>103</ele>
        <time>2014-04-16T07:58:45Z</time>
      </trkpt>
      <trkpt lat="47.7504" lon="3.58918">
        <ele>103</ele>
        <time>2014-04-16T07:58:52Z</time>
      </trkpt>
      <trkpt lat="47.75035" lon="3.58916">
        <ele>103</ele>
        <time>2014-04-16T07:58:56Z</time>
      </trkpt>
      <trkpt lat="47.7503" lon="3.58912">
        <ele>103</ele>
        <time>2014-04-16T07:59:00Z</time>
      </trkpt>
      <trkpt lat="47.75025" lon="3.58911">
        <ele>104</ele>
        <time>2014-04-16T07:59:02Z</time>
      </trkpt>
      <trkpt lat="47.75006" lon="3.58897">
        <ele>104</ele>
        <time>2014-04-16T07:59:22Z</time>
      </trkpt>
      <trkpt lat="47.74999" lon="3.58896">
        <ele>104</ele>
        <time>2014-04-16T07:59:25Z</time>
      </trkpt>
      <trkpt lat="47.74988" lon="3.58898">
        <ele>104</ele>
        <time>2014-04-16T07:59:32Z</time>
      </trkpt>
      <trkpt lat="47.74983" lon="3.58898">
        <ele>104</ele>
        <time>2014-04-16T07:59:35Z</time>
      </trkpt>
      <trkpt lat="47.74964" lon="3.58892">
        <ele>104</ele>
        <time>2014-04-16T07:59:51Z</time>
      </trkpt>
      <trkpt lat="47.74959" lon="3.5889">
        <ele>104</ele>
        <time>2014-04-16T07:59:54Z</time>
      </trkpt>
      <trkpt lat="47.74955" lon="3.58892">
        <ele>104</ele>
        <time>2014-04-16T07:59:58Z</time>
      </trkpt>
      <trkpt lat="47.7495" lon="3.58892">
        <ele>104</ele>
        <time>2014-04-16T08:00:03Z</time>
      </trkpt>
      <trkpt lat="47.74945" lon="3.58889">
        <ele>104</ele>
        <time>2014-04-16T08:00:08Z</time>
      </trkpt>
      <trkpt lat="47.74935" lon="3.58886">
        <ele>104</ele>
        <time>2014-04-16T08:00:15Z</time>
      </trkpt>
      <trkpt lat="47.7493" lon="3.58883">
        <ele>104</ele>
        <time>2014-04-16T08:00:20Z</time>
      </trkpt>
      <trkpt lat="47.74925" lon="3.58878">
        <ele>104</ele>
        <time>2014-04-16T08:00:24Z</time>
      </trkpt>
      <trkpt lat="47.7492" lon="3.58876">
        <ele>104</ele>
        <time>2014-04-16T08:00:27Z</time>
      </trkpt>
      <trkpt lat="47.74916" lon="3.58875">
        <ele>103</ele>
        <time>2014-04-16T08:00:30Z</time>
      </trkpt>
      <trkpt lat="47.74911" lon="3.58871">
        <ele>103</ele>
        <time>2014-04-16T08:00:34Z</time>
      </trkpt>
      <trkpt lat="47.74907" lon="3.58867">
        <ele>103</ele>
        <time>2014-04-16T08:00:44Z</time>
      </trkpt>
      <trkpt lat="47.74901" lon="3.58864">
        <ele>103</ele>
        <time>2014-04-16T08:00:46Z</time>
      </trkpt>
      <trkpt lat="47.74897" lon="3.58863">
        <ele>103</ele>
        <time>2014-04-16T08:00:49Z</time>
      </trkpt>
      <trkpt lat="47.74892" lon="3.58863">
        <ele>103</ele>
        <time>2014-04-16T08:00:52Z</time>
      </trkpt>
      <trkpt lat="47.74882" lon="3.58859">
        <ele>103</ele>
        <time>2014-04-16T08:00:59Z</time>
      </trkpt>
      <trkpt lat="47.74873" lon="3.58851">
        <ele>103</ele>
        <time>2014-04-16T08:01:06Z</time>
      </trkpt>
      <trkpt lat="47.74867" lon="3.5885">
        <ele>103</ele>
        <time>2014-04-16T08:01:10Z</time>
      </trkpt>
      <trkpt lat="47.74857" lon="3.58844">
        <ele>103</ele>
        <time>2014-04-16T08:01:18Z</time>
      </trkpt>
      <trkpt lat="47.74846" lon="3.58841">
        <ele>102</ele>
        <time>2014-04-16T08:01:26Z</time>
      </trkpt>
      <trkpt lat="47.74842" lon="3.58836">
        <ele>102</ele>
        <time>2014-04-16T08:01:30Z</time>
      </trkpt>
      <trkpt lat="47.74833" lon="3.58829">
        <ele>102</ele>
        <time>2014-04-16T08:01:40Z</time>
      </trkpt>
      <trkpt lat="47.74822" lon="3.58813">
        <ele>103</ele>
        <time>2014-04-16T08:01:54Z</time>
      </trkpt>
      <trkpt lat="47.74818" lon="3.5881">
        <ele>103</ele>
        <time>2014-04-16T08:01:57Z</time>
      </trkpt>
      <trkpt lat="47.74813" lon="3.58808">
        <ele>104</ele>
        <time>2014-04-16T08:02:00Z</time>
      </trkpt>
      <trkpt lat="47.74802" lon="3.58806">
        <ele>104</ele>
        <time>2014-04-16T08:02:08Z</time>
      </trkpt>
      <trkpt lat="47.74798" lon="3.58802">
        <ele>104</ele>
        <time>2014-04-16T08:02:11Z</time>
      </trkpt>
      <trkpt lat="47.74794" lon="3.58801">
        <ele>104</ele>
        <time>2014-04-16T08:02:14Z</time>
      </trkpt>
      <trkpt lat="47.74788" lon="3.588">
        <ele>104</ele>
        <time>2014-04-16T08:02:19Z</time>
      </trkpt>
      <trkpt lat="47.74774" lon="3.58792">
        <ele>104</ele>
        <time>2014-04-16T08:02:30Z</time>
      </trkpt>
      <trkpt lat="47.74769" lon="3.58788">
        <ele>104</ele>
        <time>2014-04-16T08:02:34Z</time>
      </trkpt>
      <trkpt lat="47.74764" lon="3.58785">
        <ele>104</ele>
        <time>2014-04-16T08:02:39Z</time>
      </trkpt>
      <trkpt lat="47.74759" lon="3.58782">
        <ele>104</ele>
        <time>2014-04-16T08:02:45Z</time>
      </trkpt>
      <trkpt lat="47.74754" lon="3.5878">
        <ele>104</ele>
        <time>2014-04-16T08:02:49Z</time>
      </trkpt>
      <trkpt lat="47.74748" lon="3.58779">
        <ele>104</ele>
        <time>2014-04-16T08:02:52Z</time>
      </trkpt>
      <trkpt lat="47.74739" lon="3.58774">
        <ele>104</ele>
        <time>2014-04-16T08:02:58Z</time>
      </trkpt>
      <trkpt lat="47.74731" lon="3.58764">
        <ele>104</ele>
        <time>2014-04-16T08:03:05Z</time>
      </trkpt>
      <trkpt lat="47.74726" lon="3.5876">
        <ele>104</ele>
        <time>2014-04-16T08:03:09Z</time>
      </trkpt>
      <trkpt lat="47.74722" lon="3.58758">
        <ele>103</ele>
        <time>2014-04-16T08:03:13Z</time>
      </trkpt>
      <trkpt lat="47.74718" lon="3.58754">
        <ele>103</ele>
        <time>2014-04-16T08:03:17Z</time>
      </trkpt>
      <trkpt lat="47.74714" lon="3.58748">
        <ele>105</ele>
        <time>2014-04-16T08:03:22Z</time>
      </trkpt>
      <trkpt lat="47.747" lon="3.58738">
        <ele>105</ele>
        <time>2014-04-16T08:03:35Z</time>
      </trkpt>
      <trkpt lat="47.74695" lon="3.58735">
        <ele>105</ele>
        <time>2014-04-16T08:03:39Z</time>
      </trkpt>
      <trkpt lat="47.74691" lon="3.58735">
        <ele>105</ele>
        <time>2014-04-16T08:03:44Z</time>
      </trkpt>
      <trkpt lat="47.74686" lon="3.58733">
        <ele>105</ele>
        <time>2014-04-16T08:03:48Z</time>
      </trkpt>
      <trkpt lat="47.74681" lon="3.58732">
        <ele>105</ele>
        <time>2014-04-16T08:03:51Z</time>
      </trkpt>
      <trkpt lat="47.74675" lon="3.5873">
        <ele>105</ele>
        <time>2014-04-16T08:03:54Z</time>
      </trkpt>
      <trkpt lat="47.74671" lon="3.58728">
        <ele>105</ele>
        <time>2014-04-16T08:03:57Z</time>
      </trkpt>
      <trkpt lat="47.74665" lon="3.58729">
        <ele>104</ele>
        <time>2014-04-16T08:04:01Z</time>
      </trkpt>
      <trkpt lat="47.7466" lon="3.58727">
        <ele>104</ele>
        <time>2014-04-16T08:04:06Z</time>
      </trkpt>
      <trkpt lat="47.74655" lon="3.58728">
        <ele>104</ele>
        <time>2014-04-16T08:04:11Z</time>
      </trkpt>
      <trkpt lat="47.74649" lon="3.58727">
        <ele>104</ele>
        <time>2014-04-16T08:04:16Z</time>
      </trkpt>
      <trkpt lat="47.74634" lon="3.58725">
        <ele>104</ele>
        <time>2014-04-16T08:04:28Z</time>
      </trkpt>
      <trkpt lat="47.74624" lon="3.58721">
        <ele>104</ele>
        <time>2014-04-16T08:04:36Z</time>
      </trkpt>
      <trkpt lat="47.74614" lon="3.58719">
        <ele>104</ele>
        <time>2014-04-16T08:04:44Z</time>
      </trkpt>
      <trkpt lat="47.74608" lon="3.58718">
        <ele>104</ele>
        <time>2014-04-16T08:04:48Z</time>
      </trkpt>
      <trkpt lat="47.74603" lon="3.5872">
        <ele>104</ele>
        <time>2014-04-16T08:04:52Z</time>
      </trkpt>
      <trkpt lat="47.74597" lon="3.5872">
        <ele>104</ele>
        <time>2014-04-16T08:04:56Z</time>
      </trkpt>
      <trkpt lat="47.74593" lon="3.5872">
        <ele>104</ele>
        <time>2014-04-16T08:05:00Z</time>
      </trkpt>
      <trkpt lat="47.74588" lon="3.58722">
        <ele>104</ele>
        <time>2014-04-16T08:05:04Z</time>
      </trkpt>
      <trkpt lat="47.74584" lon="3.58723">
        <ele>104</ele>
        <time>2014-04-16T08:05:09Z</time>
      </trkpt>
      <trkpt lat="47.74579" lon="3.58722">
        <ele>105</ele>
        <time>2014-04-16T08:05:14Z</time>
      </trkpt>
      <trkpt lat="47.74567" lon="3.58723">
        <ele>105</ele>
        <time>2014-04-16T08:05:22Z</time>
      </trkpt>
      <trkpt lat="47.74562" lon="3.58725">
        <ele>105</ele>
        <time>2014-04-16T08:05:26Z</time>
      </trkpt>
      <trkpt lat="47.74556" lon="3.58728">
        <ele>105</ele>
        <time>2014-04-16T08:05:30Z</time>
      </trkpt>
      <trkpt lat="47.74551" lon="3.5873">
        <ele>105</ele>
        <time>2014-04-16T08:05:34Z</time>
      </trkpt>
      <trkpt lat="47.74546" lon="3.58729">
        <ele>105</ele>
        <time>2014-04-16T08:05:38Z</time>
      </trkpt>
      <trkpt lat="47.74542" lon="3.5873">
        <ele>105</ele>
        <time>2014-04-16T08:05:44Z</time>
      </trkpt>
      <trkpt lat="47.74536" lon="3.58731">
        <ele>105</ele>
        <time>2014-04-16T08:05:48Z</time>
      </trkpt>
      <trkpt lat="47.74532" lon="3.58727">
        <ele>106</ele>
        <time>2014-04-16T08:05:52Z</time>
      </trkpt>
      <trkpt lat="47.74528" lon="3.58731">
        <ele>106</ele>
        <time>2014-04-16T08:05:56Z</time>
      </trkpt>
      <trkpt lat="47.74524" lon="3.58735">
        <ele>105</ele>
        <time>2014-04-16T08:06:01Z</time>
      </trkpt>
      <trkpt lat="47.74515" lon="3.58741">
        <ele>105</ele>
        <time>2014-04-16T08:06:08Z</time>
      </trkpt>
      <trkpt lat="47.7451" lon="3.58745">
        <ele>105</ele>
        <time>2014-04-16T08:06:11Z</time>
      </trkpt>
      <trkpt lat="47.74505" lon="3.58747">
        <ele>105</ele>
        <time>2014-04-16T08:06:15Z</time>
      </trkpt>
      <trkpt lat="47.7449" lon="3.5875">
        <ele>106</ele>
        <time>2014-04-16T08:06:31Z</time>
      </trkpt>
      <trkpt lat="47.74486" lon="3.58751">
        <ele>105</ele>
        <time>2014-04-16T08:06:38Z</time>
      </trkpt>
      <trkpt lat="47.74481" lon="3.58754">
        <ele>105</ele>
        <time>2014-04-16T08:06:42Z</time>
      </trkpt>
      <trkpt lat="47.74473" lon="3.58763">
        <ele>104</ele>
        <time>2014-04-16T08:06:50Z</time>
      </trkpt>
      <trkpt lat="47.74468" lon="3.58765">
        <ele>104</ele>
        <time>2014-04-16T08:06:55Z</time>
      </trkpt>
      <trkpt lat="47.7446" lon="3.58775">
        <ele>104</ele>
        <time>2014-04-16T08:07:03Z</time>
      </trkpt>
      <trkpt lat="47.7445" lon="3.58778">
        <ele>104</ele>
        <time>2014-04-16T08:07:13Z</time>
      </trkpt>
      <trkpt lat="47.74441" lon="3.58784">
        <ele>104</ele>
        <time>2014-04-16T08:07:23Z</time>
      </trkpt>
      <trkpt lat="47.74437" lon="3.58789">
        <ele>104</ele>
        <time>2014-04-16T08:07:29Z</time>
      </trkpt>
      <trkpt lat="47.74422" lon="3.58797">
        <ele>104</ele>
        <time>2014-04-16T08:07:42Z</time>
      </trkpt>
      <trkpt lat="47.74418" lon="3.58799">
        <ele>104</ele>
        <time>2014-04-16T08:07:45Z</time>
      </trkpt>
      <trkpt lat="47.74413" lon="3.58802">
        <ele>105</ele>
        <time>2014-04-16T08:07:48Z</time>
      </trkpt>
      <trkpt lat="47.74408" lon="3.58803">
        <ele>105</ele>
        <time>2014-04-16T08:07:52Z</time>
      </trkpt>
      <trkpt lat="47.74388" lon="3.58815">
        <ele>105</ele>
        <time>2014-04-16T08:08:08Z</time>
      </trkpt>
      <trkpt lat="47.74383" lon="3.58817">
        <ele>105</ele>
        <time>2014-04-16T08:08:12Z</time>
      </trkpt>
      <trkpt lat="47.74379" lon="3.5882">
        <ele>105</ele>
        <time>2014-04-16T08:08:16Z</time>
      </trkpt>
      <trkpt lat="47.74375" lon="3.58825">
        <ele>105</ele>
        <time>2014-04-16T08:08:24Z</time>
      </trkpt>
      <trkpt lat="47.74365" lon="3.58829">
        <ele>104</ele>
        <time>2014-04-16T08:08:32Z</time>
      </trkpt>
      <trkpt lat="47.7436" lon="3.5883">
        <ele>104</ele>
        <time>2014-04-16T08:08:36Z</time>
      </trkpt>
      <trkpt lat="47.7435" lon="3.58836">
        <ele>102</ele>
        <time>2014-04-16T08:08:44Z</time>
      </trkpt>
      <trkpt lat="47.74341" lon="3.58845">
        <ele>102</ele>
        <time>2014-04-16T08:08:53Z</time>
      </trkpt>
      <trkpt lat="47.74336" lon="3.58847">
        <ele>102</ele>
        <time>2014-04-16T08:08:57Z</time>
      </trkpt>
      <trkpt lat="47.74326" lon="3.58848">
        <ele>103</ele>
        <time>2014-04-16T08:09:05Z</time>
      </trkpt>
      <trkpt lat="47.74321" lon="3.58849">
        <ele>103</ele>
        <time>2014-04-16T08:09:10Z</time>
      </trkpt>
      <trkpt lat="47.74316" lon="3.58853">
        <ele>103</ele>
        <time>2014-04-16T08:09:14Z</time>
      </trkpt>
      <trkpt lat="47.74311" lon="3.58859">
        <ele>103</ele>
        <time>2014-04-16T08:09:17Z</time>
      </trkpt>
      <trkpt lat="47.74308" lon="3.58865">
        <ele>103</ele>
        <time>2014-04-16T08:09:20Z</time>
      </trkpt>
      <trkpt lat="47.74305" lon="3.5887">
        <ele>102</ele>
        <time>2014-04-16T08:09:24Z</time>
      </trkpt>
      <trkpt lat="47.743" lon="3.58872">
        <ele>102</ele>
        <time>2014-04-16T08:09:28Z</time>
      </trkpt>
      <trkpt lat="47.74296" lon="3.58872">
        <ele>103</ele>
        <time>2014-04-16T08:09:32Z</time>
      </trkpt>
      <trkpt lat="47.74288" lon="3.5888">
        <ele>102</ele>
        <time>2014-04-16T08:09:41Z</time>
      </trkpt>
      <trkpt lat="47.74283" lon="3.58882">
        <ele>102</ele>
        <time>2014-04-16T08:09:45Z</time>
      </trkpt>
      <trkpt lat="47.74278" lon="3.58883">
        <ele>102</ele>
        <time>2014-04-16T08:09:49Z</time>
      </trkpt>
      <trkpt lat="47.74264" lon="3.58894">
        <ele>102</ele>
        <time>2014-04-16T08:10:03Z</time>
      </trkpt>
      <trkpt lat="47.74255" lon="3.58903">
        <ele>102</ele>
        <time>2014-04-16T08:10:10Z</time>
      </trkpt>
      <trkpt lat="47.74246" lon="3.58908">
        <ele>103</ele>
        <time>2014-04-16T08:10:20Z</time>
      </trkpt>
      <trkpt lat="47.74241" lon="3.58912">
        <ele>103</ele>
        <time>2014-04-16T08:10:24Z</time>
      </trkpt>
      <trkpt lat="47.74236" lon="3.58913">
        <ele>103</ele>
        <time>2014-04-16T08:10:28Z</time>
      </trkpt>
      <trkpt lat="47.74231" lon="3.58917">
        <ele>103</ele>
        <time>2014-04-16T08:10:33Z</time>
      </trkpt>
      <trkpt lat="47.74226" lon="3.58918">
        <ele>102</ele>
        <time>2014-04-16T08:10:38Z</time>
      </trkpt>
      <trkpt lat="47.74215" lon="3.58933">
        <ele>102</ele>
        <time>2014-04-16T08:10:51Z</time>
      </trkpt>
      <trkpt lat="47.74211" lon="3.58936">
        <ele>102</ele>
        <time>2014-04-16T08:10:53Z</time>
      </trkpt>
      <trkpt lat="47.74206" lon="3.58939">
        <ele>103</ele>
        <time>2014-04-16T08:10:57Z</time>
      </trkpt>
      <trkpt lat="47.74202" lon="3.58943">
        <ele>103</ele>
        <time>2014-04-16T08:11:01Z</time>
      </trkpt>
      <trkpt lat="47.74193" lon="3.5895">
        <ele>103</ele>
        <time>2014-04-16T08:11:09Z</time>
      </trkpt>
      <trkpt lat="47.74188" lon="3.58952">
        <ele>103</ele>
        <time>2014-04-16T08:11:13Z</time>
      </trkpt>
      <trkpt lat="47.74177" lon="3.58967">
        <ele>103</ele>
        <time>2014-04-16T08:11:27Z</time>
      </trkpt>
      <trkpt lat="47.74172" lon="3.58972">
        <ele>103</ele>
        <time>2014-04-16T08:11:30Z</time>
      </trkpt>
      <trkpt lat="47.74163" lon="3.58983">
        <ele>104</ele>
        <time>2014-04-16T08:11:36Z</time>
      </trkpt>
      <trkpt lat="47.74159" lon="3.58985">
        <ele>104</ele>
        <time>2014-04-16T08:11:41Z</time>
      </trkpt>
      <trkpt lat="47.7415" lon="3.58985">
        <ele>104</ele>
        <time>2014-04-16T08:11:51Z</time>
      </trkpt>
      <trkpt lat="47.74146" lon="3.58988">
        <ele>104</ele>
        <time>2014-04-16T08:11:56Z</time>
      </trkpt>
      <trkpt lat="47.74141" lon="3.58993">
        <ele>104</ele>
        <time>2014-04-16T08:11:59Z</time>
      </trkpt>
      <trkpt lat="47.74138" lon="3.58998">
        <ele>104</ele>
        <time>2014-04-16T08:12:05Z</time>
      </trkpt>
      <trkpt lat="47.74133" lon="3.59">
        <ele>105</ele>
        <time>2014-04-16T08:12:10Z</time>
      </trkpt>
      <trkpt lat="47.74116" lon="3.59019">
        <ele>103</ele>
        <time>2014-04-16T08:12:27Z</time>
      </trkpt>
      <trkpt lat="47.7411" lon="3.59031">
        <ele>103</ele>
        <time>2014-04-16T08:12:37Z</time>
      </trkpt>
      <trkpt lat="47.74105" lon="3.59036">
        <ele>103</ele>
        <time>2014-04-16T08:12:42Z</time>
      </trkpt>
      <trkpt lat="47.74102" lon="3.59042">
        <ele>103</ele>
        <time>2014-04-16T08:12:48Z</time>
      </trkpt>
      <trkpt lat="47.74102" lon="3.59055">
        <ele>102</ele>
        <time>2014-04-16T08:12:53Z</time>
      </trkpt>
      <trkpt lat="47.74106" lon="3.5907">
        <ele>102</ele>
        <time>2014-04-16T08:13:00Z</time>
      </trkpt>
      <trkpt lat="47.74109" lon="3.59076">
        <ele>102</ele>
        <time>2014-04-16T08:13:03Z</time>
      </trkpt>
      <trkpt lat="47.74117" lon="3.59083">
        <ele>102</ele>
        <time>2014-04-16T08:13:07Z</time>
      </trkpt>
      <trkpt lat="47.74119" lon="3.5909">
        <ele>101</ele>
        <time>2014-04-16T08:13:12Z</time>
      </trkpt>
      <trkpt lat="47.74119" lon="3.59097">
        <ele>101</ele>
        <time>2014-04-16T08:13:16Z</time>
      </trkpt>
      <trkpt lat="47.74117" lon="3.59105">
        <ele>101</ele>
        <time>2014-04-16T08:13:19Z</time>
      </trkpt>
      <trkpt lat="47.74116" lon="3.59113">
        <ele>101</ele>
        <time>2014-04-16T08:13:23Z</time>
      </trkpt>
      <trkpt lat="47.74114" lon="3.5912">
        <ele>101</ele>
        <time>2014-04-16T08:13:27Z</time>
      </trkpt>
      <trkpt lat="47.74114" lon="3.59127">
        <ele>101</ele>
        <time>2014-04-16T08:13:31Z</time>
      </trkpt>
      <trkpt lat="47.74114" lon="3.59159">
        <ele>100</ele>
        <time>2014-04-16T08:13:47Z</time>
      </trkpt>
      <trkpt lat="47.74114" lon="3.59166">
        <ele>100</ele>
        <time>2014-04-16T08:13:52Z</time>
      </trkpt>
      <trkpt lat="47.74115" lon="3.59174">
        <ele>100</ele>
        <time>2014-04-16T08:13:55Z</time>
      </trkpt>
      <trkpt lat="47.74115" lon="3.59213">
        <ele>100</ele>
        <time>2014-04-16T08:14:14Z</time>
      </trkpt>
      <trkpt lat="47.74117" lon="3.5922">
        <ele>100</ele>
        <time>2014-04-16T08:14:18Z</time>
      </trkpt>
      <trkpt lat="47.74117" lon="3.59242">
        <ele>100</ele>
        <time>2014-04-16T08:14:30Z</time>
      </trkpt>
      <trkpt lat="47.7412" lon="3.59249">
        <ele>100</ele>
        <time>2014-04-16T08:14:35Z</time>
      </trkpt>
      <trkpt lat="47.74121" lon="3.59263">
        <ele>101</ele>
        <time>2014-04-16T08:14:44Z</time>
      </trkpt>
      <trkpt lat="47.74121" lon="3.59271">
        <ele>101</ele>
        <time>2014-04-16T08:14:47Z</time>
      </trkpt>
      <trkpt lat="47.74119" lon="3.59279">
        <ele>101</ele>
        <time>2014-04-16T08:14:52Z</time>
      </trkpt>
      <trkpt lat="47.74114" lon="3.59282">
        <ele>101</ele>
        <time>2014-04-16T08:14:56Z</time>
      </trkpt>
      <trkpt lat="47.7411" lon="3.59283">
        <ele>101</ele>
        <time>2014-04-16T08:15:00Z</time>
      </trkpt>
      <trkpt lat="47.74104" lon="3.59284">
        <ele>101</ele>
        <time>2014-04-16T08:15:04Z</time>
      </trkpt>
      <trkpt lat="47.74099" lon="3.59286">
        <ele>101</ele>
        <time>2014-04-16T08:15:07Z</time>
      </trkpt>
      <trkpt lat="47.74093" lon="3.59288">
        <ele>101</ele>
        <time>2014-04-16T08:15:11Z</time>
      </trkpt>
      <trkpt lat="47.74088" lon="3.59287">
        <ele>101</ele>
        <time>2014-04-16T08:15:16Z</time>
      </trkpt>
      <trkpt lat="47.74083" lon="3.59291">
        <ele>101</ele>
        <time>2014-04-16T08:15:21Z</time>
      </trkpt>
      <trkpt lat="47.74078" lon="3.59292">
        <ele>102</ele>
        <time>2014-04-16T08:15:25Z</time>
      </trkpt>
      <trkpt lat="47.74073" lon="3.59295">
        <ele>102</ele>
        <time>2014-04-16T08:15:28Z</time>
      </trkpt>
      <trkpt lat="47.74064" lon="3.59303">
        <ele>102</ele>
        <time>2014-04-16T08:15:34Z</time>
      </trkpt>
      <trkpt lat="47.74059" lon="3.59305">
        <ele>102</ele>
        <time>2014-04-16T08:15:38Z</time>
      </trkpt>
      <trkpt lat="47.74054" lon="3.59307">
        <ele>102</ele>
        <time>2014-04-16T08:15:42Z</time>
      </trkpt>
      <trkpt lat="47.74044" lon="3.59306">
        <ele>102</ele>
        <time>2014-04-16T08:15:51Z</time>
      </trkpt>
      <trkpt lat="47.74039" lon="3.59309">
        <ele>101</ele>
        <time>2014-04-16T08:15:56Z</time>
      </trkpt>
      <trkpt lat="47.74036" lon="3.59315">
        <ele>101</ele>
        <time>2014-04-16T08:16:02Z</time>
      </trkpt>
      <trkpt lat="47.7403" lon="3.59328">
        <ele>101</ele>
        <time>2014-04-16T08:16:10Z</time>
      </trkpt>
      <trkpt lat="47.74027" lon="3.59334">
        <ele>101</ele>
        <time>2014-04-16T08:16:14Z</time>
      </trkpt>
      <trkpt lat="47.74025" lon="3.59341">
        <ele>101</ele>
        <time>2014-04-16T08:16:17Z</time>
      </trkpt>
      <trkpt lat="47.74015" lon="3.59357">
        <ele>101</ele>
        <time>2014-04-16T08:16:28Z</time>
      </trkpt>
      <trkpt lat="47.74012" lon="3.59365">
        <ele>101</ele>
        <time>2014-04-16T08:16:32Z</time>
      </trkpt>
      <trkpt lat="47.74014" lon="3.59382">
        <ele>101</ele>
        <time>2014-04-16T08:16:36Z</time>
      </trkpt>
      <trkpt lat="47.74016" lon="3.5939">
        <ele>101</ele>
        <time>2014-04-16T08:16:39Z</time>
      </trkpt>
      <trkpt lat="47.74019" lon="3.59396">
        <ele>101</ele>
        <time>2014-04-16T08:16:44Z</time>
      </trkpt>
      <trkpt lat="47.74021" lon="3.59402">
        <ele>101</ele>
        <time>2014-04-16T08:16:51Z</time>
      </trkpt>
      <trkpt lat="47.7402" lon="3.59423">
        <ele>101</ele>
        <time>2014-04-16T08:17:04Z</time>
      </trkpt>
      <trkpt lat="47.7402" lon="3.59431">
        <ele>101</ele>
        <time>2014-04-16T08:17:08Z</time>
      </trkpt>
      <trkpt lat="47.74022" lon="3.59438">
        <ele>101</ele>
        <time>2014-04-16T08:17:12Z</time>
      </trkpt>
      <trkpt lat="47.7402" lon="3.59465">
        <ele>101</ele>
        <time>2014-04-16T08:17:26Z</time>
      </trkpt>
      <trkpt lat="47.74028" lon="3.59541">
        <ele>101</ele>
        <time>2014-04-16T08:18:03Z</time>
      </trkpt>
      <trkpt lat="47.74027" lon="3.59563">
        <ele>101</ele>
        <time>2014-04-16T08:18:15Z</time>
      </trkpt>
      <trkpt lat="47.74025" lon="3.5957">
        <ele>101</ele>
        <time>2014-04-16T08:18:19Z</time>
      </trkpt>
      <trkpt lat="47.74031" lon="3.59637">
        <ele>101</ele>
        <time>2014-04-16T08:18:58Z</time>
      </trkpt>
      <trkpt lat="47.7403" lon="3.59653">
        <ele>101</ele>
        <time>2014-04-16T08:19:06Z</time>
      </trkpt>
      <trkpt lat="47.74029" lon="3.59661">
        <ele>101</ele>
        <time>2014-04-16T08:19:10Z</time>
      </trkpt>
      <trkpt lat="47.74031" lon="3.59693">
        <ele>101</ele>
        <time>2014-04-16T08:19:27Z</time>
      </trkpt>
      <trkpt lat="47.7403" lon="3.597">
        <ele>101</ele>
        <time>2014-04-16T08:19:31Z</time>
      </trkpt>
      <trkpt lat="47.74033" lon="3.59713">
        <ele>101</ele>
        <time>2014-04-16T08:19:40Z</time>
      </trkpt>
      <trkpt lat="47.74033" lon="3.5973">
        <ele>101</ele>
        <time>2014-04-16T08:19:48Z</time>
      </trkpt>
      <trkpt lat="47.74029" lon="3.59761">
        <ele>101</ele>
        <time>2014-04-16T08:20:12Z</time>
      </trkpt>
      <trkpt lat="47.74029" lon="3.59768">
        <ele>102</ele>
        <time>2014-04-16T08:20:17Z</time>
      </trkpt>
      <trkpt lat="47.74031" lon="3.59773">
        <ele>102</ele>
        <time>2014-04-16T08:20:26Z</time>
      </trkpt>
      <trkpt lat="47.74034" lon="3.5978">
        <ele>102</ele>
        <time>2014-04-16T08:22:25Z</time>
      </trkpt>
      <trkpt lat="47.74033" lon="3.59803">
        <ele>102</ele>
        <time>2014-04-16T08:22:38Z</time>
      </trkpt>
      <trkpt lat="47.74034" lon="3.59811">
        <ele>102</ele>
        <time>2014-04-16T08:22:42Z</time>
      </trkpt>
      <trkpt lat="47.74033" lon="3.59818">
        <ele>102</ele>
        <time>2014-04-16T08:22:46Z</time>
      </trkpt>
      <trkpt lat="47.74035" lon="3.59832">
        <ele>102</ele>
        <time>2014-04-16T08:22:56Z</time>
      </trkpt>
      <trkpt lat="47.74038" lon="3.59839">
        <ele>103</ele>
        <time>2014-04-16T08:23:00Z</time>
      </trkpt>
      <trkpt lat="47.74039" lon="3.59847">
        <ele>103</ele>
        <time>2014-04-16T08:23:04Z</time>
      </trkpt>
      <trkpt lat="47.74037" lon="3.59855">
        <ele>103</ele>
        <time>2014-04-16T08:23:10Z</time>
      </trkpt>
      <trkpt lat="47.74035" lon="3.59863">
        <ele>103</ele>
        <time>2014-04-16T08:23:14Z</time>
      </trkpt>
      <trkpt lat="47.74035" lon="3.5987">
        <ele>103</ele>
        <time>2014-04-16T08:23:18Z</time>
      </trkpt>
      <trkpt lat="47.74036" lon="3.59878">
        <ele>103</ele>
        <time>2014-04-16T08:23:22Z</time>
      </trkpt>
      <trkpt lat="47.74043" lon="3.59892">
        <ele>103</ele>
        <time>2014-04-16T08:23:30Z</time>
      </trkpt>
      <trkpt lat="47.74043" lon="3.59899">
        <ele>103</ele>
        <time>2014-04-16T08:23:34Z</time>
      </trkpt>
      <trkpt lat="47.74042" lon="3.59907">
        <ele>103</ele>
        <time>2014-04-16T08:23:39Z</time>
      </trkpt>
      <trkpt lat="47.74044" lon="3.59913">
        <ele>103</ele>
        <time>2014-04-16T08:23:43Z</time>
      </trkpt>
      <trkpt lat="47.74047" lon="3.59919">
        <ele>103</ele>
        <time>2014-04-16T08:23:46Z</time>
      </trkpt>
      <trkpt lat="47.74048" lon="3.59926">
        <ele>103</ele>
        <time>2014-04-16T08:23:50Z</time>
      </trkpt>
      <trkpt lat="47.74041" lon="3.59937">
        <ele>103</ele>
        <time>2014-04-16T08:23:56Z</time>
      </trkpt>
      <trkpt lat="47.74037" lon="3.59951">
        <ele>104</ele>
        <time>2014-04-16T08:24:04Z</time>
      </trkpt>
      <trkpt lat="47.74035" lon="3.59959">
        <ele>104</ele>
        <time>2014-04-16T08:24:10Z</time>
      </trkpt>
      <trkpt lat="47.74033" lon="3.59966">
        <ele>104</ele>
        <time>2014-04-16T08:24:16Z</time>
      </trkpt>
      <trkpt lat="47.7403" lon="3.59972">
        <ele>104</ele>
        <time>2014-04-16T08:24:20Z</time>
      </trkpt>
      <trkpt lat="47.74032" lon="3.59985">
        <ele>104</ele>
        <time>2014-04-16T08:24:35Z</time>
      </trkpt>
      <trkpt lat="47.74038" lon="3.59987">
        <ele>104</ele>
        <time>2014-04-16T08:24:40Z</time>
      </trkpt>
      <trkpt lat="47.74042" lon="3.5999">
        <ele>104</ele>
        <time>2014-04-16T08:24:53Z</time>
      </trkpt>
      <trkpt lat="47.74043" lon="3.59994">
        <ele>104</ele>
        <time>2014-04-16T08:25:00Z</time>
      </trkpt>
      <trkpt lat="47.74042" lon="3.60006">
        <ele>104</ele>
        <time>2014-04-16T08:26:31Z</time>
      </trkpt>
      <trkpt lat="47.74044" lon="3.60014">
        <ele>104</ele>
        <time>2014-04-16T08:26:55Z</time>
      </trkpt>
      <trkpt lat="47.74043" lon="3.6002">
        <ele>104</ele>
        <time>2014-04-16T08:27:20Z</time>
      </trkpt>
      <trkpt lat="47.74043" lon="3.60015">
        <ele>104</ele>
        <time>2014-04-16T08:28:43Z</time>
      </trkpt>
      <trkpt lat="47.74044" lon="3.60008">
        <ele>104</ele>
        <time>2014-04-16T08:29:02Z</time>
      </trkpt>
      <trkpt lat="47.74047" lon="3.60007">
        <ele>104</ele>
        <time>2014-04-16T08:29:13Z</time>
      </trkpt>
      <trkpt lat="47.7405" lon="3.60009">
        <ele>104</ele>
        <time>2014-04-16T08:29:21Z</time>
      </trkpt>
      <trkpt lat="47.74051" lon="3.60001">
        <ele>104</ele>
        <time>2014-04-16T08:29:35Z</time>
      </trkpt>
      <trkpt lat="47.74046" lon="3.59999">
        <ele>104</ele>
        <time>2014-04-16T08:29:40Z</time>
      </trkpt>
      <trkpt lat="47.74042" lon="3.59995">
        <ele>104</ele>
        <time>2014-04-16T08:29:50Z</time>
      </trkpt>
      <trkpt lat="47.7404" lon="3.5999">
        <ele>104</ele>
        <time>2014-04-16T08:30:36Z</time>
      </trkpt>
      <trkpt lat="47.74044" lon="3.59985">
        <ele>104</ele>
        <time>2014-04-16T08:30:44Z</time>
      </trkpt>
      <trkpt lat="47.7405" lon="3.59984">
        <ele>104</ele>
        <time>2014-04-16T08:31:25Z</time>
      </trkpt>
      <trkpt lat="47.74053" lon="3.59986">
        <ele>103</ele>
        <time>2014-04-16T08:31:32Z</time>
      </trkpt>
      <trkpt lat="47.74048" lon="3.5999">
        <ele>104</ele>
        <time>2014-04-16T08:31:37Z</time>
      </trkpt>
      <trkpt lat="47.74045" lon="3.59989">
        <ele>104</ele>
        <time>2014-04-16T08:31:46Z</time>
      </trkpt>
      <trkpt lat="47.74042" lon="3.5999">
        <ele>104</ele>
        <time>2014-04-16T08:32:42Z</time>
      </trkpt>
      <trkpt lat="47.74044" lon="3.59989">
        <ele>104</ele>
        <time>2014-04-16T08:33:20Z</time>
      </trkpt>
      <trkpt lat="47.74048" lon="3.59986">
        <ele>104</ele>
        <time>2014-04-16T08:34:48Z</time>
      </trkpt>
      <trkpt lat="47.74048" lon="3.59987">
        <ele>104</ele>
        <time>2014-04-16T08:35:29Z</time>
      </trkpt>
      <trkpt lat="47.74043" lon="3.5999">
        <ele>104</ele>
        <time>2014-04-16T08:35:59Z</time>
      </trkpt>
      <trkpt lat="47.74037" lon="3.5999">
        <ele>104</ele>
        <time>2014-04-16T08:36:03Z</time>
      </trkpt>
      <trkpt lat="47.74033" lon="3.59986">
        <ele>104</ele>
        <time>2014-04-16T08:36:06Z</time>
      </trkpt>
      <trkpt lat="47.74031" lon="3.59978">
        <ele>104</ele>
        <time>2014-04-16T08:36:10Z</time>
      </trkpt>
      <trkpt lat="47.74029" lon="3.59971">
        <ele>104</ele>
        <time>2014-04-16T08:36:14Z</time>
      </trkpt>
      <trkpt lat="47.7403" lon="3.59964">
        <ele>104</ele>
        <time>2014-04-16T08:36:18Z</time>
      </trkpt>
      <trkpt lat="47.7403" lon="3.59947">
        <ele>104</ele>
        <time>2014-04-16T08:36:27Z</time>
      </trkpt>
      <trkpt lat="47.74032" lon="3.59941">
        <ele>104</ele>
        <time>2014-04-16T08:36:30Z</time>
      </trkpt>
      <trkpt lat="47.74027" lon="3.59925">
        <ele>104</ele>
        <time>2014-04-16T08:36:44Z</time>
      </trkpt>
      <trkpt lat="47.74026" lon="3.59895">
        <ele>103</ele>
        <time>2014-04-16T08:37:03Z</time>
      </trkpt>
      <trkpt lat="47.74025" lon="3.59888">
        <ele>103</ele>
        <time>2014-04-16T08:37:08Z</time>
      </trkpt>
      <trkpt lat="47.7402" lon="3.59874">
        <ele>103</ele>
        <time>2014-04-16T08:37:18Z</time>
      </trkpt>
      <trkpt lat="47.7402" lon="3.59859">
        <ele>103</ele>
        <time>2014-04-16T08:37:28Z</time>
      </trkpt>
      <trkpt lat="47.74022" lon="3.59843">
        <ele>103</ele>
        <time>2014-04-16T08:37:49Z</time>
      </trkpt>
      <trkpt lat="47.74024" lon="3.59836">
        <ele>103</ele>
        <time>2014-04-16T08:37:57Z</time>
      </trkpt>
      <trkpt lat="47.74025" lon="3.59821">
        <ele>102</ele>
        <time>2014-04-16T08:38:14Z</time>
      </trkpt>
      <trkpt lat="47.74025" lon="3.59813">
        <ele>102</ele>
        <time>2014-04-16T08:38:18Z</time>
      </trkpt>
      <trkpt lat="47.74023" lon="3.59805">
        <ele>102</ele>
        <time>2014-04-16T08:38:24Z</time>
      </trkpt>
      <trkpt lat="47.74022" lon="3.59801">
        <ele>102</ele>
        <time>2014-04-16T08:39:28Z</time>
      </trkpt>
      <trkpt lat="47.74017" lon="3.59798">
        <ele>102</ele>
        <time>2014-04-16T08:39:38Z</time>
      </trkpt>
      <trkpt lat="47.74013" lon="3.59793">
        <ele>102</ele>
        <time>2014-04-16T08:39:42Z</time>
      </trkpt>
      <trkpt lat="47.74008" lon="3.5979">
        <ele>102</ele>
        <time>2014-04-16T08:39:46Z</time>
      </trkpt>
      <trkpt lat="47.74004" lon="3.59794">
        <ele>102</ele>
        <time>2014-04-16T08:39:51Z</time>
      </trkpt>
      <trkpt lat="47.73989" lon="3.598">
        <ele>102</ele>
        <time>2014-04-16T08:40:01Z</time>
      </trkpt>
      <trkpt lat="47.7398" lon="3.59809">
        <ele>102</ele>
        <time>2014-04-16T08:40:06Z</time>
      </trkpt>
      <trkpt lat="47.73975" lon="3.59813">
        <ele>102</ele>
        <time>2014-04-16T08:40:09Z</time>
      </trkpt>
      <trkpt lat="47.73972" lon="3.59809">
        <ele>102</ele>
        <time>2014-04-16T08:40:15Z</time>
      </trkpt>
      <trkpt lat="47.73969" lon="3.59803">
        <ele>102</ele>
        <time>2014-04-16T08:40:20Z</time>
      </trkpt>
      <trkpt lat="47.73965" lon="3.59799">
        <ele>102</ele>
        <time>2014-04-16T08:40:25Z</time>
      </trkpt>
      <trkpt lat="47.73959" lon="3.59797">
        <ele>102</ele>
        <time>2014-04-16T08:40:30Z</time>
      </trkpt>
      <trkpt lat="47.73949" lon="3.59804">
        <ele>102</ele>
        <time>2014-04-16T08:40:38Z</time>
      </trkpt>
      <trkpt lat="47.73944" lon="3.59804">
        <ele>102</ele>
        <time>2014-04-16T08:40:43Z</time>
      </trkpt>
      <trkpt lat="47.73939" lon="3.59807">
        <ele>102</ele>
        <time>2014-04-16T08:40:48Z</time>
      </trkpt>
      <trkpt lat="47.73928" lon="3.59805">
        <ele>102</ele>
        <time>2014-04-16T08:40:59Z</time>
      </trkpt>
      <trkpt lat="47.73924" lon="3.59807">
        <ele>102</ele>
        <time>2014-04-16T08:41:02Z</time>
      </trkpt>
      <trkpt lat="47.7392" lon="3.59812">
        <ele>102</ele>
        <time>2014-04-16T08:41:07Z</time>
      </trkpt>
      <trkpt lat="47.73915" lon="3.59815">
        <ele>102</ele>
        <time>2014-04-16T08:41:12Z</time>
      </trkpt>
      <trkpt lat="47.73911" lon="3.59817">
        <ele>102</ele>
        <time>2014-04-16T08:41:16Z</time>
      </trkpt>
      <trkpt lat="47.73906" lon="3.59818">
        <ele>102</ele>
        <time>2014-04-16T08:41:20Z</time>
      </trkpt>
      <trkpt lat="47.73896" lon="3.59815">
        <ele>102</ele>
        <time>2014-04-16T08:41:28Z</time>
      </trkpt>
      <trkpt lat="47.7389" lon="3.59815">
        <ele>102</ele>
        <time>2014-04-16T08:43:58Z</time>
      </trkpt>
      <trkpt lat="47.7388" lon="3.59819">
        <ele>102</ele>
        <time>2014-04-16T08:44:06Z</time>
      </trkpt>
      <trkpt lat="47.73866" lon="3.59829">
        <ele>102</ele>
        <time>2014-04-16T08:44:20Z</time>
      </trkpt>
      <trkpt lat="47.73861" lon="3.5983">
        <ele>102</ele>
        <time>2014-04-16T08:44:24Z</time>
      </trkpt>
      <trkpt lat="47.73856" lon="3.59831">
        <ele>102</ele>
        <time>2014-04-16T08:44:29Z</time>
      </trkpt>
      <trkpt lat="47.73851" lon="3.59833">
        <ele>102</ele>
        <time>2014-04-16T08:44:33Z</time>
      </trkpt>
      <trkpt lat="47.73846" lon="3.59836">
        <ele>101</ele>
        <time>2014-04-16T08:44:37Z</time>
      </trkpt>
      <trkpt lat="47.73842" lon="3.59838">
        <ele>101</ele>
        <time>2014-04-16T08:44:42Z</time>
      </trkpt>
      <trkpt lat="47.73837" lon="3.59841">
        <ele>101</ele>
        <time>2014-04-16T08:44:47Z</time>
      </trkpt>
      <trkpt lat="47.73832" lon="3.59843">
        <ele>101</ele>
        <time>2014-04-16T08:44:52Z</time>
      </trkpt>
      <trkpt lat="47.73828" lon="3.59844">
        <ele>102</ele>
        <time>2014-04-16T08:44:57Z</time>
      </trkpt>
      <trkpt lat="47.73823" lon="3.59845">
        <ele>102</ele>
        <time>2014-04-16T08:45:02Z</time>
      </trkpt>
      <trkpt lat="47.73818" lon="3.59846">
        <ele>102</ele>
        <time>2014-04-16T08:45:07Z</time>
      </trkpt>
      <trkpt lat="47.73813" lon="3.59848">
        <ele>102</ele>
        <time>2014-04-16T08:45:11Z</time>
      </trkpt>
      <trkpt lat="47.73807" lon="3.59846">
        <ele>102</ele>
        <time>2014-04-16T08:45:19Z</time>
      </trkpt>
      <trkpt lat="47.73802" lon="3.59847">
        <ele>102</ele>
        <time>2014-04-16T08:45:22Z</time>
      </trkpt>
      <trkpt lat="47.73797" lon="3.59845">
        <ele>102</ele>
        <time>2014-04-16T08:45:26Z</time>
      </trkpt>
      <trkpt lat="47.73792" lon="3.59844">
        <ele>102</ele>
        <time>2014-04-16T08:45:30Z</time>
      </trkpt>
      <trkpt lat="47.73787" lon="3.59845">
        <ele>102</ele>
        <time>2014-04-16T08:45:34Z</time>
      </trkpt>
      <trkpt lat="47.73782" lon="3.59846">
        <ele>103</ele>
        <time>2014-04-16T08:45:38Z</time>
      </trkpt>
      <trkpt lat="47.73773" lon="3.59842">
        <ele>103</ele>
        <time>2014-04-16T08:45:46Z</time>
      </trkpt>
      <trkpt lat="47.73769" lon="3.59839">
        <ele>103</ele>
        <time>2014-04-16T08:45:51Z</time>
      </trkpt>
      <trkpt lat="47.73764" lon="3.59836">
        <ele>103</ele>
        <time>2014-04-16T08:45:56Z</time>
      </trkpt>
      <trkpt lat="47.73759" lon="3.59836">
        <ele>103</ele>
        <time>2014-04-16T08:46:01Z</time>
      </trkpt>
      <trkpt lat="47.73755" lon="3.59839">
        <ele>103</ele>
        <time>2014-04-16T08:46:05Z</time>
      </trkpt>
      <trkpt lat="47.7375" lon="3.59841">
        <ele>103</ele>
        <time>2014-04-16T08:46:10Z</time>
      </trkpt>
      <trkpt lat="47.73743" lon="3.5985">
        <ele>103</ele>
        <time>2014-04-16T08:46:20Z</time>
      </trkpt>
      <trkpt lat="47.73738" lon="3.59855">
        <ele>103</ele>
        <time>2014-04-16T08:46:24Z</time>
      </trkpt>
      <trkpt lat="47.73735" lon="3.5986">
        <ele>103</ele>
        <time>2014-04-16T08:46:28Z</time>
      </trkpt>
      <trkpt lat="47.73733" lon="3.59867">
        <ele>103</ele>
        <time>2014-04-16T08:46:33Z</time>
      </trkpt>
      <trkpt lat="47.73729" lon="3.59873">
        <ele>103</ele>
        <time>2014-04-16T08:46:37Z</time>
      </trkpt>
      <trkpt lat="47.73724" lon="3.59878">
        <ele>103</ele>
        <time>2014-04-16T08:46:41Z</time>
      </trkpt>
      <trkpt lat="47.7372" lon="3.5988">
        <ele>103</ele>
        <time>2014-04-16T08:46:45Z</time>
      </trkpt>
      <trkpt lat="47.7371" lon="3.5988">
        <ele>103</ele>
        <time>2014-04-16T08:46:52Z</time>
      </trkpt>
      <trkpt lat="47.73705" lon="3.59882">
        <ele>103</ele>
        <time>2014-04-16T08:46:56Z</time>
      </trkpt>
      <trkpt lat="47.73702" lon="3.59887">
        <ele>103</ele>
        <time>2014-04-16T08:47:01Z</time>
      </trkpt>
      <trkpt lat="47.73699" lon="3.59893">
        <ele>103</ele>
        <time>2014-04-16T08:47:03Z</time>
      </trkpt>
      <trkpt lat="47.73694" lon="3.59896">
        <ele>103</ele>
        <time>2014-04-16T08:47:08Z</time>
      </trkpt>
      <trkpt lat="47.73689" lon="3.59895">
        <ele>103</ele>
        <time>2014-04-16T08:47:12Z</time>
      </trkpt>
      <trkpt lat="47.73679" lon="3.59901">
        <ele>103</ele>
        <time>2014-04-16T08:47:20Z</time>
      </trkpt>
      <trkpt lat="47.73675" lon="3.59904">
        <ele>103</ele>
        <time>2014-04-16T08:47:24Z</time>
      </trkpt>
      <trkpt lat="47.73671" lon="3.59909">
        <ele>103</ele>
        <time>2014-04-16T08:47:27Z</time>
      </trkpt>
      <trkpt lat="47.73667" lon="3.59913">
        <ele>103</ele>
        <time>2014-04-16T08:47:32Z</time>
      </trkpt>
      <trkpt lat="47.73662" lon="3.59914">
        <ele>103</ele>
        <time>2014-04-16T08:47:38Z</time>
      </trkpt>
      <trkpt lat="47.73657" lon="3.59913">
        <ele>103</ele>
        <time>2014-04-16T08:47:41Z</time>
      </trkpt>
      <trkpt lat="47.73647" lon="3.59914">
        <ele>103</ele>
        <time>2014-04-16T08:47:47Z</time>
      </trkpt>
      <trkpt lat="47.73642" lon="3.59916">
        <ele>103</ele>
        <time>2014-04-16T08:47:51Z</time>
      </trkpt>
      <trkpt lat="47.73638" lon="3.59919">
        <ele>103</ele>
        <time>2014-04-16T08:47:55Z</time>
      </trkpt>
      <trkpt lat="47.73634" lon="3.59923">
        <ele>103</ele>
        <time>2014-04-16T08:48:00Z</time>
      </trkpt>
      <trkpt lat="47.73632" lon="3.59929">
        <ele>103</ele>
        <time>2014-04-16T08:48:05Z</time>
      </trkpt>
      <trkpt lat="47.73627" lon="3.59933">
        <ele>103</ele>
        <time>2014-04-16T08:48:11Z</time>
      </trkpt>
      <trkpt lat="47.73619" lon="3.59942">
        <ele>103</ele>
        <time>2014-04-16T08:48:17Z</time>
      </trkpt>
      <trkpt lat="47.73615" lon="3.59945">
        <ele>103</ele>
        <time>2014-04-16T08:48:20Z</time>
      </trkpt>
      <trkpt lat="47.73607" lon="3.59956">
        <ele>103</ele>
        <time>2014-04-16T08:48:26Z</time>
      </trkpt>
      <trkpt lat="47.73598" lon="3.59963">
        <ele>103</ele>
        <time>2014-04-16T08:48:37Z</time>
      </trkpt>
      <trkpt lat="47.73588" lon="3.59969">
        <ele>103</ele>
        <time>2014-04-16T08:48:45Z</time>
      </trkpt>
      <trkpt lat="47.73575" lon="3.59981">
        <ele>102</ele>
        <time>2014-04-16T08:48:56Z</time>
      </trkpt>
      <trkpt lat="47.73572" lon="3.59987">
        <ele>102</ele>
        <time>2014-04-16T08:49:00Z</time>
      </trkpt>
      <trkpt lat="47.73563" lon="3.60021">
        <ele>102</ele>
        <time>2014-04-16T08:49:20Z</time>
      </trkpt>
      <trkpt lat="47.73559" lon="3.60024">
        <ele>102</ele>
        <time>2014-04-16T08:49:23Z</time>
      </trkpt>
      <trkpt lat="47.73555" lon="3.60019">
        <ele>102</ele>
        <time>2014-04-16T08:49:26Z</time>
      </trkpt>
      <trkpt lat="47.73549" lon="3.60023">
        <ele>102</ele>
        <time>2014-04-16T08:49:31Z</time>
      </trkpt>
      <trkpt lat="47.73545" lon="3.60028">
        <ele>102</ele>
        <time>2014-04-16T08:49:34Z</time>
      </trkpt>
      <trkpt lat="47.7354" lon="3.60031">
        <ele>102</ele>
        <time>2014-04-16T08:49:40Z</time>
      </trkpt>
      <trkpt lat="47.73533" lon="3.60044">
        <ele>102</ele>
        <time>2014-04-16T08:49:47Z</time>
      </trkpt>
      <trkpt lat="47.7353" lon="3.60049">
        <ele>102</ele>
        <time>2014-04-16T08:49:51Z</time>
      </trkpt>
      <trkpt lat="47.73526" lon="3.60054">
        <ele>102</ele>
        <time>2014-04-16T08:49:55Z</time>
      </trkpt>
      <trkpt lat="47.73522" lon="3.60058">
        <ele>102</ele>
        <time>2014-04-16T08:49:58Z</time>
      </trkpt>
      <trkpt lat="47.73517" lon="3.60058">
        <ele>102</ele>
        <time>2014-04-16T08:50:01Z</time>
      </trkpt>
      <trkpt lat="47.73511" lon="3.60057">
        <ele>102</ele>
        <time>2014-04-16T08:50:05Z</time>
      </trkpt>
      <trkpt lat="47.73507" lon="3.60059">
        <ele>102</ele>
        <time>2014-04-16T08:50:08Z</time>
      </trkpt>
      <trkpt lat="47.73463" lon="3.60067">
        <ele>101</ele>
        <time>2014-04-16T08:50:38Z</time>
      </trkpt>
      <trkpt lat="47.73459" lon="3.60072">
        <ele>101</ele>
        <time>2014-04-16T08:50:44Z</time>
      </trkpt>
      <trkpt lat="47.73454" lon="3.60071">
        <ele>101</ele>
        <time>2014-04-16T08:50:49Z</time>
      </trkpt>
      <trkpt lat="47.73449" lon="3.60072">
        <ele>101</ele>
        <time>2014-04-16T08:50:53Z</time>
      </trkpt>
      <trkpt lat="47.73437" lon="3.60071">
        <ele>101</ele>
        <time>2014-04-16T08:51:04Z</time>
      </trkpt>
      <trkpt lat="47.73434" lon="3.60075">
        <ele>101</ele>
        <time>2014-04-16T08:51:12Z</time>
      </trkpt>
      <trkpt lat="47.73438" lon="3.60078">
        <ele>101</ele>
        <time>2014-04-16T08:51:24Z</time>
      </trkpt>
      <trkpt lat="47.73435" lon="3.6008">
        <ele>101</ele>
        <time>2014-04-16T08:52:06Z</time>
      </trkpt>
      <trkpt lat="47.7343" lon="3.60077">
        <ele>100</ele>
        <time>2014-04-16T08:52:09Z</time>
      </trkpt>
      <trkpt lat="47.73426" lon="3.60073">
        <ele>100</ele>
        <time>2014-04-16T08:52:11Z</time>
      </trkpt>
      <trkpt lat="47.73416" lon="3.60067">
        <ele>100</ele>
        <time>2014-04-16T08:52:17Z</time>
      </trkpt>
      <trkpt lat="47.73411" lon="3.60067">
        <ele>100</ele>
        <time>2014-04-16T08:52:22Z</time>
      </trkpt>
      <trkpt lat="47.73401" lon="3.60063">
        <ele>100</ele>
        <time>2014-04-16T08:52:28Z</time>
      </trkpt>
      <trkpt lat="47.73397" lon="3.60062">
        <ele>100</ele>
        <time>2014-04-16T08:52:37Z</time>
      </trkpt>
      <trkpt lat="47.73393" lon="3.60066">
        <ele>100</ele>
        <time>2014-04-16T08:52:42Z</time>
      </trkpt>
      <trkpt lat="47.73382" lon="3.60069">
        <ele>100</ele>
        <time>2014-04-16T08:52:51Z</time>
      </trkpt>
      <trkpt lat="47.73378" lon="3.60069">
        <ele>100</ele>
        <time>2014-04-16T08:52:54Z</time>
      </trkpt>
      <trkpt lat="47.73367" lon="3.60073">
        <ele>100</ele>
        <time>2014-04-16T08:53:02Z</time>
      </trkpt>
      <trkpt lat="47.7335" lon="3.60091">
        <ele>100</ele>
        <time>2014-04-16T08:53:17Z</time>
      </trkpt>
      <trkpt lat="47.73345" lon="3.60094">
        <ele>100</ele>
        <time>2014-04-16T08:53:21Z</time>
      </trkpt>
      <trkpt lat="47.7334" lon="3.60093">
        <ele>100</ele>
        <time>2014-04-16T08:53:28Z</time>
      </trkpt>
      <trkpt lat="47.73332" lon="3.60101">
        <ele>100</ele>
        <time>2014-04-16T08:53:35Z</time>
      </trkpt>
      <trkpt lat="47.73326" lon="3.60103">
        <ele>100</ele>
        <time>2014-04-16T08:53:42Z</time>
      </trkpt>
      <trkpt lat="47.73321" lon="3.60107">
        <ele>101</ele>
        <time>2014-04-16T08:53:45Z</time>
      </trkpt>
      <trkpt lat="47.73316" lon="3.6011">
        <ele>101</ele>
        <time>2014-04-16T08:53:49Z</time>
      </trkpt>
      <trkpt lat="47.73312" lon="3.60114">
        <ele>101</ele>
        <time>2014-04-16T08:53:53Z</time>
      </trkpt>
      <trkpt lat="47.73307" lon="3.60116">
        <ele>101</ele>
        <time>2014-04-16T08:53:57Z</time>
      </trkpt>
      <trkpt lat="47.73298" lon="3.60122">
        <ele>101</ele>
        <time>2014-04-16T08:54:07Z</time>
      </trkpt>
      <trkpt lat="47.73293" lon="3.60124">
        <ele>101</ele>
        <time>2014-04-16T08:54:11Z</time>
      </trkpt>
      <trkpt lat="47.73289" lon="3.60127">
        <ele>101</ele>
        <time>2014-04-16T08:54:16Z</time>
      </trkpt>
      <trkpt lat="47.73284" lon="3.6013">
        <ele>101</ele>
        <time>2014-04-16T08:54:20Z</time>
      </trkpt>
      <trkpt lat="47.7328" lon="3.60134">
        <ele>101</ele>
        <time>2014-04-16T08:54:25Z</time>
      </trkpt>
      <trkpt lat="47.73272" lon="3.60144">
        <ele>102</ele>
        <time>2014-04-16T08:54:35Z</time>
      </trkpt>
      <trkpt lat="47.73268" lon="3.60147">
        <ele>102</ele>
        <time>2014-04-16T08:54:38Z</time>
      </trkpt>
      <trkpt lat="47.73263" lon="3.60151">
        <ele>102</ele>
        <time>2014-04-16T08:54:44Z</time>
      </trkpt>
      <trkpt lat="47.73259" lon="3.60148">
        <ele>102</ele>
        <time>2014-04-16T08:54:47Z</time>
      </trkpt>
      <trkpt lat="47.73254" lon="3.60133">
        <ele>102</ele>
        <time>2014-04-16T08:54:56Z</time>
      </trkpt>
      <trkpt lat="47.73251" lon="3.60126">
        <ele>102</ele>
        <time>2014-04-16T08:54:59Z</time>
      </trkpt>
      <trkpt lat="47.7325" lon="3.60119">
        <ele>102</ele>
        <time>2014-04-16T08:55:04Z</time>
      </trkpt>
      <trkpt lat="47.73245" lon="3.60104">
        <ele>102</ele>
        <time>2014-04-16T08:55:14Z</time>
      </trkpt>
      <trkpt lat="47.73244" lon="3.60097">
        <ele>101</ele>
        <time>2014-04-16T08:55:17Z</time>
      </trkpt>
      <trkpt lat="47.73241" lon="3.60091">
        <ele>101</ele>
        <time>2014-04-16T08:55:21Z</time>
      </trkpt>
      <trkpt lat="47.73239" lon="3.60084">
        <ele>101</ele>
        <time>2014-04-16T08:55:24Z</time>
      </trkpt>
      <trkpt lat="47.73239" lon="3.60076">
        <ele>101</ele>
        <time>2014-04-16T08:55:28Z</time>
      </trkpt>
      <trkpt lat="47.73226" lon="3.60035">
        <ele>101</ele>
        <time>2014-04-16T08:55:54Z</time>
      </trkpt>
      <trkpt lat="47.73222" lon="3.6003">
        <ele>101</ele>
        <time>2014-04-16T08:55:59Z</time>
      </trkpt>
      <trkpt lat="47.73217" lon="3.60034">
        <ele>101</ele>
        <time>2014-04-16T08:56:02Z</time>
      </trkpt>
      <trkpt lat="47.73208" lon="3.60041">
        <ele>101</ele>
        <time>2014-04-16T08:56:09Z</time>
      </trkpt>
      <trkpt lat="47.73203" lon="3.60047">
        <ele>101</ele>
        <time>2014-04-16T08:56:14Z</time>
      </trkpt>
      <trkpt lat="47.73197" lon="3.6006">
        <ele>101</ele>
        <time>2014-04-16T08:56:18Z</time>
      </trkpt>
      <trkpt lat="47.73194" lon="3.60064">
        <ele>101</ele>
        <time>2014-04-16T08:56:20Z</time>
      </trkpt>
      <trkpt lat="47.73188" lon="3.60067">
        <ele>101</ele>
        <time>2014-04-16T08:56:27Z</time>
      </trkpt>
      <trkpt lat="47.73183" lon="3.60068">
        <ele>101</ele>
        <time>2014-04-16T08:56:33Z</time>
      </trkpt>
      <trkpt lat="47.73173" lon="3.60075">
        <ele>101</ele>
        <time>2014-04-16T08:56:41Z</time>
      </trkpt>
      <trkpt lat="47.73164" lon="3.60079">
        <ele>101</ele>
        <time>2014-04-16T08:59:36Z</time>
      </trkpt>
      <trkpt lat="47.7316" lon="3.60083">
        <ele>101</ele>
        <time>2014-04-16T08:59:41Z</time>
      </trkpt>
      <trkpt lat="47.73155" lon="3.60086">
        <ele>101</ele>
        <time>2014-04-16T08:59:46Z</time>
      </trkpt>
      <trkpt lat="47.73151" lon="3.60092">
        <ele>101</ele>
        <time>2014-04-16T08:59:52Z</time>
      </trkpt>
      <trkpt lat="47.73142" lon="3.60101">
        <ele>102</ele>
        <time>2014-04-16T08:59:58Z</time>
      </trkpt>
      <trkpt lat="47.73137" lon="3.60102">
        <ele>102</ele>
        <time>2014-04-16T09:00:08Z</time>
      </trkpt>
      <trkpt lat="47.73133" lon="3.60106">
        <ele>102</ele>
        <time>2014-04-16T09:00:14Z</time>
      </trkpt>
      <trkpt lat="47.73129" lon="3.60113">
        <ele>102</ele>
        <time>2014-04-16T09:00:20Z</time>
      </trkpt>
      <trkpt lat="47.73125" lon="3.60117">
        <ele>102</ele>
        <time>2014-04-16T09:00:24Z</time>
      </trkpt>
      <trkpt lat="47.73121" lon="3.6012">
        <ele>102</ele>
        <time>2014-04-16T09:00:28Z</time>
      </trkpt>
      <trkpt lat="47.73118" lon="3.60125">
        <ele>102</ele>
        <time>2014-04-16T09:00:32Z</time>
      </trkpt>
      <trkpt lat="47.73115" lon="3.60132">
        <ele>102</ele>
        <time>2014-04-16T09:00:36Z</time>
      </trkpt>
      <trkpt lat="47.73111" lon="3.60137">
        <ele>102</ele>
        <time>2014-04-16T09:00:40Z</time>
      </trkpt>
      <trkpt lat="47.73108" lon="3.60144">
        <ele>102</ele>
        <time>2014-04-16T09:00:44Z</time>
      </trkpt>
      <trkpt lat="47.73106" lon="3.60151">
        <ele>102</ele>
        <time>2014-04-16T09:00:47Z</time>
      </trkpt>
      <trkpt lat="47.73096" lon="3.60169">
        <ele>103</ele>
        <time>2014-04-16T09:01:04Z</time>
      </trkpt>
      <trkpt lat="47.73094" lon="3.60176">
        <ele>103</ele>
        <time>2014-04-16T09:01:09Z</time>
      </trkpt>
      <trkpt lat="47.73087" lon="3.60207">
        <ele>103</ele>
        <time>2014-04-16T09:01:27Z</time>
      </trkpt>
      <trkpt lat="47.73087" lon="3.60215">
        <ele>103</ele>
        <time>2014-04-16T09:01:31Z</time>
      </trkpt>
      <trkpt lat="47.73085" lon="3.60223">
        <ele>103</ele>
        <time>2014-04-16T09:01:36Z</time>
      </trkpt>
      <trkpt lat="47.73081" lon="3.60229">
        <ele>102</ele>
        <time>2014-04-16T09:01:40Z</time>
      </trkpt>
      <trkpt lat="47.7308" lon="3.60237">
        <ele>102</ele>
        <time>2014-04-16T09:01:44Z</time>
      </trkpt>
      <trkpt lat="47.7308" lon="3.60245">
        <ele>102</ele>
        <time>2014-04-16T09:01:48Z</time>
      </trkpt>
      <trkpt lat="47.73077" lon="3.60253">
        <ele>102</ele>
        <time>2014-04-16T09:01:52Z</time>
      </trkpt>
      <trkpt lat="47.73075" lon="3.60259">
        <ele>102</ele>
        <time>2014-04-16T09:01:57Z</time>
      </trkpt>
      <trkpt lat="47.73073" lon="3.60265">
        <ele>102</ele>
        <time>2014-04-16T09:02:02Z</time>
      </trkpt>
      <trkpt lat="47.73054" lon="3.60293">
        <ele>102</ele>
        <time>2014-04-16T09:02:20Z</time>
      </trkpt>
      <trkpt lat="47.7305" lon="3.60298">
        <ele>102</ele>
        <time>2014-04-16T09:02:24Z</time>
      </trkpt>
      <trkpt lat="47.73033" lon="3.60327">
        <ele>102</ele>
        <time>2014-04-16T09:02:44Z</time>
      </trkpt>
      <trkpt lat="47.73015" lon="3.60352">
        <ele>102</ele>
        <time>2014-04-16T09:03:01Z</time>
      </trkpt>
      <trkpt lat="47.72993" lon="3.60387">
        <ele>103</ele>
        <time>2014-04-16T09:03:26Z</time>
      </trkpt>
      <trkpt lat="47.72991" lon="3.60394">
        <ele>103</ele>
        <time>2014-04-16T09:03:31Z</time>
      </trkpt>
      <trkpt lat="47.72988" lon="3.60401">
        <ele>103</ele>
        <time>2014-04-16T09:03:36Z</time>
      </trkpt>
      <trkpt lat="47.72978" lon="3.60408">
        <ele>103</ele>
        <time>2014-04-16T09:03:44Z</time>
      </trkpt>
      <trkpt lat="47.72974" lon="3.60415">
        <ele>103</ele>
        <time>2014-04-16T09:03:48Z</time>
      </trkpt>
      <trkpt lat="47.72969" lon="3.60428">
        <ele>102</ele>
        <time>2014-04-16T09:03:54Z</time>
      </trkpt>
      <trkpt lat="47.72961" lon="3.60438">
        <ele>102</ele>
        <time>2014-04-16T09:04:04Z</time>
      </trkpt>
      <trkpt lat="47.72956" lon="3.60441">
        <ele>102</ele>
        <time>2014-04-16T09:04:10Z</time>
      </trkpt>
      <trkpt lat="47.72953" lon="3.60446">
        <ele>102</ele>
        <time>2014-04-16T09:04:13Z</time>
      </trkpt>
      <trkpt lat="47.72946" lon="3.60458">
        <ele>102</ele>
        <time>2014-04-16T09:04:20Z</time>
      </trkpt>
      <trkpt lat="47.72941" lon="3.60461">
        <ele>102</ele>
        <time>2014-04-16T09:04:24Z</time>
      </trkpt>
      <trkpt lat="47.72937" lon="3.60467">
        <ele>102</ele>
        <time>2014-04-16T09:04:29Z</time>
      </trkpt>
      <trkpt lat="47.72924" lon="3.6049">
        <ele>101</ele>
        <time>2014-04-16T09:04:44Z</time>
      </trkpt>
      <trkpt lat="47.72921" lon="3.60495">
        <ele>101</ele>
        <time>2014-04-16T09:04:46Z</time>
      </trkpt>
      <trkpt lat="47.72917" lon="3.60501">
        <ele>101</ele>
        <time>2014-04-16T09:04:50Z</time>
      </trkpt>
      <trkpt lat="47.72902" lon="3.60528">
        <ele>101</ele>
        <time>2014-04-16T09:05:08Z</time>
      </trkpt>
      <trkpt lat="47.72897" lon="3.60533">
        <ele>101</ele>
        <time>2014-04-16T09:05:11Z</time>
      </trkpt>
      <trkpt lat="47.72894" lon="3.60538">
        <ele>101</ele>
        <time>2014-04-16T09:05:14Z</time>
      </trkpt>
      <trkpt lat="47.72889" lon="3.6055">
        <ele>101</ele>
        <time>2014-04-16T09:05:20Z</time>
      </trkpt>
      <trkpt lat="47.72885" lon="3.60555">
        <ele>101</ele>
        <time>2014-04-16T09:05:24Z</time>
      </trkpt>
      <trkpt lat="47.72881" lon="3.60558">
        <ele>101</ele>
        <time>2014-04-16T09:05:32Z</time>
      </trkpt>
      <trkpt lat="47.72857" lon="3.60599">
        <ele>100</ele>
        <time>2014-04-16T09:05:54Z</time>
      </trkpt>
      <trkpt lat="47.72847" lon="3.60608">
        <ele>100</ele>
        <time>2014-04-16T09:06:05Z</time>
      </trkpt>
      <trkpt lat="47.72831" lon="3.60639">
        <ele>101</ele>
        <time>2014-04-16T09:06:24Z</time>
      </trkpt>
      <trkpt lat="47.72819" lon="3.60653">
        <ele>101</ele>
        <time>2014-04-16T09:06:36Z</time>
      </trkpt>
      <trkpt lat="47.72814" lon="3.60657">
        <ele>101</ele>
        <time>2014-04-16T09:06:42Z</time>
      </trkpt>
      <trkpt lat="47.7281" lon="3.60662">
        <ele>101</ele>
        <time>2014-04-16T09:06:47Z</time>
      </trkpt>
      <trkpt lat="47.72808" lon="3.60673">
        <ele>100</ele>
        <time>2014-04-16T09:06:59Z</time>
      </trkpt>
      <trkpt lat="47.72804" lon="3.60677">
        <ele>100</ele>
        <time>2014-04-16T09:07:04Z</time>
      </trkpt>
      <trkpt lat="47.728" lon="3.60681">
        <ele>100</ele>
        <time>2014-04-16T09:07:06Z</time>
      </trkpt>
      <trkpt lat="47.72797" lon="3.60685">
        <ele>100</ele>
        <time>2014-04-16T09:07:08Z</time>
      </trkpt>
      <trkpt lat="47.72788" lon="3.60697">
        <ele>100</ele>
        <time>2014-04-16T09:07:13Z</time>
      </trkpt>
      <trkpt lat="47.72786" lon="3.60703">
        <ele>100</ele>
        <time>2014-04-16T09:07:17Z</time>
      </trkpt>
      <trkpt lat="47.7278" lon="3.60716">
        <ele>100</ele>
        <time>2014-04-16T09:07:26Z</time>
      </trkpt>
      <trkpt lat="47.72777" lon="3.60721">
        <ele>100</ele>
        <time>2014-04-16T09:07:32Z</time>
      </trkpt>
      <trkpt lat="47.72772" lon="3.60726">
        <ele>100</ele>
        <time>2014-04-16T09:07:56Z</time>
      </trkpt>
      <trkpt lat="47.72767" lon="3.60728">
        <ele>100</ele>
        <time>2014-04-16T09:08:06Z</time>
      </trkpt>
      <trkpt lat="47.72758" lon="3.60733">
        <ele>100</ele>
        <time>2014-04-16T09:08:17Z</time>
      </trkpt>
      <trkpt lat="47.72739" lon="3.60738">
        <ele>103</ele>
        <time>2014-04-16T09:08:34Z</time>
      </trkpt>
      <trkpt lat="47.72731" lon="3.60749">
        <ele>104</ele>
        <time>2014-04-16T09:08:43Z</time>
      </trkpt>
      <trkpt lat="47.72727" lon="3.60754">
        <ele>103</ele>
        <time>2014-04-16T09:08:47Z</time>
      </trkpt>
      <trkpt lat="47.72711" lon="3.6076">
        <ele>105</ele>
        <time>2014-04-16T09:09:03Z</time>
      </trkpt>
      <trkpt lat="47.72704" lon="3.60767">
        <ele>105</ele>
        <time>2014-04-16T09:09:08Z</time>
      </trkpt>
      <trkpt lat="47.72696" lon="3.60779">
        <ele>106</ele>
        <time>2014-04-16T09:09:13Z</time>
      </trkpt>
      <trkpt lat="47.72686" lon="3.60784">
        <ele>106</ele>
        <time>2014-04-16T09:09:26Z</time>
      </trkpt>
      <trkpt lat="47.72677" lon="3.6079">
        <ele>106</ele>
        <time>2014-04-16T09:09:33Z</time>
      </trkpt>
      <trkpt lat="47.72662" lon="3.60809">
        <ele>108</ele>
        <time>2014-04-16T09:09:44Z</time>
      </trkpt>
      <trkpt lat="47.72654" lon="3.60817">
        <ele>107</ele>
        <time>2014-04-16T09:09:50Z</time>
      </trkpt>
      <trkpt lat="47.72645" lon="3.6082">
        <ele>107</ele>
        <time>2014-04-16T09:10:01Z</time>
      </trkpt>
      <trkpt lat="47.72635" lon="3.60831">
        <ele>107</ele>
        <time>2014-04-16T09:10:16Z</time>
      </trkpt>
      <trkpt lat="47.72628" lon="3.60841">
        <ele>105</ele>
        <time>2014-04-16T09:10:19Z</time>
      </trkpt>
      <trkpt lat="47.72621" lon="3.60849">
        <ele>105</ele>
        <time>2014-04-16T09:10:24Z</time>
      </trkpt>
      <trkpt lat="47.72614" lon="3.6086">
        <ele>105</ele>
        <time>2014-04-16T09:10:32Z</time>
      </trkpt>
      <trkpt lat="47.72605" lon="3.60867">
        <ele>105</ele>
        <time>2014-04-16T09:10:38Z</time>
      </trkpt>
      <trkpt lat="47.72597" lon="3.60875">
        <ele>104</ele>
        <time>2014-04-16T09:10:44Z</time>
      </trkpt>
      <trkpt lat="47.72594" lon="3.60882">
        <ele>104</ele>
        <time>2014-04-16T09:10:48Z</time>
      </trkpt>
      <trkpt lat="47.72592" lon="3.6089">
        <ele>104</ele>
        <time>2014-04-16T09:10:52Z</time>
      </trkpt>
      <trkpt lat="47.72587" lon="3.60892">
        <ele>104</ele>
        <time>2014-04-16T09:10:58Z</time>
      </trkpt>
      <trkpt lat="47.72583" lon="3.60897">
        <ele>104</ele>
        <time>2014-04-16T09:11:02Z</time>
      </trkpt>
      <trkpt lat="47.72581" lon="3.60904">
        <ele>103</ele>
        <time>2014-04-16T09:11:08Z</time>
      </trkpt>
      <trkpt lat="47.72577" lon="3.60909">
        <ele>103</ele>
        <time>2014-04-16T09:11:11Z</time>
      </trkpt>
      <trkpt lat="47.72564" lon="3.60922">
        <ele>103</ele>
        <time>2014-04-16T09:11:21Z</time>
      </trkpt>
      <trkpt lat="47.72559" lon="3.60927">
        <ele>103</ele>
        <time>2014-04-16T09:11:27Z</time>
      </trkpt>
      <trkpt lat="47.72556" lon="3.60933">
        <ele>103</ele>
        <time>2014-04-16T09:11:31Z</time>
      </trkpt>
      <trkpt lat="47.72552" lon="3.60947">
        <ele>103</ele>
        <time>2014-04-16T09:11:39Z</time>
      </trkpt>
      <trkpt lat="47.72546" lon="3.6096">
        <ele>103</ele>
        <time>2014-04-16T09:11:47Z</time>
      </trkpt>
      <trkpt lat="47.72545" lon="3.60967">
        <ele>103</ele>
        <time>2014-04-16T09:11:52Z</time>
      </trkpt>
      <trkpt lat="47.72543" lon="3.60973">
        <ele>103</ele>
        <time>2014-04-16T09:11:56Z</time>
      </trkpt>
      <trkpt lat="47.7254" lon="3.60979">
        <ele>103</ele>
        <time>2014-04-16T09:11:59Z</time>
      </trkpt>
      <trkpt lat="47.72538" lon="3.60986">
        <ele>103</ele>
        <time>2014-04-16T09:12:03Z</time>
      </trkpt>
      <trkpt lat="47.72537" lon="3.61">
        <ele>103</ele>
        <time>2014-04-16T09:12:11Z</time>
      </trkpt>
      <trkpt lat="47.72532" lon="3.61011">
        <ele>102</ele>
        <time>2014-04-16T09:12:19Z</time>
      </trkpt>
      <trkpt lat="47.72527" lon="3.61033">
        <ele>102</ele>
        <time>2014-04-16T09:12:30Z</time>
      </trkpt>
      <trkpt lat="47.72522" lon="3.61047">
        <ele>102</ele>
        <time>2014-04-16T09:12:41Z</time>
      </trkpt>
      <trkpt lat="47.7252" lon="3.61054">
        <ele>102</ele>
        <time>2014-04-16T09:12:44Z</time>
      </trkpt>
      <trkpt lat="47.72516" lon="3.6106">
        <ele>102</ele>
        <time>2014-04-16T09:12:48Z</time>
      </trkpt>
      <trkpt lat="47.72506" lon="3.61086">
        <ele>102</ele>
        <time>2014-04-16T09:13:05Z</time>
      </trkpt>
      <trkpt lat="47.72499" lon="3.61098">
        <ele>103</ele>
        <time>2014-04-16T09:13:13Z</time>
      </trkpt>
      <trkpt lat="47.72495" lon="3.6112">
        <ele>103</ele>
        <time>2014-04-16T09:13:25Z</time>
      </trkpt>
      <trkpt lat="47.72495" lon="3.61134">
        <ele>103</ele>
        <time>2014-04-16T09:13:32Z</time>
      </trkpt>
      <trkpt lat="47.72493" lon="3.6114">
        <ele>103</ele>
        <time>2014-04-16T09:13:37Z</time>
      </trkpt>
      <trkpt lat="47.7249" lon="3.61147">
        <ele>103</ele>
        <time>2014-04-16T09:13:41Z</time>
      </trkpt>
      <trkpt lat="47.72488" lon="3.61154">
        <ele>103</ele>
        <time>2014-04-16T09:13:46Z</time>
      </trkpt>
      <trkpt lat="47.72486" lon="3.6117">
        <ele>102</ele>
        <time>2014-04-16T09:13:52Z</time>
      </trkpt>
      <trkpt lat="47.72485" lon="3.61177">
        <ele>102</ele>
        <time>2014-04-16T09:13:56Z</time>
      </trkpt>
      <trkpt lat="47.72478" lon="3.61188">
        <ele>103</ele>
        <time>2014-04-16T09:14:02Z</time>
      </trkpt>
      <trkpt lat="47.72475" lon="3.61195">
        <ele>103</ele>
        <time>2014-04-16T09:14:07Z</time>
      </trkpt>
      <trkpt lat="47.72474" lon="3.61202">
        <ele>103</ele>
        <time>2014-04-16T09:14:10Z</time>
      </trkpt>
      <trkpt lat="47.7248" lon="3.612">
        <ele>103</ele>
        <time>2014-04-16T09:14:21Z</time>
      </trkpt>
      <trkpt lat="47.72481" lon="3.61208">
        <ele>103</ele>
        <time>2014-04-16T09:15:17Z</time>
      </trkpt>
      <trkpt lat="47.72479" lon="3.61214">
        <ele>103</ele>
        <time>2014-04-16T09:15:24Z</time>
      </trkpt>
      <trkpt lat="47.72478" lon="3.6122">
        <ele>103</ele>
        <time>2014-04-16T09:15:28Z</time>
      </trkpt>
      <trkpt lat="47.72479" lon="3.61228">
        <ele>103</ele>
        <time>2014-04-16T09:15:33Z</time>
      </trkpt>
      <trkpt lat="47.72476" lon="3.61234">
        <ele>103</ele>
        <time>2014-04-16T09:15:37Z</time>
      </trkpt>
      <trkpt lat="47.72472" lon="3.6124">
        <ele>103</ele>
        <time>2014-04-16T09:15:41Z</time>
      </trkpt>
      <trkpt lat="47.72467" lon="3.61252">
        <ele>103</ele>
        <time>2014-04-16T09:15:49Z</time>
      </trkpt>
      <trkpt lat="47.72466" lon="3.6126">
        <ele>103</ele>
        <time>2014-04-16T09:15:53Z</time>
      </trkpt>
      <trkpt lat="47.72467" lon="3.61268">
        <ele>103</ele>
        <time>2014-04-16T09:15:55Z</time>
      </trkpt>
      <trkpt lat="47.72466" lon="3.61275">
        <ele>103</ele>
        <time>2014-04-16T09:15:57Z</time>
      </trkpt>
      <trkpt lat="47.72462" lon="3.6128">
        <ele>103</ele>
        <time>2014-04-16T09:16:00Z</time>
      </trkpt>
      <trkpt lat="47.72458" lon="3.61284">
        <ele>103</ele>
        <time>2014-04-16T09:16:04Z</time>
      </trkpt>
      <trkpt lat="47.72454" lon="3.61306">
        <ele>103</ele>
        <time>2014-04-16T09:16:19Z</time>
      </trkpt>
      <trkpt lat="47.72449" lon="3.61319">
        <ele>103</ele>
        <time>2014-04-16T09:16:29Z</time>
      </trkpt>
      <trkpt lat="47.72446" lon="3.61352">
        <ele>103</ele>
        <time>2014-04-16T09:16:50Z</time>
      </trkpt>
      <trkpt lat="47.72446" lon="3.61368">
        <ele>103</ele>
        <time>2014-04-16T09:16:59Z</time>
      </trkpt>
      <trkpt lat="47.72445" lon="3.61374">
        <ele>103</ele>
        <time>2014-04-16T09:17:01Z</time>
      </trkpt>
      <trkpt lat="47.72442" lon="3.6138">
        <ele>103</ele>
        <time>2014-04-16T09:17:05Z</time>
      </trkpt>
      <trkpt lat="47.72433" lon="3.61428">
        <ele>102</ele>
        <time>2014-04-16T09:17:34Z</time>
      </trkpt>
      <trkpt lat="47.72426" lon="3.61449">
        <ele>102</ele>
        <time>2014-04-16T09:17:45Z</time>
      </trkpt>
      <trkpt lat="47.72425" lon="3.61457">
        <ele>102</ele>
        <time>2014-04-16T09:17:49Z</time>
      </trkpt>
      <trkpt lat="47.72428" lon="3.61471">
        <ele>102</ele>
        <time>2014-04-16T09:17:56Z</time>
      </trkpt>
      <trkpt lat="47.72428" lon="3.61478">
        <ele>102</ele>
        <time>2014-04-16T09:18:00Z</time>
      </trkpt>
      <trkpt lat="47.72425" lon="3.61523">
        <ele>101</ele>
        <time>2014-04-16T09:18:22Z</time>
      </trkpt>
      <trkpt lat="47.72426" lon="3.61539">
        <ele>101</ele>
        <time>2014-04-16T09:18:30Z</time>
      </trkpt>
      <trkpt lat="47.72423" lon="3.61547">
        <ele>101</ele>
        <time>2014-04-16T09:18:34Z</time>
      </trkpt>
      <trkpt lat="47.72419" lon="3.61574">
        <ele>101</ele>
        <time>2014-04-16T09:18:53Z</time>
      </trkpt>
      <trkpt lat="47.7242" lon="3.61582">
        <ele>101</ele>
        <time>2014-04-16T09:18:58Z</time>
      </trkpt>
      <trkpt lat="47.72422" lon="3.61589">
        <ele>101</ele>
        <time>2014-04-16T09:19:02Z</time>
      </trkpt>
      <trkpt lat="47.72423" lon="3.61597">
        <ele>101</ele>
        <time>2014-04-16T09:19:06Z</time>
      </trkpt>
      <trkpt lat="47.72422" lon="3.61605">
        <ele>101</ele>
        <time>2014-04-16T09:19:10Z</time>
      </trkpt>
      <trkpt lat="47.7242" lon="3.61612">
        <ele>101</ele>
        <time>2014-04-16T09:19:13Z</time>
      </trkpt>
      <trkpt lat="47.72413" lon="3.61639">
        <ele>102</ele>
        <time>2014-04-16T09:19:30Z</time>
      </trkpt>
      <trkpt lat="47.72412" lon="3.61647">
        <ele>102</ele>
        <time>2014-04-16T09:19:35Z</time>
      </trkpt>
      <trkpt lat="47.72413" lon="3.61654">
        <ele>102</ele>
        <time>2014-04-16T09:19:38Z</time>
      </trkpt>
      <trkpt lat="47.72408" lon="3.61667">
        <ele>102</ele>
        <time>2014-04-16T09:19:45Z</time>
      </trkpt>
      <trkpt lat="47.72407" lon="3.61675">
        <ele>102</ele>
        <time>2014-04-16T09:19:49Z</time>
      </trkpt>
      <trkpt lat="47.72404" lon="3.61682">
        <ele>102</ele>
        <time>2014-04-16T09:19:53Z</time>
      </trkpt>
      <trkpt lat="47.72404" lon="3.61689">
        <ele>102</ele>
        <time>2014-04-16T09:19:57Z</time>
      </trkpt>
      <trkpt lat="47.72405" lon="3.61697">
        <ele>102</ele>
        <time>2014-04-16T09:20:02Z</time>
      </trkpt>
      <trkpt lat="47.72399" lon="3.61759">
        <ele>104</ele>
        <time>2014-04-16T09:20:37Z</time>
      </trkpt>
      <trkpt lat="47.72397" lon="3.61767">
        <ele>104</ele>
        <time>2014-04-16T09:20:40Z</time>
      </trkpt>
      <trkpt lat="47.72397" lon="3.61774">
        <ele>104</ele>
        <time>2014-04-16T09:20:44Z</time>
      </trkpt>
      <trkpt lat="47.72395" lon="3.61782">
        <ele>104</ele>
        <time>2014-04-16T09:20:48Z</time>
      </trkpt>
      <trkpt lat="47.72395" lon="3.61789">
        <ele>104</ele>
        <time>2014-04-16T09:20:52Z</time>
      </trkpt>
      <trkpt lat="47.72392" lon="3.61818">
        <ele>105</ele>
        <time>2014-04-16T09:21:09Z</time>
      </trkpt>
      <trkpt lat="47.72387" lon="3.61831">
        <ele>105</ele>
        <time>2014-04-16T09:21:18Z</time>
      </trkpt>
      <trkpt lat="47.72383" lon="3.61851">
        <ele>106</ele>
        <time>2014-04-16T09:21:29Z</time>
      </trkpt>
      <trkpt lat="47.7238" lon="3.61888">
        <ele>107</ele>
        <time>2014-04-16T09:21:51Z</time>
      </trkpt>
      <trkpt lat="47.72378" lon="3.61896">
        <ele>107</ele>
        <time>2014-04-16T09:21:54Z</time>
      </trkpt>
      <trkpt lat="47.72373" lon="3.61908">
        <ele>107</ele>
        <time>2014-04-16T09:22:02Z</time>
      </trkpt>
      <trkpt lat="47.72373" lon="3.61916">
        <ele>107</ele>
        <time>2014-04-16T09:22:08Z</time>
      </trkpt>
      <trkpt lat="47.72369" lon="3.61936">
        <ele>109</ele>
        <time>2014-04-16T09:22:19Z</time>
      </trkpt>
      <trkpt lat="47.72369" lon="3.61947">
        <ele>109</ele>
        <time>2014-04-16T09:22:28Z</time>
      </trkpt>
      <trkpt lat="47.7237" lon="3.61955">
        <ele>109</ele>
        <time>2014-04-16T09:22:33Z</time>
      </trkpt>
      <trkpt lat="47.72371" lon="3.61962">
        <ele>109</ele>
        <time>2014-04-16T09:22:37Z</time>
      </trkpt>
      <trkpt lat="47.72369" lon="3.61977">
        <ele>109</ele>
        <time>2014-04-16T09:22:44Z</time>
      </trkpt>
      <trkpt lat="47.72361" lon="3.62004">
        <ele>110</ele>
        <time>2014-04-16T09:23:02Z</time>
      </trkpt>
      <trkpt lat="47.72363" lon="3.62005">
        <ele>110</ele>
        <time>2014-04-16T09:23:09Z</time>
      </trkpt>
      <trkpt lat="47.72368" lon="3.62004">
        <ele>110</ele>
        <time>2014-04-16T09:23:10Z</time>
      </trkpt>
      <trkpt lat="47.72362" lon="3.62025">
        <ele>110</ele>
        <time>2014-04-16T09:23:33Z</time>
      </trkpt>
      <trkpt lat="47.72359" lon="3.62043">
        <ele>110</ele>
        <time>2014-04-16T09:23:40Z</time>
      </trkpt>
      <trkpt lat="47.72362" lon="3.6205">
        <ele>110</ele>
        <time>2014-04-16T09:23:46Z</time>
      </trkpt>
      <trkpt lat="47.72364" lon="3.62056">
        <ele>109</ele>
        <time>2014-04-16T09:23:50Z</time>
      </trkpt>
      <trkpt lat="47.72366" lon="3.62063">
        <ele>109</ele>
        <time>2014-04-16T09:23:54Z</time>
      </trkpt>
      <trkpt lat="47.72365" lon="3.62078">
        <ele>109</ele>
        <time>2014-04-16T09:24:03Z</time>
      </trkpt>
      <trkpt lat="47.72369" lon="3.62076">
        <ele>109</ele>
        <time>2014-04-16T09:24:10Z</time>
      </trkpt>
      <trkpt lat="47.72358" lon="3.62112">
        <ele>107</ele>
        <time>2014-04-16T09:24:41Z</time>
      </trkpt>
      <trkpt lat="47.72357" lon="3.62126">
        <ele>107</ele>
        <time>2014-04-16T09:24:50Z</time>
      </trkpt>
      <trkpt lat="47.72357" lon="3.62134">
        <ele>106</ele>
        <time>2014-04-16T09:24:54Z</time>
      </trkpt>
      <trkpt lat="47.72355" lon="3.62148">
        <ele>106</ele>
        <time>2014-04-16T09:25:02Z</time>
      </trkpt>
      <trkpt lat="47.72348" lon="3.62152">
        <ele>106</ele>
        <time>2014-04-16T09:25:05Z</time>
      </trkpt>
      <trkpt lat="47.72342" lon="3.62152">
        <ele>106</ele>
        <time>2014-04-16T09:25:08Z</time>
      </trkpt>
      <trkpt lat="47.72331" lon="3.6215">
        <ele>107</ele>
        <time>2014-04-16T09:25:12Z</time>
      </trkpt>
      <trkpt lat="47.72327" lon="3.62151">
        <ele>107</ele>
        <time>2014-04-16T09:25:18Z</time>
      </trkpt>
      <trkpt lat="47.72325" lon="3.62166">
        <ele>106</ele>
        <time>2014-04-16T09:25:23Z</time>
      </trkpt>
      <trkpt lat="47.72326" lon="3.62181">
        <ele>105</ele>
        <time>2014-04-16T09:25:30Z</time>
      </trkpt>
      <trkpt lat="47.72324" lon="3.62189">
        <ele>104</ele>
        <time>2014-04-16T09:25:35Z</time>
      </trkpt>
      <trkpt lat="47.72323" lon="3.62207">
        <ele>104</ele>
        <time>2014-04-16T09:25:44Z</time>
      </trkpt>
      <trkpt lat="47.72315" lon="3.62231">
        <ele>103</ele>
        <time>2014-04-16T09:26:00Z</time>
      </trkpt>
      <trkpt lat="47.72312" lon="3.62247">
        <ele>103</ele>
        <time>2014-04-16T09:26:07Z</time>
      </trkpt>
      <trkpt lat="47.72314" lon="3.62262">
        <ele>102</ele>
        <time>2014-04-16T09:26:16Z</time>
      </trkpt>
      <trkpt lat="47.7231" lon="3.62277">
        <ele>102</ele>
        <time>2014-04-16T09:26:24Z</time>
      </trkpt>
      <trkpt lat="47.72309" lon="3.62284">
        <ele>102</ele>
        <time>2014-04-16T09:26:29Z</time>
      </trkpt>
      <trkpt lat="47.72309" lon="3.62291">
        <ele>102</ele>
        <time>2014-04-16T09:26:34Z</time>
      </trkpt>
      <trkpt lat="47.72306" lon="3.62298">
        <ele>102</ele>
        <time>2014-04-16T09:26:38Z</time>
      </trkpt>
      <trkpt lat="47.72306" lon="3.62304">
        <ele>102</ele>
        <time>2014-04-16T09:26:42Z</time>
      </trkpt>
      <trkpt lat="47.72304" lon="3.62312">
        <ele>102</ele>
        <time>2014-04-16T09:26:46Z</time>
      </trkpt>
      <trkpt lat="47.72303" lon="3.62319">
        <ele>102</ele>
        <time>2014-04-16T09:26:51Z</time>
      </trkpt>
      <trkpt lat="47.72298" lon="3.62333">
        <ele>102</ele>
        <time>2014-04-16T09:27:16Z</time>
      </trkpt>
      <trkpt lat="47.72296" lon="3.62337">
        <ele>103</ele>
        <time>2014-04-16T09:27:18Z</time>
      </trkpt>
      <trkpt lat="47.72293" lon="3.62344">
        <ele>103</ele>
        <time>2014-04-16T09:27:20Z</time>
      </trkpt>
      <trkpt lat="47.72291" lon="3.62356">
        <ele>103</ele>
        <time>2014-04-16T09:27:24Z</time>
      </trkpt>
      <trkpt lat="47.7229" lon="3.6236">
        <ele>103</ele>
        <time>2014-04-16T09:27:28Z</time>
      </trkpt>
      <trkpt lat="47.72288" lon="3.62364">
        <ele>103</ele>
        <time>2014-04-16T09:27:38Z</time>
      </trkpt>
      <trkpt lat="47.72284" lon="3.62368">
        <ele>103</ele>
        <time>2014-04-16T09:28:17Z</time>
      </trkpt>
      <trkpt lat="47.7228" lon="3.62376">
        <ele>103</ele>
        <time>2014-04-16T09:28:23Z</time>
      </trkpt>
      <trkpt lat="47.72278" lon="3.62385">
        <ele>103</ele>
        <time>2014-04-16T09:28:45Z</time>
      </trkpt>
      <trkpt lat="47.72278" lon="3.62392">
        <ele>102</ele>
        <time>2014-04-16T09:28:54Z</time>
      </trkpt>
      <trkpt lat="47.72275" lon="3.62399">
        <ele>102</ele>
        <time>2014-04-16T09:29:00Z</time>
      </trkpt>
      <trkpt lat="47.72273" lon="3.62406">
        <ele>102</ele>
        <time>2014-04-16T09:29:05Z</time>
      </trkpt>
      <trkpt lat="47.72271" lon="3.62411">
        <ele>102</ele>
        <time>2014-04-16T09:29:14Z</time>
      </trkpt>
      <trkpt lat="47.72266" lon="3.62429">
        <ele>102</ele>
        <time>2014-04-16T09:31:19Z</time>
      </trkpt>
      <trkpt lat="47.72265" lon="3.62435">
        <ele>102</ele>
        <time>2014-04-16T09:31:44Z</time>
      </trkpt>
      <trkpt lat="47.72261" lon="3.62449">
        <ele>103</ele>
        <time>2014-04-16T09:31:51Z</time>
      </trkpt>
      <trkpt lat="47.72255" lon="3.62463">
        <ele>103</ele>
        <time>2014-04-16T09:31:58Z</time>
      </trkpt>
      <trkpt lat="47.72246" lon="3.62483">
        <ele>101</ele>
        <time>2014-04-16T09:32:08Z</time>
      </trkpt>
      <trkpt lat="47.72246" lon="3.62488">
        <ele>102</ele>
        <time>2014-04-16T09:32:24Z</time>
      </trkpt>
      <trkpt lat="47.72239" lon="3.62502">
        <ele>102</ele>
        <time>2014-04-16T09:32:52Z</time>
      </trkpt>
      <trkpt lat="47.72232" lon="3.6251">
        <ele>102</ele>
        <time>2014-04-16T09:33:07Z</time>
      </trkpt>
      <trkpt lat="47.72128" lon="3.62716">
        <ele>105</ele>
        <time>2014-04-16T09:35:29Z</time>
      </trkpt>
      <trkpt lat="47.72131" lon="3.62736">
        <ele>105</ele>
        <time>2014-04-16T09:36:09Z</time>
      </trkpt>
      <trkpt lat="47.7213" lon="3.62751">
        <ele>106</ele>
        <time>2014-04-16T09:36:14Z</time>
      </trkpt>
      <trkpt lat="47.72127" lon="3.62765">
        <ele>106</ele>
        <time>2014-04-16T09:36:21Z</time>
      </trkpt>
      <trkpt lat="47.72123" lon="3.62825">
        <ele>106</ele>
        <time>2014-04-16T09:36:52Z</time>
      </trkpt>
      <trkpt lat="47.72129" lon="3.62881">
        <ele>109</ele>
        <time>2014-04-16T09:37:22Z</time>
      </trkpt>
      <trkpt lat="47.71919" lon="3.63087">
        <ele>110</ele>
        <time>2014-04-16T09:40:05Z</time>
      </trkpt>
      <trkpt lat="47.71895" lon="3.63106">
        <ele>108</ele>
        <time>2014-04-16T09:40:21Z</time>
      </trkpt>
      <trkpt lat="47.71889" lon="3.63119">
        <ele>108</ele>
        <time>2014-04-16T09:40:30Z</time>
      </trkpt>
      <trkpt lat="47.71885" lon="3.63134">
        <ele>108</ele>
        <time>2014-04-16T09:40:40Z</time>
      </trkpt>
      <trkpt lat="47.71875" lon="3.63139">
        <ele>107</ele>
        <time>2014-04-16T09:40:48Z</time>
      </trkpt>
      <trkpt lat="47.71867" lon="3.63145">
        <ele>107</ele>
        <time>2014-04-16T09:40:56Z</time>
      </trkpt>
      <trkpt lat="47.71858" lon="3.63152">
        <ele>107</ele>
        <time>2014-04-16T09:41:11Z</time>
      </trkpt>
      <trkpt lat="47.71853" lon="3.63163">
        <ele>107</ele>
        <time>2014-04-16T09:41:20Z</time>
      </trkpt>
      <trkpt lat="47.71849" lon="3.63165">
        <ele>107</ele>
        <time>2014-04-16T09:41:31Z</time>
      </trkpt>
      <trkpt lat="47.71842" lon="3.63175">
        <ele>106</ele>
        <time>2014-04-16T09:41:36Z</time>
      </trkpt>
      <trkpt lat="47.71837" lon="3.63184">
        <ele>106</ele>
        <time>2014-04-16T09:41:40Z</time>
      </trkpt>
      <trkpt lat="47.71832" lon="3.63187">
        <ele>106</ele>
        <time>2014-04-16T09:41:45Z</time>
      </trkpt>
      <trkpt lat="47.71827" lon="3.63188">
        <ele>106</ele>
        <time>2014-04-16T09:41:50Z</time>
      </trkpt>
      <trkpt lat="47.71818" lon="3.63193">
        <ele>106</ele>
        <time>2014-04-16T09:42:00Z</time>
      </trkpt>
      <trkpt lat="47.71811" lon="3.63202">
        <ele>106</ele>
        <time>2014-04-16T09:42:05Z</time>
      </trkpt>
      <trkpt lat="47.71807" lon="3.63206">
        <ele>106</ele>
        <time>2014-04-16T09:42:08Z</time>
      </trkpt>
      <trkpt lat="47.71803" lon="3.63209">
        <ele>106</ele>
        <time>2014-04-16T09:42:13Z</time>
      </trkpt>
      <trkpt lat="47.71798" lon="3.63209">
        <ele>106</ele>
        <time>2014-04-16T09:42:17Z</time>
      </trkpt>
      <trkpt lat="47.71789" lon="3.63209">
        <ele>105</ele>
        <time>2014-04-16T09:42:23Z</time>
      </trkpt>
      <trkpt lat="47.71781" lon="3.63212">
        <ele>105</ele>
        <time>2014-04-16T09:42:28Z</time>
      </trkpt>
      <trkpt lat="47.71776" lon="3.63225">
        <ele>106</ele>
        <time>2014-04-16T09:42:36Z</time>
      </trkpt>
      <trkpt lat="47.71772" lon="3.63229">
        <ele>106</ele>
        <time>2014-04-16T09:42:38Z</time>
      </trkpt>
      <trkpt lat="47.71768" lon="3.63233">
        <ele>106</ele>
        <time>2014-04-16T09:42:42Z</time>
      </trkpt>
      <trkpt lat="47.71761" lon="3.63242">
        <ele>106</ele>
        <time>2014-04-16T09:42:48Z</time>
      </trkpt>
      <trkpt lat="47.71756" lon="3.63246">
        <ele>106</ele>
        <time>2014-04-16T09:42:53Z</time>
      </trkpt>
      <trkpt lat="47.7175" lon="3.63248">
        <ele>106</ele>
        <time>2014-04-16T09:42:57Z</time>
      </trkpt>
      <trkpt lat="47.71745" lon="3.63251">
        <ele>106</ele>
        <time>2014-04-16T09:43:01Z</time>
      </trkpt>
      <trkpt lat="47.71734" lon="3.63267">
        <ele>106</ele>
        <time>2014-04-16T09:43:12Z</time>
      </trkpt>
      <trkpt lat="47.71729" lon="3.63267">
        <ele>106</ele>
        <time>2014-04-16T09:43:16Z</time>
      </trkpt>
      <trkpt lat="47.71721" lon="3.63274">
        <ele>106</ele>
        <time>2014-04-16T09:43:23Z</time>
      </trkpt>
      <trkpt lat="47.71711" lon="3.63281">
        <ele>106</ele>
        <time>2014-04-16T09:43:33Z</time>
      </trkpt>
      <trkpt lat="47.71678" lon="3.63322">
        <ele>105</ele>
        <time>2014-04-16T09:43:55Z</time>
      </trkpt>
      <trkpt lat="47.71671" lon="3.63329">
        <ele>105</ele>
        <time>2014-04-16T09:44:01Z</time>
      </trkpt>
      <trkpt lat="47.71667" lon="3.63332">
        <ele>105</ele>
        <time>2014-04-16T09:44:05Z</time>
      </trkpt>
      <trkpt lat="47.71663" lon="3.63336">
        <ele>105</ele>
        <time>2014-04-16T09:44:10Z</time>
      </trkpt>
      <trkpt lat="47.71658" lon="3.63341">
        <ele>105</ele>
        <time>2014-04-16T09:44:12Z</time>
      </trkpt>
      <trkpt lat="47.71652" lon="3.63341">
        <ele>106</ele>
        <time>2014-04-16T09:44:22Z</time>
      </trkpt>
      <trkpt lat="47.71647" lon="3.63344">
        <ele>106</ele>
        <time>2014-04-16T09:44:27Z</time>
      </trkpt>
      <trkpt lat="47.71647" lon="3.6335">
        <ele>106</ele>
        <time>2014-04-16T09:44:34Z</time>
      </trkpt>
      <trkpt lat="47.71636" lon="3.63349">
        <ele>106</ele>
        <time>2014-04-16T09:44:47Z</time>
      </trkpt>
      <trkpt lat="47.71627" lon="3.63357">
        <ele>106</ele>
        <time>2014-04-16T09:44:52Z</time>
      </trkpt>
      <trkpt lat="47.71585" lon="3.63409">
        <ele>106</ele>
        <time>2014-04-16T09:45:22Z</time>
      </trkpt>
      <trkpt lat="47.71576" lon="3.6341">
        <ele>106</ele>
        <time>2014-04-16T09:45:34Z</time>
      </trkpt>
      <trkpt lat="47.7157" lon="3.63417">
        <ele>106</ele>
        <time>2014-04-16T09:45:40Z</time>
      </trkpt>
      <trkpt lat="47.71565" lon="3.6342">
        <ele>106</ele>
        <time>2014-04-16T09:45:45Z</time>
      </trkpt>
      <trkpt lat="47.71552" lon="3.63436">
        <ele>105</ele>
        <time>2014-04-16T09:45:56Z</time>
      </trkpt>
      <trkpt lat="47.71531" lon="3.63449">
        <ele>105</ele>
        <time>2014-04-16T09:46:16Z</time>
      </trkpt>
      <trkpt lat="47.71515" lon="3.63478">
        <ele>105</ele>
        <time>2014-04-16T09:46:30Z</time>
      </trkpt>
      <trkpt lat="47.7151" lon="3.63483">
        <ele>105</ele>
        <time>2014-04-16T09:46:33Z</time>
      </trkpt>
      <trkpt lat="47.71505" lon="3.63488">
        <ele>105</ele>
        <time>2014-04-16T09:46:36Z</time>
      </trkpt>
      <trkpt lat="47.71501" lon="3.63492">
        <ele>104</ele>
        <time>2014-04-16T09:46:39Z</time>
      </trkpt>
      <trkpt lat="47.71497" lon="3.63498">
        <ele>104</ele>
        <time>2014-04-16T09:46:43Z</time>
      </trkpt>
      <trkpt lat="47.71488" lon="3.63501">
        <ele>104</ele>
        <time>2014-04-16T09:46:56Z</time>
      </trkpt>
      <trkpt lat="47.7148" lon="3.63508">
        <ele>105</ele>
        <time>2014-04-16T09:47:02Z</time>
      </trkpt>
      <trkpt lat="47.71469" lon="3.63511">
        <ele>105</ele>
        <time>2014-04-16T09:47:07Z</time>
      </trkpt>
      <trkpt lat="47.7146" lon="3.63517">
        <ele>105</ele>
        <time>2014-04-16T09:47:13Z</time>
      </trkpt>
      <trkpt lat="47.71453" lon="3.63527">
        <ele>105</ele>
        <time>2014-04-16T09:47:17Z</time>
      </trkpt>
      <trkpt lat="47.71446" lon="3.63535">
        <ele>105</ele>
        <time>2014-04-16T09:47:24Z</time>
      </trkpt>
      <trkpt lat="47.71425" lon="3.63538">
        <ele>104</ele>
        <time>2014-04-16T09:47:37Z</time>
      </trkpt>
      <trkpt lat="47.7141" lon="3.63544">
        <ele>103</ele>
        <time>2014-04-16T09:47:54Z</time>
      </trkpt>
      <trkpt lat="47.71404" lon="3.63556">
        <ele>103</ele>
        <time>2014-04-16T09:48:02Z</time>
      </trkpt>
      <trkpt lat="47.71395" lon="3.63565">
        <ele>102</ele>
        <time>2014-04-16T09:48:07Z</time>
      </trkpt>
      <trkpt lat="47.71362" lon="3.63589">
        <ele>104</ele>
        <time>2014-04-16T09:48:44Z</time>
      </trkpt>
      <trkpt lat="47.71351" lon="3.636">
        <ele>103</ele>
        <time>2014-04-16T09:49:00Z</time>
      </trkpt>
      <trkpt lat="47.71331" lon="3.63606">
        <ele>103</ele>
        <time>2014-04-16T09:49:20Z</time>
      </trkpt>
      <trkpt lat="47.71322" lon="3.63601">
        <ele>103</ele>
        <time>2014-04-16T09:49:30Z</time>
      </trkpt>
      <trkpt lat="47.71312" lon="3.63605">
        <ele>103</ele>
        <time>2014-04-16T09:49:37Z</time>
      </trkpt>
      <trkpt lat="47.71296" lon="3.63622">
        <ele>104</ele>
        <time>2014-04-16T09:49:50Z</time>
      </trkpt>
      <trkpt lat="47.71287" lon="3.63626">
        <ele>104</ele>
        <time>2014-04-16T09:49:56Z</time>
      </trkpt>
      <trkpt lat="47.71267" lon="3.63649">
        <ele>104</ele>
        <time>2014-04-16T09:50:08Z</time>
      </trkpt>
      <trkpt lat="47.71258" lon="3.63653">
        <ele>104</ele>
        <time>2014-04-16T09:50:16Z</time>
      </trkpt>
      <trkpt lat="47.7123" lon="3.63657">
        <ele>105</ele>
        <time>2014-04-16T09:50:34Z</time>
      </trkpt>
      <trkpt lat="47.71203" lon="3.63658">
        <ele>105</ele>
        <time>2014-04-16T09:50:58Z</time>
      </trkpt>
      <trkpt lat="47.71196" lon="3.63648">
        <ele>104</ele>
        <time>2014-04-16T09:51:06Z</time>
      </trkpt>
      <trkpt lat="47.7119" lon="3.63659">
        <ele>105</ele>
        <time>2014-04-16T09:51:14Z</time>
      </trkpt>
      <trkpt lat="47.71181" lon="3.63654">
        <ele>105</ele>
        <time>2014-04-16T09:51:26Z</time>
      </trkpt>
      <trkpt lat="47.71145" lon="3.63645">
        <ele>104</ele>
        <time>2014-04-16T09:51:56Z</time>
      </trkpt>
      <trkpt lat="47.7114" lon="3.63643">
        <ele>104</ele>
        <time>2014-04-16T09:52:00Z</time>
      </trkpt>
      <trkpt lat="47.71135" lon="3.63642">
        <ele>104</ele>
        <time>2014-04-16T09:52:04Z</time>
      </trkpt>
      <trkpt lat="47.71129" lon="3.63643">
        <ele>104</ele>
        <time>2014-04-16T09:52:06Z</time>
      </trkpt>
      <trkpt lat="47.71119" lon="3.63645">
        <ele>104</ele>
        <time>2014-04-16T09:52:12Z</time>
      </trkpt>
      <trkpt lat="47.71115" lon="3.63639">
        <ele>104</ele>
        <time>2014-04-16T09:52:20Z</time>
      </trkpt>
      <trkpt lat="47.7111" lon="3.63637">
        <ele>104</ele>
        <time>2014-04-16T09:52:24Z</time>
      </trkpt>
      <trkpt lat="47.71099" lon="3.63637">
        <ele>104</ele>
        <time>2014-04-16T09:52:32Z</time>
      </trkpt>
      <trkpt lat="47.71094" lon="3.63637">
        <ele>104</ele>
        <time>2014-04-16T09:52:36Z</time>
      </trkpt>
      <trkpt lat="47.71089" lon="3.63638">
        <ele>104</ele>
        <time>2014-04-16T09:52:40Z</time>
      </trkpt>
      <trkpt lat="47.71084" lon="3.63636">
        <ele>104</ele>
        <time>2014-04-16T09:52:44Z</time>
      </trkpt>
      <trkpt lat="47.71079" lon="3.63638">
        <ele>104</ele>
        <time>2014-04-16T09:52:48Z</time>
      </trkpt>
      <trkpt lat="47.71074" lon="3.63641">
        <ele>104</ele>
        <time>2014-04-16T09:52:52Z</time>
      </trkpt>
      <trkpt lat="47.7107" lon="3.63643">
        <ele>104</ele>
        <time>2014-04-16T09:52:56Z</time>
      </trkpt>
      <trkpt lat="47.71065" lon="3.63643">
        <ele>104</ele>
        <time>2014-04-16T09:52:58Z</time>
      </trkpt>
      <trkpt lat="47.7106" lon="3.63641">
        <ele>104</ele>
        <time>2014-04-16T09:53:01Z</time>
      </trkpt>
      <trkpt lat="47.71054" lon="3.63641">
        <ele>104</ele>
        <time>2014-04-16T09:53:05Z</time>
      </trkpt>
      <trkpt lat="47.7105" lon="3.63637">
        <ele>104</ele>
        <time>2014-04-16T09:53:09Z</time>
      </trkpt>
      <trkpt lat="47.71045" lon="3.63635">
        <ele>104</ele>
        <time>2014-04-16T09:53:12Z</time>
      </trkpt>
      <trkpt lat="47.7104" lon="3.63636">
        <ele>104</ele>
        <time>2014-04-16T09:53:15Z</time>
      </trkpt>
      <trkpt lat="47.71036" lon="3.63638">
        <ele>104</ele>
        <time>2014-04-16T09:53:18Z</time>
      </trkpt>
      <trkpt lat="47.71031" lon="3.63639">
        <ele>104</ele>
        <time>2014-04-16T09:53:24Z</time>
      </trkpt>
      <trkpt lat="47.71029" lon="3.63633">
        <ele>105</ele>
        <time>2014-04-16T09:53:28Z</time>
      </trkpt>
      <trkpt lat="47.71024" lon="3.63632">
        <ele>105</ele>
        <time>2014-04-16T09:53:31Z</time>
      </trkpt>
      <trkpt lat="47.71019" lon="3.63636">
        <ele>105</ele>
        <time>2014-04-16T09:53:36Z</time>
      </trkpt>
      <trkpt lat="47.71014" lon="3.63637">
        <ele>105</ele>
        <time>2014-04-16T09:53:40Z</time>
      </trkpt>
      <trkpt lat="47.71005" lon="3.63633">
        <ele>105</ele>
        <time>2014-04-16T09:53:48Z</time>
      </trkpt>
      <trkpt lat="47.70999" lon="3.63633">
        <ele>105</ele>
        <time>2014-04-16T09:53:53Z</time>
      </trkpt>
      <trkpt lat="47.70994" lon="3.63633">
        <ele>105</ele>
        <time>2014-04-16T09:53:58Z</time>
      </trkpt>
      <trkpt lat="47.70979" lon="3.63637">
        <ele>104</ele>
        <time>2014-04-16T09:54:10Z</time>
      </trkpt>
      <trkpt lat="47.70974" lon="3.63636">
        <ele>104</ele>
        <time>2014-04-16T09:54:15Z</time>
      </trkpt>
      <trkpt lat="47.70965" lon="3.63632">
        <ele>104</ele>
        <time>2014-04-16T09:54:24Z</time>
      </trkpt>
      <trkpt lat="47.70959" lon="3.63632">
        <ele>104</ele>
        <time>2014-04-16T09:54:29Z</time>
      </trkpt>
      <trkpt lat="47.70955" lon="3.63631">
        <ele>104</ele>
        <time>2014-04-16T09:54:34Z</time>
      </trkpt>
      <trkpt lat="47.70949" lon="3.63632">
        <ele>104</ele>
        <time>2014-04-16T09:54:37Z</time>
      </trkpt>
      <trkpt lat="47.70944" lon="3.63631">
        <ele>104</ele>
        <time>2014-04-16T09:54:42Z</time>
      </trkpt>
      <trkpt lat="47.70939" lon="3.6363">
        <ele>104</ele>
        <time>2014-04-16T09:54:46Z</time>
      </trkpt>
      <trkpt lat="47.70935" lon="3.63628">
        <ele>104</ele>
        <time>2014-04-16T09:55:01Z</time>
      </trkpt>
      <trkpt lat="47.7093" lon="3.63629">
        <ele>104</ele>
        <time>2014-04-16T09:55:05Z</time>
      </trkpt>
      <trkpt lat="47.70925" lon="3.63628">
        <ele>104</ele>
        <time>2014-04-16T09:55:09Z</time>
      </trkpt>
      <trkpt lat="47.70921" lon="3.63626">
        <ele>104</ele>
        <time>2014-04-16T09:55:14Z</time>
      </trkpt>
      <trkpt lat="47.70915" lon="3.63627">
        <ele>103</ele>
        <time>2014-04-16T09:55:17Z</time>
      </trkpt>
      <trkpt lat="47.7091" lon="3.63629">
        <ele>103</ele>
        <time>2014-04-16T09:55:22Z</time>
      </trkpt>
      <trkpt lat="47.70905" lon="3.63627">
        <ele>103</ele>
        <time>2014-04-16T09:55:25Z</time>
      </trkpt>
      <trkpt lat="47.70896" lon="3.63621">
        <ele>103</ele>
        <time>2014-04-16T09:55:33Z</time>
      </trkpt>
      <trkpt lat="47.70887" lon="3.6362">
        <ele>103</ele>
        <time>2014-04-16T09:55:39Z</time>
      </trkpt>
      <trkpt lat="47.70878" lon="3.63616">
        <ele>104</ele>
        <time>2014-04-16T09:55:48Z</time>
      </trkpt>
      <trkpt lat="47.70869" lon="3.63619">
        <ele>104</ele>
        <time>2014-04-16T09:55:53Z</time>
      </trkpt>
      <trkpt lat="47.70865" lon="3.63616">
        <ele>104</ele>
        <time>2014-04-16T09:55:58Z</time>
      </trkpt>
      <trkpt lat="47.70853" lon="3.63622">
        <ele>104</ele>
        <time>2014-04-16T09:56:07Z</time>
      </trkpt>
      <trkpt lat="47.70847" lon="3.63623">
        <ele>104</ele>
        <time>2014-04-16T09:56:11Z</time>
      </trkpt>
      <trkpt lat="47.70841" lon="3.63626">
        <ele>104</ele>
        <time>2014-04-16T09:56:16Z</time>
      </trkpt>
      <trkpt lat="47.70831" lon="3.63628">
        <ele>104</ele>
        <time>2014-04-16T09:56:23Z</time>
      </trkpt>
      <trkpt lat="47.70825" lon="3.63627">
        <ele>104</ele>
        <time>2014-04-16T09:56:27Z</time>
      </trkpt>
      <trkpt lat="47.70821" lon="3.63626">
        <ele>104</ele>
        <time>2014-04-16T09:56:32Z</time>
      </trkpt>
      <trkpt lat="47.70816" lon="3.63625">
        <ele>104</ele>
        <time>2014-04-16T09:56:36Z</time>
      </trkpt>
      <trkpt lat="47.7081" lon="3.63626">
        <ele>104</ele>
        <time>2014-04-16T09:56:40Z</time>
      </trkpt>
      <trkpt lat="47.70806" lon="3.63627">
        <ele>104</ele>
        <time>2014-04-16T09:56:44Z</time>
      </trkpt>
      <trkpt lat="47.708" lon="3.63627">
        <ele>104</ele>
        <time>2014-04-16T09:56:48Z</time>
      </trkpt>
      <trkpt lat="47.70796" lon="3.63623">
        <ele>104</ele>
        <time>2014-04-16T09:56:53Z</time>
      </trkpt>
      <trkpt lat="47.70785" lon="3.6362">
        <ele>105</ele>
        <time>2014-04-16T09:57:05Z</time>
      </trkpt>
      <trkpt lat="47.7078" lon="3.6362">
        <ele>105</ele>
        <time>2014-04-16T09:57:07Z</time>
      </trkpt>
      <trkpt lat="47.70775" lon="3.63621">
        <ele>105</ele>
        <time>2014-04-16T09:57:10Z</time>
      </trkpt>
      <trkpt lat="47.7077" lon="3.63619">
        <ele>105</ele>
        <time>2014-04-16T09:57:15Z</time>
      </trkpt>
      <trkpt lat="47.70765" lon="3.63618">
        <ele>105</ele>
        <time>2014-04-16T09:57:21Z</time>
      </trkpt>
      <trkpt lat="47.7076" lon="3.63619">
        <ele>105</ele>
        <time>2014-04-16T09:57:24Z</time>
      </trkpt>
      <trkpt lat="47.70749" lon="3.63619">
        <ele>105</ele>
        <time>2014-04-16T09:57:31Z</time>
      </trkpt>
      <trkpt lat="47.70744" lon="3.63621">
        <ele>105</ele>
        <time>2014-04-16T09:57:34Z</time>
      </trkpt>
      <trkpt lat="47.7074" lon="3.63624">
        <ele>105</ele>
        <time>2014-04-16T09:57:37Z</time>
      </trkpt>
      <trkpt lat="47.7073" lon="3.63625">
        <ele>105</ele>
        <time>2014-04-16T09:57:45Z</time>
      </trkpt>
      <trkpt lat="47.7072" lon="3.63627">
        <ele>105</ele>
        <time>2014-04-16T09:57:52Z</time>
      </trkpt>
      <trkpt lat="47.70711" lon="3.63624">
        <ele>105</ele>
        <time>2014-04-16T09:58:00Z</time>
      </trkpt>
      <trkpt lat="47.707" lon="3.63625">
        <ele>105</ele>
        <time>2014-04-16T09:58:08Z</time>
      </trkpt>
      <trkpt lat="47.70696" lon="3.63624">
        <ele>105</ele>
        <time>2014-04-16T09:58:12Z</time>
      </trkpt>
      <trkpt lat="47.70691" lon="3.63622">
        <ele>105</ele>
        <time>2014-04-16T09:58:16Z</time>
      </trkpt>
      <trkpt lat="47.7068" lon="3.63621">
        <ele>105</ele>
        <time>2014-04-16T09:58:24Z</time>
      </trkpt>
      <trkpt lat="47.70675" lon="3.63619">
        <ele>105</ele>
        <time>2014-04-16T09:58:28Z</time>
      </trkpt>
      <trkpt lat="47.70671" lon="3.63618">
        <ele>105</ele>
        <time>2014-04-16T09:58:32Z</time>
      </trkpt>
      <trkpt lat="47.70667" lon="3.63613">
        <ele>105</ele>
        <time>2014-04-16T09:58:37Z</time>
      </trkpt>
      <trkpt lat="47.70665" lon="3.63607">
        <ele>105</ele>
        <time>2014-04-16T09:58:41Z</time>
      </trkpt>
      <trkpt lat="47.70662" lon="3.63601">
        <ele>105</ele>
        <time>2014-04-16T09:58:48Z</time>
      </trkpt>
      <trkpt lat="47.70666" lon="3.63597">
        <ele>105</ele>
        <time>2014-04-16T09:58:50Z</time>
      </trkpt>
      <trkpt lat="47.70671" lon="3.63593">
        <ele>105</ele>
        <time>2014-04-16T09:58:54Z</time>
      </trkpt>
      <trkpt lat="47.70675" lon="3.63588">
        <ele>105</ele>
        <time>2014-04-16T09:58:57Z</time>
      </trkpt>
      <trkpt lat="47.70674" lon="3.63587">
        <ele>105</ele>
        <time>2014-04-16T09:59:12Z</time>
      </trkpt>
      <trkpt lat="47.70672" lon="3.63589">
        <ele>105</ele>
        <time>2014-04-16T09:59:33Z</time>
      </trkpt>
      <trkpt lat="47.70671" lon="3.63578">
        <ele>105</ele>
        <time>2014-04-16T10:00:47Z</time>
      </trkpt>
      <trkpt lat="47.70661" lon="3.63562">
        <ele>105</ele>
        <time>2014-04-16T10:00:53Z</time>
      </trkpt>
      <trkpt lat="47.70661" lon="3.6356">
        <ele>105</ele>
        <time>2014-04-16T10:01:00Z</time>
      </trkpt>
      <trkpt lat="47.70679" lon="3.63585">
        <ele>105</ele>
        <time>2014-04-16T10:01:13Z</time>
      </trkpt>
      <trkpt lat="47.70677" lon="3.6359">
        <ele>105</ele>
        <time>2014-04-16T10:03:20Z</time>
      </trkpt>
      <trkpt lat="47.70675" lon="3.63579">
        <ele>105</ele>
        <time>2014-04-16T10:03:37Z</time>
      </trkpt>
      <trkpt lat="47.70667" lon="3.63572">
        <ele>105</ele>
        <time>2014-04-16T10:04:21Z</time>
      </trkpt>
      <trkpt lat="47.70669" lon="3.63573">
        <ele>105</ele>
        <time>2014-04-16T10:04:32Z</time>
      </trkpt>
      <trkpt lat="47.70674" lon="3.63579">
        <ele>105</ele>
        <time>2014-04-16T10:04:40Z</time>
      </trkpt>
      <trkpt lat="47.70671" lon="3.63591">
        <ele>105</ele>
        <time>2014-04-16T10:08:43Z</time>
      </trkpt>
      <trkpt lat="47.70673" lon="3.63588">
        <ele>105</ele>
        <time>2014-04-16T10:08:56Z</time>
      </trkpt>
      <trkpt lat="47.70676" lon="3.6359">
        <ele>105</ele>
        <time>2014-04-16T10:09:52Z</time>
      </trkpt>
      <trkpt lat="47.70674" lon="3.63587">
        <ele>105</ele>
        <time>2014-04-16T10:14:10Z</time>
      </trkpt>
      <trkpt lat="47.70672" lon="3.63582">
        <ele>105</ele>
        <time>2014-04-16T10:14:41Z</time>
      </trkpt>
      <trkpt lat="47.7067" lon="3.63583">
        <ele>105</ele>
        <time>2014-04-16T10:21:13Z</time>
      </trkpt>
      <trkpt lat="47.70673" lon="3.63578">
        <ele>105</ele>
        <time>2014-04-16T10:26:48Z</time>
      </trkpt>
      <trkpt lat="47.70676" lon="3.63583">
        <ele>105</ele>
        <time>2014-04-16T10:26:53Z</time>
      </trkpt>
      <trkpt lat="47.70677" lon="3.63583">
        <ele>105</ele>
        <time>2014-04-16T10:28:12Z</time>
      </trkpt>
      <trkpt lat="47.70677" lon="3.63585">
        <ele>105</ele>
        <time>2014-04-16T10:28:32Z</time>
      </trkpt>
      <trkpt lat="47.70671" lon="3.63595">
        <ele>105</ele>
        <time>2014-04-16T10:28:36Z</time>
      </trkpt>
      <trkpt lat="47.70669" lon="3.63612">
        <ele>105</ele>
        <time>2014-04-16T10:28:42Z</time>
      </trkpt>
      <trkpt lat="47.70667" lon="3.63619">
        <ele>105</ele>
        <time>2014-04-16T10:28:47Z</time>
      </trkpt>
      <trkpt lat="47.70657" lon="3.63616">
        <ele>105</ele>
        <time>2014-04-16T10:28:57Z</time>
      </trkpt>
      <trkpt lat="47.70653" lon="3.63612">
        <ele>105</ele>
        <time>2014-04-16T10:29:00Z</time>
      </trkpt>
      <trkpt lat="47.70648" lon="3.6361">
        <ele>105</ele>
        <time>2014-04-16T10:29:04Z</time>
      </trkpt>
      <trkpt lat="47.70632" lon="3.63615">
        <ele>105</ele>
        <time>2014-04-16T10:29:15Z</time>
      </trkpt>
      <trkpt lat="47.70628" lon="3.63612">
        <ele>105</ele>
        <time>2014-04-16T10:29:20Z</time>
      </trkpt>
      <trkpt lat="47.70624" lon="3.63609">
        <ele>105</ele>
        <time>2014-04-16T10:29:25Z</time>
      </trkpt>
      <trkpt lat="47.70616" lon="3.63609">
        <ele>105</ele>
        <time>2014-04-16T10:29:38Z</time>
      </trkpt>
      <trkpt lat="47.70611" lon="3.63609">
        <ele>105</ele>
        <time>2014-04-16T10:29:42Z</time>
      </trkpt>
      <trkpt lat="47.70606" lon="3.63608">
        <ele>105</ele>
        <time>2014-04-16T10:29:48Z</time>
      </trkpt>
      <trkpt lat="47.70601" lon="3.63609">
        <ele>105</ele>
        <time>2014-04-16T10:29:52Z</time>
      </trkpt>
      <trkpt lat="47.70595" lon="3.63613">
        <ele>105</ele>
        <time>2014-04-16T10:29:56Z</time>
      </trkpt>
      <trkpt lat="47.70591" lon="3.63615">
        <ele>105</ele>
        <time>2014-04-16T10:29:59Z</time>
      </trkpt>
      <trkpt lat="47.70582" lon="3.63611">
        <ele>105</ele>
        <time>2014-04-16T10:30:09Z</time>
      </trkpt>
      <trkpt lat="47.70577" lon="3.636">
        <ele>105</ele>
        <time>2014-04-16T10:30:16Z</time>
      </trkpt>
      <trkpt lat="47.7055" lon="3.63585">
        <ele>104</ele>
        <time>2014-04-16T10:30:36Z</time>
      </trkpt>
      <trkpt lat="47.70526" lon="3.63605">
        <ele>104</ele>
        <time>2014-04-16T10:30:53Z</time>
      </trkpt>
      <trkpt lat="47.70516" lon="3.63626">
        <ele>104</ele>
        <time>2014-04-16T10:31:04Z</time>
      </trkpt>
      <trkpt lat="47.70505" lon="3.63626">
        <ele>104</ele>
        <time>2014-04-16T10:31:09Z</time>
      </trkpt>
      <trkpt lat="47.70505" lon="3.63618">
        <ele>104</ele>
        <time>2014-04-16T10:31:12Z</time>
      </trkpt>
      <trkpt lat="47.70499" lon="3.63615">
        <ele>103</ele>
        <time>2014-04-16T10:32:24Z</time>
      </trkpt>
      <trkpt lat="47.70488" lon="3.63616">
        <ele>103</ele>
        <time>2014-04-16T10:32:30Z</time>
      </trkpt>
      <trkpt lat="47.70483" lon="3.63618">
        <ele>103</ele>
        <time>2014-04-16T10:32:34Z</time>
      </trkpt>
      <trkpt lat="47.70479" lon="3.63622">
        <ele>103</ele>
        <time>2014-04-16T10:32:40Z</time>
      </trkpt>
      <trkpt lat="47.70474" lon="3.6362">
        <ele>103</ele>
        <time>2014-04-16T10:32:46Z</time>
      </trkpt>
      <trkpt lat="47.70468" lon="3.63618">
        <ele>103</ele>
        <time>2014-04-16T10:32:50Z</time>
      </trkpt>
      <trkpt lat="47.70464" lon="3.6362">
        <ele>103</ele>
        <time>2014-04-16T10:32:54Z</time>
      </trkpt>
      <trkpt lat="47.70459" lon="3.63619">
        <ele>103</ele>
        <time>2014-04-16T10:33:00Z</time>
      </trkpt>
      <trkpt lat="47.70454" lon="3.63621">
        <ele>103</ele>
        <time>2014-04-16T10:33:04Z</time>
      </trkpt>
      <trkpt lat="47.70449" lon="3.63623">
        <ele>103</ele>
        <time>2014-04-16T10:33:11Z</time>
      </trkpt>
      <trkpt lat="47.70444" lon="3.63624">
        <ele>103</ele>
        <time>2014-04-16T10:33:13Z</time>
      </trkpt>
      <trkpt lat="47.7044" lon="3.63624">
        <ele>103</ele>
        <time>2014-04-16T10:33:17Z</time>
      </trkpt>
      <trkpt lat="47.70434" lon="3.63625">
        <ele>103</ele>
        <time>2014-04-16T10:33:22Z</time>
      </trkpt>
      <trkpt lat="47.7043" lon="3.63628">
        <ele>103</ele>
        <time>2014-04-16T10:33:26Z</time>
      </trkpt>
      <trkpt lat="47.70422" lon="3.63636">
        <ele>103</ele>
        <time>2014-04-16T10:33:34Z</time>
      </trkpt>
      <trkpt lat="47.70413" lon="3.6363">
        <ele>103</ele>
        <time>2014-04-16T10:33:44Z</time>
      </trkpt>
      <trkpt lat="47.70404" lon="3.63632">
        <ele>103</ele>
        <time>2014-04-16T10:33:51Z</time>
      </trkpt>
      <trkpt lat="47.70396" lon="3.63623">
        <ele>103</ele>
        <time>2014-04-16T10:33:57Z</time>
      </trkpt>
      <trkpt lat="47.70377" lon="3.63624">
        <ele>103</ele>
        <time>2014-04-16T10:34:12Z</time>
      </trkpt>
      <trkpt lat="47.70367" lon="3.63625">
        <ele>103</ele>
        <time>2014-04-16T10:34:20Z</time>
      </trkpt>
      <trkpt lat="47.70357" lon="3.63628">
        <ele>103</ele>
        <time>2014-04-16T10:34:28Z</time>
      </trkpt>
      <trkpt lat="47.70347" lon="3.63629">
        <ele>103</ele>
        <time>2014-04-16T10:34:36Z</time>
      </trkpt>
      <trkpt lat="47.70342" lon="3.63627">
        <ele>103</ele>
        <time>2014-04-16T10:34:41Z</time>
      </trkpt>
      <trkpt lat="47.70331" lon="3.63628">
        <ele>104</ele>
        <time>2014-04-16T10:34:52Z</time>
      </trkpt>
      <trkpt lat="47.70326" lon="3.63626">
        <ele>104</ele>
        <time>2014-04-16T10:34:56Z</time>
      </trkpt>
      <trkpt lat="47.70319" lon="3.63619">
        <ele>104</ele>
        <time>2014-04-16T10:35:03Z</time>
      </trkpt>
      <trkpt lat="47.70301" lon="3.63635">
        <ele>104</ele>
        <time>2014-04-16T10:35:16Z</time>
      </trkpt>
      <trkpt lat="47.70292" lon="3.63638">
        <ele>104</ele>
        <time>2014-04-16T10:35:23Z</time>
      </trkpt>
      <trkpt lat="47.70283" lon="3.63634">
        <ele>104</ele>
        <time>2014-04-16T10:35:30Z</time>
      </trkpt>
      <trkpt lat="47.70273" lon="3.63631">
        <ele>104</ele>
        <time>2014-04-16T10:35:39Z</time>
      </trkpt>
      <trkpt lat="47.70266" lon="3.63622">
        <ele>104</ele>
        <time>2014-04-16T10:35:48Z</time>
      </trkpt>
      <trkpt lat="47.70256" lon="3.63623">
        <ele>105</ele>
        <time>2014-04-16T10:35:56Z</time>
      </trkpt>
      <trkpt lat="47.70248" lon="3.6363">
        <ele>106</ele>
        <time>2014-04-16T10:36:02Z</time>
      </trkpt>
      <trkpt lat="47.7024" lon="3.63639">
        <ele>106</ele>
        <time>2014-04-16T10:36:12Z</time>
      </trkpt>
      <trkpt lat="47.70231" lon="3.63645">
        <ele>106</ele>
        <time>2014-04-16T10:36:20Z</time>
      </trkpt>
      <trkpt lat="47.70221" lon="3.6364">
        <ele>106</ele>
        <time>2014-04-16T10:36:27Z</time>
      </trkpt>
      <trkpt lat="47.70212" lon="3.6364">
        <ele>106</ele>
        <time>2014-04-16T10:36:33Z</time>
      </trkpt>
      <trkpt lat="47.70203" lon="3.63639">
        <ele>106</ele>
        <time>2014-04-16T10:36:41Z</time>
      </trkpt>
      <trkpt lat="47.7019" lon="3.6364">
        <ele>106</ele>
        <time>2014-04-16T10:36:56Z</time>
      </trkpt>
      <trkpt lat="47.70183" lon="3.63648">
        <ele>106</ele>
        <time>2014-04-16T10:37:02Z</time>
      </trkpt>
      <trkpt lat="47.70173" lon="3.63647">
        <ele>106</ele>
        <time>2014-04-16T10:37:08Z</time>
      </trkpt>
      <trkpt lat="47.70163" lon="3.63639">
        <ele>107</ele>
        <time>2014-04-16T10:37:16Z</time>
      </trkpt>
      <trkpt lat="47.70154" lon="3.63645">
        <ele>107</ele>
        <time>2014-04-16T10:37:22Z</time>
      </trkpt>
      <trkpt lat="47.70142" lon="3.63647">
        <ele>106</ele>
        <time>2014-04-16T10:37:32Z</time>
      </trkpt>
      <trkpt lat="47.70134" lon="3.63654">
        <ele>106</ele>
        <time>2014-04-16T10:37:44Z</time>
      </trkpt>
      <trkpt lat="47.70129" lon="3.63665">
        <ele>106</ele>
        <time>2014-04-16T10:38:26Z</time>
      </trkpt>
      <trkpt lat="47.7012" lon="3.63674">
        <ele>106</ele>
        <time>2014-04-16T10:38:30Z</time>
      </trkpt>
      <trkpt lat="47.70121" lon="3.63676">
        <ele>106</ele>
        <time>2014-04-16T10:38:52Z</time>
      </trkpt>
      <trkpt lat="47.70117" lon="3.63679">
        <ele>106</ele>
        <time>2014-04-16T10:39:08Z</time>
      </trkpt>
      <trkpt lat="47.70116" lon="3.63683">
        <ele>106</ele>
        <time>2014-04-16T10:39:32Z</time>
      </trkpt>
      <trkpt lat="47.7011" lon="3.63694">
        <ele>106</ele>
        <time>2014-04-16T10:39:40Z</time>
      </trkpt>
      <trkpt lat="47.70102" lon="3.63703">
        <ele>106</ele>
        <time>2014-04-16T10:39:49Z</time>
      </trkpt>
      <trkpt lat="47.70097" lon="3.63706">
        <ele>106</ele>
        <time>2014-04-16T10:39:53Z</time>
      </trkpt>
      <trkpt lat="47.70094" lon="3.6371">
        <ele>106</ele>
        <time>2014-04-16T10:40:00Z</time>
      </trkpt>
      <trkpt lat="47.70091" lon="3.63716">
        <ele>106</ele>
        <time>2014-04-16T10:40:06Z</time>
      </trkpt>
      <trkpt lat="47.70089" lon="3.63723">
        <ele>106</ele>
        <time>2014-04-16T10:40:10Z</time>
      </trkpt>
      <trkpt lat="47.70084" lon="3.63734">
        <ele>106</ele>
        <time>2014-04-16T10:40:18Z</time>
      </trkpt>
      <trkpt lat="47.7008" lon="3.63738">
        <ele>106</ele>
        <time>2014-04-16T10:40:22Z</time>
      </trkpt>
      <trkpt lat="47.70076" lon="3.63743">
        <ele>106</ele>
        <time>2014-04-16T10:40:26Z</time>
      </trkpt>
      <trkpt lat="47.70074" lon="3.6375">
        <ele>106</ele>
        <time>2014-04-16T10:40:30Z</time>
      </trkpt>
      <trkpt lat="47.70071" lon="3.63756">
        <ele>106</ele>
        <time>2014-04-16T10:40:33Z</time>
      </trkpt>
      <trkpt lat="47.70066" lon="3.6376">
        <ele>106</ele>
        <time>2014-04-16T10:40:36Z</time>
      </trkpt>
      <trkpt lat="47.70062" lon="3.63765">
        <ele>105</ele>
        <time>2014-04-16T10:40:40Z</time>
      </trkpt>
      <trkpt lat="47.70055" lon="3.63775">
        <ele>105</ele>
        <time>2014-04-16T10:40:44Z</time>
      </trkpt>
      <trkpt lat="47.70051" lon="3.63787">
        <ele>105</ele>
        <time>2014-04-16T10:40:54Z</time>
      </trkpt>
      <trkpt lat="47.70044" lon="3.63795">
        <ele>105</ele>
        <time>2014-04-16T10:41:04Z</time>
      </trkpt>
      <trkpt lat="47.70037" lon="3.63802">
        <ele>105</ele>
        <time>2014-04-16T10:41:13Z</time>
      </trkpt>
      <trkpt lat="47.70033" lon="3.63811">
        <ele>105</ele>
        <time>2014-04-16T10:41:18Z</time>
      </trkpt>
      <trkpt lat="47.70028" lon="3.63816">
        <ele>105</ele>
        <time>2014-04-16T10:41:21Z</time>
      </trkpt>
      <trkpt lat="47.70023" lon="3.63828">
        <ele>105</ele>
        <time>2014-04-16T10:41:32Z</time>
      </trkpt>
      <trkpt lat="47.70019" lon="3.63832">
        <ele>106</ele>
        <time>2014-04-16T10:41:36Z</time>
      </trkpt>
      <trkpt lat="47.70009" lon="3.6385">
        <ele>106</ele>
        <time>2014-04-16T10:41:50Z</time>
      </trkpt>
      <trkpt lat="47.70008" lon="3.63857">
        <ele>106</ele>
        <time>2014-04-16T10:41:56Z</time>
      </trkpt>
      <trkpt lat="47.69998" lon="3.63867">
        <ele>107</ele>
        <time>2014-04-16T10:42:10Z</time>
      </trkpt>
      <trkpt lat="47.69992" lon="3.63878">
        <ele>108</ele>
        <time>2014-04-16T10:42:18Z</time>
      </trkpt>
      <trkpt lat="47.69983" lon="3.63887">
        <ele>108</ele>
        <time>2014-04-16T10:42:24Z</time>
      </trkpt>
      <trkpt lat="47.69974" lon="3.63893">
        <ele>108</ele>
        <time>2014-04-16T10:42:30Z</time>
      </trkpt>
      <trkpt lat="47.69966" lon="3.63902">
        <ele>108</ele>
        <time>2014-04-16T10:42:37Z</time>
      </trkpt>
      <trkpt lat="47.6996" lon="3.63912">
        <ele>109</ele>
        <time>2014-04-16T10:42:44Z</time>
      </trkpt>
      <trkpt lat="47.69955" lon="3.63926">
        <ele>110</ele>
        <time>2014-04-16T10:42:48Z</time>
      </trkpt>
      <trkpt lat="47.69956" lon="3.6394">
        <ele>110</ele>
        <time>2014-04-16T10:42:56Z</time>
      </trkpt>
      <trkpt lat="47.69943" lon="3.63962">
        <ele>110</ele>
        <time>2014-04-16T10:43:08Z</time>
      </trkpt>
      <trkpt lat="47.69936" lon="3.63971">
        <ele>110</ele>
        <time>2014-04-16T10:43:16Z</time>
      </trkpt>
      <trkpt lat="47.6993" lon="3.63982">
        <ele>110</ele>
        <time>2014-04-16T10:43:24Z</time>
      </trkpt>
      <trkpt lat="47.69922" lon="3.63985">
        <ele>110</ele>
        <time>2014-04-16T10:43:32Z</time>
      </trkpt>
      <trkpt lat="47.69909" lon="3.64007">
        <ele>111</ele>
        <time>2014-04-16T10:43:42Z</time>
      </trkpt>
      <trkpt lat="47.69905" lon="3.64019">
        <ele>111</ele>
        <time>2014-04-16T10:43:48Z</time>
      </trkpt>
      <trkpt lat="47.69895" lon="3.64025">
        <ele>111</ele>
        <time>2014-04-16T10:43:56Z</time>
      </trkpt>
      <trkpt lat="47.69881" lon="3.6406">
        <ele>110</ele>
        <time>2014-04-16T10:44:29Z</time>
      </trkpt>
      <trkpt lat="47.69869" lon="3.64072">
        <ele>111</ele>
        <time>2014-04-16T10:44:50Z</time>
      </trkpt>
      <trkpt lat="47.6985" lon="3.64083">
        <ele>111</ele>
        <time>2014-04-16T10:45:00Z</time>
      </trkpt>
      <trkpt lat="47.69842" lon="3.64091">
        <ele>109</ele>
        <time>2014-04-16T10:45:08Z</time>
      </trkpt>
      <trkpt lat="47.69835" lon="3.64103">
        <ele>109</ele>
        <time>2014-04-16T10:45:14Z</time>
      </trkpt>
      <trkpt lat="47.69831" lon="3.64117">
        <ele>108</ele>
        <time>2014-04-16T10:45:20Z</time>
      </trkpt>
      <trkpt lat="47.69824" lon="3.64128">
        <ele>108</ele>
        <time>2014-04-16T10:45:24Z</time>
      </trkpt>
      <trkpt lat="47.69815" lon="3.64137">
        <ele>107</ele>
        <time>2014-04-16T10:45:30Z</time>
      </trkpt>
      <trkpt lat="47.6981" lon="3.64142">
        <ele>107</ele>
        <time>2014-04-16T10:45:36Z</time>
      </trkpt>
      <trkpt lat="47.69804" lon="3.64146">
        <ele>107</ele>
        <time>2014-04-16T10:45:41Z</time>
      </trkpt>
      <trkpt lat="47.69796" lon="3.64154">
        <ele>107</ele>
        <time>2014-04-16T10:45:48Z</time>
      </trkpt>
      <trkpt lat="47.69791" lon="3.64156">
        <ele>107</ele>
        <time>2014-04-16T10:45:52Z</time>
      </trkpt>
      <trkpt lat="47.69785" lon="3.64169">
        <ele>106</ele>
        <time>2014-04-16T10:46:00Z</time>
      </trkpt>
      <trkpt lat="47.69781" lon="3.64173">
        <ele>106</ele>
        <time>2014-04-16T10:46:05Z</time>
      </trkpt>
      <trkpt lat="47.69778" lon="3.64178">
        <ele>106</ele>
        <time>2014-04-16T10:46:10Z</time>
      </trkpt>
      <trkpt lat="47.69768" lon="3.64214">
        <ele>106</ele>
        <time>2014-04-16T10:46:28Z</time>
      </trkpt>
      <trkpt lat="47.69765" lon="3.64218">
        <ele>106</ele>
        <time>2014-04-16T10:46:32Z</time>
      </trkpt>
      <trkpt lat="47.69762" lon="3.64218">
        <ele>106</ele>
        <time>2014-04-16T10:46:38Z</time>
      </trkpt>
      <trkpt lat="47.69758" lon="3.64223">
        <ele>106</ele>
        <time>2014-04-16T10:46:42Z</time>
      </trkpt>
      <trkpt lat="47.69753" lon="3.64224">
        <ele>106</ele>
        <time>2014-04-16T10:46:46Z</time>
      </trkpt>
      <trkpt lat="47.69743" lon="3.64229">
        <ele>106</ele>
        <time>2014-04-16T10:46:52Z</time>
      </trkpt>
      <trkpt lat="47.69734" lon="3.64238">
        <ele>106</ele>
        <time>2014-04-16T10:46:59Z</time>
      </trkpt>
      <trkpt lat="47.69722" lon="3.64272">
        <ele>106</ele>
        <time>2014-04-16T10:47:18Z</time>
      </trkpt>
      <trkpt lat="47.69719" lon="3.64279">
        <ele>106</ele>
        <time>2014-04-16T10:47:22Z</time>
      </trkpt>
      <trkpt lat="47.69715" lon="3.64284">
        <ele>106</ele>
        <time>2014-04-16T10:47:29Z</time>
      </trkpt>
      <trkpt lat="47.69713" lon="3.6429">
        <ele>106</ele>
        <time>2014-04-16T10:47:33Z</time>
      </trkpt>
      <trkpt lat="47.69708" lon="3.64295">
        <ele>107</ele>
        <time>2014-04-16T10:47:37Z</time>
      </trkpt>
      <trkpt lat="47.69703" lon="3.64297">
        <ele>107</ele>
        <time>2014-04-16T10:47:40Z</time>
      </trkpt>
      <trkpt lat="47.69691" lon="3.64323">
        <ele>107</ele>
        <time>2014-04-16T10:47:57Z</time>
      </trkpt>
      <trkpt lat="47.69689" lon="3.6433">
        <ele>107</ele>
        <time>2014-04-16T10:48:01Z</time>
      </trkpt>
      <trkpt lat="47.69679" lon="3.64346">
        <ele>107</ele>
        <time>2014-04-16T10:48:16Z</time>
      </trkpt>
      <trkpt lat="47.69676" lon="3.64353">
        <ele>107</ele>
        <time>2014-04-16T10:48:20Z</time>
      </trkpt>
      <trkpt lat="47.69673" lon="3.64358">
        <ele>107</ele>
        <time>2014-04-16T10:48:24Z</time>
      </trkpt>
      <trkpt lat="47.69671" lon="3.64364">
        <ele>107</ele>
        <time>2014-04-16T10:48:28Z</time>
      </trkpt>
      <trkpt lat="47.69669" lon="3.64371">
        <ele>107</ele>
        <time>2014-04-16T10:48:32Z</time>
      </trkpt>
      <trkpt lat="47.69659" lon="3.6439">
        <ele>107</ele>
        <time>2014-04-16T10:48:45Z</time>
      </trkpt>
      <trkpt lat="47.69644" lon="3.64476">
        <ele>107</ele>
        <time>2014-04-16T10:49:32Z</time>
      </trkpt>
      <trkpt lat="47.69642" lon="3.64482">
        <ele>107</ele>
        <time>2014-04-16T10:49:34Z</time>
      </trkpt>
      <trkpt lat="47.69638" lon="3.64488">
        <ele>107</ele>
        <time>2014-04-16T10:49:38Z</time>
      </trkpt>
      <trkpt lat="47.69635" lon="3.64492">
        <ele>107</ele>
        <time>2014-04-16T10:49:42Z</time>
      </trkpt>
      <trkpt lat="47.69633" lon="3.645">
        <ele>107</ele>
        <time>2014-04-16T10:49:46Z</time>
      </trkpt>
      <trkpt lat="47.69638" lon="3.64512">
        <ele>107</ele>
        <time>2014-04-16T10:49:52Z</time>
      </trkpt>
      <trkpt lat="47.69638" lon="3.64561">
        <ele>107</ele>
        <time>2014-04-16T10:50:22Z</time>
      </trkpt>
      <trkpt lat="47.69636" lon="3.64568">
        <ele>107</ele>
        <time>2014-04-16T10:50:26Z</time>
      </trkpt>
      <trkpt lat="47.69633" lon="3.64574">
        <ele>107</ele>
        <time>2014-04-16T10:50:30Z</time>
      </trkpt>
      <trkpt lat="47.69631" lon="3.6458">
        <ele>107</ele>
        <time>2014-04-16T10:50:32Z</time>
      </trkpt>
      <trkpt lat="47.6963" lon="3.64588">
        <ele>107</ele>
        <time>2014-04-16T10:50:37Z</time>
      </trkpt>
      <trkpt lat="47.69629" lon="3.64603">
        <ele>108</ele>
        <time>2014-04-16T10:50:46Z</time>
      </trkpt>
      <trkpt lat="47.69625" lon="3.64631">
        <ele>108</ele>
        <time>2014-04-16T10:51:04Z</time>
      </trkpt>
      <trkpt lat="47.69626" lon="3.64646">
        <ele>108</ele>
        <time>2014-04-16T10:51:16Z</time>
      </trkpt>
      <trkpt lat="47.69625" lon="3.64654">
        <ele>108</ele>
        <time>2014-04-16T10:51:20Z</time>
      </trkpt>
      <trkpt lat="47.69625" lon="3.64662">
        <ele>108</ele>
        <time>2014-04-16T10:51:22Z</time>
      </trkpt>
      <trkpt lat="47.69624" lon="3.6467">
        <ele>108</ele>
        <time>2014-04-16T10:51:25Z</time>
      </trkpt>
      <trkpt lat="47.69623" lon="3.64678">
        <ele>108</ele>
        <time>2014-04-16T10:51:28Z</time>
      </trkpt>
      <trkpt lat="47.69627" lon="3.64702">
        <ele>108</ele>
        <time>2014-04-16T10:51:37Z</time>
      </trkpt>
      <trkpt lat="47.69626" lon="3.6471">
        <ele>108</ele>
        <time>2014-04-16T10:51:42Z</time>
      </trkpt>
      <trkpt lat="47.69623" lon="3.64725">
        <ele>108</ele>
        <time>2014-04-16T10:51:50Z</time>
      </trkpt>
      <trkpt lat="47.69622" lon="3.64749">
        <ele>108</ele>
        <time>2014-04-16T10:52:02Z</time>
      </trkpt>
      <trkpt lat="47.69622" lon="3.64756">
        <ele>107</ele>
        <time>2014-04-16T10:52:07Z</time>
      </trkpt>
      <trkpt lat="47.69624" lon="3.64771">
        <ele>107</ele>
        <time>2014-04-16T10:52:18Z</time>
      </trkpt>
      <trkpt lat="47.6962" lon="3.64786">
        <ele>107</ele>
        <time>2014-04-16T10:52:27Z</time>
      </trkpt>
      <trkpt lat="47.69622" lon="3.64816">
        <ele>107</ele>
        <time>2014-04-16T10:52:44Z</time>
      </trkpt>
      <trkpt lat="47.69618" lon="3.6483">
        <ele>107</ele>
        <time>2014-04-16T10:52:53Z</time>
      </trkpt>
      <trkpt lat="47.69617" lon="3.64838">
        <ele>106</ele>
        <time>2014-04-16T10:52:58Z</time>
      </trkpt>
      <trkpt lat="47.69618" lon="3.6486">
        <ele>106</ele>
        <time>2014-04-16T10:53:09Z</time>
      </trkpt>
      <trkpt lat="47.69613" lon="3.64911">
        <ele>106</ele>
        <time>2014-04-16T10:53:40Z</time>
      </trkpt>
      <trkpt lat="47.69612" lon="3.64918">
        <ele>105</ele>
        <time>2014-04-16T10:53:46Z</time>
      </trkpt>
      <trkpt lat="47.69615" lon="3.64964">
        <ele>105</ele>
        <time>2014-04-16T10:54:08Z</time>
      </trkpt>
      <trkpt lat="47.69609" lon="3.65026">
        <ele>104</ele>
        <time>2014-04-16T10:54:43Z</time>
      </trkpt>
      <trkpt lat="47.69604" lon="3.65082">
        <ele>105</ele>
        <time>2014-04-16T10:55:13Z</time>
      </trkpt>
      <trkpt lat="47.69601" lon="3.65088">
        <ele>105</ele>
        <time>2014-04-16T10:55:19Z</time>
      </trkpt>
      <trkpt lat="47.69604" lon="3.65111">
        <ele>105</ele>
        <time>2014-04-16T10:55:30Z</time>
      </trkpt>
      <trkpt lat="47.69606" lon="3.65117">
        <ele>105</ele>
        <time>2014-04-16T10:55:35Z</time>
      </trkpt>
      <trkpt lat="47.69603" lon="3.65148">
        <ele>105</ele>
        <time>2014-04-16T10:55:57Z</time>
      </trkpt>
      <trkpt lat="47.69599" lon="3.65163">
        <ele>105</ele>
        <time>2014-04-16T10:56:05Z</time>
      </trkpt>
      <trkpt lat="47.69598" lon="3.65171">
        <ele>105</ele>
        <time>2014-04-16T10:56:08Z</time>
      </trkpt>
      <trkpt lat="47.69595" lon="3.65188">
        <ele>105</ele>
        <time>2014-04-16T10:56:14Z</time>
      </trkpt>
      <trkpt lat="47.69597" lon="3.65197">
        <ele>105</ele>
        <time>2014-04-16T10:56:20Z</time>
      </trkpt>
      <trkpt lat="47.69598" lon="3.65205">
        <ele>105</ele>
        <time>2014-04-16T10:56:21Z</time>
      </trkpt>
      <trkpt lat="47.69596" lon="3.65212">
        <ele>105</ele>
        <time>2014-04-16T10:56:25Z</time>
      </trkpt>
      <trkpt lat="47.69594" lon="3.65218">
        <ele>105</ele>
        <time>2014-04-16T10:56:31Z</time>
      </trkpt>
      <trkpt lat="47.69596" lon="3.65225">
        <ele>105</ele>
        <time>2014-04-16T10:56:35Z</time>
      </trkpt>
      <trkpt lat="47.69597" lon="3.65228">
        <ele>105</ele>
        <time>2014-04-16T10:56:41Z</time>
      </trkpt>
      <trkpt lat="47.69597" lon="3.65244">
        <ele>105</ele>
        <time>2014-04-16T10:56:49Z</time>
      </trkpt>
      <trkpt lat="47.69595" lon="3.6525">
        <ele>105</ele>
        <time>2014-04-16T10:56:53Z</time>
      </trkpt>
      <trkpt lat="47.69595" lon="3.65257">
        <ele>105</ele>
        <time>2014-04-16T10:56:58Z</time>
      </trkpt>
      <trkpt lat="47.69596" lon="3.65265">
        <ele>106</ele>
        <time>2014-04-16T10:57:02Z</time>
      </trkpt>
      <trkpt lat="47.69597" lon="3.6527">
        <ele>106</ele>
        <time>2014-04-16T10:57:23Z</time>
      </trkpt>
      <trkpt lat="47.69598" lon="3.65278">
        <ele>106</ele>
        <time>2014-04-16T10:57:26Z</time>
      </trkpt>
      <trkpt lat="47.69597" lon="3.653">
        <ele>106</ele>
        <time>2014-04-16T10:57:37Z</time>
      </trkpt>
      <trkpt lat="47.69596" lon="3.65308">
        <ele>106</ele>
        <time>2014-04-16T10:57:41Z</time>
      </trkpt>
      <trkpt lat="47.69594" lon="3.65361">
        <ele>107</ele>
        <time>2014-04-16T10:58:12Z</time>
      </trkpt>
      <trkpt lat="47.69595" lon="3.65368">
        <ele>107</ele>
        <time>2014-04-16T10:58:17Z</time>
      </trkpt>
      <trkpt lat="47.69588" lon="3.65399">
        <ele>107</ele>
        <time>2014-04-16T10:58:31Z</time>
      </trkpt>
      <trkpt lat="47.69584" lon="3.65404">
        <ele>108</ele>
        <time>2014-04-16T10:58:38Z</time>
      </trkpt>
      <trkpt lat="47.69586" lon="3.65408">
        <ele>108</ele>
        <time>2014-04-16T10:58:54Z</time>
      </trkpt>
      <trkpt lat="47.69585" lon="3.65403">
        <ele>108</ele>
        <time>2014-04-16T11:01:22Z</time>
      </trkpt>
      <trkpt lat="47.69585" lon="3.65403">
        <ele>108</ele>
        <time>2014-04-16T11:01:37Z</time>
      </trkpt>
      <trkpt lat="47.69591" lon="3.65405">
        <ele>108</ele>
        <time>2014-04-16T11:01:40Z</time>
      </trkpt>
      <trkpt lat="47.69592" lon="3.65405">
        <ele>108</ele>
        <time>2014-04-16T11:02:17Z</time>
      </trkpt>
      <trkpt lat="47.69588" lon="3.6541">
        <ele>108</ele>
        <time>2014-04-16T11:02:18Z</time>
      </trkpt>
      <trkpt lat="47.69588" lon="3.65417">
        <ele>108</ele>
        <time>2014-04-16T11:03:41Z</time>
      </trkpt>
      <trkpt lat="47.69589" lon="3.65423">
        <ele>108</ele>
        <time>2014-04-16T11:03:46Z</time>
      </trkpt>
      <trkpt lat="47.69586" lon="3.6543">
        <ele>108</ele>
        <time>2014-04-16T11:03:52Z</time>
      </trkpt>
      <trkpt lat="47.69584" lon="3.65444">
        <ele>107</ele>
        <time>2014-04-16T11:04:00Z</time>
      </trkpt>
      <trkpt lat="47.69583" lon="3.65452">
        <ele>107</ele>
        <time>2014-04-16T11:04:03Z</time>
      </trkpt>
      <trkpt lat="47.69581" lon="3.65467">
        <ele>107</ele>
        <time>2014-04-16T11:04:11Z</time>
      </trkpt>
      <trkpt lat="47.69578" lon="3.65481">
        <ele>107</ele>
        <time>2014-04-16T11:04:22Z</time>
      </trkpt>
      <trkpt lat="47.69578" lon="3.65489">
        <ele>107</ele>
        <time>2014-04-16T11:04:26Z</time>
      </trkpt>
      <trkpt lat="47.69575" lon="3.65515">
        <ele>107</ele>
        <time>2014-04-16T11:04:46Z</time>
      </trkpt>
      <trkpt lat="47.69574" lon="3.65521">
        <ele>107</ele>
        <time>2014-04-16T11:04:48Z</time>
      </trkpt>
      <trkpt lat="47.69572" lon="3.65535">
        <ele>107</ele>
        <time>2014-04-16T11:04:57Z</time>
      </trkpt>
      <trkpt lat="47.69569" lon="3.65543">
        <ele>107</ele>
        <time>2014-04-16T11:05:02Z</time>
      </trkpt>
      <trkpt lat="47.69566" lon="3.65557">
        <ele>107</ele>
        <time>2014-04-16T11:05:09Z</time>
      </trkpt>
      <trkpt lat="47.69564" lon="3.65564">
        <ele>107</ele>
        <time>2014-04-16T11:05:14Z</time>
      </trkpt>
      <trkpt lat="47.69561" lon="3.6557">
        <ele>107</ele>
        <time>2014-04-16T11:05:17Z</time>
      </trkpt>
      <trkpt lat="47.69558" lon="3.65584">
        <ele>108</ele>
        <time>2014-04-16T11:05:24Z</time>
      </trkpt>
      <trkpt lat="47.69555" lon="3.65592">
        <ele>108</ele>
        <time>2014-04-16T11:05:28Z</time>
      </trkpt>
      <trkpt lat="47.69552" lon="3.65597">
        <ele>108</ele>
        <time>2014-04-16T11:05:34Z</time>
      </trkpt>
      <trkpt lat="47.69543" lon="3.65626">
        <ele>109</ele>
        <time>2014-04-16T11:05:53Z</time>
      </trkpt>
      <trkpt lat="47.69524" lon="3.65677">
        <ele>108</ele>
        <time>2014-04-16T11:06:29Z</time>
      </trkpt>
      <trkpt lat="47.69521" lon="3.65683">
        <ele>108</ele>
        <time>2014-04-16T11:06:34Z</time>
      </trkpt>
      <trkpt lat="47.69513" lon="3.65694">
        <ele>108</ele>
        <time>2014-04-16T11:06:42Z</time>
      </trkpt>
      <trkpt lat="47.69495" lon="3.65741">
        <ele>107</ele>
        <time>2014-04-16T11:07:09Z</time>
      </trkpt>
      <trkpt lat="47.69491" lon="3.65747">
        <ele>107</ele>
        <time>2014-04-16T11:07:13Z</time>
      </trkpt>
      <trkpt lat="47.69489" lon="3.65755">
        <ele>107</ele>
        <time>2014-04-16T11:07:18Z</time>
      </trkpt>
      <trkpt lat="47.69486" lon="3.65761">
        <ele>107</ele>
        <time>2014-04-16T11:07:22Z</time>
      </trkpt>
      <trkpt lat="47.69482" lon="3.65765">
        <ele>107</ele>
        <time>2014-04-16T11:07:27Z</time>
      </trkpt>
      <trkpt lat="47.69473" lon="3.65773">
        <ele>107</ele>
        <time>2014-04-16T11:07:35Z</time>
      </trkpt>
      <trkpt lat="47.6947" lon="3.65778">
        <ele>107</ele>
        <time>2014-04-16T11:07:38Z</time>
      </trkpt>
      <trkpt lat="47.69469" lon="3.65793">
        <ele>107</ele>
        <time>2014-04-16T11:07:49Z</time>
      </trkpt>
      <trkpt lat="47.69467" lon="3.658">
        <ele>107</ele>
        <time>2014-04-16T11:07:51Z</time>
      </trkpt>
      <trkpt lat="47.69461" lon="3.65811">
        <ele>107</ele>
        <time>2014-04-16T11:08:00Z</time>
      </trkpt>
      <trkpt lat="47.69449" lon="3.65852">
        <ele>106</ele>
        <time>2014-04-16T11:08:25Z</time>
      </trkpt>
      <trkpt lat="47.69447" lon="3.65858">
        <ele>106</ele>
        <time>2014-04-16T11:08:29Z</time>
      </trkpt>
      <trkpt lat="47.6944" lon="3.65868">
        <ele>106</ele>
        <time>2014-04-16T11:08:39Z</time>
      </trkpt>
      <trkpt lat="47.69434" lon="3.65882">
        <ele>106</ele>
        <time>2014-04-16T11:08:47Z</time>
      </trkpt>
      <trkpt lat="47.69432" lon="3.65886">
        <ele>106</ele>
        <time>2014-04-16T11:08:55Z</time>
      </trkpt>
      <trkpt lat="47.6943" lon="3.65885">
        <ele>106</ele>
        <time>2014-04-16T11:09:01Z</time>
      </trkpt>
      <trkpt lat="47.69428" lon="3.65891">
        <ele>106</ele>
        <time>2014-04-16T11:09:07Z</time>
      </trkpt>
      <trkpt lat="47.69423" lon="3.65904">
        <ele>106</ele>
        <time>2014-04-16T11:09:16Z</time>
      </trkpt>
      <trkpt lat="47.6942" lon="3.65909">
        <ele>106</ele>
        <time>2014-04-16T11:09:20Z</time>
      </trkpt>
      <trkpt lat="47.69382" lon="3.65995">
        <ele>107</ele>
        <time>2014-04-16T11:10:13Z</time>
      </trkpt>
      <trkpt lat="47.69379" lon="3.66">
        <ele>107</ele>
        <time>2014-04-16T11:10:18Z</time>
      </trkpt>
      <trkpt lat="47.69376" lon="3.66006">
        <ele>107</ele>
        <time>2014-04-16T11:10:22Z</time>
      </trkpt>
      <trkpt lat="47.69366" lon="3.66035">
        <ele>107</ele>
        <time>2014-04-16T11:10:38Z</time>
      </trkpt>
      <trkpt lat="47.69362" lon="3.66041">
        <ele>107</ele>
        <time>2014-04-16T11:10:46Z</time>
      </trkpt>
      <trkpt lat="47.69358" lon="3.66054">
        <ele>107</ele>
        <time>2014-04-16T11:10:53Z</time>
      </trkpt>
      <trkpt lat="47.69355" lon="3.6606">
        <ele>107</ele>
        <time>2014-04-16T11:10:56Z</time>
      </trkpt>
      <trkpt lat="47.69349" lon="3.66081">
        <ele>107</ele>
        <time>2014-04-16T11:11:06Z</time>
      </trkpt>
      <trkpt lat="47.69337" lon="3.66106">
        <ele>106</ele>
        <time>2014-04-16T11:11:24Z</time>
      </trkpt>
      <trkpt lat="47.69335" lon="3.66112">
        <ele>106</ele>
        <time>2014-04-16T11:11:28Z</time>
      </trkpt>
      <trkpt lat="47.69323" lon="3.66137">
        <ele>106</ele>
        <time>2014-04-16T11:11:47Z</time>
      </trkpt>
      <trkpt lat="47.69319" lon="3.66141">
        <ele>106</ele>
        <time>2014-04-16T11:11:52Z</time>
      </trkpt>
      <trkpt lat="47.69315" lon="3.66146">
        <ele>106</ele>
        <time>2014-04-16T11:11:58Z</time>
      </trkpt>
      <trkpt lat="47.69314" lon="3.66154">
        <ele>106</ele>
        <time>2014-04-16T11:12:01Z</time>
      </trkpt>
      <trkpt lat="47.69312" lon="3.6616">
        <ele>106</ele>
        <time>2014-04-16T11:12:04Z</time>
      </trkpt>
      <trkpt lat="47.69306" lon="3.66172">
        <ele>105</ele>
        <time>2014-04-16T11:12:15Z</time>
      </trkpt>
      <trkpt lat="47.69303" lon="3.66177">
        <ele>105</ele>
        <time>2014-04-16T11:12:20Z</time>
      </trkpt>
      <trkpt lat="47.69277" lon="3.66236">
        <ele>106</ele>
        <time>2014-04-16T11:12:57Z</time>
      </trkpt>
      <trkpt lat="47.69271" lon="3.66259">
        <ele>106</ele>
        <time>2014-04-16T11:13:07Z</time>
      </trkpt>
      <trkpt lat="47.69262" lon="3.66278">
        <ele>106</ele>
        <time>2014-04-16T11:13:21Z</time>
      </trkpt>
      <trkpt lat="47.69259" lon="3.66285">
        <ele>106</ele>
        <time>2014-04-16T11:13:26Z</time>
      </trkpt>
      <trkpt lat="47.69256" lon="3.66291">
        <ele>106</ele>
        <time>2014-04-16T11:13:29Z</time>
      </trkpt>
      <trkpt lat="47.69251" lon="3.66294">
        <ele>106</ele>
        <time>2014-04-16T11:13:36Z</time>
      </trkpt>
      <trkpt lat="47.6923" lon="3.66346">
        <ele>106</ele>
        <time>2014-04-16T11:14:08Z</time>
      </trkpt>
      <trkpt lat="47.69224" lon="3.66358">
        <ele>106</ele>
        <time>2014-04-16T11:14:18Z</time>
      </trkpt>
      <trkpt lat="47.69221" lon="3.66363">
        <ele>106</ele>
        <time>2014-04-16T11:14:22Z</time>
      </trkpt>
      <trkpt lat="47.69218" lon="3.6637">
        <ele>106</ele>
        <time>2014-04-16T11:14:28Z</time>
      </trkpt>
      <trkpt lat="47.69216" lon="3.66376">
        <ele>106</ele>
        <time>2014-04-16T11:14:32Z</time>
      </trkpt>
      <trkpt lat="47.69213" lon="3.66382">
        <ele>106</ele>
        <time>2014-04-16T11:14:36Z</time>
      </trkpt>
      <trkpt lat="47.69204" lon="3.66397">
        <ele>106</ele>
        <time>2014-04-16T11:14:47Z</time>
      </trkpt>
      <trkpt lat="47.69177" lon="3.66463">
        <ele>106</ele>
        <time>2014-04-16T11:15:26Z</time>
      </trkpt>
      <trkpt lat="47.69173" lon="3.66468">
        <ele>106</ele>
        <time>2014-04-16T11:15:29Z</time>
      </trkpt>
      <trkpt lat="47.6917" lon="3.66475">
        <ele>106</ele>
        <time>2014-04-16T11:15:32Z</time>
      </trkpt>
      <trkpt lat="47.69167" lon="3.66487">
        <ele>106</ele>
        <time>2014-04-16T11:15:45Z</time>
      </trkpt>
      <trkpt lat="47.69163" lon="3.66492">
        <ele>106</ele>
        <time>2014-04-16T11:16:36Z</time>
      </trkpt>
      <trkpt lat="47.69153" lon="3.66512">
        <ele>106</ele>
        <time>2014-04-16T11:16:48Z</time>
      </trkpt>
      <trkpt lat="47.6915" lon="3.66518">
        <ele>106</ele>
        <time>2014-04-16T11:16:52Z</time>
      </trkpt>
      <trkpt lat="47.69146" lon="3.66523">
        <ele>106</ele>
        <time>2014-04-16T11:16:56Z</time>
      </trkpt>
      <trkpt lat="47.69142" lon="3.66535">
        <ele>106</ele>
        <time>2014-04-16T11:17:02Z</time>
      </trkpt>
      <trkpt lat="47.69139" lon="3.66541">
        <ele>106</ele>
        <time>2014-04-16T11:17:06Z</time>
      </trkpt>
      <trkpt lat="47.69137" lon="3.66548">
        <ele>106</ele>
        <time>2014-04-16T11:17:11Z</time>
      </trkpt>
      <trkpt lat="47.69125" lon="3.66572">
        <ele>106</ele>
        <time>2014-04-16T11:17:29Z</time>
      </trkpt>
      <trkpt lat="47.69114" lon="3.66608">
        <ele>106</ele>
        <time>2014-04-16T11:17:52Z</time>
      </trkpt>
      <trkpt lat="47.69107" lon="3.6662">
        <ele>106</ele>
        <time>2014-04-16T11:18:01Z</time>
      </trkpt>
      <trkpt lat="47.69102" lon="3.66633">
        <ele>106</ele>
        <time>2014-04-16T11:18:09Z</time>
      </trkpt>
      <trkpt lat="47.69098" lon="3.66639">
        <ele>106</ele>
        <time>2014-04-16T11:18:12Z</time>
      </trkpt>
      <trkpt lat="47.69093" lon="3.66645">
        <ele>106</ele>
        <time>2014-04-16T11:18:14Z</time>
      </trkpt>
      <trkpt lat="47.69089" lon="3.6665">
        <ele>106</ele>
        <time>2014-04-16T11:18:16Z</time>
      </trkpt>
      <trkpt lat="47.69085" lon="3.66658">
        <ele>106</ele>
        <time>2014-04-16T11:18:29Z</time>
      </trkpt>
      <trkpt lat="47.69081" lon="3.66672">
        <ele>106</ele>
        <time>2014-04-16T11:18:39Z</time>
      </trkpt>
      <trkpt lat="47.69078" lon="3.6668">
        <ele>106</ele>
        <time>2014-04-16T11:18:43Z</time>
      </trkpt>
      <trkpt lat="47.69074" lon="3.66686">
        <ele>106</ele>
        <time>2014-04-16T11:18:47Z</time>
      </trkpt>
      <trkpt lat="47.6907" lon="3.66691">
        <ele>106</ele>
        <time>2014-04-16T11:18:50Z</time>
      </trkpt>
      <trkpt lat="47.69064" lon="3.66711">
        <ele>106</ele>
        <time>2014-04-16T11:19:05Z</time>
      </trkpt>
      <trkpt lat="47.6906" lon="3.66718">
        <ele>106</ele>
        <time>2014-04-16T11:19:09Z</time>
      </trkpt>
      <trkpt lat="47.6906" lon="3.66725">
        <ele>106</ele>
        <time>2014-04-16T11:19:14Z</time>
      </trkpt>
      <trkpt lat="47.69049" lon="3.66751">
        <ele>106</ele>
        <time>2014-04-16T11:19:31Z</time>
      </trkpt>
      <trkpt lat="47.69047" lon="3.66759">
        <ele>106</ele>
        <time>2014-04-16T11:19:35Z</time>
      </trkpt>
      <trkpt lat="47.69044" lon="3.66765">
        <ele>106</ele>
        <time>2014-04-16T11:19:37Z</time>
      </trkpt>
      <trkpt lat="47.6904" lon="3.66769">
        <ele>106</ele>
        <time>2014-04-16T11:19:40Z</time>
      </trkpt>
      <trkpt lat="47.69037" lon="3.66775">
        <ele>106</ele>
        <time>2014-04-16T11:19:45Z</time>
      </trkpt>
      <trkpt lat="47.69035" lon="3.66782">
        <ele>106</ele>
        <time>2014-04-16T11:19:51Z</time>
      </trkpt>
      <trkpt lat="47.69034" lon="3.6679">
        <ele>106</ele>
        <time>2014-04-16T11:19:54Z</time>
      </trkpt>
      <trkpt lat="47.69032" lon="3.66795">
        <ele>106</ele>
        <time>2014-04-16T11:19:59Z</time>
      </trkpt>
      <trkpt lat="47.69027" lon="3.66798">
        <ele>106</ele>
        <time>2014-04-16T11:20:02Z</time>
      </trkpt>
      <trkpt lat="47.69023" lon="3.66803">
        <ele>106</ele>
        <time>2014-04-16T11:20:06Z</time>
      </trkpt>
      <trkpt lat="47.69021" lon="3.66809">
        <ele>106</ele>
        <time>2014-04-16T11:20:10Z</time>
      </trkpt>
      <trkpt lat="47.69018" lon="3.66816">
        <ele>106</ele>
        <time>2014-04-16T11:20:14Z</time>
      </trkpt>
      <trkpt lat="47.69015" lon="3.66829">
        <ele>107</ele>
        <time>2014-04-16T11:20:22Z</time>
      </trkpt>
      <trkpt lat="47.69009" lon="3.66842">
        <ele>107</ele>
        <time>2014-04-16T11:20:30Z</time>
      </trkpt>
      <trkpt lat="47.69004" lon="3.66865">
        <ele>106</ele>
        <time>2014-04-16T11:20:44Z</time>
      </trkpt>
      <trkpt lat="47.68999" lon="3.66877">
        <ele>106</ele>
        <time>2014-04-16T11:20:50Z</time>
      </trkpt>
      <trkpt lat="47.68995" lon="3.66883">
        <ele>106</ele>
        <time>2014-04-16T11:20:54Z</time>
      </trkpt>
      <trkpt lat="47.68991" lon="3.66887">
        <ele>106</ele>
        <time>2014-04-16T11:21:00Z</time>
      </trkpt>
      <trkpt lat="47.68981" lon="3.66906">
        <ele>106</ele>
        <time>2014-04-16T11:21:12Z</time>
      </trkpt>
      <trkpt lat="47.68977" lon="3.66908">
        <ele>106</ele>
        <time>2014-04-16T11:21:17Z</time>
      </trkpt>
      <trkpt lat="47.68971" lon="3.6692">
        <ele>107</ele>
        <time>2014-04-16T11:21:26Z</time>
      </trkpt>
      <trkpt lat="47.68967" lon="3.66935">
        <ele>107</ele>
        <time>2014-04-16T11:21:34Z</time>
      </trkpt>
      <trkpt lat="47.68966" lon="3.66943">
        <ele>107</ele>
        <time>2014-04-16T11:21:38Z</time>
      </trkpt>
      <trkpt lat="47.68965" lon="3.6695">
        <ele>107</ele>
        <time>2014-04-16T11:21:42Z</time>
      </trkpt>
      <trkpt lat="47.68961" lon="3.66956">
        <ele>107</ele>
        <time>2014-04-16T11:21:44Z</time>
      </trkpt>
      <trkpt lat="47.68958" lon="3.6696">
        <ele>107</ele>
        <time>2014-04-16T11:21:47Z</time>
      </trkpt>
      <trkpt lat="47.68954" lon="3.66965">
        <ele>107</ele>
        <time>2014-04-16T11:21:52Z</time>
      </trkpt>
      <trkpt lat="47.68954" lon="3.66973">
        <ele>107</ele>
        <time>2014-04-16T11:21:56Z</time>
      </trkpt>
      <trkpt lat="47.68951" lon="3.66978">
        <ele>107</ele>
        <time>2014-04-16T11:22:00Z</time>
      </trkpt>
      <trkpt lat="47.68946" lon="3.66982">
        <ele>107</ele>
        <time>2014-04-16T11:22:05Z</time>
      </trkpt>
      <trkpt lat="47.68942" lon="3.66996">
        <ele>107</ele>
        <time>2014-04-16T11:22:16Z</time>
      </trkpt>
      <trkpt lat="47.68942" lon="3.66996">
        <ele>107</ele>
        <time>2014-04-16T11:22:29Z</time>
      </trkpt>
      <trkpt lat="47.68939" lon="3.67003">
        <ele>107</ele>
        <time>2014-04-16T11:22:34Z</time>
      </trkpt>
      <trkpt lat="47.68936" lon="3.67007">
        <ele>107</ele>
        <time>2014-04-16T11:22:38Z</time>
      </trkpt>
      <trkpt lat="47.68933" lon="3.67014">
        <ele>107</ele>
        <time>2014-04-16T11:22:41Z</time>
      </trkpt>
      <trkpt lat="47.68929" lon="3.67018">
        <ele>107</ele>
        <time>2014-04-16T11:22:44Z</time>
      </trkpt>
      <trkpt lat="47.68921" lon="3.67036">
        <ele>107</ele>
        <time>2014-04-16T11:23:02Z</time>
      </trkpt>
      <trkpt lat="47.6892" lon="3.67043">
        <ele>107</ele>
        <time>2014-04-16T11:23:07Z</time>
      </trkpt>
      <trkpt lat="47.68916" lon="3.67058">
        <ele>107</ele>
        <time>2014-04-16T11:23:15Z</time>
      </trkpt>
      <trkpt lat="47.68913" lon="3.6707">
        <ele>107</ele>
        <time>2014-04-16T11:23:43Z</time>
      </trkpt>
      <trkpt lat="47.68908" lon="3.67083">
        <ele>107</ele>
        <time>2014-04-16T11:23:51Z</time>
      </trkpt>
      <trkpt lat="47.68905" lon="3.67089">
        <ele>107</ele>
        <time>2014-04-16T11:23:56Z</time>
      </trkpt>
      <trkpt lat="47.68903" lon="3.67096">
        <ele>107</ele>
        <time>2014-04-16T11:23:59Z</time>
      </trkpt>
      <trkpt lat="47.68899" lon="3.67102">
        <ele>107</ele>
        <time>2014-04-16T11:24:06Z</time>
      </trkpt>
      <trkpt lat="47.68876" lon="3.67154">
        <ele>106</ele>
        <time>2014-04-16T11:24:47Z</time>
      </trkpt>
      <trkpt lat="47.68871" lon="3.67177">
        <ele>106</ele>
        <time>2014-04-16T11:25:21Z</time>
      </trkpt>
      <trkpt lat="47.68871" lon="3.67191">
        <ele>106</ele>
        <time>2014-04-16T11:25:30Z</time>
      </trkpt>
      <trkpt lat="47.68867" lon="3.67194">
        <ele>106</ele>
        <time>2014-04-16T11:25:36Z</time>
      </trkpt>
      <trkpt lat="47.68864" lon="3.67199">
        <ele>106</ele>
        <time>2014-04-16T11:25:41Z</time>
      </trkpt>
      <trkpt lat="47.68864" lon="3.67206">
        <ele>106</ele>
        <time>2014-04-16T11:25:46Z</time>
      </trkpt>
      <trkpt lat="47.68863" lon="3.67213">
        <ele>106</ele>
        <time>2014-04-16T11:25:49Z</time>
      </trkpt>
      <trkpt lat="47.68857" lon="3.67226">
        <ele>106</ele>
        <time>2014-04-16T11:25:56Z</time>
      </trkpt>
      <trkpt lat="47.68848" lon="3.67263">
        <ele>106</ele>
        <time>2014-04-16T11:26:17Z</time>
      </trkpt>
      <trkpt lat="47.68838" lon="3.67274">
        <ele>107</ele>
        <time>2014-04-16T11:26:28Z</time>
      </trkpt>
      <trkpt lat="47.68831" lon="3.67292">
        <ele>107</ele>
        <time>2014-04-16T11:26:39Z</time>
      </trkpt>
      <trkpt lat="47.68819" lon="3.6735">
        <ele>108</ele>
        <time>2014-04-16T11:27:11Z</time>
      </trkpt>
      <trkpt lat="47.68818" lon="3.67358">
        <ele>108</ele>
        <time>2014-04-16T11:27:17Z</time>
      </trkpt>
      <trkpt lat="47.68814" lon="3.67363">
        <ele>108</ele>
        <time>2014-04-16T11:27:20Z</time>
      </trkpt>
      <trkpt lat="47.6881" lon="3.6737">
        <ele>108</ele>
        <time>2014-04-16T11:27:24Z</time>
      </trkpt>
      <trkpt lat="47.68807" lon="3.67391">
        <ele>107</ele>
        <time>2014-04-16T11:27:37Z</time>
      </trkpt>
      <trkpt lat="47.68801" lon="3.67404">
        <ele>107</ele>
        <time>2014-04-16T11:27:48Z</time>
      </trkpt>
      <trkpt lat="47.68799" lon="3.67411">
        <ele>107</ele>
        <time>2014-04-16T11:27:52Z</time>
      </trkpt>
      <trkpt lat="47.68798" lon="3.6742">
        <ele>107</ele>
        <time>2014-04-16T11:27:56Z</time>
      </trkpt>
      <trkpt lat="47.68796" lon="3.67427">
        <ele>107</ele>
        <time>2014-04-16T11:28:02Z</time>
      </trkpt>
      <trkpt lat="47.68793" lon="3.67433">
        <ele>107</ele>
        <time>2014-04-16T11:28:06Z</time>
      </trkpt>
      <trkpt lat="47.68777" lon="3.67474">
        <ele>107</ele>
        <time>2014-04-16T11:28:34Z</time>
      </trkpt>
      <trkpt lat="47.68776" lon="3.67481">
        <ele>107</ele>
        <time>2014-04-16T11:28:37Z</time>
      </trkpt>
      <trkpt lat="47.68774" lon="3.67488">
        <ele>107</ele>
        <time>2014-04-16T11:28:42Z</time>
      </trkpt>
      <trkpt lat="47.68771" lon="3.67494">
        <ele>107</ele>
        <time>2014-04-16T11:28:46Z</time>
      </trkpt>
      <trkpt lat="47.68773" lon="3.67501">
        <ele>107</ele>
        <time>2014-04-16T11:29:05Z</time>
      </trkpt>
      <trkpt lat="47.68764" lon="3.67535">
        <ele>107</ele>
        <time>2014-04-16T11:29:43Z</time>
      </trkpt>
      <trkpt lat="47.68762" lon="3.67541">
        <ele>107</ele>
        <time>2014-04-16T11:29:46Z</time>
      </trkpt>
      <trkpt lat="47.6876" lon="3.67549">
        <ele>107</ele>
        <time>2014-04-16T11:29:52Z</time>
      </trkpt>
      <trkpt lat="47.68758" lon="3.67555">
        <ele>108</ele>
        <time>2014-04-16T11:29:56Z</time>
      </trkpt>
      <trkpt lat="47.68756" lon="3.67562">
        <ele>108</ele>
        <time>2014-04-16T11:29:59Z</time>
      </trkpt>
      <trkpt lat="47.68753" lon="3.67567">
        <ele>108</ele>
        <time>2014-04-16T11:30:08Z</time>
      </trkpt>
      <trkpt lat="47.68744" lon="3.67604">
        <ele>109</ele>
        <time>2014-04-16T11:30:31Z</time>
      </trkpt>
      <trkpt lat="47.68744" lon="3.67611">
        <ele>109</ele>
        <time>2014-04-16T11:30:36Z</time>
      </trkpt>
      <trkpt lat="47.68741" lon="3.67618">
        <ele>109</ele>
        <time>2014-04-16T11:30:41Z</time>
      </trkpt>
      <trkpt lat="47.68736" lon="3.67618">
        <ele>109</ele>
        <time>2014-04-16T11:30:43Z</time>
      </trkpt>
      <trkpt lat="47.68732" lon="3.67624">
        <ele>109</ele>
        <time>2014-04-16T11:30:48Z</time>
      </trkpt>
      <trkpt lat="47.68731" lon="3.67632">
        <ele>109</ele>
        <time>2014-04-16T11:30:52Z</time>
      </trkpt>
      <trkpt lat="47.68726" lon="3.67646">
        <ele>109</ele>
        <time>2014-04-16T11:30:59Z</time>
      </trkpt>
      <trkpt lat="47.68724" lon="3.6766">
        <ele>109</ele>
        <time>2014-04-16T11:31:07Z</time>
      </trkpt>
      <trkpt lat="47.6871" lon="3.67699">
        <ele>108</ele>
        <time>2014-04-16T11:31:31Z</time>
      </trkpt>
      <trkpt lat="47.68706" lon="3.67721">
        <ele>108</ele>
        <time>2014-04-16T11:31:44Z</time>
      </trkpt>
      <trkpt lat="47.68702" lon="3.67735">
        <ele>108</ele>
        <time>2014-04-16T11:31:51Z</time>
      </trkpt>
      <trkpt lat="47.68698" lon="3.6775">
        <ele>108</ele>
        <time>2014-04-16T11:31:58Z</time>
      </trkpt>
      <trkpt lat="47.68668" lon="3.67843">
        <ele>107</ele>
        <time>2014-04-16T11:32:58Z</time>
      </trkpt>
      <trkpt lat="47.68667" lon="3.6785">
        <ele>107</ele>
        <time>2014-04-16T11:33:03Z</time>
      </trkpt>
      <trkpt lat="47.68661" lon="3.67869">
        <ele>107</ele>
        <time>2014-04-16T11:33:14Z</time>
      </trkpt>
      <trkpt lat="47.68662" lon="3.67877">
        <ele>107</ele>
        <time>2014-04-16T11:33:40Z</time>
      </trkpt>
      <trkpt lat="47.6866" lon="3.67885">
        <ele>107</ele>
        <time>2014-04-16T11:33:43Z</time>
      </trkpt>
      <trkpt lat="47.68654" lon="3.67897">
        <ele>106</ele>
        <time>2014-04-16T11:33:55Z</time>
      </trkpt>
      <trkpt lat="47.68654" lon="3.67905">
        <ele>106</ele>
        <time>2014-04-16T11:34:01Z</time>
      </trkpt>
      <trkpt lat="47.68652" lon="3.67912">
        <ele>106</ele>
        <time>2014-04-16T11:34:06Z</time>
      </trkpt>
      <trkpt lat="47.68648" lon="3.67918">
        <ele>106</ele>
        <time>2014-04-16T11:34:10Z</time>
      </trkpt>
      <trkpt lat="47.68644" lon="3.67923">
        <ele>106</ele>
        <time>2014-04-16T11:34:14Z</time>
      </trkpt>
      <trkpt lat="47.6864" lon="3.6793">
        <ele>106</ele>
        <time>2014-04-16T11:34:18Z</time>
      </trkpt>
      <trkpt lat="47.68635" lon="3.67951">
        <ele>106</ele>
        <time>2014-04-16T11:34:31Z</time>
      </trkpt>
      <trkpt lat="47.68632" lon="3.67957">
        <ele>106</ele>
        <time>2014-04-16T11:34:34Z</time>
      </trkpt>
      <trkpt lat="47.68624" lon="3.67966">
        <ele>107</ele>
        <time>2014-04-16T11:34:46Z</time>
      </trkpt>
      <trkpt lat="47.6862" lon="3.67973">
        <ele>107</ele>
        <time>2014-04-16T11:34:50Z</time>
      </trkpt>
      <trkpt lat="47.68618" lon="3.67979">
        <ele>107</ele>
        <time>2014-04-16T11:34:54Z</time>
      </trkpt>
      <trkpt lat="47.68609" lon="3.67989">
        <ele>107</ele>
        <time>2014-04-16T11:35:03Z</time>
      </trkpt>
      <trkpt lat="47.68597" lon="3.68003">
        <ele>107</ele>
        <time>2014-04-16T11:35:14Z</time>
      </trkpt>
      <trkpt lat="47.68593" lon="3.68005">
        <ele>107</ele>
        <time>2014-04-16T11:35:16Z</time>
      </trkpt>
      <trkpt lat="47.68586" lon="3.68006">
        <ele>107</ele>
        <time>2014-04-16T11:35:26Z</time>
      </trkpt>
      <trkpt lat="47.68582" lon="3.68007">
        <ele>107</ele>
        <time>2014-04-16T11:35:31Z</time>
      </trkpt>
      <trkpt lat="47.68577" lon="3.6801">
        <ele>107</ele>
        <time>2014-04-16T11:35:35Z</time>
      </trkpt>
      <trkpt lat="47.68573" lon="3.68014">
        <ele>107</ele>
        <time>2014-04-16T11:35:40Z</time>
      </trkpt>
      <trkpt lat="47.68554" lon="3.68028">
        <ele>107</ele>
        <time>2014-04-16T11:36:00Z</time>
      </trkpt>
      <trkpt lat="47.68543" lon="3.68043">
        <ele>107</ele>
        <time>2014-04-16T11:36:08Z</time>
      </trkpt>
      <trkpt lat="47.68538" lon="3.68046">
        <ele>107</ele>
        <time>2014-04-16T11:36:11Z</time>
      </trkpt>
      <trkpt lat="47.68533" lon="3.68048">
        <ele>107</ele>
        <time>2014-04-16T11:36:13Z</time>
      </trkpt>
      <trkpt lat="47.68529" lon="3.68052">
        <ele>107</ele>
        <time>2014-04-16T11:36:17Z</time>
      </trkpt>
      <trkpt lat="47.68525" lon="3.68057">
        <ele>107</ele>
        <time>2014-04-16T11:36:24Z</time>
      </trkpt>
      <trkpt lat="47.68521" lon="3.68058">
        <ele>107</ele>
        <time>2014-04-16T11:36:28Z</time>
      </trkpt>
      <trkpt lat="47.68515" lon="3.68061">
        <ele>107</ele>
        <time>2014-04-16T11:36:32Z</time>
      </trkpt>
      <trkpt lat="47.68509" lon="3.6806">
        <ele>107</ele>
        <time>2014-04-16T11:36:37Z</time>
      </trkpt>
      <trkpt lat="47.6849" lon="3.68084">
        <ele>107</ele>
        <time>2014-04-16T11:36:55Z</time>
      </trkpt>
      <trkpt lat="47.68486" lon="3.68088">
        <ele>107</ele>
        <time>2014-04-16T11:37:00Z</time>
      </trkpt>
      <trkpt lat="47.68478" lon="3.68098">
        <ele>107</ele>
        <time>2014-04-16T11:37:06Z</time>
      </trkpt>
      <trkpt lat="47.68469" lon="3.68104">
        <ele>107</ele>
        <time>2014-04-16T11:37:15Z</time>
      </trkpt>
      <trkpt lat="47.68464" lon="3.68106">
        <ele>107</ele>
        <time>2014-04-16T11:37:20Z</time>
      </trkpt>
      <trkpt lat="47.68457" lon="3.68115">
        <ele>107</ele>
        <time>2014-04-16T11:37:28Z</time>
      </trkpt>
      <trkpt lat="47.68452" lon="3.68116">
        <ele>107</ele>
        <time>2014-04-16T11:37:35Z</time>
      </trkpt>
      <trkpt lat="47.68447" lon="3.68119">
        <ele>107</ele>
        <time>2014-04-16T11:37:37Z</time>
      </trkpt>
      <trkpt lat="47.68443" lon="3.68123">
        <ele>107</ele>
        <time>2014-04-16T11:37:43Z</time>
      </trkpt>
      <trkpt lat="47.68439" lon="3.68124">
        <ele>107</ele>
        <time>2014-04-16T11:37:49Z</time>
      </trkpt>
      <trkpt lat="47.68434" lon="3.68127">
        <ele>107</ele>
        <time>2014-04-16T11:37:55Z</time>
      </trkpt>
      <trkpt lat="47.68426" lon="3.68137">
        <ele>107</ele>
        <time>2014-04-16T11:38:01Z</time>
      </trkpt>
      <trkpt lat="47.68422" lon="3.6814">
        <ele>107</ele>
        <time>2014-04-16T11:38:05Z</time>
      </trkpt>
      <trkpt lat="47.6841" lon="3.68155">
        <ele>108</ele>
        <time>2014-04-16T11:38:16Z</time>
      </trkpt>
      <trkpt lat="47.68405" lon="3.68159">
        <ele>108</ele>
        <time>2014-04-16T11:38:20Z</time>
      </trkpt>
      <trkpt lat="47.68396" lon="3.68164">
        <ele>108</ele>
        <time>2014-04-16T11:38:27Z</time>
      </trkpt>
      <trkpt lat="47.68392" lon="3.68168">
        <ele>108</ele>
        <time>2014-04-16T11:38:31Z</time>
      </trkpt>
      <trkpt lat="47.68393" lon="3.6817">
        <ele>108</ele>
        <time>2014-04-16T11:39:28Z</time>
      </trkpt>
      <trkpt lat="47.68388" lon="3.68173">
        <ele>108</ele>
        <time>2014-04-16T11:39:42Z</time>
      </trkpt>
      <trkpt lat="47.68388" lon="3.68168">
        <ele>108</ele>
        <time>2014-04-16T11:40:19Z</time>
      </trkpt>
      <trkpt lat="47.68383" lon="3.6817">
        <ele>108</ele>
        <time>2014-04-16T11:40:46Z</time>
      </trkpt>
      <trkpt lat="47.68376" lon="3.68183">
        <ele>108</ele>
        <time>2014-04-16T11:40:55Z</time>
      </trkpt>
      <trkpt lat="47.68372" lon="3.68186">
        <ele>109</ele>
        <time>2014-04-16T11:40:59Z</time>
      </trkpt>
      <trkpt lat="47.68367" lon="3.68187">
        <ele>109</ele>
        <time>2014-04-16T11:41:05Z</time>
      </trkpt>
      <trkpt lat="47.68357" lon="3.68194">
        <ele>109</ele>
        <time>2014-04-16T11:41:14Z</time>
      </trkpt>
      <trkpt lat="47.68352" lon="3.68195">
        <ele>109</ele>
        <time>2014-04-16T11:41:18Z</time>
      </trkpt>
      <trkpt lat="47.68347" lon="3.68198">
        <ele>109</ele>
        <time>2014-04-16T11:41:22Z</time>
      </trkpt>
      <trkpt lat="47.68339" lon="3.68205">
        <ele>109</ele>
        <time>2014-04-16T11:41:30Z</time>
      </trkpt>
      <trkpt lat="47.68334" lon="3.68209">
        <ele>109</ele>
        <time>2014-04-16T11:41:33Z</time>
      </trkpt>
      <trkpt lat="47.6833" lon="3.68212">
        <ele>110</ele>
        <time>2014-04-16T11:41:36Z</time>
      </trkpt>
      <trkpt lat="47.68325" lon="3.68215">
        <ele>110</ele>
        <time>2014-04-16T11:41:39Z</time>
      </trkpt>
      <trkpt lat="47.6832" lon="3.68216">
        <ele>110</ele>
        <time>2014-04-16T11:41:44Z</time>
      </trkpt>
      <trkpt lat="47.68306" lon="3.68224">
        <ele>110</ele>
        <time>2014-04-16T11:41:56Z</time>
      </trkpt>
      <trkpt lat="47.68301" lon="3.68226">
        <ele>110</ele>
        <time>2014-04-16T11:42:01Z</time>
      </trkpt>
      <trkpt lat="47.68295" lon="3.68232">
        <ele>110</ele>
        <time>2014-04-16T11:42:25Z</time>
      </trkpt>
      <trkpt lat="47.68285" lon="3.68238">
        <ele>110</ele>
        <time>2014-04-16T11:42:34Z</time>
      </trkpt>
      <trkpt lat="47.6828" lon="3.6824">
        <ele>109</ele>
        <time>2014-04-16T11:42:39Z</time>
      </trkpt>
      <trkpt lat="47.68275" lon="3.68243">
        <ele>109</ele>
        <time>2014-04-16T11:42:44Z</time>
      </trkpt>
      <trkpt lat="47.6827" lon="3.68245">
        <ele>109</ele>
        <time>2014-04-16T11:42:48Z</time>
      </trkpt>
      <trkpt lat="47.68265" lon="3.68248">
        <ele>109</ele>
        <time>2014-04-16T11:42:52Z</time>
      </trkpt>
      <trkpt lat="47.6826" lon="3.68252">
        <ele>109</ele>
        <time>2014-04-16T11:42:56Z</time>
      </trkpt>
      <trkpt lat="47.68256" lon="3.68253">
        <ele>109</ele>
        <time>2014-04-16T11:43:01Z</time>
      </trkpt>
      <trkpt lat="47.68247" lon="3.68257">
        <ele>109</ele>
        <time>2014-04-16T11:43:09Z</time>
      </trkpt>
      <trkpt lat="47.68242" lon="3.68257">
        <ele>109</ele>
        <time>2014-04-16T11:43:12Z</time>
      </trkpt>
      <trkpt lat="47.6824" lon="3.68256">
        <ele>109</ele>
        <time>2014-04-16T11:43:18Z</time>
      </trkpt>
      <trkpt lat="47.68234" lon="3.68243">
        <ele>110</ele>
        <time>2014-04-16T11:43:30Z</time>
      </trkpt>
      <trkpt lat="47.68234" lon="3.68236">
        <ele>110</ele>
        <time>2014-04-16T11:43:34Z</time>
      </trkpt>
      <trkpt lat="47.68233" lon="3.68229">
        <ele>110</ele>
        <time>2014-04-16T11:43:40Z</time>
      </trkpt>
      <trkpt lat="47.6823" lon="3.68223">
        <ele>110</ele>
        <time>2014-04-16T11:43:44Z</time>
      </trkpt>
      <trkpt lat="47.68225" lon="3.68225">
        <ele>110</ele>
        <time>2014-04-16T11:43:48Z</time>
      </trkpt>
      <trkpt lat="47.68225" lon="3.68233">
        <ele>110</ele>
        <time>2014-04-16T11:43:53Z</time>
      </trkpt>
      <trkpt lat="47.68226" lon="3.6824">
        <ele>110</ele>
        <time>2014-04-16T11:43:56Z</time>
      </trkpt>
      <trkpt lat="47.68225" lon="3.68254">
        <ele>109</ele>
        <time>2014-04-16T11:44:08Z</time>
      </trkpt>
      <trkpt lat="47.68226" lon="3.68268">
        <ele>109</ele>
        <time>2014-04-16T11:44:14Z</time>
      </trkpt>
      <trkpt lat="47.68229" lon="3.68276">
        <ele>109</ele>
        <time>2014-04-16T11:44:20Z</time>
      </trkpt>
      <trkpt lat="47.6823" lon="3.68282">
        <ele>109</ele>
        <time>2014-04-16T11:44:23Z</time>
      </trkpt>
      <trkpt lat="47.68233" lon="3.6829">
        <ele>109</ele>
        <time>2014-04-16T11:44:29Z</time>
      </trkpt>
      <trkpt lat="47.68234" lon="3.68297">
        <ele>109</ele>
        <time>2014-04-16T11:44:32Z</time>
      </trkpt>
      <trkpt lat="47.68237" lon="3.68305">
        <ele>109</ele>
        <time>2014-04-16T11:44:35Z</time>
      </trkpt>
      <trkpt lat="47.68242" lon="3.68311">
        <ele>109</ele>
        <time>2014-04-16T11:44:38Z</time>
      </trkpt>
      <trkpt lat="47.68241" lon="3.68319">
        <ele>109</ele>
        <time>2014-04-16T11:44:45Z</time>
      </trkpt>
      <trkpt lat="47.68244" lon="3.68326">
        <ele>110</ele>
        <time>2014-04-16T11:44:48Z</time>
      </trkpt>
      <trkpt lat="47.6824" lon="3.68336">
        <ele>110</ele>
        <time>2014-04-16T11:44:59Z</time>
      </trkpt>
      <trkpt lat="47.68241" lon="3.68345">
        <ele>110</ele>
        <time>2014-04-16T11:45:01Z</time>
      </trkpt>
      <trkpt lat="47.68245" lon="3.68352">
        <ele>109</ele>
        <time>2014-04-16T11:45:05Z</time>
      </trkpt>
      <trkpt lat="47.68242" lon="3.68359">
        <ele>109</ele>
        <time>2014-04-16T11:45:12Z</time>
      </trkpt>
      <trkpt lat="47.68241" lon="3.68374">
        <ele>109</ele>
        <time>2014-04-16T11:45:18Z</time>
      </trkpt>
      <trkpt lat="47.6824" lon="3.68378">
        <ele>109</ele>
        <time>2014-04-16T11:45:26Z</time>
      </trkpt>
      <trkpt lat="47.68239" lon="3.68394">
        <ele>109</ele>
        <time>2014-04-16T11:45:32Z</time>
      </trkpt>
      <trkpt lat="47.6824" lon="3.684">
        <ele>109</ele>
        <time>2014-04-16T11:45:34Z</time>
      </trkpt>
      <trkpt lat="47.68242" lon="3.68406">
        <ele>110</ele>
        <time>2014-04-16T11:45:38Z</time>
      </trkpt>
      <trkpt lat="47.68237" lon="3.68407">
        <ele>110</ele>
        <time>2014-04-16T11:45:43Z</time>
      </trkpt>
      <trkpt lat="47.68234" lon="3.68407">
        <ele>109</ele>
        <time>2014-04-16T11:45:49Z</time>
      </trkpt>
      <trkpt lat="47.68228" lon="3.6842">
        <ele>109</ele>
        <time>2014-04-16T11:46:01Z</time>
      </trkpt>
      <trkpt lat="47.68227" lon="3.68427">
        <ele>109</ele>
        <time>2014-04-16T11:46:05Z</time>
      </trkpt>
      <trkpt lat="47.68232" lon="3.68428">
        <ele>109</ele>
        <time>2014-04-16T11:46:11Z</time>
      </trkpt>
      <trkpt lat="47.68235" lon="3.68433">
        <ele>109</ele>
        <time>2014-04-16T11:46:37Z</time>
      </trkpt>
      <trkpt lat="47.68235" lon="3.6844">
        <ele>109</ele>
        <time>2014-04-16T11:46:41Z</time>
      </trkpt>
      <trkpt lat="47.68237" lon="3.68447">
        <ele>109</ele>
        <time>2014-04-16T11:46:45Z</time>
      </trkpt>
      <trkpt lat="47.68235" lon="3.6846">
        <ele>109</ele>
        <time>2014-04-16T11:46:53Z</time>
      </trkpt>
      <trkpt lat="47.68236" lon="3.68468">
        <ele>109</ele>
        <time>2014-04-16T11:46:59Z</time>
      </trkpt>
      <trkpt lat="47.68233" lon="3.68474">
        <ele>109</ele>
        <time>2014-04-16T11:47:04Z</time>
      </trkpt>
      <trkpt lat="47.68233" lon="3.68482">
        <ele>109</ele>
        <time>2014-04-16T11:47:09Z</time>
      </trkpt>
      <trkpt lat="47.68236" lon="3.68495">
        <ele>109</ele>
        <time>2014-04-16T11:47:18Z</time>
      </trkpt>
      <trkpt lat="47.68238" lon="3.68502">
        <ele>109</ele>
        <time>2014-04-16T11:47:21Z</time>
      </trkpt>
      <trkpt lat="47.68238" lon="3.6851">
        <ele>109</ele>
        <time>2014-04-16T11:47:25Z</time>
      </trkpt>
      <trkpt lat="47.68239" lon="3.68517">
        <ele>109</ele>
        <time>2014-04-16T11:47:30Z</time>
      </trkpt>
      <trkpt lat="47.68238" lon="3.68525">
        <ele>109</ele>
        <time>2014-04-16T11:47:36Z</time>
      </trkpt>
      <trkpt lat="47.68238" lon="3.68547">
        <ele>109</ele>
        <time>2014-04-16T11:47:50Z</time>
      </trkpt>
      <trkpt lat="47.68244" lon="3.68599">
        <ele>109</ele>
        <time>2014-04-16T11:48:23Z</time>
      </trkpt>
      <trkpt lat="47.68248" lon="3.68621">
        <ele>110</ele>
        <time>2014-04-16T11:48:34Z</time>
      </trkpt>
      <trkpt lat="47.68247" lon="3.68636">
        <ele>110</ele>
        <time>2014-04-16T11:48:41Z</time>
      </trkpt>
      <trkpt lat="47.6825" lon="3.68652">
        <ele>110</ele>
        <time>2014-04-16T11:48:52Z</time>
      </trkpt>
      <trkpt lat="47.6825" lon="3.68683">
        <ele>110</ele>
        <time>2014-04-16T11:49:13Z</time>
      </trkpt>
      <trkpt lat="47.68253" lon="3.68697">
        <ele>110</ele>
        <time>2014-04-16T11:49:21Z</time>
      </trkpt>
      <trkpt lat="47.68251" lon="3.68705">
        <ele>110</ele>
        <time>2014-04-16T11:49:27Z</time>
      </trkpt>
      <trkpt lat="47.6825" lon="3.68727">
        <ele>110</ele>
        <time>2014-04-16T11:49:41Z</time>
      </trkpt>
      <trkpt lat="47.68252" lon="3.68742">
        <ele>111</ele>
        <time>2014-04-16T11:49:51Z</time>
      </trkpt>
      <trkpt lat="47.68252" lon="3.6875">
        <ele>111</ele>
        <time>2014-04-16T11:49:55Z</time>
      </trkpt>
      <trkpt lat="47.6825" lon="3.68756">
        <ele>111</ele>
        <time>2014-04-16T11:49:58Z</time>
      </trkpt>
      <trkpt lat="47.6825" lon="3.68763">
        <ele>111</ele>
        <time>2014-04-16T11:50:02Z</time>
      </trkpt>
      <trkpt lat="47.68252" lon="3.68769">
        <ele>111</ele>
        <time>2014-04-16T11:50:06Z</time>
      </trkpt>
      <trkpt lat="47.6825" lon="3.68775">
        <ele>112</ele>
        <time>2014-04-16T11:50:12Z</time>
      </trkpt>
      <trkpt lat="47.68252" lon="3.6878">
        <ele>111</ele>
        <time>2014-04-16T11:50:21Z</time>
      </trkpt>
      <trkpt lat="47.68256" lon="3.68786">
        <ele>111</ele>
        <time>2014-04-16T11:50:33Z</time>
      </trkpt>
      <trkpt lat="47.68258" lon="3.68792">
        <ele>111</ele>
        <time>2014-04-16T11:50:36Z</time>
      </trkpt>
      <trkpt lat="47.68258" lon="3.688">
        <ele>111</ele>
        <time>2014-04-16T11:50:40Z</time>
      </trkpt>
      <trkpt lat="47.6826" lon="3.68807">
        <ele>111</ele>
        <time>2014-04-16T11:50:43Z</time>
      </trkpt>
      <trkpt lat="47.68267" lon="3.6881">
        <ele>111</ele>
        <time>2014-04-16T11:50:44Z</time>
      </trkpt>
      <trkpt lat="47.68266" lon="3.68818">
        <ele>111</ele>
        <time>2014-04-16T11:50:50Z</time>
      </trkpt>
      <trkpt lat="47.68263" lon="3.68825">
        <ele>111</ele>
        <time>2014-04-16T11:50:54Z</time>
      </trkpt>
      <trkpt lat="47.68262" lon="3.68825">
        <ele>111</ele>
        <time>2014-04-16T11:51:19Z</time>
      </trkpt>
      <trkpt lat="47.68265" lon="3.68831">
        <ele>111</ele>
        <time>2014-04-16T11:51:22Z</time>
      </trkpt>
      <trkpt lat="47.68266" lon="3.68838">
        <ele>112</ele>
        <time>2014-04-16T11:51:25Z</time>
      </trkpt>
      <trkpt lat="47.68271" lon="3.68846">
        <ele>112</ele>
        <time>2014-04-16T11:51:27Z</time>
      </trkpt>
      <trkpt lat="47.68273" lon="3.68851">
        <ele>112</ele>
        <time>2014-04-16T11:51:27Z</time>
      </trkpt>
      <trkpt lat="47.68275" lon="3.68853">
        <ele>112</ele>
        <time>2014-04-16T11:51:28Z</time>
      </trkpt>
      <trkpt lat="47.68278" lon="3.68855">
        <ele>112</ele>
        <time>2014-04-16T11:51:31Z</time>
      </trkpt>
      <trkpt lat="47.68273" lon="3.68861">
        <ele>112</ele>
        <time>2014-04-16T11:51:39Z</time>
      </trkpt>
      <trkpt lat="47.68268" lon="3.68865">
        <ele>112</ele>
        <time>2014-04-16T11:51:43Z</time>
      </trkpt>
      <trkpt lat="47.68266" lon="3.68871">
        <ele>112</ele>
        <time>2014-04-16T11:51:47Z</time>
      </trkpt>
      <trkpt lat="47.68261" lon="3.68873">
        <ele>112</ele>
        <time>2014-04-16T11:51:52Z</time>
      </trkpt>
      <trkpt lat="47.68259" lon="3.68865">
        <ele>112</ele>
        <time>2014-04-16T11:51:55Z</time>
      </trkpt>
      <trkpt lat="47.68268" lon="3.68898">
        <ele>113</ele>
        <time>2014-04-16T11:52:28Z</time>
      </trkpt>
      <trkpt lat="47.68267" lon="3.68905">
        <ele>113</ele>
        <time>2014-04-16T11:52:35Z</time>
      </trkpt>
      <trkpt lat="47.68266" lon="3.6892">
        <ele>114</ele>
        <time>2014-04-16T11:52:43Z</time>
      </trkpt>
      <trkpt lat="47.68267" lon="3.68928">
        <ele>114</ele>
        <time>2014-04-16T11:52:47Z</time>
      </trkpt>
      <trkpt lat="47.68266" lon="3.68935">
        <ele>114</ele>
        <time>2014-04-16T11:52:52Z</time>
      </trkpt>
      <trkpt lat="47.68267" lon="3.68949">
        <ele>115</ele>
        <time>2014-04-16T11:53:03Z</time>
      </trkpt>
      <trkpt lat="47.68267" lon="3.68957">
        <ele>115</ele>
        <time>2014-04-16T11:53:09Z</time>
      </trkpt>
      <trkpt lat="47.68267" lon="3.68964">
        <ele>115</ele>
        <time>2014-04-16T11:53:14Z</time>
      </trkpt>
      <trkpt lat="47.68263" lon="3.68969">
        <ele>115</ele>
        <time>2014-04-16T11:53:19Z</time>
      </trkpt>
      <trkpt lat="47.68254" lon="3.68964">
        <ele>115</ele>
        <time>2014-04-16T11:53:29Z</time>
      </trkpt>
      <trkpt lat="47.6825" lon="3.68959">
        <ele>114</ele>
        <time>2014-04-16T11:53:34Z</time>
      </trkpt>
      <trkpt lat="47.68244" lon="3.68958">
        <ele>114</ele>
        <time>2014-04-16T11:53:39Z</time>
      </trkpt>
      <trkpt lat="47.68234" lon="3.68956">
        <ele>114</ele>
        <time>2014-04-16T11:53:47Z</time>
      </trkpt>
      <trkpt lat="47.68227" lon="3.68958">
        <ele>114</ele>
        <time>2014-04-16T11:53:54Z</time>
      </trkpt>
      <trkpt lat="47.68221" lon="3.68959">
        <ele>114</ele>
        <time>2014-04-16T11:53:57Z</time>
      </trkpt>
      <trkpt lat="47.68217" lon="3.68955">
        <ele>114</ele>
        <time>2014-04-16T11:54:01Z</time>
      </trkpt>
      <trkpt lat="47.68212" lon="3.68957">
        <ele>114</ele>
        <time>2014-04-16T11:54:07Z</time>
      </trkpt>
      <trkpt lat="47.68207" lon="3.6896">
        <ele>114</ele>
        <time>2014-04-16T11:54:12Z</time>
      </trkpt>
      <trkpt lat="47.68202" lon="3.68957">
        <ele>114</ele>
        <time>2014-04-16T11:54:18Z</time>
      </trkpt>
      <trkpt lat="47.68198" lon="3.6896">
        <ele>114</ele>
        <time>2014-04-16T11:54:24Z</time>
      </trkpt>
      <trkpt lat="47.68189" lon="3.68964">
        <ele>114</ele>
        <time>2014-04-16T11:54:31Z</time>
      </trkpt>
      <trkpt lat="47.68172" lon="3.68966">
        <ele>113</ele>
        <time>2014-04-16T11:54:42Z</time>
      </trkpt>
      <trkpt lat="47.68167" lon="3.68966">
        <ele>113</ele>
        <time>2014-04-16T11:54:45Z</time>
      </trkpt>
      <trkpt lat="47.68162" lon="3.68962">
        <ele>113</ele>
        <time>2014-04-16T11:54:48Z</time>
      </trkpt>
      <trkpt lat="47.68167" lon="3.68939">
        <ele>113</ele>
        <time>2014-04-16T11:54:59Z</time>
      </trkpt>
      <trkpt lat="47.6817" lon="3.68932">
        <ele>113</ele>
        <time>2014-04-16T11:55:02Z</time>
      </trkpt>
      <trkpt lat="47.68169" lon="3.68916">
        <ele>113</ele>
        <time>2014-04-16T11:55:12Z</time>
      </trkpt>
      <trkpt lat="47.68168" lon="3.68909">
        <ele>113</ele>
        <time>2014-04-16T11:55:16Z</time>
      </trkpt>
      <trkpt lat="47.68172" lon="3.68894">
        <ele>113</ele>
        <time>2014-04-16T11:55:23Z</time>
      </trkpt>
      <trkpt lat="47.68177" lon="3.68892">
        <ele>113</ele>
        <time>2014-04-16T11:55:29Z</time>
      </trkpt>
      <trkpt lat="47.68183" lon="3.68891">
        <ele>113</ele>
        <time>2014-04-16T11:55:34Z</time>
      </trkpt>
      <trkpt lat="47.68187" lon="3.68894">
        <ele>113</ele>
        <time>2014-04-16T11:55:37Z</time>
      </trkpt>
      <trkpt lat="47.68185" lon="3.68891">
        <ele>113</ele>
        <time>2014-04-16T11:56:20Z</time>
      </trkpt>
      <trkpt lat="47.68183" lon="3.68885">
        <ele>113</ele>
        <time>2014-04-16T11:56:26Z</time>
      </trkpt>
      <trkpt lat="47.68184" lon="3.68886">
        <ele>113</ele>
        <time>2014-04-16T11:56:50Z</time>
      </trkpt>
      <trkpt lat="47.6818" lon="3.68891">
        <ele>113</ele>
        <time>2014-04-16T11:56:54Z</time>
      </trkpt>
      <trkpt lat="47.68175" lon="3.68895">
        <ele>113</ele>
        <time>2014-04-16T11:56:55Z</time>
      </trkpt>
      <trkpt lat="47.6817" lon="3.68907">
        <ele>113</ele>
        <time>2014-04-16T11:57:00Z</time>
      </trkpt>
      <trkpt lat="47.6817" lon="3.68921">
        <ele>113</ele>
        <time>2014-04-16T11:57:04Z</time>
      </trkpt>
      <trkpt lat="47.6817" lon="3.68927">
        <ele>113</ele>
        <time>2014-04-16T11:57:22Z</time>
      </trkpt>
      <trkpt lat="47.68173" lon="3.68934">
        <ele>113</ele>
        <time>2014-04-16T11:57:28Z</time>
      </trkpt>
      <trkpt lat="47.68174" lon="3.68941">
        <ele>113</ele>
        <time>2014-04-16T11:57:33Z</time>
      </trkpt>
      <trkpt lat="47.68172" lon="3.6895">
        <ele>113</ele>
        <time>2014-04-16T11:57:49Z</time>
      </trkpt>
      <trkpt lat="47.68175" lon="3.68957">
        <ele>113</ele>
        <time>2014-04-16T11:57:56Z</time>
      </trkpt>
      <trkpt lat="47.68179" lon="3.68962">
        <ele>114</ele>
        <time>2014-04-16T11:58:02Z</time>
      </trkpt>
      <trkpt lat="47.68183" lon="3.68966">
        <ele>114</ele>
        <time>2014-04-16T11:58:10Z</time>
      </trkpt>
      <trkpt lat="47.68188" lon="3.68969">
        <ele>114</ele>
        <time>2014-04-16T11:58:13Z</time>
      </trkpt>
      <trkpt lat="47.68193" lon="3.6897">
        <ele>114</ele>
        <time>2014-04-16T11:58:16Z</time>
      </trkpt>
      <trkpt lat="47.68197" lon="3.68967">
        <ele>114</ele>
        <time>2014-04-16T11:58:20Z</time>
      </trkpt>
      <trkpt lat="47.68198" lon="3.6896">
        <ele>114</ele>
        <time>2014-04-16T11:58:23Z</time>
      </trkpt>
      <trkpt lat="47.68201" lon="3.68953">
        <ele>114</ele>
        <time>2014-04-16T11:58:27Z</time>
      </trkpt>
      <trkpt lat="47.68205" lon="3.68948">
        <ele>114</ele>
        <time>2014-04-16T11:58:31Z</time>
      </trkpt>
      <trkpt lat="47.68209" lon="3.68935">
        <ele>114</ele>
        <time>2014-04-16T11:58:46Z</time>
      </trkpt>
      <trkpt lat="47.68214" lon="3.68933">
        <ele>114</ele>
        <time>2014-04-16T11:58:51Z</time>
      </trkpt>
      <trkpt lat="47.68218" lon="3.68937">
        <ele>114</ele>
        <time>2014-04-16T11:58:56Z</time>
      </trkpt>
      <trkpt lat="47.6822" lon="3.68944">
        <ele>114</ele>
        <time>2014-04-16T11:58:58Z</time>
      </trkpt>
      <trkpt lat="47.68227" lon="3.6895">
        <ele>114</ele>
        <time>2014-04-16T11:59:08Z</time>
      </trkpt>
      <trkpt lat="47.6823" lon="3.68955">
        <ele>114</ele>
        <time>2014-04-16T11:59:12Z</time>
      </trkpt>
      <trkpt lat="47.68235" lon="3.68958">
        <ele>114</ele>
        <time>2014-04-16T11:59:15Z</time>
      </trkpt>
      <trkpt lat="47.68242" lon="3.68955">
        <ele>114</ele>
        <time>2014-04-16T11:59:17Z</time>
      </trkpt>
      <trkpt lat="47.68247" lon="3.68956">
        <ele>114</ele>
        <time>2014-04-16T11:59:20Z</time>
      </trkpt>
      <trkpt lat="47.68253" lon="3.68958">
        <ele>115</ele>
        <time>2014-04-16T11:59:24Z</time>
      </trkpt>
      <trkpt lat="47.68258" lon="3.68963">
        <ele>115</ele>
        <time>2014-04-16T11:59:28Z</time>
      </trkpt>
      <trkpt lat="47.68261" lon="3.68964">
        <ele>115</ele>
        <time>2014-04-16T11:59:36Z</time>
      </trkpt>
      <trkpt lat="47.68263" lon="3.68961">
        <ele>115</ele>
        <time>2014-04-16T11:59:42Z</time>
      </trkpt>
      <trkpt lat="47.68266" lon="3.6897">
        <ele>115</ele>
        <time>2014-04-16T11:59:47Z</time>
      </trkpt>
      <trkpt lat="47.6827" lon="3.68976">
        <ele>115</ele>
        <time>2014-04-16T11:59:50Z</time>
      </trkpt>
      <trkpt lat="47.68272" lon="3.68982">
        <ele>115</ele>
        <time>2014-04-16T11:59:54Z</time>
      </trkpt>
      <trkpt lat="47.68276" lon="3.68987">
        <ele>115</ele>
        <time>2014-04-16T11:59:58Z</time>
      </trkpt>
      <trkpt lat="47.68277" lon="3.68991">
        <ele>115</ele>
        <time>2014-04-16T12:00:03Z</time>
      </trkpt>
      <trkpt lat="47.68276" lon="3.68998">
        <ele>115</ele>
        <time>2014-04-16T12:00:11Z</time>
      </trkpt>
      <trkpt lat="47.68274" lon="3.69004">
        <ele>116</ele>
        <time>2014-04-16T12:00:40Z</time>
      </trkpt>
      <trkpt lat="47.68277" lon="3.69011">
        <ele>116</ele>
        <time>2014-04-16T12:00:44Z</time>
      </trkpt>
      <trkpt lat="47.68277" lon="3.69019">
        <ele>116</ele>
        <time>2014-04-16T12:00:48Z</time>
      </trkpt>
      <trkpt lat="47.68276" lon="3.69026">
        <ele>116</ele>
        <time>2014-04-16T12:00:54Z</time>
      </trkpt>
      <trkpt lat="47.68276" lon="3.69041">
        <ele>117</ele>
        <time>2014-04-16T12:01:00Z</time>
      </trkpt>
      <trkpt lat="47.68275" lon="3.69048">
        <ele>117</ele>
        <time>2014-04-16T12:01:03Z</time>
      </trkpt>
      <trkpt lat="47.68278" lon="3.69054">
        <ele>117</ele>
        <time>2014-04-16T12:01:10Z</time>
      </trkpt>
      <trkpt lat="47.68282" lon="3.69059">
        <ele>117</ele>
        <time>2014-04-16T12:01:13Z</time>
      </trkpt>
      <trkpt lat="47.68285" lon="3.69063">
        <ele>117</ele>
        <time>2014-04-16T12:01:18Z</time>
      </trkpt>
      <trkpt lat="47.68281" lon="3.69061">
        <ele>117</ele>
        <time>2014-04-16T12:01:53Z</time>
      </trkpt>
      <trkpt lat="47.68281" lon="3.69057">
        <ele>117</ele>
        <time>2014-04-16T12:01:59Z</time>
      </trkpt>
      <trkpt lat="47.6827" lon="3.69061">
        <ele>117</ele>
        <time>2014-04-16T12:02:18Z</time>
      </trkpt>
      <trkpt lat="47.68275" lon="3.69057">
        <ele>117</ele>
        <time>2014-04-16T12:02:48Z</time>
      </trkpt>
      <trkpt lat="47.68284" lon="3.69057">
        <ele>117</ele>
        <time>2014-04-16T12:02:52Z</time>
      </trkpt>
      <trkpt lat="47.68291" lon="3.69058">
        <ele>117</ele>
        <time>2014-04-16T12:02:56Z</time>
      </trkpt>
      <trkpt lat="47.68302" lon="3.69058">
        <ele>117</ele>
        <time>2014-04-16T12:03:06Z</time>
      </trkpt>
      <trkpt lat="47.68306" lon="3.69062">
        <ele>117</ele>
        <time>2014-04-16T12:03:12Z</time>
      </trkpt>
      <trkpt lat="47.68304" lon="3.69066">
        <ele>117</ele>
        <time>2014-04-16T12:03:18Z</time>
      </trkpt>
      <trkpt lat="47.683" lon="3.69068">
        <ele>117</ele>
        <time>2014-04-16T12:03:21Z</time>
      </trkpt>
      <trkpt lat="47.68299" lon="3.6907">
        <ele>117</ele>
        <time>2014-04-16T12:04:06Z</time>
      </trkpt>
      <trkpt lat="47.68297" lon="3.69065">
        <ele>117</ele>
        <time>2014-04-16T12:07:07Z</time>
      </trkpt>
      <trkpt lat="47.6829" lon="3.69065">
        <ele>117</ele>
        <time>2014-04-16T12:15:40Z</time>
      </trkpt>
      <trkpt lat="47.68284" lon="3.69063">
        <ele>117</ele>
        <time>2014-04-16T12:15:54Z</time>
      </trkpt>
      <trkpt lat="47.68281" lon="3.69063">
        <ele>117</ele>
        <time>2014-04-16T12:21:39Z</time>
      </trkpt>
      <trkpt lat="47.6828" lon="3.69063">
        <ele>117</ele>
        <time>2014-04-16T12:22:54Z</time>
      </trkpt>
      <trkpt lat="47.68315" lon="3.6906">
        <ele>117</ele>
        <time>2014-04-16T12:31:22Z</time>
      </trkpt>
      <trkpt lat="47.68308" lon="3.69068">
        <ele>117</ele>
        <time>2014-04-16T12:34:55Z</time>
      </trkpt>
      <trkpt lat="47.68302" lon="3.69069">
        <ele>117</ele>
        <time>2014-04-16T12:37:07Z</time>
      </trkpt>
      <trkpt lat="47.68263" lon="3.69069">
        <ele>116</ele>
        <time>2014-04-16T13:05:46Z</time>
      </trkpt>
      <trkpt lat="47.68274" lon="3.69062">
        <ele>117</ele>
        <time>2014-04-16T13:05:56Z</time>
      </trkpt>
      <trkpt lat="47.68302" lon="3.69075">
        <ele>117</ele>
        <time>2014-04-16T13:06:05Z</time>
      </trkpt>
      <trkpt lat="47.68306" lon="3.69078">
        <ele>117</ele>
        <time>2014-04-16T13:06:08Z</time>
      </trkpt>
      <trkpt lat="47.68307" lon="3.69086">
        <ele>118</ele>
        <time>2014-04-16T13:06:13Z</time>
      </trkpt>
      <trkpt lat="47.68315" lon="3.69094">
        <ele>118</ele>
        <time>2014-04-16T13:06:21Z</time>
      </trkpt>
      <trkpt lat="47.68322" lon="3.69085">
        <ele>119</ele>
        <time>2014-04-16T13:06:28Z</time>
      </trkpt>
      <trkpt lat="47.68328" lon="3.69085">
        <ele>119</ele>
        <time>2014-04-16T13:06:34Z</time>
      </trkpt>
      <trkpt lat="47.68332" lon="3.69087">
        <ele>119</ele>
        <time>2014-04-16T13:06:41Z</time>
      </trkpt>
      <trkpt lat="47.68342" lon="3.69088">
        <ele>120</ele>
        <time>2014-04-16T13:06:52Z</time>
      </trkpt>
      <trkpt lat="47.68346" lon="3.69091">
        <ele>121</ele>
        <time>2014-04-16T13:06:58Z</time>
      </trkpt>
      <trkpt lat="47.68355" lon="3.69089">
        <ele>122</ele>
        <time>2014-04-16T13:07:21Z</time>
      </trkpt>
      <trkpt lat="47.68358" lon="3.69104">
        <ele>122</ele>
        <time>2014-04-16T13:07:32Z</time>
      </trkpt>
      <trkpt lat="47.68354" lon="3.69118">
        <ele>123</ele>
        <time>2014-04-16T13:07:38Z</time>
      </trkpt>
      <trkpt lat="47.68356" lon="3.69111">
        <ele>122</ele>
        <time>2014-04-16T13:07:46Z</time>
      </trkpt>
      <trkpt lat="47.68359" lon="3.69105">
        <ele>122</ele>
        <time>2014-04-16T13:07:50Z</time>
      </trkpt>
      <trkpt lat="47.68365" lon="3.691">
        <ele>123</ele>
        <time>2014-04-16T13:08:01Z</time>
      </trkpt>
      <trkpt lat="47.6837" lon="3.69097">
        <ele>123</ele>
        <time>2014-04-16T13:08:09Z</time>
      </trkpt>
      <trkpt lat="47.68379" lon="3.69098">
        <ele>123</ele>
        <time>2014-04-16T13:08:23Z</time>
      </trkpt>
      <trkpt lat="47.68397" lon="3.69095">
        <ele>124</ele>
        <time>2014-04-16T13:08:52Z</time>
      </trkpt>
      <trkpt lat="47.684" lon="3.69094">
        <ele>125</ele>
        <time>2014-04-16T13:08:59Z</time>
      </trkpt>
      <trkpt lat="47.68402" lon="3.69101">
        <ele>125</ele>
        <time>2014-04-16T13:09:18Z</time>
      </trkpt>
      <trkpt lat="47.68401" lon="3.69106">
        <ele>124</ele>
        <time>2014-04-16T13:09:56Z</time>
      </trkpt>
      <trkpt lat="47.68402" lon="3.69108">
        <ele>124</ele>
        <time>2014-04-16T13:10:45Z</time>
      </trkpt>
      <trkpt lat="47.68399" lon="3.69113">
        <ele>124</ele>
        <time>2014-04-16T13:10:53Z</time>
      </trkpt>
      <trkpt lat="47.6839" lon="3.69119">
        <ele>124</ele>
        <time>2014-04-16T13:11:01Z</time>
      </trkpt>
      <trkpt lat="47.6839" lon="3.69111">
        <ele>124</ele>
        <time>2014-04-16T13:11:10Z</time>
      </trkpt>
      <trkpt lat="47.68394" lon="3.69111">
        <ele>124</ele>
        <time>2014-04-16T13:11:47Z</time>
      </trkpt>
      <trkpt lat="47.68404" lon="3.69112">
        <ele>124</ele>
        <time>2014-04-16T13:11:59Z</time>
      </trkpt>
      <trkpt lat="47.68407" lon="3.69111">
        <ele>125</ele>
        <time>2014-04-16T13:12:05Z</time>
      </trkpt>
      <trkpt lat="47.68394" lon="3.6914">
        <ele>125</ele>
        <time>2014-04-16T13:14:32Z</time>
      </trkpt>
      <trkpt lat="47.6839" lon="3.69136">
        <ele>124</ele>
        <time>2014-04-16T13:14:38Z</time>
      </trkpt>
      <trkpt lat="47.6839" lon="3.69128">
        <ele>124</ele>
        <time>2014-04-16T13:14:42Z</time>
      </trkpt>
      <trkpt lat="47.68388" lon="3.69122">
        <ele>124</ele>
        <time>2014-04-16T13:14:46Z</time>
      </trkpt>
      <trkpt lat="47.68384" lon="3.69117">
        <ele>124</ele>
        <time>2014-04-16T13:14:54Z</time>
      </trkpt>
      <trkpt lat="47.68379" lon="3.69115">
        <ele>124</ele>
        <time>2014-04-16T13:15:00Z</time>
      </trkpt>
      <trkpt lat="47.68374" lon="3.69115">
        <ele>123</ele>
        <time>2014-04-16T13:15:05Z</time>
      </trkpt>
      <trkpt lat="47.6837" lon="3.69117">
        <ele>123</ele>
        <time>2014-04-16T13:15:10Z</time>
      </trkpt>
      <trkpt lat="47.68364" lon="3.69118">
        <ele>123</ele>
        <time>2014-04-16T13:15:14Z</time>
      </trkpt>
      <trkpt lat="47.6836" lon="3.69117">
        <ele>123</ele>
        <time>2014-04-16T13:15:19Z</time>
      </trkpt>
      <trkpt lat="47.6835" lon="3.69113">
        <ele>122</ele>
        <time>2014-04-16T13:15:28Z</time>
      </trkpt>
      <trkpt lat="47.68346" lon="3.69108">
        <ele>122</ele>
        <time>2014-04-16T13:15:34Z</time>
      </trkpt>
      <trkpt lat="47.6834" lon="3.69107">
        <ele>122</ele>
        <time>2014-04-16T13:15:41Z</time>
      </trkpt>
      <trkpt lat="47.68338" lon="3.69101">
        <ele>121</ele>
        <time>2014-04-16T13:15:45Z</time>
      </trkpt>
      <trkpt lat="47.68342" lon="3.69097">
        <ele>121</ele>
        <time>2014-04-16T13:15:51Z</time>
      </trkpt>
      <trkpt lat="47.68347" lon="3.69096">
        <ele>121</ele>
        <time>2014-04-16T13:15:57Z</time>
      </trkpt>
      <trkpt lat="47.68345" lon="3.69097">
        <ele>121</ele>
        <time>2014-04-16T13:16:09Z</time>
      </trkpt>
      <trkpt lat="47.68328" lon="3.69083">
        <ele>119</ele>
        <time>2014-04-16T13:16:32Z</time>
      </trkpt>
      <trkpt lat="47.68314" lon="3.69075">
        <ele>118</ele>
        <time>2014-04-16T13:16:45Z</time>
      </trkpt>
      <trkpt lat="47.68308" lon="3.69074">
        <ele>117</ele>
        <time>2014-04-16T13:16:48Z</time>
      </trkpt>
      <trkpt lat="47.683" lon="3.6908">
        <ele>117</ele>
        <time>2014-04-16T13:16:53Z</time>
      </trkpt>
      <trkpt lat="47.68295" lon="3.6908">
        <ele>117</ele>
        <time>2014-04-16T13:17:02Z</time>
      </trkpt>
      <trkpt lat="47.68291" lon="3.69076">
        <ele>117</ele>
        <time>2014-04-16T13:17:08Z</time>
      </trkpt>
      <trkpt lat="47.68282" lon="3.69079">
        <ele>117</ele>
        <time>2014-04-16T13:17:17Z</time>
      </trkpt>
      <trkpt lat="47.68282" lon="3.69074">
        <ele>117</ele>
        <time>2014-04-16T13:17:28Z</time>
      </trkpt>
      <trkpt lat="47.68283" lon="3.69058">
        <ele>117</ele>
        <time>2014-04-16T13:17:34Z</time>
      </trkpt>
      <trkpt lat="47.68282" lon="3.6905">
        <ele>117</ele>
        <time>2014-04-16T13:17:37Z</time>
      </trkpt>
      <trkpt lat="47.68282" lon="3.69035">
        <ele>117</ele>
        <time>2014-04-16T13:17:46Z</time>
      </trkpt>
      <trkpt lat="47.68279" lon="3.69022">
        <ele>116</ele>
        <time>2014-04-16T13:17:55Z</time>
      </trkpt>
      <trkpt lat="47.68279" lon="3.69015">
        <ele>116</ele>
        <time>2014-04-16T13:18:00Z</time>
      </trkpt>
      <trkpt lat="47.68277" lon="3.69009">
        <ele>116</ele>
        <time>2014-04-16T13:18:05Z</time>
      </trkpt>
      <trkpt lat="47.6828" lon="3.69008">
        <ele>116</ele>
        <time>2014-04-16T13:19:09Z</time>
      </trkpt>
      <trkpt lat="47.68274" lon="3.68995">
        <ele>115</ele>
        <time>2014-04-16T13:19:16Z</time>
      </trkpt>
      <trkpt lat="47.68274" lon="3.68986">
        <ele>115</ele>
        <time>2014-04-16T13:19:20Z</time>
      </trkpt>
      <trkpt lat="47.68273" lon="3.68979">
        <ele>115</ele>
        <time>2014-04-16T13:19:22Z</time>
      </trkpt>
      <trkpt lat="47.6827" lon="3.68968">
        <ele>115</ele>
        <time>2014-04-16T13:19:30Z</time>
      </trkpt>
      <trkpt lat="47.68265" lon="3.68966">
        <ele>115</ele>
        <time>2014-04-16T13:19:33Z</time>
      </trkpt>
      <trkpt lat="47.6826" lon="3.68968">
        <ele>115</ele>
        <time>2014-04-16T13:19:38Z</time>
      </trkpt>
      <trkpt lat="47.68255" lon="3.68968">
        <ele>115</ele>
        <time>2014-04-16T13:19:43Z</time>
      </trkpt>
      <trkpt lat="47.68253" lon="3.68962">
        <ele>115</ele>
        <time>2014-04-16T13:19:50Z</time>
      </trkpt>
      <trkpt lat="47.68252" lon="3.68959">
        <ele>115</ele>
        <time>2014-04-16T13:19:57Z</time>
      </trkpt>
      <trkpt lat="47.68245" lon="3.6896">
        <ele>114</ele>
        <time>2014-04-16T13:20:06Z</time>
      </trkpt>
      <trkpt lat="47.68235" lon="3.6896">
        <ele>114</ele>
        <time>2014-04-16T13:20:18Z</time>
      </trkpt>
      <trkpt lat="47.68229" lon="3.68962">
        <ele>114</ele>
        <time>2014-04-16T13:20:24Z</time>
      </trkpt>
      <trkpt lat="47.68225" lon="3.68961">
        <ele>114</ele>
        <time>2014-04-16T13:20:27Z</time>
      </trkpt>
      <trkpt lat="47.68213" lon="3.68956">
        <ele>114</ele>
        <time>2014-04-16T13:20:49Z</time>
      </trkpt>
      <trkpt lat="47.68208" lon="3.68955">
        <ele>114</ele>
        <time>2014-04-16T13:20:53Z</time>
      </trkpt>
      <trkpt lat="47.68203" lon="3.68954">
        <ele>114</ele>
        <time>2014-04-16T13:20:59Z</time>
      </trkpt>
      <trkpt lat="47.68198" lon="3.68957">
        <ele>114</ele>
        <time>2014-04-16T13:21:05Z</time>
      </trkpt>
      <trkpt lat="47.68183" lon="3.68958">
        <ele>114</ele>
        <time>2014-04-16T13:21:18Z</time>
      </trkpt>
      <trkpt lat="47.68173" lon="3.68956">
        <ele>113</ele>
        <time>2014-04-16T13:21:25Z</time>
      </trkpt>
      <trkpt lat="47.68168" lon="3.68954">
        <ele>113</ele>
        <time>2014-04-16T13:21:30Z</time>
      </trkpt>
      <trkpt lat="47.68163" lon="3.68955">
        <ele>113</ele>
        <time>2014-04-16T13:21:49Z</time>
      </trkpt>
      <trkpt lat="47.68158" lon="3.68957">
        <ele>113</ele>
        <time>2014-04-16T13:22:00Z</time>
      </trkpt>
      <trkpt lat="47.68153" lon="3.68955">
        <ele>112</ele>
        <time>2014-04-16T13:22:04Z</time>
      </trkpt>
      <trkpt lat="47.68148" lon="3.68952">
        <ele>112</ele>
        <time>2014-04-16T13:22:08Z</time>
      </trkpt>
      <trkpt lat="47.68144" lon="3.68949">
        <ele>112</ele>
        <time>2014-04-16T13:22:13Z</time>
      </trkpt>
      <trkpt lat="47.68142" lon="3.68955">
        <ele>112</ele>
        <time>2014-04-16T13:22:22Z</time>
      </trkpt>
      <trkpt lat="47.68148" lon="3.68955">
        <ele>112</ele>
        <time>2014-04-16T13:22:33Z</time>
      </trkpt>
      <trkpt lat="47.68146" lon="3.68953">
        <ele>112</ele>
        <time>2014-04-16T13:24:58Z</time>
      </trkpt>
      <trkpt lat="47.68141" lon="3.68956">
        <ele>112</ele>
        <time>2014-04-16T13:25:11Z</time>
      </trkpt>
      <trkpt lat="47.68137" lon="3.6896">
        <ele>112</ele>
        <time>2014-04-16T13:25:16Z</time>
      </trkpt>
      <trkpt lat="47.68133" lon="3.68964">
        <ele>112</ele>
        <time>2014-04-16T13:25:22Z</time>
      </trkpt>
      <trkpt lat="47.68128" lon="3.68984">
        <ele>112</ele>
        <time>2014-04-16T13:25:36Z</time>
      </trkpt>
      <trkpt lat="47.68125" lon="3.6899">
        <ele>112</ele>
        <time>2014-04-16T13:25:40Z</time>
      </trkpt>
      <trkpt lat="47.68123" lon="3.68997">
        <ele>112</ele>
        <time>2014-04-16T13:25:45Z</time>
      </trkpt>
      <trkpt lat="47.68123" lon="3.69005">
        <ele>113</ele>
        <time>2014-04-16T13:25:49Z</time>
      </trkpt>
      <trkpt lat="47.68118" lon="3.69007">
        <ele>113</ele>
        <time>2014-04-16T13:25:53Z</time>
      </trkpt>
      <trkpt lat="47.68112" lon="3.69005">
        <ele>113</ele>
        <time>2014-04-16T13:25:57Z</time>
      </trkpt>
      <trkpt lat="47.68108" lon="3.69008">
        <ele>113</ele>
        <time>2014-04-16T13:26:00Z</time>
      </trkpt>
      <trkpt lat="47.68109" lon="3.69013">
        <ele>113</ele>
        <time>2014-04-16T13:26:22Z</time>
      </trkpt>
      <trkpt lat="47.68111" lon="3.69014">
        <ele>113</ele>
        <time>2014-04-16T13:26:46Z</time>
      </trkpt>
      <trkpt lat="47.68114" lon="3.69015">
        <ele>113</ele>
        <time>2014-04-16T13:26:58Z</time>
      </trkpt>
      <trkpt lat="47.68126" lon="3.69027">
        <ele>113</ele>
        <time>2014-04-16T13:27:11Z</time>
      </trkpt>
      <trkpt lat="47.68127" lon="3.69036">
        <ele>113</ele>
        <time>2014-04-16T13:27:19Z</time>
      </trkpt>
      <trkpt lat="47.68126" lon="3.6905">
        <ele>113</ele>
        <time>2014-04-16T13:27:29Z</time>
      </trkpt>
      <trkpt lat="47.6813" lon="3.69049">
        <ele>113</ele>
        <time>2014-04-16T13:27:53Z</time>
      </trkpt>
      <trkpt lat="47.68135" lon="3.69053">
        <ele>113</ele>
        <time>2014-04-16T13:27:59Z</time>
      </trkpt>
      <trkpt lat="47.6814" lon="3.69057">
        <ele>113</ele>
        <time>2014-04-16T13:28:03Z</time>
      </trkpt>
      <trkpt lat="47.68144" lon="3.69061">
        <ele>113</ele>
        <time>2014-04-16T13:28:07Z</time>
      </trkpt>
      <trkpt lat="47.68151" lon="3.69072">
        <ele>113</ele>
        <time>2014-04-16T13:28:16Z</time>
      </trkpt>
      <trkpt lat="47.6816" lon="3.69081">
        <ele>114</ele>
        <time>2014-04-16T13:28:24Z</time>
      </trkpt>
      <trkpt lat="47.68157" lon="3.69081">
        <ele>114</ele>
        <time>2014-04-16T13:28:43Z</time>
      </trkpt>
      <trkpt lat="47.68147" lon="3.69077">
        <ele>113</ele>
        <time>2014-04-16T13:28:52Z</time>
      </trkpt>
      <trkpt lat="47.68143" lon="3.69076">
        <ele>113</ele>
        <time>2014-04-16T13:28:56Z</time>
      </trkpt>
      <trkpt lat="47.68138" lon="3.69079">
        <ele>113</ele>
        <time>2014-04-16T13:29:00Z</time>
      </trkpt>
      <trkpt lat="47.68134" lon="3.69076">
        <ele>113</ele>
        <time>2014-04-16T13:29:04Z</time>
      </trkpt>
      <trkpt lat="47.68131" lon="3.69071">
        <ele>113</ele>
        <time>2014-04-16T13:29:07Z</time>
      </trkpt>
      <trkpt lat="47.68128" lon="3.69065">
        <ele>113</ele>
        <time>2014-04-16T13:29:10Z</time>
      </trkpt>
      <trkpt lat="47.68122" lon="3.69065">
        <ele>113</ele>
        <time>2014-04-16T13:29:15Z</time>
      </trkpt>
      <trkpt lat="47.68114" lon="3.69058">
        <ele>113</ele>
        <time>2014-04-16T13:29:23Z</time>
      </trkpt>
      <trkpt lat="47.68109" lon="3.69054">
        <ele>113</ele>
        <time>2014-04-16T13:29:27Z</time>
      </trkpt>
      <trkpt lat="47.68105" lon="3.69051">
        <ele>113</ele>
        <time>2014-04-16T13:29:32Z</time>
      </trkpt>
      <trkpt lat="47.681" lon="3.69051">
        <ele>113</ele>
        <time>2014-04-16T13:29:39Z</time>
      </trkpt>
      <trkpt lat="47.68096" lon="3.69058">
        <ele>113</ele>
        <time>2014-04-16T13:29:44Z</time>
      </trkpt>
      <trkpt lat="47.68095" lon="3.69064">
        <ele>113</ele>
        <time>2014-04-16T13:29:47Z</time>
      </trkpt>
      <trkpt lat="47.68094" lon="3.69073">
        <ele>113</ele>
        <time>2014-04-16T13:29:50Z</time>
      </trkpt>
      <trkpt lat="47.68092" lon="3.69079">
        <ele>113</ele>
        <time>2014-04-16T13:29:54Z</time>
      </trkpt>
      <trkpt lat="47.68087" lon="3.69084">
        <ele>113</ele>
        <time>2014-04-16T13:29:58Z</time>
      </trkpt>
      <trkpt lat="47.68084" lon="3.6909">
        <ele>113</ele>
        <time>2014-04-16T13:30:03Z</time>
      </trkpt>
      <trkpt lat="47.68083" lon="3.69098">
        <ele>114</ele>
        <time>2014-04-16T13:30:08Z</time>
      </trkpt>
      <trkpt lat="47.68085" lon="3.69104">
        <ele>114</ele>
        <time>2014-04-16T13:30:13Z</time>
      </trkpt>
      <trkpt lat="47.68083" lon="3.69111">
        <ele>114</ele>
        <time>2014-04-16T13:30:19Z</time>
      </trkpt>
      <trkpt lat="47.68079" lon="3.69118">
        <ele>114</ele>
        <time>2014-04-16T13:30:24Z</time>
      </trkpt>
      <trkpt lat="47.68075" lon="3.69131">
        <ele>114</ele>
        <time>2014-04-16T13:30:32Z</time>
      </trkpt>
      <trkpt lat="47.68071" lon="3.69136">
        <ele>114</ele>
        <time>2014-04-16T13:30:35Z</time>
      </trkpt>
      <trkpt lat="47.68066" lon="3.69139">
        <ele>114</ele>
        <time>2014-04-16T13:30:38Z</time>
      </trkpt>
      <trkpt lat="47.68052" lon="3.69148">
        <ele>114</ele>
        <time>2014-04-16T13:30:51Z</time>
      </trkpt>
      <trkpt lat="47.6805" lon="3.69154">
        <ele>114</ele>
        <time>2014-04-16T13:30:57Z</time>
      </trkpt>
      <trkpt lat="47.68037" lon="3.69163">
        <ele>114</ele>
        <time>2014-04-16T13:31:05Z</time>
      </trkpt>
      <trkpt lat="47.68034" lon="3.69169">
        <ele>117</ele>
        <time>2014-04-16T13:31:09Z</time>
      </trkpt>
      <trkpt lat="47.68034" lon="3.69176">
        <ele>117</ele>
        <time>2014-04-16T13:31:13Z</time>
      </trkpt>
      <trkpt lat="47.68031" lon="3.69182">
        <ele>117</ele>
        <time>2014-04-16T13:31:19Z</time>
      </trkpt>
      <trkpt lat="47.68026" lon="3.69186">
        <ele>117</ele>
        <time>2014-04-16T13:31:23Z</time>
      </trkpt>
      <trkpt lat="47.68022" lon="3.69188">
        <ele>117</ele>
        <time>2014-04-16T13:31:27Z</time>
      </trkpt>
      <trkpt lat="47.68018" lon="3.69194">
        <ele>117</ele>
        <time>2014-04-16T13:31:31Z</time>
      </trkpt>
      <trkpt lat="47.68015" lon="3.69199">
        <ele>118</ele>
        <time>2014-04-16T13:31:35Z</time>
      </trkpt>
      <trkpt lat="47.68012" lon="3.69205">
        <ele>118</ele>
        <time>2014-04-16T13:31:40Z</time>
      </trkpt>
      <trkpt lat="47.68006" lon="3.69232">
        <ele>120</ele>
        <time>2014-04-16T13:31:57Z</time>
      </trkpt>
      <trkpt lat="47.68004" lon="3.69238">
        <ele>120</ele>
        <time>2014-04-16T13:32:01Z</time>
      </trkpt>
      <trkpt lat="47.68" lon="3.69251">
        <ele>122</ele>
        <time>2014-04-16T13:32:12Z</time>
      </trkpt>
      <trkpt lat="47.67998" lon="3.69258">
        <ele>124</ele>
        <time>2014-04-16T13:32:19Z</time>
      </trkpt>
      <trkpt lat="47.67993" lon="3.69263">
        <ele>125</ele>
        <time>2014-04-16T13:32:23Z</time>
      </trkpt>
      <trkpt lat="47.67991" lon="3.69268">
        <ele>126</ele>
        <time>2014-04-16T13:32:28Z</time>
      </trkpt>
      <trkpt lat="47.67986" lon="3.69273">
        <ele>127</ele>
        <time>2014-04-16T13:32:36Z</time>
      </trkpt>
      <trkpt lat="47.67981" lon="3.69276">
        <ele>128</ele>
        <time>2014-04-16T13:32:40Z</time>
      </trkpt>
      <trkpt lat="47.67983" lon="3.69282">
        <ele>128</ele>
        <time>2014-04-16T13:32:57Z</time>
      </trkpt>
      <trkpt lat="47.67982" lon="3.69288">
        <ele>129</ele>
        <time>2014-04-16T13:33:29Z</time>
      </trkpt>
      <trkpt lat="47.67978" lon="3.69291">
        <ele>129</ele>
        <time>2014-04-16T13:33:34Z</time>
      </trkpt>
      <trkpt lat="47.67973" lon="3.69291">
        <ele>129</ele>
        <time>2014-04-16T13:33:38Z</time>
      </trkpt>
      <trkpt lat="47.67968" lon="3.69291">
        <ele>129</ele>
        <time>2014-04-16T13:33:42Z</time>
      </trkpt>
      <trkpt lat="47.67959" lon="3.69294">
        <ele>129</ele>
        <time>2014-04-16T13:33:53Z</time>
      </trkpt>
      <trkpt lat="47.67954" lon="3.69297">
        <ele>130</ele>
        <time>2014-04-16T13:33:57Z</time>
      </trkpt>
      <trkpt lat="47.67932" lon="3.69311">
        <ele>131</ele>
        <time>2014-04-16T13:34:17Z</time>
      </trkpt>
      <trkpt lat="47.67927" lon="3.69313">
        <ele>132</ele>
        <time>2014-04-16T13:34:21Z</time>
      </trkpt>
      <trkpt lat="47.67922" lon="3.69315">
        <ele>132</ele>
        <time>2014-04-16T13:34:26Z</time>
      </trkpt>
      <trkpt lat="47.67917" lon="3.69316">
        <ele>130</ele>
        <time>2014-04-16T13:34:31Z</time>
      </trkpt>
      <trkpt lat="47.67912" lon="3.69318">
        <ele>131</ele>
        <time>2014-04-16T13:34:36Z</time>
      </trkpt>
      <trkpt lat="47.67907" lon="3.69318">
        <ele>130</ele>
        <time>2014-04-16T13:34:47Z</time>
      </trkpt>
      <trkpt lat="47.67902" lon="3.6932">
        <ele>130</ele>
        <time>2014-04-16T13:34:51Z</time>
      </trkpt>
      <trkpt lat="47.67898" lon="3.69326">
        <ele>130</ele>
        <time>2014-04-16T13:34:55Z</time>
      </trkpt>
      <trkpt lat="47.67896" lon="3.69333">
        <ele>130</ele>
        <time>2014-04-16T13:35:00Z</time>
      </trkpt>
      <trkpt lat="47.67891" lon="3.69334">
        <ele>137</ele>
        <time>2014-04-16T13:35:06Z</time>
      </trkpt>
      <trkpt lat="47.67889" lon="3.6934">
        <ele>137</ele>
        <time>2014-04-16T13:35:11Z</time>
      </trkpt>
      <trkpt lat="47.67888" lon="3.69347">
        <ele>138</ele>
        <time>2014-04-16T13:35:16Z</time>
      </trkpt>
      <trkpt lat="47.67886" lon="3.69354">
        <ele>138</ele>
        <time>2014-04-16T13:35:22Z</time>
      </trkpt>
      <trkpt lat="47.6788" lon="3.69365">
        <ele>139</ele>
        <time>2014-04-16T13:35:33Z</time>
      </trkpt>
      <trkpt lat="47.67873" lon="3.69386">
        <ele>140</ele>
        <time>2014-04-16T13:35:48Z</time>
      </trkpt>
      <trkpt lat="47.6787" lon="3.69391">
        <ele>140</ele>
        <time>2014-04-16T13:35:53Z</time>
      </trkpt>
      <trkpt lat="47.67866" lon="3.69394">
        <ele>140</ele>
        <time>2014-04-16T13:35:57Z</time>
      </trkpt>
      <trkpt lat="47.67861" lon="3.69397">
        <ele>140</ele>
        <time>2014-04-16T13:36:02Z</time>
      </trkpt>
      <trkpt lat="47.67858" lon="3.69403">
        <ele>140</ele>
        <time>2014-04-16T13:36:08Z</time>
      </trkpt>
      <trkpt lat="47.67857" lon="3.69419">
        <ele>150</ele>
        <time>2014-04-16T13:36:17Z</time>
      </trkpt>
      <trkpt lat="47.67848" lon="3.69437">
        <ele>151</ele>
        <time>2014-04-16T13:36:32Z</time>
      </trkpt>
      <trkpt lat="47.67843" lon="3.69439">
        <ele>151</ele>
        <time>2014-04-16T13:36:36Z</time>
      </trkpt>
      <trkpt lat="47.67841" lon="3.69446">
        <ele>152</ele>
        <time>2014-04-16T13:36:41Z</time>
      </trkpt>
      <trkpt lat="47.67842" lon="3.69454">
        <ele>153</ele>
        <time>2014-04-16T13:36:47Z</time>
      </trkpt>
      <trkpt lat="47.67827" lon="3.69481">
        <ele>151</ele>
        <time>2014-04-16T13:37:13Z</time>
      </trkpt>
      <trkpt lat="47.67833" lon="3.69486">
        <ele>153</ele>
        <time>2014-04-16T13:37:21Z</time>
      </trkpt>
      <trkpt lat="47.67834" lon="3.69492">
        <ele>158</ele>
        <time>2014-04-16T13:37:27Z</time>
      </trkpt>
      <trkpt lat="47.67836" lon="3.69506">
        <ele>162</ele>
        <time>2014-04-16T13:37:37Z</time>
      </trkpt>
      <trkpt lat="47.6783" lon="3.69517">
        <ele>161</ele>
        <time>2014-04-16T13:37:46Z</time>
      </trkpt>
      <trkpt lat="47.67826" lon="3.69531">
        <ele>162</ele>
        <time>2014-04-16T13:37:56Z</time>
      </trkpt>
      <trkpt lat="47.67824" lon="3.69545">
        <ele>164</ele>
        <time>2014-04-16T13:38:04Z</time>
      </trkpt>
      <trkpt lat="47.6782" lon="3.69549">
        <ele>165</ele>
        <time>2014-04-16T13:38:09Z</time>
      </trkpt>
      <trkpt lat="47.67815" lon="3.69548">
        <ele>164</ele>
        <time>2014-04-16T13:38:13Z</time>
      </trkpt>
      <trkpt lat="47.67815" lon="3.69554">
        <ele>165</ele>
        <time>2014-04-16T13:38:30Z</time>
      </trkpt>
      <trkpt lat="47.67811" lon="3.69568">
        <ele>167</ele>
        <time>2014-04-16T13:39:00Z</time>
      </trkpt>
      <trkpt lat="47.67808" lon="3.69581">
        <ele>167</ele>
        <time>2014-04-16T13:39:07Z</time>
      </trkpt>
      <trkpt lat="47.67802" lon="3.69592">
        <ele>177</ele>
        <time>2014-04-16T13:39:18Z</time>
      </trkpt>
      <trkpt lat="47.67805" lon="3.69598">
        <ele>177</ele>
        <time>2014-04-16T13:39:24Z</time>
      </trkpt>
      <trkpt lat="47.67805" lon="3.69606">
        <ele>178</ele>
        <time>2014-04-16T13:39:33Z</time>
      </trkpt>
      <trkpt lat="47.67808" lon="3.69612">
        <ele>178</ele>
        <time>2014-04-16T13:39:38Z</time>
      </trkpt>
      <trkpt lat="47.67802" lon="3.69624">
        <ele>179</ele>
        <time>2014-04-16T13:39:51Z</time>
      </trkpt>
      <trkpt lat="47.67795" lon="3.69632">
        <ele>180</ele>
        <time>2014-04-16T13:39:58Z</time>
      </trkpt>
      <trkpt lat="47.67796" lon="3.69642">
        <ele>181</ele>
        <time>2014-04-16T13:40:08Z</time>
      </trkpt>
      <trkpt lat="47.67791" lon="3.69647">
        <ele>181</ele>
        <time>2014-04-16T13:40:12Z</time>
      </trkpt>
      <trkpt lat="47.67782" lon="3.69653">
        <ele>181</ele>
        <time>2014-04-16T13:40:22Z</time>
      </trkpt>
      <trkpt lat="47.67778" lon="3.69658">
        <ele>182</ele>
        <time>2014-04-16T13:40:27Z</time>
      </trkpt>
      <trkpt lat="47.67778" lon="3.69662">
        <ele>182</ele>
        <time>2014-04-16T13:40:38Z</time>
      </trkpt>
      <trkpt lat="47.67773" lon="3.69665">
        <ele>183</ele>
        <time>2014-04-16T13:40:44Z</time>
      </trkpt>
      <trkpt lat="47.67768" lon="3.69662">
        <ele>183</ele>
        <time>2014-04-16T13:40:49Z</time>
      </trkpt>
      <trkpt lat="47.67765" lon="3.69666">
        <ele>184</ele>
        <time>2014-04-16T13:41:25Z</time>
      </trkpt>
      <trkpt lat="47.67761" lon="3.69662">
        <ele>184</ele>
        <time>2014-04-16T13:41:33Z</time>
      </trkpt>
      <trkpt lat="47.67756" lon="3.69663">
        <ele>185</ele>
        <time>2014-04-16T13:41:38Z</time>
      </trkpt>
      <trkpt lat="47.67751" lon="3.69665">
        <ele>186</ele>
        <time>2014-04-16T13:41:42Z</time>
      </trkpt>
      <trkpt lat="47.67745" lon="3.69666">
        <ele>186</ele>
        <time>2014-04-16T13:41:46Z</time>
      </trkpt>
      <trkpt lat="47.6774" lon="3.69668">
        <ele>189</ele>
        <time>2014-04-16T13:41:50Z</time>
      </trkpt>
      <trkpt lat="47.67734" lon="3.6967">
        <ele>190</ele>
        <time>2014-04-16T13:41:57Z</time>
      </trkpt>
      <trkpt lat="47.6773" lon="3.69673">
        <ele>191</ele>
        <time>2014-04-16T13:42:03Z</time>
      </trkpt>
      <trkpt lat="47.67724" lon="3.69673">
        <ele>191</ele>
        <time>2014-04-16T13:42:09Z</time>
      </trkpt>
      <trkpt lat="47.67715" lon="3.69679">
        <ele>192</ele>
        <time>2014-04-16T13:42:17Z</time>
      </trkpt>
      <trkpt lat="47.67711" lon="3.69677">
        <ele>192</ele>
        <time>2014-04-16T13:42:21Z</time>
      </trkpt>
      <trkpt lat="47.67706" lon="3.69676">
        <ele>193</ele>
        <time>2014-04-16T13:42:28Z</time>
      </trkpt>
      <trkpt lat="47.67701" lon="3.69679">
        <ele>193</ele>
        <time>2014-04-16T13:42:32Z</time>
      </trkpt>
      <trkpt lat="47.67697" lon="3.69683">
        <ele>193</ele>
        <time>2014-04-16T13:42:37Z</time>
      </trkpt>
      <trkpt lat="47.67688" lon="3.6969">
        <ele>194</ele>
        <time>2014-04-16T13:42:48Z</time>
      </trkpt>
      <trkpt lat="47.67685" lon="3.69696">
        <ele>194</ele>
        <time>2014-04-16T13:42:52Z</time>
      </trkpt>
      <trkpt lat="47.67682" lon="3.69702">
        <ele>194</ele>
        <time>2014-04-16T13:43:00Z</time>
      </trkpt>
      <trkpt lat="47.67677" lon="3.69705">
        <ele>194</ele>
        <time>2014-04-16T13:43:04Z</time>
      </trkpt>
      <trkpt lat="47.67672" lon="3.69708">
        <ele>194</ele>
        <time>2014-04-16T13:43:08Z</time>
      </trkpt>
      <trkpt lat="47.67667" lon="3.69709">
        <ele>194</ele>
        <time>2014-04-16T13:43:13Z</time>
      </trkpt>
      <trkpt lat="47.67658" lon="3.69711">
        <ele>197</ele>
        <time>2014-04-16T13:43:21Z</time>
      </trkpt>
      <trkpt lat="47.67653" lon="3.69711">
        <ele>197</ele>
        <time>2014-04-16T13:43:25Z</time>
      </trkpt>
      <trkpt lat="47.67648" lon="3.69709">
        <ele>197</ele>
        <time>2014-04-16T13:43:29Z</time>
      </trkpt>
      <trkpt lat="47.67644" lon="3.6971">
        <ele>197</ele>
        <time>2014-04-16T13:43:33Z</time>
      </trkpt>
      <trkpt lat="47.67633" lon="3.69713">
        <ele>197</ele>
        <time>2014-04-16T13:43:50Z</time>
      </trkpt>
      <trkpt lat="47.67623" lon="3.69711">
        <ele>197</ele>
        <time>2014-04-16T13:44:02Z</time>
      </trkpt>
      <trkpt lat="47.67617" lon="3.69711">
        <ele>197</ele>
        <time>2014-04-16T13:44:06Z</time>
      </trkpt>
      <trkpt lat="47.67614" lon="3.69717">
        <ele>197</ele>
        <time>2014-04-16T13:44:12Z</time>
      </trkpt>
      <trkpt lat="47.67612" lon="3.69723">
        <ele>197</ele>
        <time>2014-04-16T13:44:17Z</time>
      </trkpt>
      <trkpt lat="47.67606" lon="3.69733">
        <ele>197</ele>
        <time>2014-04-16T13:44:27Z</time>
      </trkpt>
      <trkpt lat="47.67607" lon="3.69739">
        <ele>197</ele>
        <time>2014-04-16T13:44:32Z</time>
      </trkpt>
      <trkpt lat="47.67613" lon="3.69741">
        <ele>197</ele>
        <time>2014-04-16T13:44:40Z</time>
      </trkpt>
      <trkpt lat="47.67621" lon="3.6977">
        <ele>197</ele>
        <time>2014-04-16T13:44:58Z</time>
      </trkpt>
      <trkpt lat="47.6762" lon="3.69776">
        <ele>197</ele>
        <time>2014-04-16T13:45:03Z</time>
      </trkpt>
      <trkpt lat="47.67624" lon="3.69782">
        <ele>197</ele>
        <time>2014-04-16T13:45:07Z</time>
      </trkpt>
      <trkpt lat="47.67627" lon="3.69788">
        <ele>197</ele>
        <time>2014-04-16T13:45:11Z</time>
      </trkpt>
      <trkpt lat="47.67628" lon="3.69794">
        <ele>197</ele>
        <time>2014-04-16T13:45:15Z</time>
      </trkpt>
      <trkpt lat="47.67626" lon="3.69801">
        <ele>197</ele>
        <time>2014-04-16T13:45:20Z</time>
      </trkpt>
      <trkpt lat="47.67623" lon="3.69807">
        <ele>197</ele>
        <time>2014-04-16T13:45:24Z</time>
      </trkpt>
      <trkpt lat="47.67613" lon="3.69815">
        <ele>197</ele>
        <time>2014-04-16T13:45:32Z</time>
      </trkpt>
      <trkpt lat="47.67609" lon="3.6983">
        <ele>197</ele>
        <time>2014-04-16T13:45:40Z</time>
      </trkpt>
      <trkpt lat="47.67604" lon="3.69835">
        <ele>197</ele>
        <time>2014-04-16T13:45:45Z</time>
      </trkpt>
      <trkpt lat="47.67601" lon="3.69841">
        <ele>197</ele>
        <time>2014-04-16T13:45:49Z</time>
      </trkpt>
      <trkpt lat="47.67599" lon="3.69847">
        <ele>197</ele>
        <time>2014-04-16T13:45:53Z</time>
      </trkpt>
      <trkpt lat="47.67596" lon="3.69853">
        <ele>197</ele>
        <time>2014-04-16T13:45:58Z</time>
      </trkpt>
      <trkpt lat="47.6759" lon="3.69859">
        <ele>197</ele>
        <time>2014-04-16T13:46:03Z</time>
      </trkpt>
      <trkpt lat="47.67586" lon="3.69865">
        <ele>197</ele>
        <time>2014-04-16T13:46:07Z</time>
      </trkpt>
      <trkpt lat="47.67582" lon="3.69868">
        <ele>195</ele>
        <time>2014-04-16T13:46:12Z</time>
      </trkpt>
      <trkpt lat="47.6757" lon="3.69893">
        <ele>195</ele>
        <time>2014-04-16T13:46:32Z</time>
      </trkpt>
      <trkpt lat="47.67566" lon="3.69898">
        <ele>195</ele>
        <time>2014-04-16T13:46:37Z</time>
      </trkpt>
      <trkpt lat="47.67561" lon="3.69901">
        <ele>195</ele>
        <time>2014-04-16T13:46:42Z</time>
      </trkpt>
      <trkpt lat="47.67557" lon="3.69901">
        <ele>195</ele>
        <time>2014-04-16T13:46:59Z</time>
      </trkpt>
      <trkpt lat="47.67553" lon="3.69907">
        <ele>195</ele>
        <time>2014-04-16T13:47:02Z</time>
      </trkpt>
      <trkpt lat="47.67549" lon="3.6991">
        <ele>195</ele>
        <time>2014-04-16T13:47:07Z</time>
      </trkpt>
      <trkpt lat="47.67545" lon="3.69912">
        <ele>195</ele>
        <time>2014-04-16T13:47:11Z</time>
      </trkpt>
      <trkpt lat="47.67541" lon="3.69916">
        <ele>195</ele>
        <time>2014-04-16T13:47:14Z</time>
      </trkpt>
      <trkpt lat="47.67538" lon="3.69921">
        <ele>195</ele>
        <time>2014-04-16T13:47:18Z</time>
      </trkpt>
      <trkpt lat="47.67533" lon="3.69935">
        <ele>195</ele>
        <time>2014-04-16T13:47:26Z</time>
      </trkpt>
      <trkpt lat="47.67525" lon="3.69943">
        <ele>195</ele>
        <time>2014-04-16T13:47:34Z</time>
      </trkpt>
      <trkpt lat="47.6752" lon="3.69947">
        <ele>195</ele>
        <time>2014-04-16T13:47:38Z</time>
      </trkpt>
      <trkpt lat="47.67517" lon="3.69952">
        <ele>195</ele>
        <time>2014-04-16T13:47:44Z</time>
      </trkpt>
      <trkpt lat="47.67515" lon="3.69959">
        <ele>195</ele>
        <time>2014-04-16T13:47:49Z</time>
      </trkpt>
      <trkpt lat="47.67511" lon="3.69964">
        <ele>195</ele>
        <time>2014-04-16T13:47:54Z</time>
      </trkpt>
      <trkpt lat="47.67506" lon="3.69967">
        <ele>195</ele>
        <time>2014-04-16T13:48:00Z</time>
      </trkpt>
      <trkpt lat="47.67503" lon="3.69974">
        <ele>195</ele>
        <time>2014-04-16T13:48:04Z</time>
      </trkpt>
      <trkpt lat="47.67502" lon="3.69981">
        <ele>195</ele>
        <time>2014-04-16T13:48:07Z</time>
      </trkpt>
      <trkpt lat="47.67499" lon="3.69986">
        <ele>194</ele>
        <time>2014-04-16T13:48:11Z</time>
      </trkpt>
      <trkpt lat="47.67489" lon="3.69992">
        <ele>194</ele>
        <time>2014-04-16T13:48:20Z</time>
      </trkpt>
      <trkpt lat="47.67485" lon="3.69998">
        <ele>194</ele>
        <time>2014-04-16T13:48:25Z</time>
      </trkpt>
      <trkpt lat="47.6748" lon="3.70002">
        <ele>196</ele>
        <time>2014-04-16T13:48:30Z</time>
      </trkpt>
      <trkpt lat="47.67476" lon="3.70004">
        <ele>196</ele>
        <time>2014-04-16T13:48:34Z</time>
      </trkpt>
      <trkpt lat="47.67472" lon="3.70009">
        <ele>196</ele>
        <time>2014-04-16T13:48:38Z</time>
      </trkpt>
      <trkpt lat="47.67465" lon="3.7002">
        <ele>196</ele>
        <time>2014-04-16T13:48:47Z</time>
      </trkpt>
      <trkpt lat="47.67457" lon="3.7003">
        <ele>196</ele>
        <time>2014-04-16T13:48:57Z</time>
      </trkpt>
      <trkpt lat="47.67454" lon="3.70035">
        <ele>196</ele>
        <time>2014-04-16T13:49:01Z</time>
      </trkpt>
      <trkpt lat="47.6745" lon="3.7004">
        <ele>197</ele>
        <time>2014-04-16T13:49:05Z</time>
      </trkpt>
      <trkpt lat="47.67446" lon="3.70042">
        <ele>197</ele>
        <time>2014-04-16T13:49:09Z</time>
      </trkpt>
      <trkpt lat="47.67441" lon="3.70045">
        <ele>197</ele>
        <time>2014-04-16T13:49:13Z</time>
      </trkpt>
      <trkpt lat="47.67434" lon="3.70054">
        <ele>197</ele>
        <time>2014-04-16T13:49:21Z</time>
      </trkpt>
      <trkpt lat="47.67425" lon="3.70061">
        <ele>197</ele>
        <time>2014-04-16T13:49:29Z</time>
      </trkpt>
      <trkpt lat="47.6742" lon="3.70066">
        <ele>197</ele>
        <time>2014-04-16T13:49:34Z</time>
      </trkpt>
      <trkpt lat="47.67412" lon="3.70072">
        <ele>197</ele>
        <time>2014-04-16T13:52:29Z</time>
      </trkpt>
      <trkpt lat="47.67408" lon="3.70076">
        <ele>197</ele>
        <time>2014-04-16T13:52:35Z</time>
      </trkpt>
      <trkpt lat="47.67408" lon="3.70083">
        <ele>198</ele>
        <time>2014-04-16T13:52:41Z</time>
      </trkpt>
      <trkpt lat="47.67399" lon="3.70091">
        <ele>199</ele>
        <time>2014-04-16T13:53:01Z</time>
      </trkpt>
      <trkpt lat="47.67389" lon="3.70095">
        <ele>199</ele>
        <time>2014-04-16T13:53:13Z</time>
      </trkpt>
      <trkpt lat="47.67385" lon="3.70099">
        <ele>199</ele>
        <time>2014-04-16T13:53:17Z</time>
      </trkpt>
      <trkpt lat="47.6738" lon="3.70101">
        <ele>199</ele>
        <time>2014-04-16T13:53:23Z</time>
      </trkpt>
      <trkpt lat="47.67375" lon="3.70103">
        <ele>199</ele>
        <time>2014-04-16T13:53:28Z</time>
      </trkpt>
      <trkpt lat="47.67374" lon="3.70109">
        <ele>199</ele>
        <time>2014-04-16T13:54:18Z</time>
      </trkpt>
      <trkpt lat="47.67371" lon="3.70115">
        <ele>199</ele>
        <time>2014-04-16T13:54:23Z</time>
      </trkpt>
      <trkpt lat="47.67366" lon="3.70118">
        <ele>199</ele>
        <time>2014-04-16T13:54:26Z</time>
      </trkpt>
      <trkpt lat="47.67361" lon="3.70122">
        <ele>199</ele>
        <time>2014-04-16T13:54:30Z</time>
      </trkpt>
      <trkpt lat="47.67338" lon="3.70154">
        <ele>200</ele>
        <time>2014-04-16T13:54:59Z</time>
      </trkpt>
      <trkpt lat="47.67327" lon="3.70168">
        <ele>201</ele>
        <time>2014-04-16T13:55:13Z</time>
      </trkpt>
      <trkpt lat="47.67325" lon="3.70175">
        <ele>200</ele>
        <time>2014-04-16T13:55:20Z</time>
      </trkpt>
      <trkpt lat="47.67321" lon="3.7018">
        <ele>200</ele>
        <time>2014-04-16T13:55:25Z</time>
      </trkpt>
      <trkpt lat="47.67317" lon="3.70185">
        <ele>200</ele>
        <time>2014-04-16T13:55:28Z</time>
      </trkpt>
      <trkpt lat="47.67314" lon="3.70192">
        <ele>200</ele>
        <time>2014-04-16T13:55:31Z</time>
      </trkpt>
      <trkpt lat="47.67314" lon="3.702">
        <ele>200</ele>
        <time>2014-04-16T13:55:35Z</time>
      </trkpt>
      <trkpt lat="47.67316" lon="3.70207">
        <ele>200</ele>
        <time>2014-04-16T13:55:38Z</time>
      </trkpt>
      <trkpt lat="47.67315" lon="3.70213">
        <ele>200</ele>
        <time>2014-04-16T13:55:41Z</time>
      </trkpt>
      <trkpt lat="47.67307" lon="3.70222">
        <ele>200</ele>
        <time>2014-04-16T13:55:45Z</time>
      </trkpt>
      <trkpt lat="47.67299" lon="3.70228">
        <ele>200</ele>
        <time>2014-04-16T13:55:51Z</time>
      </trkpt>
      <trkpt lat="47.67292" lon="3.70238">
        <ele>199</ele>
        <time>2014-04-16T13:56:00Z</time>
      </trkpt>
      <trkpt lat="47.67287" lon="3.70242">
        <ele>199</ele>
        <time>2014-04-16T13:56:04Z</time>
      </trkpt>
      <trkpt lat="47.67284" lon="3.70247">
        <ele>199</ele>
        <time>2014-04-16T13:56:09Z</time>
      </trkpt>
      <trkpt lat="47.67281" lon="3.70253">
        <ele>200</ele>
        <time>2014-04-16T13:56:14Z</time>
      </trkpt>
      <trkpt lat="47.67274" lon="3.70263">
        <ele>200</ele>
        <time>2014-04-16T13:56:24Z</time>
      </trkpt>
      <trkpt lat="47.67269" lon="3.70276">
        <ele>200</ele>
        <time>2014-04-16T13:56:34Z</time>
      </trkpt>
      <trkpt lat="47.67265" lon="3.70281">
        <ele>200</ele>
        <time>2014-04-16T13:56:38Z</time>
      </trkpt>
      <trkpt lat="47.67253" lon="3.70304">
        <ele>201</ele>
        <time>2014-04-16T13:56:55Z</time>
      </trkpt>
      <trkpt lat="47.6725" lon="3.70308">
        <ele>196</ele>
        <time>2014-04-16T13:57:02Z</time>
      </trkpt>
      <trkpt lat="47.67245" lon="3.70306">
        <ele>196</ele>
        <time>2014-04-16T13:57:05Z</time>
      </trkpt>
      <trkpt lat="47.67241" lon="3.70308">
        <ele>196</ele>
        <time>2014-04-16T13:57:30Z</time>
      </trkpt>
      <trkpt lat="47.67235" lon="3.70322">
        <ele>197</ele>
        <time>2014-04-16T13:57:41Z</time>
      </trkpt>
      <trkpt lat="47.67231" lon="3.70327">
        <ele>197</ele>
        <time>2014-04-16T13:57:45Z</time>
      </trkpt>
      <trkpt lat="47.67227" lon="3.70331">
        <ele>196</ele>
        <time>2014-04-16T13:57:49Z</time>
      </trkpt>
      <trkpt lat="47.67223" lon="3.70335">
        <ele>196</ele>
        <time>2014-04-16T13:57:53Z</time>
      </trkpt>
      <trkpt lat="47.6721" lon="3.70355">
        <ele>195</ele>
        <time>2014-04-16T13:58:13Z</time>
      </trkpt>
      <trkpt lat="47.67206" lon="3.70359">
        <ele>195</ele>
        <time>2014-04-16T13:58:18Z</time>
      </trkpt>
      <trkpt lat="47.67203" lon="3.70365">
        <ele>194</ele>
        <time>2014-04-16T13:58:23Z</time>
      </trkpt>
      <trkpt lat="47.67199" lon="3.70369">
        <ele>194</ele>
        <time>2014-04-16T13:58:28Z</time>
      </trkpt>
      <trkpt lat="47.67194" lon="3.70373">
        <ele>194</ele>
        <time>2014-04-16T13:58:32Z</time>
      </trkpt>
      <trkpt lat="47.67189" lon="3.70376">
        <ele>193</ele>
        <time>2014-04-16T13:58:36Z</time>
      </trkpt>
      <trkpt lat="47.67185" lon="3.70381">
        <ele>193</ele>
        <time>2014-04-16T13:58:41Z</time>
      </trkpt>
      <trkpt lat="47.67177" lon="3.70391">
        <ele>193</ele>
        <time>2014-04-16T13:58:52Z</time>
      </trkpt>
      <trkpt lat="47.67173" lon="3.70405">
        <ele>191</ele>
        <time>2014-04-16T13:59:00Z</time>
      </trkpt>
      <trkpt lat="47.6717" lon="3.7041">
        <ele>190</ele>
        <time>2014-04-16T13:59:04Z</time>
      </trkpt>
      <trkpt lat="47.67166" lon="3.70415">
        <ele>189</ele>
        <time>2014-04-16T13:59:09Z</time>
      </trkpt>
      <trkpt lat="47.67157" lon="3.70423">
        <ele>186</ele>
        <time>2014-04-16T13:59:17Z</time>
      </trkpt>
      <trkpt lat="47.67154" lon="3.7043">
        <ele>185</ele>
        <time>2014-04-16T13:59:22Z</time>
      </trkpt>
      <trkpt lat="47.67151" lon="3.70441">
        <ele>184</ele>
        <time>2014-04-16T13:59:48Z</time>
      </trkpt>
      <trkpt lat="47.67148" lon="3.70446">
        <ele>184</ele>
        <time>2014-04-16T13:59:53Z</time>
      </trkpt>
      <trkpt lat="47.67147" lon="3.70453">
        <ele>183</ele>
        <time>2014-04-16T13:59:57Z</time>
      </trkpt>
      <trkpt lat="47.67141" lon="3.70466">
        <ele>182</ele>
        <time>2014-04-16T14:00:06Z</time>
      </trkpt>
      <trkpt lat="47.67138" lon="3.70487">
        <ele>182</ele>
        <time>2014-04-16T14:00:19Z</time>
      </trkpt>
      <trkpt lat="47.67132" lon="3.70515">
        <ele>177</ele>
        <time>2014-04-16T14:00:39Z</time>
      </trkpt>
      <trkpt lat="47.67128" lon="3.70519">
        <ele>177</ele>
        <time>2014-04-16T14:00:46Z</time>
      </trkpt>
      <trkpt lat="47.67129" lon="3.70525">
        <ele>176</ele>
        <time>2014-04-16T14:01:04Z</time>
      </trkpt>
      <trkpt lat="47.67127" lon="3.70531">
        <ele>176</ele>
        <time>2014-04-16T14:01:07Z</time>
      </trkpt>
      <trkpt lat="47.67124" lon="3.70537">
        <ele>176</ele>
        <time>2014-04-16T14:01:10Z</time>
      </trkpt>
      <trkpt lat="47.67121" lon="3.70538">
        <ele>175</ele>
        <time>2014-04-16T14:01:16Z</time>
      </trkpt>
      <trkpt lat="47.6712" lon="3.70552">
        <ele>175</ele>
        <time>2014-04-16T14:01:47Z</time>
      </trkpt>
      <trkpt lat="47.67108" lon="3.7058">
        <ele>172</ele>
        <time>2014-04-16T14:02:19Z</time>
      </trkpt>
      <trkpt lat="47.67108" lon="3.70587">
        <ele>169</ele>
        <time>2014-04-16T14:02:23Z</time>
      </trkpt>
      <trkpt lat="47.67104" lon="3.706">
        <ele>168</ele>
        <time>2014-04-16T14:02:33Z</time>
      </trkpt>
      <trkpt lat="47.671" lon="3.70605">
        <ele>168</ele>
        <time>2014-04-16T14:02:39Z</time>
      </trkpt>
      <trkpt lat="47.67097" lon="3.70611">
        <ele>168</ele>
        <time>2014-04-16T14:02:44Z</time>
      </trkpt>
      <trkpt lat="47.67098" lon="3.70627">
        <ele>167</ele>
        <time>2014-04-16T14:02:53Z</time>
      </trkpt>
      <trkpt lat="47.6709" lon="3.70643">
        <ele>166</ele>
        <time>2014-04-16T14:03:13Z</time>
      </trkpt>
      <trkpt lat="47.67088" lon="3.7065">
        <ele>165</ele>
        <time>2014-04-16T14:03:17Z</time>
      </trkpt>
      <trkpt lat="47.67085" lon="3.70656">
        <ele>163</ele>
        <time>2014-04-16T14:03:21Z</time>
      </trkpt>
      <trkpt lat="47.67085" lon="3.70663">
        <ele>161</ele>
        <time>2014-04-16T14:03:47Z</time>
      </trkpt>
      <trkpt lat="47.67081" lon="3.70669">
        <ele>159</ele>
        <time>2014-04-16T14:03:51Z</time>
      </trkpt>
      <trkpt lat="47.67078" lon="3.70676">
        <ele>157</ele>
        <time>2014-04-16T14:03:55Z</time>
      </trkpt>
      <trkpt lat="47.67079" lon="3.7068">
        <ele>157</ele>
        <time>2014-04-16T14:04:01Z</time>
      </trkpt>
      <trkpt lat="47.67077" lon="3.70685">
        <ele>156</ele>
        <time>2014-04-16T14:04:22Z</time>
      </trkpt>
      <trkpt lat="47.67061" lon="3.70704">
        <ele>154</ele>
        <time>2014-04-16T14:04:41Z</time>
      </trkpt>
      <trkpt lat="47.67058" lon="3.70711">
        <ele>153</ele>
        <time>2014-04-16T14:04:45Z</time>
      </trkpt>
      <trkpt lat="47.67057" lon="3.70718">
        <ele>153</ele>
        <time>2014-04-16T14:04:49Z</time>
      </trkpt>
      <trkpt lat="47.67054" lon="3.70724">
        <ele>153</ele>
        <time>2014-04-16T14:04:54Z</time>
      </trkpt>
      <trkpt lat="47.6705" lon="3.70727">
        <ele>152</ele>
        <time>2014-04-16T14:04:59Z</time>
      </trkpt>
      <trkpt lat="47.67046" lon="3.70732">
        <ele>152</ele>
        <time>2014-04-16T14:05:03Z</time>
      </trkpt>
      <trkpt lat="47.67042" lon="3.70734">
        <ele>152</ele>
        <time>2014-04-16T14:05:07Z</time>
      </trkpt>
      <trkpt lat="47.67037" lon="3.70733">
        <ele>152</ele>
        <time>2014-04-16T14:05:11Z</time>
      </trkpt>
      <trkpt lat="47.67033" lon="3.70737">
        <ele>151</ele>
        <time>2014-04-16T14:05:17Z</time>
      </trkpt>
      <trkpt lat="47.67028" lon="3.7074">
        <ele>151</ele>
        <time>2014-04-16T14:05:21Z</time>
      </trkpt>
      <trkpt lat="47.67024" lon="3.70742">
        <ele>150</ele>
        <time>2014-04-16T14:05:24Z</time>
      </trkpt>
      <trkpt lat="47.67019" lon="3.70743">
        <ele>150</ele>
        <time>2014-04-16T14:05:29Z</time>
      </trkpt>
      <trkpt lat="47.67014" lon="3.70745">
        <ele>149</ele>
        <time>2014-04-16T14:05:33Z</time>
      </trkpt>
      <trkpt lat="47.67011" lon="3.70752">
        <ele>147</ele>
        <time>2014-04-16T14:05:40Z</time>
      </trkpt>
      <trkpt lat="47.67007" lon="3.70754">
        <ele>147</ele>
        <time>2014-04-16T14:05:43Z</time>
      </trkpt>
      <trkpt lat="47.66997" lon="3.70759">
        <ele>145</ele>
        <time>2014-04-16T14:05:51Z</time>
      </trkpt>
      <trkpt lat="47.66987" lon="3.70762">
        <ele>144</ele>
        <time>2014-04-16T14:06:00Z</time>
      </trkpt>
      <trkpt lat="47.6698" lon="3.70767">
        <ele>143</ele>
        <time>2014-04-16T14:06:26Z</time>
      </trkpt>
      <trkpt lat="47.66975" lon="3.70768">
        <ele>143</ele>
        <time>2014-04-16T14:06:30Z</time>
      </trkpt>
      <trkpt lat="47.66967" lon="3.70779">
        <ele>142</ele>
        <time>2014-04-16T14:06:36Z</time>
      </trkpt>
      <trkpt lat="47.66958" lon="3.70782">
        <ele>142</ele>
        <time>2014-04-16T14:06:46Z</time>
      </trkpt>
      <trkpt lat="47.66953" lon="3.70785">
        <ele>141</ele>
        <time>2014-04-16T14:06:50Z</time>
      </trkpt>
      <trkpt lat="47.66949" lon="3.70788">
        <ele>141</ele>
        <time>2014-04-16T14:06:53Z</time>
      </trkpt>
      <trkpt lat="47.66939" lon="3.70794">
        <ele>141</ele>
        <time>2014-04-16T14:07:01Z</time>
      </trkpt>
      <trkpt lat="47.66935" lon="3.70796">
        <ele>141</ele>
        <time>2014-04-16T14:07:04Z</time>
      </trkpt>
      <trkpt lat="47.6693" lon="3.70798">
        <ele>140</ele>
        <time>2014-04-16T14:07:09Z</time>
      </trkpt>
      <trkpt lat="47.66923" lon="3.708">
        <ele>140</ele>
        <time>2014-04-16T14:07:19Z</time>
      </trkpt>
      <trkpt lat="47.66918" lon="3.70804">
        <ele>140</ele>
        <time>2014-04-16T14:07:24Z</time>
      </trkpt>
      <trkpt lat="47.66909" lon="3.70808">
        <ele>137</ele>
        <time>2014-04-16T14:07:34Z</time>
      </trkpt>
      <trkpt lat="47.66904" lon="3.7081">
        <ele>137</ele>
        <time>2014-04-16T14:07:38Z</time>
      </trkpt>
      <trkpt lat="47.66899" lon="3.70812">
        <ele>137</ele>
        <time>2014-04-16T14:07:43Z</time>
      </trkpt>
      <trkpt lat="47.66894" lon="3.70813">
        <ele>136</ele>
        <time>2014-04-16T14:07:48Z</time>
      </trkpt>
      <trkpt lat="47.66889" lon="3.70815">
        <ele>136</ele>
        <time>2014-04-16T14:07:56Z</time>
      </trkpt>
      <trkpt lat="47.66881" lon="3.70825">
        <ele>136</ele>
        <time>2014-04-16T14:08:04Z</time>
      </trkpt>
      <trkpt lat="47.66877" lon="3.70828">
        <ele>136</ele>
        <time>2014-04-16T14:08:08Z</time>
      </trkpt>
      <trkpt lat="47.66858" lon="3.7084">
        <ele>134</ele>
        <time>2014-04-16T14:08:29Z</time>
      </trkpt>
      <trkpt lat="47.66853" lon="3.70843">
        <ele>134</ele>
        <time>2014-04-16T14:08:34Z</time>
      </trkpt>
      <trkpt lat="47.66848" lon="3.70846">
        <ele>134</ele>
        <time>2014-04-16T14:08:39Z</time>
      </trkpt>
      <trkpt lat="47.66844" lon="3.70849">
        <ele>134</ele>
        <time>2014-04-16T14:08:43Z</time>
      </trkpt>
      <trkpt lat="47.66838" lon="3.7085">
        <ele>134</ele>
        <time>2014-04-16T14:08:48Z</time>
      </trkpt>
      <trkpt lat="47.66833" lon="3.70852">
        <ele>132</ele>
        <time>2014-04-16T14:08:52Z</time>
      </trkpt>
      <trkpt lat="47.66828" lon="3.70857">
        <ele>132</ele>
        <time>2014-04-16T14:08:57Z</time>
      </trkpt>
      <trkpt lat="47.66824" lon="3.70859">
        <ele>131</ele>
        <time>2014-04-16T14:09:03Z</time>
      </trkpt>
      <trkpt lat="47.6681" lon="3.70868">
        <ele>131</ele>
        <time>2014-04-16T14:09:15Z</time>
      </trkpt>
      <trkpt lat="47.66801" lon="3.70873">
        <ele>131</ele>
        <time>2014-04-16T14:09:23Z</time>
      </trkpt>
      <trkpt lat="47.66797" lon="3.70876">
        <ele>131</ele>
        <time>2014-04-16T14:09:27Z</time>
      </trkpt>
      <trkpt lat="47.66792" lon="3.70881">
        <ele>130</ele>
        <time>2014-04-16T14:09:32Z</time>
      </trkpt>
      <trkpt lat="47.66779" lon="3.70891">
        <ele>130</ele>
        <time>2014-04-16T14:09:44Z</time>
      </trkpt>
      <trkpt lat="47.66764" lon="3.70898">
        <ele>130</ele>
        <time>2014-04-16T14:09:58Z</time>
      </trkpt>
      <trkpt lat="47.66759" lon="3.70897">
        <ele>129</ele>
        <time>2014-04-16T14:10:05Z</time>
      </trkpt>
      <trkpt lat="47.66735" lon="3.70901">
        <ele>127</ele>
        <time>2014-04-16T14:10:29Z</time>
      </trkpt>
      <trkpt lat="47.6673" lon="3.70901">
        <ele>127</ele>
        <time>2014-04-16T14:10:34Z</time>
      </trkpt>
      <trkpt lat="47.66724" lon="3.70902">
        <ele>127</ele>
        <time>2014-04-16T14:10:39Z</time>
      </trkpt>
      <trkpt lat="47.66719" lon="3.70904">
        <ele>127</ele>
        <time>2014-04-16T14:10:44Z</time>
      </trkpt>
      <trkpt lat="47.66716" lon="3.70905">
        <ele>127</ele>
        <time>2014-04-16T14:10:51Z</time>
      </trkpt>
      <trkpt lat="47.66695" lon="3.70913">
        <ele>126</ele>
        <time>2014-04-16T14:11:21Z</time>
      </trkpt>
      <trkpt lat="47.66685" lon="3.7091">
        <ele>126</ele>
        <time>2014-04-16T14:11:30Z</time>
      </trkpt>
      <trkpt lat="47.66653" lon="3.70914">
        <ele>124</ele>
        <time>2014-04-16T14:11:56Z</time>
      </trkpt>
      <trkpt lat="47.66648" lon="3.70917">
        <ele>123</ele>
        <time>2014-04-16T14:12:00Z</time>
      </trkpt>
      <trkpt lat="47.66633" lon="3.70921">
        <ele>122</ele>
        <time>2014-04-16T14:12:15Z</time>
      </trkpt>
      <trkpt lat="47.66623" lon="3.70923">
        <ele>122</ele>
        <time>2014-04-16T14:12:24Z</time>
      </trkpt>
      <trkpt lat="47.66613" lon="3.70921">
        <ele>122</ele>
        <time>2014-04-16T14:12:33Z</time>
      </trkpt>
      <trkpt lat="47.66609" lon="3.70918">
        <ele>121</ele>
        <time>2014-04-16T14:12:37Z</time>
      </trkpt>
      <trkpt lat="47.66604" lon="3.70913">
        <ele>123</ele>
        <time>2014-04-16T14:12:41Z</time>
      </trkpt>
      <trkpt lat="47.66598" lon="3.70914">
        <ele>122</ele>
        <time>2014-04-16T14:12:47Z</time>
      </trkpt>
      <trkpt lat="47.66594" lon="3.70915">
        <ele>122</ele>
        <time>2014-04-16T14:12:51Z</time>
      </trkpt>
      <trkpt lat="47.6659" lon="3.70929">
        <ele>121</ele>
        <time>2014-04-16T14:12:58Z</time>
      </trkpt>
      <trkpt lat="47.66589" lon="3.70937">
        <ele>121</ele>
        <time>2014-04-16T14:13:02Z</time>
      </trkpt>
      <trkpt lat="47.66583" lon="3.70952">
        <ele>118</ele>
        <time>2014-04-16T14:13:10Z</time>
      </trkpt>
      <trkpt lat="47.66581" lon="3.70968">
        <ele>117</ele>
        <time>2014-04-16T14:13:19Z</time>
      </trkpt>
      <trkpt lat="47.66584" lon="3.70974">
        <ele>120</ele>
        <time>2014-04-16T14:13:23Z</time>
      </trkpt>
      <trkpt lat="47.66586" lon="3.70986">
        <ele>120</ele>
        <time>2014-04-16T14:13:29Z</time>
      </trkpt>
      <trkpt lat="47.66581" lon="3.7099">
        <ele>118</ele>
        <time>2014-04-16T14:13:35Z</time>
      </trkpt>
      <trkpt lat="47.66576" lon="3.70991">
        <ele>117</ele>
        <time>2014-04-16T14:13:39Z</time>
      </trkpt>
      <trkpt lat="47.6657" lon="3.70985">
        <ele>117</ele>
        <time>2014-04-16T14:13:44Z</time>
      </trkpt>
      <trkpt lat="47.6656" lon="3.70981">
        <ele>117</ele>
        <time>2014-04-16T14:13:53Z</time>
      </trkpt>
      <trkpt lat="47.66555" lon="3.70983">
        <ele>117</ele>
        <time>2014-04-16T14:13:59Z</time>
      </trkpt>
      <trkpt lat="47.66553" lon="3.70986">
        <ele>117</ele>
        <time>2014-04-16T14:14:09Z</time>
      </trkpt>
      <trkpt lat="47.66549" lon="3.70985">
        <ele>116</ele>
        <time>2014-04-16T14:14:13Z</time>
      </trkpt>
      <trkpt lat="47.66543" lon="3.70982">
        <ele>116</ele>
        <time>2014-04-16T14:14:18Z</time>
      </trkpt>
      <trkpt lat="47.66538" lon="3.70982">
        <ele>116</ele>
        <time>2014-04-16T14:14:22Z</time>
      </trkpt>
      <trkpt lat="47.66534" lon="3.70979">
        <ele>116</ele>
        <time>2014-04-16T14:14:26Z</time>
      </trkpt>
      <trkpt lat="47.66529" lon="3.70978">
        <ele>116</ele>
        <time>2014-04-16T14:14:32Z</time>
      </trkpt>
      <trkpt lat="47.66525" lon="3.7098">
        <ele>116</ele>
        <time>2014-04-16T14:14:39Z</time>
      </trkpt>
      <trkpt lat="47.6651" lon="3.70972">
        <ele>115</ele>
        <time>2014-04-16T14:15:14Z</time>
      </trkpt>
      <trkpt lat="47.66504" lon="3.7097">
        <ele>115</ele>
        <time>2014-04-16T14:15:18Z</time>
      </trkpt>
      <trkpt lat="47.66495" lon="3.70974">
        <ele>112</ele>
        <time>2014-04-16T14:15:24Z</time>
      </trkpt>
      <trkpt lat="47.6648" lon="3.70972">
        <ele>112</ele>
        <time>2014-04-16T14:15:36Z</time>
      </trkpt>
      <trkpt lat="47.6647" lon="3.70968">
        <ele>112</ele>
        <time>2014-04-16T14:15:44Z</time>
      </trkpt>
      <trkpt lat="47.66465" lon="3.70968">
        <ele>112</ele>
        <time>2014-04-16T14:15:49Z</time>
      </trkpt>
      <trkpt lat="47.6646" lon="3.70965">
        <ele>112</ele>
        <time>2014-04-16T14:15:55Z</time>
      </trkpt>
      <trkpt lat="47.66455" lon="3.70964">
        <ele>111</ele>
        <time>2014-04-16T14:15:59Z</time>
      </trkpt>
      <trkpt lat="47.66449" lon="3.70965">
        <ele>111</ele>
        <time>2014-04-16T14:16:02Z</time>
      </trkpt>
      <trkpt lat="47.66444" lon="3.70963">
        <ele>111</ele>
        <time>2014-04-16T14:16:06Z</time>
      </trkpt>
      <trkpt lat="47.66439" lon="3.70962">
        <ele>111</ele>
        <time>2014-04-16T14:16:11Z</time>
      </trkpt>
      <trkpt lat="47.66435" lon="3.70959">
        <ele>111</ele>
        <time>2014-04-16T14:16:16Z</time>
      </trkpt>
      <trkpt lat="47.66429" lon="3.70957">
        <ele>111</ele>
        <time>2014-04-16T14:16:21Z</time>
      </trkpt>
      <trkpt lat="47.66424" lon="3.70958">
        <ele>111</ele>
        <time>2014-04-16T14:16:25Z</time>
      </trkpt>
      <trkpt lat="47.66421" lon="3.70954">
        <ele>111</ele>
        <time>2014-04-16T14:16:30Z</time>
      </trkpt>
      <trkpt lat="47.66416" lon="3.70952">
        <ele>109</ele>
        <time>2014-04-16T14:16:35Z</time>
      </trkpt>
      <trkpt lat="47.66406" lon="3.70948">
        <ele>109</ele>
        <time>2014-04-16T14:16:43Z</time>
      </trkpt>
      <trkpt lat="47.66401" lon="3.70948">
        <ele>109</ele>
        <time>2014-04-16T14:16:48Z</time>
      </trkpt>
      <trkpt lat="47.66396" lon="3.70947">
        <ele>109</ele>
        <time>2014-04-16T14:16:52Z</time>
      </trkpt>
      <trkpt lat="47.66391" lon="3.70946">
        <ele>109</ele>
        <time>2014-04-16T14:16:59Z</time>
      </trkpt>
      <trkpt lat="47.66386" lon="3.70945">
        <ele>109</ele>
        <time>2014-04-16T14:17:04Z</time>
      </trkpt>
      <trkpt lat="47.66381" lon="3.70944">
        <ele>109</ele>
        <time>2014-04-16T14:17:08Z</time>
      </trkpt>
      <trkpt lat="47.66376" lon="3.70941">
        <ele>109</ele>
        <time>2014-04-16T14:17:11Z</time>
      </trkpt>
      <trkpt lat="47.66372" lon="3.70939">
        <ele>109</ele>
        <time>2014-04-16T14:17:16Z</time>
      </trkpt>
      <trkpt lat="47.66368" lon="3.70937">
        <ele>109</ele>
        <time>2014-04-16T14:17:27Z</time>
      </trkpt>
      <trkpt lat="47.66365" lon="3.7094">
        <ele>109</ele>
        <time>2014-04-16T14:17:37Z</time>
      </trkpt>
      <trkpt lat="47.66361" lon="3.70943">
        <ele>109</ele>
        <time>2014-04-16T14:17:45Z</time>
      </trkpt>
      <trkpt lat="47.66356" lon="3.7094">
        <ele>109</ele>
        <time>2014-04-16T14:17:49Z</time>
      </trkpt>
      <trkpt lat="47.66351" lon="3.70938">
        <ele>109</ele>
        <time>2014-04-16T14:17:52Z</time>
      </trkpt>
      <trkpt lat="47.66347" lon="3.70937">
        <ele>109</ele>
        <time>2014-04-16T14:17:58Z</time>
      </trkpt>
      <trkpt lat="47.66342" lon="3.70936">
        <ele>109</ele>
        <time>2014-04-16T14:18:02Z</time>
      </trkpt>
      <trkpt lat="47.66337" lon="3.70935">
        <ele>109</ele>
        <time>2014-04-16T14:18:06Z</time>
      </trkpt>
      <trkpt lat="47.66332" lon="3.70931">
        <ele>109</ele>
        <time>2014-04-16T14:18:11Z</time>
      </trkpt>
      <trkpt lat="47.66328" lon="3.70929">
        <ele>109</ele>
        <time>2014-04-16T14:18:16Z</time>
      </trkpt>
      <trkpt lat="47.66323" lon="3.7093">
        <ele>109</ele>
        <time>2014-04-16T14:18:20Z</time>
      </trkpt>
      <trkpt lat="47.66318" lon="3.70929">
        <ele>109</ele>
        <time>2014-04-16T14:18:25Z</time>
      </trkpt>
      <trkpt lat="47.66313" lon="3.70928">
        <ele>109</ele>
        <time>2014-04-16T14:18:32Z</time>
      </trkpt>
      <trkpt lat="47.66308" lon="3.70926">
        <ele>109</ele>
        <time>2014-04-16T14:18:36Z</time>
      </trkpt>
      <trkpt lat="47.66303" lon="3.70926">
        <ele>109</ele>
        <time>2014-04-16T14:18:41Z</time>
      </trkpt>
      <trkpt lat="47.66298" lon="3.70924">
        <ele>109</ele>
        <time>2014-04-16T14:18:45Z</time>
      </trkpt>
      <trkpt lat="47.66294" lon="3.70922">
        <ele>109</ele>
        <time>2014-04-16T14:18:49Z</time>
      </trkpt>
      <trkpt lat="47.66288" lon="3.7092">
        <ele>109</ele>
        <time>2014-04-16T14:18:55Z</time>
      </trkpt>
      <trkpt lat="47.66273" lon="3.70921">
        <ele>110</ele>
        <time>2014-04-16T14:19:09Z</time>
      </trkpt>
      <trkpt lat="47.66268" lon="3.70919">
        <ele>110</ele>
        <time>2014-04-16T14:19:14Z</time>
      </trkpt>
      <trkpt lat="47.66263" lon="3.70918">
        <ele>110</ele>
        <time>2014-04-16T14:19:18Z</time>
      </trkpt>
      <trkpt lat="47.66258" lon="3.70916">
        <ele>110</ele>
        <time>2014-04-16T14:19:23Z</time>
      </trkpt>
      <trkpt lat="47.66253" lon="3.70916">
        <ele>110</ele>
        <time>2014-04-16T14:19:27Z</time>
      </trkpt>
      <trkpt lat="47.66242" lon="3.70917">
        <ele>111</ele>
        <time>2014-04-16T14:19:37Z</time>
      </trkpt>
      <trkpt lat="47.66237" lon="3.70916">
        <ele>111</ele>
        <time>2014-04-16T14:19:41Z</time>
      </trkpt>
      <trkpt lat="47.66232" lon="3.70913">
        <ele>111</ele>
        <time>2014-04-16T14:19:46Z</time>
      </trkpt>
      <trkpt lat="47.66229" lon="3.70915">
        <ele>111</ele>
        <time>2014-04-16T14:20:04Z</time>
      </trkpt>
      <trkpt lat="47.66224" lon="3.70911">
        <ele>111</ele>
        <time>2014-04-16T14:20:08Z</time>
      </trkpt>
      <trkpt lat="47.66221" lon="3.70906">
        <ele>112</ele>
        <time>2014-04-16T14:20:27Z</time>
      </trkpt>
      <trkpt lat="47.66216" lon="3.70906">
        <ele>112</ele>
        <time>2014-04-16T14:20:35Z</time>
      </trkpt>
      <trkpt lat="47.662" lon="3.709">
        <ele>112</ele>
        <time>2014-04-16T14:20:47Z</time>
      </trkpt>
      <trkpt lat="47.6618" lon="3.70895">
        <ele>112</ele>
        <time>2014-04-16T14:21:04Z</time>
      </trkpt>
      <trkpt lat="47.66176" lon="3.70893">
        <ele>112</ele>
        <time>2014-04-16T14:21:11Z</time>
      </trkpt>
      <trkpt lat="47.66172" lon="3.70898">
        <ele>112</ele>
        <time>2014-04-16T14:21:17Z</time>
      </trkpt>
      <trkpt lat="47.66172" lon="3.70906">
        <ele>113</ele>
        <time>2014-04-16T14:21:21Z</time>
      </trkpt>
      <trkpt lat="47.66171" lon="3.70912">
        <ele>113</ele>
        <time>2014-04-16T14:21:35Z</time>
      </trkpt>
      <trkpt lat="47.6617" lon="3.7092">
        <ele>113</ele>
        <time>2014-04-16T14:21:49Z</time>
      </trkpt>
      <trkpt lat="47.66165" lon="3.70922">
        <ele>113</ele>
        <time>2014-04-16T14:21:57Z</time>
      </trkpt>
      <trkpt lat="47.66159" lon="3.70923">
        <ele>113</ele>
        <time>2014-04-16T14:22:00Z</time>
      </trkpt>
      <trkpt lat="47.66155" lon="3.70927">
        <ele>113</ele>
        <time>2014-04-16T14:22:04Z</time>
      </trkpt>
      <trkpt lat="47.66151" lon="3.7093">
        <ele>113</ele>
        <time>2014-04-16T14:22:08Z</time>
      </trkpt>
      <trkpt lat="47.66147" lon="3.70934">
        <ele>113</ele>
        <time>2014-04-16T14:22:14Z</time>
      </trkpt>
      <trkpt lat="47.66139" lon="3.7094">
        <ele>113</ele>
        <time>2014-04-16T14:22:27Z</time>
      </trkpt>
      <trkpt lat="47.6613" lon="3.70942">
        <ele>113</ele>
        <time>2014-04-16T14:22:34Z</time>
      </trkpt>
      <trkpt lat="47.66121" lon="3.70947">
        <ele>113</ele>
        <time>2014-04-16T14:22:40Z</time>
      </trkpt>
      <trkpt lat="47.66111" lon="3.70948">
        <ele>113</ele>
        <time>2014-04-16T14:22:45Z</time>
      </trkpt>
      <trkpt lat="47.66106" lon="3.70953">
        <ele>113</ele>
        <time>2014-04-16T14:22:49Z</time>
      </trkpt>
      <trkpt lat="47.66104" lon="3.70959">
        <ele>113</ele>
        <time>2014-04-16T14:22:53Z</time>
      </trkpt>
      <trkpt lat="47.66096" lon="3.70971">
        <ele>113</ele>
        <time>2014-04-16T14:23:01Z</time>
      </trkpt>
      <trkpt lat="47.66091" lon="3.70973">
        <ele>114</ele>
        <time>2014-04-16T14:23:04Z</time>
      </trkpt>
      <trkpt lat="47.66084" lon="3.70974">
        <ele>114</ele>
        <time>2014-04-16T14:23:09Z</time>
      </trkpt>
      <trkpt lat="47.66081" lon="3.70979">
        <ele>115</ele>
        <time>2014-04-16T14:23:14Z</time>
      </trkpt>
      <trkpt lat="47.66083" lon="3.70986">
        <ele>115</ele>
        <time>2014-04-16T14:23:19Z</time>
      </trkpt>
      <trkpt lat="47.66083" lon="3.70993">
        <ele>114</ele>
        <time>2014-04-16T14:23:34Z</time>
      </trkpt>
      <trkpt lat="47.66078" lon="3.70996">
        <ele>114</ele>
        <time>2014-04-16T14:23:39Z</time>
      </trkpt>
      <trkpt lat="47.66074" lon="3.71001">
        <ele>114</ele>
        <time>2014-04-16T14:23:46Z</time>
      </trkpt>
      <trkpt lat="47.66071" lon="3.71006">
        <ele>115</ele>
        <time>2014-04-16T14:23:49Z</time>
      </trkpt>
      <trkpt lat="47.66069" lon="3.71013">
        <ele>115</ele>
        <time>2014-04-16T14:23:52Z</time>
      </trkpt>
      <trkpt lat="47.66055" lon="3.71024">
        <ele>115</ele>
        <time>2014-04-16T14:24:05Z</time>
      </trkpt>
      <trkpt lat="47.66051" lon="3.71025">
        <ele>115</ele>
        <time>2014-04-16T14:24:09Z</time>
      </trkpt>
      <trkpt lat="47.66047" lon="3.71028">
        <ele>115</ele>
        <time>2014-04-16T14:24:12Z</time>
      </trkpt>
      <trkpt lat="47.66043" lon="3.71033">
        <ele>116</ele>
        <time>2014-04-16T14:24:15Z</time>
      </trkpt>
      <trkpt lat="47.6604" lon="3.71039">
        <ele>116</ele>
        <time>2014-04-16T14:24:20Z</time>
      </trkpt>
      <trkpt lat="47.66038" lon="3.71045">
        <ele>116</ele>
        <time>2014-04-16T14:24:28Z</time>
      </trkpt>
      <trkpt lat="47.66031" lon="3.71054">
        <ele>116</ele>
        <time>2014-04-16T14:24:40Z</time>
      </trkpt>
      <trkpt lat="47.66027" lon="3.71057">
        <ele>116</ele>
        <time>2014-04-16T14:24:43Z</time>
      </trkpt>
      <trkpt lat="47.66022" lon="3.71063">
        <ele>116</ele>
        <time>2014-04-16T14:24:47Z</time>
      </trkpt>
      <trkpt lat="47.66018" lon="3.71065">
        <ele>116</ele>
        <time>2014-04-16T14:24:51Z</time>
      </trkpt>
      <trkpt lat="47.6601" lon="3.71073">
        <ele>117</ele>
        <time>2014-04-16T14:24:58Z</time>
      </trkpt>
      <trkpt lat="47.66001" lon="3.71078">
        <ele>118</ele>
        <time>2014-04-16T14:25:05Z</time>
      </trkpt>
      <trkpt lat="47.65994" lon="3.71088">
        <ele>119</ele>
        <time>2014-04-16T14:25:15Z</time>
      </trkpt>
      <trkpt lat="47.6599" lon="3.71093">
        <ele>119</ele>
        <time>2014-04-16T14:25:20Z</time>
      </trkpt>
      <trkpt lat="47.65987" lon="3.71093">
        <ele>119</ele>
        <time>2014-04-16T14:25:33Z</time>
      </trkpt>
      <trkpt lat="47.65991" lon="3.71101">
        <ele>119</ele>
        <time>2014-04-16T14:25:37Z</time>
      </trkpt>
      <trkpt lat="47.65992" lon="3.71108">
        <ele>119</ele>
        <time>2014-04-16T14:25:40Z</time>
      </trkpt>
      <trkpt lat="47.6599" lon="3.71122">
        <ele>120</ele>
        <time>2014-04-16T14:25:49Z</time>
      </trkpt>
      <trkpt lat="47.65986" lon="3.71127">
        <ele>120</ele>
        <time>2014-04-16T14:25:54Z</time>
      </trkpt>
      <trkpt lat="47.65984" lon="3.71142">
        <ele>120</ele>
        <time>2014-04-16T14:26:00Z</time>
      </trkpt>
      <trkpt lat="47.65981" lon="3.7115">
        <ele>120</ele>
        <time>2014-04-16T14:26:04Z</time>
      </trkpt>
      <trkpt lat="47.65977" lon="3.71174">
        <ele>120</ele>
        <time>2014-04-16T14:26:15Z</time>
      </trkpt>
      <trkpt lat="47.65975" lon="3.71181">
        <ele>120</ele>
        <time>2014-04-16T14:26:19Z</time>
      </trkpt>
      <trkpt lat="47.65975" lon="3.71189">
        <ele>120</ele>
        <time>2014-04-16T14:26:23Z</time>
      </trkpt>
      <trkpt lat="47.65976" lon="3.71205">
        <ele>120</ele>
        <time>2014-04-16T14:26:32Z</time>
      </trkpt>
      <trkpt lat="47.65976" lon="3.71212">
        <ele>120</ele>
        <time>2014-04-16T14:26:37Z</time>
      </trkpt>
      <trkpt lat="47.65979" lon="3.71234">
        <ele>120</ele>
        <time>2014-04-16T14:26:52Z</time>
      </trkpt>
      <trkpt lat="47.65979" lon="3.71241">
        <ele>119</ele>
        <time>2014-04-16T14:26:56Z</time>
      </trkpt>
      <trkpt lat="47.6598" lon="3.71248">
        <ele>119</ele>
        <time>2014-04-16T14:27:01Z</time>
      </trkpt>
      <trkpt lat="47.65979" lon="3.7127">
        <ele>119</ele>
        <time>2014-04-16T14:27:16Z</time>
      </trkpt>
      <trkpt lat="47.6598" lon="3.71277">
        <ele>119</ele>
        <time>2014-04-16T14:27:21Z</time>
      </trkpt>
      <trkpt lat="47.6598" lon="3.71292">
        <ele>119</ele>
        <time>2014-04-16T14:27:29Z</time>
      </trkpt>
      <trkpt lat="47.65977" lon="3.71308">
        <ele>119</ele>
        <time>2014-04-16T14:27:34Z</time>
      </trkpt>
      <trkpt lat="47.65974" lon="3.71314">
        <ele>119</ele>
        <time>2014-04-16T14:27:39Z</time>
      </trkpt>
      <trkpt lat="47.6597" lon="3.71327">
        <ele>119</ele>
        <time>2014-04-16T14:27:50Z</time>
      </trkpt>
      <trkpt lat="47.65964" lon="3.71342">
        <ele>119</ele>
        <time>2014-04-16T14:27:57Z</time>
      </trkpt>
      <trkpt lat="47.65962" lon="3.71358">
        <ele>119</ele>
        <time>2014-04-16T14:28:07Z</time>
      </trkpt>
      <trkpt lat="47.65958" lon="3.71372">
        <ele>119</ele>
        <time>2014-04-16T14:28:13Z</time>
      </trkpt>
      <trkpt lat="47.65955" lon="3.71377">
        <ele>119</ele>
        <time>2014-04-16T14:28:21Z</time>
      </trkpt>
      <trkpt lat="47.65951" lon="3.71384">
        <ele>119</ele>
        <time>2014-04-16T14:28:26Z</time>
      </trkpt>
      <trkpt lat="47.65948" lon="3.714">
        <ele>120</ele>
        <time>2014-04-16T14:28:35Z</time>
      </trkpt>
      <trkpt lat="47.65944" lon="3.71406">
        <ele>120</ele>
        <time>2014-04-16T14:28:41Z</time>
      </trkpt>
      <trkpt lat="47.6594" lon="3.71412">
        <ele>120</ele>
        <time>2014-04-16T14:28:47Z</time>
      </trkpt>
      <trkpt lat="47.65938" lon="3.71426">
        <ele>120</ele>
        <time>2014-04-16T14:28:54Z</time>
      </trkpt>
      <trkpt lat="47.65932" lon="3.7144">
        <ele>120</ele>
        <time>2014-04-16T14:29:06Z</time>
      </trkpt>
      <trkpt lat="47.65921" lon="3.71474">
        <ele>120</ele>
        <time>2014-04-16T14:29:25Z</time>
      </trkpt>
      <trkpt lat="47.65921" lon="3.71481">
        <ele>120</ele>
        <time>2014-04-16T14:29:30Z</time>
      </trkpt>
      <trkpt lat="47.65917" lon="3.71495">
        <ele>120</ele>
        <time>2014-04-16T14:29:37Z</time>
      </trkpt>
      <trkpt lat="47.65914" lon="3.715">
        <ele>120</ele>
        <time>2014-04-16T14:29:41Z</time>
      </trkpt>
      <trkpt lat="47.65912" lon="3.71506">
        <ele>120</ele>
        <time>2014-04-16T14:29:45Z</time>
      </trkpt>
      <trkpt lat="47.65909" lon="3.71512">
        <ele>120</ele>
        <time>2014-04-16T14:29:49Z</time>
      </trkpt>
      <trkpt lat="47.65906" lon="3.71517">
        <ele>121</ele>
        <time>2014-04-16T14:29:53Z</time>
      </trkpt>
      <trkpt lat="47.65902" lon="3.71522">
        <ele>121</ele>
        <time>2014-04-16T14:29:57Z</time>
      </trkpt>
      <trkpt lat="47.65893" lon="3.71538">
        <ele>121</ele>
        <time>2014-04-16T14:30:13Z</time>
      </trkpt>
      <trkpt lat="47.65888" lon="3.71541">
        <ele>121</ele>
        <time>2014-04-16T14:30:17Z</time>
      </trkpt>
      <trkpt lat="47.65884" lon="3.71555">
        <ele>121</ele>
        <time>2014-04-16T14:30:23Z</time>
      </trkpt>
      <trkpt lat="47.6588" lon="3.7156">
        <ele>121</ele>
        <time>2014-04-16T14:30:27Z</time>
      </trkpt>
      <trkpt lat="47.65876" lon="3.71564">
        <ele>121</ele>
        <time>2014-04-16T14:30:31Z</time>
      </trkpt>
      <trkpt lat="47.65872" lon="3.71569">
        <ele>121</ele>
        <time>2014-04-16T14:30:37Z</time>
      </trkpt>
      <trkpt lat="47.6587" lon="3.71583">
        <ele>121</ele>
        <time>2014-04-16T14:30:46Z</time>
      </trkpt>
      <trkpt lat="47.65866" lon="3.7159">
        <ele>121</ele>
        <time>2014-04-16T14:30:50Z</time>
      </trkpt>
      <trkpt lat="47.65862" lon="3.71595">
        <ele>121</ele>
        <time>2014-04-16T14:31:15Z</time>
      </trkpt>
      <trkpt lat="47.65837" lon="3.71641">
        <ele>121</ele>
        <time>2014-04-16T14:31:49Z</time>
      </trkpt>
      <trkpt lat="47.6583" lon="3.71651">
        <ele>121</ele>
        <time>2014-04-16T14:31:58Z</time>
      </trkpt>
      <trkpt lat="47.65828" lon="3.71659">
        <ele>121</ele>
        <time>2014-04-16T14:32:03Z</time>
      </trkpt>
      <trkpt lat="47.65825" lon="3.71665">
        <ele>121</ele>
        <time>2014-04-16T14:32:07Z</time>
      </trkpt>
      <trkpt lat="47.65812" lon="3.71688">
        <ele>122</ele>
        <time>2014-04-16T14:32:22Z</time>
      </trkpt>
      <trkpt lat="47.65808" lon="3.71702">
        <ele>122</ele>
        <time>2014-04-16T14:32:30Z</time>
      </trkpt>
      <trkpt lat="47.65806" lon="3.71702">
        <ele>122</ele>
        <time>2014-04-16T14:32:40Z</time>
      </trkpt>
      <trkpt lat="47.65803" lon="3.71707">
        <ele>123</ele>
        <time>2014-04-16T14:32:52Z</time>
      </trkpt>
      <trkpt lat="47.65801" lon="3.71713">
        <ele>123</ele>
        <time>2014-04-16T14:32:56Z</time>
      </trkpt>
      <trkpt lat="47.65796" lon="3.71734">
        <ele>123</ele>
        <time>2014-04-16T14:33:11Z</time>
      </trkpt>
      <trkpt lat="47.6579" lon="3.71746">
        <ele>123</ele>
        <time>2014-04-16T14:33:21Z</time>
      </trkpt>
      <trkpt lat="47.65789" lon="3.71752">
        <ele>124</ele>
        <time>2014-04-16T14:33:25Z</time>
      </trkpt>
      <trkpt lat="47.65784" lon="3.71765">
        <ele>124</ele>
        <time>2014-04-16T14:33:33Z</time>
      </trkpt>
      <trkpt lat="47.65784" lon="3.71772">
        <ele>124</ele>
        <time>2014-04-16T14:33:38Z</time>
      </trkpt>
      <trkpt lat="47.65782" lon="3.71787">
        <ele>124</ele>
        <time>2014-04-16T14:33:47Z</time>
      </trkpt>
      <trkpt lat="47.65778" lon="3.718">
        <ele>124</ele>
        <time>2014-04-16T14:33:54Z</time>
      </trkpt>
      <trkpt lat="47.65772" lon="3.71813">
        <ele>124</ele>
        <time>2014-04-16T14:34:02Z</time>
      </trkpt>
      <trkpt lat="47.65767" lon="3.71833">
        <ele>124</ele>
        <time>2014-04-16T14:34:18Z</time>
      </trkpt>
      <trkpt lat="47.65759" lon="3.71853">
        <ele>124</ele>
        <time>2014-04-16T14:34:28Z</time>
      </trkpt>
      <trkpt lat="47.65761" lon="3.71868">
        <ele>124</ele>
        <time>2014-04-16T14:34:38Z</time>
      </trkpt>
      <trkpt lat="47.65758" lon="3.71875">
        <ele>125</ele>
        <time>2014-04-16T14:34:42Z</time>
      </trkpt>
      <trkpt lat="47.65756" lon="3.71883">
        <ele>125</ele>
        <time>2014-04-16T14:34:46Z</time>
      </trkpt>
      <trkpt lat="47.65753" lon="3.71889">
        <ele>125</ele>
        <time>2014-04-16T14:34:51Z</time>
      </trkpt>
      <trkpt lat="47.65752" lon="3.71895">
        <ele>125</ele>
        <time>2014-04-16T14:34:57Z</time>
      </trkpt>
      <trkpt lat="47.65747" lon="3.71897">
        <ele>127</ele>
        <time>2014-04-16T14:35:03Z</time>
      </trkpt>
      <trkpt lat="47.65749" lon="3.71894">
        <ele>127</ele>
        <time>2014-04-16T14:35:20Z</time>
      </trkpt>
      <trkpt lat="47.65745" lon="3.7189">
        <ele>127</ele>
        <time>2014-04-16T14:35:56Z</time>
      </trkpt>
      <trkpt lat="47.65743" lon="3.71901">
        <ele>127</ele>
        <time>2014-04-16T14:36:34Z</time>
      </trkpt>
      <trkpt lat="47.65743" lon="3.71915">
        <ele>126</ele>
        <time>2014-04-16T14:36:43Z</time>
      </trkpt>
      <trkpt lat="47.65738" lon="3.71927">
        <ele>127</ele>
        <time>2014-04-16T14:36:48Z</time>
      </trkpt>
      <trkpt lat="47.65735" lon="3.7194">
        <ele>127</ele>
        <time>2014-04-16T14:36:55Z</time>
      </trkpt>
      <trkpt lat="47.65727" lon="3.71948">
        <ele>128</ele>
        <time>2014-04-16T14:37:00Z</time>
      </trkpt>
      <trkpt lat="47.65723" lon="3.71963">
        <ele>128</ele>
        <time>2014-04-16T14:37:06Z</time>
      </trkpt>
      <trkpt lat="47.65721" lon="3.71976">
        <ele>128</ele>
        <time>2014-04-16T14:37:12Z</time>
      </trkpt>
      <trkpt lat="47.65717" lon="3.71983">
        <ele>128</ele>
        <time>2014-04-16T14:37:16Z</time>
      </trkpt>
      <trkpt lat="47.65721" lon="3.71995">
        <ele>128</ele>
        <time>2014-04-16T14:37:26Z</time>
      </trkpt>
      <trkpt lat="47.65709" lon="3.72022">
        <ele>128</ele>
        <time>2014-04-16T14:37:41Z</time>
      </trkpt>
      <trkpt lat="47.65704" lon="3.72045">
        <ele>128</ele>
        <time>2014-04-16T14:37:54Z</time>
      </trkpt>
      <trkpt lat="47.65706" lon="3.72059">
        <ele>128</ele>
        <time>2014-04-16T14:38:03Z</time>
      </trkpt>
      <trkpt lat="47.65706" lon="3.72073">
        <ele>128</ele>
        <time>2014-04-16T14:38:10Z</time>
      </trkpt>
      <trkpt lat="47.65703" lon="3.72086">
        <ele>129</ele>
        <time>2014-04-16T14:38:20Z</time>
      </trkpt>
      <trkpt lat="47.65702" lon="3.72099">
        <ele>129</ele>
        <time>2014-04-16T14:38:30Z</time>
      </trkpt>
      <trkpt lat="47.65697" lon="3.72112">
        <ele>129</ele>
        <time>2014-04-16T14:38:38Z</time>
      </trkpt>
      <trkpt lat="47.65694" lon="3.72139">
        <ele>129</ele>
        <time>2014-04-16T14:38:53Z</time>
      </trkpt>
      <trkpt lat="47.65692" lon="3.72145">
        <ele>129</ele>
        <time>2014-04-16T14:38:57Z</time>
      </trkpt>
      <trkpt lat="47.6569" lon="3.72152">
        <ele>129</ele>
        <time>2014-04-16T14:39:01Z</time>
      </trkpt>
      <trkpt lat="47.65681" lon="3.72169">
        <ele>129</ele>
        <time>2014-04-16T14:39:15Z</time>
      </trkpt>
      <trkpt lat="47.65678" lon="3.72177">
        <ele>129</ele>
        <time>2014-04-16T14:39:25Z</time>
      </trkpt>
      <trkpt lat="47.65676" lon="3.72184">
        <ele>129</ele>
        <time>2014-04-16T14:39:32Z</time>
      </trkpt>
      <trkpt lat="47.65673" lon="3.72189">
        <ele>129</ele>
        <time>2014-04-16T14:39:36Z</time>
      </trkpt>
      <trkpt lat="47.65665" lon="3.7221">
        <ele>133</ele>
        <time>2014-04-16T14:39:47Z</time>
      </trkpt>
      <trkpt lat="47.65666" lon="3.72217">
        <ele>133</ele>
        <time>2014-04-16T14:39:51Z</time>
      </trkpt>
      <trkpt lat="47.65657" lon="3.72229">
        <ele>133</ele>
        <time>2014-04-16T14:40:03Z</time>
      </trkpt>
      <trkpt lat="47.65657" lon="3.72235">
        <ele>132</ele>
        <time>2014-04-16T14:40:07Z</time>
      </trkpt>
      <trkpt lat="47.65652" lon="3.72248">
        <ele>132</ele>
        <time>2014-04-16T14:40:15Z</time>
      </trkpt>
      <trkpt lat="47.65648" lon="3.72269">
        <ele>134</ele>
        <time>2014-04-16T14:40:28Z</time>
      </trkpt>
      <trkpt lat="47.65645" lon="3.72275">
        <ele>134</ele>
        <time>2014-04-16T14:40:33Z</time>
      </trkpt>
      <trkpt lat="47.65643" lon="3.72281">
        <ele>134</ele>
        <time>2014-04-16T14:40:37Z</time>
      </trkpt>
      <trkpt lat="47.65637" lon="3.72292">
        <ele>135</ele>
        <time>2014-04-16T14:40:45Z</time>
      </trkpt>
      <trkpt lat="47.65639" lon="3.72305">
        <ele>135</ele>
        <time>2014-04-16T14:40:56Z</time>
      </trkpt>
      <trkpt lat="47.65633" lon="3.72315">
        <ele>135</ele>
        <time>2014-04-16T14:41:05Z</time>
      </trkpt>
      <trkpt lat="47.65624" lon="3.72325">
        <ele>135</ele>
        <time>2014-04-16T14:41:10Z</time>
      </trkpt>
      <trkpt lat="47.65622" lon="3.72338">
        <ele>135</ele>
        <time>2014-04-16T14:41:18Z</time>
      </trkpt>
      <trkpt lat="47.65618" lon="3.72352">
        <ele>135</ele>
        <time>2014-04-16T14:41:26Z</time>
      </trkpt>
      <trkpt lat="47.65611" lon="3.72361">
        <ele>135</ele>
        <time>2014-04-16T14:41:32Z</time>
      </trkpt>
      <trkpt lat="47.65607" lon="3.72373">
        <ele>135</ele>
        <time>2014-04-16T14:41:39Z</time>
      </trkpt>
      <trkpt lat="47.65605" lon="3.72382">
        <ele>135</ele>
        <time>2014-04-16T14:41:46Z</time>
      </trkpt>
      <trkpt lat="47.65596" lon="3.72391">
        <ele>135</ele>
        <time>2014-04-16T14:42:08Z</time>
      </trkpt>
      <trkpt lat="47.65592" lon="3.72401">
        <ele>135</ele>
        <time>2014-04-16T14:42:13Z</time>
      </trkpt>
      <trkpt lat="47.65589" lon="3.72407">
        <ele>135</ele>
        <time>2014-04-16T14:42:17Z</time>
      </trkpt>
      <trkpt lat="47.65585" lon="3.7241">
        <ele>136</ele>
        <time>2014-04-16T14:42:21Z</time>
      </trkpt>
      <trkpt lat="47.65582" lon="3.72416">
        <ele>136</ele>
        <time>2014-04-16T14:42:27Z</time>
      </trkpt>
      <trkpt lat="47.65583" lon="3.72425">
        <ele>136</ele>
        <time>2014-04-16T14:42:32Z</time>
      </trkpt>
      <trkpt lat="47.65583" lon="3.72432">
        <ele>136</ele>
        <time>2014-04-16T14:42:36Z</time>
      </trkpt>
      <trkpt lat="47.65573" lon="3.72455">
        <ele>135</ele>
        <time>2014-04-16T14:42:52Z</time>
      </trkpt>
      <trkpt lat="47.65566" lon="3.72465">
        <ele>135</ele>
        <time>2014-04-16T14:43:00Z</time>
      </trkpt>
      <trkpt lat="47.65562" lon="3.72469">
        <ele>134</ele>
        <time>2014-04-16T14:43:04Z</time>
      </trkpt>
      <trkpt lat="47.6556" lon="3.72467">
        <ele>135</ele>
        <time>2014-04-16T14:43:10Z</time>
      </trkpt>
      <trkpt lat="47.6556" lon="3.72467">
        <ele>135</ele>
        <time>2014-04-16T14:43:25Z</time>
      </trkpt>
      <trkpt lat="47.65556" lon="3.72471">
        <ele>134</ele>
        <time>2014-04-16T14:43:30Z</time>
      </trkpt>
      <trkpt lat="47.65553" lon="3.72477">
        <ele>134</ele>
        <time>2014-04-16T14:43:35Z</time>
      </trkpt>
      <trkpt lat="47.6555" lon="3.72481">
        <ele>134</ele>
        <time>2014-04-16T14:43:40Z</time>
      </trkpt>
      <trkpt lat="47.65546" lon="3.72485">
        <ele>134</ele>
        <time>2014-04-16T14:43:46Z</time>
      </trkpt>
      <trkpt lat="47.65542" lon="3.72488">
        <ele>134</ele>
        <time>2014-04-16T14:43:53Z</time>
      </trkpt>
      <trkpt lat="47.6552" lon="3.72523">
        <ele>131</ele>
        <time>2014-04-16T14:44:17Z</time>
      </trkpt>
      <trkpt lat="47.65516" lon="3.72526">
        <ele>131</ele>
        <time>2014-04-16T14:44:21Z</time>
      </trkpt>
      <trkpt lat="47.65511" lon="3.72527">
        <ele>131</ele>
        <time>2014-04-16T14:44:26Z</time>
      </trkpt>
      <trkpt lat="47.65512" lon="3.72532">
        <ele>131</ele>
        <time>2014-04-16T14:44:44Z</time>
      </trkpt>
      <trkpt lat="47.65506" lon="3.72539">
        <ele>131</ele>
        <time>2014-04-16T14:44:55Z</time>
      </trkpt>
      <trkpt lat="47.65501" lon="3.7254">
        <ele>131</ele>
        <time>2014-04-16T14:44:59Z</time>
      </trkpt>
      <trkpt lat="47.65492" lon="3.72547">
        <ele>133</ele>
        <time>2014-04-16T14:45:08Z</time>
      </trkpt>
      <trkpt lat="47.65486" lon="3.72552">
        <ele>133</ele>
        <time>2014-04-16T14:45:12Z</time>
      </trkpt>
      <trkpt lat="47.65482" lon="3.72557">
        <ele>133</ele>
        <time>2014-04-16T14:45:15Z</time>
      </trkpt>
      <trkpt lat="47.65477" lon="3.72555">
        <ele>133</ele>
        <time>2014-04-16T14:45:21Z</time>
      </trkpt>
      <trkpt lat="47.65473" lon="3.72557">
        <ele>133</ele>
        <time>2014-04-16T14:45:26Z</time>
      </trkpt>
      <trkpt lat="47.65469" lon="3.7256">
        <ele>133</ele>
        <time>2014-04-16T14:45:29Z</time>
      </trkpt>
      <trkpt lat="47.65465" lon="3.72567">
        <ele>133</ele>
        <time>2014-04-16T14:45:33Z</time>
      </trkpt>
      <trkpt lat="47.65448" lon="3.72581">
        <ele>132</ele>
        <time>2014-04-16T14:45:51Z</time>
      </trkpt>
      <trkpt lat="47.65438" lon="3.72579">
        <ele>132</ele>
        <time>2014-04-16T14:45:59Z</time>
      </trkpt>
      <trkpt lat="47.65429" lon="3.72582">
        <ele>131</ele>
        <time>2014-04-16T14:46:07Z</time>
      </trkpt>
      <trkpt lat="47.65412" lon="3.72597">
        <ele>126</ele>
        <time>2014-04-16T14:46:21Z</time>
      </trkpt>
      <trkpt lat="47.65404" lon="3.72606">
        <ele>125</ele>
        <time>2014-04-16T14:46:28Z</time>
      </trkpt>
      <trkpt lat="47.65397" lon="3.72617">
        <ele>124</ele>
        <time>2014-04-16T14:46:37Z</time>
      </trkpt>
      <trkpt lat="47.65387" lon="3.72619">
        <ele>123</ele>
        <time>2014-04-16T14:46:45Z</time>
      </trkpt>
      <trkpt lat="47.65378" lon="3.72617">
        <ele>124</ele>
        <time>2014-04-16T14:46:56Z</time>
      </trkpt>
      <trkpt lat="47.65369" lon="3.72618">
        <ele>124</ele>
        <time>2014-04-16T14:47:03Z</time>
      </trkpt>
      <trkpt lat="47.6536" lon="3.72624">
        <ele>123</ele>
        <time>2014-04-16T14:47:12Z</time>
      </trkpt>
      <trkpt lat="47.6535" lon="3.72627">
        <ele>123</ele>
        <time>2014-04-16T14:47:19Z</time>
      </trkpt>
      <trkpt lat="47.65341" lon="3.72623">
        <ele>123</ele>
        <time>2014-04-16T14:47:28Z</time>
      </trkpt>
      <trkpt lat="47.65332" lon="3.72625">
        <ele>125</ele>
        <time>2014-04-16T14:47:35Z</time>
      </trkpt>
      <trkpt lat="47.65323" lon="3.7263">
        <ele>125</ele>
        <time>2014-04-16T14:47:44Z</time>
      </trkpt>
      <trkpt lat="47.65314" lon="3.72631">
        <ele>125</ele>
        <time>2014-04-16T14:47:55Z</time>
      </trkpt>
      <trkpt lat="47.65278" lon="3.72647">
        <ele>125</ele>
        <time>2014-04-16T14:48:46Z</time>
      </trkpt>
      <trkpt lat="47.65269" lon="3.72652">
        <ele>125</ele>
        <time>2014-04-16T14:48:53Z</time>
      </trkpt>
      <trkpt lat="47.65263" lon="3.72653">
        <ele>125</ele>
        <time>2014-04-16T14:48:57Z</time>
      </trkpt>
      <trkpt lat="47.65258" lon="3.7265">
        <ele>125</ele>
        <time>2014-04-16T14:49:03Z</time>
      </trkpt>
      <trkpt lat="47.65254" lon="3.72645">
        <ele>125</ele>
        <time>2014-04-16T14:49:08Z</time>
      </trkpt>
      <trkpt lat="47.65247" lon="3.72645">
        <ele>128</ele>
        <time>2014-04-16T14:49:12Z</time>
      </trkpt>
      <trkpt lat="47.65242" lon="3.72644">
        <ele>128</ele>
        <time>2014-04-16T14:49:15Z</time>
      </trkpt>
      <trkpt lat="47.65231" lon="3.72646">
        <ele>128</ele>
        <time>2014-04-16T14:49:22Z</time>
      </trkpt>
      <trkpt lat="47.65229" lon="3.72634">
        <ele>130</ele>
        <time>2014-04-16T14:49:40Z</time>
      </trkpt>
      <trkpt lat="47.65216" lon="3.72636">
        <ele>130</ele>
        <time>2014-04-16T14:50:13Z</time>
      </trkpt>
      <trkpt lat="47.65183" lon="3.72631">
        <ele>130</ele>
        <time>2014-04-16T14:50:44Z</time>
      </trkpt>
      <trkpt lat="47.65156" lon="3.72624">
        <ele>131</ele>
        <time>2014-04-16T14:51:02Z</time>
      </trkpt>
      <trkpt lat="47.65126" lon="3.7263">
        <ele>130</ele>
        <time>2014-04-16T14:51:32Z</time>
      </trkpt>
      <trkpt lat="47.65099" lon="3.72612">
        <ele>132</ele>
        <time>2014-04-16T14:52:01Z</time>
      </trkpt>
      <trkpt lat="47.65088" lon="3.72608">
        <ele>132</ele>
        <time>2014-04-16T14:52:25Z</time>
      </trkpt>
      <trkpt lat="47.65079" lon="3.72608">
        <ele>130</ele>
        <time>2014-04-16T14:52:32Z</time>
      </trkpt>
      <trkpt lat="47.65059" lon="3.726">
        <ele>130</ele>
        <time>2014-04-16T14:53:03Z</time>
      </trkpt>
      <trkpt lat="47.6505" lon="3.72597">
        <ele>129</ele>
        <time>2014-04-16T14:53:12Z</time>
      </trkpt>
      <trkpt lat="47.6504" lon="3.72598">
        <ele>129</ele>
        <time>2014-04-16T14:53:26Z</time>
      </trkpt>
      <trkpt lat="47.65031" lon="3.72594">
        <ele>129</ele>
        <time>2014-04-16T14:53:35Z</time>
      </trkpt>
      <trkpt lat="47.65023" lon="3.72589">
        <ele>129</ele>
        <time>2014-04-16T14:53:45Z</time>
      </trkpt>
      <trkpt lat="47.65022" lon="3.72575">
        <ele>139</ele>
        <time>2014-04-16T14:53:53Z</time>
      </trkpt>
      <trkpt lat="47.65013" lon="3.72581">
        <ele>137</ele>
        <time>2014-04-16T14:54:07Z</time>
      </trkpt>
      <trkpt lat="47.65004" lon="3.7258">
        <ele>134</ele>
        <time>2014-04-16T14:54:20Z</time>
      </trkpt>
      <trkpt lat="47.64996" lon="3.72573">
        <ele>135</ele>
        <time>2014-04-16T14:54:29Z</time>
      </trkpt>
      <trkpt lat="47.64986" lon="3.72572">
        <ele>137</ele>
        <time>2014-04-16T14:54:41Z</time>
      </trkpt>
      <trkpt lat="47.64982" lon="3.72558">
        <ele>139</ele>
        <time>2014-04-16T14:54:46Z</time>
      </trkpt>
      <trkpt lat="47.64974" lon="3.72552">
        <ele>140</ele>
        <time>2014-04-16T14:54:53Z</time>
      </trkpt>
      <trkpt lat="47.64965" lon="3.72552">
        <ele>140</ele>
        <time>2014-04-16T14:55:07Z</time>
      </trkpt>
      <trkpt lat="47.64957" lon="3.72545">
        <ele>141</ele>
        <time>2014-04-16T14:55:19Z</time>
      </trkpt>
      <trkpt lat="47.64948" lon="3.7254">
        <ele>142</ele>
        <time>2014-04-16T14:55:28Z</time>
      </trkpt>
      <trkpt lat="47.64938" lon="3.72536">
        <ele>142</ele>
        <time>2014-04-16T14:55:41Z</time>
      </trkpt>
      <trkpt lat="47.64931" lon="3.72528">
        <ele>144</ele>
        <time>2014-04-16T14:55:53Z</time>
      </trkpt>
      <trkpt lat="47.64914" lon="3.72536">
        <ele>142</ele>
        <time>2014-04-16T14:56:08Z</time>
      </trkpt>
      <trkpt lat="47.64908" lon="3.72524">
        <ele>145</ele>
        <time>2014-04-16T14:56:20Z</time>
      </trkpt>
      <trkpt lat="47.64889" lon="3.72512">
        <ele>146</ele>
        <time>2014-04-16T14:56:51Z</time>
      </trkpt>
      <trkpt lat="47.64882" lon="3.72502">
        <ele>146</ele>
        <time>2014-04-16T14:56:59Z</time>
      </trkpt>
      <trkpt lat="47.64836" lon="3.72496">
        <ele>156</ele>
        <time>2014-04-16T14:57:44Z</time>
      </trkpt>
      <trkpt lat="47.64836" lon="3.72488">
        <ele>160</ele>
        <time>2014-04-16T14:58:11Z</time>
      </trkpt>
      <trkpt lat="47.64817" lon="3.7249">
        <ele>162</ele>
        <time>2014-04-16T14:58:28Z</time>
      </trkpt>
      <trkpt lat="47.64806" lon="3.72487">
        <ele>165</ele>
        <time>2014-04-16T14:59:01Z</time>
      </trkpt>
      <trkpt lat="47.64796" lon="3.72487">
        <ele>165</ele>
        <time>2014-04-16T14:59:08Z</time>
      </trkpt>
      <trkpt lat="47.6477" lon="3.72495">
        <ele>163</ele>
        <time>2014-04-16T14:59:40Z</time>
      </trkpt>
      <trkpt lat="47.64746" lon="3.72467">
        <ele>170</ele>
        <time>2014-04-16T15:00:11Z</time>
      </trkpt>
      <trkpt lat="47.64719" lon="3.7247">
        <ele>171</ele>
        <time>2014-04-16T15:00:40Z</time>
      </trkpt>
      <trkpt lat="47.64692" lon="3.72477">
        <ele>170</ele>
        <time>2014-04-16T15:01:03Z</time>
      </trkpt>
      <trkpt lat="47.64666" lon="3.72494">
        <ele>162</ele>
        <time>2014-04-16T15:01:33Z</time>
      </trkpt>
      <trkpt lat="47.64639" lon="3.725">
        <ele>162</ele>
        <time>2014-04-16T15:02:00Z</time>
      </trkpt>
      <trkpt lat="47.64613" lon="3.72512">
        <ele>155</ele>
        <time>2014-04-16T15:02:19Z</time>
      </trkpt>
      <trkpt lat="47.64411" lon="3.7265">
        <ele>155</ele>
        <time>2014-04-16T15:07:14Z</time>
      </trkpt>
      <trkpt lat="47.64345" lon="3.72755">
        <ele>142</ele>
        <time>2014-04-16T15:08:56Z</time>
      </trkpt>
      <trkpt lat="47.64261" lon="3.72859">
        <ele>130</ele>
        <time>2014-04-16T15:10:28Z</time>
      </trkpt>
      <trkpt lat="47.64196" lon="3.72855">
        <ele>136</ele>
        <time>2014-04-16T15:11:29Z</time>
      </trkpt>
      <trkpt lat="47.6418" lon="3.7298">
        <ele>128</ele>
        <time>2014-04-16T15:13:18Z</time>
      </trkpt>
      <trkpt lat="47.64108" lon="3.73126">
        <ele>132</ele>
        <time>2014-04-16T15:15:20Z</time>
      </trkpt>
      <trkpt lat="47.64014" lon="3.73246">
        <ele>136</ele>
        <time>2014-04-16T15:17:47Z</time>
      </trkpt>
      <trkpt lat="47.6401" lon="3.73258">
        <ele>131</ele>
        <time>2014-04-16T15:17:57Z</time>
      </trkpt>
      <trkpt lat="47.64007" lon="3.73272">
        <ele>128</ele>
        <time>2014-04-16T15:18:02Z</time>
      </trkpt>
      <trkpt lat="47.63988" lon="3.73287">
        <ele>137</ele>
        <time>2014-04-16T15:18:16Z</time>
      </trkpt>
      <trkpt lat="47.63966" lon="3.73307">
        <ele>137</ele>
        <time>2014-04-16T15:18:44Z</time>
      </trkpt>
      <trkpt lat="47.63956" lon="3.73309">
        <ele>139</ele>
        <time>2014-04-16T15:18:53Z</time>
      </trkpt>
      <trkpt lat="47.63947" lon="3.73315">
        <ele>139</ele>
        <time>2014-04-16T15:18:59Z</time>
      </trkpt>
      <trkpt lat="47.63939" lon="3.73322">
        <ele>140</ele>
        <time>2014-04-16T15:19:07Z</time>
      </trkpt>
      <trkpt lat="47.63931" lon="3.73333">
        <ele>140</ele>
        <time>2014-04-16T15:19:22Z</time>
      </trkpt>
      <trkpt lat="47.63923" lon="3.73337">
        <ele>136</ele>
        <time>2014-04-16T15:19:28Z</time>
      </trkpt>
      <trkpt lat="47.63897" lon="3.73359">
        <ele>140</ele>
        <time>2014-04-16T15:19:49Z</time>
      </trkpt>
      <trkpt lat="47.63884" lon="3.73366">
        <ele>140</ele>
        <time>2014-04-16T15:20:04Z</time>
      </trkpt>
      <trkpt lat="47.63872" lon="3.7338">
        <ele>140</ele>
        <time>2014-04-16T15:20:16Z</time>
      </trkpt>
      <trkpt lat="47.63865" lon="3.73388">
        <ele>139</ele>
        <time>2014-04-16T15:20:24Z</time>
      </trkpt>
      <trkpt lat="47.63856" lon="3.73395">
        <ele>139</ele>
        <time>2014-04-16T15:20:35Z</time>
      </trkpt>
      <trkpt lat="47.63823" lon="3.73427">
        <ele>136</ele>
        <time>2014-04-16T15:21:06Z</time>
      </trkpt>
      <trkpt lat="47.63815" lon="3.73434">
        <ele>135</ele>
        <time>2014-04-16T15:21:14Z</time>
      </trkpt>
      <trkpt lat="47.63807" lon="3.73442">
        <ele>135</ele>
        <time>2014-04-16T15:21:25Z</time>
      </trkpt>
      <trkpt lat="47.63795" lon="3.73462">
        <ele>134</ele>
        <time>2014-04-16T15:21:48Z</time>
      </trkpt>
      <trkpt lat="47.63792" lon="3.73475">
        <ele>133</ele>
        <time>2014-04-16T15:22:02Z</time>
      </trkpt>
      <trkpt lat="47.63764" lon="3.73544">
        <ele>126</ele>
        <time>2014-04-16T15:22:56Z</time>
      </trkpt>
      <trkpt lat="47.63748" lon="3.73595">
        <ele>128</ele>
        <time>2014-04-16T15:23:27Z</time>
      </trkpt>
      <trkpt lat="47.63732" lon="3.73629">
        <ele>130</ele>
        <time>2014-04-16T15:23:52Z</time>
      </trkpt>
      <trkpt lat="47.63718" lon="3.73672">
        <ele>124</ele>
        <time>2014-04-16T15:24:23Z</time>
      </trkpt>
      <trkpt lat="47.63699" lon="3.73701">
        <ele>125</ele>
        <time>2014-04-16T15:24:41Z</time>
      </trkpt>
      <trkpt lat="47.63677" lon="3.73718">
        <ele>125</ele>
        <time>2014-04-16T15:25:51Z</time>
      </trkpt>
      <trkpt lat="47.63577" lon="3.73775">
        <ele>125</ele>
        <time>2014-04-16T15:26:52Z</time>
      </trkpt>
      <trkpt lat="47.63547" lon="3.73801">
        <ele>124</ele>
        <time>2014-04-16T15:27:23Z</time>
      </trkpt>
      <trkpt lat="47.63523" lon="3.73799">
        <ele>124</ele>
        <time>2014-04-16T15:27:53Z</time>
      </trkpt>
      <trkpt lat="47.63522" lon="3.73814">
        <ele>123</ele>
        <time>2014-04-16T15:28:06Z</time>
      </trkpt>
      <trkpt lat="47.63513" lon="3.73817">
        <ele>123</ele>
        <time>2014-04-16T15:28:14Z</time>
      </trkpt>
      <trkpt lat="47.63482" lon="3.7382">
        <ele>126</ele>
        <time>2014-04-16T15:28:52Z</time>
      </trkpt>
      <trkpt lat="47.63455" lon="3.73807">
        <ele>128</ele>
        <time>2014-04-16T15:29:12Z</time>
      </trkpt>
      <trkpt lat="47.63425" lon="3.73833">
        <ele>124</ele>
        <time>2014-04-16T15:29:43Z</time>
      </trkpt>
      <trkpt lat="47.63298" lon="3.73882">
        <ele>127</ele>
        <time>2014-04-16T15:31:44Z</time>
      </trkpt>
      <trkpt lat="47.63278" lon="3.739">
        <ele>127</ele>
        <time>2014-04-16T15:32:08Z</time>
      </trkpt>
      <trkpt lat="47.6327" lon="3.73907">
        <ele>126</ele>
        <time>2014-04-16T15:32:13Z</time>
      </trkpt>
      <trkpt lat="47.63261" lon="3.73911">
        <ele>126</ele>
        <time>2014-04-16T15:32:19Z</time>
      </trkpt>
      <trkpt lat="47.63251" lon="3.73913">
        <ele>125</ele>
        <time>2014-04-16T15:32:29Z</time>
      </trkpt>
      <trkpt lat="47.63242" lon="3.73917">
        <ele>127</ele>
        <time>2014-04-16T15:32:34Z</time>
      </trkpt>
      <trkpt lat="47.63237" lon="3.73915">
        <ele>128</ele>
        <time>2014-04-16T15:32:41Z</time>
      </trkpt>
      <trkpt lat="47.63229" lon="3.73918">
        <ele>123</ele>
        <time>2014-04-16T15:32:48Z</time>
      </trkpt>
      <trkpt lat="47.6322" lon="3.73917">
        <ele>123</ele>
        <time>2014-04-16T15:32:57Z</time>
      </trkpt>
      <trkpt lat="47.63215" lon="3.73918">
        <ele>123</ele>
        <time>2014-04-16T15:33:02Z</time>
      </trkpt>
      <trkpt lat="47.63204" lon="3.73918">
        <ele>123</ele>
        <time>2014-04-16T15:33:10Z</time>
      </trkpt>
      <trkpt lat="47.63096" lon="3.73934">
        <ele>123</ele>
        <time>2014-04-16T15:34:45Z</time>
      </trkpt>
      <trkpt lat="47.63094" lon="3.73916">
        <ele>127</ele>
        <time>2014-04-16T15:34:55Z</time>
      </trkpt>
      <trkpt lat="47.63096" lon="3.73903">
        <ele>128</ele>
        <time>2014-04-16T15:35:00Z</time>
      </trkpt>
      <trkpt lat="47.63087" lon="3.739">
        <ele>128</ele>
        <time>2014-04-16T15:35:14Z</time>
      </trkpt>
      <trkpt lat="47.63078" lon="3.73903">
        <ele>126</ele>
        <time>2014-04-16T15:35:23Z</time>
      </trkpt>
      <trkpt lat="47.63069" lon="3.73904">
        <ele>126</ele>
        <time>2014-04-16T15:35:32Z</time>
      </trkpt>
      <trkpt lat="47.63063" lon="3.73893">
        <ele>127</ele>
        <time>2014-04-16T15:35:41Z</time>
      </trkpt>
      <trkpt lat="47.63054" lon="3.73888">
        <ele>127</ele>
        <time>2014-04-16T15:35:51Z</time>
      </trkpt>
      <trkpt lat="47.63045" lon="3.73885">
        <ele>127</ele>
        <time>2014-04-16T15:36:01Z</time>
      </trkpt>
      <trkpt lat="47.63037" lon="3.73876">
        <ele>128</ele>
        <time>2014-04-16T15:36:11Z</time>
      </trkpt>
      <trkpt lat="47.63026" lon="3.73877">
        <ele>127</ele>
        <time>2014-04-16T15:36:16Z</time>
      </trkpt>
      <trkpt lat="47.63017" lon="3.73881">
        <ele>127</ele>
        <time>2014-04-16T15:36:23Z</time>
      </trkpt>
      <trkpt lat="47.63009" lon="3.73874">
        <ele>127</ele>
        <time>2014-04-16T15:36:31Z</time>
      </trkpt>
      <trkpt lat="47.62995" lon="3.73856">
        <ele>126</ele>
        <time>2014-04-16T15:36:49Z</time>
      </trkpt>
      <trkpt lat="47.62986" lon="3.73852">
        <ele>126</ele>
        <time>2014-04-16T15:36:58Z</time>
      </trkpt>
      <trkpt lat="47.62976" lon="3.7385">
        <ele>125</ele>
        <time>2014-04-16T15:37:03Z</time>
      </trkpt>
      <trkpt lat="47.62967" lon="3.73847">
        <ele>125</ele>
        <time>2014-04-16T15:37:08Z</time>
      </trkpt>
      <trkpt lat="47.62959" lon="3.7384">
        <ele>125</ele>
        <time>2014-04-16T15:37:15Z</time>
      </trkpt>
      <trkpt lat="47.62959" lon="3.7383">
        <ele>133</ele>
        <time>2014-04-16T15:37:16Z</time>
      </trkpt>
      <trkpt lat="47.62952" lon="3.7383">
        <ele>132</ele>
        <time>2014-04-16T15:37:26Z</time>
      </trkpt>
      <trkpt lat="47.62947" lon="3.73826">
        <ele>132</ele>
        <time>2014-04-16T15:37:30Z</time>
      </trkpt>
      <trkpt lat="47.62937" lon="3.73829">
        <ele>130</ele>
        <time>2014-04-16T15:37:37Z</time>
      </trkpt>
      <trkpt lat="47.62932" lon="3.73831">
        <ele>129</ele>
        <time>2014-04-16T15:37:40Z</time>
      </trkpt>
      <trkpt lat="47.62928" lon="3.73828">
        <ele>129</ele>
        <time>2014-04-16T15:37:43Z</time>
      </trkpt>
      <trkpt lat="47.62926" lon="3.73821">
        <ele>130</ele>
        <time>2014-04-16T15:37:46Z</time>
      </trkpt>
      <trkpt lat="47.62923" lon="3.73816">
        <ele>130</ele>
        <time>2014-04-16T15:37:50Z</time>
      </trkpt>
      <trkpt lat="47.62911" lon="3.73803">
        <ele>127</ele>
        <time>2014-04-16T15:38:02Z</time>
      </trkpt>
      <trkpt lat="47.62908" lon="3.73801">
        <ele>127</ele>
        <time>2014-04-16T15:38:09Z</time>
      </trkpt>
      <trkpt lat="47.62897" lon="3.73795">
        <ele>127</ele>
        <time>2014-04-16T15:38:34Z</time>
      </trkpt>
      <trkpt lat="47.62892" lon="3.73793">
        <ele>127</ele>
        <time>2014-04-16T15:38:38Z</time>
      </trkpt>
      <trkpt lat="47.62887" lon="3.73792">
        <ele>127</ele>
        <time>2014-04-16T15:38:42Z</time>
      </trkpt>
      <trkpt lat="47.62883" lon="3.73787">
        <ele>127</ele>
        <time>2014-04-16T15:38:46Z</time>
      </trkpt>
      <trkpt lat="47.62878" lon="3.7379">
        <ele>127</ele>
        <time>2014-04-16T15:38:55Z</time>
      </trkpt>
      <trkpt lat="47.62868" lon="3.7379">
        <ele>126</ele>
        <time>2014-04-16T15:39:03Z</time>
      </trkpt>
      <trkpt lat="47.62863" lon="3.73787">
        <ele>126</ele>
        <time>2014-04-16T15:39:07Z</time>
      </trkpt>
      <trkpt lat="47.62858" lon="3.73783">
        <ele>126</ele>
        <time>2014-04-16T15:39:12Z</time>
      </trkpt>
      <trkpt lat="47.62854" lon="3.73778">
        <ele>127</ele>
        <time>2014-04-16T15:39:16Z</time>
      </trkpt>
      <trkpt lat="47.62835" lon="3.73768">
        <ele>127</ele>
        <time>2014-04-16T15:39:46Z</time>
      </trkpt>
      <trkpt lat="47.62826" lon="3.73764">
        <ele>124</ele>
        <time>2014-04-16T15:39:54Z</time>
      </trkpt>
      <trkpt lat="47.62822" lon="3.73757">
        <ele>125</ele>
        <time>2014-04-16T15:39:58Z</time>
      </trkpt>
      <trkpt lat="47.62817" lon="3.73753">
        <ele>124</ele>
        <time>2014-04-16T15:40:02Z</time>
      </trkpt>
      <trkpt lat="47.62812" lon="3.73754">
        <ele>124</ele>
        <time>2014-04-16T15:40:06Z</time>
      </trkpt>
      <trkpt lat="47.62803" lon="3.73758">
        <ele>123</ele>
        <time>2014-04-16T15:40:13Z</time>
      </trkpt>
      <trkpt lat="47.62791" lon="3.73762">
        <ele>122</ele>
        <time>2014-04-16T15:40:21Z</time>
      </trkpt>
      <trkpt lat="47.62777" lon="3.73758">
        <ele>121</ele>
        <time>2014-04-16T15:40:34Z</time>
      </trkpt>
      <trkpt lat="47.62774" lon="3.73757">
        <ele>121</ele>
        <time>2014-04-16T15:40:42Z</time>
      </trkpt>
      <trkpt lat="47.62769" lon="3.73756">
        <ele>121</ele>
        <time>2014-04-16T15:40:53Z</time>
      </trkpt>
      <trkpt lat="47.62764" lon="3.73758">
        <ele>121</ele>
        <time>2014-04-16T15:40:57Z</time>
      </trkpt>
      <trkpt lat="47.62759" lon="3.7376">
        <ele>121</ele>
        <time>2014-04-16T15:41:01Z</time>
      </trkpt>
      <trkpt lat="47.62753" lon="3.7376">
        <ele>121</ele>
        <time>2014-04-16T15:41:05Z</time>
      </trkpt>
      <trkpt lat="47.62748" lon="3.73758">
        <ele>120</ele>
        <time>2014-04-16T15:41:09Z</time>
      </trkpt>
      <trkpt lat="47.62743" lon="3.73758">
        <ele>120</ele>
        <time>2014-04-16T15:41:13Z</time>
      </trkpt>
      <trkpt lat="47.62727" lon="3.73755">
        <ele>119</ele>
        <time>2014-04-16T15:41:26Z</time>
      </trkpt>
      <trkpt lat="47.62722" lon="3.73754">
        <ele>119</ele>
        <time>2014-04-16T15:41:30Z</time>
      </trkpt>
      <trkpt lat="47.62713" lon="3.73759">
        <ele>119</ele>
        <time>2014-04-16T15:41:37Z</time>
      </trkpt>
      <trkpt lat="47.62708" lon="3.73759">
        <ele>118</ele>
        <time>2014-04-16T15:41:42Z</time>
      </trkpt>
      <trkpt lat="47.62693" lon="3.73758">
        <ele>118</ele>
        <time>2014-04-16T15:41:57Z</time>
      </trkpt>
      <trkpt lat="47.62688" lon="3.73759">
        <ele>118</ele>
        <time>2014-04-16T15:42:01Z</time>
      </trkpt>
      <trkpt lat="47.62683" lon="3.73759">
        <ele>118</ele>
        <time>2014-04-16T15:42:04Z</time>
      </trkpt>
      <trkpt lat="47.62678" lon="3.73759">
        <ele>118</ele>
        <time>2014-04-16T15:42:07Z</time>
      </trkpt>
      <trkpt lat="47.62673" lon="3.73759">
        <ele>118</ele>
        <time>2014-04-16T15:42:11Z</time>
      </trkpt>
      <trkpt lat="47.62668" lon="3.7376">
        <ele>118</ele>
        <time>2014-04-16T15:42:14Z</time>
      </trkpt>
      <trkpt lat="47.62654" lon="3.73761">
        <ele>118</ele>
        <time>2014-04-16T15:42:26Z</time>
      </trkpt>
      <trkpt lat="47.62633" lon="3.73767">
        <ele>118</ele>
        <time>2014-04-16T15:42:43Z</time>
      </trkpt>
      <trkpt lat="47.62629" lon="3.73767">
        <ele>118</ele>
        <time>2014-04-16T15:42:47Z</time>
      </trkpt>
      <trkpt lat="47.62619" lon="3.73766">
        <ele>118</ele>
        <time>2014-04-16T15:42:55Z</time>
      </trkpt>
      <trkpt lat="47.62614" lon="3.73765">
        <ele>118</ele>
        <time>2014-04-16T15:42:59Z</time>
      </trkpt>
      <trkpt lat="47.62605" lon="3.7376">
        <ele>119</ele>
        <time>2014-04-16T15:43:07Z</time>
      </trkpt>
      <trkpt lat="47.626" lon="3.73759">
        <ele>119</ele>
        <time>2014-04-16T15:43:12Z</time>
      </trkpt>
      <trkpt lat="47.62595" lon="3.73756">
        <ele>119</ele>
        <time>2014-04-16T15:43:16Z</time>
      </trkpt>
      <trkpt lat="47.6259" lon="3.73752">
        <ele>119</ele>
        <time>2014-04-16T15:43:20Z</time>
      </trkpt>
      <trkpt lat="47.62586" lon="3.73749">
        <ele>121</ele>
        <time>2014-04-16T15:43:24Z</time>
      </trkpt>
      <trkpt lat="47.62575" lon="3.73748">
        <ele>124</ele>
        <time>2014-04-16T15:43:34Z</time>
      </trkpt>
      <trkpt lat="47.6256" lon="3.73747">
        <ele>128</ele>
        <time>2014-04-16T15:43:46Z</time>
      </trkpt>
      <trkpt lat="47.6255" lon="3.7375">
        <ele>120</ele>
        <time>2014-04-16T15:43:54Z</time>
      </trkpt>
      <trkpt lat="47.62546" lon="3.73753">
        <ele>120</ele>
        <time>2014-04-16T15:43:58Z</time>
      </trkpt>
      <trkpt lat="47.62541" lon="3.73754">
        <ele>120</ele>
        <time>2014-04-16T15:44:02Z</time>
      </trkpt>
      <trkpt lat="47.62537" lon="3.73756">
        <ele>120</ele>
        <time>2014-04-16T15:44:06Z</time>
      </trkpt>
      <trkpt lat="47.62532" lon="3.73757">
        <ele>121</ele>
        <time>2014-04-16T15:44:11Z</time>
      </trkpt>
      <trkpt lat="47.62526" lon="3.73756">
        <ele>121</ele>
        <time>2014-04-16T15:44:16Z</time>
      </trkpt>
      <trkpt lat="47.62516" lon="3.73757">
        <ele>122</ele>
        <time>2014-04-16T15:44:24Z</time>
      </trkpt>
      <trkpt lat="47.62512" lon="3.73759">
        <ele>122</ele>
        <time>2014-04-16T15:44:28Z</time>
      </trkpt>
      <trkpt lat="47.62497" lon="3.73767">
        <ele>123</ele>
        <time>2014-04-16T15:44:41Z</time>
      </trkpt>
      <trkpt lat="47.62492" lon="3.73768">
        <ele>123</ele>
        <time>2014-04-16T15:44:45Z</time>
      </trkpt>
      <trkpt lat="47.62478" lon="3.73774">
        <ele>123</ele>
        <time>2014-04-16T15:44:58Z</time>
      </trkpt>
      <trkpt lat="47.62469" lon="3.7378">
        <ele>122</ele>
        <time>2014-04-16T15:45:06Z</time>
      </trkpt>
      <trkpt lat="47.62465" lon="3.73783">
        <ele>122</ele>
        <time>2014-04-16T15:45:10Z</time>
      </trkpt>
      <trkpt lat="47.6246" lon="3.73786">
        <ele>122</ele>
        <time>2014-04-16T15:45:14Z</time>
      </trkpt>
      <trkpt lat="47.62455" lon="3.73788">
        <ele>122</ele>
        <time>2014-04-16T15:45:18Z</time>
      </trkpt>
      <trkpt lat="47.6245" lon="3.73791">
        <ele>122</ele>
        <time>2014-04-16T15:45:23Z</time>
      </trkpt>
      <trkpt lat="47.62446" lon="3.73793">
        <ele>122</ele>
        <time>2014-04-16T15:45:28Z</time>
      </trkpt>
      <trkpt lat="47.62441" lon="3.73797">
        <ele>122</ele>
        <time>2014-04-16T15:45:32Z</time>
      </trkpt>
      <trkpt lat="47.62441" lon="3.73792">
        <ele>122</ele>
        <time>2014-04-16T15:45:44Z</time>
      </trkpt>
      <trkpt lat="47.62437" lon="3.73793">
        <ele>122</ele>
        <time>2014-04-16T15:45:57Z</time>
      </trkpt>
      <trkpt lat="47.62433" lon="3.73796">
        <ele>122</ele>
        <time>2014-04-16T15:46:03Z</time>
      </trkpt>
      <trkpt lat="47.62428" lon="3.73797">
        <ele>122</ele>
        <time>2014-04-16T15:46:08Z</time>
      </trkpt>
      <trkpt lat="47.62415" lon="3.73805">
        <ele>122</ele>
        <time>2014-04-16T15:46:19Z</time>
      </trkpt>
      <trkpt lat="47.6241" lon="3.73808">
        <ele>122</ele>
        <time>2014-04-16T15:46:22Z</time>
      </trkpt>
      <trkpt lat="47.62406" lon="3.73808">
        <ele>122</ele>
        <time>2014-04-16T15:46:26Z</time>
      </trkpt>
      <trkpt lat="47.62401" lon="3.73807">
        <ele>123</ele>
        <time>2014-04-16T15:46:32Z</time>
      </trkpt>
      <trkpt lat="47.62398" lon="3.73811">
        <ele>122</ele>
        <time>2014-04-16T15:46:38Z</time>
      </trkpt>
      <trkpt lat="47.62393" lon="3.73815">
        <ele>122</ele>
        <time>2014-04-16T15:46:41Z</time>
      </trkpt>
      <trkpt lat="47.62388" lon="3.73816">
        <ele>123</ele>
        <time>2014-04-16T15:46:44Z</time>
      </trkpt>
      <trkpt lat="47.62381" lon="3.73818">
        <ele>123</ele>
        <time>2014-04-16T15:46:47Z</time>
      </trkpt>
      <trkpt lat="47.62371" lon="3.73826">
        <ele>123</ele>
        <time>2014-04-16T15:46:54Z</time>
      </trkpt>
      <trkpt lat="47.62367" lon="3.73828">
        <ele>123</ele>
        <time>2014-04-16T15:46:58Z</time>
      </trkpt>
      <trkpt lat="47.62363" lon="3.73832">
        <ele>123</ele>
        <time>2014-04-16T15:47:03Z</time>
      </trkpt>
      <trkpt lat="47.62357" lon="3.73834">
        <ele>120</ele>
        <time>2014-04-16T15:47:07Z</time>
      </trkpt>
      <trkpt lat="47.62353" lon="3.73838">
        <ele>121</ele>
        <time>2014-04-16T15:47:12Z</time>
      </trkpt>
      <trkpt lat="47.6235" lon="3.73852">
        <ele>120</ele>
        <time>2014-04-16T15:47:24Z</time>
      </trkpt>
      <trkpt lat="47.62349" lon="3.7386">
        <ele>120</ele>
        <time>2014-04-16T15:47:28Z</time>
      </trkpt>
      <trkpt lat="47.62348" lon="3.73867">
        <ele>120</ele>
        <time>2014-04-16T15:47:33Z</time>
      </trkpt>
      <trkpt lat="47.62346" lon="3.73874">
        <ele>120</ele>
        <time>2014-04-16T15:47:39Z</time>
      </trkpt>
      <trkpt lat="47.62342" lon="3.7388">
        <ele>120</ele>
        <time>2014-04-16T15:47:44Z</time>
      </trkpt>
      <trkpt lat="47.62335" lon="3.73889">
        <ele>120</ele>
        <time>2014-04-16T15:47:54Z</time>
      </trkpt>
      <trkpt lat="47.62331" lon="3.73895">
        <ele>121</ele>
        <time>2014-04-16T15:47:58Z</time>
      </trkpt>
      <trkpt lat="47.62328" lon="3.73899">
        <ele>121</ele>
        <time>2014-04-16T15:48:01Z</time>
      </trkpt>
      <trkpt lat="47.62318" lon="3.73905">
        <ele>121</ele>
        <time>2014-04-16T15:48:07Z</time>
      </trkpt>
      <trkpt lat="47.62313" lon="3.73909">
        <ele>121</ele>
        <time>2014-04-16T15:48:11Z</time>
      </trkpt>
      <trkpt lat="47.62308" lon="3.73911">
        <ele>121</ele>
        <time>2014-04-16T15:48:16Z</time>
      </trkpt>
      <trkpt lat="47.62299" lon="3.73918">
        <ele>121</ele>
        <time>2014-04-16T15:48:23Z</time>
      </trkpt>
      <trkpt lat="47.62284" lon="3.73935">
        <ele>121</ele>
        <time>2014-04-16T15:48:46Z</time>
      </trkpt>
      <trkpt lat="47.62268" lon="3.73956">
        <ele>121</ele>
        <time>2014-04-16T15:49:02Z</time>
      </trkpt>
      <trkpt lat="47.62264" lon="3.7396">
        <ele>121</ele>
        <time>2014-04-16T15:49:08Z</time>
      </trkpt>
      <trkpt lat="47.62259" lon="3.73971">
        <ele>121</ele>
        <time>2014-04-16T15:49:17Z</time>
      </trkpt>
      <trkpt lat="47.62256" lon="3.73976">
        <ele>121</ele>
        <time>2014-04-16T15:49:20Z</time>
      </trkpt>
      <trkpt lat="47.62252" lon="3.73983">
        <ele>121</ele>
        <time>2014-04-16T15:49:24Z</time>
      </trkpt>
      <trkpt lat="47.62247" lon="3.73987">
        <ele>121</ele>
        <time>2014-04-16T15:49:29Z</time>
      </trkpt>
      <trkpt lat="47.62241" lon="3.73999">
        <ele>121</ele>
        <time>2014-04-16T15:49:38Z</time>
      </trkpt>
      <trkpt lat="47.62236" lon="3.74004">
        <ele>121</ele>
        <time>2014-04-16T15:49:42Z</time>
      </trkpt>
      <trkpt lat="47.62231" lon="3.74007">
        <ele>121</ele>
        <time>2014-04-16T15:49:45Z</time>
      </trkpt>
      <trkpt lat="47.62225" lon="3.74009">
        <ele>121</ele>
        <time>2014-04-16T15:49:48Z</time>
      </trkpt>
      <trkpt lat="47.6222" lon="3.74012">
        <ele>121</ele>
        <time>2014-04-16T15:49:52Z</time>
      </trkpt>
      <trkpt lat="47.62216" lon="3.74025">
        <ele>121</ele>
        <time>2014-04-16T15:50:04Z</time>
      </trkpt>
      <trkpt lat="47.62211" lon="3.7403">
        <ele>121</ele>
        <time>2014-04-16T15:50:08Z</time>
      </trkpt>
      <trkpt lat="47.62206" lon="3.74033">
        <ele>121</ele>
        <time>2014-04-16T15:50:11Z</time>
      </trkpt>
      <trkpt lat="47.62202" lon="3.74037">
        <ele>121</ele>
        <time>2014-04-16T15:50:14Z</time>
      </trkpt>
      <trkpt lat="47.62192" lon="3.74042">
        <ele>121</ele>
        <time>2014-04-16T15:50:21Z</time>
      </trkpt>
      <trkpt lat="47.62191" lon="3.74049">
        <ele>121</ele>
        <time>2014-04-16T15:50:25Z</time>
      </trkpt>
      <trkpt lat="47.62188" lon="3.74054">
        <ele>121</ele>
        <time>2014-04-16T15:50:28Z</time>
      </trkpt>
      <trkpt lat="47.62185" lon="3.7406">
        <ele>121</ele>
        <time>2014-04-16T15:50:31Z</time>
      </trkpt>
      <trkpt lat="47.6218" lon="3.74063">
        <ele>120</ele>
        <time>2014-04-16T15:50:35Z</time>
      </trkpt>
      <trkpt lat="47.62175" lon="3.74067">
        <ele>120</ele>
        <time>2014-04-16T15:50:39Z</time>
      </trkpt>
      <trkpt lat="47.62166" lon="3.74068">
        <ele>120</ele>
        <time>2014-04-16T15:50:46Z</time>
      </trkpt>
      <trkpt lat="47.62159" lon="3.7408">
        <ele>120</ele>
        <time>2014-04-16T15:50:55Z</time>
      </trkpt>
      <trkpt lat="47.62156" lon="3.74085">
        <ele>120</ele>
        <time>2014-04-16T15:51:02Z</time>
      </trkpt>
      <trkpt lat="47.62151" lon="3.74087">
        <ele>120</ele>
        <time>2014-04-16T15:51:07Z</time>
      </trkpt>
      <trkpt lat="47.62145" lon="3.74088">
        <ele>120</ele>
        <time>2014-04-16T15:51:11Z</time>
      </trkpt>
      <trkpt lat="47.6213" lon="3.74093">
        <ele>120</ele>
        <time>2014-04-16T15:51:23Z</time>
      </trkpt>
      <trkpt lat="47.62125" lon="3.74095">
        <ele>120</ele>
        <time>2014-04-16T15:51:27Z</time>
      </trkpt>
      <trkpt lat="47.62124" lon="3.74092">
        <ele>120</ele>
        <time>2014-04-16T15:51:33Z</time>
      </trkpt>
      <trkpt lat="47.6212" lon="3.74091">
        <ele>120</ele>
        <time>2014-04-16T15:51:59Z</time>
      </trkpt>
      <trkpt lat="47.62115" lon="3.74091">
        <ele>120</ele>
        <time>2014-04-16T15:52:05Z</time>
      </trkpt>
      <trkpt lat="47.62109" lon="3.74088">
        <ele>120</ele>
        <time>2014-04-16T15:52:08Z</time>
      </trkpt>
      <trkpt lat="47.62106" lon="3.74094">
        <ele>120</ele>
        <time>2014-04-16T15:52:13Z</time>
      </trkpt>
      <trkpt lat="47.62101" lon="3.74095">
        <ele>120</ele>
        <time>2014-04-16T15:52:19Z</time>
      </trkpt>
      <trkpt lat="47.62095" lon="3.74093">
        <ele>121</ele>
        <time>2014-04-16T15:52:23Z</time>
      </trkpt>
      <trkpt lat="47.62091" lon="3.74092">
        <ele>121</ele>
        <time>2014-04-16T15:52:25Z</time>
      </trkpt>
      <trkpt lat="47.62086" lon="3.74094">
        <ele>121</ele>
        <time>2014-04-16T15:52:28Z</time>
      </trkpt>
      <trkpt lat="47.62083" lon="3.74103">
        <ele>120</ele>
        <time>2014-04-16T15:52:40Z</time>
      </trkpt>
      <trkpt lat="47.62078" lon="3.74105">
        <ele>121</ele>
        <time>2014-04-16T15:52:43Z</time>
      </trkpt>
      <trkpt lat="47.62068" lon="3.74106">
        <ele>121</ele>
        <time>2014-04-16T15:52:51Z</time>
      </trkpt>
      <trkpt lat="47.62053" lon="3.74113">
        <ele>121</ele>
        <time>2014-04-16T15:53:05Z</time>
      </trkpt>
      <trkpt lat="47.62049" lon="3.74117">
        <ele>121</ele>
        <time>2014-04-16T15:53:08Z</time>
      </trkpt>
      <trkpt lat="47.62044" lon="3.74119">
        <ele>121</ele>
        <time>2014-04-16T15:53:12Z</time>
      </trkpt>
      <trkpt lat="47.62023" lon="3.74121">
        <ele>121</ele>
        <time>2014-04-16T15:53:27Z</time>
      </trkpt>
      <trkpt lat="47.62018" lon="3.74123">
        <ele>121</ele>
        <time>2014-04-16T15:53:31Z</time>
      </trkpt>
      <trkpt lat="47.62015" lon="3.74128">
        <ele>121</ele>
        <time>2014-04-16T15:53:35Z</time>
      </trkpt>
      <trkpt lat="47.62006" lon="3.74135">
        <ele>121</ele>
        <time>2014-04-16T15:53:46Z</time>
      </trkpt>
      <trkpt lat="47.62003" lon="3.74141">
        <ele>121</ele>
        <time>2014-04-16T15:53:53Z</time>
      </trkpt>
      <trkpt lat="47.62003" lon="3.74149">
        <ele>121</ele>
        <time>2014-04-16T15:53:57Z</time>
      </trkpt>
      <trkpt lat="47.62002" lon="3.74155">
        <ele>121</ele>
        <time>2014-04-16T15:54:03Z</time>
      </trkpt>
      <trkpt lat="47.62006" lon="3.74161">
        <ele>121</ele>
        <time>2014-04-16T15:54:08Z</time>
      </trkpt>
      <trkpt lat="47.62008" lon="3.74167">
        <ele>121</ele>
        <time>2014-04-16T15:54:19Z</time>
      </trkpt>
      <trkpt lat="47.6201" lon="3.74153">
        <ele>121</ele>
        <time>2014-04-16T15:54:30Z</time>
      </trkpt>
      <trkpt lat="47.62006" lon="3.7416">
        <ele>121</ele>
        <time>2014-04-16T15:54:54Z</time>
      </trkpt>
      <trkpt lat="47.62004" lon="3.74157">
        <ele>121</ele>
        <time>2014-04-16T15:55:05Z</time>
      </trkpt>
      <trkpt lat="47.62" lon="3.74158">
        <ele>122</ele>
        <time>2014-04-16T15:55:15Z</time>
      </trkpt>
      <trkpt lat="47.61996" lon="3.74158">
        <ele>122</ele>
        <time>2014-04-16T15:55:23Z</time>
      </trkpt>
      <trkpt lat="47.61993" lon="3.74163">
        <ele>121</ele>
        <time>2014-04-16T15:55:52Z</time>
      </trkpt>
      <trkpt lat="47.61992" lon="3.74159">
        <ele>122</ele>
        <time>2014-04-16T15:56:06Z</time>
      </trkpt>
      <trkpt lat="47.61978" lon="3.74146">
        <ele>122</ele>
        <time>2014-04-17T06:08:12Z</time>
      </trkpt>
      <trkpt lat="47.61974" lon="3.74151">
        <ele>122</ele>
        <time>2014-04-17T06:08:21Z</time>
      </trkpt>
      <trkpt lat="47.6197" lon="3.74155">
        <ele>122</ele>
        <time>2014-04-17T06:08:26Z</time>
      </trkpt>
      <trkpt lat="47.61966" lon="3.74159">
        <ele>122</ele>
        <time>2014-04-17T06:08:30Z</time>
      </trkpt>
      <trkpt lat="47.61961" lon="3.7416">
        <ele>122</ele>
        <time>2014-04-17T06:08:33Z</time>
      </trkpt>
      <trkpt lat="47.61955" lon="3.74158">
        <ele>123</ele>
        <time>2014-04-17T06:08:36Z</time>
      </trkpt>
      <trkpt lat="47.6195" lon="3.74159">
        <ele>123</ele>
        <time>2014-04-17T06:08:40Z</time>
      </trkpt>
      <trkpt lat="47.61938" lon="3.74171">
        <ele>122</ele>
        <time>2014-04-17T06:08:53Z</time>
      </trkpt>
      <trkpt lat="47.61933" lon="3.74169">
        <ele>122</ele>
        <time>2014-04-17T06:08:58Z</time>
      </trkpt>
      <trkpt lat="47.61928" lon="3.74171">
        <ele>122</ele>
        <time>2014-04-17T06:09:02Z</time>
      </trkpt>
      <trkpt lat="47.61922" lon="3.74174">
        <ele>122</ele>
        <time>2014-04-17T06:09:07Z</time>
      </trkpt>
      <trkpt lat="47.61913" lon="3.74178">
        <ele>122</ele>
        <time>2014-04-17T06:09:13Z</time>
      </trkpt>
      <trkpt lat="47.61909" lon="3.74182">
        <ele>122</ele>
        <time>2014-04-17T06:09:18Z</time>
      </trkpt>
      <trkpt lat="47.61889" lon="3.74184">
        <ele>122</ele>
        <time>2014-04-17T06:09:31Z</time>
      </trkpt>
      <trkpt lat="47.61881" lon="3.74179">
        <ele>122</ele>
        <time>2014-04-17T06:09:39Z</time>
      </trkpt>
      <trkpt lat="47.61871" lon="3.74187">
        <ele>122</ele>
        <time>2014-04-17T06:09:49Z</time>
      </trkpt>
      <trkpt lat="47.61863" lon="3.74192">
        <ele>122</ele>
        <time>2014-04-17T06:09:55Z</time>
      </trkpt>
      <trkpt lat="47.61858" lon="3.74193">
        <ele>122</ele>
        <time>2014-04-17T06:09:58Z</time>
      </trkpt>
      <trkpt lat="47.61853" lon="3.74196">
        <ele>122</ele>
        <time>2014-04-17T06:10:02Z</time>
      </trkpt>
      <trkpt lat="47.61845" lon="3.74208">
        <ele>121</ele>
        <time>2014-04-17T06:10:09Z</time>
      </trkpt>
      <trkpt lat="47.6184" lon="3.74218">
        <ele>121</ele>
        <time>2014-04-17T06:10:19Z</time>
      </trkpt>
      <trkpt lat="47.61835" lon="3.7422">
        <ele>121</ele>
        <time>2014-04-17T06:10:22Z</time>
      </trkpt>
      <trkpt lat="47.6183" lon="3.74222">
        <ele>122</ele>
        <time>2014-04-17T06:10:25Z</time>
      </trkpt>
      <trkpt lat="47.61827" lon="3.74227">
        <ele>122</ele>
        <time>2014-04-17T06:10:31Z</time>
      </trkpt>
      <trkpt lat="47.6183" lon="3.7423">
        <ele>122</ele>
        <time>2014-04-17T06:10:42Z</time>
      </trkpt>
      <trkpt lat="47.61833" lon="3.74226">
        <ele>122</ele>
        <time>2014-04-17T06:11:38Z</time>
      </trkpt>
      <trkpt lat="47.61829" lon="3.7423">
        <ele>122</ele>
        <time>2014-04-17T06:12:04Z</time>
      </trkpt>
      <trkpt lat="47.61825" lon="3.74235">
        <ele>121</ele>
        <time>2014-04-17T06:12:08Z</time>
      </trkpt>
      <trkpt lat="47.6182" lon="3.74236">
        <ele>122</ele>
        <time>2014-04-17T06:12:13Z</time>
      </trkpt>
      <trkpt lat="47.61815" lon="3.74239">
        <ele>122</ele>
        <time>2014-04-17T06:12:17Z</time>
      </trkpt>
      <trkpt lat="47.61811" lon="3.74242">
        <ele>122</ele>
        <time>2014-04-17T06:12:21Z</time>
      </trkpt>
      <trkpt lat="47.61807" lon="3.74247">
        <ele>122</ele>
        <time>2014-04-17T06:12:27Z</time>
      </trkpt>
      <trkpt lat="47.61793" lon="3.74259">
        <ele>121</ele>
        <time>2014-04-17T06:12:38Z</time>
      </trkpt>
      <trkpt lat="47.61789" lon="3.74263">
        <ele>121</ele>
        <time>2014-04-17T06:12:41Z</time>
      </trkpt>
      <trkpt lat="47.6177" lon="3.74286">
        <ele>121</ele>
        <time>2014-04-17T06:13:02Z</time>
      </trkpt>
      <trkpt lat="47.61765" lon="3.74287">
        <ele>121</ele>
        <time>2014-04-17T06:13:06Z</time>
      </trkpt>
      <trkpt lat="47.6176" lon="3.74289">
        <ele>121</ele>
        <time>2014-04-17T06:13:10Z</time>
      </trkpt>
      <trkpt lat="47.61729" lon="3.74319">
        <ele>123</ele>
        <time>2014-04-17T06:13:35Z</time>
      </trkpt>
      <trkpt lat="47.61724" lon="3.74323">
        <ele>123</ele>
        <time>2014-04-17T06:13:40Z</time>
      </trkpt>
      <trkpt lat="47.617" lon="3.74349">
        <ele>121</ele>
        <time>2014-04-17T06:14:02Z</time>
      </trkpt>
      <trkpt lat="47.61691" lon="3.74356">
        <ele>121</ele>
        <time>2014-04-17T06:14:15Z</time>
      </trkpt>
      <trkpt lat="47.61687" lon="3.74361">
        <ele>121</ele>
        <time>2014-04-17T06:14:22Z</time>
      </trkpt>
      <trkpt lat="47.61683" lon="3.74366">
        <ele>121</ele>
        <time>2014-04-17T06:14:26Z</time>
      </trkpt>
      <trkpt lat="47.61679" lon="3.74373">
        <ele>121</ele>
        <time>2014-04-17T06:14:29Z</time>
      </trkpt>
      <trkpt lat="47.61674" lon="3.74378">
        <ele>121</ele>
        <time>2014-04-17T06:14:32Z</time>
      </trkpt>
      <trkpt lat="47.61665" lon="3.74384">
        <ele>122</ele>
        <time>2014-04-17T06:14:37Z</time>
      </trkpt>
      <trkpt lat="47.61661" lon="3.74388">
        <ele>122</ele>
        <time>2014-04-17T06:14:41Z</time>
      </trkpt>
      <trkpt lat="47.61657" lon="3.74392">
        <ele>122</ele>
        <time>2014-04-17T06:14:45Z</time>
      </trkpt>
      <trkpt lat="47.61628" lon="3.74424">
        <ele>120</ele>
        <time>2014-04-17T06:15:14Z</time>
      </trkpt>
      <trkpt lat="47.61625" lon="3.74431">
        <ele>120</ele>
        <time>2014-04-17T06:15:18Z</time>
      </trkpt>
      <trkpt lat="47.61621" lon="3.74435">
        <ele>120</ele>
        <time>2014-04-17T06:15:22Z</time>
      </trkpt>
      <trkpt lat="47.61617" lon="3.74437">
        <ele>120</ele>
        <time>2014-04-17T06:15:26Z</time>
      </trkpt>
      <trkpt lat="47.61612" lon="3.74435">
        <ele>120</ele>
        <time>2014-04-17T06:15:33Z</time>
      </trkpt>
      <trkpt lat="47.616" lon="3.7445">
        <ele>120</ele>
        <time>2014-04-17T06:15:52Z</time>
      </trkpt>
      <trkpt lat="47.61597" lon="3.74455">
        <ele>120</ele>
        <time>2014-04-17T06:15:56Z</time>
      </trkpt>
      <trkpt lat="47.61588" lon="3.74462">
        <ele>119</ele>
        <time>2014-04-17T06:16:04Z</time>
      </trkpt>
      <trkpt lat="47.61584" lon="3.74465">
        <ele>119</ele>
        <time>2014-04-17T06:16:08Z</time>
      </trkpt>
      <trkpt lat="47.61569" lon="3.74472">
        <ele>123</ele>
        <time>2014-04-17T06:16:18Z</time>
      </trkpt>
      <trkpt lat="47.61563" lon="3.74472">
        <ele>123</ele>
        <time>2014-04-17T06:16:22Z</time>
      </trkpt>
      <trkpt lat="47.61558" lon="3.7447">
        <ele>124</ele>
        <time>2014-04-17T06:16:26Z</time>
      </trkpt>
      <trkpt lat="47.61553" lon="3.74471">
        <ele>124</ele>
        <time>2014-04-17T06:16:31Z</time>
      </trkpt>
      <trkpt lat="47.61541" lon="3.74469">
        <ele>125</ele>
        <time>2014-04-17T06:16:37Z</time>
      </trkpt>
      <trkpt lat="47.61537" lon="3.74472">
        <ele>125</ele>
        <time>2014-04-17T06:16:43Z</time>
      </trkpt>
      <trkpt lat="47.61532" lon="3.74472">
        <ele>125</ele>
        <time>2014-04-17T06:16:49Z</time>
      </trkpt>
      <trkpt lat="47.61528" lon="3.74468">
        <ele>126</ele>
        <time>2014-04-17T06:16:56Z</time>
      </trkpt>
      <trkpt lat="47.61513" lon="3.74465">
        <ele>127</ele>
        <time>2014-04-17T06:17:08Z</time>
      </trkpt>
      <trkpt lat="47.61508" lon="3.74466">
        <ele>127</ele>
        <time>2014-04-17T06:17:11Z</time>
      </trkpt>
      <trkpt lat="47.61503" lon="3.74467">
        <ele>127</ele>
        <time>2014-04-17T06:17:14Z</time>
      </trkpt>
      <trkpt lat="47.61498" lon="3.74469">
        <ele>136</ele>
        <time>2014-04-17T06:17:17Z</time>
      </trkpt>
      <trkpt lat="47.61494" lon="3.74473">
        <ele>136</ele>
        <time>2014-04-17T06:17:20Z</time>
      </trkpt>
      <trkpt lat="47.61489" lon="3.74476">
        <ele>136</ele>
        <time>2014-04-17T06:17:24Z</time>
      </trkpt>
      <trkpt lat="47.61485" lon="3.7448">
        <ele>136</ele>
        <time>2014-04-17T06:17:28Z</time>
      </trkpt>
      <trkpt lat="47.61482" lon="3.74486">
        <ele>135</ele>
        <time>2014-04-17T06:17:35Z</time>
      </trkpt>
      <trkpt lat="47.6148" lon="3.74493">
        <ele>134</ele>
        <time>2014-04-17T06:17:40Z</time>
      </trkpt>
      <trkpt lat="47.61476" lon="3.745">
        <ele>135</ele>
        <time>2014-04-17T06:17:44Z</time>
      </trkpt>
      <trkpt lat="47.61472" lon="3.74501">
        <ele>129</ele>
        <time>2014-04-17T06:17:49Z</time>
      </trkpt>
      <trkpt lat="47.61466" lon="3.74502">
        <ele>130</ele>
        <time>2014-04-17T06:17:53Z</time>
      </trkpt>
      <trkpt lat="47.61461" lon="3.74504">
        <ele>131</ele>
        <time>2014-04-17T06:17:57Z</time>
      </trkpt>
      <trkpt lat="47.61459" lon="3.74519">
        <ele>130</ele>
        <time>2014-04-17T06:18:09Z</time>
      </trkpt>
      <trkpt lat="47.61457" lon="3.74525">
        <ele>130</ele>
        <time>2014-04-17T06:18:13Z</time>
      </trkpt>
      <trkpt lat="47.61449" lon="3.74535">
        <ele>131</ele>
        <time>2014-04-17T06:18:20Z</time>
      </trkpt>
      <trkpt lat="47.61444" lon="3.7454">
        <ele>131</ele>
        <time>2014-04-17T06:18:24Z</time>
      </trkpt>
      <trkpt lat="47.61426" lon="3.74569">
        <ele>129</ele>
        <time>2014-04-17T06:18:45Z</time>
      </trkpt>
      <trkpt lat="47.61424" lon="3.74575">
        <ele>129</ele>
        <time>2014-04-17T06:18:49Z</time>
      </trkpt>
      <trkpt lat="47.61421" lon="3.74582">
        <ele>128</ele>
        <time>2014-04-17T06:18:54Z</time>
      </trkpt>
      <trkpt lat="47.61417" lon="3.74587">
        <ele>127</ele>
        <time>2014-04-17T06:18:58Z</time>
      </trkpt>
      <trkpt lat="47.61412" lon="3.74593">
        <ele>131</ele>
        <time>2014-04-17T06:19:02Z</time>
      </trkpt>
      <trkpt lat="47.61409" lon="3.74597">
        <ele>132</ele>
        <time>2014-04-17T06:19:05Z</time>
      </trkpt>
      <trkpt lat="47.614" lon="3.74606">
        <ele>133</ele>
        <time>2014-04-17T06:19:11Z</time>
      </trkpt>
      <trkpt lat="47.61397" lon="3.74621">
        <ele>133</ele>
        <time>2014-04-17T06:19:22Z</time>
      </trkpt>
      <trkpt lat="47.61394" lon="3.74628">
        <ele>133</ele>
        <time>2014-04-17T06:19:26Z</time>
      </trkpt>
      <trkpt lat="47.61372" lon="3.7466">
        <ele>135</ele>
        <time>2014-04-17T06:19:48Z</time>
      </trkpt>
      <trkpt lat="47.61371" lon="3.74667">
        <ele>135</ele>
        <time>2014-04-17T06:19:52Z</time>
      </trkpt>
      <trkpt lat="47.61369" lon="3.74673">
        <ele>131</ele>
        <time>2014-04-17T06:19:55Z</time>
      </trkpt>
      <trkpt lat="47.61365" lon="3.74679">
        <ele>131</ele>
        <time>2014-04-17T06:20:00Z</time>
      </trkpt>
      <trkpt lat="47.61365" lon="3.74686">
        <ele>131</ele>
        <time>2014-04-17T06:20:03Z</time>
      </trkpt>
      <trkpt lat="47.6136" lon="3.74693">
        <ele>131</ele>
        <time>2014-04-17T06:20:07Z</time>
      </trkpt>
      <trkpt lat="47.61354" lon="3.74696">
        <ele>131</ele>
        <time>2014-04-17T06:20:10Z</time>
      </trkpt>
      <trkpt lat="47.61354" lon="3.74703">
        <ele>131</ele>
        <time>2014-04-17T06:20:14Z</time>
      </trkpt>
      <trkpt lat="47.61351" lon="3.74709">
        <ele>131</ele>
        <time>2014-04-17T06:20:19Z</time>
      </trkpt>
      <trkpt lat="47.61349" lon="3.74724">
        <ele>130</ele>
        <time>2014-04-17T06:20:41Z</time>
      </trkpt>
      <trkpt lat="47.61345" lon="3.74729">
        <ele>130</ele>
        <time>2014-04-17T06:20:45Z</time>
      </trkpt>
      <trkpt lat="47.6134" lon="3.74734">
        <ele>131</ele>
        <time>2014-04-17T06:20:49Z</time>
      </trkpt>
      <trkpt lat="47.61344" lon="3.74737">
        <ele>130</ele>
        <time>2014-04-17T06:21:06Z</time>
      </trkpt>
      <trkpt lat="47.61344" lon="3.74745">
        <ele>131</ele>
        <time>2014-04-17T06:21:21Z</time>
      </trkpt>
      <trkpt lat="47.61341" lon="3.74751">
        <ele>129</ele>
        <time>2014-04-17T06:21:24Z</time>
      </trkpt>
      <trkpt lat="47.61337" lon="3.74755">
        <ele>130</ele>
        <time>2014-04-17T06:21:27Z</time>
      </trkpt>
      <trkpt lat="47.61332" lon="3.74757">
        <ele>134</ele>
        <time>2014-04-17T06:21:30Z</time>
      </trkpt>
      <trkpt lat="47.61318" lon="3.74771">
        <ele>137</ele>
        <time>2014-04-17T06:21:39Z</time>
      </trkpt>
      <trkpt lat="47.61313" lon="3.74783">
        <ele>137</ele>
        <time>2014-04-17T06:21:46Z</time>
      </trkpt>
      <trkpt lat="47.61305" lon="3.74792">
        <ele>137</ele>
        <time>2014-04-17T06:21:55Z</time>
      </trkpt>
      <trkpt lat="47.61303" lon="3.748">
        <ele>137</ele>
        <time>2014-04-17T06:22:00Z</time>
      </trkpt>
      <trkpt lat="47.61303" lon="3.74807">
        <ele>136</ele>
        <time>2014-04-17T06:22:04Z</time>
      </trkpt>
      <trkpt lat="47.6129" lon="3.74832">
        <ele>137</ele>
        <time>2014-04-17T06:22:19Z</time>
      </trkpt>
      <trkpt lat="47.61286" lon="3.74835">
        <ele>130</ele>
        <time>2014-04-17T06:22:23Z</time>
      </trkpt>
      <trkpt lat="47.61282" lon="3.74839">
        <ele>130</ele>
        <time>2014-04-17T06:22:27Z</time>
      </trkpt>
      <trkpt lat="47.61278" lon="3.74845">
        <ele>131</ele>
        <time>2014-04-17T06:22:31Z</time>
      </trkpt>
      <trkpt lat="47.61273" lon="3.74849">
        <ele>131</ele>
        <time>2014-04-17T06:22:34Z</time>
      </trkpt>
      <trkpt lat="47.61266" lon="3.74849">
        <ele>133</ele>
        <time>2014-04-17T06:22:36Z</time>
      </trkpt>
      <trkpt lat="47.61259" lon="3.74852">
        <ele>133</ele>
        <time>2014-04-17T06:22:41Z</time>
      </trkpt>
      <trkpt lat="47.61258" lon="3.7486">
        <ele>132</ele>
        <time>2014-04-17T06:22:46Z</time>
      </trkpt>
      <trkpt lat="47.61259" lon="3.74868">
        <ele>130</ele>
        <time>2014-04-17T06:22:50Z</time>
      </trkpt>
      <trkpt lat="47.61257" lon="3.74874">
        <ele>129</ele>
        <time>2014-04-17T06:22:54Z</time>
      </trkpt>
      <trkpt lat="47.61253" lon="3.74879">
        <ele>129</ele>
        <time>2014-04-17T06:23:00Z</time>
      </trkpt>
      <trkpt lat="47.61249" lon="3.74883">
        <ele>137</ele>
        <time>2014-04-17T06:23:05Z</time>
      </trkpt>
      <trkpt lat="47.61244" lon="3.74887">
        <ele>136</ele>
        <time>2014-04-17T06:23:08Z</time>
      </trkpt>
      <trkpt lat="47.61243" lon="3.7489">
        <ele>136</ele>
        <time>2014-04-17T06:23:16Z</time>
      </trkpt>
      <trkpt lat="47.61223" lon="3.74907">
        <ele>136</ele>
        <time>2014-04-17T06:23:35Z</time>
      </trkpt>
      <trkpt lat="47.61218" lon="3.74909">
        <ele>136</ele>
        <time>2014-04-17T06:23:42Z</time>
      </trkpt>
      <trkpt lat="47.61209" lon="3.74911">
        <ele>137</ele>
        <time>2014-04-17T06:23:49Z</time>
      </trkpt>
      <trkpt lat="47.61206" lon="3.74917">
        <ele>128</ele>
        <time>2014-04-17T06:23:52Z</time>
      </trkpt>
      <trkpt lat="47.61202" lon="3.74922">
        <ele>129</ele>
        <time>2014-04-17T06:23:58Z</time>
      </trkpt>
      <trkpt lat="47.61198" lon="3.7492">
        <ele>129</ele>
        <time>2014-04-17T06:24:01Z</time>
      </trkpt>
      <trkpt lat="47.61192" lon="3.74921">
        <ele>130</ele>
        <time>2014-04-17T06:24:04Z</time>
      </trkpt>
      <trkpt lat="47.61187" lon="3.74925">
        <ele>131</ele>
        <time>2014-04-17T06:24:07Z</time>
      </trkpt>
      <trkpt lat="47.61183" lon="3.74929">
        <ele>131</ele>
        <time>2014-04-17T06:24:10Z</time>
      </trkpt>
      <trkpt lat="47.61171" lon="3.74933">
        <ele>132</ele>
        <time>2014-04-17T06:24:16Z</time>
      </trkpt>
      <trkpt lat="47.61162" lon="3.7494">
        <ele>135</ele>
        <time>2014-04-17T06:24:24Z</time>
      </trkpt>
      <trkpt lat="47.61141" lon="3.74964">
        <ele>134</ele>
        <time>2014-04-17T06:24:43Z</time>
      </trkpt>
      <trkpt lat="47.61136" lon="3.74967">
        <ele>134</ele>
        <time>2014-04-17T06:24:47Z</time>
      </trkpt>
      <trkpt lat="47.61121" lon="3.74975">
        <ele>134</ele>
        <time>2014-04-17T06:25:00Z</time>
      </trkpt>
      <trkpt lat="47.61116" lon="3.74977">
        <ele>134</ele>
        <time>2014-04-17T06:25:03Z</time>
      </trkpt>
      <trkpt lat="47.61112" lon="3.74979">
        <ele>134</ele>
        <time>2014-04-17T06:25:06Z</time>
      </trkpt>
      <trkpt lat="47.61108" lon="3.74983">
        <ele>134</ele>
        <time>2014-04-17T06:25:11Z</time>
      </trkpt>
      <trkpt lat="47.61099" lon="3.74994">
        <ele>134</ele>
        <time>2014-04-17T06:25:20Z</time>
      </trkpt>
      <trkpt lat="47.61096" lon="3.75002">
        <ele>130</ele>
        <time>2014-04-17T06:25:24Z</time>
      </trkpt>
      <trkpt lat="47.61091" lon="3.75006">
        <ele>131</ele>
        <time>2014-04-17T06:25:29Z</time>
      </trkpt>
      <trkpt lat="47.61086" lon="3.7501">
        <ele>131</ele>
        <time>2014-04-17T06:25:32Z</time>
      </trkpt>
      <trkpt lat="47.61081" lon="3.75012">
        <ele>135</ele>
        <time>2014-04-17T06:25:35Z</time>
      </trkpt>
      <trkpt lat="47.61071" lon="3.75018">
        <ele>136</ele>
        <time>2014-04-17T06:25:41Z</time>
      </trkpt>
      <trkpt lat="47.61067" lon="3.75019">
        <ele>136</ele>
        <time>2014-04-17T06:25:45Z</time>
      </trkpt>
      <trkpt lat="47.61062" lon="3.75022">
        <ele>137</ele>
        <time>2014-04-17T06:25:50Z</time>
      </trkpt>
      <trkpt lat="47.6106" lon="3.75029">
        <ele>136</ele>
        <time>2014-04-17T06:25:55Z</time>
      </trkpt>
      <trkpt lat="47.61058" lon="3.75035">
        <ele>136</ele>
        <time>2014-04-17T06:25:59Z</time>
      </trkpt>
      <trkpt lat="47.61054" lon="3.7504">
        <ele>136</ele>
        <time>2014-04-17T06:26:03Z</time>
      </trkpt>
      <trkpt lat="47.61049" lon="3.75044">
        <ele>136</ele>
        <time>2014-04-17T06:26:07Z</time>
      </trkpt>
      <trkpt lat="47.61045" lon="3.75045">
        <ele>137</ele>
        <time>2014-04-17T06:26:12Z</time>
      </trkpt>
      <trkpt lat="47.61041" lon="3.75049">
        <ele>136</ele>
        <time>2014-04-17T06:26:15Z</time>
      </trkpt>
      <trkpt lat="47.61036" lon="3.75053">
        <ele>137</ele>
        <time>2014-04-17T06:26:19Z</time>
      </trkpt>
      <trkpt lat="47.61032" lon="3.75057">
        <ele>137</ele>
        <time>2014-04-17T06:26:25Z</time>
      </trkpt>
      <trkpt lat="47.61028" lon="3.75061">
        <ele>137</ele>
        <time>2014-04-17T06:26:29Z</time>
      </trkpt>
      <trkpt lat="47.61025" lon="3.75066">
        <ele>136</ele>
        <time>2014-04-17T06:26:33Z</time>
      </trkpt>
      <trkpt lat="47.61017" lon="3.75074">
        <ele>136</ele>
        <time>2014-04-17T06:26:39Z</time>
      </trkpt>
      <trkpt lat="47.61012" lon="3.75077">
        <ele>136</ele>
        <time>2014-04-17T06:26:43Z</time>
      </trkpt>
      <trkpt lat="47.60991" lon="3.75097">
        <ele>135</ele>
        <time>2014-04-17T06:26:58Z</time>
      </trkpt>
      <trkpt lat="47.60987" lon="3.751">
        <ele>136</ele>
        <time>2014-04-17T06:27:01Z</time>
      </trkpt>
      <trkpt lat="47.60977" lon="3.75105">
        <ele>136</ele>
        <time>2014-04-17T06:27:09Z</time>
      </trkpt>
      <trkpt lat="47.60957" lon="3.75121">
        <ele>137</ele>
        <time>2014-04-17T06:27:25Z</time>
      </trkpt>
      <trkpt lat="47.60953" lon="3.75127">
        <ele>136</ele>
        <time>2014-04-17T06:27:30Z</time>
      </trkpt>
      <trkpt lat="47.60949" lon="3.75131">
        <ele>136</ele>
        <time>2014-04-17T06:27:34Z</time>
      </trkpt>
      <trkpt lat="47.60944" lon="3.75134">
        <ele>136</ele>
        <time>2014-04-17T06:27:38Z</time>
      </trkpt>
      <trkpt lat="47.60935" lon="3.75137">
        <ele>136</ele>
        <time>2014-04-17T06:27:44Z</time>
      </trkpt>
      <trkpt lat="47.60931" lon="3.75141">
        <ele>136</ele>
        <time>2014-04-17T06:27:48Z</time>
      </trkpt>
      <trkpt lat="47.6093" lon="3.75148">
        <ele>135</ele>
        <time>2014-04-17T06:27:53Z</time>
      </trkpt>
      <trkpt lat="47.60927" lon="3.75154">
        <ele>134</ele>
        <time>2014-04-17T06:27:58Z</time>
      </trkpt>
      <trkpt lat="47.60924" lon="3.75159">
        <ele>134</ele>
        <time>2014-04-17T06:28:03Z</time>
      </trkpt>
      <trkpt lat="47.60918" lon="3.75172">
        <ele>130</ele>
        <time>2014-04-17T06:28:14Z</time>
      </trkpt>
      <trkpt lat="47.60911" lon="3.75181">
        <ele>132</ele>
        <time>2014-04-17T06:28:19Z</time>
      </trkpt>
      <trkpt lat="47.60898" lon="3.75193">
        <ele>133</ele>
        <time>2014-04-17T06:28:30Z</time>
      </trkpt>
      <trkpt lat="47.60894" lon="3.75196">
        <ele>133</ele>
        <time>2014-04-17T06:28:33Z</time>
      </trkpt>
      <trkpt lat="47.6089" lon="3.75201">
        <ele>133</ele>
        <time>2014-04-17T06:28:36Z</time>
      </trkpt>
      <trkpt lat="47.60885" lon="3.75204">
        <ele>133</ele>
        <time>2014-04-17T06:28:39Z</time>
      </trkpt>
      <trkpt lat="47.60882" lon="3.7521">
        <ele>133</ele>
        <time>2014-04-17T06:28:44Z</time>
      </trkpt>
      <trkpt lat="47.6088" lon="3.75217">
        <ele>132</ele>
        <time>2014-04-17T06:28:50Z</time>
      </trkpt>
      <trkpt lat="47.60875" lon="3.75222">
        <ele>132</ele>
        <time>2014-04-17T06:28:54Z</time>
      </trkpt>
      <trkpt lat="47.60867" lon="3.7523">
        <ele>132</ele>
        <time>2014-04-17T06:28:59Z</time>
      </trkpt>
      <trkpt lat="47.60861" lon="3.75232">
        <ele>133</ele>
        <time>2014-04-17T06:29:03Z</time>
      </trkpt>
      <trkpt lat="47.60845" lon="3.75253">
        <ele>129</ele>
        <time>2014-04-17T06:29:15Z</time>
      </trkpt>
      <trkpt lat="47.60841" lon="3.75258">
        <ele>129</ele>
        <time>2014-04-17T06:29:19Z</time>
      </trkpt>
      <trkpt lat="47.60828" lon="3.75271">
        <ele>130</ele>
        <time>2014-04-17T06:29:31Z</time>
      </trkpt>
      <trkpt lat="47.60823" lon="3.75273">
        <ele>129</ele>
        <time>2014-04-17T06:29:37Z</time>
      </trkpt>
      <trkpt lat="47.60814" lon="3.75279">
        <ele>129</ele>
        <time>2014-04-17T06:29:43Z</time>
      </trkpt>
      <trkpt lat="47.6081" lon="3.75283">
        <ele>128</ele>
        <time>2014-04-17T06:29:47Z</time>
      </trkpt>
      <trkpt lat="47.60801" lon="3.75288">
        <ele>128</ele>
        <time>2014-04-17T06:29:56Z</time>
      </trkpt>
      <trkpt lat="47.60792" lon="3.75292">
        <ele>128</ele>
        <time>2014-04-17T06:30:02Z</time>
      </trkpt>
      <trkpt lat="47.60787" lon="3.75295">
        <ele>128</ele>
        <time>2014-04-17T06:30:06Z</time>
      </trkpt>
      <trkpt lat="47.60783" lon="3.75298">
        <ele>128</ele>
        <time>2014-04-17T06:30:10Z</time>
      </trkpt>
      <trkpt lat="47.60778" lon="3.75299">
        <ele>128</ele>
        <time>2014-04-17T06:30:15Z</time>
      </trkpt>
      <trkpt lat="47.60775" lon="3.75305">
        <ele>127</ele>
        <time>2014-04-17T06:30:19Z</time>
      </trkpt>
      <trkpt lat="47.60765" lon="3.75308">
        <ele>127</ele>
        <time>2014-04-17T06:30:26Z</time>
      </trkpt>
      <trkpt lat="47.6076" lon="3.75309">
        <ele>127</ele>
        <time>2014-04-17T06:30:29Z</time>
      </trkpt>
      <trkpt lat="47.60755" lon="3.75311">
        <ele>127</ele>
        <time>2014-04-17T06:30:33Z</time>
      </trkpt>
      <trkpt lat="47.60746" lon="3.75316">
        <ele>127</ele>
        <time>2014-04-17T06:30:42Z</time>
      </trkpt>
      <trkpt lat="47.60742" lon="3.75321">
        <ele>127</ele>
        <time>2014-04-17T06:30:45Z</time>
      </trkpt>
      <trkpt lat="47.60737" lon="3.75324">
        <ele>127</ele>
        <time>2014-04-17T06:30:49Z</time>
      </trkpt>
      <trkpt lat="47.60733" lon="3.75328">
        <ele>127</ele>
        <time>2014-04-17T06:30:53Z</time>
      </trkpt>
      <trkpt lat="47.60729" lon="3.75333">
        <ele>127</ele>
        <time>2014-04-17T06:30:57Z</time>
      </trkpt>
      <trkpt lat="47.60721" lon="3.75341">
        <ele>125</ele>
        <time>2014-04-17T06:31:04Z</time>
      </trkpt>
      <trkpt lat="47.60716" lon="3.75347">
        <ele>125</ele>
        <time>2014-04-17T06:31:08Z</time>
      </trkpt>
      <trkpt lat="47.6068" lon="3.75383">
        <ele>124</ele>
        <time>2014-04-17T06:31:40Z</time>
      </trkpt>
      <trkpt lat="47.60665" lon="3.75391">
        <ele>126</ele>
        <time>2014-04-17T06:31:52Z</time>
      </trkpt>
      <trkpt lat="47.60651" lon="3.75404">
        <ele>125</ele>
        <time>2014-04-17T06:32:04Z</time>
      </trkpt>
      <trkpt lat="47.60641" lon="3.75411">
        <ele>126</ele>
        <time>2014-04-17T06:32:12Z</time>
      </trkpt>
      <trkpt lat="47.60626" lon="3.75419">
        <ele>123</ele>
        <time>2014-04-17T06:32:25Z</time>
      </trkpt>
      <trkpt lat="47.60621" lon="3.75422">
        <ele>123</ele>
        <time>2014-04-17T06:32:29Z</time>
      </trkpt>
      <trkpt lat="47.60606" lon="3.75436">
        <ele>124</ele>
        <time>2014-04-17T06:32:41Z</time>
      </trkpt>
      <trkpt lat="47.60597" lon="3.75442">
        <ele>124</ele>
        <time>2014-04-17T06:32:51Z</time>
      </trkpt>
      <trkpt lat="47.60592" lon="3.75445">
        <ele>124</ele>
        <time>2014-04-17T06:32:55Z</time>
      </trkpt>
      <trkpt lat="47.6058" lon="3.75451">
        <ele>125</ele>
        <time>2014-04-17T06:33:04Z</time>
      </trkpt>
      <trkpt lat="47.60576" lon="3.75458">
        <ele>125</ele>
        <time>2014-04-17T06:33:08Z</time>
      </trkpt>
      <trkpt lat="47.6056" lon="3.75471">
        <ele>124</ele>
        <time>2014-04-17T06:33:24Z</time>
      </trkpt>
      <trkpt lat="47.60555" lon="3.75476">
        <ele>124</ele>
        <time>2014-04-17T06:33:28Z</time>
      </trkpt>
      <trkpt lat="47.60548" lon="3.75479">
        <ele>124</ele>
        <time>2014-04-17T06:33:33Z</time>
      </trkpt>
      <trkpt lat="47.60534" lon="3.75488">
        <ele>124</ele>
        <time>2014-04-17T06:33:46Z</time>
      </trkpt>
      <trkpt lat="47.60518" lon="3.75488">
        <ele>124</ele>
        <time>2014-04-17T06:34:03Z</time>
      </trkpt>
      <trkpt lat="47.60504" lon="3.75492">
        <ele>124</ele>
        <time>2014-04-17T06:34:16Z</time>
      </trkpt>
      <trkpt lat="47.60498" lon="3.75494">
        <ele>124</ele>
        <time>2014-04-17T06:34:20Z</time>
      </trkpt>
      <trkpt lat="47.60493" lon="3.75495">
        <ele>124</ele>
        <time>2014-04-17T06:34:25Z</time>
      </trkpt>
      <trkpt lat="47.60479" lon="3.75494">
        <ele>125</ele>
        <time>2014-04-17T06:35:02Z</time>
      </trkpt>
      <trkpt lat="47.60463" lon="3.75496">
        <ele>125</ele>
        <time>2014-04-17T06:35:12Z</time>
      </trkpt>
      <trkpt lat="47.60459" lon="3.75496">
        <ele>125</ele>
        <time>2014-04-17T06:35:16Z</time>
      </trkpt>
      <trkpt lat="47.60442" lon="3.75499">
        <ele>125</ele>
        <time>2014-04-17T06:35:27Z</time>
      </trkpt>
      <trkpt lat="47.60438" lon="3.75501">
        <ele>123</ele>
        <time>2014-04-17T06:35:32Z</time>
      </trkpt>
      <trkpt lat="47.60433" lon="3.75499">
        <ele>125</ele>
        <time>2014-04-17T06:35:37Z</time>
      </trkpt>
      <trkpt lat="47.60429" lon="3.75499">
        <ele>125</ele>
        <time>2014-04-17T06:35:46Z</time>
      </trkpt>
      <trkpt lat="47.60417" lon="3.75505">
        <ele>124</ele>
        <time>2014-04-17T06:36:07Z</time>
      </trkpt>
      <trkpt lat="47.60413" lon="3.75508">
        <ele>125</ele>
        <time>2014-04-17T06:36:10Z</time>
      </trkpt>
      <trkpt lat="47.60402" lon="3.75514">
        <ele>125</ele>
        <time>2014-04-17T06:36:18Z</time>
      </trkpt>
      <trkpt lat="47.60394" lon="3.75517">
        <ele>125</ele>
        <time>2014-04-17T06:36:29Z</time>
      </trkpt>
      <trkpt lat="47.60389" lon="3.75517">
        <ele>125</ele>
        <time>2014-04-17T06:36:36Z</time>
      </trkpt>
      <trkpt lat="47.60384" lon="3.75519">
        <ele>126</ele>
        <time>2014-04-17T06:36:41Z</time>
      </trkpt>
      <trkpt lat="47.6038" lon="3.75523">
        <ele>126</ele>
        <time>2014-04-17T06:37:03Z</time>
      </trkpt>
      <trkpt lat="47.60375" lon="3.75525">
        <ele>126</ele>
        <time>2014-04-17T06:37:07Z</time>
      </trkpt>
      <trkpt lat="47.6036" lon="3.75529">
        <ele>126</ele>
        <time>2014-04-17T06:37:18Z</time>
      </trkpt>
      <trkpt lat="47.60354" lon="3.75531">
        <ele>126</ele>
        <time>2014-04-17T06:37:22Z</time>
      </trkpt>
      <trkpt lat="47.60353" lon="3.75542">
        <ele>126</ele>
        <time>2014-04-17T06:37:38Z</time>
      </trkpt>
      <trkpt lat="47.60357" lon="3.75538">
        <ele>126</ele>
        <time>2014-04-17T06:37:53Z</time>
      </trkpt>
      <trkpt lat="47.60359" lon="3.75538">
        <ele>126</ele>
        <time>2014-04-17T06:38:19Z</time>
      </trkpt>
      <trkpt lat="47.60352" lon="3.75535">
        <ele>126</ele>
        <time>2014-04-17T06:38:38Z</time>
      </trkpt>
      <trkpt lat="47.60347" lon="3.75535">
        <ele>127</ele>
        <time>2014-04-17T06:38:42Z</time>
      </trkpt>
      <trkpt lat="47.60342" lon="3.75537">
        <ele>127</ele>
        <time>2014-04-17T06:38:47Z</time>
      </trkpt>
      <trkpt lat="47.60337" lon="3.75537">
        <ele>127</ele>
        <time>2014-04-17T06:38:52Z</time>
      </trkpt>
      <trkpt lat="47.60326" lon="3.75536">
        <ele>130</ele>
        <time>2014-04-17T06:39:00Z</time>
      </trkpt>
      <trkpt lat="47.60324" lon="3.75536">
        <ele>130</ele>
        <time>2014-04-17T06:39:06Z</time>
      </trkpt>
      <trkpt lat="47.60318" lon="3.75536">
        <ele>130</ele>
        <time>2014-04-17T06:39:11Z</time>
      </trkpt>
      <trkpt lat="47.60314" lon="3.7554">
        <ele>130</ele>
        <time>2014-04-17T06:39:15Z</time>
      </trkpt>
      <trkpt lat="47.60308" lon="3.75541">
        <ele>130</ele>
        <time>2014-04-17T06:39:23Z</time>
      </trkpt>
      <trkpt lat="47.60304" lon="3.75538">
        <ele>130</ele>
        <time>2014-04-17T06:39:26Z</time>
      </trkpt>
      <trkpt lat="47.603" lon="3.75531">
        <ele>130</ele>
        <time>2014-04-17T06:39:29Z</time>
      </trkpt>
      <trkpt lat="47.60307" lon="3.75495">
        <ele>132</ele>
        <time>2014-04-17T06:39:49Z</time>
      </trkpt>
      <trkpt lat="47.60296" lon="3.75478">
        <ele>133</ele>
        <time>2014-04-17T06:40:01Z</time>
      </trkpt>
      <trkpt lat="47.60291" lon="3.75473">
        <ele>133</ele>
        <time>2014-04-17T06:40:04Z</time>
      </trkpt>
      <trkpt lat="47.60286" lon="3.75473">
        <ele>133</ele>
        <time>2014-04-17T06:40:07Z</time>
      </trkpt>
      <trkpt lat="47.60281" lon="3.75476">
        <ele>133</ele>
        <time>2014-04-17T06:40:12Z</time>
      </trkpt>
      <trkpt lat="47.60279" lon="3.75483">
        <ele>133</ele>
        <time>2014-04-17T06:40:16Z</time>
      </trkpt>
      <trkpt lat="47.60278" lon="3.7549">
        <ele>134</ele>
        <time>2014-04-17T06:40:20Z</time>
      </trkpt>
      <trkpt lat="47.60279" lon="3.75506">
        <ele>132</ele>
        <time>2014-04-17T06:40:29Z</time>
      </trkpt>
      <trkpt lat="47.60275" lon="3.75518">
        <ele>132</ele>
        <time>2014-04-17T06:40:37Z</time>
      </trkpt>
      <trkpt lat="47.60268" lon="3.75529">
        <ele>132</ele>
        <time>2014-04-17T06:40:45Z</time>
      </trkpt>
      <trkpt lat="47.60266" lon="3.75535">
        <ele>131</ele>
        <time>2014-04-17T06:40:51Z</time>
      </trkpt>
      <trkpt lat="47.60263" lon="3.7554">
        <ele>131</ele>
        <time>2014-04-17T06:40:56Z</time>
      </trkpt>
      <trkpt lat="47.60258" lon="3.75543">
        <ele>131</ele>
        <time>2014-04-17T06:41:03Z</time>
      </trkpt>
      <trkpt lat="47.60254" lon="3.75543">
        <ele>131</ele>
        <time>2014-04-17T06:41:09Z</time>
      </trkpt>
      <trkpt lat="47.60252" lon="3.75539">
        <ele>132</ele>
        <time>2014-04-17T06:41:22Z</time>
      </trkpt>
      <trkpt lat="47.60247" lon="3.7554">
        <ele>133</ele>
        <time>2014-04-17T06:41:39Z</time>
      </trkpt>
      <trkpt lat="47.60246" lon="3.75541">
        <ele>133</ele>
        <time>2014-04-17T06:42:50Z</time>
      </trkpt>
      <trkpt lat="47.60241" lon="3.75537">
        <ele>133</ele>
        <time>2014-04-17T06:43:16Z</time>
      </trkpt>
      <trkpt lat="47.60238" lon="3.75538">
        <ele>133</ele>
        <time>2014-04-17T06:45:47Z</time>
      </trkpt>
      <trkpt lat="47.6024" lon="3.75545">
        <ele>133</ele>
        <time>2014-04-17T06:46:11Z</time>
      </trkpt>
      <trkpt lat="47.60235" lon="3.75548">
        <ele>133</ele>
        <time>2014-04-17T06:46:18Z</time>
      </trkpt>
      <trkpt lat="47.60231" lon="3.75554">
        <ele>132</ele>
        <time>2014-04-17T06:46:45Z</time>
      </trkpt>
      <trkpt lat="47.60226" lon="3.75552">
        <ele>132</ele>
        <time>2014-04-17T06:46:50Z</time>
      </trkpt>
      <trkpt lat="47.60223" lon="3.75555">
        <ele>132</ele>
        <time>2014-04-17T06:47:28Z</time>
      </trkpt>
      <trkpt lat="47.60215" lon="3.75548">
        <ele>133</ele>
        <time>2014-04-17T06:47:38Z</time>
      </trkpt>
      <trkpt lat="47.60211" lon="3.75555">
        <ele>132</ele>
        <time>2014-04-17T06:47:43Z</time>
      </trkpt>
      <trkpt lat="47.60207" lon="3.75558">
        <ele>132</ele>
        <time>2014-04-17T06:47:46Z</time>
      </trkpt>
      <trkpt lat="47.60202" lon="3.75556">
        <ele>132</ele>
        <time>2014-04-17T06:47:54Z</time>
      </trkpt>
      <trkpt lat="47.60198" lon="3.75553">
        <ele>132</ele>
        <time>2014-04-17T06:47:59Z</time>
      </trkpt>
      <trkpt lat="47.60193" lon="3.75554">
        <ele>132</ele>
        <time>2014-04-17T06:48:03Z</time>
      </trkpt>
      <trkpt lat="47.60189" lon="3.75556">
        <ele>132</ele>
        <time>2014-04-17T06:48:08Z</time>
      </trkpt>
      <trkpt lat="47.60186" lon="3.75562">
        <ele>132</ele>
        <time>2014-04-17T06:48:12Z</time>
      </trkpt>
      <trkpt lat="47.60185" lon="3.75569">
        <ele>132</ele>
        <time>2014-04-17T06:48:17Z</time>
      </trkpt>
      <trkpt lat="47.60191" lon="3.75579">
        <ele>132</ele>
        <time>2014-04-17T06:48:30Z</time>
      </trkpt>
      <trkpt lat="47.60186" lon="3.7559">
        <ele>129</ele>
        <time>2014-04-17T06:48:40Z</time>
      </trkpt>
      <trkpt lat="47.60187" lon="3.75597">
        <ele>129</ele>
        <time>2014-04-17T06:49:03Z</time>
      </trkpt>
      <trkpt lat="47.60195" lon="3.75606">
        <ele>129</ele>
        <time>2014-04-17T06:49:12Z</time>
      </trkpt>
      <trkpt lat="47.60214" lon="3.75614">
        <ele>128</ele>
        <time>2014-04-17T06:49:27Z</time>
      </trkpt>
      <trkpt lat="47.60223" lon="3.75621">
        <ele>128</ele>
        <time>2014-04-17T06:49:37Z</time>
      </trkpt>
      <trkpt lat="47.60231" lon="3.75628">
        <ele>128</ele>
        <time>2014-04-17T06:49:43Z</time>
      </trkpt>
      <trkpt lat="47.60239" lon="3.75633">
        <ele>127</ele>
        <time>2014-04-17T06:49:47Z</time>
      </trkpt>
      <trkpt lat="47.60248" lon="3.75631">
        <ele>128</ele>
        <time>2014-04-17T06:49:55Z</time>
      </trkpt>
      <trkpt lat="47.60249" lon="3.75641">
        <ele>127</ele>
        <time>2014-04-17T06:50:01Z</time>
      </trkpt>
      <trkpt lat="47.60258" lon="3.75649">
        <ele>126</ele>
        <time>2014-04-17T06:50:05Z</time>
      </trkpt>
      <trkpt lat="47.60258" lon="3.75667">
        <ele>125</ele>
        <time>2014-04-17T06:50:30Z</time>
      </trkpt>
      <trkpt lat="47.60261" lon="3.75673">
        <ele>124</ele>
        <time>2014-04-17T06:50:34Z</time>
      </trkpt>
      <trkpt lat="47.60262" lon="3.7568">
        <ele>124</ele>
        <time>2014-04-17T06:50:38Z</time>
      </trkpt>
      <trkpt lat="47.60263" lon="3.75687">
        <ele>124</ele>
        <time>2014-04-17T06:50:42Z</time>
      </trkpt>
      <trkpt lat="47.60265" lon="3.75695">
        <ele>124</ele>
        <time>2014-04-17T06:50:46Z</time>
      </trkpt>
      <trkpt lat="47.60268" lon="3.757">
        <ele>124</ele>
        <time>2014-04-17T06:50:50Z</time>
      </trkpt>
      <trkpt lat="47.60272" lon="3.75723">
        <ele>123</ele>
        <time>2014-04-17T06:51:06Z</time>
      </trkpt>
      <trkpt lat="47.60275" lon="3.75729">
        <ele>123</ele>
        <time>2014-04-17T06:51:10Z</time>
      </trkpt>
      <trkpt lat="47.60279" lon="3.75751">
        <ele>123</ele>
        <time>2014-04-17T06:51:22Z</time>
      </trkpt>
      <trkpt lat="47.60282" lon="3.75758">
        <ele>123</ele>
        <time>2014-04-17T06:51:26Z</time>
      </trkpt>
      <trkpt lat="47.60282" lon="3.75766">
        <ele>123</ele>
        <time>2014-04-17T06:51:30Z</time>
      </trkpt>
      <trkpt lat="47.60284" lon="3.75773">
        <ele>123</ele>
        <time>2014-04-17T06:51:38Z</time>
      </trkpt>
      <trkpt lat="47.60291" lon="3.75783">
        <ele>123</ele>
        <time>2014-04-17T06:51:46Z</time>
      </trkpt>
      <trkpt lat="47.60297" lon="3.75813">
        <ele>124</ele>
        <time>2014-04-17T06:52:05Z</time>
      </trkpt>
      <trkpt lat="47.603" lon="3.75823">
        <ele>124</ele>
        <time>2014-04-17T06:52:10Z</time>
      </trkpt>
      <trkpt lat="47.60302" lon="3.75828">
        <ele>124</ele>
        <time>2014-04-17T06:52:15Z</time>
      </trkpt>
      <trkpt lat="47.60302" lon="3.75827">
        <ele>124</ele>
        <time>2014-04-17T06:54:15Z</time>
      </trkpt>
      <trkpt lat="47.6031" lon="3.75825">
        <ele>124</ele>
        <time>2014-04-17T06:57:21Z</time>
      </trkpt>
      <trkpt lat="47.60315" lon="3.75822">
        <ele>124</ele>
        <time>2014-04-17T06:57:33Z</time>
      </trkpt>
      <trkpt lat="47.60316" lon="3.75823">
        <ele>124</ele>
        <time>2014-04-17T06:58:42Z</time>
      </trkpt>
      <trkpt lat="47.6031" lon="3.75822">
        <ele>124</ele>
        <time>2014-04-17T06:59:06Z</time>
      </trkpt>
      <trkpt lat="47.60305" lon="3.75823">
        <ele>124</ele>
        <time>2014-04-17T06:59:07Z</time>
      </trkpt>
      <trkpt lat="47.603" lon="3.75821">
        <ele>124</ele>
        <time>2014-04-17T06:59:09Z</time>
      </trkpt>
      <trkpt lat="47.60295" lon="3.75818">
        <ele>124</ele>
        <time>2014-04-17T06:59:12Z</time>
      </trkpt>
      <trkpt lat="47.60291" lon="3.75813">
        <ele>123</ele>
        <time>2014-04-17T06:59:16Z</time>
      </trkpt>
      <trkpt lat="47.60288" lon="3.75806">
        <ele>123</ele>
        <time>2014-04-17T06:59:21Z</time>
      </trkpt>
      <trkpt lat="47.60292" lon="3.75801">
        <ele>123</ele>
        <time>2014-04-17T06:59:26Z</time>
      </trkpt>
      <trkpt lat="47.60287" lon="3.75797">
        <ele>123</ele>
        <time>2014-04-17T06:59:54Z</time>
      </trkpt>
      <trkpt lat="47.60277" lon="3.75792">
        <ele>123</ele>
        <time>2014-04-17T06:59:58Z</time>
      </trkpt>
      <trkpt lat="47.60275" lon="3.75778">
        <ele>123</ele>
        <time>2014-04-17T07:00:08Z</time>
      </trkpt>
      <trkpt lat="47.60275" lon="3.7577">
        <ele>123</ele>
        <time>2014-04-17T07:00:12Z</time>
      </trkpt>
      <trkpt lat="47.60273" lon="3.75764">
        <ele>123</ele>
        <time>2014-04-17T07:00:14Z</time>
      </trkpt>
      <trkpt lat="47.60271" lon="3.75748">
        <ele>123</ele>
        <time>2014-04-17T07:00:20Z</time>
      </trkpt>
      <trkpt lat="47.60269" lon="3.75742">
        <ele>123</ele>
        <time>2014-04-17T07:00:26Z</time>
      </trkpt>
      <trkpt lat="47.60272" lon="3.75737">
        <ele>123</ele>
        <time>2014-04-17T07:00:39Z</time>
      </trkpt>
      <trkpt lat="47.60269" lon="3.75732">
        <ele>123</ele>
        <time>2014-04-17T07:00:54Z</time>
      </trkpt>
      <trkpt lat="47.60266" lon="3.75734">
        <ele>123</ele>
        <time>2014-04-17T07:01:01Z</time>
      </trkpt>
      <trkpt lat="47.60268" lon="3.7572">
        <ele>124</ele>
        <time>2014-04-17T07:01:18Z</time>
      </trkpt>
      <trkpt lat="47.60265" lon="3.75715">
        <ele>124</ele>
        <time>2014-04-17T07:01:23Z</time>
      </trkpt>
      <trkpt lat="47.6026" lon="3.75702">
        <ele>124</ele>
        <time>2014-04-17T07:01:30Z</time>
      </trkpt>
      <trkpt lat="47.60259" lon="3.75695">
        <ele>124</ele>
        <time>2014-04-17T07:01:33Z</time>
      </trkpt>
      <trkpt lat="47.60257" lon="3.75688">
        <ele>124</ele>
        <time>2014-04-17T07:01:36Z</time>
      </trkpt>
      <trkpt lat="47.60252" lon="3.75685">
        <ele>124</ele>
        <time>2014-04-17T07:01:41Z</time>
      </trkpt>
      <trkpt lat="47.6025" lon="3.75678">
        <ele>124</ele>
        <time>2014-04-17T07:01:45Z</time>
      </trkpt>
      <trkpt lat="47.60252" lon="3.75672">
        <ele>125</ele>
        <time>2014-04-17T07:01:49Z</time>
      </trkpt>
      <trkpt lat="47.60248" lon="3.75658">
        <ele>126</ele>
        <time>2014-04-17T07:01:59Z</time>
      </trkpt>
      <trkpt lat="47.60246" lon="3.75644">
        <ele>127</ele>
        <time>2014-04-17T07:02:08Z</time>
      </trkpt>
      <trkpt lat="47.60243" lon="3.75637">
        <ele>127</ele>
        <time>2014-04-17T07:02:13Z</time>
      </trkpt>
      <trkpt lat="47.60238" lon="3.75634">
        <ele>127</ele>
        <time>2014-04-17T07:02:17Z</time>
      </trkpt>
      <trkpt lat="47.60224" lon="3.75627">
        <ele>128</ele>
        <time>2014-04-17T07:02:27Z</time>
      </trkpt>
      <trkpt lat="47.60219" lon="3.75626">
        <ele>128</ele>
        <time>2014-04-17T07:02:33Z</time>
      </trkpt>
      <trkpt lat="47.60214" lon="3.75628">
        <ele>128</ele>
        <time>2014-04-17T07:02:38Z</time>
      </trkpt>
      <trkpt lat="47.60203" lon="3.75618">
        <ele>128</ele>
        <time>2014-04-17T07:02:56Z</time>
      </trkpt>
      <trkpt lat="47.60198" lon="3.75617">
        <ele>128</ele>
        <time>2014-04-17T07:03:01Z</time>
      </trkpt>
      <trkpt lat="47.60189" lon="3.75621">
        <ele>128</ele>
        <time>2014-04-17T07:03:11Z</time>
      </trkpt>
      <trkpt lat="47.60185" lon="3.75624">
        <ele>128</ele>
        <time>2014-04-17T07:03:15Z</time>
      </trkpt>
      <trkpt lat="47.6018" lon="3.75627">
        <ele>128</ele>
        <time>2014-04-17T07:03:20Z</time>
      </trkpt>
      <trkpt lat="47.60175" lon="3.75631">
        <ele>128</ele>
        <time>2014-04-17T07:03:25Z</time>
      </trkpt>
      <trkpt lat="47.60171" lon="3.75633">
        <ele>128</ele>
        <time>2014-04-17T07:03:31Z</time>
      </trkpt>
      <trkpt lat="47.60166" lon="3.75633">
        <ele>131</ele>
        <time>2014-04-17T07:03:37Z</time>
      </trkpt>
      <trkpt lat="47.60161" lon="3.75632">
        <ele>131</ele>
        <time>2014-04-17T07:03:40Z</time>
      </trkpt>
      <trkpt lat="47.60155" lon="3.75633">
        <ele>131</ele>
        <time>2014-04-17T07:03:44Z</time>
      </trkpt>
      <trkpt lat="47.6015" lon="3.75633">
        <ele>131</ele>
        <time>2014-04-17T07:03:48Z</time>
      </trkpt>
      <trkpt lat="47.60145" lon="3.75631">
        <ele>132</ele>
        <time>2014-04-17T07:03:53Z</time>
      </trkpt>
      <trkpt lat="47.6014" lon="3.7563">
        <ele>132</ele>
        <time>2014-04-17T07:03:58Z</time>
      </trkpt>
      <trkpt lat="47.60134" lon="3.75629">
        <ele>132</ele>
        <time>2014-04-17T07:04:02Z</time>
      </trkpt>
      <trkpt lat="47.60129" lon="3.7563">
        <ele>132</ele>
        <time>2014-04-17T07:04:06Z</time>
      </trkpt>
      <trkpt lat="47.60124" lon="3.75629">
        <ele>133</ele>
        <time>2014-04-17T07:04:10Z</time>
      </trkpt>
      <trkpt lat="47.60115" lon="3.75627">
        <ele>133</ele>
        <time>2014-04-17T07:04:22Z</time>
      </trkpt>
      <trkpt lat="47.60112" lon="3.75628">
        <ele>133</ele>
        <time>2014-04-17T07:04:28Z</time>
      </trkpt>
      <trkpt lat="47.60105" lon="3.75641">
        <ele>134</ele>
        <time>2014-04-17T07:04:40Z</time>
      </trkpt>
      <trkpt lat="47.60101" lon="3.75651">
        <ele>134</ele>
        <time>2014-04-17T07:04:45Z</time>
      </trkpt>
      <trkpt lat="47.60097" lon="3.75656">
        <ele>135</ele>
        <time>2014-04-17T07:04:49Z</time>
      </trkpt>
      <trkpt lat="47.60087" lon="3.75661">
        <ele>136</ele>
        <time>2014-04-17T07:04:56Z</time>
      </trkpt>
      <trkpt lat="47.60076" lon="3.75662">
        <ele>139</ele>
        <time>2014-04-17T07:05:02Z</time>
      </trkpt>
      <trkpt lat="47.60071" lon="3.75665">
        <ele>140</ele>
        <time>2014-04-17T07:05:08Z</time>
      </trkpt>
      <trkpt lat="47.60067" lon="3.75672">
        <ele>139</ele>
        <time>2014-04-17T07:05:12Z</time>
      </trkpt>
      <trkpt lat="47.60064" lon="3.75676">
        <ele>139</ele>
        <time>2014-04-17T07:05:15Z</time>
      </trkpt>
      <trkpt lat="47.60061" lon="3.75683">
        <ele>139</ele>
        <time>2014-04-17T07:05:19Z</time>
      </trkpt>
      <trkpt lat="47.60057" lon="3.75687">
        <ele>140</ele>
        <time>2014-04-17T07:05:25Z</time>
      </trkpt>
      <trkpt lat="47.60053" lon="3.75692">
        <ele>140</ele>
        <time>2014-04-17T07:05:31Z</time>
      </trkpt>
      <trkpt lat="47.60053" lon="3.75699">
        <ele>140</ele>
        <time>2014-04-17T07:05:39Z</time>
      </trkpt>
      <trkpt lat="47.6005" lon="3.75698">
        <ele>140</ele>
        <time>2014-04-17T07:06:03Z</time>
      </trkpt>
      <trkpt lat="47.60021" lon="3.75706">
        <ele>142</ele>
        <time>2014-04-17T07:06:20Z</time>
      </trkpt>
      <trkpt lat="47.60016" lon="3.75708">
        <ele>142</ele>
        <time>2014-04-17T07:06:23Z</time>
      </trkpt>
      <trkpt lat="47.60012" lon="3.75713">
        <ele>142</ele>
        <time>2014-04-17T07:06:28Z</time>
      </trkpt>
      <trkpt lat="47.60009" lon="3.75718">
        <ele>141</ele>
        <time>2014-04-17T07:06:33Z</time>
      </trkpt>
      <trkpt lat="47.60011" lon="3.75725">
        <ele>141</ele>
        <time>2014-04-17T07:07:08Z</time>
      </trkpt>
      <trkpt lat="47.60008" lon="3.7573">
        <ele>141</ele>
        <time>2014-04-17T07:07:16Z</time>
      </trkpt>
      <trkpt lat="47.60005" lon="3.75735">
        <ele>141</ele>
        <time>2014-04-17T07:07:20Z</time>
      </trkpt>
      <trkpt lat="47.60002" lon="3.7574">
        <ele>141</ele>
        <time>2014-04-17T07:07:25Z</time>
      </trkpt>
      <trkpt lat="47.59995" lon="3.75747">
        <ele>142</ele>
        <time>2014-04-17T07:07:35Z</time>
      </trkpt>
      <trkpt lat="47.59989" lon="3.75759">
        <ele>140</ele>
        <time>2014-04-17T07:07:48Z</time>
      </trkpt>
      <trkpt lat="47.59985" lon="3.75764">
        <ele>139</ele>
        <time>2014-04-17T07:07:51Z</time>
      </trkpt>
      <trkpt lat="47.59976" lon="3.7577">
        <ele>139</ele>
        <time>2014-04-17T07:08:00Z</time>
      </trkpt>
      <trkpt lat="47.59974" lon="3.75784">
        <ele>138</ele>
        <time>2014-04-17T07:08:07Z</time>
      </trkpt>
      <trkpt lat="47.59971" lon="3.7579">
        <ele>138</ele>
        <time>2014-04-17T07:08:19Z</time>
      </trkpt>
      <trkpt lat="47.59962" lon="3.7579">
        <ele>138</ele>
        <time>2014-04-17T07:08:47Z</time>
      </trkpt>
      <trkpt lat="47.59958" lon="3.75789">
        <ele>138</ele>
        <time>2014-04-17T07:08:49Z</time>
      </trkpt>
      <trkpt lat="47.59953" lon="3.7579">
        <ele>138</ele>
        <time>2014-04-17T07:08:52Z</time>
      </trkpt>
      <trkpt lat="47.59948" lon="3.75792">
        <ele>138</ele>
        <time>2014-04-17T07:08:57Z</time>
      </trkpt>
      <trkpt lat="47.59943" lon="3.75796">
        <ele>138</ele>
        <time>2014-04-17T07:09:00Z</time>
      </trkpt>
      <trkpt lat="47.59936" lon="3.75798">
        <ele>138</ele>
        <time>2014-04-17T07:09:03Z</time>
      </trkpt>
      <trkpt lat="47.59931" lon="3.75802">
        <ele>138</ele>
        <time>2014-04-17T07:09:06Z</time>
      </trkpt>
      <trkpt lat="47.59926" lon="3.75805">
        <ele>137</ele>
        <time>2014-04-17T07:09:10Z</time>
      </trkpt>
      <trkpt lat="47.59921" lon="3.75806">
        <ele>137</ele>
        <time>2014-04-17T07:09:14Z</time>
      </trkpt>
      <trkpt lat="47.59917" lon="3.7581">
        <ele>137</ele>
        <time>2014-04-17T07:09:19Z</time>
      </trkpt>
      <trkpt lat="47.59912" lon="3.75812">
        <ele>137</ele>
        <time>2014-04-17T07:09:22Z</time>
      </trkpt>
      <trkpt lat="47.59907" lon="3.75813">
        <ele>137</ele>
        <time>2014-04-17T07:09:26Z</time>
      </trkpt>
      <trkpt lat="47.59902" lon="3.75818">
        <ele>136</ele>
        <time>2014-04-17T07:09:30Z</time>
      </trkpt>
      <trkpt lat="47.59898" lon="3.75821">
        <ele>137</ele>
        <time>2014-04-17T07:09:35Z</time>
      </trkpt>
      <trkpt lat="47.59893" lon="3.75823">
        <ele>137</ele>
        <time>2014-04-17T07:09:39Z</time>
      </trkpt>
      <trkpt lat="47.59889" lon="3.75826">
        <ele>137</ele>
        <time>2014-04-17T07:09:43Z</time>
      </trkpt>
      <trkpt lat="47.59885" lon="3.7583">
        <ele>137</ele>
        <time>2014-04-17T07:09:47Z</time>
      </trkpt>
      <trkpt lat="47.59879" lon="3.75832">
        <ele>137</ele>
        <time>2014-04-17T07:09:52Z</time>
      </trkpt>
      <trkpt lat="47.59874" lon="3.7583">
        <ele>137</ele>
        <time>2014-04-17T07:09:57Z</time>
      </trkpt>
      <trkpt lat="47.59871" lon="3.75825">
        <ele>137</ele>
        <time>2014-04-17T07:10:03Z</time>
      </trkpt>
      <trkpt lat="47.59869" lon="3.75819">
        <ele>137</ele>
        <time>2014-04-17T07:10:07Z</time>
      </trkpt>
      <trkpt lat="47.59861" lon="3.7581">
        <ele>137</ele>
        <time>2014-04-17T07:10:22Z</time>
      </trkpt>
      <trkpt lat="47.59863" lon="3.75805">
        <ele>137</ele>
        <time>2014-04-17T07:10:27Z</time>
      </trkpt>
      <trkpt lat="47.59866" lon="3.75803">
        <ele>138</ele>
        <time>2014-04-17T07:11:20Z</time>
      </trkpt>
      <trkpt lat="47.59867" lon="3.7581">
        <ele>137</ele>
        <time>2014-04-17T07:11:27Z</time>
      </trkpt>
      <trkpt lat="47.59866" lon="3.75815">
        <ele>137</ele>
        <time>2014-04-17T07:11:36Z</time>
      </trkpt>
      <trkpt lat="47.59865" lon="3.75818">
        <ele>137</ele>
        <time>2014-04-17T07:11:42Z</time>
      </trkpt>
      <trkpt lat="47.59858" lon="3.75821">
        <ele>137</ele>
        <time>2014-04-17T07:12:01Z</time>
      </trkpt>
      <trkpt lat="47.5985" lon="3.75829">
        <ele>137</ele>
        <time>2014-04-17T07:12:07Z</time>
      </trkpt>
      <trkpt lat="47.59847" lon="3.75834">
        <ele>135</ele>
        <time>2014-04-17T07:12:10Z</time>
      </trkpt>
      <trkpt lat="47.59844" lon="3.75841">
        <ele>135</ele>
        <time>2014-04-17T07:12:15Z</time>
      </trkpt>
      <trkpt lat="47.59842" lon="3.75848">
        <ele>135</ele>
        <time>2014-04-17T07:12:19Z</time>
      </trkpt>
      <trkpt lat="47.59839" lon="3.75854">
        <ele>135</ele>
        <time>2014-04-17T07:12:24Z</time>
      </trkpt>
      <trkpt lat="47.59838" lon="3.75861">
        <ele>134</ele>
        <time>2014-04-17T07:12:29Z</time>
      </trkpt>
      <trkpt lat="47.59838" lon="3.75868">
        <ele>134</ele>
        <time>2014-04-17T07:12:33Z</time>
      </trkpt>
      <trkpt lat="47.59835" lon="3.75874">
        <ele>134</ele>
        <time>2014-04-17T07:12:37Z</time>
      </trkpt>
      <trkpt lat="47.59828" lon="3.75882">
        <ele>139</ele>
        <time>2014-04-17T07:12:42Z</time>
      </trkpt>
      <trkpt lat="47.59823" lon="3.75886">
        <ele>139</ele>
        <time>2014-04-17T07:12:45Z</time>
      </trkpt>
      <trkpt lat="47.59813" lon="3.75893">
        <ele>140</ele>
        <time>2014-04-17T07:12:52Z</time>
      </trkpt>
      <trkpt lat="47.59805" lon="3.75904">
        <ele>140</ele>
        <time>2014-04-17T07:13:01Z</time>
      </trkpt>
      <trkpt lat="47.59801" lon="3.75906">
        <ele>141</ele>
        <time>2014-04-17T07:13:05Z</time>
      </trkpt>
      <trkpt lat="47.59798" lon="3.75912">
        <ele>141</ele>
        <time>2014-04-17T07:13:11Z</time>
      </trkpt>
      <trkpt lat="47.59797" lon="3.75919">
        <ele>138</ele>
        <time>2014-04-17T07:13:16Z</time>
      </trkpt>
      <trkpt lat="47.59791" lon="3.75924">
        <ele>139</ele>
        <time>2014-04-17T07:13:21Z</time>
      </trkpt>
      <trkpt lat="47.59787" lon="3.75924">
        <ele>139</ele>
        <time>2014-04-17T07:13:24Z</time>
      </trkpt>
      <trkpt lat="47.59782" lon="3.75927">
        <ele>140</ele>
        <time>2014-04-17T07:13:28Z</time>
      </trkpt>
      <trkpt lat="47.59777" lon="3.75932">
        <ele>140</ele>
        <time>2014-04-17T07:13:31Z</time>
      </trkpt>
      <trkpt lat="47.59774" lon="3.75936">
        <ele>140</ele>
        <time>2014-04-17T07:13:34Z</time>
      </trkpt>
      <trkpt lat="47.59769" lon="3.75938">
        <ele>141</ele>
        <time>2014-04-17T07:13:54Z</time>
      </trkpt>
      <trkpt lat="47.59765" lon="3.7594">
        <ele>141</ele>
        <time>2014-04-17T07:13:57Z</time>
      </trkpt>
      <trkpt lat="47.5976" lon="3.7594">
        <ele>141</ele>
        <time>2014-04-17T07:14:02Z</time>
      </trkpt>
      <trkpt lat="47.59752" lon="3.75949">
        <ele>141</ele>
        <time>2014-04-17T07:14:29Z</time>
      </trkpt>
      <trkpt lat="47.59748" lon="3.75953">
        <ele>149</ele>
        <time>2014-04-17T07:14:33Z</time>
      </trkpt>
      <trkpt lat="47.59736" lon="3.75968">
        <ele>149</ele>
        <time>2014-04-17T07:14:47Z</time>
      </trkpt>
      <trkpt lat="47.59732" lon="3.75972">
        <ele>149</ele>
        <time>2014-04-17T07:14:52Z</time>
      </trkpt>
      <trkpt lat="47.59722" lon="3.75975">
        <ele>150</ele>
        <time>2014-04-17T07:15:02Z</time>
      </trkpt>
      <trkpt lat="47.59717" lon="3.75974">
        <ele>150</ele>
        <time>2014-04-17T07:15:05Z</time>
      </trkpt>
      <trkpt lat="47.59712" lon="3.75978">
        <ele>151</ele>
        <time>2014-04-17T07:15:09Z</time>
      </trkpt>
      <trkpt lat="47.59703" lon="3.75998">
        <ele>152</ele>
        <time>2014-04-17T07:15:20Z</time>
      </trkpt>
      <trkpt lat="47.597" lon="3.76003">
        <ele>148</ele>
        <time>2014-04-17T07:15:24Z</time>
      </trkpt>
      <trkpt lat="47.59694" lon="3.76006">
        <ele>149</ele>
        <time>2014-04-17T07:15:29Z</time>
      </trkpt>
      <trkpt lat="47.5969" lon="3.7601">
        <ele>149</ele>
        <time>2014-04-17T07:15:33Z</time>
      </trkpt>
      <trkpt lat="47.59689" lon="3.76017">
        <ele>149</ele>
        <time>2014-04-17T07:15:37Z</time>
      </trkpt>
      <trkpt lat="47.59688" lon="3.76026">
        <ele>148</ele>
        <time>2014-04-17T07:15:40Z</time>
      </trkpt>
      <trkpt lat="47.59685" lon="3.76056">
        <ele>147</ele>
        <time>2014-04-17T07:15:53Z</time>
      </trkpt>
      <trkpt lat="47.59681" lon="3.76062">
        <ele>147</ele>
        <time>2014-04-17T07:15:57Z</time>
      </trkpt>
      <trkpt lat="47.59673" lon="3.76072">
        <ele>149</ele>
        <time>2014-04-17T07:16:04Z</time>
      </trkpt>
      <trkpt lat="47.5967" lon="3.76077">
        <ele>150</ele>
        <time>2014-04-17T07:16:09Z</time>
      </trkpt>
      <trkpt lat="47.59666" lon="3.76082">
        <ele>153</ele>
        <time>2014-04-17T07:16:14Z</time>
      </trkpt>
      <trkpt lat="47.59663" lon="3.76089">
        <ele>153</ele>
        <time>2014-04-17T07:16:19Z</time>
      </trkpt>
      <trkpt lat="47.59662" lon="3.76094">
        <ele>153</ele>
        <time>2014-04-17T07:16:30Z</time>
      </trkpt>
      <trkpt lat="47.59659" lon="3.761">
        <ele>153</ele>
        <time>2014-04-17T07:16:34Z</time>
      </trkpt>
      <trkpt lat="47.59655" lon="3.76105">
        <ele>153</ele>
        <time>2014-04-17T07:16:37Z</time>
      </trkpt>
      <trkpt lat="47.59652" lon="3.76118">
        <ele>153</ele>
        <time>2014-04-17T07:16:43Z</time>
      </trkpt>
      <trkpt lat="47.59646" lon="3.76127">
        <ele>153</ele>
        <time>2014-04-17T07:16:52Z</time>
      </trkpt>
      <trkpt lat="47.5963" lon="3.76145">
        <ele>154</ele>
        <time>2014-04-17T07:17:05Z</time>
      </trkpt>
      <trkpt lat="47.59628" lon="3.76152">
        <ele>154</ele>
        <time>2014-04-17T07:17:10Z</time>
      </trkpt>
      <trkpt lat="47.59631" lon="3.76154">
        <ele>153</ele>
        <time>2014-04-17T07:17:17Z</time>
      </trkpt>
      <trkpt lat="47.5963" lon="3.76161">
        <ele>153</ele>
        <time>2014-04-17T07:17:29Z</time>
      </trkpt>
      <trkpt lat="47.59628" lon="3.76168">
        <ele>150</ele>
        <time>2014-04-17T07:17:33Z</time>
      </trkpt>
      <trkpt lat="47.59625" lon="3.76173">
        <ele>150</ele>
        <time>2014-04-17T07:17:37Z</time>
      </trkpt>
      <trkpt lat="47.59622" lon="3.7618">
        <ele>150</ele>
        <time>2014-04-17T07:17:42Z</time>
      </trkpt>
      <trkpt lat="47.59619" lon="3.76186">
        <ele>151</ele>
        <time>2014-04-17T07:17:45Z</time>
      </trkpt>
      <trkpt lat="47.59614" lon="3.7619">
        <ele>151</ele>
        <time>2014-04-17T07:17:48Z</time>
      </trkpt>
      <trkpt lat="47.5961" lon="3.76195">
        <ele>151</ele>
        <time>2014-04-17T07:17:52Z</time>
      </trkpt>
      <trkpt lat="47.5961" lon="3.76203">
        <ele>151</ele>
        <time>2014-04-17T07:17:56Z</time>
      </trkpt>
      <trkpt lat="47.59608" lon="3.76209">
        <ele>151</ele>
        <time>2014-04-17T07:17:59Z</time>
      </trkpt>
      <trkpt lat="47.59606" lon="3.76213">
        <ele>151</ele>
        <time>2014-04-17T07:18:07Z</time>
      </trkpt>
      <trkpt lat="47.59599" lon="3.76219">
        <ele>152</ele>
        <time>2014-04-17T07:18:16Z</time>
      </trkpt>
      <trkpt lat="47.59597" lon="3.76228">
        <ele>152</ele>
        <time>2014-04-17T07:18:20Z</time>
      </trkpt>
      <trkpt lat="47.59594" lon="3.76261">
        <ele>151</ele>
        <time>2014-04-17T07:18:39Z</time>
      </trkpt>
      <trkpt lat="47.59591" lon="3.76268">
        <ele>151</ele>
        <time>2014-04-17T07:18:43Z</time>
      </trkpt>
      <trkpt lat="47.59586" lon="3.76289">
        <ele>148</ele>
        <time>2014-04-17T07:18:58Z</time>
      </trkpt>
      <trkpt lat="47.59586" lon="3.76296">
        <ele>148</ele>
        <time>2014-04-17T07:19:03Z</time>
      </trkpt>
      <trkpt lat="47.59583" lon="3.76304">
        <ele>158</ele>
        <time>2014-04-17T07:19:08Z</time>
      </trkpt>
      <trkpt lat="47.59581" lon="3.76311">
        <ele>158</ele>
        <time>2014-04-17T07:19:12Z</time>
      </trkpt>
      <trkpt lat="47.59579" lon="3.76325">
        <ele>156</ele>
        <time>2014-04-17T07:19:22Z</time>
      </trkpt>
      <trkpt lat="47.5958" lon="3.76333">
        <ele>156</ele>
        <time>2014-04-17T07:19:25Z</time>
      </trkpt>
      <trkpt lat="47.59572" lon="3.76388">
        <ele>154</ele>
        <time>2014-04-17T07:19:49Z</time>
      </trkpt>
      <trkpt lat="47.59571" lon="3.76396">
        <ele>153</ele>
        <time>2014-04-17T07:19:53Z</time>
      </trkpt>
      <trkpt lat="47.59568" lon="3.76402">
        <ele>153</ele>
        <time>2014-04-17T07:19:57Z</time>
      </trkpt>
      <trkpt lat="47.59567" lon="3.76409">
        <ele>153</ele>
        <time>2014-04-17T07:20:00Z</time>
      </trkpt>
      <trkpt lat="47.59568" lon="3.76416">
        <ele>152</ele>
        <time>2014-04-17T07:20:03Z</time>
      </trkpt>
      <trkpt lat="47.59567" lon="3.76437">
        <ele>150</ele>
        <time>2014-04-17T07:20:15Z</time>
      </trkpt>
      <trkpt lat="47.59564" lon="3.76461">
        <ele>150</ele>
        <time>2014-04-17T07:20:27Z</time>
      </trkpt>
      <trkpt lat="47.59561" lon="3.76468">
        <ele>149</ele>
        <time>2014-04-17T07:20:30Z</time>
      </trkpt>
      <trkpt lat="47.5956" lon="3.76475">
        <ele>149</ele>
        <time>2014-04-17T07:20:33Z</time>
      </trkpt>
      <trkpt lat="47.59555" lon="3.76488">
        <ele>149</ele>
        <time>2014-04-17T07:20:39Z</time>
      </trkpt>
      <trkpt lat="47.59554" lon="3.76495">
        <ele>149</ele>
        <time>2014-04-17T07:20:41Z</time>
      </trkpt>
      <trkpt lat="47.59552" lon="3.76502">
        <ele>146</ele>
        <time>2014-04-17T07:20:44Z</time>
      </trkpt>
      <trkpt lat="47.59548" lon="3.76506">
        <ele>147</ele>
        <time>2014-04-17T07:20:51Z</time>
      </trkpt>
      <trkpt lat="47.59544" lon="3.7651">
        <ele>147</ele>
        <time>2014-04-17T07:20:56Z</time>
      </trkpt>
      <trkpt lat="47.59543" lon="3.76518">
        <ele>147</ele>
        <time>2014-04-17T07:21:00Z</time>
      </trkpt>
      <trkpt lat="47.59543" lon="3.76526">
        <ele>147</ele>
        <time>2014-04-17T07:21:03Z</time>
      </trkpt>
      <trkpt lat="47.59541" lon="3.76532">
        <ele>147</ele>
        <time>2014-04-17T07:21:07Z</time>
      </trkpt>
      <trkpt lat="47.59544" lon="3.76554">
        <ele>146</ele>
        <time>2014-04-17T07:21:19Z</time>
      </trkpt>
      <trkpt lat="47.5954" lon="3.76568">
        <ele>146</ele>
        <time>2014-04-17T07:21:26Z</time>
      </trkpt>
      <trkpt lat="47.59539" lon="3.76576">
        <ele>146</ele>
        <time>2014-04-17T07:21:30Z</time>
      </trkpt>
      <trkpt lat="47.59539" lon="3.76584">
        <ele>145</ele>
        <time>2014-04-17T07:21:35Z</time>
      </trkpt>
      <trkpt lat="47.59538" lon="3.76591">
        <ele>145</ele>
        <time>2014-04-17T07:21:38Z</time>
      </trkpt>
      <trkpt lat="47.59539" lon="3.76599">
        <ele>145</ele>
        <time>2014-04-17T07:21:42Z</time>
      </trkpt>
      <trkpt lat="47.5954" lon="3.76606">
        <ele>144</ele>
        <time>2014-04-17T07:21:46Z</time>
      </trkpt>
      <trkpt lat="47.59541" lon="3.76613">
        <ele>144</ele>
        <time>2014-04-17T07:21:50Z</time>
      </trkpt>
      <trkpt lat="47.59532" lon="3.76687">
        <ele>143</ele>
        <time>2014-04-17T07:22:30Z</time>
      </trkpt>
      <trkpt lat="47.59533" lon="3.76701">
        <ele>142</ele>
        <time>2014-04-17T07:22:37Z</time>
      </trkpt>
      <trkpt lat="47.59537" lon="3.76716">
        <ele>141</ele>
        <time>2014-04-17T07:22:45Z</time>
      </trkpt>
      <trkpt lat="47.59537" lon="3.76724">
        <ele>141</ele>
        <time>2014-04-17T07:22:52Z</time>
      </trkpt>
      <trkpt lat="47.59536" lon="3.76738">
        <ele>141</ele>
        <time>2014-04-17T07:22:57Z</time>
      </trkpt>
      <trkpt lat="47.59538" lon="3.76745">
        <ele>140</ele>
        <time>2014-04-17T07:23:01Z</time>
      </trkpt>
      <trkpt lat="47.59539" lon="3.76751">
        <ele>138</ele>
        <time>2014-04-17T07:23:05Z</time>
      </trkpt>
      <trkpt lat="47.59538" lon="3.76754">
        <ele>138</ele>
        <time>2014-04-17T07:23:11Z</time>
      </trkpt>
      <trkpt lat="47.59534" lon="3.76759">
        <ele>139</ele>
        <time>2014-04-17T07:23:22Z</time>
      </trkpt>
      <trkpt lat="47.59529" lon="3.76773">
        <ele>139</ele>
        <time>2014-04-17T07:23:32Z</time>
      </trkpt>
      <trkpt lat="47.59528" lon="3.7678">
        <ele>139</ele>
        <time>2014-04-17T07:23:36Z</time>
      </trkpt>
      <trkpt lat="47.59519" lon="3.76799">
        <ele>139</ele>
        <time>2014-04-17T07:23:47Z</time>
      </trkpt>
      <trkpt lat="47.59515" lon="3.76804">
        <ele>139</ele>
        <time>2014-04-17T07:23:52Z</time>
      </trkpt>
      <trkpt lat="47.59513" lon="3.76812">
        <ele>139</ele>
        <time>2014-04-17T07:24:00Z</time>
      </trkpt>
      <trkpt lat="47.59507" lon="3.76823">
        <ele>140</ele>
        <time>2014-04-17T07:24:06Z</time>
      </trkpt>
      <trkpt lat="47.595" lon="3.76844">
        <ele>140</ele>
        <time>2014-04-17T07:24:16Z</time>
      </trkpt>
      <trkpt lat="47.5949" lon="3.76864">
        <ele>142</ele>
        <time>2014-04-17T07:24:25Z</time>
      </trkpt>
      <trkpt lat="47.59486" lon="3.76876">
        <ele>142</ele>
        <time>2014-04-17T07:24:32Z</time>
      </trkpt>
      <trkpt lat="47.59485" lon="3.76882">
        <ele>142</ele>
        <time>2014-04-17T07:24:36Z</time>
      </trkpt>
      <trkpt lat="47.59481" lon="3.76889">
        <ele>141</ele>
        <time>2014-04-17T07:24:40Z</time>
      </trkpt>
      <trkpt lat="47.59478" lon="3.76896">
        <ele>141</ele>
        <time>2014-04-17T07:24:44Z</time>
      </trkpt>
      <trkpt lat="47.59473" lon="3.76901">
        <ele>141</ele>
        <time>2014-04-17T07:24:47Z</time>
      </trkpt>
      <trkpt lat="47.59465" lon="3.76908">
        <ele>141</ele>
        <time>2014-04-17T07:24:55Z</time>
      </trkpt>
      <trkpt lat="47.59461" lon="3.76913">
        <ele>141</ele>
        <time>2014-04-17T07:24:58Z</time>
      </trkpt>
      <trkpt lat="47.5946" lon="3.7692">
        <ele>139</ele>
        <time>2014-04-17T07:25:02Z</time>
      </trkpt>
      <trkpt lat="47.59457" lon="3.76926">
        <ele>139</ele>
        <time>2014-04-17T07:25:06Z</time>
      </trkpt>
      <trkpt lat="47.59454" lon="3.76931">
        <ele>139</ele>
        <time>2014-04-17T07:25:09Z</time>
      </trkpt>
      <trkpt lat="47.59451" lon="3.76937">
        <ele>139</ele>
        <time>2014-04-17T07:25:13Z</time>
      </trkpt>
      <trkpt lat="47.59446" lon="3.76942">
        <ele>139</ele>
        <time>2014-04-17T07:25:17Z</time>
      </trkpt>
      <trkpt lat="47.59437" lon="3.76959">
        <ele>138</ele>
        <time>2014-04-17T07:25:27Z</time>
      </trkpt>
      <trkpt lat="47.59435" lon="3.76965">
        <ele>138</ele>
        <time>2014-04-17T07:25:32Z</time>
      </trkpt>
      <trkpt lat="47.59431" lon="3.7697">
        <ele>138</ele>
        <time>2014-04-17T07:25:36Z</time>
      </trkpt>
      <trkpt lat="47.59423" lon="3.76978">
        <ele>138</ele>
        <time>2014-04-17T07:25:42Z</time>
      </trkpt>
      <trkpt lat="47.59419" lon="3.76982">
        <ele>138</ele>
        <time>2014-04-17T07:25:48Z</time>
      </trkpt>
      <trkpt lat="47.59414" lon="3.76985">
        <ele>138</ele>
        <time>2014-04-17T07:25:51Z</time>
      </trkpt>
      <trkpt lat="47.59409" lon="3.76988">
        <ele>138</ele>
        <time>2014-04-17T07:25:54Z</time>
      </trkpt>
      <trkpt lat="47.594" lon="3.76995">
        <ele>139</ele>
        <time>2014-04-17T07:26:02Z</time>
      </trkpt>
      <trkpt lat="47.59395" lon="3.76998">
        <ele>139</ele>
        <time>2014-04-17T07:26:06Z</time>
      </trkpt>
      <trkpt lat="47.59386" lon="3.77006">
        <ele>137</ele>
        <time>2014-04-17T07:26:14Z</time>
      </trkpt>
      <trkpt lat="47.59382" lon="3.77011">
        <ele>136</ele>
        <time>2014-04-17T07:26:19Z</time>
      </trkpt>
      <trkpt lat="47.59377" lon="3.77011">
        <ele>137</ele>
        <time>2014-04-17T07:26:26Z</time>
      </trkpt>
      <trkpt lat="47.59367" lon="3.77014">
        <ele>137</ele>
        <time>2014-04-17T07:26:39Z</time>
      </trkpt>
      <trkpt lat="47.59362" lon="3.77016">
        <ele>137</ele>
        <time>2014-04-17T07:26:42Z</time>
      </trkpt>
      <trkpt lat="47.59358" lon="3.77018">
        <ele>137</ele>
        <time>2014-04-17T07:26:45Z</time>
      </trkpt>
      <trkpt lat="47.59352" lon="3.7702">
        <ele>137</ele>
        <time>2014-04-17T07:26:48Z</time>
      </trkpt>
      <trkpt lat="47.59347" lon="3.77025">
        <ele>137</ele>
        <time>2014-04-17T07:26:52Z</time>
      </trkpt>
      <trkpt lat="47.5934" lon="3.77037">
        <ele>136</ele>
        <time>2014-04-17T07:27:00Z</time>
      </trkpt>
      <trkpt lat="47.59336" lon="3.77043">
        <ele>136</ele>
        <time>2014-04-17T07:27:03Z</time>
      </trkpt>
      <trkpt lat="47.5933" lon="3.77046">
        <ele>138</ele>
        <time>2014-04-17T07:27:06Z</time>
      </trkpt>
      <trkpt lat="47.59325" lon="3.77049">
        <ele>138</ele>
        <time>2014-04-17T07:27:09Z</time>
      </trkpt>
      <trkpt lat="47.59323" lon="3.77056">
        <ele>137</ele>
        <time>2014-04-17T07:27:13Z</time>
      </trkpt>
      <trkpt lat="47.59322" lon="3.77064">
        <ele>137</ele>
        <time>2014-04-17T07:27:16Z</time>
      </trkpt>
      <trkpt lat="47.59318" lon="3.7707">
        <ele>136</ele>
        <time>2014-04-17T07:27:20Z</time>
      </trkpt>
      <trkpt lat="47.59309" lon="3.77077">
        <ele>137</ele>
        <time>2014-04-17T07:27:27Z</time>
      </trkpt>
      <trkpt lat="47.59304" lon="3.77077">
        <ele>137</ele>
        <time>2014-04-17T07:27:31Z</time>
      </trkpt>
      <trkpt lat="47.59293" lon="3.77077">
        <ele>137</ele>
        <time>2014-04-17T07:27:39Z</time>
      </trkpt>
      <trkpt lat="47.59283" lon="3.7708">
        <ele>138</ele>
        <time>2014-04-17T07:27:46Z</time>
      </trkpt>
      <trkpt lat="47.59279" lon="3.77085">
        <ele>134</ele>
        <time>2014-04-17T07:27:50Z</time>
      </trkpt>
      <trkpt lat="47.59272" lon="3.77088">
        <ele>134</ele>
        <time>2014-04-17T07:27:54Z</time>
      </trkpt>
      <trkpt lat="47.59261" lon="3.77089">
        <ele>135</ele>
        <time>2014-04-17T07:28:00Z</time>
      </trkpt>
      <trkpt lat="47.59256" lon="3.77091">
        <ele>136</ele>
        <time>2014-04-17T07:28:04Z</time>
      </trkpt>
      <trkpt lat="47.59251" lon="3.77091">
        <ele>136</ele>
        <time>2014-04-17T07:28:08Z</time>
      </trkpt>
      <trkpt lat="47.59246" lon="3.77093">
        <ele>135</ele>
        <time>2014-04-17T07:28:12Z</time>
      </trkpt>
      <trkpt lat="47.59241" lon="3.77093">
        <ele>134</ele>
        <time>2014-04-17T07:28:17Z</time>
      </trkpt>
      <trkpt lat="47.59236" lon="3.77092">
        <ele>133</ele>
        <time>2014-04-17T07:28:21Z</time>
      </trkpt>
      <trkpt lat="47.59231" lon="3.7709">
        <ele>133</ele>
        <time>2014-04-17T07:28:24Z</time>
      </trkpt>
      <trkpt lat="47.59228" lon="3.77085">
        <ele>133</ele>
        <time>2014-04-17T07:28:28Z</time>
      </trkpt>
      <trkpt lat="47.59223" lon="3.7708">
        <ele>135</ele>
        <time>2014-04-17T07:28:34Z</time>
      </trkpt>
      <trkpt lat="47.5922" lon="3.77074">
        <ele>135</ele>
        <time>2014-04-17T07:28:38Z</time>
      </trkpt>
      <trkpt lat="47.59209" lon="3.77058">
        <ele>134</ele>
        <time>2014-04-17T07:28:48Z</time>
      </trkpt>
      <trkpt lat="47.59205" lon="3.77055">
        <ele>134</ele>
        <time>2014-04-17T07:28:51Z</time>
      </trkpt>
      <trkpt lat="47.59202" lon="3.7705">
        <ele>134</ele>
        <time>2014-04-17T07:28:54Z</time>
      </trkpt>
      <trkpt lat="47.59197" lon="3.77036">
        <ele>134</ele>
        <time>2014-04-17T07:29:00Z</time>
      </trkpt>
      <trkpt lat="47.59193" lon="3.77021">
        <ele>133</ele>
        <time>2014-04-17T07:29:07Z</time>
      </trkpt>
      <trkpt lat="47.59195" lon="3.77007">
        <ele>133</ele>
        <time>2014-04-17T07:29:16Z</time>
      </trkpt>
      <trkpt lat="47.59192" lon="3.76999">
        <ele>134</ele>
        <time>2014-04-17T07:29:20Z</time>
      </trkpt>
      <trkpt lat="47.5919" lon="3.76992">
        <ele>134</ele>
        <time>2014-04-17T07:29:24Z</time>
      </trkpt>
      <trkpt lat="47.59189" lon="3.76985">
        <ele>134</ele>
        <time>2014-04-17T07:29:28Z</time>
      </trkpt>
      <trkpt lat="47.59185" lon="3.7697">
        <ele>135</ele>
        <time>2014-04-17T07:29:37Z</time>
      </trkpt>
      <trkpt lat="47.59182" lon="3.76956">
        <ele>135</ele>
        <time>2014-04-17T07:29:44Z</time>
      </trkpt>
      <trkpt lat="47.5918" lon="3.76925">
        <ele>134</ele>
        <time>2014-04-17T07:29:58Z</time>
      </trkpt>
      <trkpt lat="47.5917" lon="3.769">
        <ele>135</ele>
        <time>2014-04-17T07:30:12Z</time>
      </trkpt>
      <trkpt lat="47.5917" lon="3.76892">
        <ele>136</ele>
        <time>2014-04-17T07:30:17Z</time>
      </trkpt>
      <trkpt lat="47.59166" lon="3.76885">
        <ele>129</ele>
        <time>2014-04-17T07:30:21Z</time>
      </trkpt>
      <trkpt lat="47.59166" lon="3.7686">
        <ele>130</ele>
        <time>2014-04-17T07:30:31Z</time>
      </trkpt>
      <trkpt lat="47.59165" lon="3.76853">
        <ele>131</ele>
        <time>2014-04-17T07:30:35Z</time>
      </trkpt>
      <trkpt lat="47.59164" lon="3.76837">
        <ele>133</ele>
        <time>2014-04-17T07:30:45Z</time>
      </trkpt>
      <trkpt lat="47.59162" lon="3.7683">
        <ele>133</ele>
        <time>2014-04-17T07:30:50Z</time>
      </trkpt>
      <trkpt lat="47.59159" lon="3.76824">
        <ele>133</ele>
        <time>2014-04-17T07:30:54Z</time>
      </trkpt>
      <trkpt lat="47.59157" lon="3.76817">
        <ele>132</ele>
        <time>2014-04-17T07:30:57Z</time>
      </trkpt>
      <trkpt lat="47.59156" lon="3.7681">
        <ele>132</ele>
        <time>2014-04-17T07:31:00Z</time>
      </trkpt>
      <trkpt lat="47.59156" lon="3.76794">
        <ele>132</ele>
        <time>2014-04-17T07:31:09Z</time>
      </trkpt>
      <trkpt lat="47.59154" lon="3.7678">
        <ele>132</ele>
        <time>2014-04-17T07:31:16Z</time>
      </trkpt>
      <trkpt lat="47.5915" lon="3.76774">
        <ele>132</ele>
        <time>2014-04-17T07:31:20Z</time>
      </trkpt>
      <trkpt lat="47.59148" lon="3.76768">
        <ele>133</ele>
        <time>2014-04-17T07:31:26Z</time>
      </trkpt>
      <trkpt lat="47.59148" lon="3.76753">
        <ele>133</ele>
        <time>2014-04-17T07:31:33Z</time>
      </trkpt>
      <trkpt lat="47.59149" lon="3.76746">
        <ele>135</ele>
        <time>2014-04-17T07:31:39Z</time>
      </trkpt>
      <trkpt lat="47.59145" lon="3.76742">
        <ele>134</ele>
        <time>2014-04-17T07:31:43Z</time>
      </trkpt>
      <trkpt lat="47.59142" lon="3.76729">
        <ele>134</ele>
        <time>2014-04-17T07:31:50Z</time>
      </trkpt>
      <trkpt lat="47.5914" lon="3.76705">
        <ele>134</ele>
        <time>2014-04-17T07:31:59Z</time>
      </trkpt>
      <trkpt lat="47.59135" lon="3.76692">
        <ele>134</ele>
        <time>2014-04-17T07:32:05Z</time>
      </trkpt>
      <trkpt lat="47.59136" lon="3.76684">
        <ele>134</ele>
        <time>2014-04-17T07:32:10Z</time>
      </trkpt>
      <trkpt lat="47.59139" lon="3.76677">
        <ele>135</ele>
        <time>2014-04-17T07:32:14Z</time>
      </trkpt>
      <trkpt lat="47.59143" lon="3.7667">
        <ele>135</ele>
        <time>2014-04-17T07:32:18Z</time>
      </trkpt>
      <trkpt lat="47.59146" lon="3.76665">
        <ele>137</ele>
        <time>2014-04-17T07:32:23Z</time>
      </trkpt>
      <trkpt lat="47.59152" lon="3.76653">
        <ele>137</ele>
        <time>2014-04-17T07:32:35Z</time>
      </trkpt>
      <trkpt lat="47.59152" lon="3.76645">
        <ele>137</ele>
        <time>2014-04-17T07:32:40Z</time>
      </trkpt>
      <trkpt lat="47.59155" lon="3.76639">
        <ele>137</ele>
        <time>2014-04-17T07:32:46Z</time>
      </trkpt>
      <trkpt lat="47.59153" lon="3.76629">
        <ele>137</ele>
        <time>2014-04-17T07:32:57Z</time>
      </trkpt>
      <trkpt lat="47.59156" lon="3.76626">
        <ele>137</ele>
        <time>2014-04-17T07:33:08Z</time>
      </trkpt>
      <trkpt lat="47.59145" lon="3.76651">
        <ele>136</ele>
        <time>2014-04-17T07:33:45Z</time>
      </trkpt>
      <trkpt lat="47.59146" lon="3.76638">
        <ele>136</ele>
        <time>2014-04-17T07:33:49Z</time>
      </trkpt>
      <trkpt lat="47.59151" lon="3.76631">
        <ele>137</ele>
        <time>2014-04-17T07:34:33Z</time>
      </trkpt>
      <trkpt lat="47.59146" lon="3.76628">
        <ele>137</ele>
        <time>2014-04-17T07:34:36Z</time>
      </trkpt>
      <trkpt lat="47.59143" lon="3.76622">
        <ele>137</ele>
        <time>2014-04-17T07:34:39Z</time>
      </trkpt>
      <trkpt lat="47.5914" lon="3.76618">
        <ele>136</ele>
        <time>2014-04-17T07:34:42Z</time>
      </trkpt>
      <trkpt lat="47.59128" lon="3.76614">
        <ele>136</ele>
        <time>2014-04-17T07:34:48Z</time>
      </trkpt>
      <trkpt lat="47.59124" lon="3.76609">
        <ele>135</ele>
        <time>2014-04-17T07:34:57Z</time>
      </trkpt>
      <trkpt lat="47.5912" lon="3.76587">
        <ele>135</ele>
        <time>2014-04-17T07:35:11Z</time>
      </trkpt>
      <trkpt lat="47.59116" lon="3.76583">
        <ele>137</ele>
        <time>2014-04-17T07:35:15Z</time>
      </trkpt>
      <trkpt lat="47.59113" lon="3.76576">
        <ele>136</ele>
        <time>2014-04-17T07:35:18Z</time>
      </trkpt>
      <trkpt lat="47.5911" lon="3.7656">
        <ele>137</ele>
        <time>2014-04-17T07:35:24Z</time>
      </trkpt>
      <trkpt lat="47.5911" lon="3.76551">
        <ele>137</ele>
        <time>2014-04-17T07:35:27Z</time>
      </trkpt>
      <trkpt lat="47.59108" lon="3.76537">
        <ele>137</ele>
        <time>2014-04-17T07:35:36Z</time>
      </trkpt>
      <trkpt lat="47.59106" lon="3.7653">
        <ele>137</ele>
        <time>2014-04-17T07:35:41Z</time>
      </trkpt>
      <trkpt lat="47.59104" lon="3.76508">
        <ele>136</ele>
        <time>2014-04-17T07:35:50Z</time>
      </trkpt>
      <trkpt lat="47.59105" lon="3.76493">
        <ele>139</ele>
        <time>2014-04-17T07:35:58Z</time>
      </trkpt>
      <trkpt lat="47.59107" lon="3.76487">
        <ele>140</ele>
        <time>2014-04-17T07:36:01Z</time>
      </trkpt>
      <trkpt lat="47.59105" lon="3.76482">
        <ele>140</ele>
        <time>2014-04-17T07:36:12Z</time>
      </trkpt>
      <trkpt lat="47.59102" lon="3.76477">
        <ele>140</ele>
        <time>2014-04-17T07:36:16Z</time>
      </trkpt>
      <trkpt lat="47.591" lon="3.7647">
        <ele>140</ele>
        <time>2014-04-17T07:36:20Z</time>
      </trkpt>
      <trkpt lat="47.591" lon="3.76462">
        <ele>141</ele>
        <time>2014-04-17T07:36:25Z</time>
      </trkpt>
      <trkpt lat="47.59098" lon="3.76455">
        <ele>141</ele>
        <time>2014-04-17T07:36:30Z</time>
      </trkpt>
      <trkpt lat="47.59095" lon="3.76448">
        <ele>140</ele>
        <time>2014-04-17T07:36:34Z</time>
      </trkpt>
      <trkpt lat="47.59093" lon="3.76445">
        <ele>140</ele>
        <time>2014-04-17T07:36:40Z</time>
      </trkpt>
      <trkpt lat="47.5909" lon="3.76439">
        <ele>140</ele>
        <time>2014-04-17T07:36:45Z</time>
      </trkpt>
      <trkpt lat="47.59088" lon="3.7643">
        <ele>139</ele>
        <time>2014-04-17T07:36:49Z</time>
      </trkpt>
      <trkpt lat="47.59086" lon="3.76415">
        <ele>136</ele>
        <time>2014-04-17T07:37:00Z</time>
      </trkpt>
      <trkpt lat="47.59083" lon="3.76409">
        <ele>134</ele>
        <time>2014-04-17T07:37:03Z</time>
      </trkpt>
      <trkpt lat="47.59081" lon="3.76401">
        <ele>134</ele>
        <time>2014-04-17T07:37:06Z</time>
      </trkpt>
      <trkpt lat="47.59079" lon="3.76393">
        <ele>133</ele>
        <time>2014-04-17T07:37:09Z</time>
      </trkpt>
      <trkpt lat="47.59075" lon="3.76385">
        <ele>133</ele>
        <time>2014-04-17T07:37:12Z</time>
      </trkpt>
      <trkpt lat="47.59072" lon="3.7638">
        <ele>133</ele>
        <time>2014-04-17T07:37:17Z</time>
      </trkpt>
      <trkpt lat="47.59068" lon="3.76372">
        <ele>133</ele>
        <time>2014-04-17T07:37:21Z</time>
      </trkpt>
      <trkpt lat="47.59066" lon="3.76365">
        <ele>133</ele>
        <time>2014-04-17T07:37:24Z</time>
      </trkpt>
      <trkpt lat="47.59064" lon="3.76359">
        <ele>133</ele>
        <time>2014-04-17T07:37:29Z</time>
      </trkpt>
      <trkpt lat="47.59068" lon="3.76352">
        <ele>134</ele>
        <time>2014-04-17T07:37:34Z</time>
      </trkpt>
      <trkpt lat="47.59071" lon="3.76347">
        <ele>135</ele>
        <time>2014-04-17T07:37:37Z</time>
      </trkpt>
      <trkpt lat="47.59069" lon="3.76342">
        <ele>135</ele>
        <time>2014-04-17T07:37:57Z</time>
      </trkpt>
      <trkpt lat="47.59066" lon="3.76351">
        <ele>134</ele>
        <time>2014-04-17T07:38:03Z</time>
      </trkpt>
      <trkpt lat="47.59059" lon="3.76345">
        <ele>133</ele>
        <time>2014-04-17T07:38:20Z</time>
      </trkpt>
      <trkpt lat="47.59059" lon="3.76328">
        <ele>135</ele>
        <time>2014-04-17T07:38:26Z</time>
      </trkpt>
      <trkpt lat="47.59057" lon="3.76321">
        <ele>135</ele>
        <time>2014-04-17T07:38:29Z</time>
      </trkpt>
      <trkpt lat="47.59059" lon="3.7632">
        <ele>135</ele>
        <time>2014-04-17T07:38:40Z</time>
      </trkpt>
      <trkpt lat="47.59057" lon="3.76313">
        <ele>135</ele>
        <time>2014-04-17T07:38:45Z</time>
      </trkpt>
      <trkpt lat="47.59057" lon="3.76306">
        <ele>134</ele>
        <time>2014-04-17T07:38:51Z</time>
      </trkpt>
      <trkpt lat="47.59061" lon="3.76303">
        <ele>135</ele>
        <time>2014-04-17T07:38:55Z</time>
      </trkpt>
      <trkpt lat="47.59067" lon="3.763">
        <ele>135</ele>
        <time>2014-04-17T07:38:58Z</time>
      </trkpt>
      <trkpt lat="47.59073" lon="3.763">
        <ele>135</ele>
        <time>2014-04-17T07:39:18Z</time>
      </trkpt>
      <trkpt lat="47.59075" lon="3.76306">
        <ele>135</ele>
        <time>2014-04-17T07:39:28Z</time>
      </trkpt>
      <trkpt lat="47.59073" lon="3.76313">
        <ele>136</ele>
        <time>2014-04-17T07:39:34Z</time>
      </trkpt>
      <trkpt lat="47.59064" lon="3.76316">
        <ele>135</ele>
        <time>2014-04-17T07:39:42Z</time>
      </trkpt>
      <trkpt lat="47.59057" lon="3.76308">
        <ele>134</ele>
        <time>2014-04-17T07:40:06Z</time>
      </trkpt>
      <trkpt lat="47.5906" lon="3.76283">
        <ele>135</ele>
        <time>2014-04-17T07:40:15Z</time>
      </trkpt>
      <trkpt lat="47.59067" lon="3.76284">
        <ele>135</ele>
        <time>2014-04-17T07:40:38Z</time>
      </trkpt>
      <trkpt lat="47.59071" lon="3.76279">
        <ele>136</ele>
        <time>2014-04-17T07:40:44Z</time>
      </trkpt>
      <trkpt lat="47.59068" lon="3.76284">
        <ele>135</ele>
        <time>2014-04-17T07:41:18Z</time>
      </trkpt>
      <trkpt lat="47.59063" lon="3.76284">
        <ele>135</ele>
        <time>2014-04-17T07:41:21Z</time>
      </trkpt>
      <trkpt lat="47.59059" lon="3.7628">
        <ele>135</ele>
        <time>2014-04-17T07:41:26Z</time>
      </trkpt>
      <trkpt lat="47.59052" lon="3.76277">
        <ele>135</ele>
        <time>2014-04-17T07:41:37Z</time>
      </trkpt>
      <trkpt lat="47.59049" lon="3.7627">
        <ele>134</ele>
        <time>2014-04-17T07:41:40Z</time>
      </trkpt>
      <trkpt lat="47.59046" lon="3.7626">
        <ele>134</ele>
        <time>2014-04-17T07:41:45Z</time>
      </trkpt>
      <trkpt lat="47.59042" lon="3.76256">
        <ele>134</ele>
        <time>2014-04-17T07:42:04Z</time>
      </trkpt>
      <trkpt lat="47.59041" lon="3.7625">
        <ele>136</ele>
        <time>2014-04-17T07:42:09Z</time>
      </trkpt>
      <trkpt lat="47.59036" lon="3.76235">
        <ele>135</ele>
        <time>2014-04-17T07:42:18Z</time>
      </trkpt>
      <trkpt lat="47.5903" lon="3.76206">
        <ele>136</ele>
        <time>2014-04-17T07:42:36Z</time>
      </trkpt>
      <trkpt lat="47.59029" lon="3.76203">
        <ele>136</ele>
        <time>2014-04-17T07:42:42Z</time>
      </trkpt>
      <trkpt lat="47.59022" lon="3.76175">
        <ele>135</ele>
        <time>2014-04-17T07:42:56Z</time>
      </trkpt>
      <trkpt lat="47.59022" lon="3.76168">
        <ele>135</ele>
        <time>2014-04-17T07:43:03Z</time>
      </trkpt>
      <trkpt lat="47.59027" lon="3.76167">
        <ele>136</ele>
        <time>2014-04-17T07:43:07Z</time>
      </trkpt>
      <trkpt lat="47.59032" lon="3.76166">
        <ele>140</ele>
        <time>2014-04-17T07:43:10Z</time>
      </trkpt>
      <trkpt lat="47.59035" lon="3.76161">
        <ele>140</ele>
        <time>2014-04-17T07:43:13Z</time>
      </trkpt>
      <trkpt lat="47.59037" lon="3.76162">
        <ele>141</ele>
        <time>2014-04-17T07:43:21Z</time>
      </trkpt>
      <trkpt lat="47.59036" lon="3.76183">
        <ele>137</ele>
        <time>2014-04-17T07:43:28Z</time>
      </trkpt>
      <trkpt lat="47.59032" lon="3.76183">
        <ele>136</ele>
        <time>2014-04-17T07:43:36Z</time>
      </trkpt>
      <trkpt lat="47.59028" lon="3.76182">
        <ele>136</ele>
        <time>2014-04-17T07:43:40Z</time>
      </trkpt>
      <trkpt lat="47.59023" lon="3.76182">
        <ele>135</ele>
        <time>2014-04-17T07:43:44Z</time>
      </trkpt>
      <trkpt lat="47.59018" lon="3.76181">
        <ele>135</ele>
        <time>2014-04-17T07:43:48Z</time>
      </trkpt>
      <trkpt lat="47.59017" lon="3.76173">
        <ele>134</ele>
        <time>2014-04-17T07:43:55Z</time>
      </trkpt>
      <trkpt lat="47.59016" lon="3.76165">
        <ele>136</ele>
        <time>2014-04-17T07:43:59Z</time>
      </trkpt>
      <trkpt lat="47.59016" lon="3.76151">
        <ele>138</ele>
        <time>2014-04-17T07:44:05Z</time>
      </trkpt>
      <trkpt lat="47.59019" lon="3.76145">
        <ele>139</ele>
        <time>2014-04-17T07:44:08Z</time>
      </trkpt>
      <trkpt lat="47.59024" lon="3.76148">
        <ele>139</ele>
        <time>2014-04-17T07:44:15Z</time>
      </trkpt>
      <trkpt lat="47.59022" lon="3.76147">
        <ele>139</ele>
        <time>2014-04-17T07:45:59Z</time>
      </trkpt>
      <trkpt lat="47.59016" lon="3.76146">
        <ele>138</ele>
        <time>2014-04-17T07:46:13Z</time>
      </trkpt>
      <trkpt lat="47.59011" lon="3.76126">
        <ele>139</ele>
        <time>2014-04-17T07:46:22Z</time>
      </trkpt>
      <trkpt lat="47.59009" lon="3.76119">
        <ele>140</ele>
        <time>2014-04-17T07:46:25Z</time>
      </trkpt>
      <trkpt lat="47.59009" lon="3.7611">
        <ele>139</ele>
        <time>2014-04-17T07:46:30Z</time>
      </trkpt>
      <trkpt lat="47.59006" lon="3.76108">
        <ele>139</ele>
        <time>2014-04-17T07:46:47Z</time>
      </trkpt>
      <trkpt lat="47.59001" lon="3.76095">
        <ele>138</ele>
        <time>2014-04-17T07:46:56Z</time>
      </trkpt>
      <trkpt lat="47.59" lon="3.76086">
        <ele>134</ele>
        <time>2014-04-17T07:47:00Z</time>
      </trkpt>
      <trkpt lat="47.59" lon="3.76079">
        <ele>134</ele>
        <time>2014-04-17T07:47:03Z</time>
      </trkpt>
      <trkpt lat="47.58999" lon="3.76072">
        <ele>134</ele>
        <time>2014-04-17T07:47:07Z</time>
      </trkpt>
      <trkpt lat="47.58996" lon="3.76058">
        <ele>133</ele>
        <time>2014-04-17T07:47:16Z</time>
      </trkpt>
      <trkpt lat="47.58992" lon="3.76053">
        <ele>133</ele>
        <time>2014-04-17T07:47:21Z</time>
      </trkpt>
      <trkpt lat="47.58989" lon="3.76047">
        <ele>133</ele>
        <time>2014-04-17T07:47:26Z</time>
      </trkpt>
      <trkpt lat="47.58988" lon="3.76041">
        <ele>133</ele>
        <time>2014-04-17T07:47:30Z</time>
      </trkpt>
      <trkpt lat="47.58982" lon="3.76037">
        <ele>133</ele>
        <time>2014-04-17T07:47:36Z</time>
      </trkpt>
      <trkpt lat="47.58978" lon="3.76036">
        <ele>133</ele>
        <time>2014-04-17T07:47:41Z</time>
      </trkpt>
      <trkpt lat="47.58975" lon="3.76031">
        <ele>133</ele>
        <time>2014-04-17T07:47:47Z</time>
      </trkpt>
      <trkpt lat="47.58971" lon="3.76026">
        <ele>133</ele>
        <time>2014-04-17T07:47:52Z</time>
      </trkpt>
      <trkpt lat="47.58969" lon="3.76018">
        <ele>133</ele>
        <time>2014-04-17T07:47:57Z</time>
      </trkpt>
      <trkpt lat="47.58973" lon="3.76005">
        <ele>133</ele>
        <time>2014-04-17T07:48:03Z</time>
      </trkpt>
      <trkpt lat="47.58968" lon="3.76">
        <ele>136</ele>
        <time>2014-04-17T07:48:08Z</time>
      </trkpt>
      <trkpt lat="47.58962" lon="3.7599">
        <ele>136</ele>
        <time>2014-04-17T07:48:14Z</time>
      </trkpt>
      <trkpt lat="47.58957" lon="3.7597">
        <ele>136</ele>
        <time>2014-04-17T07:48:24Z</time>
      </trkpt>
      <trkpt lat="47.58953" lon="3.75966">
        <ele>136</ele>
        <time>2014-04-17T07:49:01Z</time>
      </trkpt>
      <trkpt lat="47.58952" lon="3.75959">
        <ele>136</ele>
        <time>2014-04-17T07:49:07Z</time>
      </trkpt>
      <trkpt lat="47.58946" lon="3.75947">
        <ele>136</ele>
        <time>2014-04-17T07:49:15Z</time>
      </trkpt>
      <trkpt lat="47.58945" lon="3.7594">
        <ele>137</ele>
        <time>2014-04-17T07:49:19Z</time>
      </trkpt>
      <trkpt lat="47.58947" lon="3.75933">
        <ele>137</ele>
        <time>2014-04-17T07:49:22Z</time>
      </trkpt>
      <trkpt lat="47.58944" lon="3.75923">
        <ele>137</ele>
        <time>2014-04-17T07:49:38Z</time>
      </trkpt>
      <trkpt lat="47.58934" lon="3.75916">
        <ele>141</ele>
        <time>2014-04-17T07:49:44Z</time>
      </trkpt>
      <trkpt lat="47.58931" lon="3.75913">
        <ele>140</ele>
        <time>2014-04-17T07:50:07Z</time>
      </trkpt>
      <trkpt lat="47.58925" lon="3.75914">
        <ele>138</ele>
        <time>2014-04-17T07:50:11Z</time>
      </trkpt>
      <trkpt lat="47.5892" lon="3.75911">
        <ele>136</ele>
        <time>2014-04-17T07:50:14Z</time>
      </trkpt>
      <trkpt lat="47.58915" lon="3.75899">
        <ele>134</ele>
        <time>2014-04-17T07:50:20Z</time>
      </trkpt>
      <trkpt lat="47.58912" lon="3.75895">
        <ele>135</ele>
        <time>2014-04-17T07:50:25Z</time>
      </trkpt>
      <trkpt lat="47.58908" lon="3.75889">
        <ele>135</ele>
        <time>2014-04-17T07:50:30Z</time>
      </trkpt>
      <trkpt lat="47.58905" lon="3.75882">
        <ele>136</ele>
        <time>2014-04-17T07:50:34Z</time>
      </trkpt>
      <trkpt lat="47.58897" lon="3.75873">
        <ele>136</ele>
        <time>2014-04-17T07:50:42Z</time>
      </trkpt>
      <trkpt lat="47.58893" lon="3.75869">
        <ele>137</ele>
        <time>2014-04-17T07:50:46Z</time>
      </trkpt>
      <trkpt lat="47.58889" lon="3.75863">
        <ele>137</ele>
        <time>2014-04-17T07:50:53Z</time>
      </trkpt>
      <trkpt lat="47.58888" lon="3.75854">
        <ele>138</ele>
        <time>2014-04-17T07:50:56Z</time>
      </trkpt>
      <trkpt lat="47.5888" lon="3.75844">
        <ele>137</ele>
        <time>2014-04-17T07:51:04Z</time>
      </trkpt>
      <trkpt lat="47.58874" lon="3.75825">
        <ele>147</ele>
        <time>2014-04-17T07:51:22Z</time>
      </trkpt>
      <trkpt lat="47.58873" lon="3.75819">
        <ele>147</ele>
        <time>2014-04-17T07:51:25Z</time>
      </trkpt>
      <trkpt lat="47.58873" lon="3.75812">
        <ele>148</ele>
        <time>2014-04-17T07:51:29Z</time>
      </trkpt>
      <trkpt lat="47.58868" lon="3.75809">
        <ele>147</ele>
        <time>2014-04-17T07:51:34Z</time>
      </trkpt>
      <trkpt lat="47.58864" lon="3.75807">
        <ele>147</ele>
        <time>2014-04-17T07:51:39Z</time>
      </trkpt>
      <trkpt lat="47.58857" lon="3.75797">
        <ele>148</ele>
        <time>2014-04-17T07:51:47Z</time>
      </trkpt>
      <trkpt lat="47.58856" lon="3.7579">
        <ele>149</ele>
        <time>2014-04-17T07:51:53Z</time>
      </trkpt>
      <trkpt lat="47.5885" lon="3.75792">
        <ele>148</ele>
        <time>2014-04-17T07:51:58Z</time>
      </trkpt>
      <trkpt lat="47.58846" lon="3.75789">
        <ele>148</ele>
        <time>2014-04-17T07:52:02Z</time>
      </trkpt>
      <trkpt lat="47.58842" lon="3.75782">
        <ele>149</ele>
        <time>2014-04-17T07:52:21Z</time>
      </trkpt>
      <trkpt lat="47.58838" lon="3.75777">
        <ele>150</ele>
        <time>2014-04-17T07:52:25Z</time>
      </trkpt>
      <trkpt lat="47.58833" lon="3.75777">
        <ele>142</ele>
        <time>2014-04-17T07:52:29Z</time>
      </trkpt>
      <trkpt lat="47.58828" lon="3.75773">
        <ele>143</ele>
        <time>2014-04-17T07:52:33Z</time>
      </trkpt>
      <trkpt lat="47.58824" lon="3.75771">
        <ele>143</ele>
        <time>2014-04-17T07:52:37Z</time>
      </trkpt>
      <trkpt lat="47.58818" lon="3.75767">
        <ele>143</ele>
        <time>2014-04-17T07:52:42Z</time>
      </trkpt>
      <trkpt lat="47.58816" lon="3.75761">
        <ele>144</ele>
        <time>2014-04-17T07:52:47Z</time>
      </trkpt>
      <trkpt lat="47.58811" lon="3.75759">
        <ele>143</ele>
        <time>2014-04-17T07:52:52Z</time>
      </trkpt>
      <trkpt lat="47.58806" lon="3.75759">
        <ele>142</ele>
        <time>2014-04-17T07:52:58Z</time>
      </trkpt>
      <trkpt lat="47.58797" lon="3.75759">
        <ele>141</ele>
        <time>2014-04-17T07:53:04Z</time>
      </trkpt>
      <trkpt lat="47.58793" lon="3.75754">
        <ele>140</ele>
        <time>2014-04-17T07:53:09Z</time>
      </trkpt>
      <trkpt lat="47.58789" lon="3.75748">
        <ele>153</ele>
        <time>2014-04-17T07:53:14Z</time>
      </trkpt>
      <trkpt lat="47.58785" lon="3.75744">
        <ele>152</ele>
        <time>2014-04-17T07:53:18Z</time>
      </trkpt>
      <trkpt lat="47.58779" lon="3.75746">
        <ele>151</ele>
        <time>2014-04-17T07:53:23Z</time>
      </trkpt>
      <trkpt lat="47.58775" lon="3.75743">
        <ele>150</ele>
        <time>2014-04-17T07:53:27Z</time>
      </trkpt>
      <trkpt lat="47.58771" lon="3.75738">
        <ele>150</ele>
        <time>2014-04-17T07:53:32Z</time>
      </trkpt>
      <trkpt lat="47.58768" lon="3.75732">
        <ele>151</ele>
        <time>2014-04-17T07:53:37Z</time>
      </trkpt>
      <trkpt lat="47.58757" lon="3.75727">
        <ele>150</ele>
        <time>2014-04-17T07:53:45Z</time>
      </trkpt>
      <trkpt lat="47.58747" lon="3.75725">
        <ele>144</ele>
        <time>2014-04-17T07:53:53Z</time>
      </trkpt>
      <trkpt lat="47.58742" lon="3.75724">
        <ele>144</ele>
        <time>2014-04-17T07:53:56Z</time>
      </trkpt>
      <trkpt lat="47.58736" lon="3.75723">
        <ele>144</ele>
        <time>2014-04-17T07:54:01Z</time>
      </trkpt>
      <trkpt lat="47.58731" lon="3.75724">
        <ele>144</ele>
        <time>2014-04-17T07:54:05Z</time>
      </trkpt>
      <trkpt lat="47.58726" lon="3.75722">
        <ele>144</ele>
        <time>2014-04-17T07:54:10Z</time>
      </trkpt>
      <trkpt lat="47.58716" lon="3.75717">
        <ele>144</ele>
        <time>2014-04-17T07:54:19Z</time>
      </trkpt>
      <trkpt lat="47.58713" lon="3.7571">
        <ele>145</ele>
        <time>2014-04-17T07:54:23Z</time>
      </trkpt>
      <trkpt lat="47.58706" lon="3.75701">
        <ele>146</ele>
        <time>2014-04-17T07:54:31Z</time>
      </trkpt>
      <trkpt lat="47.58701" lon="3.75699">
        <ele>146</ele>
        <time>2014-04-17T07:54:36Z</time>
      </trkpt>
      <trkpt lat="47.58692" lon="3.75695">
        <ele>146</ele>
        <time>2014-04-17T07:54:44Z</time>
      </trkpt>
      <trkpt lat="47.58686" lon="3.75695">
        <ele>146</ele>
        <time>2014-04-17T07:54:48Z</time>
      </trkpt>
      <trkpt lat="47.58681" lon="3.75696">
        <ele>145</ele>
        <time>2014-04-17T07:54:51Z</time>
      </trkpt>
      <trkpt lat="47.58675" lon="3.75697">
        <ele>145</ele>
        <time>2014-04-17T07:54:54Z</time>
      </trkpt>
      <trkpt lat="47.58664" lon="3.75696">
        <ele>140</ele>
        <time>2014-04-17T07:55:02Z</time>
      </trkpt>
      <trkpt lat="47.58659" lon="3.75698">
        <ele>140</ele>
        <time>2014-04-17T07:55:05Z</time>
      </trkpt>
      <trkpt lat="47.5865" lon="3.75705">
        <ele>138</ele>
        <time>2014-04-17T07:55:09Z</time>
      </trkpt>
      <trkpt lat="47.58645" lon="3.75705">
        <ele>138</ele>
        <time>2014-04-17T07:55:13Z</time>
      </trkpt>
      <trkpt lat="47.58642" lon="3.75698">
        <ele>139</ele>
        <time>2014-04-17T07:55:18Z</time>
      </trkpt>
      <trkpt lat="47.58639" lon="3.75692">
        <ele>140</ele>
        <time>2014-04-17T07:55:21Z</time>
      </trkpt>
      <trkpt lat="47.58634" lon="3.75689">
        <ele>140</ele>
        <time>2014-04-17T07:55:25Z</time>
      </trkpt>
      <trkpt lat="47.58631" lon="3.75685">
        <ele>140</ele>
        <time>2014-04-17T07:55:28Z</time>
      </trkpt>
      <trkpt lat="47.58628" lon="3.75678">
        <ele>140</ele>
        <time>2014-04-17T07:55:32Z</time>
      </trkpt>
      <trkpt lat="47.58623" lon="3.75678">
        <ele>140</ele>
        <time>2014-04-17T07:55:40Z</time>
      </trkpt>
      <trkpt lat="47.58618" lon="3.75684">
        <ele>140</ele>
        <time>2014-04-17T07:55:44Z</time>
      </trkpt>
      <trkpt lat="47.58612" lon="3.75686">
        <ele>140</ele>
        <time>2014-04-17T07:55:47Z</time>
      </trkpt>
      <trkpt lat="47.58607" lon="3.75687">
        <ele>140</ele>
        <time>2014-04-17T07:55:50Z</time>
      </trkpt>
      <trkpt lat="47.58603" lon="3.75689">
        <ele>139</ele>
        <time>2014-04-17T07:55:54Z</time>
      </trkpt>
      <trkpt lat="47.58598" lon="3.75688">
        <ele>140</ele>
        <time>2014-04-17T07:56:00Z</time>
      </trkpt>
      <trkpt lat="47.58593" lon="3.75686">
        <ele>140</ele>
        <time>2014-04-17T07:56:06Z</time>
      </trkpt>
      <trkpt lat="47.58589" lon="3.75686">
        <ele>140</ele>
        <time>2014-04-17T07:56:16Z</time>
      </trkpt>
      <trkpt lat="47.58585" lon="3.75688">
        <ele>140</ele>
        <time>2014-04-17T07:56:18Z</time>
      </trkpt>
      <trkpt lat="47.58582" lon="3.75694">
        <ele>139</ele>
        <time>2014-04-17T07:56:51Z</time>
      </trkpt>
      <trkpt lat="47.58581" lon="3.75705">
        <ele>137</ele>
        <time>2014-04-17T07:57:14Z</time>
      </trkpt>
      <trkpt lat="47.58577" lon="3.75701">
        <ele>138</ele>
        <time>2014-04-17T07:57:23Z</time>
      </trkpt>
      <trkpt lat="47.58568" lon="3.75698">
        <ele>138</ele>
        <time>2014-04-17T07:57:34Z</time>
      </trkpt>
      <trkpt lat="47.58559" lon="3.75693">
        <ele>139</ele>
        <time>2014-04-17T07:57:42Z</time>
      </trkpt>
      <trkpt lat="47.58555" lon="3.75692">
        <ele>139</ele>
        <time>2014-04-17T07:57:48Z</time>
      </trkpt>
      <trkpt lat="47.5855" lon="3.75691">
        <ele>139</ele>
        <time>2014-04-17T07:57:57Z</time>
      </trkpt>
      <trkpt lat="47.58544" lon="3.75695">
        <ele>139</ele>
        <time>2014-04-17T07:58:01Z</time>
      </trkpt>
      <trkpt lat="47.5854" lon="3.75699">
        <ele>139</ele>
        <time>2014-04-17T07:58:04Z</time>
      </trkpt>
      <trkpt lat="47.58531" lon="3.75696">
        <ele>140</ele>
        <time>2014-04-17T07:58:12Z</time>
      </trkpt>
      <trkpt lat="47.58521" lon="3.75695">
        <ele>140</ele>
        <time>2014-04-17T07:58:23Z</time>
      </trkpt>
      <trkpt lat="47.58503" lon="3.75703">
        <ele>140</ele>
        <time>2014-04-17T07:58:37Z</time>
      </trkpt>
      <trkpt lat="47.58494" lon="3.75705">
        <ele>145</ele>
        <time>2014-04-17T07:58:46Z</time>
      </trkpt>
      <trkpt lat="47.58477" lon="3.7572">
        <ele>144</ele>
        <time>2014-04-17T07:58:57Z</time>
      </trkpt>
      <trkpt lat="47.58468" lon="3.75721">
        <ele>144</ele>
        <time>2014-04-17T07:59:06Z</time>
      </trkpt>
      <trkpt lat="47.58457" lon="3.75725">
        <ele>145</ele>
        <time>2014-04-17T07:59:12Z</time>
      </trkpt>
      <trkpt lat="47.58449" lon="3.7573">
        <ele>145</ele>
        <time>2014-04-17T07:59:22Z</time>
      </trkpt>
      <trkpt lat="47.58442" lon="3.7574">
        <ele>144</ele>
        <time>2014-04-17T07:59:28Z</time>
      </trkpt>
      <trkpt lat="47.58434" lon="3.75748">
        <ele>143</ele>
        <time>2014-04-17T07:59:34Z</time>
      </trkpt>
      <trkpt lat="47.58415" lon="3.7576">
        <ele>143</ele>
        <time>2014-04-17T07:59:44Z</time>
      </trkpt>
      <trkpt lat="47.58407" lon="3.75768">
        <ele>144</ele>
        <time>2014-04-17T07:59:52Z</time>
      </trkpt>
      <trkpt lat="47.58403" lon="3.75772">
        <ele>144</ele>
        <time>2014-04-17T08:00:04Z</time>
      </trkpt>
      <trkpt lat="47.58393" lon="3.75777">
        <ele>145</ele>
        <time>2014-04-17T08:00:23Z</time>
      </trkpt>
      <trkpt lat="47.58385" lon="3.75786">
        <ele>145</ele>
        <time>2014-04-17T08:00:37Z</time>
      </trkpt>
      <trkpt lat="47.58375" lon="3.75788">
        <ele>146</ele>
        <time>2014-04-17T08:00:45Z</time>
      </trkpt>
      <trkpt lat="47.58365" lon="3.75791">
        <ele>147</ele>
        <time>2014-04-17T08:00:53Z</time>
      </trkpt>
      <trkpt lat="47.58353" lon="3.75814">
        <ele>145</ele>
        <time>2014-04-17T08:01:07Z</time>
      </trkpt>
      <trkpt lat="47.58345" lon="3.75825">
        <ele>143</ele>
        <time>2014-04-17T08:01:15Z</time>
      </trkpt>
      <trkpt lat="47.58331" lon="3.75834">
        <ele>142</ele>
        <time>2014-04-17T08:01:46Z</time>
      </trkpt>
      <trkpt lat="47.58323" lon="3.75837">
        <ele>146</ele>
        <time>2014-04-17T08:01:54Z</time>
      </trkpt>
      <trkpt lat="47.58315" lon="3.75846">
        <ele>148</ele>
        <time>2014-04-17T08:01:59Z</time>
      </trkpt>
      <trkpt lat="47.58309" lon="3.75858">
        <ele>150</ele>
        <time>2014-04-17T08:02:06Z</time>
      </trkpt>
      <trkpt lat="47.58301" lon="3.75866">
        <ele>151</ele>
        <time>2014-04-17T08:02:12Z</time>
      </trkpt>
      <trkpt lat="47.58296" lon="3.75878">
        <ele>151</ele>
        <time>2014-04-17T08:02:19Z</time>
      </trkpt>
      <trkpt lat="47.58289" lon="3.75888">
        <ele>151</ele>
        <time>2014-04-17T08:02:26Z</time>
      </trkpt>
      <trkpt lat="47.58285" lon="3.75901">
        <ele>151</ele>
        <time>2014-04-17T08:02:41Z</time>
      </trkpt>
      <trkpt lat="47.58279" lon="3.75914">
        <ele>152</ele>
        <time>2014-04-17T08:02:48Z</time>
      </trkpt>
      <trkpt lat="47.5827" lon="3.7593">
        <ele>144</ele>
        <time>2014-04-17T08:03:03Z</time>
      </trkpt>
      <trkpt lat="47.58263" lon="3.75939">
        <ele>144</ele>
        <time>2014-04-17T08:03:10Z</time>
      </trkpt>
      <trkpt lat="47.5825" lon="3.75961">
        <ele>141</ele>
        <time>2014-04-17T08:03:19Z</time>
      </trkpt>
      <trkpt lat="47.58231" lon="3.76024">
        <ele>152</ele>
        <time>2014-04-17T08:04:35Z</time>
      </trkpt>
      <trkpt lat="47.58231" lon="3.76038">
        <ele>152</ele>
        <time>2014-04-17T08:04:40Z</time>
      </trkpt>
      <trkpt lat="47.58238" lon="3.76042">
        <ele>151</ele>
        <time>2014-04-17T08:04:48Z</time>
      </trkpt>
      <trkpt lat="47.5824" lon="3.76049">
        <ele>150</ele>
        <time>2014-04-17T08:04:56Z</time>
      </trkpt>
      <trkpt lat="47.58243" lon="3.76063">
        <ele>145</ele>
        <time>2014-04-17T08:05:08Z</time>
      </trkpt>
      <trkpt lat="47.5824" lon="3.76073">
        <ele>143</ele>
        <time>2014-04-17T08:05:12Z</time>
      </trkpt>
      <trkpt lat="47.58241" lon="3.76076">
        <ele>140</ele>
        <time>2014-04-17T08:05:18Z</time>
      </trkpt>
      <trkpt lat="47.58238" lon="3.76083">
        <ele>141</ele>
        <time>2014-04-17T08:05:23Z</time>
      </trkpt>
      <trkpt lat="47.58234" lon="3.76087">
        <ele>142</ele>
        <time>2014-04-17T08:05:26Z</time>
      </trkpt>
      <trkpt lat="47.58232" lon="3.76123">
        <ele>147</ele>
        <time>2014-04-17T08:05:51Z</time>
      </trkpt>
      <trkpt lat="47.58237" lon="3.76135">
        <ele>146</ele>
        <time>2014-04-17T08:05:57Z</time>
      </trkpt>
      <trkpt lat="47.58239" lon="3.76148">
        <ele>143</ele>
        <time>2014-04-17T08:06:03Z</time>
      </trkpt>
      <trkpt lat="47.58238" lon="3.76155">
        <ele>141</ele>
        <time>2014-04-17T08:06:06Z</time>
      </trkpt>
      <trkpt lat="47.58235" lon="3.76161">
        <ele>141</ele>
        <time>2014-04-17T08:06:10Z</time>
      </trkpt>
      <trkpt lat="47.58232" lon="3.76176">
        <ele>142</ele>
        <time>2014-04-17T08:06:19Z</time>
      </trkpt>
      <trkpt lat="47.58236" lon="3.76198">
        <ele>144</ele>
        <time>2014-04-17T08:06:31Z</time>
      </trkpt>
      <trkpt lat="47.58233" lon="3.76211">
        <ele>145</ele>
        <time>2014-04-17T08:06:41Z</time>
      </trkpt>
      <trkpt lat="47.58228" lon="3.76225">
        <ele>145</ele>
        <time>2014-04-17T08:06:54Z</time>
      </trkpt>
      <trkpt lat="47.5823" lon="3.76231">
        <ele>144</ele>
        <time>2014-04-17T08:06:58Z</time>
      </trkpt>
      <trkpt lat="47.58233" lon="3.76238">
        <ele>142</ele>
        <time>2014-04-17T08:07:02Z</time>
      </trkpt>
      <trkpt lat="47.58237" lon="3.76243">
        <ele>140</ele>
        <time>2014-04-17T08:07:05Z</time>
      </trkpt>
      <trkpt lat="47.58239" lon="3.76258">
        <ele>139</ele>
        <time>2014-04-17T08:07:11Z</time>
      </trkpt>
      <trkpt lat="47.58243" lon="3.76263">
        <ele>139</ele>
        <time>2014-04-17T08:07:15Z</time>
      </trkpt>
      <trkpt lat="47.58249" lon="3.76265">
        <ele>139</ele>
        <time>2014-04-17T08:07:18Z</time>
      </trkpt>
      <trkpt lat="47.58254" lon="3.76266">
        <ele>130</ele>
        <time>2014-04-17T08:07:22Z</time>
      </trkpt>
      <trkpt lat="47.58258" lon="3.7627">
        <ele>129</ele>
        <time>2014-04-17T08:07:26Z</time>
      </trkpt>
      <trkpt lat="47.58262" lon="3.76274">
        <ele>129</ele>
        <time>2014-04-17T08:07:30Z</time>
      </trkpt>
      <trkpt lat="47.58261" lon="3.76281">
        <ele>129</ele>
        <time>2014-04-17T08:07:35Z</time>
      </trkpt>
      <trkpt lat="47.58263" lon="3.76288">
        <ele>128</ele>
        <time>2014-04-17T08:07:40Z</time>
      </trkpt>
      <trkpt lat="47.58267" lon="3.76293">
        <ele>128</ele>
        <time>2014-04-17T08:07:44Z</time>
      </trkpt>
      <trkpt lat="47.5827" lon="3.763">
        <ele>128</ele>
        <time>2014-04-17T08:07:48Z</time>
      </trkpt>
      <trkpt lat="47.5828" lon="3.76326">
        <ele>128</ele>
        <time>2014-04-17T08:08:07Z</time>
      </trkpt>
      <trkpt lat="47.58285" lon="3.7633">
        <ele>127</ele>
        <time>2014-04-17T08:08:16Z</time>
      </trkpt>
      <trkpt lat="47.58295" lon="3.76332">
        <ele>127</ele>
        <time>2014-04-17T08:08:22Z</time>
      </trkpt>
      <trkpt lat="47.583" lon="3.76335">
        <ele>127</ele>
        <time>2014-04-17T08:08:25Z</time>
      </trkpt>
      <trkpt lat="47.58309" lon="3.76343">
        <ele>126</ele>
        <time>2014-04-17T08:08:34Z</time>
      </trkpt>
      <trkpt lat="47.58312" lon="3.76349">
        <ele>126</ele>
        <time>2014-04-17T08:08:38Z</time>
      </trkpt>
      <trkpt lat="47.5831" lon="3.76359">
        <ele>126</ele>
        <time>2014-04-17T08:08:47Z</time>
      </trkpt>
      <trkpt lat="47.58309" lon="3.76366">
        <ele>126</ele>
        <time>2014-04-17T08:08:58Z</time>
      </trkpt>
      <trkpt lat="47.58314" lon="3.7638">
        <ele>126</ele>
        <time>2014-04-17T08:09:07Z</time>
      </trkpt>
      <trkpt lat="47.5832" lon="3.76392">
        <ele>126</ele>
        <time>2014-04-17T08:09:16Z</time>
      </trkpt>
      <trkpt lat="47.58315" lon="3.76406">
        <ele>125</ele>
        <time>2014-04-17T08:09:22Z</time>
      </trkpt>
      <trkpt lat="47.58334" lon="3.76413">
        <ele>122</ele>
        <time>2014-04-17T08:09:32Z</time>
      </trkpt>
      <trkpt lat="47.58343" lon="3.76414">
        <ele>123</ele>
        <time>2014-04-17T08:09:37Z</time>
      </trkpt>
      <trkpt lat="47.58345" lon="3.76427">
        <ele>124</ele>
        <time>2014-04-17T08:09:50Z</time>
      </trkpt>
      <trkpt lat="47.58356" lon="3.76448">
        <ele>125</ele>
        <time>2014-04-17T08:10:07Z</time>
      </trkpt>
      <trkpt lat="47.5837" lon="3.76467">
        <ele>125</ele>
        <time>2014-04-17T08:10:20Z</time>
      </trkpt>
      <trkpt lat="47.58386" lon="3.76503">
        <ele>126</ele>
        <time>2014-04-17T08:10:37Z</time>
      </trkpt>
      <trkpt lat="47.58389" lon="3.76518">
        <ele>126</ele>
        <time>2014-04-17T08:10:47Z</time>
      </trkpt>
      <trkpt lat="47.58396" lon="3.76528">
        <ele>126</ele>
        <time>2014-04-17T08:10:53Z</time>
      </trkpt>
      <trkpt lat="47.58397" lon="3.76539">
        <ele>126</ele>
        <time>2014-04-17T08:11:03Z</time>
      </trkpt>
      <trkpt lat="47.58394" lon="3.76543">
        <ele>126</ele>
        <time>2014-04-17T08:11:11Z</time>
      </trkpt>
      <trkpt lat="47.58396" lon="3.7655">
        <ele>126</ele>
        <time>2014-04-17T08:11:16Z</time>
      </trkpt>
      <trkpt lat="47.584" lon="3.76555">
        <ele>126</ele>
        <time>2014-04-17T08:11:19Z</time>
      </trkpt>
      <trkpt lat="47.58403" lon="3.76561">
        <ele>126</ele>
        <time>2014-04-17T08:11:22Z</time>
      </trkpt>
      <trkpt lat="47.58407" lon="3.76566">
        <ele>126</ele>
        <time>2014-04-17T08:11:26Z</time>
      </trkpt>
      <trkpt lat="47.58411" lon="3.76572">
        <ele>126</ele>
        <time>2014-04-17T08:11:31Z</time>
      </trkpt>
      <trkpt lat="47.58412" lon="3.76587">
        <ele>125</ele>
        <time>2014-04-17T08:11:38Z</time>
      </trkpt>
      <trkpt lat="47.58415" lon="3.76593">
        <ele>126</ele>
        <time>2014-04-17T08:11:44Z</time>
      </trkpt>
      <trkpt lat="47.58417" lon="3.76601">
        <ele>128</ele>
        <time>2014-04-17T08:11:50Z</time>
      </trkpt>
      <trkpt lat="47.5842" lon="3.76608">
        <ele>129</ele>
        <time>2014-04-17T08:11:54Z</time>
      </trkpt>
      <trkpt lat="47.58424" lon="3.76614">
        <ele>129</ele>
        <time>2014-04-17T08:11:57Z</time>
      </trkpt>
      <trkpt lat="47.58424" lon="3.76621">
        <ele>129</ele>
        <time>2014-04-17T08:12:03Z</time>
      </trkpt>
      <trkpt lat="47.58428" lon="3.76625">
        <ele>129</ele>
        <time>2014-04-17T08:12:07Z</time>
      </trkpt>
      <trkpt lat="47.58431" lon="3.76639">
        <ele>129</ele>
        <time>2014-04-17T08:12:16Z</time>
      </trkpt>
      <trkpt lat="47.58439" lon="3.76648">
        <ele>129</ele>
        <time>2014-04-17T08:12:24Z</time>
      </trkpt>
      <trkpt lat="47.58444" lon="3.76651">
        <ele>129</ele>
        <time>2014-04-17T08:12:27Z</time>
      </trkpt>
      <trkpt lat="47.5845" lon="3.76662">
        <ele>130</ele>
        <time>2014-04-17T08:12:37Z</time>
      </trkpt>
      <trkpt lat="47.58454" lon="3.76667">
        <ele>128</ele>
        <time>2014-04-17T08:12:41Z</time>
      </trkpt>
      <trkpt lat="47.58457" lon="3.76673">
        <ele>128</ele>
        <time>2014-04-17T08:12:45Z</time>
      </trkpt>
      <trkpt lat="47.5846" lon="3.76677">
        <ele>128</ele>
        <time>2014-04-17T08:12:52Z</time>
      </trkpt>
      <trkpt lat="47.5846" lon="3.76686">
        <ele>128</ele>
        <time>2014-04-17T08:12:56Z</time>
      </trkpt>
      <trkpt lat="47.58461" lon="3.76693">
        <ele>128</ele>
        <time>2014-04-17T08:12:59Z</time>
      </trkpt>
      <trkpt lat="47.58464" lon="3.767">
        <ele>128</ele>
        <time>2014-04-17T08:13:03Z</time>
      </trkpt>
      <trkpt lat="47.58469" lon="3.76703">
        <ele>128</ele>
        <time>2014-04-17T08:13:06Z</time>
      </trkpt>
      <trkpt lat="47.58482" lon="3.76718">
        <ele>128</ele>
        <time>2014-04-17T08:13:19Z</time>
      </trkpt>
      <trkpt lat="47.58486" lon="3.76731">
        <ele>127</ele>
        <time>2014-04-17T08:13:25Z</time>
      </trkpt>
      <trkpt lat="47.58498" lon="3.76749">
        <ele>127</ele>
        <time>2014-04-17T08:13:36Z</time>
      </trkpt>
      <trkpt lat="47.58507" lon="3.76758">
        <ele>131</ele>
        <time>2014-04-17T08:13:45Z</time>
      </trkpt>
      <trkpt lat="47.58508" lon="3.76765">
        <ele>132</ele>
        <time>2014-04-17T08:13:49Z</time>
      </trkpt>
      <trkpt lat="47.58513" lon="3.76778">
        <ele>134</ele>
        <time>2014-04-17T08:13:57Z</time>
      </trkpt>
      <trkpt lat="47.58515" lon="3.76792">
        <ele>134</ele>
        <time>2014-04-17T08:14:06Z</time>
      </trkpt>
      <trkpt lat="47.58518" lon="3.76799">
        <ele>134</ele>
        <time>2014-04-17T08:14:10Z</time>
      </trkpt>
      <trkpt lat="47.58523" lon="3.76806">
        <ele>134</ele>
        <time>2014-04-17T08:14:14Z</time>
      </trkpt>
      <trkpt lat="47.58523" lon="3.76814">
        <ele>133</ele>
        <time>2014-04-17T08:14:20Z</time>
      </trkpt>
      <trkpt lat="47.58527" lon="3.76828">
        <ele>133</ele>
        <time>2014-04-17T08:14:28Z</time>
      </trkpt>
      <trkpt lat="47.58533" lon="3.76839">
        <ele>129</ele>
        <time>2014-04-17T08:14:35Z</time>
      </trkpt>
      <trkpt lat="47.58536" lon="3.76845">
        <ele>129</ele>
        <time>2014-04-17T08:14:40Z</time>
      </trkpt>
      <trkpt lat="47.58539" lon="3.76851">
        <ele>130</ele>
        <time>2014-04-17T08:14:44Z</time>
      </trkpt>
      <trkpt lat="47.58541" lon="3.76858">
        <ele>130</ele>
        <time>2014-04-17T08:14:48Z</time>
      </trkpt>
      <trkpt lat="47.58536" lon="3.7686">
        <ele>129</ele>
        <time>2014-04-17T08:14:54Z</time>
      </trkpt>
      <trkpt lat="47.58532" lon="3.76859">
        <ele>129</ele>
        <time>2014-04-17T08:15:03Z</time>
      </trkpt>
      <trkpt lat="47.5853" lon="3.76866">
        <ele>129</ele>
        <time>2014-04-17T08:15:10Z</time>
      </trkpt>
      <trkpt lat="47.58533" lon="3.76873">
        <ele>129</ele>
        <time>2014-04-17T08:15:15Z</time>
      </trkpt>
      <trkpt lat="47.58534" lon="3.76882">
        <ele>128</ele>
        <time>2014-04-17T08:15:19Z</time>
      </trkpt>
      <trkpt lat="47.58535" lon="3.76888">
        <ele>128</ele>
        <time>2014-04-17T08:15:22Z</time>
      </trkpt>
      <trkpt lat="47.58538" lon="3.76894">
        <ele>128</ele>
        <time>2014-04-17T08:15:26Z</time>
      </trkpt>
      <trkpt lat="47.58544" lon="3.76908">
        <ele>128</ele>
        <time>2014-04-17T08:15:35Z</time>
      </trkpt>
      <trkpt lat="47.58546" lon="3.76915">
        <ele>128</ele>
        <time>2014-04-17T08:15:39Z</time>
      </trkpt>
      <trkpt lat="47.58549" lon="3.76921">
        <ele>126</ele>
        <time>2014-04-17T08:15:43Z</time>
      </trkpt>
      <trkpt lat="47.58553" lon="3.76932">
        <ele>126</ele>
        <time>2014-04-17T08:16:00Z</time>
      </trkpt>
      <trkpt lat="47.58563" lon="3.76978">
        <ele>126</ele>
        <time>2014-04-17T08:16:32Z</time>
      </trkpt>
      <trkpt lat="47.58564" lon="3.76986">
        <ele>126</ele>
        <time>2014-04-17T08:16:43Z</time>
      </trkpt>
      <trkpt lat="47.58573" lon="3.77004">
        <ele>127</ele>
        <time>2014-04-17T08:16:54Z</time>
      </trkpt>
      <trkpt lat="47.58574" lon="3.77011">
        <ele>127</ele>
        <time>2014-04-17T08:16:58Z</time>
      </trkpt>
      <trkpt lat="47.58579" lon="3.77017">
        <ele>127</ele>
        <time>2014-04-17T08:17:01Z</time>
      </trkpt>
      <trkpt lat="47.58584" lon="3.77018">
        <ele>133</ele>
        <time>2014-04-17T08:17:04Z</time>
      </trkpt>
      <trkpt lat="47.58589" lon="3.77015">
        <ele>133</ele>
        <time>2014-04-17T08:17:06Z</time>
      </trkpt>
      <trkpt lat="47.58591" lon="3.77029">
        <ele>135</ele>
        <time>2014-04-17T08:17:16Z</time>
      </trkpt>
      <trkpt lat="47.58592" lon="3.77046">
        <ele>135</ele>
        <time>2014-04-17T08:17:24Z</time>
      </trkpt>
      <trkpt lat="47.58595" lon="3.77051">
        <ele>135</ele>
        <time>2014-04-17T08:17:28Z</time>
      </trkpt>
      <trkpt lat="47.58597" lon="3.77058">
        <ele>135</ele>
        <time>2014-04-17T08:17:33Z</time>
      </trkpt>
      <trkpt lat="47.58598" lon="3.77066">
        <ele>134</ele>
        <time>2014-04-17T08:17:38Z</time>
      </trkpt>
      <trkpt lat="47.58602" lon="3.77063">
        <ele>135</ele>
        <time>2014-04-17T08:17:44Z</time>
      </trkpt>
      <trkpt lat="47.58601" lon="3.77071">
        <ele>134</ele>
        <time>2014-04-17T08:17:52Z</time>
      </trkpt>
      <trkpt lat="47.58603" lon="3.77079">
        <ele>134</ele>
        <time>2014-04-17T08:17:56Z</time>
      </trkpt>
      <trkpt lat="47.58609" lon="3.77102">
        <ele>136</ele>
        <time>2014-04-17T08:18:08Z</time>
      </trkpt>
      <trkpt lat="47.58607" lon="3.77098">
        <ele>135</ele>
        <time>2014-04-17T08:18:21Z</time>
      </trkpt>
      <trkpt lat="47.58606" lon="3.77103">
        <ele>135</ele>
        <time>2014-04-17T08:18:54Z</time>
      </trkpt>
      <trkpt lat="47.58612" lon="3.77123">
        <ele>137</ele>
        <time>2014-04-17T08:19:05Z</time>
      </trkpt>
      <trkpt lat="47.5861" lon="3.77131">
        <ele>137</ele>
        <time>2014-04-17T08:19:09Z</time>
      </trkpt>
      <trkpt lat="47.58606" lon="3.77146">
        <ele>136</ele>
        <time>2014-04-17T08:19:14Z</time>
      </trkpt>
      <trkpt lat="47.58603" lon="3.77152">
        <ele>135</ele>
        <time>2014-04-17T08:19:17Z</time>
      </trkpt>
      <trkpt lat="47.58601" lon="3.77154">
        <ele>135</ele>
        <time>2014-04-17T08:19:25Z</time>
      </trkpt>
      <trkpt lat="47.58597" lon="3.77168">
        <ele>134</ele>
        <time>2014-04-17T08:19:36Z</time>
      </trkpt>
      <trkpt lat="47.58594" lon="3.77173">
        <ele>133</ele>
        <time>2014-04-17T08:19:40Z</time>
      </trkpt>
      <trkpt lat="47.58592" lon="3.7718">
        <ele>134</ele>
        <time>2014-04-17T08:19:44Z</time>
      </trkpt>
      <trkpt lat="47.58591" lon="3.77188">
        <ele>135</ele>
        <time>2014-04-17T08:19:48Z</time>
      </trkpt>
      <trkpt lat="47.58593" lon="3.77204">
        <ele>136</ele>
        <time>2014-04-17T08:19:57Z</time>
      </trkpt>
      <trkpt lat="47.58592" lon="3.77218">
        <ele>136</ele>
        <time>2014-04-17T08:20:05Z</time>
      </trkpt>
      <trkpt lat="47.58588" lon="3.77231">
        <ele>134</ele>
        <time>2014-04-17T08:20:12Z</time>
      </trkpt>
      <trkpt lat="47.58586" lon="3.77239">
        <ele>132</ele>
        <time>2014-04-17T08:20:15Z</time>
      </trkpt>
      <trkpt lat="47.58583" lon="3.77244">
        <ele>128</ele>
        <time>2014-04-17T08:20:22Z</time>
      </trkpt>
      <trkpt lat="47.58579" lon="3.7725">
        <ele>128</ele>
        <time>2014-04-17T08:20:28Z</time>
      </trkpt>
      <trkpt lat="47.58575" lon="3.77256">
        <ele>128</ele>
        <time>2014-04-17T08:20:32Z</time>
      </trkpt>
      <trkpt lat="47.58569" lon="3.77269">
        <ele>127</ele>
        <time>2014-04-17T08:20:41Z</time>
      </trkpt>
      <trkpt lat="47.58565" lon="3.77276">
        <ele>127</ele>
        <time>2014-04-17T08:20:45Z</time>
      </trkpt>
      <trkpt lat="47.58563" lon="3.77285">
        <ele>127</ele>
        <time>2014-04-17T08:20:49Z</time>
      </trkpt>
      <trkpt lat="47.58554" lon="3.77303">
        <ele>127</ele>
        <time>2014-04-17T08:21:00Z</time>
      </trkpt>
      <trkpt lat="47.5855" lon="3.77309">
        <ele>127</ele>
        <time>2014-04-17T08:21:04Z</time>
      </trkpt>
      <trkpt lat="47.58537" lon="3.77342">
        <ele>127</ele>
        <time>2014-04-17T08:21:23Z</time>
      </trkpt>
      <trkpt lat="47.58527" lon="3.77359">
        <ele>127</ele>
        <time>2014-04-17T08:21:38Z</time>
      </trkpt>
      <trkpt lat="47.58514" lon="3.7737">
        <ele>127</ele>
        <time>2014-04-17T08:21:52Z</time>
      </trkpt>
      <trkpt lat="47.58511" lon="3.77375">
        <ele>127</ele>
        <time>2014-04-17T08:21:56Z</time>
      </trkpt>
      <trkpt lat="47.58502" lon="3.77383">
        <ele>127</ele>
        <time>2014-04-17T08:22:07Z</time>
      </trkpt>
      <trkpt lat="47.58499" lon="3.77388">
        <ele>127</ele>
        <time>2014-04-17T08:22:10Z</time>
      </trkpt>
      <trkpt lat="47.58477" lon="3.77417">
        <ele>127</ele>
        <time>2014-04-17T08:22:23Z</time>
      </trkpt>
      <trkpt lat="47.58468" lon="3.77433">
        <ele>127</ele>
        <time>2014-04-17T08:22:35Z</time>
      </trkpt>
      <trkpt lat="47.5846" lon="3.77442">
        <ele>128</ele>
        <time>2014-04-17T08:22:44Z</time>
      </trkpt>
      <trkpt lat="47.58449" lon="3.77458">
        <ele>128</ele>
        <time>2014-04-17T08:23:00Z</time>
      </trkpt>
      <trkpt lat="47.58445" lon="3.77461">
        <ele>128</ele>
        <time>2014-04-17T08:23:06Z</time>
      </trkpt>
      <trkpt lat="47.58429" lon="3.77478">
        <ele>129</ele>
        <time>2014-04-17T08:23:18Z</time>
      </trkpt>
      <trkpt lat="47.58422" lon="3.77489">
        <ele>130</ele>
        <time>2014-04-17T08:23:28Z</time>
      </trkpt>
      <trkpt lat="47.58418" lon="3.77493">
        <ele>130</ele>
        <time>2014-04-17T08:23:32Z</time>
      </trkpt>
      <trkpt lat="47.58413" lon="3.77495">
        <ele>131</ele>
        <time>2014-04-17T08:23:37Z</time>
      </trkpt>
      <trkpt lat="47.58409" lon="3.775">
        <ele>132</ele>
        <time>2014-04-17T08:23:42Z</time>
      </trkpt>
      <trkpt lat="47.58397" lon="3.77515">
        <ele>131</ele>
        <time>2014-04-17T08:23:58Z</time>
      </trkpt>
      <trkpt lat="47.58387" lon="3.77521">
        <ele>131</ele>
        <time>2014-04-17T08:24:05Z</time>
      </trkpt>
      <trkpt lat="47.58379" lon="3.77529">
        <ele>131</ele>
        <time>2014-04-17T08:24:10Z</time>
      </trkpt>
      <trkpt lat="47.5837" lon="3.77534">
        <ele>131</ele>
        <time>2014-04-17T08:24:16Z</time>
      </trkpt>
      <trkpt lat="47.5835" lon="3.77535">
        <ele>132</ele>
        <time>2014-04-17T08:24:32Z</time>
      </trkpt>
      <trkpt lat="47.58345" lon="3.77536">
        <ele>132</ele>
        <time>2014-04-17T08:24:36Z</time>
      </trkpt>
      <trkpt lat="47.58339" lon="3.77542">
        <ele>132</ele>
        <time>2014-04-17T08:24:39Z</time>
      </trkpt>
      <trkpt lat="47.58333" lon="3.77546">
        <ele>133</ele>
        <time>2014-04-17T08:24:43Z</time>
      </trkpt>
      <trkpt lat="47.58328" lon="3.77545">
        <ele>133</ele>
        <time>2014-04-17T08:24:49Z</time>
      </trkpt>
      <trkpt lat="47.58323" lon="3.77546">
        <ele>133</ele>
        <time>2014-04-17T08:24:54Z</time>
      </trkpt>
      <trkpt lat="47.58315" lon="3.77545">
        <ele>133</ele>
        <time>2014-04-17T08:25:01Z</time>
      </trkpt>
      <trkpt lat="47.58311" lon="3.77543">
        <ele>134</ele>
        <time>2014-04-17T08:25:05Z</time>
      </trkpt>
      <trkpt lat="47.58305" lon="3.77542">
        <ele>134</ele>
        <time>2014-04-17T08:25:09Z</time>
      </trkpt>
      <trkpt lat="47.58299" lon="3.77545">
        <ele>134</ele>
        <time>2014-04-17T08:25:12Z</time>
      </trkpt>
      <trkpt lat="47.58295" lon="3.77545">
        <ele>134</ele>
        <time>2014-04-17T08:25:15Z</time>
      </trkpt>
      <trkpt lat="47.58286" lon="3.77541">
        <ele>134</ele>
        <time>2014-04-17T08:25:24Z</time>
      </trkpt>
      <trkpt lat="47.58268" lon="3.77548">
        <ele>134</ele>
        <time>2014-04-17T08:25:36Z</time>
      </trkpt>
      <trkpt lat="47.58259" lon="3.77547">
        <ele>134</ele>
        <time>2014-04-17T08:25:49Z</time>
      </trkpt>
      <trkpt lat="47.58253" lon="3.77554">
        <ele>134</ele>
        <time>2014-04-17T08:25:53Z</time>
      </trkpt>
      <trkpt lat="47.58244" lon="3.77562">
        <ele>135</ele>
        <time>2014-04-17T08:25:59Z</time>
      </trkpt>
      <trkpt lat="47.58239" lon="3.77565">
        <ele>135</ele>
        <time>2014-04-17T08:26:08Z</time>
      </trkpt>
      <trkpt lat="47.58232" lon="3.77564">
        <ele>135</ele>
        <time>2014-04-17T08:26:19Z</time>
      </trkpt>
      <trkpt lat="47.58223" lon="3.77574">
        <ele>135</ele>
        <time>2014-04-17T08:26:25Z</time>
      </trkpt>
      <trkpt lat="47.58213" lon="3.77588">
        <ele>130</ele>
        <time>2014-04-17T08:26:32Z</time>
      </trkpt>
      <trkpt lat="47.58202" lon="3.77595">
        <ele>130</ele>
        <time>2014-04-17T08:26:37Z</time>
      </trkpt>
      <trkpt lat="47.58197" lon="3.77597">
        <ele>130</ele>
        <time>2014-04-17T08:26:40Z</time>
      </trkpt>
      <trkpt lat="47.58196" lon="3.77599">
        <ele>130</ele>
        <time>2014-04-17T08:26:51Z</time>
      </trkpt>
      <trkpt lat="47.58194" lon="3.77606">
        <ele>129</ele>
        <time>2014-04-17T08:27:00Z</time>
      </trkpt>
      <trkpt lat="47.5818" lon="3.77619">
        <ele>129</ele>
        <time>2014-04-17T08:27:10Z</time>
      </trkpt>
      <trkpt lat="47.58175" lon="3.77622">
        <ele>129</ele>
        <time>2014-04-17T08:27:13Z</time>
      </trkpt>
      <trkpt lat="47.58169" lon="3.7763">
        <ele>128</ele>
        <time>2014-04-17T08:27:22Z</time>
      </trkpt>
      <trkpt lat="47.58165" lon="3.77633">
        <ele>129</ele>
        <time>2014-04-17T08:27:26Z</time>
      </trkpt>
      <trkpt lat="47.5815" lon="3.77642">
        <ele>128</ele>
        <time>2014-04-17T08:27:38Z</time>
      </trkpt>
      <trkpt lat="47.58145" lon="3.77642">
        <ele>128</ele>
        <time>2014-04-17T08:27:45Z</time>
      </trkpt>
      <trkpt lat="47.5814" lon="3.77644">
        <ele>128</ele>
        <time>2014-04-17T08:27:49Z</time>
      </trkpt>
      <trkpt lat="47.58134" lon="3.77645">
        <ele>129</ele>
        <time>2014-04-17T08:27:53Z</time>
      </trkpt>
      <trkpt lat="47.5813" lon="3.77643">
        <ele>129</ele>
        <time>2014-04-17T08:27:57Z</time>
      </trkpt>
      <trkpt lat="47.58126" lon="3.7764">
        <ele>129</ele>
        <time>2014-04-17T08:28:01Z</time>
      </trkpt>
      <trkpt lat="47.58116" lon="3.77637">
        <ele>129</ele>
        <time>2014-04-17T08:28:09Z</time>
      </trkpt>
      <trkpt lat="47.58111" lon="3.77638">
        <ele>129</ele>
        <time>2014-04-17T08:28:13Z</time>
      </trkpt>
      <trkpt lat="47.58101" lon="3.77638">
        <ele>129</ele>
        <time>2014-04-17T08:28:21Z</time>
      </trkpt>
      <trkpt lat="47.58097" lon="3.77636">
        <ele>129</ele>
        <time>2014-04-17T08:28:25Z</time>
      </trkpt>
      <trkpt lat="47.58091" lon="3.77637">
        <ele>129</ele>
        <time>2014-04-17T08:28:29Z</time>
      </trkpt>
      <trkpt lat="47.58087" lon="3.77641">
        <ele>129</ele>
        <time>2014-04-17T08:28:32Z</time>
      </trkpt>
      <trkpt lat="47.58077" lon="3.77644">
        <ele>129</ele>
        <time>2014-04-17T08:28:38Z</time>
      </trkpt>
      <trkpt lat="47.58072" lon="3.77642">
        <ele>129</ele>
        <time>2014-04-17T08:28:41Z</time>
      </trkpt>
      <trkpt lat="47.58067" lon="3.77643">
        <ele>129</ele>
        <time>2014-04-17T08:28:44Z</time>
      </trkpt>
      <trkpt lat="47.58056" lon="3.77648">
        <ele>129</ele>
        <time>2014-04-17T08:28:50Z</time>
      </trkpt>
      <trkpt lat="47.58052" lon="3.77649">
        <ele>129</ele>
        <time>2014-04-17T08:28:53Z</time>
      </trkpt>
      <trkpt lat="47.58043" lon="3.77655">
        <ele>129</ele>
        <time>2014-04-17T08:29:03Z</time>
      </trkpt>
      <trkpt lat="47.58038" lon="3.77655">
        <ele>129</ele>
        <time>2014-04-17T08:29:06Z</time>
      </trkpt>
      <trkpt lat="47.58033" lon="3.77655">
        <ele>129</ele>
        <time>2014-04-17T08:29:09Z</time>
      </trkpt>
      <trkpt lat="47.58028" lon="3.77652">
        <ele>129</ele>
        <time>2014-04-17T08:29:14Z</time>
      </trkpt>
      <trkpt lat="47.58024" lon="3.77648">
        <ele>129</ele>
        <time>2014-04-17T08:29:18Z</time>
      </trkpt>
      <trkpt lat="47.5802" lon="3.77647">
        <ele>129</ele>
        <time>2014-04-17T08:29:21Z</time>
      </trkpt>
      <trkpt lat="47.58015" lon="3.77645">
        <ele>128</ele>
        <time>2014-04-17T08:29:25Z</time>
      </trkpt>
      <trkpt lat="47.58004" lon="3.77642">
        <ele>128</ele>
        <time>2014-04-17T08:29:33Z</time>
      </trkpt>
      <trkpt lat="47.57999" lon="3.77643">
        <ele>128</ele>
        <time>2014-04-17T08:29:37Z</time>
      </trkpt>
      <trkpt lat="47.57988" lon="3.77647">
        <ele>128</ele>
        <time>2014-04-17T08:29:43Z</time>
      </trkpt>
      <trkpt lat="47.57982" lon="3.77646">
        <ele>128</ele>
        <time>2014-04-17T08:29:47Z</time>
      </trkpt>
      <trkpt lat="47.57978" lon="3.77646">
        <ele>128</ele>
        <time>2014-04-17T08:29:54Z</time>
      </trkpt>
      <trkpt lat="47.57969" lon="3.77655">
        <ele>128</ele>
        <time>2014-04-17T08:30:23Z</time>
      </trkpt>
      <trkpt lat="47.57961" lon="3.77657">
        <ele>128</ele>
        <time>2014-04-17T08:30:29Z</time>
      </trkpt>
      <trkpt lat="47.57951" lon="3.77662">
        <ele>128</ele>
        <time>2014-04-17T08:30:38Z</time>
      </trkpt>
      <trkpt lat="47.57946" lon="3.77664">
        <ele>128</ele>
        <time>2014-04-17T08:30:41Z</time>
      </trkpt>
      <trkpt lat="47.57927" lon="3.77676">
        <ele>128</ele>
        <time>2014-04-17T08:30:51Z</time>
      </trkpt>
      <trkpt lat="47.57922" lon="3.77675">
        <ele>128</ele>
        <time>2014-04-17T08:30:58Z</time>
      </trkpt>
      <trkpt lat="47.57908" lon="3.77675">
        <ele>128</ele>
        <time>2014-04-17T08:31:12Z</time>
      </trkpt>
      <trkpt lat="47.57903" lon="3.77679">
        <ele>128</ele>
        <time>2014-04-17T08:31:16Z</time>
      </trkpt>
      <trkpt lat="47.57895" lon="3.77689">
        <ele>128</ele>
        <time>2014-04-17T08:31:23Z</time>
      </trkpt>
      <trkpt lat="47.5789" lon="3.77689">
        <ele>128</ele>
        <time>2014-04-17T08:31:28Z</time>
      </trkpt>
      <trkpt lat="47.57888" lon="3.77691">
        <ele>128</ele>
        <time>2014-04-17T08:31:34Z</time>
      </trkpt>
      <trkpt lat="47.57887" lon="3.77696">
        <ele>128</ele>
        <time>2014-04-17T08:31:53Z</time>
      </trkpt>
      <trkpt lat="47.57882" lon="3.77699">
        <ele>128</ele>
        <time>2014-04-17T08:31:57Z</time>
      </trkpt>
      <trkpt lat="47.57878" lon="3.77704">
        <ele>128</ele>
        <time>2014-04-17T08:32:00Z</time>
      </trkpt>
      <trkpt lat="47.57871" lon="3.77714">
        <ele>128</ele>
        <time>2014-04-17T08:32:07Z</time>
      </trkpt>
      <trkpt lat="47.57866" lon="3.77716">
        <ele>128</ele>
        <time>2014-04-17T08:32:13Z</time>
      </trkpt>
      <trkpt lat="47.57858" lon="3.77727">
        <ele>128</ele>
        <time>2014-04-17T08:32:22Z</time>
      </trkpt>
      <trkpt lat="47.57844" lon="3.77739">
        <ele>129</ele>
        <time>2014-04-17T08:32:34Z</time>
      </trkpt>
      <trkpt lat="47.57835" lon="3.77742">
        <ele>129</ele>
        <time>2014-04-17T08:32:41Z</time>
      </trkpt>
      <trkpt lat="47.57824" lon="3.77757">
        <ele>129</ele>
        <time>2014-04-17T08:32:50Z</time>
      </trkpt>
      <trkpt lat="47.5782" lon="3.77762">
        <ele>129</ele>
        <time>2014-04-17T08:32:54Z</time>
      </trkpt>
      <trkpt lat="47.57818" lon="3.77765">
        <ele>129</ele>
        <time>2014-04-17T08:33:00Z</time>
      </trkpt>
      <trkpt lat="47.57814" lon="3.77769">
        <ele>129</ele>
        <time>2014-04-17T08:33:07Z</time>
      </trkpt>
      <trkpt lat="47.5781" lon="3.77771">
        <ele>129</ele>
        <time>2014-04-17T08:33:13Z</time>
      </trkpt>
      <trkpt lat="47.57803" lon="3.77783">
        <ele>129</ele>
        <time>2014-04-17T08:33:23Z</time>
      </trkpt>
      <trkpt lat="47.57796" lon="3.77791">
        <ele>129</ele>
        <time>2014-04-17T08:33:37Z</time>
      </trkpt>
      <trkpt lat="47.57793" lon="3.77789">
        <ele>129</ele>
        <time>2014-04-17T08:34:05Z</time>
      </trkpt>
      <trkpt lat="47.57793" lon="3.77796">
        <ele>129</ele>
        <time>2014-04-17T08:34:09Z</time>
      </trkpt>
      <trkpt lat="47.57791" lon="3.778">
        <ele>129</ele>
        <time>2014-04-17T08:34:22Z</time>
      </trkpt>
      <trkpt lat="47.57788" lon="3.77818">
        <ele>130</ele>
        <time>2014-04-17T08:34:36Z</time>
      </trkpt>
      <trkpt lat="47.5779" lon="3.77798">
        <ele>129</ele>
        <time>2014-04-17T08:34:55Z</time>
      </trkpt>
      <trkpt lat="47.57793" lon="3.77793">
        <ele>129</ele>
        <time>2014-04-17T08:35:02Z</time>
      </trkpt>
      <trkpt lat="47.57796" lon="3.77794">
        <ele>129</ele>
        <time>2014-04-17T08:35:13Z</time>
      </trkpt>
      <trkpt lat="47.57791" lon="3.77799">
        <ele>129</ele>
        <time>2014-04-17T08:35:49Z</time>
      </trkpt>
      <trkpt lat="47.5779" lon="3.77796">
        <ele>129</ele>
        <time>2014-04-17T08:36:24Z</time>
      </trkpt>
      <trkpt lat="47.57786" lon="3.778">
        <ele>129</ele>
        <time>2014-04-17T08:36:42Z</time>
      </trkpt>
      <trkpt lat="47.57785" lon="3.77804">
        <ele>129</ele>
        <time>2014-04-17T08:36:49Z</time>
      </trkpt>
      <trkpt lat="47.57784" lon="3.77813">
        <ele>130</ele>
        <time>2014-04-17T08:36:55Z</time>
      </trkpt>
      <trkpt lat="47.57782" lon="3.77809">
        <ele>130</ele>
        <time>2014-04-17T08:37:31Z</time>
      </trkpt>
      <trkpt lat="47.57784" lon="3.77801">
        <ele>129</ele>
        <time>2014-04-17T08:38:50Z</time>
      </trkpt>
      <trkpt lat="47.57785" lon="3.77803">
        <ele>129</ele>
        <time>2014-04-17T08:40:44Z</time>
      </trkpt>
      <trkpt lat="47.57788" lon="3.77802">
        <ele>129</ele>
        <time>2014-04-17T08:41:40Z</time>
      </trkpt>
      <trkpt lat="47.57791" lon="3.77795">
        <ele>129</ele>
        <time>2014-04-17T08:47:55Z</time>
      </trkpt>
      <trkpt lat="47.57795" lon="3.77797">
        <ele>129</ele>
        <time>2014-04-17T08:48:18Z</time>
      </trkpt>
      <trkpt lat="47.57798" lon="3.77803">
        <ele>129</ele>
        <time>2014-04-17T08:48:25Z</time>
      </trkpt>
      <trkpt lat="47.57796" lon="3.77811">
        <ele>130</ele>
        <time>2014-04-17T08:48:31Z</time>
      </trkpt>
      <trkpt lat="47.57797" lon="3.77819">
        <ele>130</ele>
        <time>2014-04-17T08:48:35Z</time>
      </trkpt>
      <trkpt lat="47.57796" lon="3.7783">
        <ele>130</ele>
        <time>2014-04-17T08:48:46Z</time>
      </trkpt>
      <trkpt lat="47.57797" lon="3.77837">
        <ele>130</ele>
        <time>2014-04-17T08:48:49Z</time>
      </trkpt>
      <trkpt lat="47.578" lon="3.77839">
        <ele>130</ele>
        <time>2014-04-17T08:49:05Z</time>
      </trkpt>
      <trkpt lat="47.578" lon="3.77824">
        <ele>130</ele>
        <time>2014-04-17T08:49:18Z</time>
      </trkpt>
      <trkpt lat="47.57795" lon="3.77822">
        <ele>130</ele>
        <time>2014-04-17T08:49:22Z</time>
      </trkpt>
      <trkpt lat="47.5779" lon="3.77824">
        <ele>130</ele>
        <time>2014-04-17T08:49:26Z</time>
      </trkpt>
      <trkpt lat="47.57785" lon="3.77823">
        <ele>130</ele>
        <time>2014-04-17T08:49:30Z</time>
      </trkpt>
      <trkpt lat="47.57781" lon="3.77821">
        <ele>130</ele>
        <time>2014-04-17T08:49:35Z</time>
      </trkpt>
      <trkpt lat="47.57775" lon="3.77816">
        <ele>130</ele>
        <time>2014-04-17T08:49:40Z</time>
      </trkpt>
      <trkpt lat="47.57763" lon="3.77797">
        <ele>129</ele>
        <time>2014-04-17T08:49:48Z</time>
      </trkpt>
      <trkpt lat="47.57761" lon="3.7779">
        <ele>129</ele>
        <time>2014-04-17T08:49:50Z</time>
      </trkpt>
      <trkpt lat="47.57759" lon="3.77787">
        <ele>129</ele>
        <time>2014-04-17T08:49:52Z</time>
      </trkpt>
      <trkpt lat="47.57754" lon="3.77783">
        <ele>129</ele>
        <time>2014-04-17T08:50:00Z</time>
      </trkpt>
      <trkpt lat="47.57751" lon="3.77776">
        <ele>129</ele>
        <time>2014-04-17T08:50:04Z</time>
      </trkpt>
      <trkpt lat="47.5775" lon="3.77778">
        <ele>129</ele>
        <time>2014-04-17T08:50:24Z</time>
      </trkpt>
      <trkpt lat="47.57758" lon="3.77782">
        <ele>129</ele>
        <time>2014-04-17T08:50:45Z</time>
      </trkpt>
      <trkpt lat="47.57759" lon="3.77781">
        <ele>129</ele>
        <time>2014-04-17T08:51:08Z</time>
      </trkpt>
      <trkpt lat="47.57762" lon="3.77786">
        <ele>129</ele>
        <time>2014-04-17T08:51:13Z</time>
      </trkpt>
      <trkpt lat="47.57762" lon="3.77794">
        <ele>129</ele>
        <time>2014-04-17T08:51:17Z</time>
      </trkpt>
      <trkpt lat="47.57757" lon="3.77796">
        <ele>129</ele>
        <time>2014-04-17T08:51:20Z</time>
      </trkpt>
      <trkpt lat="47.57752" lon="3.77795">
        <ele>129</ele>
        <time>2014-04-17T08:51:22Z</time>
      </trkpt>
      <trkpt lat="47.57744" lon="3.77786">
        <ele>129</ele>
        <time>2014-04-17T08:51:27Z</time>
      </trkpt>
      <trkpt lat="47.57734" lon="3.7778">
        <ele>129</ele>
        <time>2014-04-17T08:51:35Z</time>
      </trkpt>
      <trkpt lat="47.57729" lon="3.77779">
        <ele>129</ele>
        <time>2014-04-17T08:51:39Z</time>
      </trkpt>
      <trkpt lat="47.57724" lon="3.7778">
        <ele>129</ele>
        <time>2014-04-17T08:51:43Z</time>
      </trkpt>
      <trkpt lat="47.57719" lon="3.77781">
        <ele>129</ele>
        <time>2014-04-17T08:51:48Z</time>
      </trkpt>
      <trkpt lat="47.57715" lon="3.77782">
        <ele>129</ele>
        <time>2014-04-17T08:51:57Z</time>
      </trkpt>
      <trkpt lat="47.57705" lon="3.77787">
        <ele>129</ele>
        <time>2014-04-17T08:52:08Z</time>
      </trkpt>
      <trkpt lat="47.57701" lon="3.77788">
        <ele>129</ele>
        <time>2014-04-17T08:52:12Z</time>
      </trkpt>
      <trkpt lat="47.57695" lon="3.77789">
        <ele>129</ele>
        <time>2014-04-17T08:52:18Z</time>
      </trkpt>
      <trkpt lat="47.57681" lon="3.77789">
        <ele>129</ele>
        <time>2014-04-17T08:52:32Z</time>
      </trkpt>
      <trkpt lat="47.57679" lon="3.77785">
        <ele>129</ele>
        <time>2014-04-17T08:53:49Z</time>
      </trkpt>
      <trkpt lat="47.57673" lon="3.77783">
        <ele>129</ele>
        <time>2014-04-17T08:53:54Z</time>
      </trkpt>
      <trkpt lat="47.57668" lon="3.77781">
        <ele>129</ele>
        <time>2014-04-17T08:53:58Z</time>
      </trkpt>
      <trkpt lat="47.57664" lon="3.77777">
        <ele>128</ele>
        <time>2014-04-17T08:54:03Z</time>
      </trkpt>
      <trkpt lat="47.5766" lon="3.77773">
        <ele>128</ele>
        <time>2014-04-17T08:54:08Z</time>
      </trkpt>
      <trkpt lat="47.57656" lon="3.7777">
        <ele>128</ele>
        <time>2014-04-17T08:54:13Z</time>
      </trkpt>
      <trkpt lat="47.57653" lon="3.77765">
        <ele>128</ele>
        <time>2014-04-17T08:54:17Z</time>
      </trkpt>
      <trkpt lat="47.57648" lon="3.77762">
        <ele>128</ele>
        <time>2014-04-17T08:54:21Z</time>
      </trkpt>
      <trkpt lat="47.57631" lon="3.77746">
        <ele>128</ele>
        <time>2014-04-17T08:54:50Z</time>
      </trkpt>
      <trkpt lat="47.57625" lon="3.77733">
        <ele>128</ele>
        <time>2014-04-17T08:55:00Z</time>
      </trkpt>
      <trkpt lat="47.57621" lon="3.77719">
        <ele>128</ele>
        <time>2014-04-17T08:56:15Z</time>
      </trkpt>
      <trkpt lat="47.57632" lon="3.77676">
        <ele>128</ele>
        <time>2014-04-17T08:56:38Z</time>
      </trkpt>
      <trkpt lat="47.57636" lon="3.77671">
        <ele>128</ele>
        <time>2014-04-17T08:56:42Z</time>
      </trkpt>
      <trkpt lat="47.57638" lon="3.77671">
        <ele>128</ele>
        <time>2014-04-17T08:56:59Z</time>
      </trkpt>
      <trkpt lat="47.57629" lon="3.77669">
        <ele>128</ele>
        <time>2014-04-17T08:57:21Z</time>
      </trkpt>
      <trkpt lat="47.57632" lon="3.77664">
        <ele>128</ele>
        <time>2014-04-17T08:57:53Z</time>
      </trkpt>
      <trkpt lat="47.57641" lon="3.77656">
        <ele>128</ele>
        <time>2014-04-17T08:58:02Z</time>
      </trkpt>
      <trkpt lat="47.57645" lon="3.77648">
        <ele>128</ele>
        <time>2014-04-17T08:58:07Z</time>
      </trkpt>
      <trkpt lat="47.57647" lon="3.77642">
        <ele>128</ele>
        <time>2014-04-17T08:58:10Z</time>
      </trkpt>
      <trkpt lat="47.5765" lon="3.77636">
        <ele>128</ele>
        <time>2014-04-17T08:58:13Z</time>
      </trkpt>
      <trkpt lat="47.57654" lon="3.77631">
        <ele>128</ele>
        <time>2014-04-17T08:58:16Z</time>
      </trkpt>
      <trkpt lat="47.5766" lon="3.77618">
        <ele>128</ele>
        <time>2014-04-17T08:58:24Z</time>
      </trkpt>
      <trkpt lat="47.57668" lon="3.77608">
        <ele>128</ele>
        <time>2014-04-17T08:58:32Z</time>
      </trkpt>
      <trkpt lat="47.5767" lon="3.77602">
        <ele>128</ele>
        <time>2014-04-17T08:58:36Z</time>
      </trkpt>
      <trkpt lat="47.57681" lon="3.77586">
        <ele>128</ele>
        <time>2014-04-17T08:58:48Z</time>
      </trkpt>
      <trkpt lat="47.57684" lon="3.77579">
        <ele>129</ele>
        <time>2014-04-17T08:58:54Z</time>
      </trkpt>
      <trkpt lat="47.57682" lon="3.77572">
        <ele>129</ele>
        <time>2014-04-17T08:58:59Z</time>
      </trkpt>
      <trkpt lat="47.57677" lon="3.77569">
        <ele>129</ele>
        <time>2014-04-17T08:59:02Z</time>
      </trkpt>
      <trkpt lat="47.57662" lon="3.77572">
        <ele>130</ele>
        <time>2014-04-17T08:59:14Z</time>
      </trkpt>
      <trkpt lat="47.57658" lon="3.77572">
        <ele>130</ele>
        <time>2014-04-17T08:59:19Z</time>
      </trkpt>
      <trkpt lat="47.57653" lon="3.77577">
        <ele>130</ele>
        <time>2014-04-17T08:59:25Z</time>
      </trkpt>
      <trkpt lat="47.57643" lon="3.77576">
        <ele>130</ele>
        <time>2014-04-17T08:59:32Z</time>
      </trkpt>
      <trkpt lat="47.57633" lon="3.77572">
        <ele>130</ele>
        <time>2014-04-17T08:59:38Z</time>
      </trkpt>
      <trkpt lat="47.57627" lon="3.77572">
        <ele>130</ele>
        <time>2014-04-17T08:59:42Z</time>
      </trkpt>
      <trkpt lat="47.57622" lon="3.77573">
        <ele>130</ele>
        <time>2014-04-17T08:59:45Z</time>
      </trkpt>
      <trkpt lat="47.57613" lon="3.77572">
        <ele>130</ele>
        <time>2014-04-17T08:59:53Z</time>
      </trkpt>
      <trkpt lat="47.57608" lon="3.77569">
        <ele>130</ele>
        <time>2014-04-17T08:59:58Z</time>
      </trkpt>
      <trkpt lat="47.57602" lon="3.7757">
        <ele>130</ele>
        <time>2014-04-17T09:00:03Z</time>
      </trkpt>
      <trkpt lat="47.57597" lon="3.77568">
        <ele>130</ele>
        <time>2014-04-17T09:00:07Z</time>
      </trkpt>
      <trkpt lat="47.57592" lon="3.77568">
        <ele>130</ele>
        <time>2014-04-17T09:00:11Z</time>
      </trkpt>
      <trkpt lat="47.57587" lon="3.77568">
        <ele>130</ele>
        <time>2014-04-17T09:00:15Z</time>
      </trkpt>
      <trkpt lat="47.57581" lon="3.77567">
        <ele>130</ele>
        <time>2014-04-17T09:00:19Z</time>
      </trkpt>
      <trkpt lat="47.57576" lon="3.77566">
        <ele>130</ele>
        <time>2014-04-17T09:00:23Z</time>
      </trkpt>
      <trkpt lat="47.57572" lon="3.77565">
        <ele>130</ele>
        <time>2014-04-17T09:00:27Z</time>
      </trkpt>
      <trkpt lat="47.57567" lon="3.77568">
        <ele>130</ele>
        <time>2014-04-17T09:00:32Z</time>
      </trkpt>
      <trkpt lat="47.57557" lon="3.77565">
        <ele>130</ele>
        <time>2014-04-17T09:00:46Z</time>
      </trkpt>
      <trkpt lat="47.57537" lon="3.77568">
        <ele>130</ele>
        <time>2014-04-17T09:01:00Z</time>
      </trkpt>
      <trkpt lat="47.57532" lon="3.77566">
        <ele>130</ele>
        <time>2014-04-17T09:01:04Z</time>
      </trkpt>
      <trkpt lat="47.57527" lon="3.77567">
        <ele>130</ele>
        <time>2014-04-17T09:01:08Z</time>
      </trkpt>
      <trkpt lat="47.57522" lon="3.77568">
        <ele>130</ele>
        <time>2014-04-17T09:01:12Z</time>
      </trkpt>
      <trkpt lat="47.57517" lon="3.77573">
        <ele>130</ele>
        <time>2014-04-17T09:01:15Z</time>
      </trkpt>
      <trkpt lat="47.57512" lon="3.77575">
        <ele>130</ele>
        <time>2014-04-17T09:01:18Z</time>
      </trkpt>
      <trkpt lat="47.57508" lon="3.77574">
        <ele>130</ele>
        <time>2014-04-17T09:01:23Z</time>
      </trkpt>
      <trkpt lat="47.57503" lon="3.77571">
        <ele>130</ele>
        <time>2014-04-17T09:01:28Z</time>
      </trkpt>
      <trkpt lat="47.57498" lon="3.77576">
        <ele>129</ele>
        <time>2014-04-17T09:01:32Z</time>
      </trkpt>
      <trkpt lat="47.57488" lon="3.77581">
        <ele>129</ele>
        <time>2014-04-17T09:01:40Z</time>
      </trkpt>
      <trkpt lat="47.57483" lon="3.77583">
        <ele>129</ele>
        <time>2014-04-17T09:01:43Z</time>
      </trkpt>
      <trkpt lat="47.57478" lon="3.77583">
        <ele>129</ele>
        <time>2014-04-17T09:01:46Z</time>
      </trkpt>
      <trkpt lat="47.57469" lon="3.77588">
        <ele>129</ele>
        <time>2014-04-17T09:01:52Z</time>
      </trkpt>
      <trkpt lat="47.57459" lon="3.77594">
        <ele>129</ele>
        <time>2014-04-17T09:01:59Z</time>
      </trkpt>
      <trkpt lat="47.57449" lon="3.77597">
        <ele>129</ele>
        <time>2014-04-17T09:02:07Z</time>
      </trkpt>
      <trkpt lat="47.57443" lon="3.77597">
        <ele>129</ele>
        <time>2014-04-17T09:02:12Z</time>
      </trkpt>
      <trkpt lat="47.57434" lon="3.77602">
        <ele>129</ele>
        <time>2014-04-17T09:02:19Z</time>
      </trkpt>
      <trkpt lat="47.57429" lon="3.77604">
        <ele>129</ele>
        <time>2014-04-17T09:02:23Z</time>
      </trkpt>
      <trkpt lat="47.57424" lon="3.77606">
        <ele>129</ele>
        <time>2014-04-17T09:02:28Z</time>
      </trkpt>
      <trkpt lat="47.5742" lon="3.7761">
        <ele>129</ele>
        <time>2014-04-17T09:02:32Z</time>
      </trkpt>
      <trkpt lat="47.57415" lon="3.77613">
        <ele>130</ele>
        <time>2014-04-17T09:02:36Z</time>
      </trkpt>
      <trkpt lat="47.5741" lon="3.77611">
        <ele>130</ele>
        <time>2014-04-17T09:02:40Z</time>
      </trkpt>
      <trkpt lat="47.57395" lon="3.77616">
        <ele>130</ele>
        <time>2014-04-17T09:02:50Z</time>
      </trkpt>
      <trkpt lat="47.57392" lon="3.77623">
        <ele>130</ele>
        <time>2014-04-17T09:02:54Z</time>
      </trkpt>
      <trkpt lat="47.57388" lon="3.77628">
        <ele>130</ele>
        <time>2014-04-17T09:04:17Z</time>
      </trkpt>
      <trkpt lat="47.57383" lon="3.77629">
        <ele>130</ele>
        <time>2014-04-17T09:04:21Z</time>
      </trkpt>
      <trkpt lat="47.57379" lon="3.7763">
        <ele>130</ele>
        <time>2014-04-17T09:04:24Z</time>
      </trkpt>
      <trkpt lat="47.57369" lon="3.77631">
        <ele>130</ele>
        <time>2014-04-17T09:04:33Z</time>
      </trkpt>
      <trkpt lat="47.57363" lon="3.77634">
        <ele>131</ele>
        <time>2014-04-17T09:04:38Z</time>
      </trkpt>
      <trkpt lat="47.57358" lon="3.77637">
        <ele>131</ele>
        <time>2014-04-17T09:04:42Z</time>
      </trkpt>
      <trkpt lat="47.57354" lon="3.77641">
        <ele>131</ele>
        <time>2014-04-17T09:04:45Z</time>
      </trkpt>
      <trkpt lat="47.57349" lon="3.77644">
        <ele>131</ele>
        <time>2014-04-17T09:04:49Z</time>
      </trkpt>
      <trkpt lat="47.57343" lon="3.77645">
        <ele>131</ele>
        <time>2014-04-17T09:04:54Z</time>
      </trkpt>
      <trkpt lat="47.57334" lon="3.7765">
        <ele>132</ele>
        <time>2014-04-17T09:05:01Z</time>
      </trkpt>
      <trkpt lat="47.57322" lon="3.77669">
        <ele>133</ele>
        <time>2014-04-17T09:05:09Z</time>
      </trkpt>
      <trkpt lat="47.57318" lon="3.77672">
        <ele>133</ele>
        <time>2014-04-17T09:05:13Z</time>
      </trkpt>
      <trkpt lat="47.57312" lon="3.77675">
        <ele>133</ele>
        <time>2014-04-17T09:05:17Z</time>
      </trkpt>
      <trkpt lat="47.57307" lon="3.77678">
        <ele>133</ele>
        <time>2014-04-17T09:05:19Z</time>
      </trkpt>
      <trkpt lat="47.57302" lon="3.77682">
        <ele>133</ele>
        <time>2014-04-17T09:05:22Z</time>
      </trkpt>
      <trkpt lat="47.57298" lon="3.77685">
        <ele>133</ele>
        <time>2014-04-17T09:05:27Z</time>
      </trkpt>
      <trkpt lat="47.57288" lon="3.77689">
        <ele>134</ele>
        <time>2014-04-17T09:05:37Z</time>
      </trkpt>
      <trkpt lat="47.57284" lon="3.77693">
        <ele>134</ele>
        <time>2014-04-17T09:05:41Z</time>
      </trkpt>
      <trkpt lat="47.57279" lon="3.77698">
        <ele>134</ele>
        <time>2014-04-17T09:05:45Z</time>
      </trkpt>
      <trkpt lat="47.5727" lon="3.77702">
        <ele>134</ele>
        <time>2014-04-17T09:05:51Z</time>
      </trkpt>
      <trkpt lat="47.57261" lon="3.77707">
        <ele>134</ele>
        <time>2014-04-17T09:06:01Z</time>
      </trkpt>
      <trkpt lat="47.57259" lon="3.77708">
        <ele>134</ele>
        <time>2014-04-17T09:06:07Z</time>
      </trkpt>
      <trkpt lat="47.57254" lon="3.77709">
        <ele>134</ele>
        <time>2014-04-17T09:06:13Z</time>
      </trkpt>
      <trkpt lat="47.57245" lon="3.77718">
        <ele>136</ele>
        <time>2014-04-17T09:06:20Z</time>
      </trkpt>
      <trkpt lat="47.57241" lon="3.77723">
        <ele>136</ele>
        <time>2014-04-17T09:06:23Z</time>
      </trkpt>
      <trkpt lat="47.57233" lon="3.7773">
        <ele>136</ele>
        <time>2014-04-17T09:06:32Z</time>
      </trkpt>
      <trkpt lat="47.57229" lon="3.77735">
        <ele>136</ele>
        <time>2014-04-17T09:06:36Z</time>
      </trkpt>
      <trkpt lat="47.57224" lon="3.77743">
        <ele>136</ele>
        <time>2014-04-17T09:06:40Z</time>
      </trkpt>
      <trkpt lat="47.5722" lon="3.77748">
        <ele>136</ele>
        <time>2014-04-17T09:06:43Z</time>
      </trkpt>
      <trkpt lat="47.57216" lon="3.77745">
        <ele>136</ele>
        <time>2014-04-17T09:06:50Z</time>
      </trkpt>
      <trkpt lat="47.57206" lon="3.77747">
        <ele>136</ele>
        <time>2014-04-17T09:06:58Z</time>
      </trkpt>
      <trkpt lat="47.57201" lon="3.7775">
        <ele>136</ele>
        <time>2014-04-17T09:07:00Z</time>
      </trkpt>
      <trkpt lat="47.57197" lon="3.7775">
        <ele>134</ele>
        <time>2014-04-17T09:07:03Z</time>
      </trkpt>
      <trkpt lat="47.57192" lon="3.77749">
        <ele>136</ele>
        <time>2014-04-17T09:07:06Z</time>
      </trkpt>
      <trkpt lat="47.57185" lon="3.77746">
        <ele>136</ele>
        <time>2014-04-17T09:07:09Z</time>
      </trkpt>
      <trkpt lat="47.57178" lon="3.77737">
        <ele>136</ele>
        <time>2014-04-17T09:07:17Z</time>
      </trkpt>
      <trkpt lat="47.57176" lon="3.7773">
        <ele>137</ele>
        <time>2014-04-17T09:07:22Z</time>
      </trkpt>
      <trkpt lat="47.57158" lon="3.77691">
        <ele>141</ele>
        <time>2014-04-17T09:07:48Z</time>
      </trkpt>
      <trkpt lat="47.57154" lon="3.77687">
        <ele>141</ele>
        <time>2014-04-17T09:07:52Z</time>
      </trkpt>
      <trkpt lat="47.5715" lon="3.77679">
        <ele>142</ele>
        <time>2014-04-17T09:08:04Z</time>
      </trkpt>
      <trkpt lat="47.57145" lon="3.77675">
        <ele>142</ele>
        <time>2014-04-17T09:08:09Z</time>
      </trkpt>
      <trkpt lat="47.5714" lon="3.77672">
        <ele>142</ele>
        <time>2014-04-17T09:08:14Z</time>
      </trkpt>
      <trkpt lat="47.57137" lon="3.77666">
        <ele>147</ele>
        <time>2014-04-17T09:08:19Z</time>
      </trkpt>
      <trkpt lat="47.57133" lon="3.77672">
        <ele>143</ele>
        <time>2014-04-17T09:08:20Z</time>
      </trkpt>
      <trkpt lat="47.57128" lon="3.77672">
        <ele>143</ele>
        <time>2014-04-17T09:08:42Z</time>
      </trkpt>
      <trkpt lat="47.57122" lon="3.7766">
        <ele>148</ele>
        <time>2014-04-17T09:08:51Z</time>
      </trkpt>
      <trkpt lat="47.57117" lon="3.77647">
        <ele>149</ele>
        <time>2014-04-17T09:09:02Z</time>
      </trkpt>
      <trkpt lat="47.57114" lon="3.7764">
        <ele>149</ele>
        <time>2014-04-17T09:09:08Z</time>
      </trkpt>
      <trkpt lat="47.5711" lon="3.77636">
        <ele>150</ele>
        <time>2014-04-17T09:09:13Z</time>
      </trkpt>
      <trkpt lat="47.57103" lon="3.77638">
        <ele>150</ele>
        <time>2014-04-17T09:09:17Z</time>
      </trkpt>
      <trkpt lat="47.57098" lon="3.77637">
        <ele>151</ele>
        <time>2014-04-17T09:09:21Z</time>
      </trkpt>
      <trkpt lat="47.57094" lon="3.77632">
        <ele>151</ele>
        <time>2014-04-17T09:09:26Z</time>
      </trkpt>
      <trkpt lat="47.57089" lon="3.77631">
        <ele>151</ele>
        <time>2014-04-17T09:09:31Z</time>
      </trkpt>
      <trkpt lat="47.57069" lon="3.77639">
        <ele>157</ele>
        <time>2014-04-17T09:09:48Z</time>
      </trkpt>
      <trkpt lat="47.57064" lon="3.77638">
        <ele>157</ele>
        <time>2014-04-17T09:09:53Z</time>
      </trkpt>
      <trkpt lat="47.57062" lon="3.77632">
        <ele>158</ele>
        <time>2014-04-17T09:10:00Z</time>
      </trkpt>
      <trkpt lat="47.57057" lon="3.7763">
        <ele>158</ele>
        <time>2014-04-17T09:10:04Z</time>
      </trkpt>
      <trkpt lat="47.57052" lon="3.7763">
        <ele>158</ele>
        <time>2014-04-17T09:10:09Z</time>
      </trkpt>
      <trkpt lat="47.57047" lon="3.77627">
        <ele>159</ele>
        <time>2014-04-17T09:10:14Z</time>
      </trkpt>
      <trkpt lat="47.57042" lon="3.77625">
        <ele>159</ele>
        <time>2014-04-17T09:10:20Z</time>
      </trkpt>
      <trkpt lat="47.57032" lon="3.7763">
        <ele>158</ele>
        <time>2014-04-17T09:10:26Z</time>
      </trkpt>
      <trkpt lat="47.57027" lon="3.77634">
        <ele>158</ele>
        <time>2014-04-17T09:10:29Z</time>
      </trkpt>
      <trkpt lat="47.57024" lon="3.77639">
        <ele>157</ele>
        <time>2014-04-17T09:10:35Z</time>
      </trkpt>
      <trkpt lat="47.57019" lon="3.77642">
        <ele>157</ele>
        <time>2014-04-17T09:10:40Z</time>
      </trkpt>
      <trkpt lat="47.57018" lon="3.77634">
        <ele>158</ele>
        <time>2014-04-17T09:10:48Z</time>
      </trkpt>
      <trkpt lat="47.57016" lon="3.77627">
        <ele>159</ele>
        <time>2014-04-17T09:10:52Z</time>
      </trkpt>
      <trkpt lat="47.57011" lon="3.77625">
        <ele>159</ele>
        <time>2014-04-17T09:10:57Z</time>
      </trkpt>
      <trkpt lat="47.57006" lon="3.77625">
        <ele>159</ele>
        <time>2014-04-17T09:11:02Z</time>
      </trkpt>
      <trkpt lat="47.57003" lon="3.77611">
        <ele>162</ele>
        <time>2014-04-17T09:11:17Z</time>
      </trkpt>
      <trkpt lat="47.57004" lon="3.77605">
        <ele>163</ele>
        <time>2014-04-17T09:11:26Z</time>
      </trkpt>
      <trkpt lat="47.56997" lon="3.77602">
        <ele>163</ele>
        <time>2014-04-17T09:11:47Z</time>
      </trkpt>
      <trkpt lat="47.56999" lon="3.77562">
        <ele>177</ele>
        <time>2014-04-17T09:13:20Z</time>
      </trkpt>
      <trkpt lat="47.57002" lon="3.77548">
        <ele>173</ele>
        <time>2014-04-17T09:13:29Z</time>
      </trkpt>
      <trkpt lat="47.57" lon="3.77533">
        <ele>175</ele>
        <time>2014-04-17T09:13:36Z</time>
      </trkpt>
      <trkpt lat="47.56999" lon="3.77527">
        <ele>183</ele>
        <time>2014-04-17T09:13:39Z</time>
      </trkpt>
      <trkpt lat="47.57001" lon="3.7752">
        <ele>178</ele>
        <time>2014-04-17T09:13:42Z</time>
      </trkpt>
      <trkpt lat="47.57004" lon="3.77514">
        <ele>179</ele>
        <time>2014-04-17T09:13:45Z</time>
      </trkpt>
      <trkpt lat="47.57005" lon="3.77508">
        <ele>182</ele>
        <time>2014-04-17T09:13:54Z</time>
      </trkpt>
      <trkpt lat="47.57004" lon="3.77501">
        <ele>184</ele>
        <time>2014-04-17T09:13:58Z</time>
      </trkpt>
      <trkpt lat="47.57003" lon="3.77494">
        <ele>184</ele>
        <time>2014-04-17T09:14:01Z</time>
      </trkpt>
      <trkpt lat="47.57" lon="3.77488">
        <ele>182</ele>
        <time>2014-04-17T09:14:07Z</time>
      </trkpt>
      <trkpt lat="47.57" lon="3.7748">
        <ele>192</ele>
        <time>2014-04-17T09:14:12Z</time>
      </trkpt>
      <trkpt lat="47.57" lon="3.77466">
        <ele>178</ele>
        <time>2014-04-17T09:14:22Z</time>
      </trkpt>
      <trkpt lat="47.56999" lon="3.77458">
        <ele>194</ele>
        <time>2014-04-17T09:14:29Z</time>
      </trkpt>
      <trkpt lat="47.56995" lon="3.7745">
        <ele>194</ele>
        <time>2014-04-17T09:14:33Z</time>
      </trkpt>
      <trkpt lat="47.56993" lon="3.77444">
        <ele>194</ele>
        <time>2014-04-17T09:14:37Z</time>
      </trkpt>
      <trkpt lat="47.56991" lon="3.77438">
        <ele>193</ele>
        <time>2014-04-17T09:14:43Z</time>
      </trkpt>
      <trkpt lat="47.56988" lon="3.77425">
        <ele>192</ele>
        <time>2014-04-17T09:14:54Z</time>
      </trkpt>
      <trkpt lat="47.5698" lon="3.77414">
        <ele>196</ele>
        <time>2014-04-17T09:15:02Z</time>
      </trkpt>
      <trkpt lat="47.5698" lon="3.77408">
        <ele>196</ele>
        <time>2014-04-17T09:15:11Z</time>
      </trkpt>
      <trkpt lat="47.56981" lon="3.77401">
        <ele>196</ele>
        <time>2014-04-17T09:15:18Z</time>
      </trkpt>
      <trkpt lat="47.56977" lon="3.77397">
        <ele>198</ele>
        <time>2014-04-17T09:15:27Z</time>
      </trkpt>
      <trkpt lat="47.56973" lon="3.77381">
        <ele>199</ele>
        <time>2014-04-17T09:15:39Z</time>
      </trkpt>
      <trkpt lat="47.56965" lon="3.77364">
        <ele>200</ele>
        <time>2014-04-17T09:15:56Z</time>
      </trkpt>
      <trkpt lat="47.56961" lon="3.7736">
        <ele>201</ele>
        <time>2014-04-17T09:16:02Z</time>
      </trkpt>
      <trkpt lat="47.5696" lon="3.77352">
        <ele>201</ele>
        <time>2014-04-17T09:16:05Z</time>
      </trkpt>
      <trkpt lat="47.56958" lon="3.77346">
        <ele>202</ele>
        <time>2014-04-17T09:16:11Z</time>
      </trkpt>
      <trkpt lat="47.56957" lon="3.77338">
        <ele>202</ele>
        <time>2014-04-17T09:16:19Z</time>
      </trkpt>
      <trkpt lat="47.56954" lon="3.77332">
        <ele>202</ele>
        <time>2014-04-17T09:16:25Z</time>
      </trkpt>
      <trkpt lat="47.56953" lon="3.77328">
        <ele>203</ele>
        <time>2014-04-17T09:16:32Z</time>
      </trkpt>
      <trkpt lat="47.56945" lon="3.77309">
        <ele>204</ele>
        <time>2014-04-17T09:16:59Z</time>
      </trkpt>
      <trkpt lat="47.56946" lon="3.77301">
        <ele>203</ele>
        <time>2014-04-17T09:17:03Z</time>
      </trkpt>
      <trkpt lat="47.56945" lon="3.77292">
        <ele>203</ele>
        <time>2014-04-17T09:17:15Z</time>
      </trkpt>
      <trkpt lat="47.56946" lon="3.77285">
        <ele>203</ele>
        <time>2014-04-17T09:17:19Z</time>
      </trkpt>
      <trkpt lat="47.56948" lon="3.77278">
        <ele>203</ele>
        <time>2014-04-17T09:17:25Z</time>
      </trkpt>
      <trkpt lat="47.56949" lon="3.77263">
        <ele>203</ele>
        <time>2014-04-17T09:17:37Z</time>
      </trkpt>
      <trkpt lat="47.56946" lon="3.77256">
        <ele>204</ele>
        <time>2014-04-17T09:17:45Z</time>
      </trkpt>
      <trkpt lat="47.5694" lon="3.77251">
        <ele>205</ele>
        <time>2014-04-17T09:18:22Z</time>
      </trkpt>
      <trkpt lat="47.5693" lon="3.7725">
        <ele>208</ele>
        <time>2014-04-17T09:18:34Z</time>
      </trkpt>
      <trkpt lat="47.56915" lon="3.77243">
        <ele>215</ele>
        <time>2014-04-17T09:18:50Z</time>
      </trkpt>
      <trkpt lat="47.5691" lon="3.77244">
        <ele>215</ele>
        <time>2014-04-17T09:18:56Z</time>
      </trkpt>
      <trkpt lat="47.56895" lon="3.77238">
        <ele>217</ele>
        <time>2014-04-17T09:19:21Z</time>
      </trkpt>
      <trkpt lat="47.5689" lon="3.77238">
        <ele>217</ele>
        <time>2014-04-17T09:19:29Z</time>
      </trkpt>
      <trkpt lat="47.56885" lon="3.77235">
        <ele>218</ele>
        <time>2014-04-17T09:19:34Z</time>
      </trkpt>
      <trkpt lat="47.56879" lon="3.77236">
        <ele>218</ele>
        <time>2014-04-17T09:19:38Z</time>
      </trkpt>
      <trkpt lat="47.56874" lon="3.77233">
        <ele>219</ele>
        <time>2014-04-17T09:19:43Z</time>
      </trkpt>
      <trkpt lat="47.56869" lon="3.77234">
        <ele>219</ele>
        <time>2014-04-17T09:19:47Z</time>
      </trkpt>
      <trkpt lat="47.56865" lon="3.77233">
        <ele>219</ele>
        <time>2014-04-17T09:19:54Z</time>
      </trkpt>
      <trkpt lat="47.56861" lon="3.77229">
        <ele>220</ele>
        <time>2014-04-17T09:19:59Z</time>
      </trkpt>
      <trkpt lat="47.56855" lon="3.7723">
        <ele>220</ele>
        <time>2014-04-17T09:20:03Z</time>
      </trkpt>
      <trkpt lat="47.5685" lon="3.77231">
        <ele>220</ele>
        <time>2014-04-17T09:20:08Z</time>
      </trkpt>
      <trkpt lat="47.5684" lon="3.7723">
        <ele>221</ele>
        <time>2014-04-17T09:20:17Z</time>
      </trkpt>
      <trkpt lat="47.56835" lon="3.77229">
        <ele>221</ele>
        <time>2014-04-17T09:20:21Z</time>
      </trkpt>
      <trkpt lat="47.5683" lon="3.77227">
        <ele>226</ele>
        <time>2014-04-17T09:20:26Z</time>
      </trkpt>
      <trkpt lat="47.56825" lon="3.77226">
        <ele>226</ele>
        <time>2014-04-17T09:20:30Z</time>
      </trkpt>
      <trkpt lat="47.56816" lon="3.77221">
        <ele>227</ele>
        <time>2014-04-17T09:20:39Z</time>
      </trkpt>
      <trkpt lat="47.56811" lon="3.7722">
        <ele>227</ele>
        <time>2014-04-17T09:20:45Z</time>
      </trkpt>
      <trkpt lat="47.56802" lon="3.77217">
        <ele>227</ele>
        <time>2014-04-17T09:20:54Z</time>
      </trkpt>
      <trkpt lat="47.56796" lon="3.77215">
        <ele>227</ele>
        <time>2014-04-17T09:20:59Z</time>
      </trkpt>
      <trkpt lat="47.56785" lon="3.77218">
        <ele>228</ele>
        <time>2014-04-17T09:21:08Z</time>
      </trkpt>
      <trkpt lat="47.56781" lon="3.77215">
        <ele>228</ele>
        <time>2014-04-17T09:21:13Z</time>
      </trkpt>
      <trkpt lat="47.56776" lon="3.77215">
        <ele>229</ele>
        <time>2014-04-17T09:21:17Z</time>
      </trkpt>
      <trkpt lat="47.56773" lon="3.77222">
        <ele>229</ele>
        <time>2014-04-17T09:21:31Z</time>
      </trkpt>
      <trkpt lat="47.56775" lon="3.77229">
        <ele>229</ele>
        <time>2014-04-17T09:21:37Z</time>
      </trkpt>
      <trkpt lat="47.56778" lon="3.77234">
        <ele>229</ele>
        <time>2014-04-17T09:21:43Z</time>
      </trkpt>
      <trkpt lat="47.56783" lon="3.77239">
        <ele>229</ele>
        <time>2014-04-17T09:21:50Z</time>
      </trkpt>
      <trkpt lat="47.56787" lon="3.77244">
        <ele>229</ele>
        <time>2014-04-17T09:21:54Z</time>
      </trkpt>
      <trkpt lat="47.56786" lon="3.77259">
        <ele>231</ele>
        <time>2014-04-17T09:22:05Z</time>
      </trkpt>
      <trkpt lat="47.56787" lon="3.77272">
        <ele>231</ele>
        <time>2014-04-17T09:22:19Z</time>
      </trkpt>
      <trkpt lat="47.5679" lon="3.77277">
        <ele>231</ele>
        <time>2014-04-17T09:22:24Z</time>
      </trkpt>
      <trkpt lat="47.5679" lon="3.77284">
        <ele>231</ele>
        <time>2014-04-17T09:22:30Z</time>
      </trkpt>
      <trkpt lat="47.56789" lon="3.77292">
        <ele>231</ele>
        <time>2014-04-17T09:22:34Z</time>
      </trkpt>
      <trkpt lat="47.56787" lon="3.77299">
        <ele>231</ele>
        <time>2014-04-17T09:22:38Z</time>
      </trkpt>
      <trkpt lat="47.56779" lon="3.77312">
        <ele>231</ele>
        <time>2014-04-17T09:22:42Z</time>
      </trkpt>
      <trkpt lat="47.56782" lon="3.77325">
        <ele>232</ele>
        <time>2014-04-17T09:22:54Z</time>
      </trkpt>
      <trkpt lat="47.5678" lon="3.77333">
        <ele>232</ele>
        <time>2014-04-17T09:23:00Z</time>
      </trkpt>
      <trkpt lat="47.56775" lon="3.77337">
        <ele>228</ele>
        <time>2014-04-17T09:23:04Z</time>
      </trkpt>
      <trkpt lat="47.56769" lon="3.77337">
        <ele>229</ele>
        <time>2014-04-17T09:23:11Z</time>
      </trkpt>
      <trkpt lat="47.56765" lon="3.77338">
        <ele>230</ele>
        <time>2014-04-17T09:23:15Z</time>
      </trkpt>
      <trkpt lat="47.56755" lon="3.77335">
        <ele>232</ele>
        <time>2014-04-17T09:23:24Z</time>
      </trkpt>
      <trkpt lat="47.5675" lon="3.77333">
        <ele>234</ele>
        <time>2014-04-17T09:23:27Z</time>
      </trkpt>
      <trkpt lat="47.56745" lon="3.77334">
        <ele>231</ele>
        <time>2014-04-17T09:23:30Z</time>
      </trkpt>
      <trkpt lat="47.5674" lon="3.77333">
        <ele>233</ele>
        <time>2014-04-17T09:23:35Z</time>
      </trkpt>
      <trkpt lat="47.56735" lon="3.7733">
        <ele>233</ele>
        <time>2014-04-17T09:23:41Z</time>
      </trkpt>
      <trkpt lat="47.5673" lon="3.77328">
        <ele>232</ele>
        <time>2014-04-17T09:23:46Z</time>
      </trkpt>
      <trkpt lat="47.56725" lon="3.77328">
        <ele>232</ele>
        <time>2014-04-17T09:23:51Z</time>
      </trkpt>
      <trkpt lat="47.5672" lon="3.77326">
        <ele>232</ele>
        <time>2014-04-17T09:23:55Z</time>
      </trkpt>
      <trkpt lat="47.56714" lon="3.77325">
        <ele>232</ele>
        <time>2014-04-17T09:23:59Z</time>
      </trkpt>
      <trkpt lat="47.56709" lon="3.77322">
        <ele>231</ele>
        <time>2014-04-17T09:24:03Z</time>
      </trkpt>
      <trkpt lat="47.56703" lon="3.77321">
        <ele>231</ele>
        <time>2014-04-17T09:24:08Z</time>
      </trkpt>
      <trkpt lat="47.56699" lon="3.77318">
        <ele>231</ele>
        <time>2014-04-17T09:24:14Z</time>
      </trkpt>
      <trkpt lat="47.56695" lon="3.77313">
        <ele>231</ele>
        <time>2014-04-17T09:24:21Z</time>
      </trkpt>
      <trkpt lat="47.5669" lon="3.77311">
        <ele>230</ele>
        <time>2014-04-17T09:24:27Z</time>
      </trkpt>
      <trkpt lat="47.56685" lon="3.77309">
        <ele>230</ele>
        <time>2014-04-17T09:24:31Z</time>
      </trkpt>
      <trkpt lat="47.5668" lon="3.77309">
        <ele>230</ele>
        <time>2014-04-17T09:24:37Z</time>
      </trkpt>
      <trkpt lat="47.56675" lon="3.77308">
        <ele>230</ele>
        <time>2014-04-17T09:24:41Z</time>
      </trkpt>
      <trkpt lat="47.5667" lon="3.77307">
        <ele>230</ele>
        <time>2014-04-17T09:24:44Z</time>
      </trkpt>
      <trkpt lat="47.56661" lon="3.7729">
        <ele>227</ele>
        <time>2014-04-17T09:25:56Z</time>
      </trkpt>
      <trkpt lat="47.5666" lon="3.77283">
        <ele>227</ele>
        <time>2014-04-17T09:26:02Z</time>
      </trkpt>
      <trkpt lat="47.56653" lon="3.77262">
        <ele>229</ele>
        <time>2014-04-17T09:26:15Z</time>
      </trkpt>
      <trkpt lat="47.56651" lon="3.77254">
        <ele>230</ele>
        <time>2014-04-17T09:26:19Z</time>
      </trkpt>
      <trkpt lat="47.56647" lon="3.77215">
        <ele>231</ele>
        <time>2014-04-17T09:26:43Z</time>
      </trkpt>
      <trkpt lat="47.56645" lon="3.77209">
        <ele>231</ele>
        <time>2014-04-17T09:26:46Z</time>
      </trkpt>
      <trkpt lat="47.56642" lon="3.77195">
        <ele>230</ele>
        <time>2014-04-17T09:26:55Z</time>
      </trkpt>
      <trkpt lat="47.56644" lon="3.77188">
        <ele>230</ele>
        <time>2014-04-17T09:27:00Z</time>
      </trkpt>
      <trkpt lat="47.56647" lon="3.77183">
        <ele>230</ele>
        <time>2014-04-17T09:27:03Z</time>
      </trkpt>
      <trkpt lat="47.56651" lon="3.77176">
        <ele>230</ele>
        <time>2014-04-17T09:27:07Z</time>
      </trkpt>
      <trkpt lat="47.56655" lon="3.77173">
        <ele>230</ele>
        <time>2014-04-17T09:27:12Z</time>
      </trkpt>
      <trkpt lat="47.5666" lon="3.77173">
        <ele>230</ele>
        <time>2014-04-17T09:27:16Z</time>
      </trkpt>
      <trkpt lat="47.56705" lon="3.77187">
        <ele>231</ele>
        <time>2014-04-17T09:28:01Z</time>
      </trkpt>
      <trkpt lat="47.5671" lon="3.77185">
        <ele>231</ele>
        <time>2014-04-17T09:28:26Z</time>
      </trkpt>
      <trkpt lat="47.56713" lon="3.77183">
        <ele>231</ele>
        <time>2014-04-17T09:28:39Z</time>
      </trkpt>
      <trkpt lat="47.56712" lon="3.77188">
        <ele>231</ele>
        <time>2014-04-17T09:29:00Z</time>
      </trkpt>
      <trkpt lat="47.56717" lon="3.7719">
        <ele>231</ele>
        <time>2014-04-17T09:29:07Z</time>
      </trkpt>
      <trkpt lat="47.56719" lon="3.77189">
        <ele>231</ele>
        <time>2014-04-17T09:29:24Z</time>
      </trkpt>
      <trkpt lat="47.56724" lon="3.77191">
        <ele>231</ele>
        <time>2014-04-17T09:29:30Z</time>
      </trkpt>
      <trkpt lat="47.56732" lon="3.77193">
        <ele>231</ele>
        <time>2014-04-17T09:29:50Z</time>
      </trkpt>
      <trkpt lat="47.56736" lon="3.77194">
        <ele>231</ele>
        <time>2014-04-17T09:29:58Z</time>
      </trkpt>
      <trkpt lat="47.56741" lon="3.77196">
        <ele>231</ele>
        <time>2014-04-17T09:30:08Z</time>
      </trkpt>
      <trkpt lat="47.56743" lon="3.77197">
        <ele>231</ele>
        <time>2014-04-17T09:30:24Z</time>
      </trkpt>
      <trkpt lat="47.56747" lon="3.77198">
        <ele>231</ele>
        <time>2014-04-17T09:30:34Z</time>
      </trkpt>
      <trkpt lat="47.5675" lon="3.77196">
        <ele>231</ele>
        <time>2014-04-17T09:30:44Z</time>
      </trkpt>
      <trkpt lat="47.56755" lon="3.77196">
        <ele>229</ele>
        <time>2014-04-17T09:30:49Z</time>
      </trkpt>
      <trkpt lat="47.56758" lon="3.77195">
        <ele>229</ele>
        <time>2014-04-17T09:30:56Z</time>
      </trkpt>
      <trkpt lat="47.56763" lon="3.77199">
        <ele>229</ele>
        <time>2014-04-17T09:31:02Z</time>
      </trkpt>
      <trkpt lat="47.56767" lon="3.77201">
        <ele>228</ele>
        <time>2014-04-17T09:31:05Z</time>
      </trkpt>
      <trkpt lat="47.56771" lon="3.77205">
        <ele>228</ele>
        <time>2014-04-17T09:31:15Z</time>
      </trkpt>
      <trkpt lat="47.56776" lon="3.77202">
        <ele>228</ele>
        <time>2014-04-17T09:31:39Z</time>
      </trkpt>
      <trkpt lat="47.5678" lon="3.77198">
        <ele>228</ele>
        <time>2014-04-17T09:31:45Z</time>
      </trkpt>
      <trkpt lat="47.56784" lon="3.77194">
        <ele>228</ele>
        <time>2014-04-17T09:31:50Z</time>
      </trkpt>
      <trkpt lat="47.56785" lon="3.77187">
        <ele>227</ele>
        <time>2014-04-17T09:31:55Z</time>
      </trkpt>
      <trkpt lat="47.56788" lon="3.77181">
        <ele>227</ele>
        <time>2014-04-17T09:32:02Z</time>
      </trkpt>
      <trkpt lat="47.56786" lon="3.77165">
        <ele>225</ele>
        <time>2014-04-17T09:32:11Z</time>
      </trkpt>
      <trkpt lat="47.56787" lon="3.7715">
        <ele>225</ele>
        <time>2014-04-17T09:32:17Z</time>
      </trkpt>
      <trkpt lat="47.56789" lon="3.77144">
        <ele>225</ele>
        <time>2014-04-17T09:32:22Z</time>
      </trkpt>
      <trkpt lat="47.56789" lon="3.77136">
        <ele>224</ele>
        <time>2014-04-17T09:32:27Z</time>
      </trkpt>
      <trkpt lat="47.56792" lon="3.7713">
        <ele>224</ele>
        <time>2014-04-17T09:32:32Z</time>
      </trkpt>
      <trkpt lat="47.56792" lon="3.77123">
        <ele>224</ele>
        <time>2014-04-17T09:32:38Z</time>
      </trkpt>
      <trkpt lat="47.56795" lon="3.77117">
        <ele>224</ele>
        <time>2014-04-17T09:32:42Z</time>
      </trkpt>
      <trkpt lat="47.56799" lon="3.77112">
        <ele>224</ele>
        <time>2014-04-17T09:32:44Z</time>
      </trkpt>
      <trkpt lat="47.56802" lon="3.77106">
        <ele>224</ele>
        <time>2014-04-17T09:32:48Z</time>
      </trkpt>
      <trkpt lat="47.56802" lon="3.77098">
        <ele>224</ele>
        <time>2014-04-17T09:32:52Z</time>
      </trkpt>
      <trkpt lat="47.56807" lon="3.77085">
        <ele>223</ele>
        <time>2014-04-17T09:33:01Z</time>
      </trkpt>
      <trkpt lat="47.5681" lon="3.7708">
        <ele>222</ele>
        <time>2014-04-17T09:33:04Z</time>
      </trkpt>
      <trkpt lat="47.56813" lon="3.77072">
        <ele>222</ele>
        <time>2014-04-17T09:33:08Z</time>
      </trkpt>
      <trkpt lat="47.56813" lon="3.77065">
        <ele>222</ele>
        <time>2014-04-17T09:33:11Z</time>
      </trkpt>
      <trkpt lat="47.56809" lon="3.77051">
        <ele>222</ele>
        <time>2014-04-17T09:33:18Z</time>
      </trkpt>
      <trkpt lat="47.56812" lon="3.77045">
        <ele>222</ele>
        <time>2014-04-17T09:33:22Z</time>
      </trkpt>
      <trkpt lat="47.56815" lon="3.77039">
        <ele>221</ele>
        <time>2014-04-17T09:33:27Z</time>
      </trkpt>
      <trkpt lat="47.56821" lon="3.77022">
        <ele>221</ele>
        <time>2014-04-17T09:33:36Z</time>
      </trkpt>
      <trkpt lat="47.56828" lon="3.77012">
        <ele>220</ele>
        <time>2014-04-17T09:33:43Z</time>
      </trkpt>
      <trkpt lat="47.56829" lon="3.77004">
        <ele>219</ele>
        <time>2014-04-17T09:33:48Z</time>
      </trkpt>
      <trkpt lat="47.56835" lon="3.76993">
        <ele>217</ele>
        <time>2014-04-17T09:33:55Z</time>
      </trkpt>
      <trkpt lat="47.56837" lon="3.76986">
        <ele>217</ele>
        <time>2014-04-17T09:34:00Z</time>
      </trkpt>
      <trkpt lat="47.56837" lon="3.76971">
        <ele>216</ele>
        <time>2014-04-17T09:34:09Z</time>
      </trkpt>
      <trkpt lat="47.56833" lon="3.76958">
        <ele>218</ele>
        <time>2014-04-17T09:34:22Z</time>
      </trkpt>
      <trkpt lat="47.56835" lon="3.76951">
        <ele>216</ele>
        <time>2014-04-17T09:34:28Z</time>
      </trkpt>
      <trkpt lat="47.56837" lon="3.76945">
        <ele>215</ele>
        <time>2014-04-17T09:34:31Z</time>
      </trkpt>
      <trkpt lat="47.56836" lon="3.76922">
        <ele>215</ele>
        <time>2014-04-17T09:34:41Z</time>
      </trkpt>
      <trkpt lat="47.56833" lon="3.76914">
        <ele>215</ele>
        <time>2014-04-17T09:34:46Z</time>
      </trkpt>
      <trkpt lat="47.5683" lon="3.76909">
        <ele>214</ele>
        <time>2014-04-17T09:34:49Z</time>
      </trkpt>
      <trkpt lat="47.5683" lon="3.76901">
        <ele>214</ele>
        <time>2014-04-17T09:34:52Z</time>
      </trkpt>
      <trkpt lat="47.56825" lon="3.76898">
        <ele>213</ele>
        <time>2014-04-17T09:35:01Z</time>
      </trkpt>
      <trkpt lat="47.56826" lon="3.76901">
        <ele>214</ele>
        <time>2014-04-17T09:35:17Z</time>
      </trkpt>
      <trkpt lat="47.56833" lon="3.76898">
        <ele>213</ele>
        <time>2014-04-17T09:36:00Z</time>
      </trkpt>
      <trkpt lat="47.56837" lon="3.76893">
        <ele>214</ele>
        <time>2014-04-17T09:36:04Z</time>
      </trkpt>
      <trkpt lat="47.56845" lon="3.76886">
        <ele>213</ele>
        <time>2014-04-17T09:36:16Z</time>
      </trkpt>
      <trkpt lat="47.56848" lon="3.76891">
        <ele>213</ele>
        <time>2014-04-17T09:36:20Z</time>
      </trkpt>
      <trkpt lat="47.56851" lon="3.76898">
        <ele>214</ele>
        <time>2014-04-17T09:36:27Z</time>
      </trkpt>
      <trkpt lat="47.56856" lon="3.769">
        <ele>214</ele>
        <time>2014-04-17T09:36:33Z</time>
      </trkpt>
      <trkpt lat="47.56861" lon="3.769">
        <ele>214</ele>
        <time>2014-04-17T09:36:37Z</time>
      </trkpt>
      <trkpt lat="47.56865" lon="3.76905">
        <ele>214</ele>
        <time>2014-04-17T09:36:42Z</time>
      </trkpt>
      <trkpt lat="47.56862" lon="3.76905">
        <ele>214</ele>
        <time>2014-04-17T09:37:06Z</time>
      </trkpt>
      <trkpt lat="47.56858" lon="3.76901">
        <ele>214</ele>
        <time>2014-04-17T09:37:10Z</time>
      </trkpt>
      <trkpt lat="47.56854" lon="3.76889">
        <ele>213</ele>
        <time>2014-04-17T09:37:34Z</time>
      </trkpt>
      <trkpt lat="47.56861" lon="3.76881">
        <ele>213</ele>
        <time>2014-04-17T09:37:43Z</time>
      </trkpt>
      <trkpt lat="47.56863" lon="3.76882">
        <ele>213</ele>
        <time>2014-04-17T09:38:00Z</time>
      </trkpt>
      <trkpt lat="47.56873" lon="3.76883">
        <ele>213</ele>
        <time>2014-04-17T09:38:17Z</time>
      </trkpt>
      <trkpt lat="47.5688" lon="3.76892">
        <ele>214</ele>
        <time>2014-04-17T09:38:25Z</time>
      </trkpt>
      <trkpt lat="47.56881" lon="3.76891">
        <ele>214</ele>
        <time>2014-04-17T09:38:40Z</time>
      </trkpt>
      <trkpt lat="47.56887" lon="3.76889">
        <ele>214</ele>
        <time>2014-04-17T09:38:47Z</time>
      </trkpt>
      <trkpt lat="47.56892" lon="3.76894">
        <ele>214</ele>
        <time>2014-04-17T09:38:50Z</time>
      </trkpt>
      <trkpt lat="47.56896" lon="3.76897">
        <ele>214</ele>
        <time>2014-04-17T09:38:54Z</time>
      </trkpt>
      <trkpt lat="47.56902" lon="3.76899">
        <ele>214</ele>
        <time>2014-04-17T09:38:58Z</time>
      </trkpt>
      <trkpt lat="47.56913" lon="3.76907">
        <ele>214</ele>
        <time>2014-04-17T09:39:14Z</time>
      </trkpt>
      <trkpt lat="47.56918" lon="3.76908">
        <ele>214</ele>
        <time>2014-04-17T09:39:22Z</time>
      </trkpt>
      <trkpt lat="47.56927" lon="3.76914">
        <ele>213</ele>
        <time>2014-04-17T09:39:45Z</time>
      </trkpt>
      <trkpt lat="47.56929" lon="3.7692">
        <ele>212</ele>
        <time>2014-04-17T09:39:50Z</time>
      </trkpt>
      <trkpt lat="47.56934" lon="3.76923">
        <ele>211</ele>
        <time>2014-04-17T09:39:54Z</time>
      </trkpt>
      <trkpt lat="47.56939" lon="3.76924">
        <ele>210</ele>
        <time>2014-04-17T09:39:59Z</time>
      </trkpt>
      <trkpt lat="47.56938" lon="3.76917">
        <ele>211</ele>
        <time>2014-04-17T09:40:09Z</time>
      </trkpt>
      <trkpt lat="47.56933" lon="3.76917">
        <ele>211</ele>
        <time>2014-04-17T09:40:12Z</time>
      </trkpt>
      <trkpt lat="47.56926" lon="3.76919">
        <ele>212</ele>
        <time>2014-04-17T09:40:33Z</time>
      </trkpt>
      <trkpt lat="47.5692" lon="3.76916">
        <ele>214</ele>
        <time>2014-04-17T09:40:37Z</time>
      </trkpt>
      <trkpt lat="47.56915" lon="3.76916">
        <ele>214</ele>
        <time>2014-04-17T09:40:41Z</time>
      </trkpt>
      <trkpt lat="47.56913" lon="3.76916">
        <ele>214</ele>
        <time>2014-04-17T09:40:59Z</time>
      </trkpt>
      <trkpt lat="47.56904" lon="3.76922">
        <ele>214</ele>
        <time>2014-04-17T09:41:05Z</time>
      </trkpt>
      <trkpt lat="47.56902" lon="3.76916">
        <ele>214</ele>
        <time>2014-04-17T09:41:17Z</time>
      </trkpt>
      <trkpt lat="47.56901" lon="3.76909">
        <ele>214</ele>
        <time>2014-04-17T09:41:21Z</time>
      </trkpt>
      <trkpt lat="47.56896" lon="3.76894">
        <ele>214</ele>
        <time>2014-04-17T09:41:30Z</time>
      </trkpt>
      <trkpt lat="47.56897" lon="3.76887">
        <ele>214</ele>
        <time>2014-04-17T09:41:33Z</time>
      </trkpt>
      <trkpt lat="47.56897" lon="3.76879">
        <ele>214</ele>
        <time>2014-04-17T09:41:38Z</time>
      </trkpt>
      <trkpt lat="47.56894" lon="3.76869">
        <ele>214</ele>
        <time>2014-04-17T09:41:42Z</time>
      </trkpt>
      <trkpt lat="47.5689" lon="3.76862">
        <ele>214</ele>
        <time>2014-04-17T09:41:45Z</time>
      </trkpt>
      <trkpt lat="47.56882" lon="3.76852">
        <ele>213</ele>
        <time>2014-04-17T09:41:54Z</time>
      </trkpt>
      <trkpt lat="47.56879" lon="3.76848">
        <ele>213</ele>
        <time>2014-04-17T09:41:58Z</time>
      </trkpt>
      <trkpt lat="47.56873" lon="3.76844">
        <ele>213</ele>
        <time>2014-04-17T09:42:03Z</time>
      </trkpt>
      <trkpt lat="47.56866" lon="3.76835">
        <ele>212</ele>
        <time>2014-04-17T09:42:13Z</time>
      </trkpt>
      <trkpt lat="47.56864" lon="3.76827">
        <ele>211</ele>
        <time>2014-04-17T09:42:18Z</time>
      </trkpt>
      <trkpt lat="47.56867" lon="3.76819">
        <ele>212</ele>
        <time>2014-04-17T09:42:22Z</time>
      </trkpt>
      <trkpt lat="47.56867" lon="3.76811">
        <ele>212</ele>
        <time>2014-04-17T09:42:26Z</time>
      </trkpt>
      <trkpt lat="47.56866" lon="3.76803">
        <ele>212</ele>
        <time>2014-04-17T09:42:31Z</time>
      </trkpt>
      <trkpt lat="47.56866" lon="3.76797">
        <ele>212</ele>
        <time>2014-04-17T09:42:34Z</time>
      </trkpt>
      <trkpt lat="47.56866" lon="3.7679">
        <ele>212</ele>
        <time>2014-04-17T09:42:37Z</time>
      </trkpt>
      <trkpt lat="47.56864" lon="3.76783">
        <ele>212</ele>
        <time>2014-04-17T09:42:40Z</time>
      </trkpt>
      <trkpt lat="47.56861" lon="3.76778">
        <ele>211</ele>
        <time>2014-04-17T09:42:44Z</time>
      </trkpt>
      <trkpt lat="47.56857" lon="3.76773">
        <ele>211</ele>
        <time>2014-04-17T09:42:49Z</time>
      </trkpt>
      <trkpt lat="47.56855" lon="3.76766">
        <ele>211</ele>
        <time>2014-04-17T09:42:53Z</time>
      </trkpt>
      <trkpt lat="47.56851" lon="3.76762">
        <ele>210</ele>
        <time>2014-04-17T09:42:56Z</time>
      </trkpt>
      <trkpt lat="47.56846" lon="3.76748">
        <ele>210</ele>
        <time>2014-04-17T09:43:04Z</time>
      </trkpt>
      <trkpt lat="47.56844" lon="3.76741">
        <ele>210</ele>
        <time>2014-04-17T09:43:08Z</time>
      </trkpt>
      <trkpt lat="47.56837" lon="3.7673">
        <ele>211</ele>
        <time>2014-04-17T09:43:18Z</time>
      </trkpt>
      <trkpt lat="47.56831" lon="3.76725">
        <ele>203</ele>
        <time>2014-04-17T09:43:23Z</time>
      </trkpt>
      <trkpt lat="47.56832" lon="3.76729">
        <ele>204</ele>
        <time>2014-04-17T09:43:43Z</time>
      </trkpt>
      <trkpt lat="47.56836" lon="3.76733">
        <ele>210</ele>
        <time>2014-04-17T09:43:49Z</time>
      </trkpt>
      <trkpt lat="47.56838" lon="3.76739">
        <ele>210</ele>
        <time>2014-04-17T09:43:55Z</time>
      </trkpt>
      <trkpt lat="47.56841" lon="3.76753">
        <ele>209</ele>
        <time>2014-04-17T09:44:07Z</time>
      </trkpt>
      <trkpt lat="47.56851" lon="3.76774">
        <ele>211</ele>
        <time>2014-04-17T09:44:20Z</time>
      </trkpt>
      <trkpt lat="47.56852" lon="3.7678">
        <ele>211</ele>
        <time>2014-04-17T09:44:24Z</time>
      </trkpt>
      <trkpt lat="47.56851" lon="3.76783">
        <ele>211</ele>
        <time>2014-04-17T09:44:30Z</time>
      </trkpt>
      <trkpt lat="47.56847" lon="3.76782">
        <ele>211</ele>
        <time>2014-04-17T09:44:38Z</time>
      </trkpt>
      <trkpt lat="47.56843" lon="3.76783">
        <ele>211</ele>
        <time>2014-04-17T09:44:55Z</time>
      </trkpt>
      <trkpt lat="47.56838" lon="3.76783">
        <ele>210</ele>
        <time>2014-04-17T09:44:59Z</time>
      </trkpt>
      <trkpt lat="47.56822" lon="3.7678">
        <ele>204</ele>
        <time>2014-04-17T09:45:13Z</time>
      </trkpt>
      <trkpt lat="47.56816" lon="3.76784">
        <ele>204</ele>
        <time>2014-04-17T09:45:16Z</time>
      </trkpt>
      <trkpt lat="47.56811" lon="3.76789">
        <ele>204</ele>
        <time>2014-04-17T09:45:18Z</time>
      </trkpt>
      <trkpt lat="47.56806" lon="3.76793">
        <ele>204</ele>
        <time>2014-04-17T09:45:20Z</time>
      </trkpt>
      <trkpt lat="47.56803" lon="3.76792">
        <ele>204</ele>
        <time>2014-04-17T09:45:22Z</time>
      </trkpt>
      <trkpt lat="47.56801" lon="3.76789">
        <ele>203</ele>
        <time>2014-04-17T09:45:24Z</time>
      </trkpt>
      <trkpt lat="47.56797" lon="3.76785">
        <ele>203</ele>
        <time>2014-04-17T09:45:28Z</time>
      </trkpt>
      <trkpt lat="47.56793" lon="3.76779">
        <ele>202</ele>
        <time>2014-04-17T09:45:32Z</time>
      </trkpt>
      <trkpt lat="47.56788" lon="3.76776">
        <ele>202</ele>
        <time>2014-04-17T09:45:35Z</time>
      </trkpt>
      <trkpt lat="47.56785" lon="3.7677">
        <ele>201</ele>
        <time>2014-04-17T09:45:38Z</time>
      </trkpt>
      <trkpt lat="47.5678" lon="3.76765">
        <ele>200</ele>
        <time>2014-04-17T09:45:41Z</time>
      </trkpt>
      <trkpt lat="47.56774" lon="3.76763">
        <ele>199</ele>
        <time>2014-04-17T09:45:44Z</time>
      </trkpt>
      <trkpt lat="47.5677" lon="3.7676">
        <ele>199</ele>
        <time>2014-04-17T09:45:46Z</time>
      </trkpt>
      <trkpt lat="47.56766" lon="3.76756">
        <ele>197</ele>
        <time>2014-04-17T09:45:48Z</time>
      </trkpt>
      <trkpt lat="47.56763" lon="3.76749">
        <ele>195</ele>
        <time>2014-04-17T09:45:50Z</time>
      </trkpt>
      <trkpt lat="47.56755" lon="3.76721">
        <ele>196</ele>
        <time>2014-04-17T09:46:03Z</time>
      </trkpt>
      <trkpt lat="47.56752" lon="3.76713">
        <ele>197</ele>
        <time>2014-04-17T09:46:06Z</time>
      </trkpt>
      <trkpt lat="47.5675" lon="3.76705">
        <ele>197</ele>
        <time>2014-04-17T09:46:09Z</time>
      </trkpt>
      <trkpt lat="47.56747" lon="3.767">
        <ele>185</ele>
        <time>2014-04-17T09:46:12Z</time>
      </trkpt>
      <trkpt lat="47.56743" lon="3.76696">
        <ele>185</ele>
        <time>2014-04-17T09:46:16Z</time>
      </trkpt>
      <trkpt lat="47.56732" lon="3.76696">
        <ele>184</ele>
        <time>2014-04-17T09:46:23Z</time>
      </trkpt>
      <trkpt lat="47.56726" lon="3.76697">
        <ele>183</ele>
        <time>2014-04-17T09:46:27Z</time>
      </trkpt>
      <trkpt lat="47.5672" lon="3.76699">
        <ele>182</ele>
        <time>2014-04-17T09:46:30Z</time>
      </trkpt>
      <trkpt lat="47.56715" lon="3.767">
        <ele>181</ele>
        <time>2014-04-17T09:46:33Z</time>
      </trkpt>
      <trkpt lat="47.56714" lon="3.76693">
        <ele>181</ele>
        <time>2014-04-17T09:46:39Z</time>
      </trkpt>
      <trkpt lat="47.56711" lon="3.76687">
        <ele>181</ele>
        <time>2014-04-17T09:46:43Z</time>
      </trkpt>
      <trkpt lat="47.56706" lon="3.76685">
        <ele>180</ele>
        <time>2014-04-17T09:46:48Z</time>
      </trkpt>
      <trkpt lat="47.56697" lon="3.76687">
        <ele>178</ele>
        <time>2014-04-17T09:46:52Z</time>
      </trkpt>
      <trkpt lat="47.56692" lon="3.76688">
        <ele>177</ele>
        <time>2014-04-17T09:46:55Z</time>
      </trkpt>
      <trkpt lat="47.56687" lon="3.76686">
        <ele>176</ele>
        <time>2014-04-17T09:46:58Z</time>
      </trkpt>
      <trkpt lat="47.56681" lon="3.76684">
        <ele>175</ele>
        <time>2014-04-17T09:47:01Z</time>
      </trkpt>
      <trkpt lat="47.56676" lon="3.76684">
        <ele>174</ele>
        <time>2014-04-17T09:47:03Z</time>
      </trkpt>
      <trkpt lat="47.56671" lon="3.76684">
        <ele>173</ele>
        <time>2014-04-17T09:47:06Z</time>
      </trkpt>
      <trkpt lat="47.56665" lon="3.76681">
        <ele>164</ele>
        <time>2014-04-17T09:47:09Z</time>
      </trkpt>
      <trkpt lat="47.56659" lon="3.7668">
        <ele>164</ele>
        <time>2014-04-17T09:47:13Z</time>
      </trkpt>
      <trkpt lat="47.56648" lon="3.76689">
        <ele>163</ele>
        <time>2014-04-17T09:47:19Z</time>
      </trkpt>
      <trkpt lat="47.56642" lon="3.76683">
        <ele>162</ele>
        <time>2014-04-17T09:47:22Z</time>
      </trkpt>
      <trkpt lat="47.56643" lon="3.76675">
        <ele>162</ele>
        <time>2014-04-17T09:47:32Z</time>
      </trkpt>
      <trkpt lat="47.56637" lon="3.76675">
        <ele>161</ele>
        <time>2014-04-17T09:47:40Z</time>
      </trkpt>
      <trkpt lat="47.56635" lon="3.76682">
        <ele>161</ele>
        <time>2014-04-17T09:48:24Z</time>
      </trkpt>
      <trkpt lat="47.56621" lon="3.76711">
        <ele>161</ele>
        <time>2014-04-17T09:48:56Z</time>
      </trkpt>
      <trkpt lat="47.56616" lon="3.76711">
        <ele>161</ele>
        <time>2014-04-17T09:49:01Z</time>
      </trkpt>
      <trkpt lat="47.56609" lon="3.76721">
        <ele>161</ele>
        <time>2014-04-17T09:49:11Z</time>
      </trkpt>
      <trkpt lat="47.56605" lon="3.76726">
        <ele>161</ele>
        <time>2014-04-17T09:49:14Z</time>
      </trkpt>
      <trkpt lat="47.56602" lon="3.76731">
        <ele>161</ele>
        <time>2014-04-17T09:49:17Z</time>
      </trkpt>
      <trkpt lat="47.56596" lon="3.76736">
        <ele>160</ele>
        <time>2014-04-17T09:49:20Z</time>
      </trkpt>
      <trkpt lat="47.56591" lon="3.7674">
        <ele>160</ele>
        <time>2014-04-17T09:49:23Z</time>
      </trkpt>
      <trkpt lat="47.56586" lon="3.76743">
        <ele>160</ele>
        <time>2014-04-17T09:49:26Z</time>
      </trkpt>
      <trkpt lat="47.56582" lon="3.76746">
        <ele>158</ele>
        <time>2014-04-17T09:49:29Z</time>
      </trkpt>
      <trkpt lat="47.56577" lon="3.76749">
        <ele>157</ele>
        <time>2014-04-17T09:49:33Z</time>
      </trkpt>
      <trkpt lat="47.56571" lon="3.76749">
        <ele>156</ele>
        <time>2014-04-17T09:49:37Z</time>
      </trkpt>
      <trkpt lat="47.56567" lon="3.76749">
        <ele>156</ele>
        <time>2014-04-17T09:49:41Z</time>
      </trkpt>
      <trkpt lat="47.56562" lon="3.76751">
        <ele>164</ele>
        <time>2014-04-17T09:49:45Z</time>
      </trkpt>
      <trkpt lat="47.56557" lon="3.76749">
        <ele>155</ele>
        <time>2014-04-17T09:49:50Z</time>
      </trkpt>
      <trkpt lat="47.56552" lon="3.76748">
        <ele>154</ele>
        <time>2014-04-17T09:49:55Z</time>
      </trkpt>
      <trkpt lat="47.56547" lon="3.76748">
        <ele>154</ele>
        <time>2014-04-17T09:50:00Z</time>
      </trkpt>
      <trkpt lat="47.56537" lon="3.76746">
        <ele>154</ele>
        <time>2014-04-17T09:50:09Z</time>
      </trkpt>
      <trkpt lat="47.56527" lon="3.76745">
        <ele>153</ele>
        <time>2014-04-17T09:50:15Z</time>
      </trkpt>
      <trkpt lat="47.56516" lon="3.76743">
        <ele>154</ele>
        <time>2014-04-17T09:50:23Z</time>
      </trkpt>
      <trkpt lat="47.56511" lon="3.76742">
        <ele>154</ele>
        <time>2014-04-17T09:50:27Z</time>
      </trkpt>
      <trkpt lat="47.56505" lon="3.7674">
        <ele>154</ele>
        <time>2014-04-17T09:50:31Z</time>
      </trkpt>
      <trkpt lat="47.565" lon="3.7674">
        <ele>154</ele>
        <time>2014-04-17T09:50:35Z</time>
      </trkpt>
      <trkpt lat="47.56495" lon="3.76739">
        <ele>154</ele>
        <time>2014-04-17T09:50:39Z</time>
      </trkpt>
      <trkpt lat="47.56489" lon="3.76735">
        <ele>153</ele>
        <time>2014-04-17T09:50:43Z</time>
      </trkpt>
      <trkpt lat="47.56484" lon="3.76731">
        <ele>153</ele>
        <time>2014-04-17T09:50:46Z</time>
      </trkpt>
      <trkpt lat="47.56475" lon="3.76726">
        <ele>152</ele>
        <time>2014-04-17T09:50:52Z</time>
      </trkpt>
      <trkpt lat="47.56469" lon="3.76724">
        <ele>152</ele>
        <time>2014-04-17T09:50:56Z</time>
      </trkpt>
      <trkpt lat="47.56464" lon="3.76724">
        <ele>152</ele>
        <time>2014-04-17T09:51:00Z</time>
      </trkpt>
      <trkpt lat="47.56456" lon="3.76719">
        <ele>152</ele>
        <time>2014-04-17T09:51:11Z</time>
      </trkpt>
      <trkpt lat="47.56466" lon="3.76715">
        <ele>152</ele>
        <time>2014-04-17T09:51:17Z</time>
      </trkpt>
      <trkpt lat="47.56471" lon="3.76712">
        <ele>152</ele>
        <time>2014-04-17T09:51:21Z</time>
      </trkpt>
      <trkpt lat="47.56475" lon="3.76706">
        <ele>152</ele>
        <time>2014-04-17T09:51:26Z</time>
      </trkpt>
      <trkpt lat="47.56479" lon="3.76694">
        <ele>151</ele>
        <time>2014-04-17T09:51:34Z</time>
      </trkpt>
      <trkpt lat="47.56484" lon="3.7669">
        <ele>151</ele>
        <time>2014-04-17T09:51:38Z</time>
      </trkpt>
      <trkpt lat="47.56488" lon="3.76686">
        <ele>150</ele>
        <time>2014-04-17T09:51:42Z</time>
      </trkpt>
      <trkpt lat="47.56492" lon="3.7668">
        <ele>149</ele>
        <time>2014-04-17T09:51:46Z</time>
      </trkpt>
      <trkpt lat="47.56501" lon="3.76659">
        <ele>149</ele>
        <time>2014-04-17T09:51:57Z</time>
      </trkpt>
      <trkpt lat="47.56504" lon="3.76651">
        <ele>150</ele>
        <time>2014-04-17T09:52:00Z</time>
      </trkpt>
      <trkpt lat="47.56508" lon="3.76646">
        <ele>150</ele>
        <time>2014-04-17T09:52:03Z</time>
      </trkpt>
      <trkpt lat="47.56513" lon="3.76642">
        <ele>151</ele>
        <time>2014-04-17T09:52:06Z</time>
      </trkpt>
      <trkpt lat="47.56518" lon="3.76639">
        <ele>151</ele>
        <time>2014-04-17T09:52:09Z</time>
      </trkpt>
      <trkpt lat="47.56523" lon="3.76636">
        <ele>152</ele>
        <time>2014-04-17T09:52:13Z</time>
      </trkpt>
      <trkpt lat="47.56528" lon="3.76633">
        <ele>152</ele>
        <time>2014-04-17T09:52:17Z</time>
      </trkpt>
      <trkpt lat="47.56532" lon="3.7663">
        <ele>152</ele>
        <time>2014-04-17T09:52:20Z</time>
      </trkpt>
      <trkpt lat="47.56537" lon="3.76626">
        <ele>152</ele>
        <time>2014-04-17T09:52:24Z</time>
      </trkpt>
      <trkpt lat="47.5654" lon="3.76621">
        <ele>153</ele>
        <time>2014-04-17T09:52:31Z</time>
      </trkpt>
      <trkpt lat="47.56544" lon="3.76618">
        <ele>153</ele>
        <time>2014-04-17T09:52:37Z</time>
      </trkpt>
      <trkpt lat="47.56548" lon="3.76613">
        <ele>153</ele>
        <time>2014-04-17T09:52:41Z</time>
      </trkpt>
      <trkpt lat="47.56555" lon="3.76603">
        <ele>154</ele>
        <time>2014-04-17T09:52:48Z</time>
      </trkpt>
      <trkpt lat="47.56557" lon="3.76597">
        <ele>155</ele>
        <time>2014-04-17T09:52:52Z</time>
      </trkpt>
      <trkpt lat="47.56555" lon="3.76591">
        <ele>155</ele>
        <time>2014-04-17T09:52:57Z</time>
      </trkpt>
      <trkpt lat="47.56554" lon="3.76584">
        <ele>155</ele>
        <time>2014-04-17T09:53:02Z</time>
      </trkpt>
      <trkpt lat="47.56544" lon="3.76565">
        <ele>162</ele>
        <time>2014-04-17T09:53:16Z</time>
      </trkpt>
      <trkpt lat="47.56541" lon="3.76559">
        <ele>162</ele>
        <time>2014-04-17T09:53:23Z</time>
      </trkpt>
      <trkpt lat="47.56534" lon="3.76548">
        <ele>162</ele>
        <time>2014-04-17T09:53:32Z</time>
      </trkpt>
      <trkpt lat="47.5653" lon="3.76543">
        <ele>162</ele>
        <time>2014-04-17T09:53:36Z</time>
      </trkpt>
      <trkpt lat="47.56526" lon="3.76522">
        <ele>163</ele>
        <time>2014-04-17T09:53:48Z</time>
      </trkpt>
      <trkpt lat="47.56527" lon="3.76515">
        <ele>163</ele>
        <time>2014-04-17T09:53:54Z</time>
      </trkpt>
      <trkpt lat="47.56529" lon="3.76508">
        <ele>163</ele>
        <time>2014-04-17T09:53:59Z</time>
      </trkpt>
      <trkpt lat="47.56526" lon="3.76498">
        <ele>167</ele>
        <time>2014-04-17T09:54:07Z</time>
      </trkpt>
      <trkpt lat="47.56525" lon="3.76488">
        <ele>167</ele>
        <time>2014-04-17T09:54:12Z</time>
      </trkpt>
      <trkpt lat="47.56521" lon="3.76479">
        <ele>167</ele>
        <time>2014-04-17T09:54:18Z</time>
      </trkpt>
      <trkpt lat="47.56519" lon="3.76472">
        <ele>167</ele>
        <time>2014-04-17T09:54:21Z</time>
      </trkpt>
      <trkpt lat="47.56518" lon="3.76466">
        <ele>167</ele>
        <time>2014-04-17T09:54:24Z</time>
      </trkpt>
      <trkpt lat="47.56519" lon="3.76445">
        <ele>167</ele>
        <time>2014-04-17T09:54:36Z</time>
      </trkpt>
      <trkpt lat="47.56514" lon="3.76438">
        <ele>167</ele>
        <time>2014-04-17T09:54:39Z</time>
      </trkpt>
      <trkpt lat="47.56512" lon="3.76431">
        <ele>166</ele>
        <time>2014-04-17T09:54:42Z</time>
      </trkpt>
      <trkpt lat="47.5651" lon="3.76423">
        <ele>165</ele>
        <time>2014-04-17T09:54:45Z</time>
      </trkpt>
      <trkpt lat="47.56502" lon="3.76404">
        <ele>167</ele>
        <time>2014-04-17T09:54:57Z</time>
      </trkpt>
      <trkpt lat="47.565" lon="3.76396">
        <ele>166</ele>
        <time>2014-04-17T09:55:00Z</time>
      </trkpt>
      <trkpt lat="47.56497" lon="3.76372">
        <ele>168</ele>
        <time>2014-04-17T09:55:11Z</time>
      </trkpt>
      <trkpt lat="47.56492" lon="3.76367">
        <ele>168</ele>
        <time>2014-04-17T09:55:19Z</time>
      </trkpt>
      <trkpt lat="47.56488" lon="3.76362">
        <ele>169</ele>
        <time>2014-04-17T09:55:28Z</time>
      </trkpt>
      <trkpt lat="47.5649" lon="3.76354">
        <ele>169</ele>
        <time>2014-04-17T09:55:33Z</time>
      </trkpt>
      <trkpt lat="47.56487" lon="3.76344">
        <ele>168</ele>
        <time>2014-04-17T09:55:40Z</time>
      </trkpt>
      <trkpt lat="47.56481" lon="3.76322">
        <ele>170</ele>
        <time>2014-04-17T09:55:50Z</time>
      </trkpt>
      <trkpt lat="47.56479" lon="3.76315">
        <ele>170</ele>
        <time>2014-04-17T09:55:54Z</time>
      </trkpt>
      <trkpt lat="47.5648" lon="3.76309">
        <ele>170</ele>
        <time>2014-04-17T09:55:59Z</time>
      </trkpt>
      <trkpt lat="47.56481" lon="3.76302">
        <ele>170</ele>
        <time>2014-04-17T09:56:05Z</time>
      </trkpt>
      <trkpt lat="47.56482" lon="3.76294">
        <ele>170</ele>
        <time>2014-04-17T09:56:10Z</time>
      </trkpt>
      <trkpt lat="47.56487" lon="3.7626">
        <ele>170</ele>
        <time>2014-04-17T09:56:29Z</time>
      </trkpt>
      <trkpt lat="47.56487" lon="3.76251">
        <ele>170</ele>
        <time>2014-04-17T09:56:32Z</time>
      </trkpt>
      <trkpt lat="47.56489" lon="3.76244">
        <ele>170</ele>
        <time>2014-04-17T09:56:36Z</time>
      </trkpt>
      <trkpt lat="47.5649" lon="3.76237">
        <ele>170</ele>
        <time>2014-04-17T09:56:41Z</time>
      </trkpt>
      <trkpt lat="47.56488" lon="3.7623">
        <ele>171</ele>
        <time>2014-04-17T09:56:44Z</time>
      </trkpt>
      <trkpt lat="47.56494" lon="3.76217">
        <ele>171</ele>
        <time>2014-04-17T09:56:53Z</time>
      </trkpt>
      <trkpt lat="47.56496" lon="3.76209">
        <ele>171</ele>
        <time>2014-04-17T09:56:58Z</time>
      </trkpt>
      <trkpt lat="47.56495" lon="3.76201">
        <ele>171</ele>
        <time>2014-04-17T09:57:03Z</time>
      </trkpt>
      <trkpt lat="47.56491" lon="3.76191">
        <ele>171</ele>
        <time>2014-04-17T09:57:08Z</time>
      </trkpt>
      <trkpt lat="47.56484" lon="3.76177">
        <ele>172</ele>
        <time>2014-04-17T09:57:18Z</time>
      </trkpt>
      <trkpt lat="47.56478" lon="3.7617">
        <ele>172</ele>
        <time>2014-04-17T09:57:23Z</time>
      </trkpt>
      <trkpt lat="47.56476" lon="3.76138">
        <ele>173</ele>
        <time>2014-04-17T09:57:53Z</time>
      </trkpt>
      <trkpt lat="47.56471" lon="3.76132">
        <ele>173</ele>
        <time>2014-04-17T09:57:57Z</time>
      </trkpt>
      <trkpt lat="47.56467" lon="3.76129">
        <ele>173</ele>
        <time>2014-04-17T09:58:00Z</time>
      </trkpt>
      <trkpt lat="47.56461" lon="3.76125">
        <ele>173</ele>
        <time>2014-04-17T09:58:02Z</time>
      </trkpt>
      <trkpt lat="47.5646" lon="3.76117">
        <ele>173</ele>
        <time>2014-04-17T09:58:06Z</time>
      </trkpt>
      <trkpt lat="47.56461" lon="3.76106">
        <ele>173</ele>
        <time>2014-04-17T09:58:14Z</time>
      </trkpt>
      <trkpt lat="47.56434" lon="3.76081">
        <ele>174</ele>
        <time>2014-04-17T09:59:15Z</time>
      </trkpt>
      <trkpt lat="47.56429" lon="3.7608">
        <ele>173</ele>
        <time>2014-04-17T09:59:19Z</time>
      </trkpt>
      <trkpt lat="47.56424" lon="3.76077">
        <ele>173</ele>
        <time>2014-04-17T09:59:23Z</time>
      </trkpt>
      <trkpt lat="47.56413" lon="3.76071">
        <ele>173</ele>
        <time>2014-04-17T09:59:30Z</time>
      </trkpt>
      <trkpt lat="47.56409" lon="3.76069">
        <ele>173</ele>
        <time>2014-04-17T09:59:33Z</time>
      </trkpt>
      <trkpt lat="47.56403" lon="3.76067">
        <ele>174</ele>
        <time>2014-04-17T09:59:37Z</time>
      </trkpt>
      <trkpt lat="47.56398" lon="3.76064">
        <ele>174</ele>
        <time>2014-04-17T09:59:41Z</time>
      </trkpt>
      <trkpt lat="47.56393" lon="3.76061">
        <ele>175</ele>
        <time>2014-04-17T09:59:46Z</time>
      </trkpt>
      <trkpt lat="47.56388" lon="3.76061">
        <ele>175</ele>
        <time>2014-04-17T09:59:51Z</time>
      </trkpt>
      <trkpt lat="47.56383" lon="3.7606">
        <ele>175</ele>
        <time>2014-04-17T09:59:55Z</time>
      </trkpt>
      <trkpt lat="47.56373" lon="3.76055">
        <ele>176</ele>
        <time>2014-04-17T10:00:04Z</time>
      </trkpt>
      <trkpt lat="47.56368" lon="3.7605">
        <ele>176</ele>
        <time>2014-04-17T10:00:24Z</time>
      </trkpt>
      <trkpt lat="47.56363" lon="3.76049">
        <ele>177</ele>
        <time>2014-04-17T10:00:27Z</time>
      </trkpt>
      <trkpt lat="47.56359" lon="3.76044">
        <ele>177</ele>
        <time>2014-04-17T10:00:33Z</time>
      </trkpt>
      <trkpt lat="47.56361" lon="3.76037">
        <ele>177</ele>
        <time>2014-04-17T10:00:39Z</time>
      </trkpt>
      <trkpt lat="47.5637" lon="3.76032">
        <ele>177</ele>
        <time>2014-04-17T10:00:46Z</time>
      </trkpt>
      <trkpt lat="47.56392" lon="3.76053">
        <ele>175</ele>
        <time>2014-04-17T10:01:15Z</time>
      </trkpt>
      <trkpt lat="47.56397" lon="3.76057">
        <ele>175</ele>
        <time>2014-04-17T10:01:21Z</time>
      </trkpt>
      <trkpt lat="47.56402" lon="3.76058">
        <ele>175</ele>
        <time>2014-04-17T10:01:24Z</time>
      </trkpt>
      <trkpt lat="47.56401" lon="3.76051">
        <ele>175</ele>
        <time>2014-04-17T10:01:30Z</time>
      </trkpt>
      <trkpt lat="47.56397" lon="3.76048">
        <ele>176</ele>
        <time>2014-04-17T10:01:39Z</time>
      </trkpt>
      <trkpt lat="47.56391" lon="3.76046">
        <ele>176</ele>
        <time>2014-04-17T10:01:50Z</time>
      </trkpt>
      <trkpt lat="47.56386" lon="3.76043">
        <ele>176</ele>
        <time>2014-04-17T10:01:53Z</time>
      </trkpt>
      <trkpt lat="47.56378" lon="3.76034">
        <ele>177</ele>
        <time>2014-04-17T10:02:02Z</time>
      </trkpt>
      <trkpt lat="47.56373" lon="3.76032">
        <ele>177</ele>
        <time>2014-04-17T10:02:08Z</time>
      </trkpt>
      <trkpt lat="47.56368" lon="3.76032">
        <ele>177</ele>
        <time>2014-04-17T10:02:12Z</time>
      </trkpt>
      <trkpt lat="47.56354" lon="3.76025">
        <ele>178</ele>
        <time>2014-04-17T10:02:21Z</time>
      </trkpt>
      <trkpt lat="47.56349" lon="3.76022">
        <ele>178</ele>
        <time>2014-04-17T10:02:24Z</time>
      </trkpt>
      <trkpt lat="47.56344" lon="3.76021">
        <ele>178</ele>
        <time>2014-04-17T10:02:27Z</time>
      </trkpt>
      <trkpt lat="47.56338" lon="3.7602">
        <ele>179</ele>
        <time>2014-04-17T10:02:31Z</time>
      </trkpt>
      <trkpt lat="47.56329" lon="3.76014">
        <ele>180</ele>
        <time>2014-04-17T10:02:40Z</time>
      </trkpt>
      <trkpt lat="47.56324" lon="3.76014">
        <ele>180</ele>
        <time>2014-04-17T10:02:43Z</time>
      </trkpt>
      <trkpt lat="47.56314" lon="3.76015">
        <ele>180</ele>
        <time>2014-04-17T10:02:53Z</time>
      </trkpt>
      <trkpt lat="47.56308" lon="3.76014">
        <ele>180</ele>
        <time>2014-04-17T10:02:58Z</time>
      </trkpt>
      <trkpt lat="47.56304" lon="3.76009">
        <ele>180</ele>
        <time>2014-04-17T10:03:03Z</time>
      </trkpt>
      <trkpt lat="47.56294" lon="3.7601">
        <ele>180</ele>
        <time>2014-04-17T10:03:13Z</time>
      </trkpt>
      <trkpt lat="47.5629" lon="3.76009">
        <ele>180</ele>
        <time>2014-04-17T10:03:22Z</time>
      </trkpt>
      <trkpt lat="47.56286" lon="3.76013">
        <ele>180</ele>
        <time>2014-04-17T10:03:28Z</time>
      </trkpt>
      <trkpt lat="47.56276" lon="3.76017">
        <ele>180</ele>
        <time>2014-04-17T10:03:40Z</time>
      </trkpt>
      <trkpt lat="47.56271" lon="3.7602">
        <ele>180</ele>
        <time>2014-04-17T10:03:43Z</time>
      </trkpt>
      <trkpt lat="47.56266" lon="3.7602">
        <ele>180</ele>
        <time>2014-04-17T10:03:48Z</time>
      </trkpt>
      <trkpt lat="47.56261" lon="3.76023">
        <ele>180</ele>
        <time>2014-04-17T10:03:52Z</time>
      </trkpt>
      <trkpt lat="47.56257" lon="3.76023">
        <ele>180</ele>
        <time>2014-04-17T10:03:55Z</time>
      </trkpt>
      <trkpt lat="47.56251" lon="3.76024">
        <ele>180</ele>
        <time>2014-04-17T10:03:59Z</time>
      </trkpt>
      <trkpt lat="47.56247" lon="3.76025">
        <ele>180</ele>
        <time>2014-04-17T10:04:03Z</time>
      </trkpt>
      <trkpt lat="47.56243" lon="3.76028">
        <ele>180</ele>
        <time>2014-04-17T10:04:08Z</time>
      </trkpt>
      <trkpt lat="47.56237" lon="3.76028">
        <ele>180</ele>
        <time>2014-04-17T10:04:14Z</time>
      </trkpt>
      <trkpt lat="47.56233" lon="3.7603">
        <ele>179</ele>
        <time>2014-04-17T10:04:18Z</time>
      </trkpt>
      <trkpt lat="47.56222" lon="3.7603">
        <ele>179</ele>
        <time>2014-04-17T10:04:26Z</time>
      </trkpt>
      <trkpt lat="47.5621" lon="3.76027">
        <ele>179</ele>
        <time>2014-04-17T10:04:33Z</time>
      </trkpt>
      <trkpt lat="47.56204" lon="3.76024">
        <ele>179</ele>
        <time>2014-04-17T10:04:36Z</time>
      </trkpt>
      <trkpt lat="47.562" lon="3.76022">
        <ele>179</ele>
        <time>2014-04-17T10:04:39Z</time>
      </trkpt>
      <trkpt lat="47.56195" lon="3.7602">
        <ele>179</ele>
        <time>2014-04-17T10:04:43Z</time>
      </trkpt>
      <trkpt lat="47.56189" lon="3.76021">
        <ele>179</ele>
        <time>2014-04-17T10:04:47Z</time>
      </trkpt>
      <trkpt lat="47.56184" lon="3.76019">
        <ele>179</ele>
        <time>2014-04-17T10:04:53Z</time>
      </trkpt>
      <trkpt lat="47.5618" lon="3.76015">
        <ele>179</ele>
        <time>2014-04-17T10:04:57Z</time>
      </trkpt>
      <trkpt lat="47.56176" lon="3.76012">
        <ele>179</ele>
        <time>2014-04-17T10:05:00Z</time>
      </trkpt>
      <trkpt lat="47.56172" lon="3.76007">
        <ele>179</ele>
        <time>2014-04-17T10:05:04Z</time>
      </trkpt>
      <trkpt lat="47.56169" lon="3.75999">
        <ele>180</ele>
        <time>2014-04-17T10:05:08Z</time>
      </trkpt>
      <trkpt lat="47.56165" lon="3.75994">
        <ele>181</ele>
        <time>2014-04-17T10:05:11Z</time>
      </trkpt>
      <trkpt lat="47.56148" lon="3.75978">
        <ele>184</ele>
        <time>2014-04-17T10:05:30Z</time>
      </trkpt>
      <trkpt lat="47.56143" lon="3.75966">
        <ele>185</ele>
        <time>2014-04-17T10:05:45Z</time>
      </trkpt>
      <trkpt lat="47.56138" lon="3.75965">
        <ele>185</ele>
        <time>2014-04-17T10:05:48Z</time>
      </trkpt>
      <trkpt lat="47.56133" lon="3.75961">
        <ele>185</ele>
        <time>2014-04-17T10:05:54Z</time>
      </trkpt>
      <trkpt lat="47.56129" lon="3.75957">
        <ele>185</ele>
        <time>2014-04-17T10:06:01Z</time>
      </trkpt>
      <trkpt lat="47.56123" lon="3.75948">
        <ele>186</ele>
        <time>2014-04-17T10:06:09Z</time>
      </trkpt>
      <trkpt lat="47.56115" lon="3.75934">
        <ele>186</ele>
        <time>2014-04-17T10:06:24Z</time>
      </trkpt>
      <trkpt lat="47.56101" lon="3.75881">
        <ele>190</ele>
        <time>2014-04-17T10:06:58Z</time>
      </trkpt>
      <trkpt lat="47.56088" lon="3.75859">
        <ele>190</ele>
        <time>2014-04-17T10:07:09Z</time>
      </trkpt>
      <trkpt lat="47.56084" lon="3.75854">
        <ele>190</ele>
        <time>2014-04-17T10:07:12Z</time>
      </trkpt>
      <trkpt lat="47.56083" lon="3.7584">
        <ele>190</ele>
        <time>2014-04-17T10:07:20Z</time>
      </trkpt>
      <trkpt lat="47.56079" lon="3.75834">
        <ele>189</ele>
        <time>2014-04-17T10:07:24Z</time>
      </trkpt>
      <trkpt lat="47.56076" lon="3.75827">
        <ele>191</ele>
        <time>2014-04-17T10:07:27Z</time>
      </trkpt>
      <trkpt lat="47.56075" lon="3.7582">
        <ele>191</ele>
        <time>2014-04-17T10:07:30Z</time>
      </trkpt>
      <trkpt lat="47.56071" lon="3.75813">
        <ele>192</ele>
        <time>2014-04-17T10:07:34Z</time>
      </trkpt>
      <trkpt lat="47.56068" lon="3.75807">
        <ele>193</ele>
        <time>2014-04-17T10:07:38Z</time>
      </trkpt>
      <trkpt lat="47.56067" lon="3.75799">
        <ele>193</ele>
        <time>2014-04-17T10:07:46Z</time>
      </trkpt>
      <trkpt lat="47.5606" lon="3.75784">
        <ele>194</ele>
        <time>2014-04-17T10:07:54Z</time>
      </trkpt>
      <trkpt lat="47.56055" lon="3.75761">
        <ele>194</ele>
        <time>2014-04-17T10:08:07Z</time>
      </trkpt>
      <trkpt lat="47.56054" lon="3.75754">
        <ele>194</ele>
        <time>2014-04-17T10:08:11Z</time>
      </trkpt>
      <trkpt lat="47.56051" lon="3.75746">
        <ele>195</ele>
        <time>2014-04-17T10:08:15Z</time>
      </trkpt>
      <trkpt lat="47.5604" lon="3.75728">
        <ele>196</ele>
        <time>2014-04-17T10:08:24Z</time>
      </trkpt>
      <trkpt lat="47.56033" lon="3.75719">
        <ele>196</ele>
        <time>2014-04-17T10:08:29Z</time>
      </trkpt>
      <trkpt lat="47.56031" lon="3.7571">
        <ele>196</ele>
        <time>2014-04-17T10:08:33Z</time>
      </trkpt>
      <trkpt lat="47.56032" lon="3.75698">
        <ele>196</ele>
        <time>2014-04-17T10:08:44Z</time>
      </trkpt>
      <trkpt lat="47.56019" lon="3.75667">
        <ele>196</ele>
        <time>2014-04-17T10:09:15Z</time>
      </trkpt>
      <trkpt lat="47.56011" lon="3.75657">
        <ele>197</ele>
        <time>2014-04-17T10:09:24Z</time>
      </trkpt>
      <trkpt lat="47.56008" lon="3.75649">
        <ele>197</ele>
        <time>2014-04-17T10:09:27Z</time>
      </trkpt>
      <trkpt lat="47.56005" lon="3.75643">
        <ele>197</ele>
        <time>2014-04-17T10:09:30Z</time>
      </trkpt>
      <trkpt lat="47.56003" lon="3.75637">
        <ele>197</ele>
        <time>2014-04-17T10:09:33Z</time>
      </trkpt>
      <trkpt lat="47.56001" lon="3.75623">
        <ele>198</ele>
        <time>2014-04-17T10:09:42Z</time>
      </trkpt>
      <trkpt lat="47.55999" lon="3.75617">
        <ele>198</ele>
        <time>2014-04-17T10:09:46Z</time>
      </trkpt>
      <trkpt lat="47.55995" lon="3.75612">
        <ele>198</ele>
        <time>2014-04-17T10:09:49Z</time>
      </trkpt>
      <trkpt lat="47.55992" lon="3.75605">
        <ele>198</ele>
        <time>2014-04-17T10:09:53Z</time>
      </trkpt>
      <trkpt lat="47.55991" lon="3.75597">
        <ele>198</ele>
        <time>2014-04-17T10:09:58Z</time>
      </trkpt>
      <trkpt lat="47.55988" lon="3.75589">
        <ele>197</ele>
        <time>2014-04-17T10:10:03Z</time>
      </trkpt>
      <trkpt lat="47.55982" lon="3.75578">
        <ele>198</ele>
        <time>2014-04-17T10:10:08Z</time>
      </trkpt>
      <trkpt lat="47.5598" lon="3.75569">
        <ele>198</ele>
        <time>2014-04-17T10:10:12Z</time>
      </trkpt>
      <trkpt lat="47.55971" lon="3.75548">
        <ele>199</ele>
        <time>2014-04-17T10:10:23Z</time>
      </trkpt>
      <trkpt lat="47.5597" lon="3.75541">
        <ele>199</ele>
        <time>2014-04-17T10:10:26Z</time>
      </trkpt>
      <trkpt lat="47.55968" lon="3.75534">
        <ele>199</ele>
        <time>2014-04-17T10:10:30Z</time>
      </trkpt>
      <trkpt lat="47.55961" lon="3.75505">
        <ele>199</ele>
        <time>2014-04-17T10:10:45Z</time>
      </trkpt>
      <trkpt lat="47.55963" lon="3.75499">
        <ele>200</ele>
        <time>2014-04-17T10:10:48Z</time>
      </trkpt>
      <trkpt lat="47.55962" lon="3.75492">
        <ele>200</ele>
        <time>2014-04-17T10:10:52Z</time>
      </trkpt>
      <trkpt lat="47.55956" lon="3.75481">
        <ele>200</ele>
        <time>2014-04-17T10:11:00Z</time>
      </trkpt>
      <trkpt lat="47.55947" lon="3.75473">
        <ele>200</ele>
        <time>2014-04-17T10:11:06Z</time>
      </trkpt>
      <trkpt lat="47.55947" lon="3.75453">
        <ele>200</ele>
        <time>2014-04-17T10:11:29Z</time>
      </trkpt>
      <trkpt lat="47.55944" lon="3.75446">
        <ele>200</ele>
        <time>2014-04-17T10:11:33Z</time>
      </trkpt>
      <trkpt lat="47.55941" lon="3.75439">
        <ele>200</ele>
        <time>2014-04-17T10:11:37Z</time>
      </trkpt>
      <trkpt lat="47.55938" lon="3.75434">
        <ele>200</ele>
        <time>2014-04-17T10:11:40Z</time>
      </trkpt>
      <trkpt lat="47.55936" lon="3.75426">
        <ele>200</ele>
        <time>2014-04-17T10:11:45Z</time>
      </trkpt>
      <trkpt lat="47.55934" lon="3.75419">
        <ele>200</ele>
        <time>2014-04-17T10:11:50Z</time>
      </trkpt>
      <trkpt lat="47.55934" lon="3.75402">
        <ele>200</ele>
        <time>2014-04-17T10:12:01Z</time>
      </trkpt>
      <trkpt lat="47.55924" lon="3.75389">
        <ele>200</ele>
        <time>2014-04-17T10:12:08Z</time>
      </trkpt>
      <trkpt lat="47.5592" lon="3.75374">
        <ele>200</ele>
        <time>2014-04-17T10:12:17Z</time>
      </trkpt>
      <trkpt lat="47.55916" lon="3.75369">
        <ele>202</ele>
        <time>2014-04-17T10:12:21Z</time>
      </trkpt>
      <trkpt lat="47.55914" lon="3.75362">
        <ele>201</ele>
        <time>2014-04-17T10:12:25Z</time>
      </trkpt>
      <trkpt lat="47.55907" lon="3.75351">
        <ele>201</ele>
        <time>2014-04-17T10:12:34Z</time>
      </trkpt>
      <trkpt lat="47.55899" lon="3.7533">
        <ele>200</ele>
        <time>2014-04-17T10:12:43Z</time>
      </trkpt>
      <trkpt lat="47.55898" lon="3.75321">
        <ele>201</ele>
        <time>2014-04-17T10:12:47Z</time>
      </trkpt>
      <trkpt lat="47.55899" lon="3.75305">
        <ele>201</ele>
        <time>2014-04-17T10:12:54Z</time>
      </trkpt>
      <trkpt lat="47.55899" lon="3.75298">
        <ele>201</ele>
        <time>2014-04-17T10:12:59Z</time>
      </trkpt>
      <trkpt lat="47.55889" lon="3.75263">
        <ele>201</ele>
        <time>2014-04-17T10:13:20Z</time>
      </trkpt>
      <trkpt lat="47.55886" lon="3.75247">
        <ele>201</ele>
        <time>2014-04-17T10:13:28Z</time>
      </trkpt>
      <trkpt lat="47.55887" lon="3.75217">
        <ele>201</ele>
        <time>2014-04-17T10:13:44Z</time>
      </trkpt>
      <trkpt lat="47.55885" lon="3.75211">
        <ele>201</ele>
        <time>2014-04-17T10:13:48Z</time>
      </trkpt>
      <trkpt lat="47.55885" lon="3.75204">
        <ele>201</ele>
        <time>2014-04-17T10:13:52Z</time>
      </trkpt>
      <trkpt lat="47.5589" lon="3.75175">
        <ele>200</ele>
        <time>2014-04-17T10:14:10Z</time>
      </trkpt>
      <trkpt lat="47.55889" lon="3.75167">
        <ele>200</ele>
        <time>2014-04-17T10:14:15Z</time>
      </trkpt>
      <trkpt lat="47.55885" lon="3.75163">
        <ele>201</ele>
        <time>2014-04-17T10:14:21Z</time>
      </trkpt>
      <trkpt lat="47.55881" lon="3.75157">
        <ele>201</ele>
        <time>2014-04-17T10:14:25Z</time>
      </trkpt>
      <trkpt lat="47.55878" lon="3.7515">
        <ele>202</ele>
        <time>2014-04-17T10:14:29Z</time>
      </trkpt>
      <trkpt lat="47.55878" lon="3.75143">
        <ele>202</ele>
        <time>2014-04-17T10:14:34Z</time>
      </trkpt>
      <trkpt lat="47.55875" lon="3.75135">
        <ele>202</ele>
        <time>2014-04-17T10:14:39Z</time>
      </trkpt>
      <trkpt lat="47.5587" lon="3.75132">
        <ele>202</ele>
        <time>2014-04-17T10:14:42Z</time>
      </trkpt>
      <trkpt lat="47.55865" lon="3.7513">
        <ele>202</ele>
        <time>2014-04-17T10:14:43Z</time>
      </trkpt>
      <trkpt lat="47.5586" lon="3.75129">
        <ele>202</ele>
        <time>2014-04-17T10:14:45Z</time>
      </trkpt>
      <trkpt lat="47.55855" lon="3.75126">
        <ele>202</ele>
        <time>2014-04-17T10:14:50Z</time>
      </trkpt>
      <trkpt lat="47.55862" lon="3.75115">
        <ele>202</ele>
        <time>2014-04-17T10:15:06Z</time>
      </trkpt>
      <trkpt lat="47.55868" lon="3.75103">
        <ele>202</ele>
        <time>2014-04-17T10:15:15Z</time>
      </trkpt>
      <trkpt lat="47.55872" lon="3.75089">
        <ele>203</ele>
        <time>2014-04-17T10:15:24Z</time>
      </trkpt>
      <trkpt lat="47.55882" lon="3.75086">
        <ele>202</ele>
        <time>2014-04-17T10:15:30Z</time>
      </trkpt>
      <trkpt lat="47.55888" lon="3.75094">
        <ele>202</ele>
        <time>2014-04-17T10:15:36Z</time>
      </trkpt>
      <trkpt lat="47.55893" lon="3.75095">
        <ele>202</ele>
        <time>2014-04-17T10:15:38Z</time>
      </trkpt>
      <trkpt lat="47.559" lon="3.75093">
        <ele>202</ele>
        <time>2014-04-17T10:15:44Z</time>
      </trkpt>
      <trkpt lat="47.55906" lon="3.75094">
        <ele>203</ele>
        <time>2014-04-17T10:15:57Z</time>
      </trkpt>
      <trkpt lat="47.55911" lon="3.75098">
        <ele>202</ele>
        <time>2014-04-17T10:16:07Z</time>
      </trkpt>
      <trkpt lat="47.55916" lon="3.75101">
        <ele>202</ele>
        <time>2014-04-17T10:16:12Z</time>
      </trkpt>
      <trkpt lat="47.55922" lon="3.75097">
        <ele>203</ele>
        <time>2014-04-17T10:16:17Z</time>
      </trkpt>
      <trkpt lat="47.55925" lon="3.75093">
        <ele>203</ele>
        <time>2014-04-17T10:16:21Z</time>
      </trkpt>
      <trkpt lat="47.55928" lon="3.75086">
        <ele>203</ele>
        <time>2014-04-17T10:16:24Z</time>
      </trkpt>
      <trkpt lat="47.55929" lon="3.7508">
        <ele>203</ele>
        <time>2014-04-17T10:16:27Z</time>
      </trkpt>
      <trkpt lat="47.5593" lon="3.75069">
        <ele>204</ele>
        <time>2014-04-17T10:16:45Z</time>
      </trkpt>
      <trkpt lat="47.55934" lon="3.75064">
        <ele>204</ele>
        <time>2014-04-17T10:16:50Z</time>
      </trkpt>
      <trkpt lat="47.55937" lon="3.75057">
        <ele>204</ele>
        <time>2014-04-17T10:16:55Z</time>
      </trkpt>
      <trkpt lat="47.55941" lon="3.75042">
        <ele>204</ele>
        <time>2014-04-17T10:17:05Z</time>
      </trkpt>
      <trkpt lat="47.55953" lon="3.75021">
        <ele>204</ele>
        <time>2014-04-17T10:17:24Z</time>
      </trkpt>
      <trkpt lat="47.55953" lon="3.75014">
        <ele>204</ele>
        <time>2014-04-17T10:17:28Z</time>
      </trkpt>
      <trkpt lat="47.55947" lon="3.74993">
        <ele>203</ele>
        <time>2014-04-17T10:17:42Z</time>
      </trkpt>
      <trkpt lat="47.55939" lon="3.74979">
        <ele>203</ele>
        <time>2014-04-17T10:17:52Z</time>
      </trkpt>
      <trkpt lat="47.55935" lon="3.74978">
        <ele>203</ele>
        <time>2014-04-17T10:18:01Z</time>
      </trkpt>
      <trkpt lat="47.55926" lon="3.74932">
        <ele>203</ele>
        <time>2014-04-17T10:18:33Z</time>
      </trkpt>
      <trkpt lat="47.55928" lon="3.74926">
        <ele>202</ele>
        <time>2014-04-17T10:18:36Z</time>
      </trkpt>
      <trkpt lat="47.55932" lon="3.74921">
        <ele>202</ele>
        <time>2014-04-17T10:18:39Z</time>
      </trkpt>
      <trkpt lat="47.55934" lon="3.74914">
        <ele>202</ele>
        <time>2014-04-17T10:18:43Z</time>
      </trkpt>
      <trkpt lat="47.55931" lon="3.74908">
        <ele>202</ele>
        <time>2014-04-17T10:18:51Z</time>
      </trkpt>
      <trkpt lat="47.55932" lon="3.749">
        <ele>202</ele>
        <time>2014-04-17T10:18:57Z</time>
      </trkpt>
      <trkpt lat="47.55931" lon="3.74893">
        <ele>202</ele>
        <time>2014-04-17T10:19:00Z</time>
      </trkpt>
      <trkpt lat="47.55932" lon="3.74886">
        <ele>202</ele>
        <time>2014-04-17T10:19:04Z</time>
      </trkpt>
      <trkpt lat="47.5592" lon="3.74844">
        <ele>201</ele>
        <time>2014-04-17T10:19:25Z</time>
      </trkpt>
      <trkpt lat="47.55915" lon="3.74832">
        <ele>200</ele>
        <time>2014-04-17T10:19:35Z</time>
      </trkpt>
      <trkpt lat="47.55912" lon="3.74826">
        <ele>202</ele>
        <time>2014-04-17T10:19:37Z</time>
      </trkpt>
      <trkpt lat="47.55908" lon="3.74815">
        <ele>203</ele>
        <time>2014-04-17T10:19:39Z</time>
      </trkpt>
      <trkpt lat="47.55909" lon="3.74806">
        <ele>203</ele>
        <time>2014-04-17T10:19:44Z</time>
      </trkpt>
      <trkpt lat="47.55906" lon="3.748">
        <ele>204</ele>
        <time>2014-04-17T10:19:49Z</time>
      </trkpt>
      <trkpt lat="47.55897" lon="3.74784">
        <ele>204</ele>
        <time>2014-04-17T10:19:59Z</time>
      </trkpt>
      <trkpt lat="47.55893" lon="3.74781">
        <ele>204</ele>
        <time>2014-04-17T10:20:01Z</time>
      </trkpt>
      <trkpt lat="47.5589" lon="3.74775">
        <ele>204</ele>
        <time>2014-04-17T10:20:07Z</time>
      </trkpt>
      <trkpt lat="47.55888" lon="3.74769">
        <ele>204</ele>
        <time>2014-04-17T10:20:11Z</time>
      </trkpt>
      <trkpt lat="47.55885" lon="3.74753">
        <ele>204</ele>
        <time>2014-04-17T10:20:29Z</time>
      </trkpt>
      <trkpt lat="47.55881" lon="3.74748">
        <ele>204</ele>
        <time>2014-04-17T10:20:33Z</time>
      </trkpt>
      <trkpt lat="47.55878" lon="3.74738">
        <ele>204</ele>
        <time>2014-04-17T10:20:54Z</time>
      </trkpt>
      <trkpt lat="47.55863" lon="3.74706">
        <ele>205</ele>
        <time>2014-04-17T10:21:28Z</time>
      </trkpt>
      <trkpt lat="47.55842" lon="3.74682">
        <ele>205</ele>
        <time>2014-04-17T10:21:45Z</time>
      </trkpt>
      <trkpt lat="47.55838" lon="3.74675">
        <ele>205</ele>
        <time>2014-04-17T10:21:48Z</time>
      </trkpt>
      <trkpt lat="47.55836" lon="3.74668">
        <ele>205</ele>
        <time>2014-04-17T10:21:52Z</time>
      </trkpt>
      <trkpt lat="47.55833" lon="3.74663">
        <ele>205</ele>
        <time>2014-04-17T10:21:56Z</time>
      </trkpt>
      <trkpt lat="47.5583" lon="3.74655">
        <ele>206</ele>
        <time>2014-04-17T10:22:00Z</time>
      </trkpt>
      <trkpt lat="47.55827" lon="3.7465">
        <ele>206</ele>
        <time>2014-04-17T10:22:05Z</time>
      </trkpt>
      <trkpt lat="47.55827" lon="3.74631">
        <ele>206</ele>
        <time>2014-04-17T10:22:10Z</time>
      </trkpt>
      <trkpt lat="47.55825" lon="3.74623">
        <ele>206</ele>
        <time>2014-04-17T10:22:13Z</time>
      </trkpt>
      <trkpt lat="47.55823" lon="3.74616">
        <ele>206</ele>
        <time>2014-04-17T10:22:17Z</time>
      </trkpt>
      <trkpt lat="47.55822" lon="3.74608">
        <ele>205</ele>
        <time>2014-04-17T10:22:22Z</time>
      </trkpt>
      <trkpt lat="47.55819" lon="3.74602">
        <ele>205</ele>
        <time>2014-04-17T10:22:26Z</time>
      </trkpt>
      <trkpt lat="47.55806" lon="3.74577">
        <ele>203</ele>
        <time>2014-04-17T10:22:40Z</time>
      </trkpt>
      <trkpt lat="47.55801" lon="3.74572">
        <ele>203</ele>
        <time>2014-04-17T10:22:44Z</time>
      </trkpt>
      <trkpt lat="47.55778" lon="3.74532">
        <ele>203</ele>
        <time>2014-04-17T10:23:05Z</time>
      </trkpt>
      <trkpt lat="47.55776" lon="3.74529">
        <ele>203</ele>
        <time>2014-04-17T10:23:07Z</time>
      </trkpt>
      <trkpt lat="47.55768" lon="3.74522">
        <ele>203</ele>
        <time>2014-04-17T10:23:16Z</time>
      </trkpt>
      <trkpt lat="47.55764" lon="3.74517">
        <ele>203</ele>
        <time>2014-04-17T10:23:21Z</time>
      </trkpt>
      <trkpt lat="47.55754" lon="3.74511">
        <ele>203</ele>
        <time>2014-04-17T10:23:29Z</time>
      </trkpt>
      <trkpt lat="47.55751" lon="3.74505">
        <ele>202</ele>
        <time>2014-04-17T10:23:33Z</time>
      </trkpt>
      <trkpt lat="47.55748" lon="3.74499">
        <ele>202</ele>
        <time>2014-04-17T10:23:37Z</time>
      </trkpt>
      <trkpt lat="47.55744" lon="3.74493">
        <ele>203</ele>
        <time>2014-04-17T10:23:42Z</time>
      </trkpt>
      <trkpt lat="47.55733" lon="3.74476">
        <ele>204</ele>
        <time>2014-04-17T10:23:51Z</time>
      </trkpt>
      <trkpt lat="47.55729" lon="3.74471">
        <ele>204</ele>
        <time>2014-04-17T10:23:54Z</time>
      </trkpt>
      <trkpt lat="47.55725" lon="3.74467">
        <ele>205</ele>
        <time>2014-04-17T10:23:56Z</time>
      </trkpt>
      <trkpt lat="47.5572" lon="3.74461">
        <ele>205</ele>
        <time>2014-04-17T10:23:59Z</time>
      </trkpt>
      <trkpt lat="47.55718" lon="3.74455">
        <ele>205</ele>
        <time>2014-04-17T10:24:05Z</time>
      </trkpt>
      <trkpt lat="47.55719" lon="3.74449">
        <ele>205</ele>
        <time>2014-04-17T10:24:10Z</time>
      </trkpt>
      <trkpt lat="47.55716" lon="3.74436">
        <ele>205</ele>
        <time>2014-04-17T10:24:18Z</time>
      </trkpt>
      <trkpt lat="47.55711" lon="3.74431">
        <ele>205</ele>
        <time>2014-04-17T10:24:23Z</time>
      </trkpt>
      <trkpt lat="47.55709" lon="3.74424">
        <ele>205</ele>
        <time>2014-04-17T10:24:27Z</time>
      </trkpt>
      <trkpt lat="47.55691" lon="3.74389">
        <ele>206</ele>
        <time>2014-04-17T10:24:48Z</time>
      </trkpt>
      <trkpt lat="47.55681" lon="3.74373">
        <ele>207</ele>
        <time>2014-04-17T10:24:57Z</time>
      </trkpt>
      <trkpt lat="47.55676" lon="3.74369">
        <ele>207</ele>
        <time>2014-04-17T10:25:00Z</time>
      </trkpt>
      <trkpt lat="47.55672" lon="3.74365">
        <ele>207</ele>
        <time>2014-04-17T10:25:04Z</time>
      </trkpt>
      <trkpt lat="47.55667" lon="3.74363">
        <ele>211</ele>
        <time>2014-04-17T10:25:09Z</time>
      </trkpt>
      <trkpt lat="47.55664" lon="3.74349">
        <ele>211</ele>
        <time>2014-04-17T10:25:19Z</time>
      </trkpt>
      <trkpt lat="47.55659" lon="3.74336">
        <ele>211</ele>
        <time>2014-04-17T10:25:28Z</time>
      </trkpt>
      <trkpt lat="47.55654" lon="3.74334">
        <ele>211</ele>
        <time>2014-04-17T10:25:32Z</time>
      </trkpt>
      <trkpt lat="47.55649" lon="3.74333">
        <ele>211</ele>
        <time>2014-04-17T10:25:36Z</time>
      </trkpt>
      <trkpt lat="47.5564" lon="3.74323">
        <ele>212</ele>
        <time>2014-04-17T10:25:44Z</time>
      </trkpt>
      <trkpt lat="47.55637" lon="3.74318">
        <ele>212</ele>
        <time>2014-04-17T10:25:47Z</time>
      </trkpt>
      <trkpt lat="47.55632" lon="3.74304">
        <ele>212</ele>
        <time>2014-04-17T10:25:54Z</time>
      </trkpt>
      <trkpt lat="47.5563" lon="3.74297">
        <ele>212</ele>
        <time>2014-04-17T10:25:58Z</time>
      </trkpt>
      <trkpt lat="47.5562" lon="3.74268">
        <ele>212</ele>
        <time>2014-04-17T10:26:13Z</time>
      </trkpt>
      <trkpt lat="47.55611" lon="3.74261">
        <ele>213</ele>
        <time>2014-04-17T10:26:20Z</time>
      </trkpt>
      <trkpt lat="47.55601" lon="3.74257">
        <ele>213</ele>
        <time>2014-04-17T10:26:27Z</time>
      </trkpt>
      <trkpt lat="47.55595" lon="3.74246">
        <ele>213</ele>
        <time>2014-04-17T10:26:33Z</time>
      </trkpt>
      <trkpt lat="47.55595" lon="3.74233">
        <ele>213</ele>
        <time>2014-04-17T10:26:38Z</time>
      </trkpt>
      <trkpt lat="47.55593" lon="3.74223">
        <ele>213</ele>
        <time>2014-04-17T10:26:43Z</time>
      </trkpt>
      <trkpt lat="47.55584" lon="3.74219">
        <ele>213</ele>
        <time>2014-04-17T10:26:51Z</time>
      </trkpt>
      <trkpt lat="47.55582" lon="3.74225">
        <ele>214</ele>
        <time>2014-04-17T10:26:52Z</time>
      </trkpt>
      <trkpt lat="47.55576" lon="3.74225">
        <ele>214</ele>
        <time>2014-04-17T10:27:21Z</time>
      </trkpt>
      <trkpt lat="47.55573" lon="3.7422">
        <ele>214</ele>
        <time>2014-04-17T10:27:24Z</time>
      </trkpt>
      <trkpt lat="47.55571" lon="3.74213">
        <ele>214</ele>
        <time>2014-04-17T10:27:29Z</time>
      </trkpt>
      <trkpt lat="47.55577" lon="3.74216">
        <ele>214</ele>
        <time>2014-04-17T10:27:52Z</time>
      </trkpt>
      <trkpt lat="47.55575" lon="3.74202">
        <ele>214</ele>
        <time>2014-04-17T10:28:05Z</time>
      </trkpt>
      <trkpt lat="47.55577" lon="3.74189">
        <ele>214</ele>
        <time>2014-04-17T10:28:14Z</time>
      </trkpt>
      <trkpt lat="47.5558" lon="3.74191">
        <ele>214</ele>
        <time>2014-04-17T10:28:36Z</time>
      </trkpt>
      <trkpt lat="47.55578" lon="3.74189">
        <ele>214</ele>
        <time>2014-04-17T10:30:13Z</time>
      </trkpt>
      <trkpt lat="47.55583" lon="3.74187">
        <ele>214</ele>
        <time>2014-04-17T10:40:31Z</time>
      </trkpt>
      <trkpt lat="47.55593" lon="3.74186">
        <ele>214</ele>
        <time>2014-04-17T10:41:10Z</time>
      </trkpt>
      <trkpt lat="47.55585" lon="3.74181">
        <ele>214</ele>
        <time>2014-04-17T10:41:31Z</time>
      </trkpt>
      <trkpt lat="47.55575" lon="3.74179">
        <ele>214</ele>
        <time>2014-04-17T10:41:37Z</time>
      </trkpt>
      <trkpt lat="47.55576" lon="3.74189">
        <ele>214</ele>
        <time>2014-04-17T10:41:43Z</time>
      </trkpt>
      <trkpt lat="47.55583" lon="3.74187">
        <ele>214</ele>
        <time>2014-04-17T10:41:46Z</time>
      </trkpt>
      <trkpt lat="47.55588" lon="3.74184">
        <ele>214</ele>
        <time>2014-04-17T10:42:20Z</time>
      </trkpt>
      <trkpt lat="47.55592" lon="3.74178">
        <ele>214</ele>
        <time>2014-04-17T10:42:23Z</time>
      </trkpt>
      <trkpt lat="47.55594" lon="3.74174">
        <ele>214</ele>
        <time>2014-04-17T10:42:32Z</time>
      </trkpt>
      <trkpt lat="47.5559" lon="3.74168">
        <ele>214</ele>
        <time>2014-04-17T10:42:37Z</time>
      </trkpt>
      <trkpt lat="47.55586" lon="3.74167">
        <ele>215</ele>
        <time>2014-04-17T10:42:45Z</time>
      </trkpt>
      <trkpt lat="47.55582" lon="3.74173">
        <ele>215</ele>
        <time>2014-04-17T10:42:53Z</time>
      </trkpt>
      <trkpt lat="47.55581" lon="3.74178">
        <ele>214</ele>
        <time>2014-04-17T10:43:08Z</time>
      </trkpt>
      <trkpt lat="47.55577" lon="3.74185">
        <ele>214</ele>
        <time>2014-04-17T10:43:15Z</time>
      </trkpt>
      <trkpt lat="47.55578" lon="3.74189">
        <ele>214</ele>
        <time>2014-04-17T10:45:48Z</time>
      </trkpt>
      <trkpt lat="47.55582" lon="3.74186">
        <ele>214</ele>
        <time>2014-04-17T10:47:17Z</time>
      </trkpt>
      <trkpt lat="47.55584" lon="3.74191">
        <ele>214</ele>
        <time>2014-04-17T10:56:17Z</time>
      </trkpt>
      <trkpt lat="47.55586" lon="3.74199">
        <ele>214</ele>
        <time>2014-04-17T10:57:22Z</time>
      </trkpt>
      <trkpt lat="47.55583" lon="3.74201">
        <ele>214</ele>
        <time>2014-04-17T10:58:31Z</time>
      </trkpt>
      <trkpt lat="47.55583" lon="3.74206">
        <ele>214</ele>
        <time>2014-04-17T11:00:07Z</time>
      </trkpt>
      <trkpt lat="47.55582" lon="3.74207">
        <ele>214</ele>
        <time>2014-04-17T11:01:21Z</time>
      </trkpt>
      <trkpt lat="47.55579" lon="3.74212">
        <ele>214</ele>
        <time>2014-04-17T11:01:25Z</time>
      </trkpt>
      <trkpt lat="47.55575" lon="3.74218">
        <ele>214</ele>
        <time>2014-04-17T11:01:29Z</time>
      </trkpt>
      <trkpt lat="47.55572" lon="3.74223">
        <ele>214</ele>
        <time>2014-04-17T11:01:34Z</time>
      </trkpt>
      <trkpt lat="47.55566" lon="3.74221">
        <ele>214</ele>
        <time>2014-04-17T11:01:40Z</time>
      </trkpt>
      <trkpt lat="47.55561" lon="3.7421">
        <ele>214</ele>
        <time>2014-04-17T11:01:46Z</time>
      </trkpt>
      <trkpt lat="47.55557" lon="3.74205">
        <ele>213</ele>
        <time>2014-04-17T11:01:49Z</time>
      </trkpt>
      <trkpt lat="47.55552" lon="3.74204">
        <ele>213</ele>
        <time>2014-04-17T11:01:53Z</time>
      </trkpt>
      <trkpt lat="47.55547" lon="3.74203">
        <ele>213</ele>
        <time>2014-04-17T11:01:57Z</time>
      </trkpt>
      <trkpt lat="47.55543" lon="3.74205">
        <ele>213</ele>
        <time>2014-04-17T11:02:01Z</time>
      </trkpt>
      <trkpt lat="47.55537" lon="3.74205">
        <ele>213</ele>
        <time>2014-04-17T11:02:06Z</time>
      </trkpt>
      <trkpt lat="47.55532" lon="3.74204">
        <ele>213</ele>
        <time>2014-04-17T11:02:09Z</time>
      </trkpt>
      <trkpt lat="47.55527" lon="3.74198">
        <ele>213</ele>
        <time>2014-04-17T11:02:13Z</time>
      </trkpt>
      <trkpt lat="47.55522" lon="3.74194">
        <ele>213</ele>
        <time>2014-04-17T11:02:16Z</time>
      </trkpt>
      <trkpt lat="47.55517" lon="3.74193">
        <ele>213</ele>
        <time>2014-04-17T11:02:19Z</time>
      </trkpt>
      <trkpt lat="47.55512" lon="3.74191">
        <ele>213</ele>
        <time>2014-04-17T11:02:23Z</time>
      </trkpt>
      <trkpt lat="47.55509" lon="3.74193">
        <ele>213</ele>
        <time>2014-04-17T11:02:29Z</time>
      </trkpt>
      <trkpt lat="47.55508" lon="3.74187">
        <ele>213</ele>
        <time>2014-04-17T11:02:34Z</time>
      </trkpt>
      <trkpt lat="47.55503" lon="3.74183">
        <ele>213</ele>
        <time>2014-04-17T11:02:38Z</time>
      </trkpt>
      <trkpt lat="47.55492" lon="3.74177">
        <ele>212</ele>
        <time>2014-04-17T11:02:44Z</time>
      </trkpt>
      <trkpt lat="47.55488" lon="3.74173">
        <ele>212</ele>
        <time>2014-04-17T11:02:48Z</time>
      </trkpt>
      <trkpt lat="47.55482" lon="3.74171">
        <ele>212</ele>
        <time>2014-04-17T11:02:51Z</time>
      </trkpt>
      <trkpt lat="47.55478" lon="3.74168">
        <ele>212</ele>
        <time>2014-04-17T11:02:54Z</time>
      </trkpt>
      <trkpt lat="47.55472" lon="3.74166">
        <ele>212</ele>
        <time>2014-04-17T11:02:57Z</time>
      </trkpt>
      <trkpt lat="47.55468" lon="3.74166">
        <ele>212</ele>
        <time>2014-04-17T11:03:00Z</time>
      </trkpt>
      <trkpt lat="47.55463" lon="3.74166">
        <ele>212</ele>
        <time>2014-04-17T11:03:03Z</time>
      </trkpt>
      <trkpt lat="47.55458" lon="3.74164">
        <ele>212</ele>
        <time>2014-04-17T11:03:07Z</time>
      </trkpt>
      <trkpt lat="47.55456" lon="3.74158">
        <ele>212</ele>
        <time>2014-04-17T11:03:11Z</time>
      </trkpt>
      <trkpt lat="47.55448" lon="3.74149">
        <ele>212</ele>
        <time>2014-04-17T11:03:18Z</time>
      </trkpt>
      <trkpt lat="47.55443" lon="3.74148">
        <ele>212</ele>
        <time>2014-04-17T11:03:22Z</time>
      </trkpt>
      <trkpt lat="47.55439" lon="3.74152">
        <ele>212</ele>
        <time>2014-04-17T11:03:26Z</time>
      </trkpt>
      <trkpt lat="47.55428" lon="3.74156">
        <ele>211</ele>
        <time>2014-04-17T11:03:34Z</time>
      </trkpt>
      <trkpt lat="47.55423" lon="3.74155">
        <ele>211</ele>
        <time>2014-04-17T11:03:39Z</time>
      </trkpt>
      <trkpt lat="47.55417" lon="3.74156">
        <ele>211</ele>
        <time>2014-04-17T11:03:44Z</time>
      </trkpt>
      <trkpt lat="47.55412" lon="3.74159">
        <ele>211</ele>
        <time>2014-04-17T11:03:47Z</time>
      </trkpt>
      <trkpt lat="47.55407" lon="3.74159">
        <ele>211</ele>
        <time>2014-04-17T11:03:51Z</time>
      </trkpt>
      <trkpt lat="47.55403" lon="3.74161">
        <ele>211</ele>
        <time>2014-04-17T11:03:54Z</time>
      </trkpt>
      <trkpt lat="47.55399" lon="3.74155">
        <ele>211</ele>
        <time>2014-04-17T11:03:58Z</time>
      </trkpt>
      <trkpt lat="47.55384" lon="3.74153">
        <ele>211</ele>
        <time>2014-04-17T11:05:00Z</time>
      </trkpt>
      <trkpt lat="47.55377" lon="3.7415">
        <ele>212</ele>
        <time>2014-04-17T11:05:04Z</time>
      </trkpt>
      <trkpt lat="47.55372" lon="3.7415">
        <ele>212</ele>
        <time>2014-04-17T11:05:08Z</time>
      </trkpt>
      <trkpt lat="47.55368" lon="3.74151">
        <ele>212</ele>
        <time>2014-04-17T11:05:12Z</time>
      </trkpt>
      <trkpt lat="47.55363" lon="3.74154">
        <ele>212</ele>
        <time>2014-04-17T11:05:16Z</time>
      </trkpt>
      <trkpt lat="47.55357" lon="3.74156">
        <ele>212</ele>
        <time>2014-04-17T11:05:21Z</time>
      </trkpt>
      <trkpt lat="47.55352" lon="3.74157">
        <ele>212</ele>
        <time>2014-04-17T11:05:24Z</time>
      </trkpt>
      <trkpt lat="47.55347" lon="3.74158">
        <ele>212</ele>
        <time>2014-04-17T11:05:28Z</time>
      </trkpt>
      <trkpt lat="47.55342" lon="3.74161">
        <ele>212</ele>
        <time>2014-04-17T11:05:33Z</time>
      </trkpt>
      <trkpt lat="47.55337" lon="3.74162">
        <ele>212</ele>
        <time>2014-04-17T11:05:38Z</time>
      </trkpt>
      <trkpt lat="47.55332" lon="3.74165">
        <ele>212</ele>
        <time>2014-04-17T11:05:43Z</time>
      </trkpt>
      <trkpt lat="47.55327" lon="3.74164">
        <ele>212</ele>
        <time>2014-04-17T11:05:46Z</time>
      </trkpt>
      <trkpt lat="47.55317" lon="3.74158">
        <ele>212</ele>
        <time>2014-04-17T11:05:54Z</time>
      </trkpt>
      <trkpt lat="47.55313" lon="3.74156">
        <ele>212</ele>
        <time>2014-04-17T11:05:57Z</time>
      </trkpt>
      <trkpt lat="47.55299" lon="3.74153">
        <ele>212</ele>
        <time>2014-04-17T11:06:06Z</time>
      </trkpt>
      <trkpt lat="47.55284" lon="3.74146">
        <ele>212</ele>
        <time>2014-04-17T11:06:16Z</time>
      </trkpt>
      <trkpt lat="47.55272" lon="3.74144">
        <ele>212</ele>
        <time>2014-04-17T11:06:23Z</time>
      </trkpt>
      <trkpt lat="47.55267" lon="3.74145">
        <ele>211</ele>
        <time>2014-04-17T11:06:27Z</time>
      </trkpt>
      <trkpt lat="47.55263" lon="3.74146">
        <ele>211</ele>
        <time>2014-04-17T11:06:31Z</time>
      </trkpt>
      <trkpt lat="47.55258" lon="3.74146">
        <ele>211</ele>
        <time>2014-04-17T11:06:36Z</time>
      </trkpt>
      <trkpt lat="47.55252" lon="3.74145">
        <ele>211</ele>
        <time>2014-04-17T11:06:41Z</time>
      </trkpt>
      <trkpt lat="47.55242" lon="3.74143">
        <ele>211</ele>
        <time>2014-04-17T11:06:49Z</time>
      </trkpt>
      <trkpt lat="47.55237" lon="3.74143">
        <ele>211</ele>
        <time>2014-04-17T11:06:53Z</time>
      </trkpt>
      <trkpt lat="47.55232" lon="3.74143">
        <ele>211</ele>
        <time>2014-04-17T11:06:57Z</time>
      </trkpt>
      <trkpt lat="47.55227" lon="3.74142">
        <ele>211</ele>
        <time>2014-04-17T11:07:01Z</time>
      </trkpt>
      <trkpt lat="47.55222" lon="3.74141">
        <ele>211</ele>
        <time>2014-04-17T11:07:05Z</time>
      </trkpt>
      <trkpt lat="47.55211" lon="3.74139">
        <ele>212</ele>
        <time>2014-04-17T11:07:13Z</time>
      </trkpt>
      <trkpt lat="47.55206" lon="3.74137">
        <ele>212</ele>
        <time>2014-04-17T11:07:17Z</time>
      </trkpt>
      <trkpt lat="47.552" lon="3.74137">
        <ele>212</ele>
        <time>2014-04-17T11:07:21Z</time>
      </trkpt>
      <trkpt lat="47.55195" lon="3.74135">
        <ele>212</ele>
        <time>2014-04-17T11:07:27Z</time>
      </trkpt>
      <trkpt lat="47.55189" lon="3.74136">
        <ele>212</ele>
        <time>2014-04-17T11:07:32Z</time>
      </trkpt>
      <trkpt lat="47.55185" lon="3.74133">
        <ele>212</ele>
        <time>2014-04-17T11:07:51Z</time>
      </trkpt>
      <trkpt lat="47.55173" lon="3.74134">
        <ele>212</ele>
        <time>2014-04-17T11:07:59Z</time>
      </trkpt>
      <trkpt lat="47.55163" lon="3.74133">
        <ele>213</ele>
        <time>2014-04-17T11:08:06Z</time>
      </trkpt>
      <trkpt lat="47.55158" lon="3.74133">
        <ele>213</ele>
        <time>2014-04-17T11:08:12Z</time>
      </trkpt>
      <trkpt lat="47.55152" lon="3.74134">
        <ele>213</ele>
        <time>2014-04-17T11:08:15Z</time>
      </trkpt>
      <trkpt lat="47.55147" lon="3.74136">
        <ele>213</ele>
        <time>2014-04-17T11:08:18Z</time>
      </trkpt>
      <trkpt lat="47.55143" lon="3.7414">
        <ele>214</ele>
        <time>2014-04-17T11:08:22Z</time>
      </trkpt>
      <trkpt lat="47.55128" lon="3.74148">
        <ele>214</ele>
        <time>2014-04-17T11:08:35Z</time>
      </trkpt>
      <trkpt lat="47.55112" lon="3.74159">
        <ele>214</ele>
        <time>2014-04-17T11:08:46Z</time>
      </trkpt>
      <trkpt lat="47.55087" lon="3.74187">
        <ele>216</ele>
        <time>2014-04-17T11:09:03Z</time>
      </trkpt>
      <trkpt lat="47.55074" lon="3.7421">
        <ele>219</ele>
        <time>2014-04-17T11:09:27Z</time>
      </trkpt>
      <trkpt lat="47.55061" lon="3.74221">
        <ele>219</ele>
        <time>2014-04-17T11:09:40Z</time>
      </trkpt>
      <trkpt lat="47.55057" lon="3.74227">
        <ele>219</ele>
        <time>2014-04-17T11:09:43Z</time>
      </trkpt>
      <trkpt lat="47.55052" lon="3.74231">
        <ele>219</ele>
        <time>2014-04-17T11:09:47Z</time>
      </trkpt>
      <trkpt lat="47.55049" lon="3.74235">
        <ele>219</ele>
        <time>2014-04-17T11:09:51Z</time>
      </trkpt>
      <trkpt lat="47.55047" lon="3.74242">
        <ele>219</ele>
        <time>2014-04-17T11:09:56Z</time>
      </trkpt>
      <trkpt lat="47.55031" lon="3.74261">
        <ele>222</ele>
        <time>2014-04-17T11:10:12Z</time>
      </trkpt>
      <trkpt lat="47.55008" lon="3.74301">
        <ele>224</ele>
        <time>2014-04-17T11:10:35Z</time>
      </trkpt>
      <trkpt lat="47.55002" lon="3.74305">
        <ele>224</ele>
        <time>2014-04-17T11:10:39Z</time>
      </trkpt>
      <trkpt lat="47.54999" lon="3.74309">
        <ele>223</ele>
        <time>2014-04-17T11:10:43Z</time>
      </trkpt>
      <trkpt lat="47.54982" lon="3.74329">
        <ele>224</ele>
        <time>2014-04-17T11:11:01Z</time>
      </trkpt>
      <trkpt lat="47.54977" lon="3.74332">
        <ele>223</ele>
        <time>2014-04-17T11:11:05Z</time>
      </trkpt>
      <trkpt lat="47.54968" lon="3.74332">
        <ele>223</ele>
        <time>2014-04-17T11:11:12Z</time>
      </trkpt>
      <trkpt lat="47.54961" lon="3.74341">
        <ele>224</ele>
        <time>2014-04-17T11:11:21Z</time>
      </trkpt>
      <trkpt lat="47.54958" lon="3.74348">
        <ele>224</ele>
        <time>2014-04-17T11:11:26Z</time>
      </trkpt>
      <trkpt lat="47.54954" lon="3.74353">
        <ele>224</ele>
        <time>2014-04-17T11:11:30Z</time>
      </trkpt>
      <trkpt lat="47.5495" lon="3.74357">
        <ele>224</ele>
        <time>2014-04-17T11:11:33Z</time>
      </trkpt>
      <trkpt lat="47.54947" lon="3.74362">
        <ele>224</ele>
        <time>2014-04-17T11:11:36Z</time>
      </trkpt>
      <trkpt lat="47.5494" lon="3.74377">
        <ele>224</ele>
        <time>2014-04-17T11:11:43Z</time>
      </trkpt>
      <trkpt lat="47.54937" lon="3.74384">
        <ele>225</ele>
        <time>2014-04-17T11:11:47Z</time>
      </trkpt>
      <trkpt lat="47.54932" lon="3.74388">
        <ele>224</ele>
        <time>2014-04-17T11:11:51Z</time>
      </trkpt>
      <trkpt lat="47.5493" lon="3.74395">
        <ele>225</ele>
        <time>2014-04-17T11:11:57Z</time>
      </trkpt>
      <trkpt lat="47.54931" lon="3.74401">
        <ele>225</ele>
        <time>2014-04-17T11:12:01Z</time>
      </trkpt>
      <trkpt lat="47.54919" lon="3.74424">
        <ele>225</ele>
        <time>2014-04-17T11:12:15Z</time>
      </trkpt>
      <trkpt lat="47.54915" lon="3.74427">
        <ele>223</ele>
        <time>2014-04-17T11:12:18Z</time>
      </trkpt>
      <trkpt lat="47.54909" lon="3.74428">
        <ele>223</ele>
        <time>2014-04-17T11:12:21Z</time>
      </trkpt>
      <trkpt lat="47.54905" lon="3.74431">
        <ele>223</ele>
        <time>2014-04-17T11:12:24Z</time>
      </trkpt>
      <trkpt lat="47.54901" lon="3.74435">
        <ele>222</ele>
        <time>2014-04-17T11:12:27Z</time>
      </trkpt>
      <trkpt lat="47.54897" lon="3.7444">
        <ele>222</ele>
        <time>2014-04-17T11:12:30Z</time>
      </trkpt>
      <trkpt lat="47.54895" lon="3.74447">
        <ele>222</ele>
        <time>2014-04-17T11:12:34Z</time>
      </trkpt>
      <trkpt lat="47.54889" lon="3.74459">
        <ele>222</ele>
        <time>2014-04-17T11:12:40Z</time>
      </trkpt>
      <trkpt lat="47.54881" lon="3.74468">
        <ele>221</ele>
        <time>2014-04-17T11:12:48Z</time>
      </trkpt>
      <trkpt lat="47.54877" lon="3.74475">
        <ele>221</ele>
        <time>2014-04-17T11:12:52Z</time>
      </trkpt>
      <trkpt lat="47.54874" lon="3.74482">
        <ele>221</ele>
        <time>2014-04-17T11:12:55Z</time>
      </trkpt>
      <trkpt lat="47.54873" lon="3.74488">
        <ele>221</ele>
        <time>2014-04-17T11:12:58Z</time>
      </trkpt>
      <trkpt lat="47.54873" lon="3.74503">
        <ele>221</ele>
        <time>2014-04-17T11:13:09Z</time>
      </trkpt>
      <trkpt lat="47.54877" lon="3.74509">
        <ele>222</ele>
        <time>2014-04-17T11:13:14Z</time>
      </trkpt>
      <trkpt lat="47.54873" lon="3.74535">
        <ele>221</ele>
        <time>2014-04-17T11:13:25Z</time>
      </trkpt>
      <trkpt lat="47.5487" lon="3.74542">
        <ele>221</ele>
        <time>2014-04-17T11:13:28Z</time>
      </trkpt>
      <trkpt lat="47.54867" lon="3.74547">
        <ele>221</ele>
        <time>2014-04-17T11:13:31Z</time>
      </trkpt>
      <trkpt lat="47.54862" lon="3.7455">
        <ele>221</ele>
        <time>2014-04-17T11:13:35Z</time>
      </trkpt>
      <trkpt lat="47.54837" lon="3.74578">
        <ele>217</ele>
        <time>2014-04-17T11:13:57Z</time>
      </trkpt>
      <trkpt lat="47.54833" lon="3.74582">
        <ele>216</ele>
        <time>2014-04-17T11:14:01Z</time>
      </trkpt>
      <trkpt lat="47.54829" lon="3.74586">
        <ele>215</ele>
        <time>2014-04-17T11:14:05Z</time>
      </trkpt>
      <trkpt lat="47.54811" lon="3.746">
        <ele>213</ele>
        <time>2014-04-17T11:14:23Z</time>
      </trkpt>
      <trkpt lat="47.54806" lon="3.74603">
        <ele>213</ele>
        <time>2014-04-17T11:14:27Z</time>
      </trkpt>
      <trkpt lat="47.54787" lon="3.74618">
        <ele>212</ele>
        <time>2014-04-17T11:14:43Z</time>
      </trkpt>
      <trkpt lat="47.54777" lon="3.74624">
        <ele>211</ele>
        <time>2014-04-17T11:14:51Z</time>
      </trkpt>
      <trkpt lat="47.54752" lon="3.74653">
        <ele>210</ele>
        <time>2014-04-17T11:15:12Z</time>
      </trkpt>
      <trkpt lat="47.54734" lon="3.74668">
        <ele>208</ele>
        <time>2014-04-17T11:15:25Z</time>
      </trkpt>
      <trkpt lat="47.54723" lon="3.74682">
        <ele>208</ele>
        <time>2014-04-17T11:15:38Z</time>
      </trkpt>
      <trkpt lat="47.54719" lon="3.74687">
        <ele>208</ele>
        <time>2014-04-17T11:15:42Z</time>
      </trkpt>
      <trkpt lat="47.5471" lon="3.74693">
        <ele>208</ele>
        <time>2014-04-17T11:15:50Z</time>
      </trkpt>
      <trkpt lat="47.54675" lon="3.74726">
        <ele>207</ele>
        <time>2014-04-17T11:16:19Z</time>
      </trkpt>
      <trkpt lat="47.54663" lon="3.7474">
        <ele>207</ele>
        <time>2014-04-17T11:16:29Z</time>
      </trkpt>
      <trkpt lat="47.54658" lon="3.74743">
        <ele>207</ele>
        <time>2014-04-17T11:16:33Z</time>
      </trkpt>
      <trkpt lat="47.54649" lon="3.74748">
        <ele>207</ele>
        <time>2014-04-17T11:16:39Z</time>
      </trkpt>
      <trkpt lat="47.54645" lon="3.74753">
        <ele>207</ele>
        <time>2014-04-17T11:16:42Z</time>
      </trkpt>
      <trkpt lat="47.54642" lon="3.74754">
        <ele>207</ele>
        <time>2014-04-17T11:16:44Z</time>
      </trkpt>
      <trkpt lat="47.54637" lon="3.74756">
        <ele>207</ele>
        <time>2014-04-17T11:16:48Z</time>
      </trkpt>
      <trkpt lat="47.54629" lon="3.74761">
        <ele>207</ele>
        <time>2014-04-17T11:16:53Z</time>
      </trkpt>
      <trkpt lat="47.54622" lon="3.74767">
        <ele>207</ele>
        <time>2014-04-17T11:16:58Z</time>
      </trkpt>
      <trkpt lat="47.54617" lon="3.74773">
        <ele>207</ele>
        <time>2014-04-17T11:17:08Z</time>
      </trkpt>
      <trkpt lat="47.54615" lon="3.74779">
        <ele>207</ele>
        <time>2014-04-17T11:17:12Z</time>
      </trkpt>
      <trkpt lat="47.54613" lon="3.74785">
        <ele>207</ele>
        <time>2014-04-17T11:17:16Z</time>
      </trkpt>
      <trkpt lat="47.54609" lon="3.74791">
        <ele>207</ele>
        <time>2014-04-17T11:17:20Z</time>
      </trkpt>
      <trkpt lat="47.54605" lon="3.74795">
        <ele>207</ele>
        <time>2014-04-17T11:17:23Z</time>
      </trkpt>
      <trkpt lat="47.54582" lon="3.74813">
        <ele>208</ele>
        <time>2014-04-17T11:17:37Z</time>
      </trkpt>
      <trkpt lat="47.54579" lon="3.74815">
        <ele>208</ele>
        <time>2014-04-17T11:17:39Z</time>
      </trkpt>
      <trkpt lat="47.54573" lon="3.74818">
        <ele>208</ele>
        <time>2014-04-17T11:17:44Z</time>
      </trkpt>
      <trkpt lat="47.54564" lon="3.74825">
        <ele>208</ele>
        <time>2014-04-17T11:17:52Z</time>
      </trkpt>
      <trkpt lat="47.54559" lon="3.74826">
        <ele>208</ele>
        <time>2014-04-17T11:17:59Z</time>
      </trkpt>
      <trkpt lat="47.54555" lon="3.7483">
        <ele>208</ele>
        <time>2014-04-17T11:18:07Z</time>
      </trkpt>
      <trkpt lat="47.5455" lon="3.74829">
        <ele>209</ele>
        <time>2014-04-17T11:18:11Z</time>
      </trkpt>
      <trkpt lat="47.54548" lon="3.74828">
        <ele>209</ele>
        <time>2014-04-17T11:18:17Z</time>
      </trkpt>
      <trkpt lat="47.54543" lon="3.74831">
        <ele>209</ele>
        <time>2014-04-17T11:18:21Z</time>
      </trkpt>
      <trkpt lat="47.54538" lon="3.74832">
        <ele>209</ele>
        <time>2014-04-17T11:18:26Z</time>
      </trkpt>
      <trkpt lat="47.54524" lon="3.74841">
        <ele>209</ele>
        <time>2014-04-17T11:18:38Z</time>
      </trkpt>
      <trkpt lat="47.54518" lon="3.74843">
        <ele>210</ele>
        <time>2014-04-17T11:18:42Z</time>
      </trkpt>
      <trkpt lat="47.54514" lon="3.74845">
        <ele>210</ele>
        <time>2014-04-17T11:18:45Z</time>
      </trkpt>
      <trkpt lat="47.54495" lon="3.74858">
        <ele>210</ele>
        <time>2014-04-17T11:19:00Z</time>
      </trkpt>
      <trkpt lat="47.54491" lon="3.74862">
        <ele>210</ele>
        <time>2014-04-17T11:19:04Z</time>
      </trkpt>
      <trkpt lat="47.54485" lon="3.74866">
        <ele>210</ele>
        <time>2014-04-17T11:19:08Z</time>
      </trkpt>
      <trkpt lat="47.5448" lon="3.74867">
        <ele>210</ele>
        <time>2014-04-17T11:19:11Z</time>
      </trkpt>
      <trkpt lat="47.54469" lon="3.7487">
        <ele>210</ele>
        <time>2014-04-17T11:19:20Z</time>
      </trkpt>
      <trkpt lat="47.5446" lon="3.74877">
        <ele>210</ele>
        <time>2014-04-17T11:19:26Z</time>
      </trkpt>
      <trkpt lat="47.54455" lon="3.74878">
        <ele>210</ele>
        <time>2014-04-17T11:19:29Z</time>
      </trkpt>
      <trkpt lat="47.54451" lon="3.7488">
        <ele>210</ele>
        <time>2014-04-17T11:19:32Z</time>
      </trkpt>
      <trkpt lat="47.54442" lon="3.74888">
        <ele>210</ele>
        <time>2014-04-17T11:19:40Z</time>
      </trkpt>
      <trkpt lat="47.54434" lon="3.74898">
        <ele>210</ele>
        <time>2014-04-17T11:19:47Z</time>
      </trkpt>
      <trkpt lat="47.54424" lon="3.74899">
        <ele>210</ele>
        <time>2014-04-17T11:19:59Z</time>
      </trkpt>
      <trkpt lat="47.54418" lon="3.74898">
        <ele>210</ele>
        <time>2014-04-17T11:20:03Z</time>
      </trkpt>
      <trkpt lat="47.54409" lon="3.74901">
        <ele>211</ele>
        <time>2014-04-17T11:20:11Z</time>
      </trkpt>
      <trkpt lat="47.54398" lon="3.74902">
        <ele>211</ele>
        <time>2014-04-17T11:20:17Z</time>
      </trkpt>
      <trkpt lat="47.54393" lon="3.74901">
        <ele>211</ele>
        <time>2014-04-17T11:20:21Z</time>
      </trkpt>
      <trkpt lat="47.54383" lon="3.74903">
        <ele>211</ele>
        <time>2014-04-17T11:20:27Z</time>
      </trkpt>
      <trkpt lat="47.54378" lon="3.74905">
        <ele>212</ele>
        <time>2014-04-17T11:20:30Z</time>
      </trkpt>
      <trkpt lat="47.54372" lon="3.74906">
        <ele>212</ele>
        <time>2014-04-17T11:20:34Z</time>
      </trkpt>
      <trkpt lat="47.54367" lon="3.74908">
        <ele>212</ele>
        <time>2014-04-17T11:20:38Z</time>
      </trkpt>
      <trkpt lat="47.54363" lon="3.74911">
        <ele>212</ele>
        <time>2014-04-17T11:20:41Z</time>
      </trkpt>
      <trkpt lat="47.54358" lon="3.74916">
        <ele>212</ele>
        <time>2014-04-17T11:20:45Z</time>
      </trkpt>
      <trkpt lat="47.54342" lon="3.74919">
        <ele>213</ele>
        <time>2014-04-17T11:21:02Z</time>
      </trkpt>
      <trkpt lat="47.54333" lon="3.74926">
        <ele>214</ele>
        <time>2014-04-17T11:21:10Z</time>
      </trkpt>
      <trkpt lat="47.5431" lon="3.74925">
        <ele>215</ele>
        <time>2014-04-17T11:21:26Z</time>
      </trkpt>
      <trkpt lat="47.54294" lon="3.74928">
        <ele>215</ele>
        <time>2014-04-17T11:21:35Z</time>
      </trkpt>
      <trkpt lat="47.54289" lon="3.74927">
        <ele>215</ele>
        <time>2014-04-17T11:21:39Z</time>
      </trkpt>
      <trkpt lat="47.54284" lon="3.74928">
        <ele>215</ele>
        <time>2014-04-17T11:21:44Z</time>
      </trkpt>
      <trkpt lat="47.54279" lon="3.7493">
        <ele>215</ele>
        <time>2014-04-17T11:21:49Z</time>
      </trkpt>
      <trkpt lat="47.54275" lon="3.74931">
        <ele>215</ele>
        <time>2014-04-17T11:21:54Z</time>
      </trkpt>
      <trkpt lat="47.54264" lon="3.74936">
        <ele>215</ele>
        <time>2014-04-17T11:22:01Z</time>
      </trkpt>
      <trkpt lat="47.54258" lon="3.74937">
        <ele>215</ele>
        <time>2014-04-17T11:22:05Z</time>
      </trkpt>
      <trkpt lat="47.54253" lon="3.74938">
        <ele>215</ele>
        <time>2014-04-17T11:22:09Z</time>
      </trkpt>
      <trkpt lat="47.54248" lon="3.74941">
        <ele>218</ele>
        <time>2014-04-17T11:22:14Z</time>
      </trkpt>
      <trkpt lat="47.54244" lon="3.74945">
        <ele>218</ele>
        <time>2014-04-17T11:22:18Z</time>
      </trkpt>
      <trkpt lat="47.54238" lon="3.74948">
        <ele>218</ele>
        <time>2014-04-17T11:22:22Z</time>
      </trkpt>
      <trkpt lat="47.54234" lon="3.74946">
        <ele>218</ele>
        <time>2014-04-17T11:22:27Z</time>
      </trkpt>
      <trkpt lat="47.54229" lon="3.74949">
        <ele>219</ele>
        <time>2014-04-17T11:22:35Z</time>
      </trkpt>
      <trkpt lat="47.54224" lon="3.74952">
        <ele>219</ele>
        <time>2014-04-17T11:22:40Z</time>
      </trkpt>
      <trkpt lat="47.54219" lon="3.74954">
        <ele>219</ele>
        <time>2014-04-17T11:22:45Z</time>
      </trkpt>
      <trkpt lat="47.54214" lon="3.74955">
        <ele>219</ele>
        <time>2014-04-17T11:22:49Z</time>
      </trkpt>
      <trkpt lat="47.54208" lon="3.74958">
        <ele>219</ele>
        <time>2014-04-17T11:22:52Z</time>
      </trkpt>
      <trkpt lat="47.54203" lon="3.74959">
        <ele>219</ele>
        <time>2014-04-17T11:22:56Z</time>
      </trkpt>
      <trkpt lat="47.54198" lon="3.7496">
        <ele>220</ele>
        <time>2014-04-17T11:23:00Z</time>
      </trkpt>
      <trkpt lat="47.54187" lon="3.7496">
        <ele>220</ele>
        <time>2014-04-17T11:23:09Z</time>
      </trkpt>
      <trkpt lat="47.54183" lon="3.74957">
        <ele>220</ele>
        <time>2014-04-17T11:23:16Z</time>
      </trkpt>
      <trkpt lat="47.54176" lon="3.74958">
        <ele>220</ele>
        <time>2014-04-17T11:23:22Z</time>
      </trkpt>
      <trkpt lat="47.5417" lon="3.7496">
        <ele>220</ele>
        <time>2014-04-17T11:23:26Z</time>
      </trkpt>
      <trkpt lat="47.54166" lon="3.74961">
        <ele>225</ele>
        <time>2014-04-17T11:23:29Z</time>
      </trkpt>
      <trkpt lat="47.5416" lon="3.74963">
        <ele>225</ele>
        <time>2014-04-17T11:23:33Z</time>
      </trkpt>
      <trkpt lat="47.54156" lon="3.74963">
        <ele>226</ele>
        <time>2014-04-17T11:23:39Z</time>
      </trkpt>
      <trkpt lat="47.54139" lon="3.74967">
        <ele>226</ele>
        <time>2014-04-17T11:23:50Z</time>
      </trkpt>
      <trkpt lat="47.54135" lon="3.74964">
        <ele>227</ele>
        <time>2014-04-17T11:23:54Z</time>
      </trkpt>
      <trkpt lat="47.54125" lon="3.74967">
        <ele>227</ele>
        <time>2014-04-17T11:24:03Z</time>
      </trkpt>
      <trkpt lat="47.5412" lon="3.74971">
        <ele>227</ele>
        <time>2014-04-17T11:24:07Z</time>
      </trkpt>
      <trkpt lat="47.54117" lon="3.74976">
        <ele>227</ele>
        <time>2014-04-17T11:24:12Z</time>
      </trkpt>
      <trkpt lat="47.5411" lon="3.74978">
        <ele>228</ele>
        <time>2014-04-17T11:24:17Z</time>
      </trkpt>
      <trkpt lat="47.54105" lon="3.74981">
        <ele>228</ele>
        <time>2014-04-17T11:24:21Z</time>
      </trkpt>
      <trkpt lat="47.5409" lon="3.74985">
        <ele>228</ele>
        <time>2014-04-17T11:24:34Z</time>
      </trkpt>
      <trkpt lat="47.54086" lon="3.74987">
        <ele>228</ele>
        <time>2014-04-17T11:24:37Z</time>
      </trkpt>
      <trkpt lat="47.54081" lon="3.7499">
        <ele>232</ele>
        <time>2014-04-17T11:24:41Z</time>
      </trkpt>
      <trkpt lat="47.54077" lon="3.74993">
        <ele>231</ele>
        <time>2014-04-17T11:24:48Z</time>
      </trkpt>
      <trkpt lat="47.54073" lon="3.74998">
        <ele>232</ele>
        <time>2014-04-17T11:24:52Z</time>
      </trkpt>
      <trkpt lat="47.54069" lon="3.75001">
        <ele>231</ele>
        <time>2014-04-17T11:24:55Z</time>
      </trkpt>
      <trkpt lat="47.54057" lon="3.75004">
        <ele>232</ele>
        <time>2014-04-17T11:25:01Z</time>
      </trkpt>
      <trkpt lat="47.54053" lon="3.75001">
        <ele>233</ele>
        <time>2014-04-17T11:25:08Z</time>
      </trkpt>
      <trkpt lat="47.5405" lon="3.75007">
        <ele>233</ele>
        <time>2014-04-17T11:25:13Z</time>
      </trkpt>
      <trkpt lat="47.54046" lon="3.75011">
        <ele>233</ele>
        <time>2014-04-17T11:25:18Z</time>
      </trkpt>
      <trkpt lat="47.54042" lon="3.75014">
        <ele>234</ele>
        <time>2014-04-17T11:25:22Z</time>
      </trkpt>
      <trkpt lat="47.54037" lon="3.75017">
        <ele>234</ele>
        <time>2014-04-17T11:25:27Z</time>
      </trkpt>
      <trkpt lat="47.54033" lon="3.75021">
        <ele>234</ele>
        <time>2014-04-17T11:25:30Z</time>
      </trkpt>
      <trkpt lat="47.54022" lon="3.75025">
        <ele>235</ele>
        <time>2014-04-17T11:25:36Z</time>
      </trkpt>
      <trkpt lat="47.54018" lon="3.75028">
        <ele>235</ele>
        <time>2014-04-17T11:25:41Z</time>
      </trkpt>
      <trkpt lat="47.54013" lon="3.7503">
        <ele>235</ele>
        <time>2014-04-17T11:25:46Z</time>
      </trkpt>
      <trkpt lat="47.54008" lon="3.75034">
        <ele>235</ele>
        <time>2014-04-17T11:25:51Z</time>
      </trkpt>
      <trkpt lat="47.54" lon="3.75042">
        <ele>241</ele>
        <time>2014-04-17T11:25:58Z</time>
      </trkpt>
      <trkpt lat="47.53996" lon="3.75047">
        <ele>241</ele>
        <time>2014-04-17T11:26:03Z</time>
      </trkpt>
      <trkpt lat="47.53992" lon="3.75052">
        <ele>240</ele>
        <time>2014-04-17T11:26:06Z</time>
      </trkpt>
      <trkpt lat="47.53987" lon="3.75059">
        <ele>240</ele>
        <time>2014-04-17T11:26:09Z</time>
      </trkpt>
      <trkpt lat="47.53977" lon="3.75066">
        <ele>240</ele>
        <time>2014-04-17T11:26:14Z</time>
      </trkpt>
      <trkpt lat="47.53973" lon="3.7507">
        <ele>240</ele>
        <time>2014-04-17T11:26:17Z</time>
      </trkpt>
      <trkpt lat="47.53971" lon="3.75076">
        <ele>240</ele>
        <time>2014-04-17T11:26:24Z</time>
      </trkpt>
      <trkpt lat="47.53966" lon="3.7508">
        <ele>240</ele>
        <time>2014-04-17T11:26:30Z</time>
      </trkpt>
      <trkpt lat="47.53961" lon="3.75081">
        <ele>241</ele>
        <time>2014-04-17T11:26:33Z</time>
      </trkpt>
      <trkpt lat="47.53955" lon="3.75081">
        <ele>241</ele>
        <time>2014-04-17T11:26:37Z</time>
      </trkpt>
      <trkpt lat="47.53951" lon="3.75082">
        <ele>241</ele>
        <time>2014-04-17T11:26:42Z</time>
      </trkpt>
      <trkpt lat="47.53946" lon="3.75086">
        <ele>238</ele>
        <time>2014-04-17T11:26:47Z</time>
      </trkpt>
      <trkpt lat="47.5394" lon="3.75086">
        <ele>238</ele>
        <time>2014-04-17T11:26:51Z</time>
      </trkpt>
      <trkpt lat="47.53935" lon="3.75088">
        <ele>239</ele>
        <time>2014-04-17T11:26:54Z</time>
      </trkpt>
      <trkpt lat="47.53931" lon="3.75091">
        <ele>239</ele>
        <time>2014-04-17T11:26:57Z</time>
      </trkpt>
      <trkpt lat="47.53927" lon="3.75096">
        <ele>239</ele>
        <time>2014-04-17T11:27:05Z</time>
      </trkpt>
      <trkpt lat="47.53923" lon="3.751">
        <ele>239</ele>
        <time>2014-04-17T11:27:10Z</time>
      </trkpt>
      <trkpt lat="47.53918" lon="3.75101">
        <ele>239</ele>
        <time>2014-04-17T11:27:15Z</time>
      </trkpt>
      <trkpt lat="47.5391" lon="3.75107">
        <ele>243</ele>
        <time>2014-04-17T11:27:39Z</time>
      </trkpt>
      <trkpt lat="47.53906" lon="3.75113">
        <ele>243</ele>
        <time>2014-04-17T11:27:44Z</time>
      </trkpt>
      <trkpt lat="47.53901" lon="3.75115">
        <ele>243</ele>
        <time>2014-04-17T11:27:48Z</time>
      </trkpt>
      <trkpt lat="47.53897" lon="3.7512">
        <ele>244</ele>
        <time>2014-04-17T11:27:53Z</time>
      </trkpt>
      <trkpt lat="47.53893" lon="3.75123">
        <ele>244</ele>
        <time>2014-04-17T11:27:57Z</time>
      </trkpt>
      <trkpt lat="47.53883" lon="3.75127">
        <ele>244</ele>
        <time>2014-04-17T11:28:05Z</time>
      </trkpt>
      <trkpt lat="47.53879" lon="3.7513">
        <ele>245</ele>
        <time>2014-04-17T11:28:09Z</time>
      </trkpt>
      <trkpt lat="47.53874" lon="3.75133">
        <ele>245</ele>
        <time>2014-04-17T11:28:12Z</time>
      </trkpt>
      <trkpt lat="47.53868" lon="3.75139">
        <ele>245</ele>
        <time>2014-04-17T11:28:16Z</time>
      </trkpt>
      <trkpt lat="47.53864" lon="3.75145">
        <ele>245</ele>
        <time>2014-04-17T11:28:20Z</time>
      </trkpt>
      <trkpt lat="47.53859" lon="3.75149">
        <ele>246</ele>
        <time>2014-04-17T11:28:23Z</time>
      </trkpt>
      <trkpt lat="47.53854" lon="3.7515">
        <ele>246</ele>
        <time>2014-04-17T11:28:25Z</time>
      </trkpt>
      <trkpt lat="47.53849" lon="3.75153">
        <ele>247</ele>
        <time>2014-04-17T11:28:28Z</time>
      </trkpt>
      <trkpt lat="47.53842" lon="3.75164">
        <ele>248</ele>
        <time>2014-04-17T11:28:42Z</time>
      </trkpt>
      <trkpt lat="47.53838" lon="3.75166">
        <ele>248</ele>
        <time>2014-04-17T11:28:48Z</time>
      </trkpt>
      <trkpt lat="47.53833" lon="3.75169">
        <ele>249</ele>
        <time>2014-04-17T11:28:53Z</time>
      </trkpt>
      <trkpt lat="47.53829" lon="3.75174">
        <ele>250</ele>
        <time>2014-04-17T11:28:59Z</time>
      </trkpt>
      <trkpt lat="47.53825" lon="3.75175">
        <ele>250</ele>
        <time>2014-04-17T11:29:06Z</time>
      </trkpt>
      <trkpt lat="47.53819" lon="3.75179">
        <ele>250</ele>
        <time>2014-04-17T11:29:10Z</time>
      </trkpt>
      <trkpt lat="47.53814" lon="3.75183">
        <ele>251</ele>
        <time>2014-04-17T11:29:13Z</time>
      </trkpt>
      <trkpt lat="47.53809" lon="3.75188">
        <ele>251</ele>
        <time>2014-04-17T11:29:17Z</time>
      </trkpt>
      <trkpt lat="47.53804" lon="3.7519">
        <ele>251</ele>
        <time>2014-04-17T11:29:21Z</time>
      </trkpt>
      <trkpt lat="47.53799" lon="3.75191">
        <ele>252</ele>
        <time>2014-04-17T11:29:24Z</time>
      </trkpt>
      <trkpt lat="47.53794" lon="3.75194">
        <ele>252</ele>
        <time>2014-04-17T11:29:30Z</time>
      </trkpt>
      <trkpt lat="47.53789" lon="3.75197">
        <ele>252</ele>
        <time>2014-04-17T11:29:35Z</time>
      </trkpt>
      <trkpt lat="47.53785" lon="3.75201">
        <ele>252</ele>
        <time>2014-04-17T11:29:39Z</time>
      </trkpt>
      <trkpt lat="47.53776" lon="3.75204">
        <ele>253</ele>
        <time>2014-04-17T11:29:47Z</time>
      </trkpt>
      <trkpt lat="47.53772" lon="3.75208">
        <ele>253</ele>
        <time>2014-04-17T11:29:51Z</time>
      </trkpt>
      <trkpt lat="47.53768" lon="3.75213">
        <ele>253</ele>
        <time>2014-04-17T11:29:54Z</time>
      </trkpt>
      <trkpt lat="47.53759" lon="3.75219">
        <ele>253</ele>
        <time>2014-04-17T11:30:00Z</time>
      </trkpt>
      <trkpt lat="47.53754" lon="3.75221">
        <ele>253</ele>
        <time>2014-04-17T11:30:04Z</time>
      </trkpt>
      <trkpt lat="47.5375" lon="3.75223">
        <ele>255</ele>
        <time>2014-04-17T11:30:07Z</time>
      </trkpt>
      <trkpt lat="47.53745" lon="3.75223">
        <ele>255</ele>
        <time>2014-04-17T11:30:11Z</time>
      </trkpt>
      <trkpt lat="47.53741" lon="3.75226">
        <ele>255</ele>
        <time>2014-04-17T11:30:15Z</time>
      </trkpt>
      <trkpt lat="47.53736" lon="3.75229">
        <ele>255</ele>
        <time>2014-04-17T11:30:19Z</time>
      </trkpt>
      <trkpt lat="47.53733" lon="3.75234">
        <ele>255</ele>
        <time>2014-04-17T11:30:22Z</time>
      </trkpt>
      <trkpt lat="47.53728" lon="3.75238">
        <ele>255</ele>
        <time>2014-04-17T11:30:26Z</time>
      </trkpt>
      <trkpt lat="47.53723" lon="3.7524">
        <ele>255</ele>
        <time>2014-04-17T11:30:29Z</time>
      </trkpt>
      <trkpt lat="47.53718" lon="3.75243">
        <ele>255</ele>
        <time>2014-04-17T11:30:33Z</time>
      </trkpt>
      <trkpt lat="47.53713" lon="3.75244">
        <ele>255</ele>
        <time>2014-04-17T11:30:39Z</time>
      </trkpt>
      <trkpt lat="47.53707" lon="3.75246">
        <ele>255</ele>
        <time>2014-04-17T11:30:43Z</time>
      </trkpt>
      <trkpt lat="47.53703" lon="3.75248">
        <ele>255</ele>
        <time>2014-04-17T11:30:48Z</time>
      </trkpt>
      <trkpt lat="47.53698" lon="3.75247">
        <ele>255</ele>
        <time>2014-04-17T11:30:52Z</time>
      </trkpt>
      <trkpt lat="47.53686" lon="3.75248">
        <ele>255</ele>
        <time>2014-04-17T11:30:59Z</time>
      </trkpt>
      <trkpt lat="47.53676" lon="3.75257">
        <ele>254</ele>
        <time>2014-04-17T11:31:05Z</time>
      </trkpt>
      <trkpt lat="47.53673" lon="3.75262">
        <ele>253</ele>
        <time>2014-04-17T11:31:10Z</time>
      </trkpt>
      <trkpt lat="47.53658" lon="3.7526">
        <ele>254</ele>
        <time>2014-04-17T11:31:25Z</time>
      </trkpt>
      <trkpt lat="47.53644" lon="3.75263">
        <ele>254</ele>
        <time>2014-04-17T11:31:38Z</time>
      </trkpt>
      <trkpt lat="47.53639" lon="3.75263">
        <ele>254</ele>
        <time>2014-04-17T11:31:41Z</time>
      </trkpt>
      <trkpt lat="47.53634" lon="3.75262">
        <ele>254</ele>
        <time>2014-04-17T11:31:46Z</time>
      </trkpt>
      <trkpt lat="47.53623" lon="3.75264">
        <ele>254</ele>
        <time>2014-04-17T11:31:54Z</time>
      </trkpt>
      <trkpt lat="47.53612" lon="3.75263">
        <ele>254</ele>
        <time>2014-04-17T11:32:04Z</time>
      </trkpt>
      <trkpt lat="47.53603" lon="3.75257">
        <ele>254</ele>
        <time>2014-04-17T11:32:13Z</time>
      </trkpt>
      <trkpt lat="47.53598" lon="3.75258">
        <ele>254</ele>
        <time>2014-04-17T11:32:17Z</time>
      </trkpt>
      <trkpt lat="47.53589" lon="3.75256">
        <ele>254</ele>
        <time>2014-04-17T11:32:24Z</time>
      </trkpt>
      <trkpt lat="47.53583" lon="3.75257">
        <ele>254</ele>
        <time>2014-04-17T11:32:27Z</time>
      </trkpt>
      <trkpt lat="47.53577" lon="3.75258">
        <ele>254</ele>
        <time>2014-04-17T11:32:31Z</time>
      </trkpt>
      <trkpt lat="47.53573" lon="3.75262">
        <ele>253</ele>
        <time>2014-04-17T11:32:34Z</time>
      </trkpt>
      <trkpt lat="47.53569" lon="3.75269">
        <ele>253</ele>
        <time>2014-04-17T11:32:39Z</time>
      </trkpt>
      <trkpt lat="47.53567" lon="3.75277">
        <ele>252</ele>
        <time>2014-04-17T11:32:48Z</time>
      </trkpt>
      <trkpt lat="47.53564" lon="3.75313">
        <ele>251</ele>
        <time>2014-04-17T11:33:14Z</time>
      </trkpt>
      <trkpt lat="47.5356" lon="3.75326">
        <ele>251</ele>
        <time>2014-04-17T11:33:21Z</time>
      </trkpt>
      <trkpt lat="47.53558" lon="3.75333">
        <ele>251</ele>
        <time>2014-04-17T11:33:25Z</time>
      </trkpt>
      <trkpt lat="47.53557" lon="3.7534">
        <ele>249</ele>
        <time>2014-04-17T11:33:28Z</time>
      </trkpt>
      <trkpt lat="47.53555" lon="3.75346">
        <ele>248</ele>
        <time>2014-04-17T11:33:33Z</time>
      </trkpt>
      <trkpt lat="47.53556" lon="3.75354">
        <ele>248</ele>
        <time>2014-04-17T11:33:41Z</time>
      </trkpt>
      <trkpt lat="47.53556" lon="3.7537">
        <ele>248</ele>
        <time>2014-04-17T11:33:48Z</time>
      </trkpt>
      <trkpt lat="47.53557" lon="3.75385">
        <ele>248</ele>
        <time>2014-04-17T11:33:57Z</time>
      </trkpt>
      <trkpt lat="47.53556" lon="3.75392">
        <ele>247</ele>
        <time>2014-04-17T11:34:03Z</time>
      </trkpt>
      <trkpt lat="47.53558" lon="3.754">
        <ele>247</ele>
        <time>2014-04-17T11:34:07Z</time>
      </trkpt>
      <trkpt lat="47.53558" lon="3.75409">
        <ele>247</ele>
        <time>2014-04-17T11:34:11Z</time>
      </trkpt>
      <trkpt lat="47.53559" lon="3.75416">
        <ele>247</ele>
        <time>2014-04-17T11:34:14Z</time>
      </trkpt>
      <trkpt lat="47.53557" lon="3.75437">
        <ele>244</ele>
        <time>2014-04-17T11:34:23Z</time>
      </trkpt>
      <trkpt lat="47.53552" lon="3.7546">
        <ele>242</ele>
        <time>2014-04-17T11:34:38Z</time>
      </trkpt>
      <trkpt lat="47.53552" lon="3.75467">
        <ele>242</ele>
        <time>2014-04-17T11:34:42Z</time>
      </trkpt>
      <trkpt lat="47.53552" lon="3.75475">
        <ele>242</ele>
        <time>2014-04-17T11:34:45Z</time>
      </trkpt>
      <trkpt lat="47.53551" lon="3.75483">
        <ele>242</ele>
        <time>2014-04-17T11:34:48Z</time>
      </trkpt>
      <trkpt lat="47.53551" lon="3.75522">
        <ele>239</ele>
        <time>2014-04-17T11:35:04Z</time>
      </trkpt>
      <trkpt lat="47.53548" lon="3.75528">
        <ele>238</ele>
        <time>2014-04-17T11:35:08Z</time>
      </trkpt>
      <trkpt lat="47.53546" lon="3.7553">
        <ele>238</ele>
        <time>2014-04-17T11:35:14Z</time>
      </trkpt>
      <trkpt lat="47.53543" lon="3.75528">
        <ele>238</ele>
        <time>2014-04-17T11:35:28Z</time>
      </trkpt>
      <trkpt lat="47.53543" lon="3.75538">
        <ele>238</ele>
        <time>2014-04-17T11:35:45Z</time>
      </trkpt>
      <trkpt lat="47.53546" lon="3.75544">
        <ele>238</ele>
        <time>2014-04-17T11:35:52Z</time>
      </trkpt>
      <trkpt lat="47.53546" lon="3.75553">
        <ele>238</ele>
        <time>2014-04-17T11:35:59Z</time>
      </trkpt>
      <trkpt lat="47.53543" lon="3.75581">
        <ele>237</ele>
        <time>2014-04-17T11:36:14Z</time>
      </trkpt>
      <trkpt lat="47.53544" lon="3.75597">
        <ele>237</ele>
        <time>2014-04-17T11:36:23Z</time>
      </trkpt>
      <trkpt lat="47.53542" lon="3.75611">
        <ele>237</ele>
        <time>2014-04-17T11:36:31Z</time>
      </trkpt>
      <trkpt lat="47.53542" lon="3.75618">
        <ele>237</ele>
        <time>2014-04-17T11:36:35Z</time>
      </trkpt>
      <trkpt lat="47.5354" lon="3.75626">
        <ele>237</ele>
        <time>2014-04-17T11:36:41Z</time>
      </trkpt>
      <trkpt lat="47.53532" lon="3.75636">
        <ele>236</ele>
        <time>2014-04-17T11:36:48Z</time>
      </trkpt>
      <trkpt lat="47.53522" lon="3.75662">
        <ele>235</ele>
        <time>2014-04-17T11:37:04Z</time>
      </trkpt>
      <trkpt lat="47.53518" lon="3.75667">
        <ele>235</ele>
        <time>2014-04-17T11:37:07Z</time>
      </trkpt>
      <trkpt lat="47.53497" lon="3.75706">
        <ele>233</ele>
        <time>2014-04-17T11:37:37Z</time>
      </trkpt>
      <trkpt lat="47.53475" lon="3.75736">
        <ele>232</ele>
        <time>2014-04-17T11:38:00Z</time>
      </trkpt>
      <trkpt lat="47.53471" lon="3.7574">
        <ele>232</ele>
        <time>2014-04-17T11:38:03Z</time>
      </trkpt>
      <trkpt lat="47.53467" lon="3.75743">
        <ele>232</ele>
        <time>2014-04-17T11:38:05Z</time>
      </trkpt>
      <trkpt lat="47.53461" lon="3.75747">
        <ele>232</ele>
        <time>2014-04-17T11:38:08Z</time>
      </trkpt>
      <trkpt lat="47.53457" lon="3.75751">
        <ele>230</ele>
        <time>2014-04-17T11:38:11Z</time>
      </trkpt>
      <trkpt lat="47.53454" lon="3.75756">
        <ele>230</ele>
        <time>2014-04-17T11:38:14Z</time>
      </trkpt>
      <trkpt lat="47.53421" lon="3.75788">
        <ele>229</ele>
        <time>2014-04-17T11:38:41Z</time>
      </trkpt>
      <trkpt lat="47.53406" lon="3.7581">
        <ele>229</ele>
        <time>2014-04-17T11:39:03Z</time>
      </trkpt>
      <trkpt lat="47.53402" lon="3.75814">
        <ele>229</ele>
        <time>2014-04-17T11:39:07Z</time>
      </trkpt>
      <trkpt lat="47.53398" lon="3.75819">
        <ele>229</ele>
        <time>2014-04-17T11:39:14Z</time>
      </trkpt>
      <trkpt lat="47.53396" lon="3.75826">
        <ele>229</ele>
        <time>2014-04-17T11:39:20Z</time>
      </trkpt>
      <trkpt lat="47.53384" lon="3.75852">
        <ele>231</ele>
        <time>2014-04-17T11:39:36Z</time>
      </trkpt>
      <trkpt lat="47.53379" lon="3.75858">
        <ele>231</ele>
        <time>2014-04-17T11:39:40Z</time>
      </trkpt>
      <trkpt lat="47.53376" lon="3.75863">
        <ele>231</ele>
        <time>2014-04-17T11:39:43Z</time>
      </trkpt>
      <trkpt lat="47.5337" lon="3.75876">
        <ele>232</ele>
        <time>2014-04-17T11:39:51Z</time>
      </trkpt>
      <trkpt lat="47.53365" lon="3.75875">
        <ele>232</ele>
        <time>2014-04-17T11:39:58Z</time>
      </trkpt>
      <trkpt lat="47.5336" lon="3.75873">
        <ele>233</ele>
        <time>2014-04-17T11:40:03Z</time>
      </trkpt>
      <trkpt lat="47.53356" lon="3.75872">
        <ele>233</ele>
        <time>2014-04-17T11:40:06Z</time>
      </trkpt>
      <trkpt lat="47.53351" lon="3.75868">
        <ele>233</ele>
        <time>2014-04-17T11:40:11Z</time>
      </trkpt>
      <trkpt lat="47.53347" lon="3.75862">
        <ele>233</ele>
        <time>2014-04-17T11:40:15Z</time>
      </trkpt>
      <trkpt lat="47.53343" lon="3.75857">
        <ele>233</ele>
        <time>2014-04-17T11:40:20Z</time>
      </trkpt>
      <trkpt lat="47.53339" lon="3.75853">
        <ele>233</ele>
        <time>2014-04-17T11:40:26Z</time>
      </trkpt>
      <trkpt lat="47.53334" lon="3.7585">
        <ele>234</ele>
        <time>2014-04-17T11:40:31Z</time>
      </trkpt>
      <trkpt lat="47.53329" lon="3.75849">
        <ele>238</ele>
        <time>2014-04-17T11:40:36Z</time>
      </trkpt>
      <trkpt lat="47.53324" lon="3.75847">
        <ele>238</ele>
        <time>2014-04-17T11:40:40Z</time>
      </trkpt>
      <trkpt lat="47.53311" lon="3.7585">
        <ele>239</ele>
        <time>2014-04-17T11:40:48Z</time>
      </trkpt>
      <trkpt lat="47.53306" lon="3.7585">
        <ele>239</ele>
        <time>2014-04-17T11:40:52Z</time>
      </trkpt>
      <trkpt lat="47.53302" lon="3.7585">
        <ele>240</ele>
        <time>2014-04-17T11:40:56Z</time>
      </trkpt>
      <trkpt lat="47.53297" lon="3.75848">
        <ele>240</ele>
        <time>2014-04-17T11:41:00Z</time>
      </trkpt>
      <trkpt lat="47.53291" lon="3.7585">
        <ele>240</ele>
        <time>2014-04-17T11:41:04Z</time>
      </trkpt>
      <trkpt lat="47.53286" lon="3.7585">
        <ele>241</ele>
        <time>2014-04-17T11:41:09Z</time>
      </trkpt>
      <trkpt lat="47.53274" lon="3.75836">
        <ele>242</ele>
        <time>2014-04-17T11:41:19Z</time>
      </trkpt>
      <trkpt lat="47.53271" lon="3.75829">
        <ele>241</ele>
        <time>2014-04-17T11:41:23Z</time>
      </trkpt>
      <trkpt lat="47.53267" lon="3.75826">
        <ele>241</ele>
        <time>2014-04-17T11:41:27Z</time>
      </trkpt>
      <trkpt lat="47.53262" lon="3.75821">
        <ele>241</ele>
        <time>2014-04-17T11:41:32Z</time>
      </trkpt>
      <trkpt lat="47.53259" lon="3.75819">
        <ele>241</ele>
        <time>2014-04-17T11:41:41Z</time>
      </trkpt>
      <trkpt lat="47.53255" lon="3.75821">
        <ele>242</ele>
        <time>2014-04-17T11:41:48Z</time>
      </trkpt>
      <trkpt lat="47.5325" lon="3.75819">
        <ele>242</ele>
        <time>2014-04-17T11:41:56Z</time>
      </trkpt>
      <trkpt lat="47.53246" lon="3.7582">
        <ele>244</ele>
        <time>2014-04-17T11:42:13Z</time>
      </trkpt>
      <trkpt lat="47.53246" lon="3.75824">
        <ele>244</ele>
        <time>2014-04-17T11:42:19Z</time>
      </trkpt>
      <trkpt lat="47.53244" lon="3.75827">
        <ele>244</ele>
        <time>2014-04-17T11:42:30Z</time>
      </trkpt>
      <trkpt lat="47.5324" lon="3.75831">
        <ele>244</ele>
        <time>2014-04-17T11:42:34Z</time>
      </trkpt>
      <trkpt lat="47.53236" lon="3.75836">
        <ele>246</ele>
        <time>2014-04-17T11:42:38Z</time>
      </trkpt>
      <trkpt lat="47.53231" lon="3.75838">
        <ele>246</ele>
        <time>2014-04-17T11:42:42Z</time>
      </trkpt>
      <trkpt lat="47.53227" lon="3.75841">
        <ele>247</ele>
        <time>2014-04-17T11:42:46Z</time>
      </trkpt>
      <trkpt lat="47.53221" lon="3.75844">
        <ele>247</ele>
        <time>2014-04-17T11:42:50Z</time>
      </trkpt>
      <trkpt lat="47.53217" lon="3.75848">
        <ele>247</ele>
        <time>2014-04-17T11:42:57Z</time>
      </trkpt>
      <trkpt lat="47.53212" lon="3.7585">
        <ele>248</ele>
        <time>2014-04-17T11:43:01Z</time>
      </trkpt>
      <trkpt lat="47.53203" lon="3.75858">
        <ele>248</ele>
        <time>2014-04-17T11:43:11Z</time>
      </trkpt>
      <trkpt lat="47.53199" lon="3.75861">
        <ele>248</ele>
        <time>2014-04-17T11:43:15Z</time>
      </trkpt>
      <trkpt lat="47.53174" lon="3.75897">
        <ele>250</ele>
        <time>2014-04-17T11:43:41Z</time>
      </trkpt>
      <trkpt lat="47.53169" lon="3.75902">
        <ele>250</ele>
        <time>2014-04-17T11:43:46Z</time>
      </trkpt>
      <trkpt lat="47.53166" lon="3.75906">
        <ele>252</ele>
        <time>2014-04-17T11:43:51Z</time>
      </trkpt>
      <trkpt lat="47.53162" lon="3.7591">
        <ele>252</ele>
        <time>2014-04-17T11:43:55Z</time>
      </trkpt>
      <trkpt lat="47.53157" lon="3.75914">
        <ele>252</ele>
        <time>2014-04-17T11:43:59Z</time>
      </trkpt>
      <trkpt lat="47.53153" lon="3.75915">
        <ele>253</ele>
        <time>2014-04-17T11:44:03Z</time>
      </trkpt>
      <trkpt lat="47.53151" lon="3.75914">
        <ele>253</ele>
        <time>2014-04-17T11:44:09Z</time>
      </trkpt>
      <trkpt lat="47.53147" lon="3.75918">
        <ele>254</ele>
        <time>2014-04-17T11:44:13Z</time>
      </trkpt>
      <trkpt lat="47.53143" lon="3.75922">
        <ele>254</ele>
        <time>2014-04-17T11:44:18Z</time>
      </trkpt>
      <trkpt lat="47.53139" lon="3.75926">
        <ele>254</ele>
        <time>2014-04-17T11:44:28Z</time>
      </trkpt>
      <trkpt lat="47.53131" lon="3.75932">
        <ele>255</ele>
        <time>2014-04-17T11:44:41Z</time>
      </trkpt>
      <trkpt lat="47.53126" lon="3.75933">
        <ele>255</ele>
        <time>2014-04-17T11:44:46Z</time>
      </trkpt>
      <trkpt lat="47.53116" lon="3.75944">
        <ele>255</ele>
        <time>2014-04-17T11:44:57Z</time>
      </trkpt>
      <trkpt lat="47.53108" lon="3.75956">
        <ele>255</ele>
        <time>2014-04-17T11:45:04Z</time>
      </trkpt>
      <trkpt lat="47.53105" lon="3.75963">
        <ele>255</ele>
        <time>2014-04-17T11:45:08Z</time>
      </trkpt>
      <trkpt lat="47.531" lon="3.75971">
        <ele>256</ele>
        <time>2014-04-17T11:45:12Z</time>
      </trkpt>
      <trkpt lat="47.53095" lon="3.75978">
        <ele>256</ele>
        <time>2014-04-17T11:45:17Z</time>
      </trkpt>
      <trkpt lat="47.53092" lon="3.75984">
        <ele>256</ele>
        <time>2014-04-17T11:45:21Z</time>
      </trkpt>
      <trkpt lat="47.53088" lon="3.75989">
        <ele>256</ele>
        <time>2014-04-17T11:45:26Z</time>
      </trkpt>
      <trkpt lat="47.53079" lon="3.75997">
        <ele>257</ele>
        <time>2014-04-17T11:45:36Z</time>
      </trkpt>
      <trkpt lat="47.53072" lon="3.76">
        <ele>257</ele>
        <time>2014-04-17T11:45:41Z</time>
      </trkpt>
      <trkpt lat="47.53067" lon="3.76003">
        <ele>257</ele>
        <time>2014-04-17T11:45:44Z</time>
      </trkpt>
      <trkpt lat="47.53057" lon="3.76011">
        <ele>258</ele>
        <time>2014-04-17T11:45:51Z</time>
      </trkpt>
      <trkpt lat="47.53053" lon="3.76016">
        <ele>258</ele>
        <time>2014-04-17T11:45:56Z</time>
      </trkpt>
      <trkpt lat="47.53051" lon="3.76023">
        <ele>258</ele>
        <time>2014-04-17T11:46:00Z</time>
      </trkpt>
      <trkpt lat="47.53047" lon="3.76026">
        <ele>258</ele>
        <time>2014-04-17T11:46:05Z</time>
      </trkpt>
      <trkpt lat="47.53043" lon="3.76031">
        <ele>258</ele>
        <time>2014-04-17T11:46:11Z</time>
      </trkpt>
      <trkpt lat="47.53038" lon="3.76033">
        <ele>258</ele>
        <time>2014-04-17T11:46:17Z</time>
      </trkpt>
      <trkpt lat="47.53018" lon="3.76057">
        <ele>258</ele>
        <time>2014-04-17T11:46:36Z</time>
      </trkpt>
      <trkpt lat="47.53012" lon="3.76061">
        <ele>258</ele>
        <time>2014-04-17T11:46:51Z</time>
      </trkpt>
      <trkpt lat="47.53007" lon="3.76062">
        <ele>258</ele>
        <time>2014-04-17T11:46:55Z</time>
      </trkpt>
      <trkpt lat="47.5299" lon="3.76074">
        <ele>258</ele>
        <time>2014-04-17T11:47:13Z</time>
      </trkpt>
      <trkpt lat="47.52984" lon="3.76084">
        <ele>258</ele>
        <time>2014-04-17T11:47:18Z</time>
      </trkpt>
      <trkpt lat="47.52981" lon="3.7609">
        <ele>257</ele>
        <time>2014-04-17T11:47:21Z</time>
      </trkpt>
      <trkpt lat="47.52964" lon="3.76106">
        <ele>257</ele>
        <time>2014-04-17T11:47:35Z</time>
      </trkpt>
      <trkpt lat="47.52959" lon="3.76109">
        <ele>257</ele>
        <time>2014-04-17T11:47:40Z</time>
      </trkpt>
      <trkpt lat="47.52954" lon="3.76113">
        <ele>257</ele>
        <time>2014-04-17T11:47:44Z</time>
      </trkpt>
      <trkpt lat="47.52952" lon="3.76116">
        <ele>257</ele>
        <time>2014-04-17T11:47:50Z</time>
      </trkpt>
      <trkpt lat="47.52947" lon="3.76117">
        <ele>257</ele>
        <time>2014-04-17T11:47:53Z</time>
      </trkpt>
      <trkpt lat="47.52933" lon="3.76112">
        <ele>257</ele>
        <time>2014-04-17T11:48:03Z</time>
      </trkpt>
      <trkpt lat="47.5293" lon="3.76107">
        <ele>257</ele>
        <time>2014-04-17T11:48:07Z</time>
      </trkpt>
      <trkpt lat="47.52927" lon="3.76101">
        <ele>258</ele>
        <time>2014-04-17T11:48:11Z</time>
      </trkpt>
      <trkpt lat="47.52923" lon="3.76096">
        <ele>258</ele>
        <time>2014-04-17T11:48:14Z</time>
      </trkpt>
      <trkpt lat="47.52919" lon="3.76092">
        <ele>258</ele>
        <time>2014-04-17T11:48:18Z</time>
      </trkpt>
      <trkpt lat="47.52914" lon="3.7609">
        <ele>258</ele>
        <time>2014-04-17T11:48:22Z</time>
      </trkpt>
      <trkpt lat="47.52896" lon="3.76076">
        <ele>260</ele>
        <time>2014-04-17T11:48:39Z</time>
      </trkpt>
      <trkpt lat="47.52891" lon="3.76064">
        <ele>260</ele>
        <time>2014-04-17T11:48:47Z</time>
      </trkpt>
      <trkpt lat="47.52888" lon="3.7606">
        <ele>260</ele>
        <time>2014-04-17T11:48:50Z</time>
      </trkpt>
      <trkpt lat="47.52885" lon="3.76055">
        <ele>260</ele>
        <time>2014-04-17T11:48:53Z</time>
      </trkpt>
      <trkpt lat="47.5288" lon="3.76043">
        <ele>260</ele>
        <time>2014-04-17T11:49:02Z</time>
      </trkpt>
      <trkpt lat="47.52876" lon="3.76037">
        <ele>261</ele>
        <time>2014-04-17T11:49:06Z</time>
      </trkpt>
      <trkpt lat="47.52872" lon="3.7603">
        <ele>261</ele>
        <time>2014-04-17T11:49:11Z</time>
      </trkpt>
      <trkpt lat="47.52869" lon="3.76024">
        <ele>261</ele>
        <time>2014-04-17T11:49:16Z</time>
      </trkpt>
      <trkpt lat="47.52866" lon="3.76019">
        <ele>261</ele>
        <time>2014-04-17T11:49:21Z</time>
      </trkpt>
      <trkpt lat="47.52853" lon="3.76007">
        <ele>262</ele>
        <time>2014-04-17T11:49:32Z</time>
      </trkpt>
      <trkpt lat="47.52849" lon="3.76">
        <ele>262</ele>
        <time>2014-04-17T11:49:36Z</time>
      </trkpt>
      <trkpt lat="47.52841" lon="3.75993">
        <ele>263</ele>
        <time>2014-04-17T11:49:42Z</time>
      </trkpt>
      <trkpt lat="47.52838" lon="3.75987">
        <ele>263</ele>
        <time>2014-04-17T11:49:45Z</time>
      </trkpt>
      <trkpt lat="47.52833" lon="3.75965">
        <ele>265</ele>
        <time>2014-04-17T11:49:58Z</time>
      </trkpt>
      <trkpt lat="47.52828" lon="3.7596">
        <ele>265</ele>
        <time>2014-04-17T11:50:01Z</time>
      </trkpt>
      <trkpt lat="47.52826" lon="3.75953">
        <ele>265</ele>
        <time>2014-04-17T11:50:05Z</time>
      </trkpt>
      <trkpt lat="47.52823" lon="3.7593">
        <ele>265</ele>
        <time>2014-04-17T11:50:15Z</time>
      </trkpt>
      <trkpt lat="47.5282" lon="3.75925">
        <ele>265</ele>
        <time>2014-04-17T11:50:19Z</time>
      </trkpt>
      <trkpt lat="47.52818" lon="3.75919">
        <ele>265</ele>
        <time>2014-04-17T11:50:24Z</time>
      </trkpt>
      <trkpt lat="47.52817" lon="3.75905">
        <ele>264</ele>
        <time>2014-04-17T11:50:31Z</time>
      </trkpt>
      <trkpt lat="47.52816" lon="3.75898">
        <ele>263</ele>
        <time>2014-04-17T11:50:35Z</time>
      </trkpt>
      <trkpt lat="47.52815" lon="3.75891">
        <ele>263</ele>
        <time>2014-04-17T11:50:39Z</time>
      </trkpt>
      <trkpt lat="47.52813" lon="3.75883">
        <ele>263</ele>
        <time>2014-04-17T11:50:43Z</time>
      </trkpt>
      <trkpt lat="47.52814" lon="3.75875">
        <ele>263</ele>
        <time>2014-04-17T11:50:46Z</time>
      </trkpt>
      <trkpt lat="47.5281" lon="3.7587">
        <ele>263</ele>
        <time>2014-04-17T11:50:49Z</time>
      </trkpt>
      <trkpt lat="47.528" lon="3.75873">
        <ele>263</ele>
        <time>2014-04-17T11:50:58Z</time>
      </trkpt>
      <trkpt lat="47.52798" lon="3.75866">
        <ele>263</ele>
        <time>2014-04-17T11:51:04Z</time>
      </trkpt>
      <trkpt lat="47.52792" lon="3.75853">
        <ele>262</ele>
        <time>2014-04-17T11:51:12Z</time>
      </trkpt>
      <trkpt lat="47.52784" lon="3.75844">
        <ele>262</ele>
        <time>2014-04-17T11:51:22Z</time>
      </trkpt>
      <trkpt lat="47.52781" lon="3.75838">
        <ele>262</ele>
        <time>2014-04-17T11:51:26Z</time>
      </trkpt>
      <trkpt lat="47.52779" lon="3.75832">
        <ele>257</ele>
        <time>2014-04-17T11:51:31Z</time>
      </trkpt>
      <trkpt lat="47.52776" lon="3.75826">
        <ele>257</ele>
        <time>2014-04-17T11:51:35Z</time>
      </trkpt>
      <trkpt lat="47.52772" lon="3.7582">
        <ele>257</ele>
        <time>2014-04-17T11:51:39Z</time>
      </trkpt>
      <trkpt lat="47.52768" lon="3.75813">
        <ele>257</ele>
        <time>2014-04-17T11:51:43Z</time>
      </trkpt>
      <trkpt lat="47.52764" lon="3.7581">
        <ele>257</ele>
        <time>2014-04-17T11:51:46Z</time>
      </trkpt>
      <trkpt lat="47.5276" lon="3.75807">
        <ele>257</ele>
        <time>2014-04-17T11:51:50Z</time>
      </trkpt>
      <trkpt lat="47.52742" lon="3.75777">
        <ele>259</ele>
        <time>2014-04-17T11:52:11Z</time>
      </trkpt>
      <trkpt lat="47.52739" lon="3.75773">
        <ele>259</ele>
        <time>2014-04-17T11:52:15Z</time>
      </trkpt>
      <trkpt lat="47.52735" lon="3.75767">
        <ele>258</ele>
        <time>2014-04-17T11:52:19Z</time>
      </trkpt>
      <trkpt lat="47.5273" lon="3.75765">
        <ele>258</ele>
        <time>2014-04-17T11:52:22Z</time>
      </trkpt>
      <trkpt lat="47.52727" lon="3.7576">
        <ele>259</ele>
        <time>2014-04-17T11:52:26Z</time>
      </trkpt>
      <trkpt lat="47.52721" lon="3.75748">
        <ele>254</ele>
        <time>2014-04-17T11:52:34Z</time>
      </trkpt>
      <trkpt lat="47.52718" lon="3.75744">
        <ele>255</ele>
        <time>2014-04-17T11:52:39Z</time>
      </trkpt>
      <trkpt lat="47.52713" lon="3.75739">
        <ele>255</ele>
        <time>2014-04-17T11:52:44Z</time>
      </trkpt>
      <trkpt lat="47.52709" lon="3.75735">
        <ele>255</ele>
        <time>2014-04-17T11:52:50Z</time>
      </trkpt>
      <trkpt lat="47.52705" lon="3.75729">
        <ele>255</ele>
        <time>2014-04-17T11:52:54Z</time>
      </trkpt>
      <trkpt lat="47.52701" lon="3.75724">
        <ele>255</ele>
        <time>2014-04-17T11:52:58Z</time>
      </trkpt>
      <trkpt lat="47.52696" lon="3.75716">
        <ele>255</ele>
        <time>2014-04-17T11:53:10Z</time>
      </trkpt>
      <trkpt lat="47.52692" lon="3.75711">
        <ele>255</ele>
        <time>2014-04-17T11:53:14Z</time>
      </trkpt>
      <trkpt lat="47.52688" lon="3.75708">
        <ele>255</ele>
        <time>2014-04-17T11:53:18Z</time>
      </trkpt>
      <trkpt lat="47.52683" lon="3.75704">
        <ele>255</ele>
        <time>2014-04-17T11:53:23Z</time>
      </trkpt>
      <trkpt lat="47.52674" lon="3.75693">
        <ele>255</ele>
        <time>2014-04-17T11:53:31Z</time>
      </trkpt>
      <trkpt lat="47.52669" lon="3.7569">
        <ele>255</ele>
        <time>2014-04-17T11:53:34Z</time>
      </trkpt>
      <trkpt lat="47.52663" lon="3.75689">
        <ele>258</ele>
        <time>2014-04-17T11:53:38Z</time>
      </trkpt>
      <trkpt lat="47.52659" lon="3.75686">
        <ele>258</ele>
        <time>2014-04-17T11:53:42Z</time>
      </trkpt>
      <trkpt lat="47.52648" lon="3.75672">
        <ele>258</ele>
        <time>2014-04-17T11:53:52Z</time>
      </trkpt>
      <trkpt lat="47.52644" lon="3.75668">
        <ele>258</ele>
        <time>2014-04-17T11:53:55Z</time>
      </trkpt>
      <trkpt lat="47.52641" lon="3.75661">
        <ele>256</ele>
        <time>2014-04-17T11:53:59Z</time>
      </trkpt>
      <trkpt lat="47.52636" lon="3.75658">
        <ele>256</ele>
        <time>2014-04-17T11:54:03Z</time>
      </trkpt>
      <trkpt lat="47.52623" lon="3.75636">
        <ele>256</ele>
        <time>2014-04-17T11:54:19Z</time>
      </trkpt>
      <trkpt lat="47.52611" lon="3.75621">
        <ele>257</ele>
        <time>2014-04-17T11:54:33Z</time>
      </trkpt>
      <trkpt lat="47.52606" lon="3.756">
        <ele>257</ele>
        <time>2014-04-17T11:54:46Z</time>
      </trkpt>
      <trkpt lat="47.52603" lon="3.75594">
        <ele>257</ele>
        <time>2014-04-17T11:54:50Z</time>
      </trkpt>
      <trkpt lat="47.52598" lon="3.75589">
        <ele>257</ele>
        <time>2014-04-17T11:54:54Z</time>
      </trkpt>
      <trkpt lat="47.52594" lon="3.75583">
        <ele>257</ele>
        <time>2014-04-17T11:54:58Z</time>
      </trkpt>
      <trkpt lat="47.52589" lon="3.75579">
        <ele>258</ele>
        <time>2014-04-17T11:55:02Z</time>
      </trkpt>
      <trkpt lat="47.5258" lon="3.75557">
        <ele>260</ele>
        <time>2014-04-17T11:55:27Z</time>
      </trkpt>
      <trkpt lat="47.52568" lon="3.75543">
        <ele>260</ele>
        <time>2014-04-17T11:55:40Z</time>
      </trkpt>
      <trkpt lat="47.52564" lon="3.75537">
        <ele>260</ele>
        <time>2014-04-17T11:55:45Z</time>
      </trkpt>
      <trkpt lat="47.5256" lon="3.75533">
        <ele>260</ele>
        <time>2014-04-17T11:55:49Z</time>
      </trkpt>
      <trkpt lat="47.52555" lon="3.75532">
        <ele>260</ele>
        <time>2014-04-17T11:55:52Z</time>
      </trkpt>
      <trkpt lat="47.5255" lon="3.75531">
        <ele>260</ele>
        <time>2014-04-17T11:55:54Z</time>
      </trkpt>
      <trkpt lat="47.52545" lon="3.75527">
        <ele>260</ele>
        <time>2014-04-17T11:55:58Z</time>
      </trkpt>
      <trkpt lat="47.52524" lon="3.75507">
        <ele>261</ele>
        <time>2014-04-17T11:56:21Z</time>
      </trkpt>
      <trkpt lat="47.52519" lon="3.75506">
        <ele>261</ele>
        <time>2014-04-17T11:56:25Z</time>
      </trkpt>
      <trkpt lat="47.52513" lon="3.75507">
        <ele>261</ele>
        <time>2014-04-17T11:56:29Z</time>
      </trkpt>
      <trkpt lat="47.52514" lon="3.75499">
        <ele>260</ele>
        <time>2014-04-17T11:56:42Z</time>
      </trkpt>
      <trkpt lat="47.52513" lon="3.75503">
        <ele>261</ele>
        <time>2014-04-17T11:57:14Z</time>
      </trkpt>
      <trkpt lat="47.5251" lon="3.75503">
        <ele>261</ele>
        <time>2014-04-17T11:57:48Z</time>
      </trkpt>
      <trkpt lat="47.52509" lon="3.75508">
        <ele>261</ele>
        <time>2014-04-17T11:57:56Z</time>
      </trkpt>
      <trkpt lat="47.52506" lon="3.75514">
        <ele>261</ele>
        <time>2014-04-17T11:58:01Z</time>
      </trkpt>
      <trkpt lat="47.52503" lon="3.75519">
        <ele>261</ele>
        <time>2014-04-17T11:58:09Z</time>
      </trkpt>
      <trkpt lat="47.52501" lon="3.75525">
        <ele>261</ele>
        <time>2014-04-17T11:58:16Z</time>
      </trkpt>
      <trkpt lat="47.52498" lon="3.75538">
        <ele>263</ele>
        <time>2014-04-17T11:59:25Z</time>
      </trkpt>
      <trkpt lat="47.52495" lon="3.75545">
        <ele>263</ele>
        <time>2014-04-17T11:59:29Z</time>
      </trkpt>
      <trkpt lat="47.52498" lon="3.75544">
        <ele>263</ele>
        <time>2014-04-17T11:59:55Z</time>
      </trkpt>
      <trkpt lat="47.52501" lon="3.75536">
        <ele>261</ele>
        <time>2014-04-17T12:00:14Z</time>
      </trkpt>
      <trkpt lat="47.52505" lon="3.7553">
        <ele>261</ele>
        <time>2014-04-17T12:00:17Z</time>
      </trkpt>
      <trkpt lat="47.52509" lon="3.75527">
        <ele>261</ele>
        <time>2014-04-17T12:00:20Z</time>
      </trkpt>
      <trkpt lat="47.52513" lon="3.75525">
        <ele>261</ele>
        <time>2014-04-17T12:00:28Z</time>
      </trkpt>
      <trkpt lat="47.52514" lon="3.75517">
        <ele>261</ele>
        <time>2014-04-17T12:00:32Z</time>
      </trkpt>
      <trkpt lat="47.52511" lon="3.75513">
        <ele>261</ele>
        <time>2014-04-17T12:00:42Z</time>
      </trkpt>
      <trkpt lat="47.52508" lon="3.75508">
        <ele>261</ele>
        <time>2014-04-17T12:02:50Z</time>
      </trkpt>
      <trkpt lat="47.52509" lon="3.75512">
        <ele>261</ele>
        <time>2014-04-17T12:04:34Z</time>
      </trkpt>
      <trkpt lat="47.52508" lon="3.75517">
        <ele>261</ele>
        <time>2014-04-17T12:07:01Z</time>
      </trkpt>
      <trkpt lat="47.52506" lon="3.75522">
        <ele>261</ele>
        <time>2014-04-17T12:07:06Z</time>
      </trkpt>
      <trkpt lat="47.52501" lon="3.75528">
        <ele>261</ele>
        <time>2014-04-17T12:07:09Z</time>
      </trkpt>
      <trkpt lat="47.52495" lon="3.75539">
        <ele>263</ele>
        <time>2014-04-17T12:07:18Z</time>
      </trkpt>
      <trkpt lat="47.52491" lon="3.75534">
        <ele>263</ele>
        <time>2014-04-17T12:07:25Z</time>
      </trkpt>
      <trkpt lat="47.52488" lon="3.75528">
        <ele>262</ele>
        <time>2014-04-17T12:07:33Z</time>
      </trkpt>
      <trkpt lat="47.52485" lon="3.75528">
        <ele>262</ele>
        <time>2014-04-17T12:07:41Z</time>
      </trkpt>
      <trkpt lat="47.52487" lon="3.7552">
        <ele>262</ele>
        <time>2014-04-17T12:07:45Z</time>
      </trkpt>
      <trkpt lat="47.52477" lon="3.75518">
        <ele>262</ele>
        <time>2014-04-17T12:07:55Z</time>
      </trkpt>
      <trkpt lat="47.52471" lon="3.75522">
        <ele>262</ele>
        <time>2014-04-17T12:07:58Z</time>
      </trkpt>
      <trkpt lat="47.52466" lon="3.75524">
        <ele>263</ele>
        <time>2014-04-17T12:08:01Z</time>
      </trkpt>
      <trkpt lat="47.52462" lon="3.75522">
        <ele>263</ele>
        <time>2014-04-17T12:08:07Z</time>
      </trkpt>
      <trkpt lat="47.52461" lon="3.75517">
        <ele>263</ele>
        <time>2014-04-17T12:08:19Z</time>
      </trkpt>
      <trkpt lat="47.52472" lon="3.75496">
        <ele>261</ele>
        <time>2014-04-17T12:08:36Z</time>
      </trkpt>
      <trkpt lat="47.52471" lon="3.755">
        <ele>261</ele>
        <time>2014-04-17T12:09:06Z</time>
      </trkpt>
      <trkpt lat="47.52472" lon="3.75496">
        <ele>261</ele>
        <time>2014-04-17T12:11:17Z</time>
      </trkpt>
      <trkpt lat="47.52468" lon="3.75493">
        <ele>261</ele>
        <time>2014-04-17T12:11:42Z</time>
      </trkpt>
      <trkpt lat="47.52463" lon="3.75494">
        <ele>261</ele>
        <time>2014-04-17T12:11:51Z</time>
      </trkpt>
      <trkpt lat="47.52459" lon="3.7549">
        <ele>261</ele>
        <time>2014-04-17T12:12:09Z</time>
      </trkpt>
      <trkpt lat="47.52456" lon="3.75491">
        <ele>261</ele>
        <time>2014-04-17T12:12:15Z</time>
      </trkpt>
      <trkpt lat="47.52449" lon="3.75487">
        <ele>261</ele>
        <time>2014-04-17T12:12:28Z</time>
      </trkpt>
      <trkpt lat="47.52445" lon="3.75483">
        <ele>261</ele>
        <time>2014-04-17T12:12:41Z</time>
      </trkpt>
      <trkpt lat="47.52444" lon="3.75475">
        <ele>261</ele>
        <time>2014-04-17T12:12:46Z</time>
      </trkpt>
      <trkpt lat="47.5244" lon="3.75481">
        <ele>261</ele>
        <time>2014-04-17T12:12:56Z</time>
      </trkpt>
      <trkpt lat="47.5244" lon="3.7548">
        <ele>261</ele>
        <time>2014-04-17T12:13:08Z</time>
      </trkpt>
      <trkpt lat="47.52444" lon="3.75476">
        <ele>261</ele>
        <time>2014-04-17T12:13:12Z</time>
      </trkpt>
      <trkpt lat="47.52444" lon="3.75483">
        <ele>261</ele>
        <time>2014-04-17T12:13:37Z</time>
      </trkpt>
      <trkpt lat="47.5244" lon="3.75484">
        <ele>261</ele>
        <time>2014-04-17T12:13:45Z</time>
      </trkpt>
      <trkpt lat="47.52435" lon="3.75486">
        <ele>261</ele>
        <time>2014-04-17T12:13:49Z</time>
      </trkpt>
      <trkpt lat="47.52429" lon="3.75486">
        <ele>261</ele>
        <time>2014-04-17T12:13:53Z</time>
      </trkpt>
      <trkpt lat="47.52424" lon="3.75484">
        <ele>262</ele>
        <time>2014-04-17T12:13:56Z</time>
      </trkpt>
      <trkpt lat="47.52419" lon="3.75483">
        <ele>262</ele>
        <time>2014-04-17T12:14:00Z</time>
      </trkpt>
      <trkpt lat="47.52414" lon="3.75482">
        <ele>260</ele>
        <time>2014-04-17T12:14:05Z</time>
      </trkpt>
      <trkpt lat="47.52404" lon="3.75478">
        <ele>260</ele>
        <time>2014-04-17T12:14:14Z</time>
      </trkpt>
      <trkpt lat="47.524" lon="3.75482">
        <ele>260</ele>
        <time>2014-04-17T12:14:16Z</time>
      </trkpt>
      <trkpt lat="47.52403" lon="3.75489">
        <ele>260</ele>
        <time>2014-04-17T12:14:23Z</time>
      </trkpt>
      <trkpt lat="47.52405" lon="3.75483">
        <ele>260</ele>
        <time>2014-04-17T12:14:31Z</time>
      </trkpt>
      <trkpt lat="47.524" lon="3.75478">
        <ele>260</ele>
        <time>2014-04-17T12:14:36Z</time>
      </trkpt>
      <trkpt lat="47.5239" lon="3.75477">
        <ele>259</ele>
        <time>2014-04-17T12:14:44Z</time>
      </trkpt>
      <trkpt lat="47.52386" lon="3.75475">
        <ele>259</ele>
        <time>2014-04-17T12:14:49Z</time>
      </trkpt>
      <trkpt lat="47.52381" lon="3.75475">
        <ele>259</ele>
        <time>2014-04-17T12:14:53Z</time>
      </trkpt>
      <trkpt lat="47.52376" lon="3.75478">
        <ele>259</ele>
        <time>2014-04-17T12:14:56Z</time>
      </trkpt>
      <trkpt lat="47.52368" lon="3.75474">
        <ele>258</ele>
        <time>2014-04-17T12:15:01Z</time>
      </trkpt>
      <trkpt lat="47.52359" lon="3.75473">
        <ele>258</ele>
        <time>2014-04-17T12:15:07Z</time>
      </trkpt>
      <trkpt lat="47.52354" lon="3.7547">
        <ele>258</ele>
        <time>2014-04-17T12:15:11Z</time>
      </trkpt>
      <trkpt lat="47.52343" lon="3.75468">
        <ele>258</ele>
        <time>2014-04-17T12:15:51Z</time>
      </trkpt>
      <trkpt lat="47.52333" lon="3.75472">
        <ele>252</ele>
        <time>2014-04-17T12:15:54Z</time>
      </trkpt>
      <trkpt lat="47.52316" lon="3.75483">
        <ele>253</ele>
        <time>2014-04-17T12:16:06Z</time>
      </trkpt>
      <trkpt lat="47.52311" lon="3.75485">
        <ele>252</ele>
        <time>2014-04-17T12:16:13Z</time>
      </trkpt>
      <trkpt lat="47.52307" lon="3.7549">
        <ele>252</ele>
        <time>2014-04-17T12:16:17Z</time>
      </trkpt>
      <trkpt lat="47.52303" lon="3.75493">
        <ele>252</ele>
        <time>2014-04-17T12:16:20Z</time>
      </trkpt>
      <trkpt lat="47.52299" lon="3.75494">
        <ele>251</ele>
        <time>2014-04-17T12:16:24Z</time>
      </trkpt>
      <trkpt lat="47.52294" lon="3.75493">
        <ele>251</ele>
        <time>2014-04-17T12:16:28Z</time>
      </trkpt>
      <trkpt lat="47.52289" lon="3.75494">
        <ele>250</ele>
        <time>2014-04-17T12:16:31Z</time>
      </trkpt>
      <trkpt lat="47.52284" lon="3.75494">
        <ele>250</ele>
        <time>2014-04-17T12:16:34Z</time>
      </trkpt>
      <trkpt lat="47.52278" lon="3.75492">
        <ele>249</ele>
        <time>2014-04-17T12:16:38Z</time>
      </trkpt>
      <trkpt lat="47.52273" lon="3.75493">
        <ele>249</ele>
        <time>2014-04-17T12:16:41Z</time>
      </trkpt>
      <trkpt lat="47.52269" lon="3.75492">
        <ele>249</ele>
        <time>2014-04-17T12:16:44Z</time>
      </trkpt>
      <trkpt lat="47.52263" lon="3.75489">
        <ele>249</ele>
        <time>2014-04-17T12:16:47Z</time>
      </trkpt>
      <trkpt lat="47.52258" lon="3.75485">
        <ele>248</ele>
        <time>2014-04-17T12:16:50Z</time>
      </trkpt>
      <trkpt lat="47.52251" lon="3.75472">
        <ele>247</ele>
        <time>2014-04-17T12:16:58Z</time>
      </trkpt>
      <trkpt lat="47.52247" lon="3.75467">
        <ele>241</ele>
        <time>2014-04-17T12:17:02Z</time>
      </trkpt>
      <trkpt lat="47.52244" lon="3.75459">
        <ele>240</ele>
        <time>2014-04-17T12:17:06Z</time>
      </trkpt>
      <trkpt lat="47.52244" lon="3.75452">
        <ele>239</ele>
        <time>2014-04-17T12:17:09Z</time>
      </trkpt>
      <trkpt lat="47.5224" lon="3.75448">
        <ele>238</ele>
        <time>2014-04-17T12:17:14Z</time>
      </trkpt>
      <trkpt lat="47.52235" lon="3.75446">
        <ele>238</ele>
        <time>2014-04-17T12:17:18Z</time>
      </trkpt>
      <trkpt lat="47.52229" lon="3.75445">
        <ele>238</ele>
        <time>2014-04-17T12:17:22Z</time>
      </trkpt>
      <trkpt lat="47.52224" lon="3.75445">
        <ele>238</ele>
        <time>2014-04-17T12:17:25Z</time>
      </trkpt>
      <trkpt lat="47.5222" lon="3.75448">
        <ele>238</ele>
        <time>2014-04-17T12:17:28Z</time>
      </trkpt>
      <trkpt lat="47.52215" lon="3.75448">
        <ele>237</ele>
        <time>2014-04-17T12:17:33Z</time>
      </trkpt>
      <trkpt lat="47.5221" lon="3.75446">
        <ele>237</ele>
        <time>2014-04-17T12:17:37Z</time>
      </trkpt>
      <trkpt lat="47.52208" lon="3.7544">
        <ele>237</ele>
        <time>2014-04-17T12:17:41Z</time>
      </trkpt>
      <trkpt lat="47.52206" lon="3.75433">
        <ele>236</ele>
        <time>2014-04-17T12:17:46Z</time>
      </trkpt>
      <trkpt lat="47.52203" lon="3.75427">
        <ele>235</ele>
        <time>2014-04-17T12:17:50Z</time>
      </trkpt>
      <trkpt lat="47.52199" lon="3.75424">
        <ele>235</ele>
        <time>2014-04-17T12:17:57Z</time>
      </trkpt>
      <trkpt lat="47.52194" lon="3.75424">
        <ele>234</ele>
        <time>2014-04-17T12:18:01Z</time>
      </trkpt>
      <trkpt lat="47.5219" lon="3.75422">
        <ele>233</ele>
        <time>2014-04-17T12:18:04Z</time>
      </trkpt>
      <trkpt lat="47.52186" lon="3.75417">
        <ele>233</ele>
        <time>2014-04-17T12:18:08Z</time>
      </trkpt>
      <trkpt lat="47.52192" lon="3.75413">
        <ele>225</ele>
        <time>2014-04-17T12:18:14Z</time>
      </trkpt>
      <trkpt lat="47.52182" lon="3.75412">
        <ele>225</ele>
        <time>2014-04-17T12:18:30Z</time>
      </trkpt>
      <trkpt lat="47.52177" lon="3.75411">
        <ele>226</ele>
        <time>2014-04-17T12:18:33Z</time>
      </trkpt>
      <trkpt lat="47.52173" lon="3.75409">
        <ele>226</ele>
        <time>2014-04-17T12:18:38Z</time>
      </trkpt>
      <trkpt lat="47.52162" lon="3.75411">
        <ele>223</ele>
        <time>2014-04-17T12:18:46Z</time>
      </trkpt>
      <trkpt lat="47.52155" lon="3.75417">
        <ele>225</ele>
        <time>2014-04-17T12:18:53Z</time>
      </trkpt>
      <trkpt lat="47.52147" lon="3.7542">
        <ele>224</ele>
        <time>2014-04-17T12:19:02Z</time>
      </trkpt>
      <trkpt lat="47.52151" lon="3.75411">
        <ele>219</ele>
        <time>2014-04-17T12:19:24Z</time>
      </trkpt>
      <trkpt lat="47.52148" lon="3.75408">
        <ele>218</ele>
        <time>2014-04-17T12:20:01Z</time>
      </trkpt>
      <trkpt lat="47.52144" lon="3.75406">
        <ele>216</ele>
        <time>2014-04-17T12:20:04Z</time>
      </trkpt>
      <trkpt lat="47.52139" lon="3.75409">
        <ele>215</ele>
        <time>2014-04-17T12:20:08Z</time>
      </trkpt>
      <trkpt lat="47.52134" lon="3.75409">
        <ele>214</ele>
        <time>2014-04-17T12:20:13Z</time>
      </trkpt>
      <trkpt lat="47.52131" lon="3.75403">
        <ele>213</ele>
        <time>2014-04-17T12:20:20Z</time>
      </trkpt>
      <trkpt lat="47.52126" lon="3.75402">
        <ele>213</ele>
        <time>2014-04-17T12:20:24Z</time>
      </trkpt>
      <trkpt lat="47.5212" lon="3.75402">
        <ele>212</ele>
        <time>2014-04-17T12:20:28Z</time>
      </trkpt>
      <trkpt lat="47.52115" lon="3.754">
        <ele>211</ele>
        <time>2014-04-17T12:20:32Z</time>
      </trkpt>
      <trkpt lat="47.52111" lon="3.754">
        <ele>210</ele>
        <time>2014-04-17T12:20:37Z</time>
      </trkpt>
      <trkpt lat="47.52101" lon="3.75402">
        <ele>209</ele>
        <time>2014-04-17T12:20:46Z</time>
      </trkpt>
      <trkpt lat="47.52096" lon="3.75402">
        <ele>209</ele>
        <time>2014-04-17T12:20:51Z</time>
      </trkpt>
      <trkpt lat="47.5209" lon="3.75403">
        <ele>209</ele>
        <time>2014-04-17T12:20:55Z</time>
      </trkpt>
      <trkpt lat="47.52084" lon="3.75405">
        <ele>208</ele>
        <time>2014-04-17T12:20:59Z</time>
      </trkpt>
      <trkpt lat="47.5208" lon="3.75407">
        <ele>204</ele>
        <time>2014-04-17T12:21:03Z</time>
      </trkpt>
      <trkpt lat="47.52075" lon="3.75406">
        <ele>203</ele>
        <time>2014-04-17T12:21:08Z</time>
      </trkpt>
      <trkpt lat="47.52067" lon="3.75405">
        <ele>201</ele>
        <time>2014-04-17T12:21:24Z</time>
      </trkpt>
      <trkpt lat="47.52062" lon="3.75403">
        <ele>200</ele>
        <time>2014-04-17T12:21:28Z</time>
      </trkpt>
      <trkpt lat="47.52053" lon="3.75396">
        <ele>199</ele>
        <time>2014-04-17T12:21:40Z</time>
      </trkpt>
      <trkpt lat="47.52043" lon="3.75401">
        <ele>198</ele>
        <time>2014-04-17T12:21:48Z</time>
      </trkpt>
      <trkpt lat="47.52034" lon="3.754">
        <ele>197</ele>
        <time>2014-04-17T12:21:56Z</time>
      </trkpt>
      <trkpt lat="47.52029" lon="3.75395">
        <ele>197</ele>
        <time>2014-04-17T12:22:02Z</time>
      </trkpt>
      <trkpt lat="47.52003" lon="3.75394">
        <ele>195</ele>
        <time>2014-04-17T12:22:22Z</time>
      </trkpt>
      <trkpt lat="47.51998" lon="3.75393">
        <ele>191</ele>
        <time>2014-04-17T12:22:26Z</time>
      </trkpt>
      <trkpt lat="47.51993" lon="3.75391">
        <ele>191</ele>
        <time>2014-04-17T12:22:30Z</time>
      </trkpt>
      <trkpt lat="47.51989" lon="3.75386">
        <ele>191</ele>
        <time>2014-04-17T12:22:35Z</time>
      </trkpt>
      <trkpt lat="47.51985" lon="3.75384">
        <ele>191</ele>
        <time>2014-04-17T12:22:39Z</time>
      </trkpt>
      <trkpt lat="47.51974" lon="3.75386">
        <ele>191</ele>
        <time>2014-04-17T12:22:47Z</time>
      </trkpt>
      <trkpt lat="47.51969" lon="3.75386">
        <ele>191</ele>
        <time>2014-04-17T12:22:50Z</time>
      </trkpt>
      <trkpt lat="47.51964" lon="3.75383">
        <ele>191</ele>
        <time>2014-04-17T12:22:54Z</time>
      </trkpt>
      <trkpt lat="47.51954" lon="3.7538">
        <ele>191</ele>
        <time>2014-04-17T12:23:03Z</time>
      </trkpt>
      <trkpt lat="47.51949" lon="3.75376">
        <ele>190</ele>
        <time>2014-04-17T12:23:08Z</time>
      </trkpt>
      <trkpt lat="47.51934" lon="3.75376">
        <ele>190</ele>
        <time>2014-04-17T12:23:20Z</time>
      </trkpt>
      <trkpt lat="47.5193" lon="3.75372">
        <ele>190</ele>
        <time>2014-04-17T12:23:24Z</time>
      </trkpt>
      <trkpt lat="47.51925" lon="3.75369">
        <ele>190</ele>
        <time>2014-04-17T12:23:29Z</time>
      </trkpt>
      <trkpt lat="47.51921" lon="3.75364">
        <ele>189</ele>
        <time>2014-04-17T12:23:34Z</time>
      </trkpt>
      <trkpt lat="47.51916" lon="3.7536">
        <ele>190</ele>
        <time>2014-04-17T12:23:38Z</time>
      </trkpt>
      <trkpt lat="47.51899" lon="3.75346">
        <ele>189</ele>
        <time>2014-04-17T12:23:54Z</time>
      </trkpt>
      <trkpt lat="47.51901" lon="3.7534">
        <ele>189</ele>
        <time>2014-04-17T12:24:02Z</time>
      </trkpt>
      <trkpt lat="47.51901" lon="3.75343">
        <ele>189</ele>
        <time>2014-04-17T12:24:20Z</time>
      </trkpt>
      <trkpt lat="47.51895" lon="3.75342">
        <ele>189</ele>
        <time>2014-04-17T12:24:31Z</time>
      </trkpt>
      <trkpt lat="47.51885" lon="3.75341">
        <ele>190</ele>
        <time>2014-04-17T12:24:36Z</time>
      </trkpt>
      <trkpt lat="47.51884" lon="3.75335">
        <ele>190</ele>
        <time>2014-04-17T12:24:38Z</time>
      </trkpt>
      <trkpt lat="47.51881" lon="3.75329">
        <ele>186</ele>
        <time>2014-04-17T12:24:42Z</time>
      </trkpt>
      <trkpt lat="47.51876" lon="3.75328">
        <ele>187</ele>
        <time>2014-04-17T12:24:46Z</time>
      </trkpt>
      <trkpt lat="47.51867" lon="3.75321">
        <ele>187</ele>
        <time>2014-04-17T12:24:55Z</time>
      </trkpt>
      <trkpt lat="47.5186" lon="3.75311">
        <ele>186</ele>
        <time>2014-04-17T12:25:02Z</time>
      </trkpt>
      <trkpt lat="47.51855" lon="3.75309">
        <ele>186</ele>
        <time>2014-04-17T12:25:06Z</time>
      </trkpt>
      <trkpt lat="47.51849" lon="3.75307">
        <ele>186</ele>
        <time>2014-04-17T12:25:11Z</time>
      </trkpt>
      <trkpt lat="47.51842" lon="3.75297">
        <ele>186</ele>
        <time>2014-04-17T12:25:19Z</time>
      </trkpt>
      <trkpt lat="47.51836" lon="3.75295">
        <ele>186</ele>
        <time>2014-04-17T12:25:23Z</time>
      </trkpt>
      <trkpt lat="47.51831" lon="3.75295">
        <ele>186</ele>
        <time>2014-04-17T12:25:27Z</time>
      </trkpt>
      <trkpt lat="47.51817" lon="3.75285">
        <ele>185</ele>
        <time>2014-04-17T12:25:41Z</time>
      </trkpt>
      <trkpt lat="47.51815" lon="3.75276">
        <ele>185</ele>
        <time>2014-04-17T12:25:45Z</time>
      </trkpt>
      <trkpt lat="47.51812" lon="3.7527">
        <ele>185</ele>
        <time>2014-04-17T12:25:49Z</time>
      </trkpt>
      <trkpt lat="47.51807" lon="3.7527">
        <ele>185</ele>
        <time>2014-04-17T12:25:52Z</time>
      </trkpt>
      <trkpt lat="47.51802" lon="3.75271">
        <ele>185</ele>
        <time>2014-04-17T12:25:55Z</time>
      </trkpt>
      <trkpt lat="47.51798" lon="3.75268">
        <ele>185</ele>
        <time>2014-04-17T12:25:58Z</time>
      </trkpt>
      <trkpt lat="47.51793" lon="3.75267">
        <ele>185</ele>
        <time>2014-04-17T12:26:02Z</time>
      </trkpt>
      <trkpt lat="47.51788" lon="3.75263">
        <ele>185</ele>
        <time>2014-04-17T12:26:06Z</time>
      </trkpt>
      <trkpt lat="47.51783" lon="3.75259">
        <ele>184</ele>
        <time>2014-04-17T12:26:10Z</time>
      </trkpt>
      <trkpt lat="47.5178" lon="3.75254">
        <ele>184</ele>
        <time>2014-04-17T12:26:14Z</time>
      </trkpt>
      <trkpt lat="47.51777" lon="3.75248">
        <ele>183</ele>
        <time>2014-04-17T12:26:17Z</time>
      </trkpt>
      <trkpt lat="47.51773" lon="3.75242">
        <ele>183</ele>
        <time>2014-04-17T12:26:21Z</time>
      </trkpt>
      <trkpt lat="47.51768" lon="3.7524">
        <ele>183</ele>
        <time>2014-04-17T12:26:26Z</time>
      </trkpt>
      <trkpt lat="47.51759" lon="3.75235">
        <ele>182</ele>
        <time>2014-04-17T12:26:33Z</time>
      </trkpt>
      <trkpt lat="47.51755" lon="3.75231">
        <ele>183</ele>
        <time>2014-04-17T12:26:44Z</time>
      </trkpt>
      <trkpt lat="47.5175" lon="3.75228">
        <ele>181</ele>
        <time>2014-04-17T12:26:48Z</time>
      </trkpt>
      <trkpt lat="47.51746" lon="3.75224">
        <ele>181</ele>
        <time>2014-04-17T12:26:52Z</time>
      </trkpt>
      <trkpt lat="47.51741" lon="3.75223">
        <ele>181</ele>
        <time>2014-04-17T12:26:56Z</time>
      </trkpt>
      <trkpt lat="47.51735" lon="3.75222">
        <ele>181</ele>
        <time>2014-04-17T12:27:00Z</time>
      </trkpt>
      <trkpt lat="47.51725" lon="3.75219">
        <ele>181</ele>
        <time>2014-04-17T12:27:06Z</time>
      </trkpt>
      <trkpt lat="47.51722" lon="3.75213">
        <ele>181</ele>
        <time>2014-04-17T12:27:09Z</time>
      </trkpt>
      <trkpt lat="47.51716" lon="3.75202">
        <ele>181</ele>
        <time>2014-04-17T12:27:17Z</time>
      </trkpt>
      <trkpt lat="47.51693" lon="3.75182">
        <ele>180</ele>
        <time>2014-04-17T12:27:39Z</time>
      </trkpt>
      <trkpt lat="47.51688" lon="3.75179">
        <ele>180</ele>
        <time>2014-04-17T12:27:43Z</time>
      </trkpt>
      <trkpt lat="47.51683" lon="3.75176">
        <ele>179</ele>
        <time>2014-04-17T12:27:47Z</time>
      </trkpt>
      <trkpt lat="47.51665" lon="3.75161">
        <ele>176</ele>
        <time>2014-04-17T12:28:03Z</time>
      </trkpt>
      <trkpt lat="47.5166" lon="3.75158">
        <ele>176</ele>
        <time>2014-04-17T12:28:07Z</time>
      </trkpt>
      <trkpt lat="47.51657" lon="3.75152">
        <ele>176</ele>
        <time>2014-04-17T12:28:11Z</time>
      </trkpt>
      <trkpt lat="47.51654" lon="3.75147">
        <ele>176</ele>
        <time>2014-04-17T12:28:15Z</time>
      </trkpt>
      <trkpt lat="47.51646" lon="3.75143">
        <ele>176</ele>
        <time>2014-04-17T12:28:21Z</time>
      </trkpt>
      <trkpt lat="47.51641" lon="3.75142">
        <ele>176</ele>
        <time>2014-04-17T12:28:24Z</time>
      </trkpt>
      <trkpt lat="47.51637" lon="3.7514">
        <ele>176</ele>
        <time>2014-04-17T12:28:27Z</time>
      </trkpt>
      <trkpt lat="47.51633" lon="3.75137">
        <ele>176</ele>
        <time>2014-04-17T12:28:30Z</time>
      </trkpt>
      <trkpt lat="47.5163" lon="3.7513">
        <ele>176</ele>
        <time>2014-04-17T12:28:34Z</time>
      </trkpt>
      <trkpt lat="47.51625" lon="3.75126">
        <ele>176</ele>
        <time>2014-04-17T12:28:38Z</time>
      </trkpt>
      <trkpt lat="47.51609" lon="3.75108">
        <ele>176</ele>
        <time>2014-04-17T12:28:55Z</time>
      </trkpt>
      <trkpt lat="47.51605" lon="3.75104">
        <ele>175</ele>
        <time>2014-04-17T12:29:00Z</time>
      </trkpt>
      <trkpt lat="47.516" lon="3.75099">
        <ele>175</ele>
        <time>2014-04-17T12:29:05Z</time>
      </trkpt>
      <trkpt lat="47.51597" lon="3.75092">
        <ele>175</ele>
        <time>2014-04-17T12:29:09Z</time>
      </trkpt>
      <trkpt lat="47.51594" lon="3.75087">
        <ele>174</ele>
        <time>2014-04-17T12:29:13Z</time>
      </trkpt>
      <trkpt lat="47.5159" lon="3.75083">
        <ele>174</ele>
        <time>2014-04-17T12:29:17Z</time>
      </trkpt>
      <trkpt lat="47.51571" lon="3.75073">
        <ele>174</ele>
        <time>2014-04-17T12:29:32Z</time>
      </trkpt>
      <trkpt lat="47.51561" lon="3.75071">
        <ele>174</ele>
        <time>2014-04-17T12:29:38Z</time>
      </trkpt>
      <trkpt lat="47.51554" lon="3.75059">
        <ele>174</ele>
        <time>2014-04-17T12:29:46Z</time>
      </trkpt>
      <trkpt lat="47.5155" lon="3.75057">
        <ele>174</ele>
        <time>2014-04-17T12:29:50Z</time>
      </trkpt>
      <trkpt lat="47.51545" lon="3.75057">
        <ele>175</ele>
        <time>2014-04-17T12:29:53Z</time>
      </trkpt>
      <trkpt lat="47.5154" lon="3.75056">
        <ele>175</ele>
        <time>2014-04-17T12:29:57Z</time>
      </trkpt>
      <trkpt lat="47.51536" lon="3.75051">
        <ele>175</ele>
        <time>2014-04-17T12:30:01Z</time>
      </trkpt>
      <trkpt lat="47.51535" lon="3.75044">
        <ele>175</ele>
        <time>2014-04-17T12:30:12Z</time>
      </trkpt>
      <trkpt lat="47.51525" lon="3.75039">
        <ele>174</ele>
        <time>2014-04-17T12:30:27Z</time>
      </trkpt>
      <trkpt lat="47.51524" lon="3.75035">
        <ele>174</ele>
        <time>2014-04-17T12:30:39Z</time>
      </trkpt>
      <trkpt lat="47.51519" lon="3.75033">
        <ele>174</ele>
        <time>2014-04-17T12:30:43Z</time>
      </trkpt>
      <trkpt lat="47.51514" lon="3.75031">
        <ele>174</ele>
        <time>2014-04-17T12:30:47Z</time>
      </trkpt>
      <trkpt lat="47.51501" lon="3.75022">
        <ele>174</ele>
        <time>2014-04-17T12:30:59Z</time>
      </trkpt>
      <trkpt lat="47.51495" lon="3.7502">
        <ele>173</ele>
        <time>2014-04-17T12:31:04Z</time>
      </trkpt>
      <trkpt lat="47.5149" lon="3.7502">
        <ele>173</ele>
        <time>2014-04-17T12:31:09Z</time>
      </trkpt>
      <trkpt lat="47.5147" lon="3.75011">
        <ele>173</ele>
        <time>2014-04-17T12:31:25Z</time>
      </trkpt>
      <trkpt lat="47.51453" lon="3.7501">
        <ele>173</ele>
        <time>2014-04-17T12:31:37Z</time>
      </trkpt>
      <trkpt lat="47.51443" lon="3.75008">
        <ele>173</ele>
        <time>2014-04-17T12:31:44Z</time>
      </trkpt>
      <trkpt lat="47.51437" lon="3.75009">
        <ele>172</ele>
        <time>2014-04-17T12:31:48Z</time>
      </trkpt>
      <trkpt lat="47.51427" lon="3.75008">
        <ele>171</ele>
        <time>2014-04-17T12:31:56Z</time>
      </trkpt>
      <trkpt lat="47.51421" lon="3.75008">
        <ele>171</ele>
        <time>2014-04-17T12:32:00Z</time>
      </trkpt>
      <trkpt lat="47.51416" lon="3.7501">
        <ele>170</ele>
        <time>2014-04-17T12:32:03Z</time>
      </trkpt>
      <trkpt lat="47.51411" lon="3.75009">
        <ele>170</ele>
        <time>2014-04-17T12:32:08Z</time>
      </trkpt>
      <trkpt lat="47.51407" lon="3.7501">
        <ele>170</ele>
        <time>2014-04-17T12:32:14Z</time>
      </trkpt>
      <trkpt lat="47.51402" lon="3.75014">
        <ele>171</ele>
        <time>2014-04-17T12:32:19Z</time>
      </trkpt>
      <trkpt lat="47.51398" lon="3.75019">
        <ele>171</ele>
        <time>2014-04-17T12:32:24Z</time>
      </trkpt>
      <trkpt lat="47.51392" lon="3.7503">
        <ele>172</ele>
        <time>2014-04-17T12:32:33Z</time>
      </trkpt>
      <trkpt lat="47.51387" lon="3.75035">
        <ele>172</ele>
        <time>2014-04-17T12:32:37Z</time>
      </trkpt>
      <trkpt lat="47.51381" lon="3.75047">
        <ele>172</ele>
        <time>2014-04-17T12:32:45Z</time>
      </trkpt>
      <trkpt lat="47.51378" lon="3.75054">
        <ele>173</ele>
        <time>2014-04-17T12:32:51Z</time>
      </trkpt>
      <trkpt lat="47.51374" lon="3.75057">
        <ele>173</ele>
        <time>2014-04-17T12:32:55Z</time>
      </trkpt>
      <trkpt lat="47.51361" lon="3.75071">
        <ele>173</ele>
        <time>2014-04-17T12:33:08Z</time>
      </trkpt>
      <trkpt lat="47.51357" lon="3.75078">
        <ele>173</ele>
        <time>2014-04-17T12:33:13Z</time>
      </trkpt>
      <trkpt lat="47.51353" lon="3.7508">
        <ele>173</ele>
        <time>2014-04-17T12:33:17Z</time>
      </trkpt>
      <trkpt lat="47.51349" lon="3.75084">
        <ele>177</ele>
        <time>2014-04-17T12:33:20Z</time>
      </trkpt>
      <trkpt lat="47.51344" lon="3.75087">
        <ele>176</ele>
        <time>2014-04-17T12:33:23Z</time>
      </trkpt>
      <trkpt lat="47.5132" lon="3.751">
        <ele>174</ele>
        <time>2014-04-17T12:33:41Z</time>
      </trkpt>
      <trkpt lat="47.51316" lon="3.75101">
        <ele>174</ele>
        <time>2014-04-17T12:33:45Z</time>
      </trkpt>
      <trkpt lat="47.51311" lon="3.75103">
        <ele>174</ele>
        <time>2014-04-17T12:33:49Z</time>
      </trkpt>
      <trkpt lat="47.51307" lon="3.75106">
        <ele>174</ele>
        <time>2014-04-17T12:33:53Z</time>
      </trkpt>
      <trkpt lat="47.51302" lon="3.75108">
        <ele>173</ele>
        <time>2014-04-17T12:33:57Z</time>
      </trkpt>
      <trkpt lat="47.51293" lon="3.75116">
        <ele>173</ele>
        <time>2014-04-17T12:34:07Z</time>
      </trkpt>
      <trkpt lat="47.51278" lon="3.75122">
        <ele>173</ele>
        <time>2014-04-17T12:34:19Z</time>
      </trkpt>
      <trkpt lat="47.51246" lon="3.75125">
        <ele>167</ele>
        <time>2014-04-17T12:34:41Z</time>
      </trkpt>
      <trkpt lat="47.51236" lon="3.75128">
        <ele>167</ele>
        <time>2014-04-17T12:34:47Z</time>
      </trkpt>
      <trkpt lat="47.5123" lon="3.7513">
        <ele>167</ele>
        <time>2014-04-17T12:34:51Z</time>
      </trkpt>
      <trkpt lat="47.51219" lon="3.75131">
        <ele>167</ele>
        <time>2014-04-17T12:34:59Z</time>
      </trkpt>
      <trkpt lat="47.51199" lon="3.75141">
        <ele>167</ele>
        <time>2014-04-17T12:35:17Z</time>
      </trkpt>
      <trkpt lat="47.51195" lon="3.75139">
        <ele>167</ele>
        <time>2014-04-17T12:36:04Z</time>
      </trkpt>
      <trkpt lat="47.51188" lon="3.75145">
        <ele>167</ele>
        <time>2014-04-17T12:36:14Z</time>
      </trkpt>
      <trkpt lat="47.5117" lon="3.75156">
        <ele>167</ele>
        <time>2014-04-17T12:36:33Z</time>
      </trkpt>
      <trkpt lat="47.51164" lon="3.75158">
        <ele>165</ele>
        <time>2014-04-17T12:36:38Z</time>
      </trkpt>
      <trkpt lat="47.51154" lon="3.75164">
        <ele>164</ele>
        <time>2014-04-17T12:36:44Z</time>
      </trkpt>
      <trkpt lat="47.5115" lon="3.75167">
        <ele>168</ele>
        <time>2014-04-17T12:36:48Z</time>
      </trkpt>
      <trkpt lat="47.51144" lon="3.7517">
        <ele>168</ele>
        <time>2014-04-17T12:36:52Z</time>
      </trkpt>
      <trkpt lat="47.51134" lon="3.75173">
        <ele>168</ele>
        <time>2014-04-17T12:37:00Z</time>
      </trkpt>
      <trkpt lat="47.51129" lon="3.75175">
        <ele>167</ele>
        <time>2014-04-17T12:37:04Z</time>
      </trkpt>
      <trkpt lat="47.51125" lon="3.75178">
        <ele>167</ele>
        <time>2014-04-17T12:37:07Z</time>
      </trkpt>
      <trkpt lat="47.5112" lon="3.75181">
        <ele>167</ele>
        <time>2014-04-17T12:37:11Z</time>
      </trkpt>
      <trkpt lat="47.51114" lon="3.75185">
        <ele>167</ele>
        <time>2014-04-17T12:37:15Z</time>
      </trkpt>
      <trkpt lat="47.5111" lon="3.75189">
        <ele>167</ele>
        <time>2014-04-17T12:37:17Z</time>
      </trkpt>
      <trkpt lat="47.51098" lon="3.752">
        <ele>167</ele>
        <time>2014-04-17T12:37:23Z</time>
      </trkpt>
      <trkpt lat="47.51094" lon="3.75204">
        <ele>167</ele>
        <time>2014-04-17T12:37:26Z</time>
      </trkpt>
      <trkpt lat="47.5109" lon="3.75208">
        <ele>167</ele>
        <time>2014-04-17T12:37:31Z</time>
      </trkpt>
      <trkpt lat="47.51075" lon="3.7521">
        <ele>161</ele>
        <time>2014-04-17T12:37:40Z</time>
      </trkpt>
      <trkpt lat="47.5107" lon="3.7521">
        <ele>161</ele>
        <time>2014-04-17T12:37:45Z</time>
      </trkpt>
      <trkpt lat="47.51066" lon="3.75209">
        <ele>161</ele>
        <time>2014-04-17T12:37:50Z</time>
      </trkpt>
      <trkpt lat="47.51061" lon="3.7521">
        <ele>160</ele>
        <time>2014-04-17T12:37:54Z</time>
      </trkpt>
      <trkpt lat="47.51056" lon="3.75211">
        <ele>160</ele>
        <time>2014-04-17T12:37:58Z</time>
      </trkpt>
      <trkpt lat="47.51052" lon="3.75209">
        <ele>160</ele>
        <time>2014-04-17T12:38:04Z</time>
      </trkpt>
      <trkpt lat="47.51046" lon="3.75211">
        <ele>160</ele>
        <time>2014-04-17T12:38:09Z</time>
      </trkpt>
      <trkpt lat="47.51042" lon="3.75215">
        <ele>160</ele>
        <time>2014-04-17T12:38:11Z</time>
      </trkpt>
      <trkpt lat="47.51038" lon="3.75219">
        <ele>159</ele>
        <time>2014-04-17T12:38:13Z</time>
      </trkpt>
      <trkpt lat="47.51034" lon="3.75223">
        <ele>159</ele>
        <time>2014-04-17T12:38:16Z</time>
      </trkpt>
      <trkpt lat="47.5103" lon="3.75226">
        <ele>159</ele>
        <time>2014-04-17T12:38:20Z</time>
      </trkpt>
      <trkpt lat="47.5102" lon="3.75228">
        <ele>158</ele>
        <time>2014-04-17T12:38:30Z</time>
      </trkpt>
      <trkpt lat="47.51016" lon="3.75231">
        <ele>158</ele>
        <time>2014-04-17T12:38:33Z</time>
      </trkpt>
      <trkpt lat="47.5101" lon="3.7523">
        <ele>158</ele>
        <time>2014-04-17T12:38:37Z</time>
      </trkpt>
      <trkpt lat="47.51006" lon="3.75227">
        <ele>158</ele>
        <time>2014-04-17T12:38:42Z</time>
      </trkpt>
      <trkpt lat="47.50999" lon="3.75216">
        <ele>154</ele>
        <time>2014-04-17T12:38:49Z</time>
      </trkpt>
      <trkpt lat="47.50984" lon="3.75211">
        <ele>153</ele>
        <time>2014-04-17T12:39:02Z</time>
      </trkpt>
      <trkpt lat="47.50974" lon="3.75203">
        <ele>153</ele>
        <time>2014-04-17T12:39:11Z</time>
      </trkpt>
      <trkpt lat="47.50958" lon="3.75198">
        <ele>153</ele>
        <time>2014-04-17T12:39:22Z</time>
      </trkpt>
      <trkpt lat="47.50943" lon="3.75197">
        <ele>153</ele>
        <time>2014-04-17T12:39:31Z</time>
      </trkpt>
      <trkpt lat="47.50937" lon="3.75198">
        <ele>153</ele>
        <time>2014-04-17T12:39:34Z</time>
      </trkpt>
      <trkpt lat="47.50932" lon="3.752">
        <ele>153</ele>
        <time>2014-04-17T12:39:37Z</time>
      </trkpt>
      <trkpt lat="47.50926" lon="3.75201">
        <ele>153</ele>
        <time>2014-04-17T12:39:41Z</time>
      </trkpt>
      <trkpt lat="47.50922" lon="3.75198">
        <ele>153</ele>
        <time>2014-04-17T12:39:46Z</time>
      </trkpt>
      <trkpt lat="47.50917" lon="3.75197">
        <ele>154</ele>
        <time>2014-04-17T12:39:51Z</time>
      </trkpt>
      <trkpt lat="47.50907" lon="3.75194">
        <ele>154</ele>
        <time>2014-04-17T12:40:01Z</time>
      </trkpt>
      <trkpt lat="47.50902" lon="3.7519">
        <ele>155</ele>
        <time>2014-04-17T12:40:06Z</time>
      </trkpt>
      <trkpt lat="47.50897" lon="3.75189">
        <ele>155</ele>
        <time>2014-04-17T12:40:11Z</time>
      </trkpt>
      <trkpt lat="47.50888" lon="3.75196">
        <ele>155</ele>
        <time>2014-04-17T12:40:21Z</time>
      </trkpt>
      <trkpt lat="47.50884" lon="3.75201">
        <ele>155</ele>
        <time>2014-04-17T12:40:26Z</time>
      </trkpt>
      <trkpt lat="47.50881" lon="3.75208">
        <ele>155</ele>
        <time>2014-04-17T12:40:31Z</time>
      </trkpt>
      <trkpt lat="47.50877" lon="3.75213">
        <ele>155</ele>
        <time>2014-04-17T12:40:35Z</time>
      </trkpt>
      <trkpt lat="47.5087" lon="3.75224">
        <ele>155</ele>
        <time>2014-04-17T12:40:45Z</time>
      </trkpt>
      <trkpt lat="47.50867" lon="3.75228">
        <ele>155</ele>
        <time>2014-04-17T12:40:51Z</time>
      </trkpt>
      <trkpt lat="47.50862" lon="3.75228">
        <ele>155</ele>
        <time>2014-04-17T12:40:54Z</time>
      </trkpt>
      <trkpt lat="47.50857" lon="3.7523">
        <ele>155</ele>
        <time>2014-04-17T12:40:58Z</time>
      </trkpt>
      <trkpt lat="47.50853" lon="3.75235">
        <ele>155</ele>
        <time>2014-04-17T12:41:02Z</time>
      </trkpt>
      <trkpt lat="47.5085" lon="3.75241">
        <ele>154</ele>
        <time>2014-04-17T12:41:06Z</time>
      </trkpt>
      <trkpt lat="47.50834" lon="3.7526">
        <ele>152</ele>
        <time>2014-04-17T12:41:22Z</time>
      </trkpt>
      <trkpt lat="47.50831" lon="3.75266">
        <ele>155</ele>
        <time>2014-04-17T12:41:27Z</time>
      </trkpt>
      <trkpt lat="47.50829" lon="3.75273">
        <ele>156</ele>
        <time>2014-04-17T12:41:31Z</time>
      </trkpt>
      <trkpt lat="47.50824" lon="3.75279">
        <ele>156</ele>
        <time>2014-04-17T12:41:35Z</time>
      </trkpt>
      <trkpt lat="47.50821" lon="3.75285">
        <ele>156</ele>
        <time>2014-04-17T12:41:38Z</time>
      </trkpt>
      <trkpt lat="47.50819" lon="3.75291">
        <ele>156</ele>
        <time>2014-04-17T12:41:41Z</time>
      </trkpt>
      <trkpt lat="47.50815" lon="3.75296">
        <ele>156</ele>
        <time>2014-04-17T12:41:45Z</time>
      </trkpt>
      <trkpt lat="47.50811" lon="3.75301">
        <ele>156</ele>
        <time>2014-04-17T12:41:49Z</time>
      </trkpt>
      <trkpt lat="47.50805" lon="3.75304">
        <ele>156</ele>
        <time>2014-04-17T12:41:52Z</time>
      </trkpt>
      <trkpt lat="47.50802" lon="3.75309">
        <ele>156</ele>
        <time>2014-04-17T12:41:56Z</time>
      </trkpt>
      <trkpt lat="47.50797" lon="3.75312">
        <ele>157</ele>
        <time>2014-04-17T12:42:03Z</time>
      </trkpt>
      <trkpt lat="47.50793" lon="3.75307">
        <ele>157</ele>
        <time>2014-04-17T12:42:08Z</time>
      </trkpt>
      <trkpt lat="47.50787" lon="3.75308">
        <ele>158</ele>
        <time>2014-04-17T12:42:14Z</time>
      </trkpt>
      <trkpt lat="47.50781" lon="3.75318">
        <ele>158</ele>
        <time>2014-04-17T12:42:22Z</time>
      </trkpt>
      <trkpt lat="47.50776" lon="3.75319">
        <ele>158</ele>
        <time>2014-04-17T12:42:27Z</time>
      </trkpt>
      <trkpt lat="47.5077" lon="3.75324">
        <ele>158</ele>
        <time>2014-04-17T12:42:31Z</time>
      </trkpt>
      <trkpt lat="47.50765" lon="3.75327">
        <ele>158</ele>
        <time>2014-04-17T12:42:34Z</time>
      </trkpt>
      <trkpt lat="47.50761" lon="3.75324">
        <ele>158</ele>
        <time>2014-04-17T12:42:41Z</time>
      </trkpt>
      <trkpt lat="47.5076" lon="3.75317">
        <ele>159</ele>
        <time>2014-04-17T12:42:44Z</time>
      </trkpt>
      <trkpt lat="47.50757" lon="3.75309">
        <ele>159</ele>
        <time>2014-04-17T12:42:49Z</time>
      </trkpt>
      <trkpt lat="47.50752" lon="3.75305">
        <ele>160</ele>
        <time>2014-04-17T12:42:53Z</time>
      </trkpt>
      <trkpt lat="47.50745" lon="3.75306">
        <ele>165</ele>
        <time>2014-04-17T12:43:09Z</time>
      </trkpt>
      <trkpt lat="47.50744" lon="3.75314">
        <ele>164</ele>
        <time>2014-04-17T12:43:10Z</time>
      </trkpt>
      <trkpt lat="47.50739" lon="3.75315">
        <ele>164</ele>
        <time>2014-04-17T12:43:17Z</time>
      </trkpt>
      <trkpt lat="47.50734" lon="3.75313">
        <ele>165</ele>
        <time>2014-04-17T12:43:21Z</time>
      </trkpt>
      <trkpt lat="47.50725" lon="3.75308">
        <ele>166</ele>
        <time>2014-04-17T12:43:28Z</time>
      </trkpt>
      <trkpt lat="47.50716" lon="3.75305">
        <ele>167</ele>
        <time>2014-04-17T12:43:37Z</time>
      </trkpt>
      <trkpt lat="47.5071" lon="3.75311">
        <ele>167</ele>
        <time>2014-04-17T12:43:40Z</time>
      </trkpt>
      <trkpt lat="47.50706" lon="3.75313">
        <ele>167</ele>
        <time>2014-04-17T12:43:43Z</time>
      </trkpt>
      <trkpt lat="47.50697" lon="3.75321">
        <ele>166</ele>
        <time>2014-04-17T12:43:49Z</time>
      </trkpt>
      <trkpt lat="47.50691" lon="3.7532">
        <ele>166</ele>
        <time>2014-04-17T12:43:53Z</time>
      </trkpt>
      <trkpt lat="47.50687" lon="3.75318">
        <ele>167</ele>
        <time>2014-04-17T12:43:57Z</time>
      </trkpt>
      <trkpt lat="47.50676" lon="3.75314">
        <ele>167</ele>
        <time>2014-04-17T12:44:06Z</time>
      </trkpt>
      <trkpt lat="47.50665" lon="3.75312">
        <ele>166</ele>
        <time>2014-04-17T12:44:16Z</time>
      </trkpt>
      <trkpt lat="47.50657" lon="3.75304">
        <ele>167</ele>
        <time>2014-04-17T12:44:26Z</time>
      </trkpt>
      <trkpt lat="47.50647" lon="3.75299">
        <ele>167</ele>
        <time>2014-04-17T12:44:36Z</time>
      </trkpt>
      <trkpt lat="47.50637" lon="3.75291">
        <ele>167</ele>
        <time>2014-04-17T12:44:43Z</time>
      </trkpt>
      <trkpt lat="47.50632" lon="3.75289">
        <ele>167</ele>
        <time>2014-04-17T12:44:48Z</time>
      </trkpt>
      <trkpt lat="47.50628" lon="3.75284">
        <ele>167</ele>
        <time>2014-04-17T12:44:53Z</time>
      </trkpt>
      <trkpt lat="47.50623" lon="3.7528">
        <ele>167</ele>
        <time>2014-04-17T12:44:57Z</time>
      </trkpt>
      <trkpt lat="47.50617" lon="3.75278">
        <ele>167</ele>
        <time>2014-04-17T12:45:01Z</time>
      </trkpt>
      <trkpt lat="47.50603" lon="3.75269">
        <ele>167</ele>
        <time>2014-04-17T12:45:15Z</time>
      </trkpt>
      <trkpt lat="47.50599" lon="3.75265">
        <ele>167</ele>
        <time>2014-04-17T12:45:18Z</time>
      </trkpt>
      <trkpt lat="47.5058" lon="3.75254">
        <ele>167</ele>
        <time>2014-04-17T12:45:35Z</time>
      </trkpt>
      <trkpt lat="47.50575" lon="3.75252">
        <ele>167</ele>
        <time>2014-04-17T12:45:41Z</time>
      </trkpt>
      <trkpt lat="47.50566" lon="3.75246">
        <ele>171</ele>
        <time>2014-04-17T12:45:48Z</time>
      </trkpt>
      <trkpt lat="47.50561" lon="3.75245">
        <ele>172</ele>
        <time>2014-04-17T12:45:54Z</time>
      </trkpt>
      <trkpt lat="47.50556" lon="3.75244">
        <ele>172</ele>
        <time>2014-04-17T12:46:00Z</time>
      </trkpt>
      <trkpt lat="47.50562" lon="3.75228">
        <ele>173</ele>
        <time>2014-04-17T12:46:58Z</time>
      </trkpt>
      <trkpt lat="47.50558" lon="3.75228">
        <ele>173</ele>
        <time>2014-04-17T12:48:55Z</time>
      </trkpt>
      <trkpt lat="47.50552" lon="3.75231">
        <ele>173</ele>
        <time>2014-04-17T12:49:23Z</time>
      </trkpt>
      <trkpt lat="47.50547" lon="3.75232">
        <ele>173</ele>
        <time>2014-04-17T12:49:27Z</time>
      </trkpt>
      <trkpt lat="47.50538" lon="3.75232">
        <ele>173</ele>
        <time>2014-04-17T12:49:37Z</time>
      </trkpt>
      <trkpt lat="47.50534" lon="3.75238">
        <ele>173</ele>
        <time>2014-04-17T12:49:41Z</time>
      </trkpt>
      <trkpt lat="47.50528" lon="3.75237">
        <ele>173</ele>
        <time>2014-04-17T12:49:46Z</time>
      </trkpt>
      <trkpt lat="47.50524" lon="3.75236">
        <ele>173</ele>
        <time>2014-04-17T12:49:50Z</time>
      </trkpt>
      <trkpt lat="47.50513" lon="3.75233">
        <ele>173</ele>
        <time>2014-04-17T12:49:58Z</time>
      </trkpt>
      <trkpt lat="47.50508" lon="3.75231">
        <ele>173</ele>
        <time>2014-04-17T12:50:03Z</time>
      </trkpt>
      <trkpt lat="47.50503" lon="3.7523">
        <ele>173</ele>
        <time>2014-04-17T12:50:08Z</time>
      </trkpt>
      <trkpt lat="47.50498" lon="3.7523">
        <ele>175</ele>
        <time>2014-04-17T12:50:13Z</time>
      </trkpt>
      <trkpt lat="47.50492" lon="3.75219">
        <ele>176</ele>
        <time>2014-04-17T12:50:22Z</time>
      </trkpt>
      <trkpt lat="47.50482" lon="3.75221">
        <ele>176</ele>
        <time>2014-04-17T12:50:28Z</time>
      </trkpt>
      <trkpt lat="47.50477" lon="3.7522">
        <ele>177</ele>
        <time>2014-04-17T12:50:33Z</time>
      </trkpt>
      <trkpt lat="47.50473" lon="3.75222">
        <ele>177</ele>
        <time>2014-04-17T12:50:37Z</time>
      </trkpt>
      <trkpt lat="47.50463" lon="3.75224">
        <ele>178</ele>
        <time>2014-04-17T12:50:52Z</time>
      </trkpt>
      <trkpt lat="47.50448" lon="3.75221">
        <ele>179</ele>
        <time>2014-04-17T12:51:04Z</time>
      </trkpt>
      <trkpt lat="47.50439" lon="3.75219">
        <ele>179</ele>
        <time>2014-04-17T12:51:11Z</time>
      </trkpt>
      <trkpt lat="47.5043" lon="3.75213">
        <ele>180</ele>
        <time>2014-04-17T12:51:20Z</time>
      </trkpt>
      <trkpt lat="47.50425" lon="3.7521">
        <ele>180</ele>
        <time>2014-04-17T12:51:26Z</time>
      </trkpt>
      <trkpt lat="47.5041" lon="3.7521">
        <ele>186</ele>
        <time>2014-04-17T12:51:39Z</time>
      </trkpt>
      <trkpt lat="47.50401" lon="3.75203">
        <ele>187</ele>
        <time>2014-04-17T12:51:47Z</time>
      </trkpt>
      <trkpt lat="47.50393" lon="3.75196">
        <ele>187</ele>
        <time>2014-04-17T12:51:53Z</time>
      </trkpt>
      <trkpt lat="47.50383" lon="3.7519">
        <ele>187</ele>
        <time>2014-04-17T12:52:11Z</time>
      </trkpt>
      <trkpt lat="47.50375" lon="3.75185">
        <ele>188</ele>
        <time>2014-04-17T12:52:17Z</time>
      </trkpt>
      <trkpt lat="47.50366" lon="3.75179">
        <ele>188</ele>
        <time>2014-04-17T12:52:26Z</time>
      </trkpt>
      <trkpt lat="47.50359" lon="3.7517">
        <ele>189</ele>
        <time>2014-04-17T12:52:36Z</time>
      </trkpt>
      <trkpt lat="47.5035" lon="3.75177">
        <ele>189</ele>
        <time>2014-04-17T12:52:45Z</time>
      </trkpt>
      <trkpt lat="47.5034" lon="3.75178">
        <ele>190</ele>
        <time>2014-04-17T12:52:52Z</time>
      </trkpt>
      <trkpt lat="47.50323" lon="3.75168">
        <ele>193</ele>
        <time>2014-04-17T12:53:06Z</time>
      </trkpt>
      <trkpt lat="47.50316" lon="3.75158">
        <ele>194</ele>
        <time>2014-04-17T12:53:16Z</time>
      </trkpt>
      <trkpt lat="47.50308" lon="3.7515">
        <ele>196</ele>
        <time>2014-04-17T12:53:22Z</time>
      </trkpt>
      <trkpt lat="47.50298" lon="3.75149">
        <ele>197</ele>
        <time>2014-04-17T12:53:27Z</time>
      </trkpt>
      <trkpt lat="47.50279" lon="3.75149">
        <ele>198</ele>
        <time>2014-04-17T12:53:47Z</time>
      </trkpt>
      <trkpt lat="47.50275" lon="3.75131">
        <ele>199</ele>
        <time>2014-04-17T12:54:23Z</time>
      </trkpt>
      <trkpt lat="47.50255" lon="3.7514">
        <ele>200</ele>
        <time>2014-04-17T12:54:38Z</time>
      </trkpt>
      <trkpt lat="47.50246" lon="3.75134">
        <ele>203</ele>
        <time>2014-04-17T12:54:49Z</time>
      </trkpt>
      <trkpt lat="47.50238" lon="3.7513">
        <ele>203</ele>
        <time>2014-04-17T12:54:57Z</time>
      </trkpt>
      <trkpt lat="47.50229" lon="3.7513">
        <ele>204</ele>
        <time>2014-04-17T12:55:18Z</time>
      </trkpt>
      <trkpt lat="47.50221" lon="3.75138">
        <ele>203</ele>
        <time>2014-04-17T12:55:33Z</time>
      </trkpt>
      <trkpt lat="47.50218" lon="3.75143">
        <ele>203</ele>
        <time>2014-04-17T12:55:37Z</time>
      </trkpt>
      <trkpt lat="47.50213" lon="3.75147">
        <ele>204</ele>
        <time>2014-04-17T12:55:42Z</time>
      </trkpt>
      <trkpt lat="47.50209" lon="3.75152">
        <ele>204</ele>
        <time>2014-04-17T12:55:46Z</time>
      </trkpt>
      <trkpt lat="47.50205" lon="3.75154">
        <ele>204</ele>
        <time>2014-04-17T12:55:50Z</time>
      </trkpt>
      <trkpt lat="47.502" lon="3.75155">
        <ele>204</ele>
        <time>2014-04-17T12:55:59Z</time>
      </trkpt>
      <trkpt lat="47.50195" lon="3.7516">
        <ele>204</ele>
        <time>2014-04-17T12:56:04Z</time>
      </trkpt>
      <trkpt lat="47.50191" lon="3.75164">
        <ele>204</ele>
        <time>2014-04-17T12:56:10Z</time>
      </trkpt>
      <trkpt lat="47.50187" lon="3.75166">
        <ele>204</ele>
        <time>2014-04-17T12:56:16Z</time>
      </trkpt>
      <trkpt lat="47.50176" lon="3.75169">
        <ele>205</ele>
        <time>2014-04-17T12:56:27Z</time>
      </trkpt>
      <trkpt lat="47.50172" lon="3.75171">
        <ele>205</ele>
        <time>2014-04-17T12:56:30Z</time>
      </trkpt>
      <trkpt lat="47.50167" lon="3.75173">
        <ele>205</ele>
        <time>2014-04-17T12:56:34Z</time>
      </trkpt>
      <trkpt lat="47.50163" lon="3.75174">
        <ele>205</ele>
        <time>2014-04-17T12:56:44Z</time>
      </trkpt>
      <trkpt lat="47.5016" lon="3.75179">
        <ele>206</ele>
        <time>2014-04-17T12:56:47Z</time>
      </trkpt>
      <trkpt lat="47.50154" lon="3.7518">
        <ele>206</ele>
        <time>2014-04-17T12:56:54Z</time>
      </trkpt>
      <trkpt lat="47.50149" lon="3.7518">
        <ele>206</ele>
        <time>2014-04-17T12:57:00Z</time>
      </trkpt>
      <trkpt lat="47.50145" lon="3.75182">
        <ele>206</ele>
        <time>2014-04-17T12:57:04Z</time>
      </trkpt>
      <trkpt lat="47.50135" lon="3.75189">
        <ele>207</ele>
        <time>2014-04-17T12:57:11Z</time>
      </trkpt>
      <trkpt lat="47.5013" lon="3.75192">
        <ele>207</ele>
        <time>2014-04-17T12:57:15Z</time>
      </trkpt>
      <trkpt lat="47.50125" lon="3.75196">
        <ele>207</ele>
        <time>2014-04-17T12:57:20Z</time>
      </trkpt>
      <trkpt lat="47.50121" lon="3.75199">
        <ele>207</ele>
        <time>2014-04-17T12:57:24Z</time>
      </trkpt>
      <trkpt lat="47.50111" lon="3.75201">
        <ele>207</ele>
        <time>2014-04-17T12:57:33Z</time>
      </trkpt>
      <trkpt lat="47.50106" lon="3.75203">
        <ele>207</ele>
        <time>2014-04-17T12:57:37Z</time>
      </trkpt>
      <trkpt lat="47.50102" lon="3.75207">
        <ele>207</ele>
        <time>2014-04-17T12:57:40Z</time>
      </trkpt>
      <trkpt lat="47.50087" lon="3.75214">
        <ele>208</ele>
        <time>2014-04-17T12:57:51Z</time>
      </trkpt>
      <trkpt lat="47.50055" lon="3.75236">
        <ele>207</ele>
        <time>2014-04-17T12:58:21Z</time>
      </trkpt>
      <trkpt lat="47.50051" lon="3.75237">
        <ele>206</ele>
        <time>2014-04-17T12:58:25Z</time>
      </trkpt>
      <trkpt lat="47.50046" lon="3.75236">
        <ele>206</ele>
        <time>2014-04-17T12:58:29Z</time>
      </trkpt>
      <trkpt lat="47.50037" lon="3.75244">
        <ele>206</ele>
        <time>2014-04-17T12:58:36Z</time>
      </trkpt>
      <trkpt lat="47.50027" lon="3.75249">
        <ele>205</ele>
        <time>2014-04-17T12:58:43Z</time>
      </trkpt>
      <trkpt lat="47.50017" lon="3.75252">
        <ele>206</ele>
        <time>2014-04-17T12:58:51Z</time>
      </trkpt>
      <trkpt lat="47.50012" lon="3.75253">
        <ele>206</ele>
        <time>2014-04-17T12:58:55Z</time>
      </trkpt>
      <trkpt lat="47.50001" lon="3.75257">
        <ele>205</ele>
        <time>2014-04-17T12:59:03Z</time>
      </trkpt>
      <trkpt lat="47.49996" lon="3.75258">
        <ele>205</ele>
        <time>2014-04-17T12:59:07Z</time>
      </trkpt>
      <trkpt lat="47.49986" lon="3.75261">
        <ele>205</ele>
        <time>2014-04-17T12:59:13Z</time>
      </trkpt>
      <trkpt lat="47.49981" lon="3.75262">
        <ele>205</ele>
        <time>2014-04-17T12:59:17Z</time>
      </trkpt>
      <trkpt lat="47.4997" lon="3.75262">
        <ele>205</ele>
        <time>2014-04-17T12:59:26Z</time>
      </trkpt>
      <trkpt lat="47.49965" lon="3.75261">
        <ele>205</ele>
        <time>2014-04-17T12:59:30Z</time>
      </trkpt>
      <trkpt lat="47.49955" lon="3.75264">
        <ele>206</ele>
        <time>2014-04-17T12:59:37Z</time>
      </trkpt>
      <trkpt lat="47.4995" lon="3.75264">
        <ele>206</ele>
        <time>2014-04-17T12:59:41Z</time>
      </trkpt>
      <trkpt lat="47.49946" lon="3.75264">
        <ele>206</ele>
        <time>2014-04-17T12:59:45Z</time>
      </trkpt>
      <trkpt lat="47.49941" lon="3.75262">
        <ele>206</ele>
        <time>2014-04-17T12:59:48Z</time>
      </trkpt>
      <trkpt lat="47.49936" lon="3.75263">
        <ele>206</ele>
        <time>2014-04-17T12:59:51Z</time>
      </trkpt>
      <trkpt lat="47.49927" lon="3.75266">
        <ele>206</ele>
        <time>2014-04-17T13:00:00Z</time>
      </trkpt>
      <trkpt lat="47.49922" lon="3.75266">
        <ele>206</ele>
        <time>2014-04-17T13:00:04Z</time>
      </trkpt>
      <trkpt lat="47.49917" lon="3.75267">
        <ele>206</ele>
        <time>2014-04-17T13:00:08Z</time>
      </trkpt>
      <trkpt lat="47.49912" lon="3.75266">
        <ele>207</ele>
        <time>2014-04-17T13:00:13Z</time>
      </trkpt>
      <trkpt lat="47.49908" lon="3.75262">
        <ele>207</ele>
        <time>2014-04-17T13:00:19Z</time>
      </trkpt>
      <trkpt lat="47.49897" lon="3.75258">
        <ele>208</ele>
        <time>2014-04-17T13:00:28Z</time>
      </trkpt>
      <trkpt lat="47.49892" lon="3.75257">
        <ele>208</ele>
        <time>2014-04-17T13:00:33Z</time>
      </trkpt>
      <trkpt lat="47.49887" lon="3.75254">
        <ele>208</ele>
        <time>2014-04-17T13:00:38Z</time>
      </trkpt>
      <trkpt lat="47.49883" lon="3.75252">
        <ele>209</ele>
        <time>2014-04-17T13:00:42Z</time>
      </trkpt>
      <trkpt lat="47.49874" lon="3.75257">
        <ele>209</ele>
        <time>2014-04-17T13:00:49Z</time>
      </trkpt>
      <trkpt lat="47.49867" lon="3.75256">
        <ele>209</ele>
        <time>2014-04-17T13:00:56Z</time>
      </trkpt>
      <trkpt lat="47.49853" lon="3.7526">
        <ele>210</ele>
        <time>2014-04-17T13:01:07Z</time>
      </trkpt>
      <trkpt lat="47.49844" lon="3.75255">
        <ele>210</ele>
        <time>2014-04-17T13:01:16Z</time>
      </trkpt>
      <trkpt lat="47.49834" lon="3.75256">
        <ele>211</ele>
        <time>2014-04-17T13:01:24Z</time>
      </trkpt>
      <trkpt lat="47.49815" lon="3.75247">
        <ele>211</ele>
        <time>2014-04-17T13:01:42Z</time>
      </trkpt>
      <trkpt lat="47.4981" lon="3.75245">
        <ele>211</ele>
        <time>2014-04-17T13:01:46Z</time>
      </trkpt>
      <trkpt lat="47.498" lon="3.75245">
        <ele>211</ele>
        <time>2014-04-17T13:01:54Z</time>
      </trkpt>
      <trkpt lat="47.49795" lon="3.75243">
        <ele>211</ele>
        <time>2014-04-17T13:01:58Z</time>
      </trkpt>
      <trkpt lat="47.49791" lon="3.75241">
        <ele>212</ele>
        <time>2014-04-17T13:02:02Z</time>
      </trkpt>
      <trkpt lat="47.49787" lon="3.75239">
        <ele>212</ele>
        <time>2014-04-17T13:02:06Z</time>
      </trkpt>
      <trkpt lat="47.49777" lon="3.75235">
        <ele>212</ele>
        <time>2014-04-17T13:02:15Z</time>
      </trkpt>
      <trkpt lat="47.49773" lon="3.75235">
        <ele>212</ele>
        <time>2014-04-17T13:02:19Z</time>
      </trkpt>
      <trkpt lat="47.49768" lon="3.75233">
        <ele>212</ele>
        <time>2014-04-17T13:02:23Z</time>
      </trkpt>
      <trkpt lat="47.49759" lon="3.75233">
        <ele>212</ele>
        <time>2014-04-17T13:02:31Z</time>
      </trkpt>
      <trkpt lat="47.49742" lon="3.75234">
        <ele>213</ele>
        <time>2014-04-17T13:02:49Z</time>
      </trkpt>
      <trkpt lat="47.49737" lon="3.75234">
        <ele>213</ele>
        <time>2014-04-17T13:03:02Z</time>
      </trkpt>
      <trkpt lat="47.49731" lon="3.75235">
        <ele>213</ele>
        <time>2014-04-17T13:03:06Z</time>
      </trkpt>
      <trkpt lat="47.49727" lon="3.75236">
        <ele>213</ele>
        <time>2014-04-17T13:03:09Z</time>
      </trkpt>
      <trkpt lat="47.49717" lon="3.75238">
        <ele>213</ele>
        <time>2014-04-17T13:03:16Z</time>
      </trkpt>
      <trkpt lat="47.49713" lon="3.75239">
        <ele>213</ele>
        <time>2014-04-17T13:03:21Z</time>
      </trkpt>
      <trkpt lat="47.49707" lon="3.75238">
        <ele>213</ele>
        <time>2014-04-17T13:03:26Z</time>
      </trkpt>
      <trkpt lat="47.49702" lon="3.75237">
        <ele>213</ele>
        <time>2014-04-17T13:03:30Z</time>
      </trkpt>
      <trkpt lat="47.49697" lon="3.75236">
        <ele>213</ele>
        <time>2014-04-17T13:03:35Z</time>
      </trkpt>
      <trkpt lat="47.49692" lon="3.75239">
        <ele>213</ele>
        <time>2014-04-17T13:03:39Z</time>
      </trkpt>
      <trkpt lat="47.49686" lon="3.75239">
        <ele>213</ele>
        <time>2014-04-17T13:03:43Z</time>
      </trkpt>
      <trkpt lat="47.49681" lon="3.75241">
        <ele>214</ele>
        <time>2014-04-17T13:03:46Z</time>
      </trkpt>
      <trkpt lat="47.49676" lon="3.75244">
        <ele>214</ele>
        <time>2014-04-17T13:03:49Z</time>
      </trkpt>
      <trkpt lat="47.49671" lon="3.75246">
        <ele>214</ele>
        <time>2014-04-17T13:03:52Z</time>
      </trkpt>
      <trkpt lat="47.4965" lon="3.75242">
        <ele>214</ele>
        <time>2014-04-17T13:04:10Z</time>
      </trkpt>
      <trkpt lat="47.49645" lon="3.75244">
        <ele>214</ele>
        <time>2014-04-17T13:04:15Z</time>
      </trkpt>
      <trkpt lat="47.49638" lon="3.75233">
        <ele>213</ele>
        <time>2014-04-17T13:04:23Z</time>
      </trkpt>
      <trkpt lat="47.49633" lon="3.75237">
        <ele>213</ele>
        <time>2014-04-17T13:04:27Z</time>
      </trkpt>
      <trkpt lat="47.49628" lon="3.75239">
        <ele>213</ele>
        <time>2014-04-17T13:04:32Z</time>
      </trkpt>
      <trkpt lat="47.49607" lon="3.75235">
        <ele>214</ele>
        <time>2014-04-17T13:04:49Z</time>
      </trkpt>
      <trkpt lat="47.49603" lon="3.75233">
        <ele>214</ele>
        <time>2014-04-17T13:04:53Z</time>
      </trkpt>
      <trkpt lat="47.49599" lon="3.7523">
        <ele>214</ele>
        <time>2014-04-17T13:04:57Z</time>
      </trkpt>
      <trkpt lat="47.49594" lon="3.75226">
        <ele>214</ele>
        <time>2014-04-17T13:05:04Z</time>
      </trkpt>
      <trkpt lat="47.4959" lon="3.75225">
        <ele>214</ele>
        <time>2014-04-17T13:05:08Z</time>
      </trkpt>
      <trkpt lat="47.49585" lon="3.75226">
        <ele>214</ele>
        <time>2014-04-17T13:05:12Z</time>
      </trkpt>
      <trkpt lat="47.49575" lon="3.75223">
        <ele>213</ele>
        <time>2014-04-17T13:05:19Z</time>
      </trkpt>
      <trkpt lat="47.4957" lon="3.75223">
        <ele>213</ele>
        <time>2014-04-17T13:05:22Z</time>
      </trkpt>
      <trkpt lat="47.49559" lon="3.75224">
        <ele>213</ele>
        <time>2014-04-17T13:05:28Z</time>
      </trkpt>
      <trkpt lat="47.49555" lon="3.75222">
        <ele>213</ele>
        <time>2014-04-17T13:05:34Z</time>
      </trkpt>
      <trkpt lat="47.4955" lon="3.75219">
        <ele>212</ele>
        <time>2014-04-17T13:05:39Z</time>
      </trkpt>
      <trkpt lat="47.49539" lon="3.75217">
        <ele>212</ele>
        <time>2014-04-17T13:05:48Z</time>
      </trkpt>
      <trkpt lat="47.49535" lon="3.75215">
        <ele>212</ele>
        <time>2014-04-17T13:05:52Z</time>
      </trkpt>
      <trkpt lat="47.4953" lon="3.75213">
        <ele>212</ele>
        <time>2014-04-17T13:05:56Z</time>
      </trkpt>
      <trkpt lat="47.49525" lon="3.75212">
        <ele>212</ele>
        <time>2014-04-17T13:06:00Z</time>
      </trkpt>
      <trkpt lat="47.49516" lon="3.75208">
        <ele>212</ele>
        <time>2014-04-17T13:06:09Z</time>
      </trkpt>
      <trkpt lat="47.49511" lon="3.75205">
        <ele>212</ele>
        <time>2014-04-17T13:06:13Z</time>
      </trkpt>
      <trkpt lat="47.495" lon="3.75202">
        <ele>211</ele>
        <time>2014-04-17T13:06:22Z</time>
      </trkpt>
      <trkpt lat="47.49495" lon="3.75195">
        <ele>211</ele>
        <time>2014-04-17T13:06:32Z</time>
      </trkpt>
      <trkpt lat="47.4949" lon="3.75193">
        <ele>211</ele>
        <time>2014-04-17T13:06:37Z</time>
      </trkpt>
      <trkpt lat="47.49485" lon="3.75195">
        <ele>211</ele>
        <time>2014-04-17T13:06:42Z</time>
      </trkpt>
      <trkpt lat="47.4948" lon="3.75194">
        <ele>211</ele>
        <time>2014-04-17T13:06:48Z</time>
      </trkpt>
      <trkpt lat="47.49474" lon="3.7519">
        <ele>211</ele>
        <time>2014-04-17T13:06:53Z</time>
      </trkpt>
      <trkpt lat="47.49469" lon="3.75188">
        <ele>211</ele>
        <time>2014-04-17T13:06:56Z</time>
      </trkpt>
      <trkpt lat="47.49464" lon="3.75186">
        <ele>211</ele>
        <time>2014-04-17T13:07:01Z</time>
      </trkpt>
      <trkpt lat="47.49443" lon="3.75169">
        <ele>211</ele>
        <time>2014-04-17T13:07:24Z</time>
      </trkpt>
      <trkpt lat="47.49429" lon="3.75161">
        <ele>210</ele>
        <time>2014-04-17T13:07:34Z</time>
      </trkpt>
      <trkpt lat="47.49426" lon="3.75155">
        <ele>210</ele>
        <time>2014-04-17T13:07:38Z</time>
      </trkpt>
      <trkpt lat="47.4942" lon="3.7515">
        <ele>210</ele>
        <time>2014-04-17T13:07:58Z</time>
      </trkpt>
      <trkpt lat="47.4941" lon="3.75147">
        <ele>209</ele>
        <time>2014-04-17T13:08:09Z</time>
      </trkpt>
      <trkpt lat="47.49405" lon="3.7515">
        <ele>209</ele>
        <time>2014-04-17T13:08:13Z</time>
      </trkpt>
      <trkpt lat="47.49402" lon="3.7515">
        <ele>209</ele>
        <time>2014-04-17T13:08:21Z</time>
      </trkpt>
      <trkpt lat="47.49397" lon="3.75148">
        <ele>209</ele>
        <time>2014-04-17T13:08:32Z</time>
      </trkpt>
      <trkpt lat="47.49391" lon="3.75147">
        <ele>208</ele>
        <time>2014-04-17T13:08:36Z</time>
      </trkpt>
      <trkpt lat="47.49387" lon="3.75146">
        <ele>208</ele>
        <time>2014-04-17T13:08:40Z</time>
      </trkpt>
      <trkpt lat="47.49382" lon="3.75145">
        <ele>208</ele>
        <time>2014-04-17T13:08:43Z</time>
      </trkpt>
      <trkpt lat="47.49377" lon="3.75144">
        <ele>208</ele>
        <time>2014-04-17T13:08:47Z</time>
      </trkpt>
      <trkpt lat="47.49373" lon="3.75141">
        <ele>208</ele>
        <time>2014-04-17T13:08:51Z</time>
      </trkpt>
      <trkpt lat="47.49362" lon="3.75138">
        <ele>208</ele>
        <time>2014-04-17T13:08:58Z</time>
      </trkpt>
      <trkpt lat="47.49353" lon="3.75131">
        <ele>207</ele>
        <time>2014-04-17T13:09:06Z</time>
      </trkpt>
      <trkpt lat="47.49348" lon="3.75131">
        <ele>207</ele>
        <time>2014-04-17T13:09:09Z</time>
      </trkpt>
      <trkpt lat="47.49343" lon="3.75133">
        <ele>207</ele>
        <time>2014-04-17T13:09:12Z</time>
      </trkpt>
      <trkpt lat="47.49338" lon="3.75133">
        <ele>207</ele>
        <time>2014-04-17T13:09:20Z</time>
      </trkpt>
      <trkpt lat="47.49333" lon="3.75135">
        <ele>205</ele>
        <time>2014-04-17T13:09:24Z</time>
      </trkpt>
      <trkpt lat="47.49325" lon="3.75132">
        <ele>205</ele>
        <time>2014-04-17T13:09:29Z</time>
      </trkpt>
      <trkpt lat="47.49316" lon="3.75136">
        <ele>205</ele>
        <time>2014-04-17T13:09:38Z</time>
      </trkpt>
      <trkpt lat="47.49307" lon="3.75137">
        <ele>204</ele>
        <time>2014-04-17T13:09:45Z</time>
      </trkpt>
      <trkpt lat="47.49298" lon="3.75134">
        <ele>204</ele>
        <time>2014-04-17T13:09:57Z</time>
      </trkpt>
      <trkpt lat="47.4928" lon="3.75124">
        <ele>203</ele>
        <time>2014-04-17T13:10:10Z</time>
      </trkpt>
      <trkpt lat="47.4927" lon="3.75122">
        <ele>203</ele>
        <time>2014-04-17T13:10:21Z</time>
      </trkpt>
      <trkpt lat="47.49259" lon="3.75118">
        <ele>203</ele>
        <time>2014-04-17T13:10:30Z</time>
      </trkpt>
      <trkpt lat="47.49251" lon="3.75112">
        <ele>202</ele>
        <time>2014-04-17T13:10:35Z</time>
      </trkpt>
      <trkpt lat="47.49241" lon="3.75107">
        <ele>197</ele>
        <time>2014-04-17T13:10:40Z</time>
      </trkpt>
      <trkpt lat="47.49232" lon="3.75105">
        <ele>197</ele>
        <time>2014-04-17T13:10:47Z</time>
      </trkpt>
      <trkpt lat="47.49222" lon="3.75104">
        <ele>196</ele>
        <time>2014-04-17T13:10:54Z</time>
      </trkpt>
      <trkpt lat="47.492" lon="3.75092">
        <ele>193</ele>
        <time>2014-04-17T13:11:09Z</time>
      </trkpt>
      <trkpt lat="47.49195" lon="3.7509">
        <ele>193</ele>
        <time>2014-04-17T13:11:13Z</time>
      </trkpt>
      <trkpt lat="47.49166" lon="3.75085">
        <ele>184</ele>
        <time>2014-04-17T13:11:48Z</time>
      </trkpt>
      <trkpt lat="47.49162" lon="3.75084">
        <ele>184</ele>
        <time>2014-04-17T13:11:51Z</time>
      </trkpt>
      <trkpt lat="47.49158" lon="3.75085">
        <ele>185</ele>
        <time>2014-04-17T13:12:01Z</time>
      </trkpt>
      <trkpt lat="47.49152" lon="3.75076">
        <ele>182</ele>
        <time>2014-04-17T13:12:25Z</time>
      </trkpt>
      <trkpt lat="47.49147" lon="3.75076">
        <ele>182</ele>
        <time>2014-04-17T13:12:31Z</time>
      </trkpt>
      <trkpt lat="47.49142" lon="3.75078">
        <ele>182</ele>
        <time>2014-04-17T13:12:34Z</time>
      </trkpt>
      <trkpt lat="47.49127" lon="3.75082">
        <ele>182</ele>
        <time>2014-04-17T13:12:48Z</time>
      </trkpt>
      <trkpt lat="47.49116" lon="3.75079">
        <ele>181</ele>
        <time>2014-04-17T13:12:56Z</time>
      </trkpt>
      <trkpt lat="47.49111" lon="3.75079">
        <ele>181</ele>
        <time>2014-04-17T13:13:00Z</time>
      </trkpt>
      <trkpt lat="47.49091" lon="3.75071">
        <ele>180</ele>
        <time>2014-04-17T13:13:16Z</time>
      </trkpt>
      <trkpt lat="47.49087" lon="3.75067">
        <ele>180</ele>
        <time>2014-04-17T13:13:20Z</time>
      </trkpt>
      <trkpt lat="47.49077" lon="3.75062">
        <ele>178</ele>
        <time>2014-04-17T13:13:29Z</time>
      </trkpt>
      <trkpt lat="47.49067" lon="3.75058">
        <ele>178</ele>
        <time>2014-04-17T13:13:37Z</time>
      </trkpt>
      <trkpt lat="47.49062" lon="3.75058">
        <ele>178</ele>
        <time>2014-04-17T13:13:40Z</time>
      </trkpt>
      <trkpt lat="47.49052" lon="3.75062">
        <ele>178</ele>
        <time>2014-04-17T13:13:48Z</time>
      </trkpt>
      <trkpt lat="47.49048" lon="3.75062">
        <ele>178</ele>
        <time>2014-04-17T13:13:53Z</time>
      </trkpt>
      <trkpt lat="47.49043" lon="3.75059">
        <ele>178</ele>
        <time>2014-04-17T13:13:58Z</time>
      </trkpt>
      <trkpt lat="47.49038" lon="3.75055">
        <ele>177</ele>
        <time>2014-04-17T13:14:02Z</time>
      </trkpt>
      <trkpt lat="47.49033" lon="3.75055">
        <ele>177</ele>
        <time>2014-04-17T13:14:06Z</time>
      </trkpt>
      <trkpt lat="47.49028" lon="3.75057">
        <ele>177</ele>
        <time>2014-04-17T13:14:10Z</time>
      </trkpt>
      <trkpt lat="47.49017" lon="3.75056">
        <ele>177</ele>
        <time>2014-04-17T13:14:18Z</time>
      </trkpt>
      <trkpt lat="47.49012" lon="3.75055">
        <ele>177</ele>
        <time>2014-04-17T13:14:21Z</time>
      </trkpt>
      <trkpt lat="47.49007" lon="3.75052">
        <ele>177</ele>
        <time>2014-04-17T13:14:25Z</time>
      </trkpt>
      <trkpt lat="47.49002" lon="3.75052">
        <ele>177</ele>
        <time>2014-04-17T13:14:29Z</time>
      </trkpt>
      <trkpt lat="47.48998" lon="3.75049">
        <ele>176</ele>
        <time>2014-04-17T13:14:33Z</time>
      </trkpt>
      <trkpt lat="47.48993" lon="3.75048">
        <ele>176</ele>
        <time>2014-04-17T13:14:38Z</time>
      </trkpt>
      <trkpt lat="47.48988" lon="3.75049">
        <ele>176</ele>
        <time>2014-04-17T13:14:44Z</time>
      </trkpt>
      <trkpt lat="47.48982" lon="3.75049">
        <ele>176</ele>
        <time>2014-04-17T13:14:49Z</time>
      </trkpt>
      <trkpt lat="47.48977" lon="3.75046">
        <ele>175</ele>
        <time>2014-04-17T13:14:54Z</time>
      </trkpt>
      <trkpt lat="47.48973" lon="3.75044">
        <ele>175</ele>
        <time>2014-04-17T13:14:57Z</time>
      </trkpt>
      <trkpt lat="47.48967" lon="3.75043">
        <ele>175</ele>
        <time>2014-04-17T13:15:01Z</time>
      </trkpt>
      <trkpt lat="47.48963" lon="3.75044">
        <ele>175</ele>
        <time>2014-04-17T13:15:07Z</time>
      </trkpt>
      <trkpt lat="47.48957" lon="3.75042">
        <ele>175</ele>
        <time>2014-04-17T13:15:12Z</time>
      </trkpt>
      <trkpt lat="47.48952" lon="3.75042">
        <ele>175</ele>
        <time>2014-04-17T13:15:16Z</time>
      </trkpt>
      <trkpt lat="47.48927" lon="3.75031">
        <ele>173</ele>
        <time>2014-04-17T13:15:38Z</time>
      </trkpt>
      <trkpt lat="47.48922" lon="3.75028">
        <ele>173</ele>
        <time>2014-04-17T13:15:42Z</time>
      </trkpt>
      <trkpt lat="47.48913" lon="3.75024">
        <ele>173</ele>
        <time>2014-04-17T13:15:51Z</time>
      </trkpt>
      <trkpt lat="47.48908" lon="3.75021">
        <ele>172</ele>
        <time>2014-04-17T13:15:56Z</time>
      </trkpt>
      <trkpt lat="47.48903" lon="3.7502">
        <ele>173</ele>
        <time>2014-04-17T13:16:01Z</time>
      </trkpt>
      <trkpt lat="47.48898" lon="3.75018">
        <ele>173</ele>
        <time>2014-04-17T13:16:06Z</time>
      </trkpt>
      <trkpt lat="47.48894" lon="3.75015">
        <ele>173</ele>
        <time>2014-04-17T13:16:10Z</time>
      </trkpt>
      <trkpt lat="47.4889" lon="3.75013">
        <ele>173</ele>
        <time>2014-04-17T13:16:14Z</time>
      </trkpt>
      <trkpt lat="47.4888" lon="3.75011">
        <ele>173</ele>
        <time>2014-04-17T13:16:23Z</time>
      </trkpt>
      <trkpt lat="47.4887" lon="3.75007">
        <ele>173</ele>
        <time>2014-04-17T13:16:32Z</time>
      </trkpt>
      <trkpt lat="47.48855" lon="3.75003">
        <ele>172</ele>
        <time>2014-04-17T13:16:44Z</time>
      </trkpt>
      <trkpt lat="47.48846" lon="3.74999">
        <ele>168</ele>
        <time>2014-04-17T13:16:51Z</time>
      </trkpt>
      <trkpt lat="47.48841" lon="3.74996">
        <ele>168</ele>
        <time>2014-04-17T13:16:55Z</time>
      </trkpt>
      <trkpt lat="47.48836" lon="3.74995">
        <ele>168</ele>
        <time>2014-04-17T13:17:00Z</time>
      </trkpt>
      <trkpt lat="47.48831" lon="3.74992">
        <ele>167</ele>
        <time>2014-04-17T13:17:06Z</time>
      </trkpt>
      <trkpt lat="47.48827" lon="3.74991">
        <ele>167</ele>
        <time>2014-04-17T13:17:14Z</time>
      </trkpt>
      <trkpt lat="47.48826" lon="3.74986">
        <ele>166</ele>
        <time>2014-04-17T13:17:31Z</time>
      </trkpt>
      <trkpt lat="47.48806" lon="3.74981">
        <ele>165</ele>
        <time>2014-04-17T13:17:53Z</time>
      </trkpt>
      <trkpt lat="47.48801" lon="3.74982">
        <ele>165</ele>
        <time>2014-04-17T13:18:00Z</time>
      </trkpt>
      <trkpt lat="47.4879" lon="3.7498">
        <ele>164</ele>
        <time>2014-04-17T13:18:09Z</time>
      </trkpt>
      <trkpt lat="47.48785" lon="3.74981">
        <ele>164</ele>
        <time>2014-04-17T13:18:14Z</time>
      </trkpt>
      <trkpt lat="47.4878" lon="3.7498">
        <ele>164</ele>
        <time>2014-04-17T13:18:18Z</time>
      </trkpt>
      <trkpt lat="47.48776" lon="3.74977">
        <ele>164</ele>
        <time>2014-04-17T13:18:22Z</time>
      </trkpt>
      <trkpt lat="47.4877" lon="3.74976">
        <ele>164</ele>
        <time>2014-04-17T13:18:27Z</time>
      </trkpt>
      <trkpt lat="47.48759" lon="3.74973">
        <ele>164</ele>
        <time>2014-04-17T13:18:35Z</time>
      </trkpt>
      <trkpt lat="47.48754" lon="3.74969">
        <ele>163</ele>
        <time>2014-04-17T13:18:39Z</time>
      </trkpt>
      <trkpt lat="47.48748" lon="3.7497">
        <ele>160</ele>
        <time>2014-04-17T13:18:43Z</time>
      </trkpt>
      <trkpt lat="47.48744" lon="3.74973">
        <ele>160</ele>
        <time>2014-04-17T13:18:46Z</time>
      </trkpt>
      <trkpt lat="47.48739" lon="3.74972">
        <ele>160</ele>
        <time>2014-04-17T13:18:53Z</time>
      </trkpt>
      <trkpt lat="47.48733" lon="3.74972">
        <ele>159</ele>
        <time>2014-04-17T13:18:57Z</time>
      </trkpt>
      <trkpt lat="47.48729" lon="3.74972">
        <ele>159</ele>
        <time>2014-04-17T13:19:00Z</time>
      </trkpt>
      <trkpt lat="47.48723" lon="3.74971">
        <ele>159</ele>
        <time>2014-04-17T13:19:05Z</time>
      </trkpt>
      <trkpt lat="47.48719" lon="3.7497">
        <ele>158</ele>
        <time>2014-04-17T13:19:10Z</time>
      </trkpt>
      <trkpt lat="47.48715" lon="3.74967">
        <ele>158</ele>
        <time>2014-04-17T13:19:44Z</time>
      </trkpt>
      <trkpt lat="47.48715" lon="3.7496">
        <ele>158</ele>
        <time>2014-04-17T13:19:47Z</time>
      </trkpt>
      <trkpt lat="47.48714" lon="3.74953">
        <ele>157</ele>
        <time>2014-04-17T13:19:51Z</time>
      </trkpt>
      <trkpt lat="47.48721" lon="3.74941">
        <ele>157</ele>
        <time>2014-04-17T13:19:59Z</time>
      </trkpt>
      <trkpt lat="47.4872" lon="3.74933">
        <ele>157</ele>
        <time>2014-04-17T13:20:19Z</time>
      </trkpt>
      <trkpt lat="47.48727" lon="3.74921">
        <ele>157</ele>
        <time>2014-04-17T13:20:27Z</time>
      </trkpt>
      <trkpt lat="47.48727" lon="3.74914">
        <ele>155</ele>
        <time>2014-04-17T13:20:30Z</time>
      </trkpt>
      <trkpt lat="47.48728" lon="3.74907">
        <ele>155</ele>
        <time>2014-04-17T13:20:34Z</time>
      </trkpt>
      <trkpt lat="47.48729" lon="3.749">
        <ele>155</ele>
        <time>2014-04-17T13:20:39Z</time>
      </trkpt>
      <trkpt lat="47.48734" lon="3.74887">
        <ele>155</ele>
        <time>2014-04-17T13:20:51Z</time>
      </trkpt>
      <trkpt lat="47.48733" lon="3.7488">
        <ele>155</ele>
        <time>2014-04-17T13:20:58Z</time>
      </trkpt>
      <trkpt lat="47.48727" lon="3.74877">
        <ele>155</ele>
        <time>2014-04-17T13:21:15Z</time>
      </trkpt>
      <trkpt lat="47.48722" lon="3.74875">
        <ele>155</ele>
        <time>2014-04-17T13:21:18Z</time>
      </trkpt>
      <trkpt lat="47.48717" lon="3.74875">
        <ele>155</ele>
        <time>2014-04-17T13:21:21Z</time>
      </trkpt>
      <trkpt lat="47.48712" lon="3.74877">
        <ele>155</ele>
        <time>2014-04-17T13:21:24Z</time>
      </trkpt>
      <trkpt lat="47.48699" lon="3.74887">
        <ele>154</ele>
        <time>2014-04-17T13:21:33Z</time>
      </trkpt>
      <trkpt lat="47.48691" lon="3.74896">
        <ele>154</ele>
        <time>2014-04-17T13:21:40Z</time>
      </trkpt>
      <trkpt lat="47.48686" lon="3.74899">
        <ele>154</ele>
        <time>2014-04-17T13:21:44Z</time>
      </trkpt>
      <trkpt lat="47.4868" lon="3.74904">
        <ele>153</ele>
        <time>2014-04-17T13:21:50Z</time>
      </trkpt>
      <trkpt lat="47.4867" lon="3.74907">
        <ele>153</ele>
        <time>2014-04-17T13:22:00Z</time>
      </trkpt>
      <trkpt lat="47.48644" lon="3.74918">
        <ele>154</ele>
        <time>2014-04-17T13:22:21Z</time>
      </trkpt>
      <trkpt lat="47.4864" lon="3.74922">
        <ele>154</ele>
        <time>2014-04-17T13:22:26Z</time>
      </trkpt>
      <trkpt lat="47.48626" lon="3.74932">
        <ele>155</ele>
        <time>2014-04-17T13:22:37Z</time>
      </trkpt>
      <trkpt lat="47.48621" lon="3.74931">
        <ele>155</ele>
        <time>2014-04-17T13:22:42Z</time>
      </trkpt>
      <trkpt lat="47.48617" lon="3.74927">
        <ele>156</ele>
        <time>2014-04-17T13:22:46Z</time>
      </trkpt>
      <trkpt lat="47.48612" lon="3.74923">
        <ele>156</ele>
        <time>2014-04-17T13:22:50Z</time>
      </trkpt>
      <trkpt lat="47.48607" lon="3.74925">
        <ele>156</ele>
        <time>2014-04-17T13:22:55Z</time>
      </trkpt>
      <trkpt lat="47.48585" lon="3.74941">
        <ele>156</ele>
        <time>2014-04-17T13:23:20Z</time>
      </trkpt>
      <trkpt lat="47.48583" lon="3.74948">
        <ele>158</ele>
        <time>2014-04-17T13:23:25Z</time>
      </trkpt>
      <trkpt lat="47.48574" lon="3.74967">
        <ele>157</ele>
        <time>2014-04-17T13:23:37Z</time>
      </trkpt>
      <trkpt lat="47.48564" lon="3.74982">
        <ele>156</ele>
        <time>2014-04-17T13:23:49Z</time>
      </trkpt>
      <trkpt lat="47.48556" lon="3.74992">
        <ele>156</ele>
        <time>2014-04-17T13:23:57Z</time>
      </trkpt>
      <trkpt lat="47.48529" lon="3.7501">
        <ele>155</ele>
        <time>2014-04-17T13:24:21Z</time>
      </trkpt>
      <trkpt lat="47.48515" lon="3.75015">
        <ele>155</ele>
        <time>2014-04-17T13:24:33Z</time>
      </trkpt>
      <trkpt lat="47.48505" lon="3.75017">
        <ele>156</ele>
        <time>2014-04-17T13:24:41Z</time>
      </trkpt>
      <trkpt lat="47.48496" lon="3.75022">
        <ele>157</ele>
        <time>2014-04-17T13:24:49Z</time>
      </trkpt>
      <trkpt lat="47.48486" lon="3.75025">
        <ele>157</ele>
        <time>2014-04-17T13:24:58Z</time>
      </trkpt>
      <trkpt lat="47.48481" lon="3.75024">
        <ele>157</ele>
        <time>2014-04-17T13:25:03Z</time>
      </trkpt>
      <trkpt lat="47.48476" lon="3.75021">
        <ele>157</ele>
        <time>2014-04-17T13:25:07Z</time>
      </trkpt>
      <trkpt lat="47.48472" lon="3.7502">
        <ele>157</ele>
        <time>2014-04-17T13:25:11Z</time>
      </trkpt>
      <trkpt lat="47.48452" lon="3.75028">
        <ele>157</ele>
        <time>2014-04-17T13:25:29Z</time>
      </trkpt>
      <trkpt lat="47.48448" lon="3.75034">
        <ele>157</ele>
        <time>2014-04-17T13:25:46Z</time>
      </trkpt>
      <trkpt lat="47.48442" lon="3.75034">
        <ele>157</ele>
        <time>2014-04-17T13:25:50Z</time>
      </trkpt>
      <trkpt lat="47.48437" lon="3.75037">
        <ele>157</ele>
        <time>2014-04-17T13:25:54Z</time>
      </trkpt>
      <trkpt lat="47.48432" lon="3.75041">
        <ele>157</ele>
        <time>2014-04-17T13:25:58Z</time>
      </trkpt>
      <trkpt lat="47.48404" lon="3.75059">
        <ele>159</ele>
        <time>2014-04-17T13:26:24Z</time>
      </trkpt>
      <trkpt lat="47.48397" lon="3.75069">
        <ele>159</ele>
        <time>2014-04-17T13:26:32Z</time>
      </trkpt>
      <trkpt lat="47.48383" lon="3.75115">
        <ele>157</ele>
        <time>2014-04-17T13:27:01Z</time>
      </trkpt>
      <trkpt lat="47.48382" lon="3.75122">
        <ele>157</ele>
        <time>2014-04-17T13:27:06Z</time>
      </trkpt>
      <trkpt lat="47.4838" lon="3.75129">
        <ele>157</ele>
        <time>2014-04-17T13:27:11Z</time>
      </trkpt>
      <trkpt lat="47.48379" lon="3.75137">
        <ele>157</ele>
        <time>2014-04-17T13:27:15Z</time>
      </trkpt>
      <trkpt lat="47.48376" lon="3.7515">
        <ele>157</ele>
        <time>2014-04-17T13:27:24Z</time>
      </trkpt>
      <trkpt lat="47.48361" lon="3.75188">
        <ele>154</ele>
        <time>2014-04-17T13:27:45Z</time>
      </trkpt>
      <trkpt lat="47.48359" lon="3.75195">
        <ele>154</ele>
        <time>2014-04-17T13:27:49Z</time>
      </trkpt>
      <trkpt lat="47.48353" lon="3.75206">
        <ele>153</ele>
        <time>2014-04-17T13:27:59Z</time>
      </trkpt>
      <trkpt lat="47.48351" lon="3.7522">
        <ele>153</ele>
        <time>2014-04-17T13:28:07Z</time>
      </trkpt>
      <trkpt lat="47.48349" lon="3.75227">
        <ele>153</ele>
        <time>2014-04-17T13:28:12Z</time>
      </trkpt>
      <trkpt lat="47.48344" lon="3.75229">
        <ele>153</ele>
        <time>2014-04-17T13:28:18Z</time>
      </trkpt>
      <trkpt lat="47.4834" lon="3.75234">
        <ele>153</ele>
        <time>2014-04-17T13:28:24Z</time>
      </trkpt>
      <trkpt lat="47.48335" lon="3.75237">
        <ele>153</ele>
        <time>2014-04-17T13:28:28Z</time>
      </trkpt>
      <trkpt lat="47.48334" lon="3.75246">
        <ele>153</ele>
        <time>2014-04-17T13:28:32Z</time>
      </trkpt>
      <trkpt lat="47.48332" lon="3.75251">
        <ele>153</ele>
        <time>2014-04-17T13:28:35Z</time>
      </trkpt>
      <trkpt lat="47.48328" lon="3.75258">
        <ele>153</ele>
        <time>2014-04-17T13:28:39Z</time>
      </trkpt>
      <trkpt lat="47.4832" lon="3.75266">
        <ele>153</ele>
        <time>2014-04-17T13:28:46Z</time>
      </trkpt>
      <trkpt lat="47.4831" lon="3.75262">
        <ele>153</ele>
        <time>2014-04-17T13:28:56Z</time>
      </trkpt>
      <trkpt lat="47.48304" lon="3.75257">
        <ele>153</ele>
        <time>2014-04-17T13:29:02Z</time>
      </trkpt>
      <trkpt lat="47.483" lon="3.75252">
        <ele>153</ele>
        <time>2014-04-17T13:29:06Z</time>
      </trkpt>
      <trkpt lat="47.48286" lon="3.7524">
        <ele>155</ele>
        <time>2014-04-17T13:29:19Z</time>
      </trkpt>
      <trkpt lat="47.48281" lon="3.75236">
        <ele>155</ele>
        <time>2014-04-17T13:29:23Z</time>
      </trkpt>
      <trkpt lat="47.48274" lon="3.75248">
        <ele>155</ele>
        <time>2014-04-17T13:29:37Z</time>
      </trkpt>
      <trkpt lat="47.4827" lon="3.75262">
        <ele>154</ele>
        <time>2014-04-17T13:29:45Z</time>
      </trkpt>
      <trkpt lat="47.48258" lon="3.75279">
        <ele>154</ele>
        <time>2014-04-17T13:30:02Z</time>
      </trkpt>
      <trkpt lat="47.48261" lon="3.75285">
        <ele>154</ele>
        <time>2014-04-17T13:30:08Z</time>
      </trkpt>
      <trkpt lat="47.48266" lon="3.75288">
        <ele>154</ele>
        <time>2014-04-17T13:30:12Z</time>
      </trkpt>
      <trkpt lat="47.48272" lon="3.7529">
        <ele>154</ele>
        <time>2014-04-17T13:30:16Z</time>
      </trkpt>
      <trkpt lat="47.4828" lon="3.75297">
        <ele>153</ele>
        <time>2014-04-17T13:30:23Z</time>
      </trkpt>
      <trkpt lat="47.48283" lon="3.75304">
        <ele>153</ele>
        <time>2014-04-17T13:30:27Z</time>
      </trkpt>
      <trkpt lat="47.48283" lon="3.7532">
        <ele>153</ele>
        <time>2014-04-17T13:30:37Z</time>
      </trkpt>
      <trkpt lat="47.48276" lon="3.7535">
        <ele>153</ele>
        <time>2014-04-17T13:30:56Z</time>
      </trkpt>
      <trkpt lat="47.48273" lon="3.75354">
        <ele>153</ele>
        <time>2014-04-17T13:31:01Z</time>
      </trkpt>
      <trkpt lat="47.48265" lon="3.75374">
        <ele>153</ele>
        <time>2014-04-17T13:31:12Z</time>
      </trkpt>
      <trkpt lat="47.48267" lon="3.75379">
        <ele>153</ele>
        <time>2014-04-17T13:31:46Z</time>
      </trkpt>
      <trkpt lat="47.48265" lon="3.75386">
        <ele>153</ele>
        <time>2014-04-17T13:31:48Z</time>
      </trkpt>
      <trkpt lat="47.48264" lon="3.75394">
        <ele>153</ele>
        <time>2014-04-17T13:31:52Z</time>
      </trkpt>
      <trkpt lat="47.48265" lon="3.75398">
        <ele>153</ele>
        <time>2014-04-17T13:31:58Z</time>
      </trkpt>
      <trkpt lat="47.48264" lon="3.75404">
        <ele>153</ele>
        <time>2014-04-17T13:32:13Z</time>
      </trkpt>
      <trkpt lat="47.4827" lon="3.75406">
        <ele>153</ele>
        <time>2014-04-17T13:32:17Z</time>
      </trkpt>
      <trkpt lat="47.48275" lon="3.75411">
        <ele>153</ele>
        <time>2014-04-17T13:32:21Z</time>
      </trkpt>
      <trkpt lat="47.4828" lon="3.75413">
        <ele>152</ele>
        <time>2014-04-17T13:32:25Z</time>
      </trkpt>
      <trkpt lat="47.48283" lon="3.75419">
        <ele>150</ele>
        <time>2014-04-17T13:32:30Z</time>
      </trkpt>
      <trkpt lat="47.48285" lon="3.75434">
        <ele>149</ele>
        <time>2014-04-17T13:32:39Z</time>
      </trkpt>
      <trkpt lat="47.48283" lon="3.75456">
        <ele>148</ele>
        <time>2014-04-17T13:32:53Z</time>
      </trkpt>
      <trkpt lat="47.48278" lon="3.75461">
        <ele>148</ele>
        <time>2014-04-17T13:32:57Z</time>
      </trkpt>
      <trkpt lat="47.48276" lon="3.75467">
        <ele>148</ele>
        <time>2014-04-17T13:33:00Z</time>
      </trkpt>
      <trkpt lat="47.48271" lon="3.7547">
        <ele>148</ele>
        <time>2014-04-17T13:33:04Z</time>
      </trkpt>
      <trkpt lat="47.48266" lon="3.7547">
        <ele>148</ele>
        <time>2014-04-17T13:33:08Z</time>
      </trkpt>
      <trkpt lat="47.48261" lon="3.75466">
        <ele>149</ele>
        <time>2014-04-17T13:33:12Z</time>
      </trkpt>
      <trkpt lat="47.48254" lon="3.75438">
        <ele>151</ele>
        <time>2014-04-17T13:33:28Z</time>
      </trkpt>
      <trkpt lat="47.48251" lon="3.75432">
        <ele>152</ele>
        <time>2014-04-17T13:33:33Z</time>
      </trkpt>
      <trkpt lat="47.48254" lon="3.75418">
        <ele>154</ele>
        <time>2014-04-17T13:33:43Z</time>
      </trkpt>
      <trkpt lat="47.48252" lon="3.75417">
        <ele>154</ele>
        <time>2014-04-17T13:34:27Z</time>
      </trkpt>
      <trkpt lat="47.48248" lon="3.75414">
        <ele>155</ele>
        <time>2014-04-17T13:35:37Z</time>
      </trkpt>
      <trkpt lat="47.48242" lon="3.7541">
        <ele>154</ele>
        <time>2014-04-17T13:35:40Z</time>
      </trkpt>
      <trkpt lat="47.48238" lon="3.75405">
        <ele>154</ele>
        <time>2014-04-17T13:35:43Z</time>
      </trkpt>
      <trkpt lat="47.48248" lon="3.75407">
        <ele>155</ele>
        <time>2014-04-17T13:35:53Z</time>
      </trkpt>
      <trkpt lat="47.4825" lon="3.75408">
        <ele>155</ele>
        <time>2014-04-17T13:37:21Z</time>
      </trkpt>
      <trkpt lat="47.4825" lon="3.75411">
        <ele>154</ele>
        <time>2014-04-17T13:44:00Z</time>
      </trkpt>
      <trkpt lat="47.48248" lon="3.75406">
        <ele>154</ele>
        <time>2014-04-17T13:48:02Z</time>
      </trkpt>
      <trkpt lat="47.48249" lon="3.7541">
        <ele>155</ele>
        <time>2014-04-17T13:48:40Z</time>
      </trkpt>
      <trkpt lat="47.48252" lon="3.75416">
        <ele>155</ele>
        <time>2014-04-17T13:48:45Z</time>
      </trkpt>
      <trkpt lat="47.4826" lon="3.7541">
        <ele>154</ele>
        <time>2014-04-17T13:59:11Z</time>
      </trkpt>
      <trkpt lat="47.48261" lon="3.754">
        <ele>153</ele>
        <time>2014-04-17T13:59:22Z</time>
      </trkpt>
      <trkpt lat="47.48256" lon="3.75401">
        <ele>153</ele>
        <time>2014-04-17T13:59:25Z</time>
      </trkpt>
      <trkpt lat="47.48251" lon="3.754">
        <ele>154</ele>
        <time>2014-04-17T14:00:14Z</time>
      </trkpt>
      <trkpt lat="47.48248" lon="3.75406">
        <ele>154</ele>
        <time>2014-04-17T14:00:19Z</time>
      </trkpt>
      <trkpt lat="47.48222" lon="3.75397">
        <ele>154</ele>
        <time>2014-04-17T14:01:03Z</time>
      </trkpt>
      <trkpt lat="47.48217" lon="3.75394">
        <ele>154</ele>
        <time>2014-04-17T14:01:06Z</time>
      </trkpt>
      <trkpt lat="47.48207" lon="3.75391">
        <ele>153</ele>
        <time>2014-04-17T14:01:13Z</time>
      </trkpt>
      <trkpt lat="47.48202" lon="3.75389">
        <ele>153</ele>
        <time>2014-04-17T14:01:17Z</time>
      </trkpt>
      <trkpt lat="47.48204" lon="3.7538">
        <ele>153</ele>
        <time>2014-04-17T14:01:24Z</time>
      </trkpt>
      <trkpt lat="47.4821" lon="3.75367">
        <ele>154</ele>
        <time>2014-04-17T14:01:31Z</time>
      </trkpt>
      <trkpt lat="47.48213" lon="3.7536">
        <ele>154</ele>
        <time>2014-04-17T14:01:35Z</time>
      </trkpt>
      <trkpt lat="47.48216" lon="3.75354">
        <ele>154</ele>
        <time>2014-04-17T14:01:40Z</time>
      </trkpt>
      <trkpt lat="47.48219" lon="3.75349">
        <ele>154</ele>
        <time>2014-04-17T14:01:45Z</time>
      </trkpt>
      <trkpt lat="47.48219" lon="3.7535">
        <ele>154</ele>
        <time>2014-04-17T14:02:06Z</time>
      </trkpt>
      <trkpt lat="47.48214" lon="3.75354">
        <ele>154</ele>
        <time>2014-04-17T14:02:12Z</time>
      </trkpt>
      <trkpt lat="47.48211" lon="3.75359">
        <ele>154</ele>
        <time>2014-04-17T14:02:16Z</time>
      </trkpt>
      <trkpt lat="47.48209" lon="3.75366">
        <ele>154</ele>
        <time>2014-04-17T14:02:21Z</time>
      </trkpt>
      <trkpt lat="47.48203" lon="3.75378">
        <ele>153</ele>
        <time>2014-04-17T14:02:29Z</time>
      </trkpt>
      <trkpt lat="47.482" lon="3.75383">
        <ele>153</ele>
        <time>2014-04-17T14:02:34Z</time>
      </trkpt>
      <trkpt lat="47.48195" lon="3.75386">
        <ele>153</ele>
        <time>2014-04-17T14:02:38Z</time>
      </trkpt>
      <trkpt lat="47.4819" lon="3.75387">
        <ele>153</ele>
        <time>2014-04-17T14:02:45Z</time>
      </trkpt>
      <trkpt lat="47.48186" lon="3.75387">
        <ele>153</ele>
        <time>2014-04-17T14:02:50Z</time>
      </trkpt>
      <trkpt lat="47.48175" lon="3.75385">
        <ele>153</ele>
        <time>2014-04-17T14:02:58Z</time>
      </trkpt>
      <trkpt lat="47.4816" lon="3.75387">
        <ele>151</ele>
        <time>2014-04-17T14:03:10Z</time>
      </trkpt>
      <trkpt lat="47.48155" lon="3.75387">
        <ele>151</ele>
        <time>2014-04-17T14:03:15Z</time>
      </trkpt>
      <trkpt lat="47.48149" lon="3.75388">
        <ele>151</ele>
        <time>2014-04-17T14:03:19Z</time>
      </trkpt>
      <trkpt lat="47.48144" lon="3.75387">
        <ele>150</ele>
        <time>2014-04-17T14:03:23Z</time>
      </trkpt>
      <trkpt lat="47.48138" lon="3.75386">
        <ele>150</ele>
        <time>2014-04-17T14:03:27Z</time>
      </trkpt>
      <trkpt lat="47.48134" lon="3.75381">
        <ele>150</ele>
        <time>2014-04-17T14:03:32Z</time>
      </trkpt>
      <trkpt lat="47.48128" lon="3.7536">
        <ele>151</ele>
        <time>2014-04-17T14:03:46Z</time>
      </trkpt>
      <trkpt lat="47.48119" lon="3.75341">
        <ele>151</ele>
        <time>2014-04-17T14:04:02Z</time>
      </trkpt>
      <trkpt lat="47.48119" lon="3.75334">
        <ele>151</ele>
        <time>2014-04-17T14:04:06Z</time>
      </trkpt>
      <trkpt lat="47.48116" lon="3.75328">
        <ele>153</ele>
        <time>2014-04-17T14:04:10Z</time>
      </trkpt>
      <trkpt lat="47.48112" lon="3.75323">
        <ele>153</ele>
        <time>2014-04-17T14:04:13Z</time>
      </trkpt>
      <trkpt lat="47.48102" lon="3.75296">
        <ele>153</ele>
        <time>2014-04-17T14:04:30Z</time>
      </trkpt>
      <trkpt lat="47.481" lon="3.75289">
        <ele>153</ele>
        <time>2014-04-17T14:04:35Z</time>
      </trkpt>
      <trkpt lat="47.48099" lon="3.75281">
        <ele>153</ele>
        <time>2014-04-17T14:04:40Z</time>
      </trkpt>
      <trkpt lat="47.481" lon="3.75274">
        <ele>154</ele>
        <time>2014-04-17T14:04:44Z</time>
      </trkpt>
      <trkpt lat="47.48097" lon="3.75253">
        <ele>154</ele>
        <time>2014-04-17T14:04:56Z</time>
      </trkpt>
      <trkpt lat="47.48097" lon="3.75237">
        <ele>155</ele>
        <time>2014-04-17T14:05:06Z</time>
      </trkpt>
      <trkpt lat="47.48094" lon="3.75222">
        <ele>155</ele>
        <time>2014-04-17T14:05:15Z</time>
      </trkpt>
      <trkpt lat="47.4809" lon="3.75217">
        <ele>155</ele>
        <time>2014-04-17T14:05:19Z</time>
      </trkpt>
      <trkpt lat="47.48088" lon="3.7521">
        <ele>155</ele>
        <time>2014-04-17T14:05:25Z</time>
      </trkpt>
      <trkpt lat="47.48083" lon="3.75199">
        <ele>156</ele>
        <time>2014-04-17T14:05:30Z</time>
      </trkpt>
      <trkpt lat="47.48076" lon="3.75187">
        <ele>156</ele>
        <time>2014-04-17T14:05:37Z</time>
      </trkpt>
      <trkpt lat="47.48073" lon="3.75183">
        <ele>156</ele>
        <time>2014-04-17T14:05:41Z</time>
      </trkpt>
      <trkpt lat="47.48058" lon="3.75172">
        <ele>156</ele>
        <time>2014-04-17T14:05:55Z</time>
      </trkpt>
      <trkpt lat="47.48053" lon="3.7517">
        <ele>156</ele>
        <time>2014-04-17T14:06:00Z</time>
      </trkpt>
      <trkpt lat="47.48048" lon="3.75166">
        <ele>158</ele>
        <time>2014-04-17T14:06:04Z</time>
      </trkpt>
      <trkpt lat="47.4804" lon="3.75158">
        <ele>158</ele>
        <time>2014-04-17T14:06:10Z</time>
      </trkpt>
      <trkpt lat="47.48026" lon="3.75152">
        <ele>158</ele>
        <time>2014-04-17T14:06:22Z</time>
      </trkpt>
      <trkpt lat="47.48008" lon="3.75135">
        <ele>158</ele>
        <time>2014-04-17T14:06:38Z</time>
      </trkpt>
      <trkpt lat="47.47999" lon="3.75124">
        <ele>157</ele>
        <time>2014-04-17T14:06:46Z</time>
      </trkpt>
      <trkpt lat="47.47987" lon="3.75111">
        <ele>158</ele>
        <time>2014-04-17T14:07:01Z</time>
      </trkpt>
      <trkpt lat="47.47971" lon="3.75089">
        <ele>158</ele>
        <time>2014-04-17T14:07:15Z</time>
      </trkpt>
      <trkpt lat="47.47967" lon="3.75083">
        <ele>160</ele>
        <time>2014-04-17T14:07:20Z</time>
      </trkpt>
      <trkpt lat="47.47962" lon="3.75081">
        <ele>160</ele>
        <time>2014-04-17T14:07:27Z</time>
      </trkpt>
      <trkpt lat="47.47957" lon="3.75077">
        <ele>159</ele>
        <time>2014-04-17T14:07:31Z</time>
      </trkpt>
      <trkpt lat="47.47953" lon="3.75073">
        <ele>159</ele>
        <time>2014-04-17T14:07:35Z</time>
      </trkpt>
      <trkpt lat="47.47945" lon="3.75062">
        <ele>159</ele>
        <time>2014-04-17T14:07:43Z</time>
      </trkpt>
      <trkpt lat="47.47941" lon="3.75058">
        <ele>159</ele>
        <time>2014-04-17T14:07:46Z</time>
      </trkpt>
      <trkpt lat="47.47937" lon="3.75057">
        <ele>159</ele>
        <time>2014-04-17T14:07:50Z</time>
      </trkpt>
      <trkpt lat="47.47932" lon="3.75056">
        <ele>159</ele>
        <time>2014-04-17T14:07:55Z</time>
      </trkpt>
      <trkpt lat="47.47927" lon="3.75058">
        <ele>159</ele>
        <time>2014-04-17T14:07:59Z</time>
      </trkpt>
      <trkpt lat="47.47922" lon="3.75058">
        <ele>159</ele>
        <time>2014-04-17T14:08:04Z</time>
      </trkpt>
      <trkpt lat="47.47918" lon="3.75061">
        <ele>158</ele>
        <time>2014-04-17T14:08:10Z</time>
      </trkpt>
      <trkpt lat="47.47913" lon="3.75063">
        <ele>157</ele>
        <time>2014-04-17T14:08:16Z</time>
      </trkpt>
      <trkpt lat="47.47908" lon="3.75064">
        <ele>157</ele>
        <time>2014-04-17T14:08:20Z</time>
      </trkpt>
      <trkpt lat="47.47903" lon="3.75063">
        <ele>157</ele>
        <time>2014-04-17T14:08:24Z</time>
      </trkpt>
      <trkpt lat="47.47898" lon="3.75062">
        <ele>157</ele>
        <time>2014-04-17T14:08:28Z</time>
      </trkpt>
      <trkpt lat="47.47892" lon="3.7506">
        <ele>157</ele>
        <time>2014-04-17T14:08:32Z</time>
      </trkpt>
      <trkpt lat="47.47882" lon="3.75054">
        <ele>157</ele>
        <time>2014-04-17T14:08:40Z</time>
      </trkpt>
      <trkpt lat="47.47862" lon="3.75048">
        <ele>156</ele>
        <time>2014-04-17T14:09:00Z</time>
      </trkpt>
      <trkpt lat="47.47852" lon="3.75044">
        <ele>156</ele>
        <time>2014-04-17T14:09:08Z</time>
      </trkpt>
      <trkpt lat="47.47847" lon="3.75041">
        <ele>156</ele>
        <time>2014-04-17T14:09:13Z</time>
      </trkpt>
      <trkpt lat="47.47828" lon="3.7504">
        <ele>156</ele>
        <time>2014-04-17T14:09:26Z</time>
      </trkpt>
      <trkpt lat="47.47814" lon="3.75034">
        <ele>156</ele>
        <time>2014-04-17T14:09:38Z</time>
      </trkpt>
      <trkpt lat="47.47811" lon="3.75028">
        <ele>156</ele>
        <time>2014-04-17T14:09:43Z</time>
      </trkpt>
      <trkpt lat="47.47803" lon="3.7504">
        <ele>156</ele>
        <time>2014-04-17T14:10:05Z</time>
      </trkpt>
      <trkpt lat="47.47796" lon="3.75053">
        <ele>156</ele>
        <time>2014-04-17T14:10:12Z</time>
      </trkpt>
      <trkpt lat="47.47792" lon="3.75058">
        <ele>156</ele>
        <time>2014-04-17T14:10:16Z</time>
      </trkpt>
      <trkpt lat="47.47788" lon="3.75063">
        <ele>156</ele>
        <time>2014-04-17T14:10:20Z</time>
      </trkpt>
      <trkpt lat="47.47785" lon="3.7507">
        <ele>156</ele>
        <time>2014-04-17T14:10:25Z</time>
      </trkpt>
      <trkpt lat="47.47781" lon="3.75076">
        <ele>156</ele>
        <time>2014-04-17T14:10:32Z</time>
      </trkpt>
      <trkpt lat="47.47777" lon="3.75079">
        <ele>156</ele>
        <time>2014-04-17T14:10:36Z</time>
      </trkpt>
      <trkpt lat="47.47759" lon="3.75108">
        <ele>157</ele>
        <time>2014-04-17T14:10:55Z</time>
      </trkpt>
      <trkpt lat="47.47755" lon="3.75112">
        <ele>157</ele>
        <time>2014-04-17T14:11:00Z</time>
      </trkpt>
      <trkpt lat="47.47745" lon="3.75116">
        <ele>160</ele>
        <time>2014-04-17T14:11:11Z</time>
      </trkpt>
      <trkpt lat="47.47741" lon="3.75122">
        <ele>160</ele>
        <time>2014-04-17T14:11:14Z</time>
      </trkpt>
      <trkpt lat="47.47737" lon="3.75127">
        <ele>161</ele>
        <time>2014-04-17T14:11:17Z</time>
      </trkpt>
      <trkpt lat="47.47727" lon="3.75133">
        <ele>161</ele>
        <time>2014-04-17T14:11:23Z</time>
      </trkpt>
      <trkpt lat="47.47723" lon="3.75137">
        <ele>161</ele>
        <time>2014-04-17T14:11:27Z</time>
      </trkpt>
      <trkpt lat="47.47718" lon="3.75135">
        <ele>161</ele>
        <time>2014-04-17T14:11:34Z</time>
      </trkpt>
      <trkpt lat="47.47712" lon="3.75134">
        <ele>162</ele>
        <time>2014-04-17T14:11:38Z</time>
      </trkpt>
      <trkpt lat="47.47708" lon="3.75133">
        <ele>162</ele>
        <time>2014-04-17T14:11:42Z</time>
      </trkpt>
      <trkpt lat="47.47688" lon="3.75125">
        <ele>163</ele>
        <time>2014-04-17T14:11:59Z</time>
      </trkpt>
      <trkpt lat="47.47682" lon="3.75123">
        <ele>163</ele>
        <time>2014-04-17T14:12:04Z</time>
      </trkpt>
      <trkpt lat="47.47677" lon="3.75121">
        <ele>163</ele>
        <time>2014-04-17T14:12:09Z</time>
      </trkpt>
      <trkpt lat="47.47672" lon="3.75119">
        <ele>163</ele>
        <time>2014-04-17T14:12:14Z</time>
      </trkpt>
      <trkpt lat="47.47667" lon="3.75117">
        <ele>163</ele>
        <time>2014-04-17T14:12:18Z</time>
      </trkpt>
      <trkpt lat="47.47663" lon="3.75113">
        <ele>166</ele>
        <time>2014-04-17T14:12:22Z</time>
      </trkpt>
      <trkpt lat="47.47658" lon="3.75111">
        <ele>166</ele>
        <time>2014-04-17T14:12:26Z</time>
      </trkpt>
      <trkpt lat="47.47649" lon="3.75111">
        <ele>166</ele>
        <time>2014-04-17T14:12:33Z</time>
      </trkpt>
      <trkpt lat="47.47644" lon="3.75109">
        <ele>166</ele>
        <time>2014-04-17T14:12:37Z</time>
      </trkpt>
      <trkpt lat="47.4764" lon="3.75106">
        <ele>166</ele>
        <time>2014-04-17T14:12:41Z</time>
      </trkpt>
      <trkpt lat="47.47636" lon="3.75102">
        <ele>166</ele>
        <time>2014-04-17T14:12:45Z</time>
      </trkpt>
      <trkpt lat="47.47632" lon="3.75099">
        <ele>167</ele>
        <time>2014-04-17T14:12:49Z</time>
      </trkpt>
      <trkpt lat="47.47628" lon="3.75094">
        <ele>167</ele>
        <time>2014-04-17T14:12:55Z</time>
      </trkpt>
      <trkpt lat="47.47622" lon="3.75093">
        <ele>167</ele>
        <time>2014-04-17T14:12:59Z</time>
      </trkpt>
      <trkpt lat="47.47617" lon="3.7509">
        <ele>167</ele>
        <time>2014-04-17T14:13:02Z</time>
      </trkpt>
      <trkpt lat="47.47612" lon="3.75087">
        <ele>167</ele>
        <time>2014-04-17T14:13:06Z</time>
      </trkpt>
      <trkpt lat="47.47606" lon="3.75086">
        <ele>167</ele>
        <time>2014-04-17T14:13:10Z</time>
      </trkpt>
      <trkpt lat="47.47593" lon="3.75079">
        <ele>167</ele>
        <time>2014-04-17T14:13:22Z</time>
      </trkpt>
      <trkpt lat="47.47587" lon="3.75075">
        <ele>167</ele>
        <time>2014-04-17T14:14:02Z</time>
      </trkpt>
      <trkpt lat="47.47558" lon="3.75061">
        <ele>169</ele>
        <time>2014-04-17T14:14:26Z</time>
      </trkpt>
      <trkpt lat="47.47549" lon="3.75055">
        <ele>170</ele>
        <time>2014-04-17T14:14:34Z</time>
      </trkpt>
      <trkpt lat="47.47545" lon="3.75053">
        <ele>170</ele>
        <time>2014-04-17T14:14:39Z</time>
      </trkpt>
      <trkpt lat="47.4753" lon="3.75045">
        <ele>170</ele>
        <time>2014-04-17T14:14:51Z</time>
      </trkpt>
      <trkpt lat="47.47525" lon="3.75042">
        <ele>170</ele>
        <time>2014-04-17T14:14:56Z</time>
      </trkpt>
      <trkpt lat="47.47515" lon="3.75038">
        <ele>170</ele>
        <time>2014-04-17T14:15:04Z</time>
      </trkpt>
      <trkpt lat="47.4751" lon="3.75036">
        <ele>170</ele>
        <time>2014-04-17T14:15:08Z</time>
      </trkpt>
      <trkpt lat="47.47505" lon="3.75034">
        <ele>170</ele>
        <time>2014-04-17T14:15:12Z</time>
      </trkpt>
      <trkpt lat="47.475" lon="3.75033">
        <ele>172</ele>
        <time>2014-04-17T14:15:16Z</time>
      </trkpt>
      <trkpt lat="47.47491" lon="3.75031">
        <ele>173</ele>
        <time>2014-04-17T14:15:24Z</time>
      </trkpt>
      <trkpt lat="47.47486" lon="3.75028">
        <ele>173</ele>
        <time>2014-04-17T14:15:28Z</time>
      </trkpt>
      <trkpt lat="47.47481" lon="3.75026">
        <ele>173</ele>
        <time>2014-04-17T14:15:32Z</time>
      </trkpt>
      <trkpt lat="47.47476" lon="3.75024">
        <ele>173</ele>
        <time>2014-04-17T14:15:37Z</time>
      </trkpt>
      <trkpt lat="47.47471" lon="3.75023">
        <ele>173</ele>
        <time>2014-04-17T14:15:41Z</time>
      </trkpt>
      <trkpt lat="47.47466" lon="3.75022">
        <ele>173</ele>
        <time>2014-04-17T14:15:46Z</time>
      </trkpt>
      <trkpt lat="47.47455" lon="3.75018">
        <ele>173</ele>
        <time>2014-04-17T14:15:55Z</time>
      </trkpt>
      <trkpt lat="47.4745" lon="3.75016">
        <ele>173</ele>
        <time>2014-04-17T14:15:59Z</time>
      </trkpt>
      <trkpt lat="47.4744" lon="3.75015">
        <ele>174</ele>
        <time>2014-04-17T14:16:06Z</time>
      </trkpt>
      <trkpt lat="47.47435" lon="3.75012">
        <ele>174</ele>
        <time>2014-04-17T14:16:11Z</time>
      </trkpt>
      <trkpt lat="47.4743" lon="3.75011">
        <ele>174</ele>
        <time>2014-04-17T14:16:15Z</time>
      </trkpt>
      <trkpt lat="47.47424" lon="3.75007">
        <ele>174</ele>
        <time>2014-04-17T14:16:19Z</time>
      </trkpt>
      <trkpt lat="47.4742" lon="3.75002">
        <ele>175</ele>
        <time>2014-04-17T14:16:23Z</time>
      </trkpt>
      <trkpt lat="47.47415" lon="3.75">
        <ele>175</ele>
        <time>2014-04-17T14:16:28Z</time>
      </trkpt>
      <trkpt lat="47.4741" lon="3.74996">
        <ele>175</ele>
        <time>2014-04-17T14:16:33Z</time>
      </trkpt>
      <trkpt lat="47.47404" lon="3.74994">
        <ele>176</ele>
        <time>2014-04-17T14:16:37Z</time>
      </trkpt>
      <trkpt lat="47.47399" lon="3.74995">
        <ele>176</ele>
        <time>2014-04-17T14:16:41Z</time>
      </trkpt>
      <trkpt lat="47.47394" lon="3.74994">
        <ele>176</ele>
        <time>2014-04-17T14:16:45Z</time>
      </trkpt>
      <trkpt lat="47.47379" lon="3.74987">
        <ele>177</ele>
        <time>2014-04-17T14:17:25Z</time>
      </trkpt>
      <trkpt lat="47.47369" lon="3.74985">
        <ele>177</ele>
        <time>2014-04-17T14:17:34Z</time>
      </trkpt>
      <trkpt lat="47.47363" lon="3.74984">
        <ele>177</ele>
        <time>2014-04-17T14:17:38Z</time>
      </trkpt>
      <trkpt lat="47.47358" lon="3.74985">
        <ele>177</ele>
        <time>2014-04-17T14:17:43Z</time>
      </trkpt>
      <trkpt lat="47.47352" lon="3.74987">
        <ele>177</ele>
        <time>2014-04-17T14:17:47Z</time>
      </trkpt>
      <trkpt lat="47.47348" lon="3.7499">
        <ele>178</ele>
        <time>2014-04-17T14:17:51Z</time>
      </trkpt>
      <trkpt lat="47.47343" lon="3.74988">
        <ele>178</ele>
        <time>2014-04-17T14:17:55Z</time>
      </trkpt>
      <trkpt lat="47.47334" lon="3.74982">
        <ele>178</ele>
        <time>2014-04-17T14:18:02Z</time>
      </trkpt>
      <trkpt lat="47.47329" lon="3.74983">
        <ele>180</ele>
        <time>2014-04-17T14:18:08Z</time>
      </trkpt>
      <trkpt lat="47.47318" lon="3.74983">
        <ele>180</ele>
        <time>2014-04-17T14:18:17Z</time>
      </trkpt>
      <trkpt lat="47.47313" lon="3.74984">
        <ele>180</ele>
        <time>2014-04-17T14:18:21Z</time>
      </trkpt>
      <trkpt lat="47.47309" lon="3.74986">
        <ele>180</ele>
        <time>2014-04-17T14:18:26Z</time>
      </trkpt>
      <trkpt lat="47.47303" lon="3.74988">
        <ele>180</ele>
        <time>2014-04-17T14:18:30Z</time>
      </trkpt>
      <trkpt lat="47.47293" lon="3.7499">
        <ele>181</ele>
        <time>2014-04-17T14:18:38Z</time>
      </trkpt>
      <trkpt lat="47.47287" lon="3.74991">
        <ele>181</ele>
        <time>2014-04-17T14:18:42Z</time>
      </trkpt>
      <trkpt lat="47.47283" lon="3.7499">
        <ele>181</ele>
        <time>2014-04-17T14:18:46Z</time>
      </trkpt>
      <trkpt lat="47.47263" lon="3.74994">
        <ele>182</ele>
        <time>2014-04-17T14:19:03Z</time>
      </trkpt>
      <trkpt lat="47.47244" lon="3.74996">
        <ele>184</ele>
        <time>2014-04-17T14:19:19Z</time>
      </trkpt>
      <trkpt lat="47.47239" lon="3.74997">
        <ele>184</ele>
        <time>2014-04-17T14:19:23Z</time>
      </trkpt>
      <trkpt lat="47.47234" lon="3.75">
        <ele>185</ele>
        <time>2014-04-17T14:19:28Z</time>
      </trkpt>
      <trkpt lat="47.47229" lon="3.74999">
        <ele>185</ele>
        <time>2014-04-17T14:19:33Z</time>
      </trkpt>
      <trkpt lat="47.47224" lon="3.75002">
        <ele>187</ele>
        <time>2014-04-17T14:19:38Z</time>
      </trkpt>
      <trkpt lat="47.47219" lon="3.75004">
        <ele>188</ele>
        <time>2014-04-17T14:19:43Z</time>
      </trkpt>
      <trkpt lat="47.47199" lon="3.75005">
        <ele>190</ele>
        <time>2014-04-17T14:20:00Z</time>
      </trkpt>
      <trkpt lat="47.47194" lon="3.75005">
        <ele>190</ele>
        <time>2014-04-17T14:20:04Z</time>
      </trkpt>
      <trkpt lat="47.4719" lon="3.75006">
        <ele>191</ele>
        <time>2014-04-17T14:20:08Z</time>
      </trkpt>
      <trkpt lat="47.47184" lon="3.75007">
        <ele>191</ele>
        <time>2014-04-17T14:20:13Z</time>
      </trkpt>
      <trkpt lat="47.4717" lon="3.75006">
        <ele>192</ele>
        <time>2014-04-17T14:20:40Z</time>
      </trkpt>
      <trkpt lat="47.47167" lon="3.75007">
        <ele>192</ele>
        <time>2014-04-17T14:20:51Z</time>
      </trkpt>
      <trkpt lat="47.47162" lon="3.75009">
        <ele>195</ele>
        <time>2014-04-17T14:20:56Z</time>
      </trkpt>
      <trkpt lat="47.47158" lon="3.75013">
        <ele>196</ele>
        <time>2014-04-17T14:21:01Z</time>
      </trkpt>
      <trkpt lat="47.47154" lon="3.7501">
        <ele>196</ele>
        <time>2014-04-17T14:21:05Z</time>
      </trkpt>
      <trkpt lat="47.47149" lon="3.75008">
        <ele>196</ele>
        <time>2014-04-17T14:21:09Z</time>
      </trkpt>
      <trkpt lat="47.47144" lon="3.75009">
        <ele>197</ele>
        <time>2014-04-17T14:21:14Z</time>
      </trkpt>
      <trkpt lat="47.4714" lon="3.75012">
        <ele>197</ele>
        <time>2014-04-17T14:21:19Z</time>
      </trkpt>
      <trkpt lat="47.47131" lon="3.75012">
        <ele>198</ele>
        <time>2014-04-17T14:21:38Z</time>
      </trkpt>
      <trkpt lat="47.47127" lon="3.75013">
        <ele>198</ele>
        <time>2014-04-17T14:21:44Z</time>
      </trkpt>
      <trkpt lat="47.47122" lon="3.75017">
        <ele>199</ele>
        <time>2014-04-17T14:21:49Z</time>
      </trkpt>
      <trkpt lat="47.47113" lon="3.75024">
        <ele>199</ele>
        <time>2014-04-17T14:21:56Z</time>
      </trkpt>
      <trkpt lat="47.4711" lon="3.75029">
        <ele>199</ele>
        <time>2014-04-17T14:22:00Z</time>
      </trkpt>
      <trkpt lat="47.47105" lon="3.75033">
        <ele>200</ele>
        <time>2014-04-17T14:22:07Z</time>
      </trkpt>
      <trkpt lat="47.471" lon="3.75036">
        <ele>200</ele>
        <time>2014-04-17T14:22:11Z</time>
      </trkpt>
      <trkpt lat="47.47088" lon="3.75046">
        <ele>200</ele>
        <time>2014-04-17T14:22:23Z</time>
      </trkpt>
      <trkpt lat="47.47084" lon="3.7505">
        <ele>201</ele>
        <time>2014-04-17T14:22:28Z</time>
      </trkpt>
      <trkpt lat="47.47079" lon="3.75052">
        <ele>206</ele>
        <time>2014-04-17T14:22:33Z</time>
      </trkpt>
      <trkpt lat="47.47065" lon="3.75053">
        <ele>206</ele>
        <time>2014-04-17T14:22:53Z</time>
      </trkpt>
      <trkpt lat="47.4706" lon="3.75054">
        <ele>207</ele>
        <time>2014-04-17T14:22:57Z</time>
      </trkpt>
      <trkpt lat="47.47034" lon="3.75055">
        <ele>208</ele>
        <time>2014-04-17T14:23:20Z</time>
      </trkpt>
      <trkpt lat="47.47029" lon="3.75056">
        <ele>209</ele>
        <time>2014-04-17T14:23:24Z</time>
      </trkpt>
      <trkpt lat="47.47025" lon="3.75053">
        <ele>209</ele>
        <time>2014-04-17T14:23:29Z</time>
      </trkpt>
      <trkpt lat="47.4702" lon="3.75052">
        <ele>209</ele>
        <time>2014-04-17T14:23:34Z</time>
      </trkpt>
      <trkpt lat="47.47014" lon="3.75053">
        <ele>209</ele>
        <time>2014-04-17T14:23:38Z</time>
      </trkpt>
      <trkpt lat="47.47009" lon="3.75055">
        <ele>210</ele>
        <time>2014-04-17T14:23:42Z</time>
      </trkpt>
      <trkpt lat="47.47005" lon="3.75057">
        <ele>210</ele>
        <time>2014-04-17T14:23:46Z</time>
      </trkpt>
      <trkpt lat="47.47" lon="3.75056">
        <ele>218</ele>
        <time>2014-04-17T14:23:50Z</time>
      </trkpt>
      <trkpt lat="47.46995" lon="3.75058">
        <ele>218</ele>
        <time>2014-04-17T14:23:54Z</time>
      </trkpt>
      <trkpt lat="47.46984" lon="3.75057">
        <ele>219</ele>
        <time>2014-04-17T14:24:04Z</time>
      </trkpt>
      <trkpt lat="47.46978" lon="3.75058">
        <ele>219</ele>
        <time>2014-04-17T14:24:09Z</time>
      </trkpt>
      <trkpt lat="47.46974" lon="3.75061">
        <ele>220</ele>
        <time>2014-04-17T14:24:14Z</time>
      </trkpt>
      <trkpt lat="47.4696" lon="3.75066">
        <ele>221</ele>
        <time>2014-04-17T14:24:33Z</time>
      </trkpt>
      <trkpt lat="47.46957" lon="3.75065">
        <ele>222</ele>
        <time>2014-04-17T14:24:51Z</time>
      </trkpt>
      <trkpt lat="47.46952" lon="3.75067">
        <ele>222</ele>
        <time>2014-04-17T14:24:55Z</time>
      </trkpt>
      <trkpt lat="47.46948" lon="3.75063">
        <ele>223</ele>
        <time>2014-04-17T14:25:00Z</time>
      </trkpt>
      <trkpt lat="47.46945" lon="3.7506">
        <ele>223</ele>
        <time>2014-04-17T14:25:13Z</time>
      </trkpt>
      <trkpt lat="47.46941" lon="3.75064">
        <ele>224</ele>
        <time>2014-04-17T14:25:20Z</time>
      </trkpt>
      <trkpt lat="47.46936" lon="3.75065">
        <ele>224</ele>
        <time>2014-04-17T14:25:24Z</time>
      </trkpt>
      <trkpt lat="47.46931" lon="3.75066">
        <ele>225</ele>
        <time>2014-04-17T14:25:29Z</time>
      </trkpt>
      <trkpt lat="47.46922" lon="3.75063">
        <ele>226</ele>
        <time>2014-04-17T14:25:36Z</time>
      </trkpt>
      <trkpt lat="47.469" lon="3.75036">
        <ele>240</ele>
        <time>2014-04-17T14:26:34Z</time>
      </trkpt>
      <trkpt lat="47.46895" lon="3.75034">
        <ele>241</ele>
        <time>2014-04-17T14:26:39Z</time>
      </trkpt>
      <trkpt lat="47.4689" lon="3.75031">
        <ele>241</ele>
        <time>2014-04-17T14:26:44Z</time>
      </trkpt>
      <trkpt lat="47.46889" lon="3.75025">
        <ele>242</ele>
        <time>2014-04-17T14:26:50Z</time>
      </trkpt>
      <trkpt lat="47.46886" lon="3.75018">
        <ele>242</ele>
        <time>2014-04-17T14:26:55Z</time>
      </trkpt>
      <trkpt lat="47.46885" lon="3.7501">
        <ele>242</ele>
        <time>2014-04-17T14:26:59Z</time>
      </trkpt>
      <trkpt lat="47.46882" lon="3.75005">
        <ele>243</ele>
        <time>2014-04-17T14:27:03Z</time>
      </trkpt>
      <trkpt lat="47.46878" lon="3.75001">
        <ele>243</ele>
        <time>2014-04-17T14:27:09Z</time>
      </trkpt>
      <trkpt lat="47.46875" lon="3.74995">
        <ele>245</ele>
        <time>2014-04-17T14:27:16Z</time>
      </trkpt>
      <trkpt lat="47.46871" lon="3.74992">
        <ele>246</ele>
        <time>2014-04-17T14:27:24Z</time>
      </trkpt>
      <trkpt lat="47.46867" lon="3.74987">
        <ele>247</ele>
        <time>2014-04-17T14:27:29Z</time>
      </trkpt>
      <trkpt lat="47.46863" lon="3.74983">
        <ele>247</ele>
        <time>2014-04-17T14:27:36Z</time>
      </trkpt>
      <trkpt lat="47.46864" lon="3.74977">
        <ele>247</ele>
        <time>2014-04-17T14:27:44Z</time>
      </trkpt>
      <trkpt lat="47.46865" lon="3.74969">
        <ele>247</ele>
        <time>2014-04-17T14:27:50Z</time>
      </trkpt>
      <trkpt lat="47.46863" lon="3.74962">
        <ele>247</ele>
        <time>2014-04-17T14:27:56Z</time>
      </trkpt>
      <trkpt lat="47.46859" lon="3.74958">
        <ele>248</ele>
        <time>2014-04-17T14:28:02Z</time>
      </trkpt>
      <trkpt lat="47.46854" lon="3.74938">
        <ele>249</ele>
        <time>2014-04-17T14:28:20Z</time>
      </trkpt>
      <trkpt lat="47.4685" lon="3.74931">
        <ele>251</ele>
        <time>2014-04-17T14:28:34Z</time>
      </trkpt>
      <trkpt lat="47.46845" lon="3.74928">
        <ele>252</ele>
        <time>2014-04-17T14:28:43Z</time>
      </trkpt>
      <trkpt lat="47.46838" lon="3.74916">
        <ele>257</ele>
        <time>2014-04-17T14:28:53Z</time>
      </trkpt>
      <trkpt lat="47.46833" lon="3.74914">
        <ele>260</ele>
        <time>2014-04-17T14:28:57Z</time>
      </trkpt>
      <trkpt lat="47.4683" lon="3.74908">
        <ele>262</ele>
        <time>2014-04-17T14:29:01Z</time>
      </trkpt>
      <trkpt lat="47.46825" lon="3.74905">
        <ele>263</ele>
        <time>2014-04-17T14:29:04Z</time>
      </trkpt>
      <trkpt lat="47.46822" lon="3.749">
        <ele>264</ele>
        <time>2014-04-17T14:29:08Z</time>
      </trkpt>
      <trkpt lat="47.46824" lon="3.74893">
        <ele>265</ele>
        <time>2014-04-17T14:29:12Z</time>
      </trkpt>
      <trkpt lat="47.46827" lon="3.74888">
        <ele>265</ele>
        <time>2014-04-17T14:29:20Z</time>
      </trkpt>
      <trkpt lat="47.46822" lon="3.74887">
        <ele>265</ele>
        <time>2014-04-17T14:29:30Z</time>
      </trkpt>
      <trkpt lat="47.46823" lon="3.74876">
        <ele>265</ele>
        <time>2014-04-17T14:29:45Z</time>
      </trkpt>
      <trkpt lat="47.46817" lon="3.74874">
        <ele>266</ele>
        <time>2014-04-17T14:30:04Z</time>
      </trkpt>
      <trkpt lat="47.46807" lon="3.74872">
        <ele>267</ele>
        <time>2014-04-17T14:30:19Z</time>
      </trkpt>
      <trkpt lat="47.46811" lon="3.7487">
        <ele>266</ele>
        <time>2014-04-17T14:30:45Z</time>
      </trkpt>
      <trkpt lat="47.46814" lon="3.7487">
        <ele>266</ele>
        <time>2014-04-17T14:30:53Z</time>
      </trkpt>
      <trkpt lat="47.46819" lon="3.74874">
        <ele>266</ele>
        <time>2014-04-17T14:31:00Z</time>
      </trkpt>
      <trkpt lat="47.4682" lon="3.74887">
        <ele>266</ele>
        <time>2014-04-17T14:31:14Z</time>
      </trkpt>
      <trkpt lat="47.46822" lon="3.74893">
        <ele>265</ele>
        <time>2014-04-17T14:31:20Z</time>
      </trkpt>
      <trkpt lat="47.46821" lon="3.74893">
        <ele>265</ele>
        <time>2014-04-17T14:32:39Z</time>
      </trkpt>
      <trkpt lat="47.46823" lon="3.74887">
        <ele>265</ele>
        <time>2014-04-17T14:33:14Z</time>
      </trkpt>
      <trkpt lat="47.4682" lon="3.74882">
        <ele>266</ele>
        <time>2014-04-17T14:33:17Z</time>
      </trkpt>
      <trkpt lat="47.46812" lon="3.74875">
        <ele>266</ele>
        <time>2014-04-17T14:33:24Z</time>
      </trkpt>
      <trkpt lat="47.46805" lon="3.74866">
        <ele>267</ele>
        <time>2014-04-17T14:33:34Z</time>
      </trkpt>
      <trkpt lat="47.46797" lon="3.74859">
        <ele>268</ele>
        <time>2014-04-17T14:33:43Z</time>
      </trkpt>
      <trkpt lat="47.4679" lon="3.74855">
        <ele>269</ele>
        <time>2014-04-17T14:33:50Z</time>
      </trkpt>
      <trkpt lat="47.46781" lon="3.74849">
        <ele>271</ele>
        <time>2014-04-17T14:33:58Z</time>
      </trkpt>
      <trkpt lat="47.46775" lon="3.74847">
        <ele>272</ele>
        <time>2014-04-17T14:34:02Z</time>
      </trkpt>
      <trkpt lat="47.46772" lon="3.74841">
        <ele>273</ele>
        <time>2014-04-17T14:34:08Z</time>
      </trkpt>
      <trkpt lat="47.4677" lon="3.74834">
        <ele>274</ele>
        <time>2014-04-17T14:34:14Z</time>
      </trkpt>
      <trkpt lat="47.46763" lon="3.74823">
        <ele>272</ele>
        <time>2014-04-17T14:34:23Z</time>
      </trkpt>
      <trkpt lat="47.46757" lon="3.74821">
        <ele>273</ele>
        <time>2014-04-17T14:34:27Z</time>
      </trkpt>
      <trkpt lat="47.46753" lon="3.74817">
        <ele>273</ele>
        <time>2014-04-17T14:34:33Z</time>
      </trkpt>
      <trkpt lat="47.46749" lon="3.74813">
        <ele>283</ele>
        <time>2014-04-17T14:34:38Z</time>
      </trkpt>
      <trkpt lat="47.46747" lon="3.74807">
        <ele>283</ele>
        <time>2014-04-17T14:34:44Z</time>
      </trkpt>
      <trkpt lat="47.46713" lon="3.7476">
        <ele>285</ele>
        <time>2014-04-17T14:35:30Z</time>
      </trkpt>
      <trkpt lat="47.46693" lon="3.74747">
        <ele>285</ele>
        <time>2014-04-17T14:36:00Z</time>
      </trkpt>
      <trkpt lat="47.46673" lon="3.74764">
        <ele>291</ele>
        <time>2014-04-17T14:36:30Z</time>
      </trkpt>
      <trkpt lat="47.46661" lon="3.74737">
        <ele>293</ele>
        <time>2014-04-17T14:37:00Z</time>
      </trkpt>
      <trkpt lat="47.46639" lon="3.74758">
        <ele>295</ele>
        <time>2014-04-17T14:37:30Z</time>
      </trkpt>
      <trkpt lat="47.46645" lon="3.74793">
        <ele>295</ele>
        <time>2014-04-17T14:38:00Z</time>
      </trkpt>
      <trkpt lat="47.46662" lon="3.74861">
        <ele>297</ele>
        <time>2014-04-17T14:38:30Z</time>
      </trkpt>
      <trkpt lat="47.46665" lon="3.74936">
        <ele>297</ele>
        <time>2014-04-17T14:39:00Z</time>
      </trkpt>
      <trkpt lat="47.46652" lon="3.74957">
        <ele>296</ele>
        <time>2014-04-17T14:39:30Z</time>
      </trkpt>
      <trkpt lat="47.46583" lon="3.74949">
        <ele>297</ele>
        <time>2014-04-17T14:40:30Z</time>
      </trkpt>
      <trkpt lat="47.46573" lon="3.74838">
        <ele>291</ele>
        <time>2014-04-17T14:41:30Z</time>
      </trkpt>
      <trkpt lat="47.46583" lon="3.74823">
        <ele>295</ele>
        <time>2014-04-17T14:42:00Z</time>
      </trkpt>
      <trkpt lat="47.4661" lon="3.74815">
        <ele>295</ele>
        <time>2014-04-17T14:42:30Z</time>
      </trkpt>
      <trkpt lat="47.46615" lon="3.7477">
        <ele>295</ele>
        <time>2014-04-17T14:43:30Z</time>
      </trkpt>
      <trkpt lat="47.46595" lon="3.74685">
        <ele>292</ele>
        <time>2014-04-17T14:44:00Z</time>
      </trkpt>
      <trkpt lat="47.46567" lon="3.74638">
        <ele>285</ele>
        <time>2014-04-18T07:46:11Z</time>
      </trkpt>
      <trkpt lat="47.46569" lon="3.74634">
        <ele>285</ele>
        <time>2014-04-18T07:46:34Z</time>
      </trkpt>
      <trkpt lat="47.46569" lon="3.74627">
        <ele>285</ele>
        <time>2014-04-18T07:46:38Z</time>
      </trkpt>
      <trkpt lat="47.46568" lon="3.7462">
        <ele>285</ele>
        <time>2014-04-18T07:46:42Z</time>
      </trkpt>
      <trkpt lat="47.46568" lon="3.74612">
        <ele>285</ele>
        <time>2014-04-18T07:46:46Z</time>
      </trkpt>
      <trkpt lat="47.46559" lon="3.74601">
        <ele>284</ele>
        <time>2014-04-18T07:46:54Z</time>
      </trkpt>
      <trkpt lat="47.46558" lon="3.74594">
        <ele>284</ele>
        <time>2014-04-18T07:46:57Z</time>
      </trkpt>
      <trkpt lat="47.46555" lon="3.74588">
        <ele>284</ele>
        <time>2014-04-18T07:47:01Z</time>
      </trkpt>
      <trkpt lat="47.46551" lon="3.74583">
        <ele>282</ele>
        <time>2014-04-18T07:47:05Z</time>
      </trkpt>
      <trkpt lat="47.46548" lon="3.74575">
        <ele>281</ele>
        <time>2014-04-18T07:47:08Z</time>
      </trkpt>
      <trkpt lat="47.46543" lon="3.74572">
        <ele>281</ele>
        <time>2014-04-18T07:47:11Z</time>
      </trkpt>
      <trkpt lat="47.46539" lon="3.74569">
        <ele>280</ele>
        <time>2014-04-18T07:47:15Z</time>
      </trkpt>
      <trkpt lat="47.46538" lon="3.74561">
        <ele>280</ele>
        <time>2014-04-18T07:47:21Z</time>
      </trkpt>
      <trkpt lat="47.46532" lon="3.74562">
        <ele>279</ele>
        <time>2014-04-18T07:47:26Z</time>
      </trkpt>
      <trkpt lat="47.46528" lon="3.74559">
        <ele>279</ele>
        <time>2014-04-18T07:47:30Z</time>
      </trkpt>
      <trkpt lat="47.46527" lon="3.74552">
        <ele>279</ele>
        <time>2014-04-18T07:47:35Z</time>
      </trkpt>
      <trkpt lat="47.46522" lon="3.74553">
        <ele>279</ele>
        <time>2014-04-18T07:47:43Z</time>
      </trkpt>
      <trkpt lat="47.46519" lon="3.74547">
        <ele>279</ele>
        <time>2014-04-18T07:47:47Z</time>
      </trkpt>
      <trkpt lat="47.46518" lon="3.74531">
        <ele>278</ele>
        <time>2014-04-18T07:47:51Z</time>
      </trkpt>
      <trkpt lat="47.46515" lon="3.74517">
        <ele>278</ele>
        <time>2014-04-18T07:47:55Z</time>
      </trkpt>
      <trkpt lat="47.46512" lon="3.74509">
        <ele>277</ele>
        <time>2014-04-18T07:47:58Z</time>
      </trkpt>
      <trkpt lat="47.46508" lon="3.74502">
        <ele>277</ele>
        <time>2014-04-18T07:48:02Z</time>
      </trkpt>
      <trkpt lat="47.46504" lon="3.74499">
        <ele>275</ele>
        <time>2014-04-18T07:48:06Z</time>
      </trkpt>
      <trkpt lat="47.46496" lon="3.74492">
        <ele>273</ele>
        <time>2014-04-18T07:48:15Z</time>
      </trkpt>
      <trkpt lat="47.46492" lon="3.74487">
        <ele>271</ele>
        <time>2014-04-18T07:48:20Z</time>
      </trkpt>
      <trkpt lat="47.4649" lon="3.7448">
        <ele>270</ele>
        <time>2014-04-18T07:48:25Z</time>
      </trkpt>
      <trkpt lat="47.46491" lon="3.74474">
        <ele>269</ele>
        <time>2014-04-18T07:48:27Z</time>
      </trkpt>
      <trkpt lat="47.46493" lon="3.74467">
        <ele>268</ele>
        <time>2014-04-18T07:48:30Z</time>
      </trkpt>
      <trkpt lat="47.46496" lon="3.74461">
        <ele>268</ele>
        <time>2014-04-18T07:48:34Z</time>
      </trkpt>
      <trkpt lat="47.46486" lon="3.74465">
        <ele>268</ele>
        <time>2014-04-18T07:49:15Z</time>
      </trkpt>
      <trkpt lat="47.46478" lon="3.74456">
        <ele>267</ele>
        <time>2014-04-18T07:49:27Z</time>
      </trkpt>
      <trkpt lat="47.46475" lon="3.74451">
        <ele>267</ele>
        <time>2014-04-18T07:49:31Z</time>
      </trkpt>
      <trkpt lat="47.46472" lon="3.74445">
        <ele>266</ele>
        <time>2014-04-18T07:49:35Z</time>
      </trkpt>
      <trkpt lat="47.46467" lon="3.74442">
        <ele>266</ele>
        <time>2014-04-18T07:49:39Z</time>
      </trkpt>
      <trkpt lat="47.46459" lon="3.74434">
        <ele>265</ele>
        <time>2014-04-18T07:49:48Z</time>
      </trkpt>
      <trkpt lat="47.46453" lon="3.74433">
        <ele>265</ele>
        <time>2014-04-18T07:49:54Z</time>
      </trkpt>
      <trkpt lat="47.46449" lon="3.7443">
        <ele>265</ele>
        <time>2014-04-18T07:49:58Z</time>
      </trkpt>
      <trkpt lat="47.46445" lon="3.74424">
        <ele>264</ele>
        <time>2014-04-18T07:50:02Z</time>
      </trkpt>
      <trkpt lat="47.4644" lon="3.74422">
        <ele>264</ele>
        <time>2014-04-18T07:50:06Z</time>
      </trkpt>
      <trkpt lat="47.46433" lon="3.74412">
        <ele>262</ele>
        <time>2014-04-18T07:50:16Z</time>
      </trkpt>
      <trkpt lat="47.46423" lon="3.74409">
        <ele>262</ele>
        <time>2014-04-18T07:50:25Z</time>
      </trkpt>
      <trkpt lat="47.4642" lon="3.74401">
        <ele>262</ele>
        <time>2014-04-18T07:50:29Z</time>
      </trkpt>
      <trkpt lat="47.46418" lon="3.74395">
        <ele>262</ele>
        <time>2014-04-18T07:50:33Z</time>
      </trkpt>
      <trkpt lat="47.46416" lon="3.74388">
        <ele>259</ele>
        <time>2014-04-18T07:50:38Z</time>
      </trkpt>
      <trkpt lat="47.46411" lon="3.74382">
        <ele>259</ele>
        <time>2014-04-18T07:50:43Z</time>
      </trkpt>
      <trkpt lat="47.4641" lon="3.74374">
        <ele>259</ele>
        <time>2014-04-18T07:50:46Z</time>
      </trkpt>
      <trkpt lat="47.46403" lon="3.74365">
        <ele>259</ele>
        <time>2014-04-18T07:50:57Z</time>
      </trkpt>
      <trkpt lat="47.464" lon="3.74359">
        <ele>259</ele>
        <time>2014-04-18T07:51:05Z</time>
      </trkpt>
      <trkpt lat="47.46399" lon="3.74336">
        <ele>259</ele>
        <time>2014-04-18T07:51:13Z</time>
      </trkpt>
      <trkpt lat="47.46396" lon="3.7433">
        <ele>258</ele>
        <time>2014-04-18T07:51:17Z</time>
      </trkpt>
      <trkpt lat="47.46399" lon="3.74316">
        <ele>258</ele>
        <time>2014-04-18T07:51:25Z</time>
      </trkpt>
      <trkpt lat="47.46399" lon="3.74308">
        <ele>257</ele>
        <time>2014-04-18T07:51:29Z</time>
      </trkpt>
      <trkpt lat="47.46395" lon="3.74277">
        <ele>255</ele>
        <time>2014-04-18T07:52:46Z</time>
      </trkpt>
      <trkpt lat="47.46386" lon="3.74283">
        <ele>256</ele>
        <time>2014-04-18T07:52:50Z</time>
      </trkpt>
      <trkpt lat="47.46376" lon="3.74285">
        <ele>256</ele>
        <time>2014-04-18T07:53:07Z</time>
      </trkpt>
      <trkpt lat="47.46373" lon="3.74291">
        <ele>256</ele>
        <time>2014-04-18T07:53:12Z</time>
      </trkpt>
      <trkpt lat="47.46374" lon="3.74297">
        <ele>256</ele>
        <time>2014-04-18T07:53:17Z</time>
      </trkpt>
      <trkpt lat="47.46374" lon="3.74296">
        <ele>256</ele>
        <time>2014-04-18T07:53:46Z</time>
      </trkpt>
      <trkpt lat="47.46371" lon="3.74291">
        <ele>256</ele>
        <time>2014-04-18T07:53:51Z</time>
      </trkpt>
      <trkpt lat="47.4637" lon="3.74287">
        <ele>256</ele>
        <time>2014-04-18T07:54:05Z</time>
      </trkpt>
      <trkpt lat="47.46372" lon="3.7428">
        <ele>256</ele>
        <time>2014-04-18T07:54:24Z</time>
      </trkpt>
      <trkpt lat="47.46369" lon="3.74274">
        <ele>256</ele>
        <time>2014-04-18T07:54:32Z</time>
      </trkpt>
      <trkpt lat="47.46369" lon="3.74286">
        <ele>256</ele>
        <time>2014-04-18T07:54:48Z</time>
      </trkpt>
      <trkpt lat="47.46365" lon="3.74288">
        <ele>256</ele>
        <time>2014-04-18T07:54:58Z</time>
      </trkpt>
      <trkpt lat="47.46367" lon="3.74294">
        <ele>256</ele>
        <time>2014-04-18T07:55:47Z</time>
      </trkpt>
      <trkpt lat="47.46357" lon="3.74275">
        <ele>256</ele>
        <time>2014-04-18T08:04:09Z</time>
      </trkpt>
      <trkpt lat="47.46361" lon="3.74272">
        <ele>256</ele>
        <time>2014-04-18T08:04:13Z</time>
      </trkpt>
      <trkpt lat="47.46362" lon="3.74264">
        <ele>255</ele>
        <time>2014-04-18T08:04:20Z</time>
      </trkpt>
      <trkpt lat="47.46362" lon="3.74257">
        <ele>255</ele>
        <time>2014-04-18T08:04:25Z</time>
      </trkpt>
      <trkpt lat="47.46363" lon="3.74248">
        <ele>252</ele>
        <time>2014-04-18T08:04:36Z</time>
      </trkpt>
      <trkpt lat="47.46354" lon="3.74242">
        <ele>253</ele>
        <time>2014-04-18T08:06:20Z</time>
      </trkpt>
      <trkpt lat="47.46349" lon="3.74237">
        <ele>253</ele>
        <time>2014-04-18T08:06:23Z</time>
      </trkpt>
      <trkpt lat="47.46345" lon="3.74216">
        <ele>252</ele>
        <time>2014-04-18T08:06:36Z</time>
      </trkpt>
      <trkpt lat="47.46343" lon="3.74209">
        <ele>252</ele>
        <time>2014-04-18T08:06:39Z</time>
      </trkpt>
      <trkpt lat="47.4634" lon="3.74203">
        <ele>252</ele>
        <time>2014-04-18T08:06:43Z</time>
      </trkpt>
      <trkpt lat="47.46336" lon="3.74199">
        <ele>251</ele>
        <time>2014-04-18T08:06:46Z</time>
      </trkpt>
      <trkpt lat="47.46332" lon="3.74195">
        <ele>251</ele>
        <time>2014-04-18T08:06:50Z</time>
      </trkpt>
      <trkpt lat="47.46327" lon="3.74191">
        <ele>250</ele>
        <time>2014-04-18T08:06:55Z</time>
      </trkpt>
      <trkpt lat="47.46325" lon="3.74185">
        <ele>250</ele>
        <time>2014-04-18T08:06:59Z</time>
      </trkpt>
      <trkpt lat="47.46324" lon="3.74177">
        <ele>250</ele>
        <time>2014-04-18T08:07:03Z</time>
      </trkpt>
      <trkpt lat="47.46321" lon="3.74176">
        <ele>250</ele>
        <time>2014-04-18T08:07:15Z</time>
      </trkpt>
      <trkpt lat="47.4632" lon="3.74182">
        <ele>250</ele>
        <time>2014-04-18T08:07:30Z</time>
      </trkpt>
      <trkpt lat="47.46315" lon="3.74188">
        <ele>250</ele>
        <time>2014-04-18T08:07:34Z</time>
      </trkpt>
      <trkpt lat="47.46309" lon="3.74193">
        <ele>250</ele>
        <time>2014-04-18T08:07:40Z</time>
      </trkpt>
      <trkpt lat="47.46301" lon="3.74202">
        <ele>250</ele>
        <time>2014-04-18T08:07:48Z</time>
      </trkpt>
      <trkpt lat="47.46297" lon="3.74208">
        <ele>250</ele>
        <time>2014-04-18T08:07:52Z</time>
      </trkpt>
      <trkpt lat="47.46292" lon="3.74211">
        <ele>250</ele>
        <time>2014-04-18T08:07:56Z</time>
      </trkpt>
      <trkpt lat="47.46282" lon="3.74211">
        <ele>249</ele>
        <time>2014-04-18T08:08:02Z</time>
      </trkpt>
      <trkpt lat="47.46277" lon="3.74213">
        <ele>249</ele>
        <time>2014-04-18T08:08:05Z</time>
      </trkpt>
      <trkpt lat="47.46272" lon="3.74214">
        <ele>249</ele>
        <time>2014-04-18T08:08:09Z</time>
      </trkpt>
      <trkpt lat="47.46267" lon="3.74215">
        <ele>249</ele>
        <time>2014-04-18T08:08:14Z</time>
      </trkpt>
      <trkpt lat="47.46263" lon="3.74216">
        <ele>248</ele>
        <time>2014-04-18T08:08:19Z</time>
      </trkpt>
      <trkpt lat="47.46258" lon="3.74217">
        <ele>248</ele>
        <time>2014-04-18T08:08:24Z</time>
      </trkpt>
      <trkpt lat="47.46248" lon="3.74219">
        <ele>246</ele>
        <time>2014-04-18T08:08:33Z</time>
      </trkpt>
      <trkpt lat="47.46242" lon="3.7422">
        <ele>246</ele>
        <time>2014-04-18T08:08:37Z</time>
      </trkpt>
      <trkpt lat="47.46233" lon="3.74227">
        <ele>246</ele>
        <time>2014-04-18T08:08:45Z</time>
      </trkpt>
      <trkpt lat="47.46229" lon="3.74232">
        <ele>246</ele>
        <time>2014-04-18T08:08:49Z</time>
      </trkpt>
      <trkpt lat="47.46224" lon="3.74235">
        <ele>246</ele>
        <time>2014-04-18T08:08:57Z</time>
      </trkpt>
      <trkpt lat="47.46222" lon="3.74242">
        <ele>246</ele>
        <time>2014-04-18T08:09:04Z</time>
      </trkpt>
      <trkpt lat="47.46222" lon="3.7425">
        <ele>244</ele>
        <time>2014-04-18T08:09:09Z</time>
      </trkpt>
      <trkpt lat="47.4622" lon="3.74252">
        <ele>244</ele>
        <time>2014-04-18T08:09:14Z</time>
      </trkpt>
      <trkpt lat="47.46216" lon="3.74254">
        <ele>244</ele>
        <time>2014-04-18T08:09:18Z</time>
      </trkpt>
      <trkpt lat="47.46211" lon="3.74258">
        <ele>244</ele>
        <time>2014-04-18T08:09:23Z</time>
      </trkpt>
      <trkpt lat="47.46206" lon="3.7426">
        <ele>243</ele>
        <time>2014-04-18T08:09:27Z</time>
      </trkpt>
      <trkpt lat="47.46203" lon="3.74265">
        <ele>243</ele>
        <time>2014-04-18T08:09:32Z</time>
      </trkpt>
      <trkpt lat="47.46199" lon="3.7427">
        <ele>243</ele>
        <time>2014-04-18T08:09:36Z</time>
      </trkpt>
      <trkpt lat="47.46195" lon="3.74274">
        <ele>243</ele>
        <time>2014-04-18T08:09:40Z</time>
      </trkpt>
      <trkpt lat="47.46189" lon="3.74285">
        <ele>243</ele>
        <time>2014-04-18T08:09:46Z</time>
      </trkpt>
      <trkpt lat="47.46175" lon="3.743">
        <ele>242</ele>
        <time>2014-04-18T08:09:58Z</time>
      </trkpt>
      <trkpt lat="47.46176" lon="3.74305">
        <ele>242</ele>
        <time>2014-04-18T08:10:09Z</time>
      </trkpt>
      <trkpt lat="47.46184" lon="3.74311">
        <ele>241</ele>
        <time>2014-04-18T08:10:17Z</time>
      </trkpt>
      <trkpt lat="47.46189" lon="3.74314">
        <ele>241</ele>
        <time>2014-04-18T08:10:21Z</time>
      </trkpt>
      <trkpt lat="47.46194" lon="3.74314">
        <ele>242</ele>
        <time>2014-04-18T08:10:27Z</time>
      </trkpt>
      <trkpt lat="47.46196" lon="3.74307">
        <ele>242</ele>
        <time>2014-04-18T08:10:34Z</time>
      </trkpt>
      <trkpt lat="47.462" lon="3.74297">
        <ele>242</ele>
        <time>2014-04-18T08:10:41Z</time>
      </trkpt>
      <trkpt lat="47.46204" lon="3.74291">
        <ele>242</ele>
        <time>2014-04-18T08:10:45Z</time>
      </trkpt>
      <trkpt lat="47.46207" lon="3.74285">
        <ele>243</ele>
        <time>2014-04-18T08:10:49Z</time>
      </trkpt>
      <trkpt lat="47.46206" lon="3.74294">
        <ele>242</ele>
        <time>2014-04-18T08:13:08Z</time>
      </trkpt>
      <trkpt lat="47.46204" lon="3.74301">
        <ele>242</ele>
        <time>2014-04-18T08:13:13Z</time>
      </trkpt>
      <trkpt lat="47.46199" lon="3.74305">
        <ele>242</ele>
        <time>2014-04-18T08:13:15Z</time>
      </trkpt>
      <trkpt lat="47.46197" lon="3.743">
        <ele>242</ele>
        <time>2014-04-18T08:13:37Z</time>
      </trkpt>
      <trkpt lat="47.46199" lon="3.74296">
        <ele>242</ele>
        <time>2014-04-18T08:13:50Z</time>
      </trkpt>
      <trkpt lat="47.46199" lon="3.74302">
        <ele>242</ele>
        <time>2014-04-18T08:15:11Z</time>
      </trkpt>
      <trkpt lat="47.462" lon="3.74305">
        <ele>242</ele>
        <time>2014-04-18T08:15:23Z</time>
      </trkpt>
      <trkpt lat="47.46198" lon="3.74313">
        <ele>242</ele>
        <time>2014-04-18T08:15:32Z</time>
      </trkpt>
      <trkpt lat="47.46194" lon="3.74318">
        <ele>241</ele>
        <time>2014-04-18T08:15:36Z</time>
      </trkpt>
      <trkpt lat="47.46183" lon="3.74319">
        <ele>241</ele>
        <time>2014-04-18T08:15:44Z</time>
      </trkpt>
      <trkpt lat="47.46179" lon="3.74317">
        <ele>241</ele>
        <time>2014-04-18T08:15:52Z</time>
      </trkpt>
      <trkpt lat="47.46176" lon="3.74316">
        <ele>241</ele>
        <time>2014-04-18T08:16:10Z</time>
      </trkpt>
      <trkpt lat="47.4617" lon="3.74308">
        <ele>241</ele>
        <time>2014-04-18T08:16:25Z</time>
      </trkpt>
      <trkpt lat="47.46166" lon="3.74311">
        <ele>242</ele>
        <time>2014-04-18T08:16:30Z</time>
      </trkpt>
      <trkpt lat="47.46161" lon="3.74314">
        <ele>242</ele>
        <time>2014-04-18T08:16:36Z</time>
      </trkpt>
      <trkpt lat="47.46144" lon="3.74337">
        <ele>238</ele>
        <time>2014-04-18T08:17:02Z</time>
      </trkpt>
      <trkpt lat="47.46138" lon="3.7434">
        <ele>238</ele>
        <time>2014-04-18T08:17:16Z</time>
      </trkpt>
      <trkpt lat="47.46135" lon="3.74345">
        <ele>238</ele>
        <time>2014-04-18T08:17:19Z</time>
      </trkpt>
      <trkpt lat="47.46127" lon="3.74353">
        <ele>238</ele>
        <time>2014-04-18T08:17:28Z</time>
      </trkpt>
      <trkpt lat="47.46122" lon="3.74359">
        <ele>238</ele>
        <time>2014-04-18T08:17:31Z</time>
      </trkpt>
      <trkpt lat="47.46117" lon="3.74363">
        <ele>238</ele>
        <time>2014-04-18T08:17:34Z</time>
      </trkpt>
      <trkpt lat="47.46114" lon="3.74368">
        <ele>238</ele>
        <time>2014-04-18T08:17:40Z</time>
      </trkpt>
      <trkpt lat="47.46111" lon="3.74363">
        <ele>238</ele>
        <time>2014-04-18T08:17:48Z</time>
      </trkpt>
      <trkpt lat="47.46107" lon="3.74366">
        <ele>238</ele>
        <time>2014-04-18T08:17:52Z</time>
      </trkpt>
      <trkpt lat="47.46103" lon="3.74372">
        <ele>238</ele>
        <time>2014-04-18T08:17:56Z</time>
      </trkpt>
      <trkpt lat="47.46099" lon="3.74376">
        <ele>238</ele>
        <time>2014-04-18T08:18:00Z</time>
      </trkpt>
      <trkpt lat="47.46096" lon="3.74382">
        <ele>237</ele>
        <time>2014-04-18T08:18:05Z</time>
      </trkpt>
      <trkpt lat="47.46092" lon="3.74385">
        <ele>237</ele>
        <time>2014-04-18T08:18:10Z</time>
      </trkpt>
      <trkpt lat="47.46093" lon="3.74377">
        <ele>238</ele>
        <time>2014-04-18T08:18:15Z</time>
      </trkpt>
      <trkpt lat="47.46083" lon="3.74388">
        <ele>239</ele>
        <time>2014-04-18T08:18:22Z</time>
      </trkpt>
      <trkpt lat="47.46078" lon="3.74392">
        <ele>239</ele>
        <time>2014-04-18T08:18:25Z</time>
      </trkpt>
      <trkpt lat="47.46073" lon="3.74395">
        <ele>239</ele>
        <time>2014-04-18T08:18:29Z</time>
      </trkpt>
      <trkpt lat="47.46068" lon="3.74398">
        <ele>239</ele>
        <time>2014-04-18T08:18:33Z</time>
      </trkpt>
      <trkpt lat="47.46063" lon="3.74401">
        <ele>239</ele>
        <time>2014-04-18T08:18:38Z</time>
      </trkpt>
      <trkpt lat="47.46053" lon="3.7441">
        <ele>239</ele>
        <time>2014-04-18T08:18:46Z</time>
      </trkpt>
      <trkpt lat="47.46045" lon="3.74421">
        <ele>236</ele>
        <time>2014-04-18T08:18:51Z</time>
      </trkpt>
      <trkpt lat="47.46036" lon="3.7444">
        <ele>236</ele>
        <time>2014-04-18T08:19:01Z</time>
      </trkpt>
      <trkpt lat="47.46032" lon="3.74445">
        <ele>236</ele>
        <time>2014-04-18T08:19:04Z</time>
      </trkpt>
      <trkpt lat="47.46028" lon="3.74449">
        <ele>237</ele>
        <time>2014-04-18T08:19:10Z</time>
      </trkpt>
      <trkpt lat="47.46025" lon="3.74456">
        <ele>237</ele>
        <time>2014-04-18T08:19:14Z</time>
      </trkpt>
      <trkpt lat="47.46021" lon="3.74461">
        <ele>237</ele>
        <time>2014-04-18T08:19:18Z</time>
      </trkpt>
      <trkpt lat="47.46019" lon="3.74467">
        <ele>237</ele>
        <time>2014-04-18T08:19:24Z</time>
      </trkpt>
      <trkpt lat="47.46008" lon="3.7449">
        <ele>237</ele>
        <time>2014-04-18T08:19:36Z</time>
      </trkpt>
      <trkpt lat="47.46005" lon="3.74512">
        <ele>237</ele>
        <time>2014-04-18T08:19:47Z</time>
      </trkpt>
      <trkpt lat="47.46006" lon="3.7452">
        <ele>237</ele>
        <time>2014-04-18T08:19:52Z</time>
      </trkpt>
      <trkpt lat="47.46008" lon="3.74527">
        <ele>237</ele>
        <time>2014-04-18T08:19:55Z</time>
      </trkpt>
      <trkpt lat="47.4601" lon="3.74536">
        <ele>237</ele>
        <time>2014-04-18T08:19:59Z</time>
      </trkpt>
      <trkpt lat="47.46013" lon="3.74543">
        <ele>237</ele>
        <time>2014-04-18T08:20:03Z</time>
      </trkpt>
      <trkpt lat="47.46015" lon="3.7455">
        <ele>237</ele>
        <time>2014-04-18T08:20:09Z</time>
      </trkpt>
      <trkpt lat="47.46014" lon="3.74564">
        <ele>237</ele>
        <time>2014-04-18T08:20:18Z</time>
      </trkpt>
      <trkpt lat="47.4602" lon="3.74574">
        <ele>237</ele>
        <time>2014-04-18T08:20:23Z</time>
      </trkpt>
      <trkpt lat="47.46023" lon="3.74587">
        <ele>237</ele>
        <time>2014-04-18T08:20:32Z</time>
      </trkpt>
      <trkpt lat="47.46026" lon="3.74593">
        <ele>237</ele>
        <time>2014-04-18T08:20:35Z</time>
      </trkpt>
      <trkpt lat="47.46028" lon="3.74598">
        <ele>237</ele>
        <time>2014-04-18T08:20:43Z</time>
      </trkpt>
      <trkpt lat="47.46027" lon="3.74607">
        <ele>237</ele>
        <time>2014-04-18T08:21:00Z</time>
      </trkpt>
      <trkpt lat="47.46029" lon="3.74616">
        <ele>236</ele>
        <time>2014-04-18T08:21:04Z</time>
      </trkpt>
      <trkpt lat="47.46029" lon="3.74623">
        <ele>236</ele>
        <time>2014-04-18T08:21:07Z</time>
      </trkpt>
      <trkpt lat="47.46027" lon="3.7463">
        <ele>236</ele>
        <time>2014-04-18T08:21:10Z</time>
      </trkpt>
      <trkpt lat="47.4603" lon="3.74657">
        <ele>236</ele>
        <time>2014-04-18T08:21:54Z</time>
      </trkpt>
      <trkpt lat="47.46028" lon="3.74698">
        <ele>234</ele>
        <time>2014-04-18T08:22:14Z</time>
      </trkpt>
      <trkpt lat="47.46029" lon="3.74706">
        <ele>234</ele>
        <time>2014-04-18T08:22:18Z</time>
      </trkpt>
      <trkpt lat="47.46023" lon="3.74719">
        <ele>234</ele>
        <time>2014-04-18T08:22:26Z</time>
      </trkpt>
      <trkpt lat="47.46015" lon="3.74755">
        <ele>232</ele>
        <time>2014-04-18T08:22:44Z</time>
      </trkpt>
      <trkpt lat="47.46013" lon="3.74783">
        <ele>231</ele>
        <time>2014-04-18T08:23:02Z</time>
      </trkpt>
      <trkpt lat="47.46012" lon="3.74791">
        <ele>231</ele>
        <time>2014-04-18T08:23:06Z</time>
      </trkpt>
      <trkpt lat="47.46012" lon="3.74798">
        <ele>231</ele>
        <time>2014-04-18T08:23:10Z</time>
      </trkpt>
      <trkpt lat="47.46013" lon="3.74807">
        <ele>231</ele>
        <time>2014-04-18T08:23:14Z</time>
      </trkpt>
      <trkpt lat="47.46013" lon="3.74815">
        <ele>231</ele>
        <time>2014-04-18T08:23:18Z</time>
      </trkpt>
      <trkpt lat="47.46016" lon="3.74822">
        <ele>231</ele>
        <time>2014-04-18T08:23:22Z</time>
      </trkpt>
      <trkpt lat="47.46016" lon="3.74829">
        <ele>230</ele>
        <time>2014-04-18T08:23:27Z</time>
      </trkpt>
      <trkpt lat="47.46016" lon="3.74846">
        <ele>228</ele>
        <time>2014-04-18T08:23:35Z</time>
      </trkpt>
      <trkpt lat="47.4602" lon="3.74859">
        <ele>228</ele>
        <time>2014-04-18T08:23:41Z</time>
      </trkpt>
      <trkpt lat="47.46025" lon="3.7486">
        <ele>227</ele>
        <time>2014-04-18T08:23:45Z</time>
      </trkpt>
      <trkpt lat="47.46026" lon="3.74866">
        <ele>227</ele>
        <time>2014-04-18T08:23:49Z</time>
      </trkpt>
      <trkpt lat="47.46022" lon="3.74883">
        <ele>226</ele>
        <time>2014-04-18T08:23:57Z</time>
      </trkpt>
      <trkpt lat="47.46025" lon="3.74912">
        <ele>226</ele>
        <time>2014-04-18T08:24:13Z</time>
      </trkpt>
      <trkpt lat="47.46022" lon="3.74934">
        <ele>222</ele>
        <time>2014-04-18T08:24:24Z</time>
      </trkpt>
      <trkpt lat="47.46023" lon="3.74942">
        <ele>222</ele>
        <time>2014-04-18T08:24:30Z</time>
      </trkpt>
      <trkpt lat="47.46023" lon="3.74949">
        <ele>222</ele>
        <time>2014-04-18T08:24:34Z</time>
      </trkpt>
      <trkpt lat="47.4602" lon="3.74955">
        <ele>222</ele>
        <time>2014-04-18T08:24:39Z</time>
      </trkpt>
      <trkpt lat="47.4602" lon="3.74963">
        <ele>221</ele>
        <time>2014-04-18T08:24:43Z</time>
      </trkpt>
      <trkpt lat="47.4602" lon="3.7497">
        <ele>221</ele>
        <time>2014-04-18T08:24:46Z</time>
      </trkpt>
      <trkpt lat="47.46019" lon="3.74978">
        <ele>221</ele>
        <time>2014-04-18T08:24:50Z</time>
      </trkpt>
      <trkpt lat="47.4602" lon="3.74985">
        <ele>221</ele>
        <time>2014-04-18T08:24:54Z</time>
      </trkpt>
      <trkpt lat="47.4602" lon="3.74993">
        <ele>220</ele>
        <time>2014-04-18T08:24:58Z</time>
      </trkpt>
      <trkpt lat="47.46018" lon="3.74999">
        <ele>220</ele>
        <time>2014-04-18T08:25:02Z</time>
      </trkpt>
      <trkpt lat="47.46018" lon="3.75007">
        <ele>218</ele>
        <time>2014-04-18T08:25:06Z</time>
      </trkpt>
      <trkpt lat="47.4602" lon="3.75022">
        <ele>217</ele>
        <time>2014-04-18T08:25:14Z</time>
      </trkpt>
      <trkpt lat="47.46017" lon="3.75027">
        <ele>217</ele>
        <time>2014-04-18T08:25:18Z</time>
      </trkpt>
      <trkpt lat="47.46015" lon="3.75033">
        <ele>217</ele>
        <time>2014-04-18T08:25:22Z</time>
      </trkpt>
      <trkpt lat="47.4602" lon="3.7507">
        <ele>216</ele>
        <time>2014-04-18T08:25:39Z</time>
      </trkpt>
      <trkpt lat="47.46019" lon="3.75078">
        <ele>215</ele>
        <time>2014-04-18T08:25:43Z</time>
      </trkpt>
      <trkpt lat="47.46018" lon="3.75085">
        <ele>213</ele>
        <time>2014-04-18T08:25:47Z</time>
      </trkpt>
      <trkpt lat="47.4602" lon="3.75102">
        <ele>213</ele>
        <time>2014-04-18T08:25:57Z</time>
      </trkpt>
      <trkpt lat="47.46027" lon="3.75117">
        <ele>212</ele>
        <time>2014-04-18T08:26:07Z</time>
      </trkpt>
      <trkpt lat="47.46031" lon="3.75122">
        <ele>212</ele>
        <time>2014-04-18T08:26:12Z</time>
      </trkpt>
      <trkpt lat="47.46033" lon="3.75131">
        <ele>212</ele>
        <time>2014-04-18T08:26:16Z</time>
      </trkpt>
      <trkpt lat="47.46033" lon="3.75138">
        <ele>211</ele>
        <time>2014-04-18T08:26:19Z</time>
      </trkpt>
      <trkpt lat="47.46031" lon="3.75146">
        <ele>211</ele>
        <time>2014-04-18T08:26:23Z</time>
      </trkpt>
      <trkpt lat="47.46031" lon="3.75153">
        <ele>211</ele>
        <time>2014-04-18T08:26:26Z</time>
      </trkpt>
      <trkpt lat="47.46031" lon="3.7516">
        <ele>211</ele>
        <time>2014-04-18T08:26:29Z</time>
      </trkpt>
      <trkpt lat="47.46024" lon="3.75197">
        <ele>207</ele>
        <time>2014-04-18T08:26:48Z</time>
      </trkpt>
      <trkpt lat="47.46025" lon="3.75211">
        <ele>207</ele>
        <time>2014-04-18T08:26:59Z</time>
      </trkpt>
      <trkpt lat="47.46024" lon="3.75226">
        <ele>207</ele>
        <time>2014-04-18T08:27:07Z</time>
      </trkpt>
      <trkpt lat="47.46019" lon="3.75249">
        <ele>206</ele>
        <time>2014-04-18T08:27:19Z</time>
      </trkpt>
      <trkpt lat="47.46015" lon="3.75283">
        <ele>204</ele>
        <time>2014-04-18T08:27:38Z</time>
      </trkpt>
      <trkpt lat="47.46011" lon="3.75298">
        <ele>204</ele>
        <time>2014-04-18T08:27:46Z</time>
      </trkpt>
      <trkpt lat="47.46007" lon="3.75303">
        <ele>204</ele>
        <time>2014-04-18T08:27:49Z</time>
      </trkpt>
      <trkpt lat="47.46004" lon="3.75309">
        <ele>204</ele>
        <time>2014-04-18T08:27:52Z</time>
      </trkpt>
      <trkpt lat="47.46005" lon="3.75317">
        <ele>204</ele>
        <time>2014-04-18T08:27:57Z</time>
      </trkpt>
      <trkpt lat="47.46004" lon="3.75325">
        <ele>204</ele>
        <time>2014-04-18T08:28:02Z</time>
      </trkpt>
      <trkpt lat="47.46002" lon="3.75332">
        <ele>204</ele>
        <time>2014-04-18T08:28:07Z</time>
      </trkpt>
      <trkpt lat="47.46004" lon="3.7534">
        <ele>204</ele>
        <time>2014-04-18T08:28:12Z</time>
      </trkpt>
      <trkpt lat="47.46005" lon="3.75362">
        <ele>203</ele>
        <time>2014-04-18T08:28:21Z</time>
      </trkpt>
      <trkpt lat="47.46009" lon="3.75367">
        <ele>203</ele>
        <time>2014-04-18T08:28:24Z</time>
      </trkpt>
      <trkpt lat="47.46013" lon="3.75371">
        <ele>203</ele>
        <time>2014-04-18T08:28:27Z</time>
      </trkpt>
      <trkpt lat="47.46014" lon="3.75378">
        <ele>203</ele>
        <time>2014-04-18T08:28:31Z</time>
      </trkpt>
      <trkpt lat="47.46011" lon="3.75401">
        <ele>202</ele>
        <time>2014-04-18T08:28:41Z</time>
      </trkpt>
      <trkpt lat="47.46014" lon="3.75416">
        <ele>202</ele>
        <time>2014-04-18T08:28:50Z</time>
      </trkpt>
      <trkpt lat="47.46012" lon="3.75439">
        <ele>201</ele>
        <time>2014-04-18T08:29:03Z</time>
      </trkpt>
      <trkpt lat="47.46008" lon="3.75451">
        <ele>201</ele>
        <time>2014-04-18T08:29:09Z</time>
      </trkpt>
      <trkpt lat="47.46" lon="3.75463">
        <ele>200</ele>
        <time>2014-04-18T08:29:18Z</time>
      </trkpt>
      <trkpt lat="47.45996" lon="3.75478">
        <ele>200</ele>
        <time>2014-04-18T08:29:26Z</time>
      </trkpt>
      <trkpt lat="47.45991" lon="3.7549">
        <ele>200</ele>
        <time>2014-04-18T08:29:33Z</time>
      </trkpt>
      <trkpt lat="47.45988" lon="3.75497">
        <ele>200</ele>
        <time>2014-04-18T08:29:37Z</time>
      </trkpt>
      <trkpt lat="47.45985" lon="3.75502">
        <ele>200</ele>
        <time>2014-04-18T08:29:41Z</time>
      </trkpt>
      <trkpt lat="47.45977" lon="3.75512">
        <ele>200</ele>
        <time>2014-04-18T08:29:49Z</time>
      </trkpt>
      <trkpt lat="47.4595" lon="3.7556">
        <ele>200</ele>
        <time>2014-04-18T08:30:24Z</time>
      </trkpt>
      <trkpt lat="47.45947" lon="3.75565">
        <ele>200</ele>
        <time>2014-04-18T08:30:27Z</time>
      </trkpt>
      <trkpt lat="47.45937" lon="3.75592">
        <ele>200</ele>
        <time>2014-04-18T08:30:44Z</time>
      </trkpt>
      <trkpt lat="47.45924" lon="3.75624">
        <ele>200</ele>
        <time>2014-04-18T08:31:03Z</time>
      </trkpt>
      <trkpt lat="47.45911" lon="3.75647">
        <ele>198</ele>
        <time>2014-04-18T08:31:17Z</time>
      </trkpt>
      <trkpt lat="47.45906" lon="3.75661">
        <ele>199</ele>
        <time>2014-04-18T08:31:26Z</time>
      </trkpt>
      <trkpt lat="47.45898" lon="3.75672">
        <ele>197</ele>
        <time>2014-04-18T08:31:34Z</time>
      </trkpt>
      <trkpt lat="47.45893" lon="3.75686">
        <ele>197</ele>
        <time>2014-04-18T08:31:43Z</time>
      </trkpt>
      <trkpt lat="47.45887" lon="3.75697">
        <ele>196</ele>
        <time>2014-04-18T08:31:51Z</time>
      </trkpt>
      <trkpt lat="47.45884" lon="3.75713">
        <ele>195</ele>
        <time>2014-04-18T08:32:02Z</time>
      </trkpt>
      <trkpt lat="47.45872" lon="3.75745">
        <ele>195</ele>
        <time>2014-04-18T08:32:18Z</time>
      </trkpt>
      <trkpt lat="47.4587" lon="3.75752">
        <ele>193</ele>
        <time>2014-04-18T08:32:22Z</time>
      </trkpt>
      <trkpt lat="47.45867" lon="3.75758">
        <ele>193</ele>
        <time>2014-04-18T08:32:26Z</time>
      </trkpt>
      <trkpt lat="47.45863" lon="3.7577">
        <ele>193</ele>
        <time>2014-04-18T08:32:33Z</time>
      </trkpt>
      <trkpt lat="47.4586" lon="3.75776">
        <ele>193</ele>
        <time>2014-04-18T08:32:37Z</time>
      </trkpt>
      <trkpt lat="47.45856" lon="3.7578">
        <ele>193</ele>
        <time>2014-04-18T08:32:42Z</time>
      </trkpt>
      <trkpt lat="47.45854" lon="3.75786">
        <ele>192</ele>
        <time>2014-04-18T08:32:46Z</time>
      </trkpt>
      <trkpt lat="47.4585" lon="3.75792">
        <ele>192</ele>
        <time>2014-04-18T08:32:50Z</time>
      </trkpt>
      <trkpt lat="47.45848" lon="3.75798">
        <ele>192</ele>
        <time>2014-04-18T08:32:53Z</time>
      </trkpt>
      <trkpt lat="47.45847" lon="3.75806">
        <ele>192</ele>
        <time>2014-04-18T08:32:57Z</time>
      </trkpt>
      <trkpt lat="47.45842" lon="3.7582">
        <ele>191</ele>
        <time>2014-04-18T08:33:09Z</time>
      </trkpt>
      <trkpt lat="47.45841" lon="3.75827">
        <ele>190</ele>
        <time>2014-04-18T08:33:13Z</time>
      </trkpt>
      <trkpt lat="47.45839" lon="3.75833">
        <ele>189</ele>
        <time>2014-04-18T08:33:18Z</time>
      </trkpt>
      <trkpt lat="47.45835" lon="3.75847">
        <ele>190</ele>
        <time>2014-04-18T08:33:30Z</time>
      </trkpt>
      <trkpt lat="47.45826" lon="3.75864">
        <ele>183</ele>
        <time>2014-04-18T08:33:43Z</time>
      </trkpt>
      <trkpt lat="47.45812" lon="3.75901">
        <ele>182</ele>
        <time>2014-04-18T08:34:04Z</time>
      </trkpt>
      <trkpt lat="47.45811" lon="3.75902">
        <ele>182</ele>
        <time>2014-04-18T08:34:21Z</time>
      </trkpt>
      <trkpt lat="47.45809" lon="3.7591">
        <ele>182</ele>
        <time>2014-04-18T08:34:33Z</time>
      </trkpt>
      <trkpt lat="47.45805" lon="3.75913">
        <ele>181</ele>
        <time>2014-04-18T08:34:41Z</time>
      </trkpt>
      <trkpt lat="47.45799" lon="3.75925">
        <ele>178</ele>
        <time>2014-04-18T08:34:48Z</time>
      </trkpt>
      <trkpt lat="47.45795" lon="3.75928">
        <ele>177</ele>
        <time>2014-04-18T08:34:52Z</time>
      </trkpt>
      <trkpt lat="47.45792" lon="3.75935">
        <ele>177</ele>
        <time>2014-04-18T08:34:56Z</time>
      </trkpt>
      <trkpt lat="47.45789" lon="3.75941">
        <ele>176</ele>
        <time>2014-04-18T08:35:01Z</time>
      </trkpt>
      <trkpt lat="47.45788" lon="3.75971">
        <ele>175</ele>
        <time>2014-04-18T08:35:16Z</time>
      </trkpt>
      <trkpt lat="47.45795" lon="3.76012">
        <ele>173</ele>
        <time>2014-04-18T08:35:39Z</time>
      </trkpt>
      <trkpt lat="47.45792" lon="3.76027">
        <ele>172</ele>
        <time>2014-04-18T08:35:47Z</time>
      </trkpt>
      <trkpt lat="47.45789" lon="3.76032">
        <ele>171</ele>
        <time>2014-04-18T08:35:50Z</time>
      </trkpt>
      <trkpt lat="47.45787" lon="3.7604">
        <ele>171</ele>
        <time>2014-04-18T08:35:55Z</time>
      </trkpt>
      <trkpt lat="47.45794" lon="3.76052">
        <ele>171</ele>
        <time>2014-04-18T08:36:05Z</time>
      </trkpt>
      <trkpt lat="47.45794" lon="3.76059">
        <ele>171</ele>
        <time>2014-04-18T08:36:09Z</time>
      </trkpt>
      <trkpt lat="47.45794" lon="3.76068">
        <ele>171</ele>
        <time>2014-04-18T08:36:12Z</time>
      </trkpt>
      <trkpt lat="47.45795" lon="3.76076">
        <ele>171</ele>
        <time>2014-04-18T08:36:15Z</time>
      </trkpt>
      <trkpt lat="47.458" lon="3.7608">
        <ele>172</ele>
        <time>2014-04-18T08:36:19Z</time>
      </trkpt>
      <trkpt lat="47.45803" lon="3.76085">
        <ele>168</ele>
        <time>2014-04-18T08:36:23Z</time>
      </trkpt>
      <trkpt lat="47.45805" lon="3.76099">
        <ele>168</ele>
        <time>2014-04-18T08:36:31Z</time>
      </trkpt>
      <trkpt lat="47.45806" lon="3.76113">
        <ele>167</ele>
        <time>2014-04-18T08:36:37Z</time>
      </trkpt>
      <trkpt lat="47.45809" lon="3.76125">
        <ele>166</ele>
        <time>2014-04-18T08:36:47Z</time>
      </trkpt>
      <trkpt lat="47.45813" lon="3.76131">
        <ele>166</ele>
        <time>2014-04-18T08:36:51Z</time>
      </trkpt>
      <trkpt lat="47.45816" lon="3.76136">
        <ele>166</ele>
        <time>2014-04-18T08:36:55Z</time>
      </trkpt>
      <trkpt lat="47.45819" lon="3.7615">
        <ele>166</ele>
        <time>2014-04-18T08:37:04Z</time>
      </trkpt>
      <trkpt lat="47.45821" lon="3.76156">
        <ele>165</ele>
        <time>2014-04-18T08:37:08Z</time>
      </trkpt>
      <trkpt lat="47.45819" lon="3.76163">
        <ele>165</ele>
        <time>2014-04-18T08:37:12Z</time>
      </trkpt>
      <trkpt lat="47.45826" lon="3.76173">
        <ele>163</ele>
        <time>2014-04-18T08:37:21Z</time>
      </trkpt>
      <trkpt lat="47.4583" lon="3.76186">
        <ele>160</ele>
        <time>2014-04-18T08:37:29Z</time>
      </trkpt>
      <trkpt lat="47.45829" lon="3.76201">
        <ele>158</ele>
        <time>2014-04-18T08:37:35Z</time>
      </trkpt>
      <trkpt lat="47.4583" lon="3.76209">
        <ele>157</ele>
        <time>2014-04-18T08:37:38Z</time>
      </trkpt>
      <trkpt lat="47.45828" lon="3.76223">
        <ele>156</ele>
        <time>2014-04-18T08:37:44Z</time>
      </trkpt>
      <trkpt lat="47.45829" lon="3.76231">
        <ele>155</ele>
        <time>2014-04-18T08:37:47Z</time>
      </trkpt>
      <trkpt lat="47.45828" lon="3.76238">
        <ele>154</ele>
        <time>2014-04-18T08:37:51Z</time>
      </trkpt>
      <trkpt lat="47.45826" lon="3.76245">
        <ele>154</ele>
        <time>2014-04-18T08:37:56Z</time>
      </trkpt>
      <trkpt lat="47.45826" lon="3.76269">
        <ele>151</ele>
        <time>2014-04-18T08:38:08Z</time>
      </trkpt>
      <trkpt lat="47.45824" lon="3.76276">
        <ele>151</ele>
        <time>2014-04-18T08:38:14Z</time>
      </trkpt>
      <trkpt lat="47.45823" lon="3.76291">
        <ele>151</ele>
        <time>2014-04-18T08:38:23Z</time>
      </trkpt>
      <trkpt lat="47.45819" lon="3.76321">
        <ele>150</ele>
        <time>2014-04-18T08:38:37Z</time>
      </trkpt>
      <trkpt lat="47.45817" lon="3.76323">
        <ele>150</ele>
        <time>2014-04-18T08:38:44Z</time>
      </trkpt>
      <trkpt lat="47.45797" lon="3.76334">
        <ele>149</ele>
        <time>2014-04-18T08:39:08Z</time>
      </trkpt>
      <trkpt lat="47.4579" lon="3.76345">
        <ele>149</ele>
        <time>2014-04-18T08:39:15Z</time>
      </trkpt>
      <trkpt lat="47.45785" lon="3.76349">
        <ele>149</ele>
        <time>2014-04-18T08:39:19Z</time>
      </trkpt>
      <trkpt lat="47.45781" lon="3.76351">
        <ele>149</ele>
        <time>2014-04-18T08:39:23Z</time>
      </trkpt>
      <trkpt lat="47.45776" lon="3.76355">
        <ele>149</ele>
        <time>2014-04-18T08:39:27Z</time>
      </trkpt>
      <trkpt lat="47.45771" lon="3.76357">
        <ele>149</ele>
        <time>2014-04-18T08:39:31Z</time>
      </trkpt>
      <trkpt lat="47.45766" lon="3.76362">
        <ele>149</ele>
        <time>2014-04-18T08:39:35Z</time>
      </trkpt>
      <trkpt lat="47.45763" lon="3.76367">
        <ele>149</ele>
        <time>2014-04-18T08:39:38Z</time>
      </trkpt>
      <trkpt lat="47.45764" lon="3.76365">
        <ele>149</ele>
        <time>2014-04-18T08:39:51Z</time>
      </trkpt>
      <trkpt lat="47.45768" lon="3.76361">
        <ele>149</ele>
        <time>2014-04-18T08:39:53Z</time>
      </trkpt>
      <trkpt lat="47.45773" lon="3.76356">
        <ele>149</ele>
        <time>2014-04-18T08:39:56Z</time>
      </trkpt>
      <trkpt lat="47.45786" lon="3.76342">
        <ele>149</ele>
        <time>2014-04-18T08:40:07Z</time>
      </trkpt>
      <trkpt lat="47.45796" lon="3.76338">
        <ele>149</ele>
        <time>2014-04-18T08:40:14Z</time>
      </trkpt>
      <trkpt lat="47.458" lon="3.76334">
        <ele>149</ele>
        <time>2014-04-18T08:40:18Z</time>
      </trkpt>
      <trkpt lat="47.45804" lon="3.76328">
        <ele>150</ele>
        <time>2014-04-18T08:40:22Z</time>
      </trkpt>
      <trkpt lat="47.45808" lon="3.76323">
        <ele>150</ele>
        <time>2014-04-18T08:40:27Z</time>
      </trkpt>
      <trkpt lat="47.45813" lon="3.76321">
        <ele>150</ele>
        <time>2014-04-18T08:40:32Z</time>
      </trkpt>
      <trkpt lat="47.45817" lon="3.76324">
        <ele>150</ele>
        <time>2014-04-18T08:40:35Z</time>
      </trkpt>
      <trkpt lat="47.4582" lon="3.7633">
        <ele>150</ele>
        <time>2014-04-18T08:40:39Z</time>
      </trkpt>
      <trkpt lat="47.45821" lon="3.76338">
        <ele>149</ele>
        <time>2014-04-18T08:40:42Z</time>
      </trkpt>
      <trkpt lat="47.45819" lon="3.76345">
        <ele>149</ele>
        <time>2014-04-18T08:40:46Z</time>
      </trkpt>
      <trkpt lat="47.45812" lon="3.76355">
        <ele>149</ele>
        <time>2014-04-18T08:41:14Z</time>
      </trkpt>
      <trkpt lat="47.45809" lon="3.76361">
        <ele>149</ele>
        <time>2014-04-18T08:41:17Z</time>
      </trkpt>
      <trkpt lat="47.45802" lon="3.76372">
        <ele>149</ele>
        <time>2014-04-18T08:41:26Z</time>
      </trkpt>
      <trkpt lat="47.45797" lon="3.76386">
        <ele>149</ele>
        <time>2014-04-18T08:41:35Z</time>
      </trkpt>
      <trkpt lat="47.45797" lon="3.76393">
        <ele>149</ele>
        <time>2014-04-18T08:41:39Z</time>
      </trkpt>
      <trkpt lat="47.45795" lon="3.76401">
        <ele>149</ele>
        <time>2014-04-18T08:41:44Z</time>
      </trkpt>
      <trkpt lat="47.45785" lon="3.76417">
        <ele>150</ele>
        <time>2014-04-18T08:41:59Z</time>
      </trkpt>
      <trkpt lat="47.45783" lon="3.76433">
        <ele>150</ele>
        <time>2014-04-18T08:42:06Z</time>
      </trkpt>
      <trkpt lat="47.45778" lon="3.76438">
        <ele>150</ele>
        <time>2014-04-18T08:42:09Z</time>
      </trkpt>
      <trkpt lat="47.45773" lon="3.76442">
        <ele>150</ele>
        <time>2014-04-18T08:42:12Z</time>
      </trkpt>
      <trkpt lat="47.4577" lon="3.76448">
        <ele>150</ele>
        <time>2014-04-18T08:42:16Z</time>
      </trkpt>
      <trkpt lat="47.45765" lon="3.76463">
        <ele>150</ele>
        <time>2014-04-18T08:42:23Z</time>
      </trkpt>
      <trkpt lat="47.45763" lon="3.76471">
        <ele>150</ele>
        <time>2014-04-18T08:42:27Z</time>
      </trkpt>
      <trkpt lat="47.45767" lon="3.76476">
        <ele>150</ele>
        <time>2014-04-18T08:42:32Z</time>
      </trkpt>
      <trkpt lat="47.45772" lon="3.76478">
        <ele>150</ele>
        <time>2014-04-18T08:42:36Z</time>
      </trkpt>
      <trkpt lat="47.45782" lon="3.76484">
        <ele>150</ele>
        <time>2014-04-18T08:42:41Z</time>
      </trkpt>
      <trkpt lat="47.45787" lon="3.76486">
        <ele>150</ele>
        <time>2014-04-18T08:42:43Z</time>
      </trkpt>
      <trkpt lat="47.45792" lon="3.76485">
        <ele>150</ele>
        <time>2014-04-18T08:42:46Z</time>
      </trkpt>
      <trkpt lat="47.45801" lon="3.76495">
        <ele>150</ele>
        <time>2014-04-18T08:42:56Z</time>
      </trkpt>
      <trkpt lat="47.45804" lon="3.765">
        <ele>150</ele>
        <time>2014-04-18T08:43:00Z</time>
      </trkpt>
      <trkpt lat="47.45809" lon="3.76504">
        <ele>150</ele>
        <time>2014-04-18T08:43:06Z</time>
      </trkpt>
      <trkpt lat="47.45813" lon="3.76509">
        <ele>150</ele>
        <time>2014-04-18T08:43:10Z</time>
      </trkpt>
      <trkpt lat="47.45817" lon="3.76506">
        <ele>150</ele>
        <time>2014-04-18T08:43:14Z</time>
      </trkpt>
      <trkpt lat="47.45822" lon="3.76505">
        <ele>150</ele>
        <time>2014-04-18T08:43:17Z</time>
      </trkpt>
      <trkpt lat="47.45827" lon="3.765">
        <ele>150</ele>
        <time>2014-04-18T08:43:20Z</time>
      </trkpt>
      <trkpt lat="47.45828" lon="3.765">
        <ele>150</ele>
        <time>2014-04-18T08:43:34Z</time>
      </trkpt>
      <trkpt lat="47.45829" lon="3.76507">
        <ele>150</ele>
        <time>2014-04-18T08:43:47Z</time>
      </trkpt>
      <trkpt lat="47.45824" lon="3.76508">
        <ele>150</ele>
        <time>2014-04-18T08:43:52Z</time>
      </trkpt>
      <trkpt lat="47.45825" lon="3.76513">
        <ele>150</ele>
        <time>2014-04-18T08:44:02Z</time>
      </trkpt>
      <trkpt lat="47.45826" lon="3.76514">
        <ele>150</ele>
        <time>2014-04-18T08:44:18Z</time>
      </trkpt>
      <trkpt lat="47.4582" lon="3.7651">
        <ele>150</ele>
        <time>2014-04-18T08:44:21Z</time>
      </trkpt>
      <trkpt lat="47.45816" lon="3.76513">
        <ele>150</ele>
        <time>2014-04-18T08:44:24Z</time>
      </trkpt>
      <trkpt lat="47.45812" lon="3.76516">
        <ele>150</ele>
        <time>2014-04-18T08:44:31Z</time>
      </trkpt>
      <trkpt lat="47.45812" lon="3.76511">
        <ele>150</ele>
        <time>2014-04-18T08:47:34Z</time>
      </trkpt>
      <trkpt lat="47.45815" lon="3.76507">
        <ele>150</ele>
        <time>2014-04-18T08:47:40Z</time>
      </trkpt>
      <trkpt lat="47.45819" lon="3.76501">
        <ele>150</ele>
        <time>2014-04-18T08:47:44Z</time>
      </trkpt>
      <trkpt lat="47.45823" lon="3.76497">
        <ele>150</ele>
        <time>2014-04-18T08:47:47Z</time>
      </trkpt>
      <trkpt lat="47.45827" lon="3.76495">
        <ele>150</ele>
        <time>2014-04-18T08:47:52Z</time>
      </trkpt>
      <trkpt lat="47.45832" lon="3.76496">
        <ele>150</ele>
        <time>2014-04-18T08:47:57Z</time>
      </trkpt>
      <trkpt lat="47.45832" lon="3.76501">
        <ele>150</ele>
        <time>2014-04-18T08:48:44Z</time>
      </trkpt>
      <trkpt lat="47.45829" lon="3.76507">
        <ele>150</ele>
        <time>2014-04-18T08:48:47Z</time>
      </trkpt>
      <trkpt lat="47.45824" lon="3.7651">
        <ele>150</ele>
        <time>2014-04-18T08:48:50Z</time>
      </trkpt>
      <trkpt lat="47.4581" lon="3.76507">
        <ele>150</ele>
        <time>2014-04-18T08:49:04Z</time>
      </trkpt>
      <trkpt lat="47.45805" lon="3.76503">
        <ele>150</ele>
        <time>2014-04-18T08:49:08Z</time>
      </trkpt>
      <trkpt lat="47.45801" lon="3.76501">
        <ele>150</ele>
        <time>2014-04-18T08:49:12Z</time>
      </trkpt>
      <trkpt lat="47.45797" lon="3.76497">
        <ele>150</ele>
        <time>2014-04-18T08:49:18Z</time>
      </trkpt>
      <trkpt lat="47.45794" lon="3.76492">
        <ele>150</ele>
        <time>2014-04-18T08:49:21Z</time>
      </trkpt>
      <trkpt lat="47.45792" lon="3.76485">
        <ele>150</ele>
        <time>2014-04-18T08:49:25Z</time>
      </trkpt>
      <trkpt lat="47.45777" lon="3.76471">
        <ele>150</ele>
        <time>2014-04-18T08:49:38Z</time>
      </trkpt>
      <trkpt lat="47.45766" lon="3.7647">
        <ele>150</ele>
        <time>2014-04-18T08:49:48Z</time>
      </trkpt>
      <trkpt lat="47.45746" lon="3.76463">
        <ele>155</ele>
        <time>2014-04-18T08:50:03Z</time>
      </trkpt>
      <trkpt lat="47.45731" lon="3.76456">
        <ele>156</ele>
        <time>2014-04-18T08:50:18Z</time>
      </trkpt>
      <trkpt lat="47.45726" lon="3.76458">
        <ele>156</ele>
        <time>2014-04-18T08:50:21Z</time>
      </trkpt>
      <trkpt lat="47.45723" lon="3.76463">
        <ele>157</ele>
        <time>2014-04-18T08:50:25Z</time>
      </trkpt>
      <trkpt lat="47.45719" lon="3.76467">
        <ele>157</ele>
        <time>2014-04-18T08:50:29Z</time>
      </trkpt>
      <trkpt lat="47.45716" lon="3.76473">
        <ele>157</ele>
        <time>2014-04-18T08:50:33Z</time>
      </trkpt>
      <trkpt lat="47.45712" lon="3.76478">
        <ele>158</ele>
        <time>2014-04-18T08:50:40Z</time>
      </trkpt>
      <trkpt lat="47.4571" lon="3.76484">
        <ele>158</ele>
        <time>2014-04-18T08:50:46Z</time>
      </trkpt>
      <trkpt lat="47.45709" lon="3.76492">
        <ele>158</ele>
        <time>2014-04-18T08:50:51Z</time>
      </trkpt>
      <trkpt lat="47.45706" lon="3.76506">
        <ele>157</ele>
        <time>2014-04-18T08:51:00Z</time>
      </trkpt>
      <trkpt lat="47.45705" lon="3.76514">
        <ele>156</ele>
        <time>2014-04-18T08:51:04Z</time>
      </trkpt>
      <trkpt lat="47.45704" lon="3.76521">
        <ele>156</ele>
        <time>2014-04-18T08:51:09Z</time>
      </trkpt>
      <trkpt lat="47.4569" lon="3.76554">
        <ele>155</ele>
        <time>2014-04-18T08:51:31Z</time>
      </trkpt>
      <trkpt lat="47.45687" lon="3.76561">
        <ele>155</ele>
        <time>2014-04-18T08:51:35Z</time>
      </trkpt>
      <trkpt lat="47.45685" lon="3.76567">
        <ele>155</ele>
        <time>2014-04-18T08:51:40Z</time>
      </trkpt>
      <trkpt lat="47.45682" lon="3.76574">
        <ele>155</ele>
        <time>2014-04-18T08:51:45Z</time>
      </trkpt>
      <trkpt lat="47.4568" lon="3.76577">
        <ele>155</ele>
        <time>2014-04-18T08:51:52Z</time>
      </trkpt>
      <trkpt lat="47.45679" lon="3.76584">
        <ele>153</ele>
        <time>2014-04-18T08:52:06Z</time>
      </trkpt>
      <trkpt lat="47.45662" lon="3.76625">
        <ele>158</ele>
        <time>2014-04-18T08:52:35Z</time>
      </trkpt>
      <trkpt lat="47.45659" lon="3.76631">
        <ele>158</ele>
        <time>2014-04-18T08:52:38Z</time>
      </trkpt>
      <trkpt lat="47.45656" lon="3.76636">
        <ele>158</ele>
        <time>2014-04-18T08:52:41Z</time>
      </trkpt>
      <trkpt lat="47.45653" lon="3.76642">
        <ele>158</ele>
        <time>2014-04-18T08:52:44Z</time>
      </trkpt>
      <trkpt lat="47.45649" lon="3.76644">
        <ele>158</ele>
        <time>2014-04-18T08:53:09Z</time>
      </trkpt>
      <trkpt lat="47.45644" lon="3.76659">
        <ele>157</ele>
        <time>2014-04-18T08:53:57Z</time>
      </trkpt>
      <trkpt lat="47.45639" lon="3.7666">
        <ele>158</ele>
        <time>2014-04-18T08:55:11Z</time>
      </trkpt>
      <trkpt lat="47.45636" lon="3.76665">
        <ele>158</ele>
        <time>2014-04-18T08:55:14Z</time>
      </trkpt>
      <trkpt lat="47.45626" lon="3.76685">
        <ele>154</ele>
        <time>2014-04-18T08:55:25Z</time>
      </trkpt>
      <trkpt lat="47.45618" lon="3.76695">
        <ele>155</ele>
        <time>2014-04-18T08:55:30Z</time>
      </trkpt>
      <trkpt lat="47.45615" lon="3.76701">
        <ele>155</ele>
        <time>2014-04-18T08:55:33Z</time>
      </trkpt>
      <trkpt lat="47.45595" lon="3.76724">
        <ele>154</ele>
        <time>2014-04-18T08:55:51Z</time>
      </trkpt>
      <trkpt lat="47.45574" lon="3.76745">
        <ele>158</ele>
        <time>2014-04-18T08:56:11Z</time>
      </trkpt>
      <trkpt lat="47.45566" lon="3.76755">
        <ele>155</ele>
        <time>2014-04-18T08:56:16Z</time>
      </trkpt>
      <trkpt lat="47.45561" lon="3.76755">
        <ele>155</ele>
        <time>2014-04-18T08:56:22Z</time>
      </trkpt>
      <trkpt lat="47.45556" lon="3.76758">
        <ele>156</ele>
        <time>2014-04-18T08:56:28Z</time>
      </trkpt>
      <trkpt lat="47.45552" lon="3.76763">
        <ele>156</ele>
        <time>2014-04-18T08:56:31Z</time>
      </trkpt>
      <trkpt lat="47.45539" lon="3.76775">
        <ele>157</ele>
        <time>2014-04-18T08:56:40Z</time>
      </trkpt>
      <trkpt lat="47.45535" lon="3.76778">
        <ele>157</ele>
        <time>2014-04-18T08:56:44Z</time>
      </trkpt>
      <trkpt lat="47.45522" lon="3.76792">
        <ele>157</ele>
        <time>2014-04-18T08:56:59Z</time>
      </trkpt>
      <trkpt lat="47.45516" lon="3.76796">
        <ele>157</ele>
        <time>2014-04-18T08:57:02Z</time>
      </trkpt>
      <trkpt lat="47.45512" lon="3.768">
        <ele>157</ele>
        <time>2014-04-18T08:57:05Z</time>
      </trkpt>
      <trkpt lat="47.45508" lon="3.76804">
        <ele>157</ele>
        <time>2014-04-18T08:57:09Z</time>
      </trkpt>
      <trkpt lat="47.45502" lon="3.76806">
        <ele>156</ele>
        <time>2014-04-18T08:57:13Z</time>
      </trkpt>
      <trkpt lat="47.45497" lon="3.76808">
        <ele>162</ele>
        <time>2014-04-18T08:57:16Z</time>
      </trkpt>
      <trkpt lat="47.45492" lon="3.76811">
        <ele>162</ele>
        <time>2014-04-18T08:57:21Z</time>
      </trkpt>
      <trkpt lat="47.45489" lon="3.76817">
        <ele>161</ele>
        <time>2014-04-18T08:57:24Z</time>
      </trkpt>
      <trkpt lat="47.45476" lon="3.76832">
        <ele>162</ele>
        <time>2014-04-18T08:57:34Z</time>
      </trkpt>
      <trkpt lat="47.45449" lon="3.76856">
        <ele>159</ele>
        <time>2014-04-18T08:57:56Z</time>
      </trkpt>
      <trkpt lat="47.45448" lon="3.76864">
        <ele>159</ele>
        <time>2014-04-18T08:58:03Z</time>
      </trkpt>
      <trkpt lat="47.45445" lon="3.76869">
        <ele>159</ele>
        <time>2014-04-18T08:58:08Z</time>
      </trkpt>
      <trkpt lat="47.45442" lon="3.76876">
        <ele>159</ele>
        <time>2014-04-18T08:58:13Z</time>
      </trkpt>
      <trkpt lat="47.45439" lon="3.76881">
        <ele>159</ele>
        <time>2014-04-18T08:58:17Z</time>
      </trkpt>
      <trkpt lat="47.45435" lon="3.76885">
        <ele>159</ele>
        <time>2014-04-18T08:58:21Z</time>
      </trkpt>
      <trkpt lat="47.4543" lon="3.76889">
        <ele>159</ele>
        <time>2014-04-18T08:58:25Z</time>
      </trkpt>
      <trkpt lat="47.45426" lon="3.76894">
        <ele>159</ele>
        <time>2014-04-18T08:58:30Z</time>
      </trkpt>
      <trkpt lat="47.45412" lon="3.76914">
        <ele>160</ele>
        <time>2014-04-18T08:58:42Z</time>
      </trkpt>
      <trkpt lat="47.45409" lon="3.76921">
        <ele>159</ele>
        <time>2014-04-18T08:58:45Z</time>
      </trkpt>
      <trkpt lat="47.45406" lon="3.76926">
        <ele>158</ele>
        <time>2014-04-18T08:58:48Z</time>
      </trkpt>
      <trkpt lat="47.45402" lon="3.76929">
        <ele>158</ele>
        <time>2014-04-18T08:58:54Z</time>
      </trkpt>
      <trkpt lat="47.45397" lon="3.76933">
        <ele>158</ele>
        <time>2014-04-18T08:58:58Z</time>
      </trkpt>
      <trkpt lat="47.4539" lon="3.76943">
        <ele>158</ele>
        <time>2014-04-18T08:59:06Z</time>
      </trkpt>
      <trkpt lat="47.45385" lon="3.76945">
        <ele>158</ele>
        <time>2014-04-18T08:59:10Z</time>
      </trkpt>
      <trkpt lat="47.4538" lon="3.76948">
        <ele>158</ele>
        <time>2014-04-18T08:59:14Z</time>
      </trkpt>
      <trkpt lat="47.45367" lon="3.76958">
        <ele>157</ele>
        <time>2014-04-18T08:59:26Z</time>
      </trkpt>
      <trkpt lat="47.45361" lon="3.76959">
        <ele>158</ele>
        <time>2014-04-18T08:59:31Z</time>
      </trkpt>
      <trkpt lat="47.45352" lon="3.76961">
        <ele>158</ele>
        <time>2014-04-18T08:59:37Z</time>
      </trkpt>
      <trkpt lat="47.45348" lon="3.76961">
        <ele>158</ele>
        <time>2014-04-18T08:59:40Z</time>
      </trkpt>
      <trkpt lat="47.45338" lon="3.76958">
        <ele>158</ele>
        <time>2014-04-18T08:59:48Z</time>
      </trkpt>
      <trkpt lat="47.45333" lon="3.76958">
        <ele>160</ele>
        <time>2014-04-18T08:59:51Z</time>
      </trkpt>
      <trkpt lat="47.45327" lon="3.76958">
        <ele>160</ele>
        <time>2014-04-18T08:59:55Z</time>
      </trkpt>
      <trkpt lat="47.45322" lon="3.76959">
        <ele>160</ele>
        <time>2014-04-18T08:59:58Z</time>
      </trkpt>
      <trkpt lat="47.45312" lon="3.76962">
        <ele>160</ele>
        <time>2014-04-18T09:00:04Z</time>
      </trkpt>
      <trkpt lat="47.45303" lon="3.76963">
        <ele>160</ele>
        <time>2014-04-18T09:00:12Z</time>
      </trkpt>
      <trkpt lat="47.45298" lon="3.76963">
        <ele>160</ele>
        <time>2014-04-18T09:00:15Z</time>
      </trkpt>
      <trkpt lat="47.45287" lon="3.7696">
        <ele>160</ele>
        <time>2014-04-18T09:00:23Z</time>
      </trkpt>
      <trkpt lat="47.45282" lon="3.76959">
        <ele>160</ele>
        <time>2014-04-18T09:00:27Z</time>
      </trkpt>
      <trkpt lat="47.45267" lon="3.76959">
        <ele>160</ele>
        <time>2014-04-18T09:00:39Z</time>
      </trkpt>
      <trkpt lat="47.45262" lon="3.76958">
        <ele>160</ele>
        <time>2014-04-18T09:00:43Z</time>
      </trkpt>
      <trkpt lat="47.45257" lon="3.76958">
        <ele>160</ele>
        <time>2014-04-18T09:00:47Z</time>
      </trkpt>
      <trkpt lat="47.45247" lon="3.7696">
        <ele>161</ele>
        <time>2014-04-18T09:00:55Z</time>
      </trkpt>
      <trkpt lat="47.45235" lon="3.7696">
        <ele>161</ele>
        <time>2014-04-18T09:01:04Z</time>
      </trkpt>
      <trkpt lat="47.4523" lon="3.76959">
        <ele>162</ele>
        <time>2014-04-18T09:01:08Z</time>
      </trkpt>
      <trkpt lat="47.45225" lon="3.7696">
        <ele>162</ele>
        <time>2014-04-18T09:01:12Z</time>
      </trkpt>
      <trkpt lat="47.4522" lon="3.76961">
        <ele>162</ele>
        <time>2014-04-18T09:01:16Z</time>
      </trkpt>
      <trkpt lat="47.4521" lon="3.76965">
        <ele>162</ele>
        <time>2014-04-18T09:01:24Z</time>
      </trkpt>
      <trkpt lat="47.45206" lon="3.76966">
        <ele>162</ele>
        <time>2014-04-18T09:01:28Z</time>
      </trkpt>
      <trkpt lat="47.452" lon="3.76966">
        <ele>162</ele>
        <time>2014-04-18T09:01:32Z</time>
      </trkpt>
      <trkpt lat="47.45176" lon="3.76976">
        <ele>161</ele>
        <time>2014-04-18T09:01:50Z</time>
      </trkpt>
      <trkpt lat="47.45172" lon="3.7698">
        <ele>161</ele>
        <time>2014-04-18T09:01:54Z</time>
      </trkpt>
      <trkpt lat="47.45167" lon="3.76984">
        <ele>161</ele>
        <time>2014-04-18T09:01:57Z</time>
      </trkpt>
      <trkpt lat="47.45162" lon="3.76985">
        <ele>161</ele>
        <time>2014-04-18T09:02:01Z</time>
      </trkpt>
      <trkpt lat="47.45153" lon="3.76988">
        <ele>161</ele>
        <time>2014-04-18T09:02:10Z</time>
      </trkpt>
      <trkpt lat="47.45147" lon="3.7699">
        <ele>161</ele>
        <time>2014-04-18T09:02:14Z</time>
      </trkpt>
      <trkpt lat="47.45143" lon="3.76994">
        <ele>161</ele>
        <time>2014-04-18T09:02:17Z</time>
      </trkpt>
      <trkpt lat="47.45138" lon="3.76994">
        <ele>161</ele>
        <time>2014-04-18T09:02:22Z</time>
      </trkpt>
      <trkpt lat="47.45134" lon="3.76996">
        <ele>162</ele>
        <time>2014-04-18T09:02:26Z</time>
      </trkpt>
      <trkpt lat="47.45128" lon="3.76996">
        <ele>162</ele>
        <time>2014-04-18T09:02:30Z</time>
      </trkpt>
      <trkpt lat="47.45117" lon="3.76999">
        <ele>162</ele>
        <time>2014-04-18T09:02:39Z</time>
      </trkpt>
      <trkpt lat="47.45111" lon="3.77">
        <ele>162</ele>
        <time>2014-04-18T09:02:43Z</time>
      </trkpt>
      <trkpt lat="47.45106" lon="3.77001">
        <ele>160</ele>
        <time>2014-04-18T09:02:46Z</time>
      </trkpt>
      <trkpt lat="47.45101" lon="3.77">
        <ele>162</ele>
        <time>2014-04-18T09:02:49Z</time>
      </trkpt>
      <trkpt lat="47.45097" lon="3.76998">
        <ele>161</ele>
        <time>2014-04-18T09:02:53Z</time>
      </trkpt>
      <trkpt lat="47.45091" lon="3.76999">
        <ele>161</ele>
        <time>2014-04-18T09:02:58Z</time>
      </trkpt>
      <trkpt lat="47.45086" lon="3.77003">
        <ele>161</ele>
        <time>2014-04-18T09:03:01Z</time>
      </trkpt>
      <trkpt lat="47.45082" lon="3.77005">
        <ele>161</ele>
        <time>2014-04-18T09:03:05Z</time>
      </trkpt>
      <trkpt lat="47.45076" lon="3.77006">
        <ele>160</ele>
        <time>2014-04-18T09:03:09Z</time>
      </trkpt>
      <trkpt lat="47.45071" lon="3.77008">
        <ele>160</ele>
        <time>2014-04-18T09:03:12Z</time>
      </trkpt>
      <trkpt lat="47.45069" lon="3.77007">
        <ele>160</ele>
        <time>2014-04-18T09:03:18Z</time>
      </trkpt>
      <trkpt lat="47.45064" lon="3.77005">
        <ele>160</ele>
        <time>2014-04-18T09:03:22Z</time>
      </trkpt>
      <trkpt lat="47.45043" lon="3.77018">
        <ele>159</ele>
        <time>2014-04-18T09:03:34Z</time>
      </trkpt>
      <trkpt lat="47.45033" lon="3.77021">
        <ele>159</ele>
        <time>2014-04-18T09:03:42Z</time>
      </trkpt>
      <trkpt lat="47.45023" lon="3.77025">
        <ele>159</ele>
        <time>2014-04-18T09:03:49Z</time>
      </trkpt>
      <trkpt lat="47.45019" lon="3.77028">
        <ele>159</ele>
        <time>2014-04-18T09:03:52Z</time>
      </trkpt>
      <trkpt lat="47.45011" lon="3.77029">
        <ele>159</ele>
        <time>2014-04-18T09:04:04Z</time>
      </trkpt>
      <trkpt lat="47.45002" lon="3.77037">
        <ele>159</ele>
        <time>2014-04-18T09:04:09Z</time>
      </trkpt>
      <trkpt lat="47.44994" lon="3.77043">
        <ele>159</ele>
        <time>2014-04-18T09:04:16Z</time>
      </trkpt>
      <trkpt lat="47.4499" lon="3.77046">
        <ele>159</ele>
        <time>2014-04-18T09:04:22Z</time>
      </trkpt>
      <trkpt lat="47.44976" lon="3.77056">
        <ele>159</ele>
        <time>2014-04-18T09:04:34Z</time>
      </trkpt>
      <trkpt lat="47.44966" lon="3.77058">
        <ele>159</ele>
        <time>2014-04-18T09:04:41Z</time>
      </trkpt>
      <trkpt lat="47.44962" lon="3.7706">
        <ele>159</ele>
        <time>2014-04-18T09:04:51Z</time>
      </trkpt>
      <trkpt lat="47.44957" lon="3.77062">
        <ele>159</ele>
        <time>2014-04-18T09:04:59Z</time>
      </trkpt>
      <trkpt lat="47.44952" lon="3.77064">
        <ele>159</ele>
        <time>2014-04-18T09:05:03Z</time>
      </trkpt>
      <trkpt lat="47.44946" lon="3.77067">
        <ele>160</ele>
        <time>2014-04-18T09:05:07Z</time>
      </trkpt>
      <trkpt lat="47.44937" lon="3.77072">
        <ele>160</ele>
        <time>2014-04-18T09:05:15Z</time>
      </trkpt>
      <trkpt lat="47.44926" lon="3.77074">
        <ele>160</ele>
        <time>2014-04-18T09:05:23Z</time>
      </trkpt>
      <trkpt lat="47.44907" lon="3.77081">
        <ele>161</ele>
        <time>2014-04-18T09:05:39Z</time>
      </trkpt>
      <trkpt lat="47.44901" lon="3.77082">
        <ele>161</ele>
        <time>2014-04-18T09:05:43Z</time>
      </trkpt>
      <trkpt lat="47.44897" lon="3.77084">
        <ele>160</ele>
        <time>2014-04-18T09:05:47Z</time>
      </trkpt>
      <trkpt lat="47.44886" lon="3.77086">
        <ele>161</ele>
        <time>2014-04-18T09:05:57Z</time>
      </trkpt>
      <trkpt lat="47.44876" lon="3.77084">
        <ele>161</ele>
        <time>2014-04-18T09:06:05Z</time>
      </trkpt>
      <trkpt lat="47.4487" lon="3.77088">
        <ele>161</ele>
        <time>2014-04-18T09:06:06Z</time>
      </trkpt>
      <trkpt lat="47.44862" lon="3.77089">
        <ele>161</ele>
        <time>2014-04-18T09:06:14Z</time>
      </trkpt>
      <trkpt lat="47.44858" lon="3.77092">
        <ele>161</ele>
        <time>2014-04-18T09:06:18Z</time>
      </trkpt>
      <trkpt lat="47.44853" lon="3.77095">
        <ele>161</ele>
        <time>2014-04-18T09:06:21Z</time>
      </trkpt>
      <trkpt lat="47.44847" lon="3.77098">
        <ele>161</ele>
        <time>2014-04-18T09:06:24Z</time>
      </trkpt>
      <trkpt lat="47.44843" lon="3.77097">
        <ele>161</ele>
        <time>2014-04-18T09:06:28Z</time>
      </trkpt>
      <trkpt lat="47.44837" lon="3.77098">
        <ele>161</ele>
        <time>2014-04-18T09:06:32Z</time>
      </trkpt>
      <trkpt lat="47.44832" lon="3.77099">
        <ele>162</ele>
        <time>2014-04-18T09:06:40Z</time>
      </trkpt>
      <trkpt lat="47.44828" lon="3.77102">
        <ele>162</ele>
        <time>2014-04-18T09:06:44Z</time>
      </trkpt>
      <trkpt lat="47.44812" lon="3.77105">
        <ele>162</ele>
        <time>2014-04-18T09:06:57Z</time>
      </trkpt>
      <trkpt lat="47.44807" lon="3.77108">
        <ele>162</ele>
        <time>2014-04-18T09:07:00Z</time>
      </trkpt>
      <trkpt lat="47.44802" lon="3.77106">
        <ele>162</ele>
        <time>2014-04-18T09:07:08Z</time>
      </trkpt>
      <trkpt lat="47.44797" lon="3.77108">
        <ele>162</ele>
        <time>2014-04-18T09:07:12Z</time>
      </trkpt>
      <trkpt lat="47.44787" lon="3.77109">
        <ele>162</ele>
        <time>2014-04-18T09:07:20Z</time>
      </trkpt>
      <trkpt lat="47.4477" lon="3.77113">
        <ele>162</ele>
        <time>2014-04-18T09:07:33Z</time>
      </trkpt>
      <trkpt lat="47.44766" lon="3.77113">
        <ele>162</ele>
        <time>2014-04-18T09:07:37Z</time>
      </trkpt>
      <trkpt lat="47.4476" lon="3.77115">
        <ele>162</ele>
        <time>2014-04-18T09:07:40Z</time>
      </trkpt>
      <trkpt lat="47.44755" lon="3.77113">
        <ele>162</ele>
        <time>2014-04-18T09:07:44Z</time>
      </trkpt>
      <trkpt lat="47.44748" lon="3.77115">
        <ele>163</ele>
        <time>2014-04-18T09:07:47Z</time>
      </trkpt>
      <trkpt lat="47.44738" lon="3.77119">
        <ele>163</ele>
        <time>2014-04-18T09:08:02Z</time>
      </trkpt>
      <trkpt lat="47.44733" lon="3.77119">
        <ele>163</ele>
        <time>2014-04-18T09:08:07Z</time>
      </trkpt>
      <trkpt lat="47.44729" lon="3.77121">
        <ele>163</ele>
        <time>2014-04-18T09:08:12Z</time>
      </trkpt>
      <trkpt lat="47.44724" lon="3.77121">
        <ele>163</ele>
        <time>2014-04-18T09:08:16Z</time>
      </trkpt>
      <trkpt lat="47.44708" lon="3.77127">
        <ele>163</ele>
        <time>2014-04-18T09:08:23Z</time>
      </trkpt>
      <trkpt lat="47.44702" lon="3.77129">
        <ele>163</ele>
        <time>2014-04-18T09:08:26Z</time>
      </trkpt>
      <trkpt lat="47.44699" lon="3.77129">
        <ele>163</ele>
        <time>2014-04-18T09:08:28Z</time>
      </trkpt>
      <trkpt lat="47.44692" lon="3.77128">
        <ele>163</ele>
        <time>2014-04-18T09:08:36Z</time>
      </trkpt>
      <trkpt lat="47.44685" lon="3.77133">
        <ele>163</ele>
        <time>2014-04-18T09:08:39Z</time>
      </trkpt>
      <trkpt lat="47.44677" lon="3.7714">
        <ele>163</ele>
        <time>2014-04-18T09:08:42Z</time>
      </trkpt>
      <trkpt lat="47.44674" lon="3.7714">
        <ele>163</ele>
        <time>2014-04-18T09:08:46Z</time>
      </trkpt>
      <trkpt lat="47.44672" lon="3.7714">
        <ele>163</ele>
        <time>2014-04-18T09:08:48Z</time>
      </trkpt>
      <trkpt lat="47.44667" lon="3.77139">
        <ele>164</ele>
        <time>2014-04-18T09:08:52Z</time>
      </trkpt>
      <trkpt lat="47.44661" lon="3.77138">
        <ele>164</ele>
        <time>2014-04-18T09:08:56Z</time>
      </trkpt>
      <trkpt lat="47.44656" lon="3.77139">
        <ele>164</ele>
        <time>2014-04-18T09:08:59Z</time>
      </trkpt>
      <trkpt lat="47.44646" lon="3.77144">
        <ele>164</ele>
        <time>2014-04-18T09:09:10Z</time>
      </trkpt>
      <trkpt lat="47.4464" lon="3.77143">
        <ele>164</ele>
        <time>2014-04-18T09:09:14Z</time>
      </trkpt>
      <trkpt lat="47.44635" lon="3.77144">
        <ele>164</ele>
        <time>2014-04-18T09:09:17Z</time>
      </trkpt>
      <trkpt lat="47.4463" lon="3.77148">
        <ele>164</ele>
        <time>2014-04-18T09:09:20Z</time>
      </trkpt>
      <trkpt lat="47.44625" lon="3.7715">
        <ele>165</ele>
        <time>2014-04-18T09:09:25Z</time>
      </trkpt>
      <trkpt lat="47.4462" lon="3.77148">
        <ele>165</ele>
        <time>2014-04-18T09:09:31Z</time>
      </trkpt>
      <trkpt lat="47.44611" lon="3.77149">
        <ele>165</ele>
        <time>2014-04-18T09:09:42Z</time>
      </trkpt>
      <trkpt lat="47.44606" lon="3.77149">
        <ele>165</ele>
        <time>2014-04-18T09:09:46Z</time>
      </trkpt>
      <trkpt lat="47.44601" lon="3.7715">
        <ele>165</ele>
        <time>2014-04-18T09:09:49Z</time>
      </trkpt>
      <trkpt lat="47.44591" lon="3.77149">
        <ele>165</ele>
        <time>2014-04-18T09:10:00Z</time>
      </trkpt>
      <trkpt lat="47.44586" lon="3.7715">
        <ele>165</ele>
        <time>2014-04-18T09:10:06Z</time>
      </trkpt>
      <trkpt lat="47.44582" lon="3.7715">
        <ele>165</ele>
        <time>2014-04-18T09:10:09Z</time>
      </trkpt>
      <trkpt lat="47.44577" lon="3.7715">
        <ele>165</ele>
        <time>2014-04-18T09:10:12Z</time>
      </trkpt>
      <trkpt lat="47.44571" lon="3.77153">
        <ele>165</ele>
        <time>2014-04-18T09:10:15Z</time>
      </trkpt>
      <trkpt lat="47.44558" lon="3.77165">
        <ele>165</ele>
        <time>2014-04-18T09:10:26Z</time>
      </trkpt>
      <trkpt lat="47.44553" lon="3.77164">
        <ele>165</ele>
        <time>2014-04-18T09:10:30Z</time>
      </trkpt>
      <trkpt lat="47.44543" lon="3.77167">
        <ele>165</ele>
        <time>2014-04-18T09:10:37Z</time>
      </trkpt>
      <trkpt lat="47.44539" lon="3.77168">
        <ele>164</ele>
        <time>2014-04-18T09:10:39Z</time>
      </trkpt>
      <trkpt lat="47.44534" lon="3.77169">
        <ele>164</ele>
        <time>2014-04-18T09:10:45Z</time>
      </trkpt>
      <trkpt lat="47.44524" lon="3.77165">
        <ele>165</ele>
        <time>2014-04-18T09:10:52Z</time>
      </trkpt>
      <trkpt lat="47.44518" lon="3.77165">
        <ele>165</ele>
        <time>2014-04-18T09:10:56Z</time>
      </trkpt>
      <trkpt lat="47.44514" lon="3.77163">
        <ele>165</ele>
        <time>2014-04-18T09:11:01Z</time>
      </trkpt>
      <trkpt lat="47.44508" lon="3.77163">
        <ele>164</ele>
        <time>2014-04-18T09:11:05Z</time>
      </trkpt>
      <trkpt lat="47.44503" lon="3.77164">
        <ele>164</ele>
        <time>2014-04-18T09:11:08Z</time>
      </trkpt>
      <trkpt lat="47.44498" lon="3.77165">
        <ele>164</ele>
        <time>2014-04-18T09:11:12Z</time>
      </trkpt>
      <trkpt lat="47.44494" lon="3.77168">
        <ele>164</ele>
        <time>2014-04-18T09:11:15Z</time>
      </trkpt>
      <trkpt lat="47.44489" lon="3.77171">
        <ele>163</ele>
        <time>2014-04-18T09:11:19Z</time>
      </trkpt>
      <trkpt lat="47.44484" lon="3.7717">
        <ele>163</ele>
        <time>2014-04-18T09:11:24Z</time>
      </trkpt>
      <trkpt lat="47.44478" lon="3.77169">
        <ele>163</ele>
        <time>2014-04-18T09:11:29Z</time>
      </trkpt>
      <trkpt lat="47.44474" lon="3.7717">
        <ele>163</ele>
        <time>2014-04-18T09:11:33Z</time>
      </trkpt>
      <trkpt lat="47.44464" lon="3.77174">
        <ele>163</ele>
        <time>2014-04-18T09:11:41Z</time>
      </trkpt>
      <trkpt lat="47.44459" lon="3.77176">
        <ele>163</ele>
        <time>2014-04-18T09:11:46Z</time>
      </trkpt>
      <trkpt lat="47.44449" lon="3.77176">
        <ele>163</ele>
        <time>2014-04-18T09:11:54Z</time>
      </trkpt>
      <trkpt lat="47.44445" lon="3.77177">
        <ele>162</ele>
        <time>2014-04-18T09:11:57Z</time>
      </trkpt>
      <trkpt lat="47.44434" lon="3.77183">
        <ele>162</ele>
        <time>2014-04-18T09:12:05Z</time>
      </trkpt>
      <trkpt lat="47.4443" lon="3.7718">
        <ele>162</ele>
        <time>2014-04-18T09:12:10Z</time>
      </trkpt>
      <trkpt lat="47.44424" lon="3.77182">
        <ele>162</ele>
        <time>2014-04-18T09:12:13Z</time>
      </trkpt>
      <trkpt lat="47.4442" lon="3.77186">
        <ele>162</ele>
        <time>2014-04-18T09:12:15Z</time>
      </trkpt>
      <trkpt lat="47.4441" lon="3.77192">
        <ele>162</ele>
        <time>2014-04-18T09:12:23Z</time>
      </trkpt>
      <trkpt lat="47.44404" lon="3.77194">
        <ele>162</ele>
        <time>2014-04-18T09:12:27Z</time>
      </trkpt>
      <trkpt lat="47.44399" lon="3.77198">
        <ele>162</ele>
        <time>2014-04-18T09:12:30Z</time>
      </trkpt>
      <trkpt lat="47.44394" lon="3.772">
        <ele>162</ele>
        <time>2014-04-18T09:12:34Z</time>
      </trkpt>
      <trkpt lat="47.44388" lon="3.772">
        <ele>162</ele>
        <time>2014-04-18T09:12:39Z</time>
      </trkpt>
      <trkpt lat="47.44384" lon="3.77201">
        <ele>162</ele>
        <time>2014-04-18T09:12:41Z</time>
      </trkpt>
      <trkpt lat="47.44378" lon="3.77205">
        <ele>162</ele>
        <time>2014-04-18T09:12:44Z</time>
      </trkpt>
      <trkpt lat="47.44369" lon="3.77213">
        <ele>162</ele>
        <time>2014-04-18T09:12:49Z</time>
      </trkpt>
      <trkpt lat="47.44363" lon="3.77209">
        <ele>162</ele>
        <time>2014-04-18T09:12:59Z</time>
      </trkpt>
      <trkpt lat="47.44358" lon="3.7721">
        <ele>162</ele>
        <time>2014-04-18T09:13:02Z</time>
      </trkpt>
      <trkpt lat="47.44354" lon="3.77212">
        <ele>162</ele>
        <time>2014-04-18T09:13:04Z</time>
      </trkpt>
      <trkpt lat="47.4435" lon="3.77209">
        <ele>162</ele>
        <time>2014-04-18T09:13:09Z</time>
      </trkpt>
      <trkpt lat="47.44344" lon="3.77209">
        <ele>162</ele>
        <time>2014-04-18T09:13:14Z</time>
      </trkpt>
      <trkpt lat="47.44333" lon="3.77212">
        <ele>162</ele>
        <time>2014-04-18T09:13:22Z</time>
      </trkpt>
      <trkpt lat="47.44328" lon="3.77212">
        <ele>162</ele>
        <time>2014-04-18T09:13:26Z</time>
      </trkpt>
      <trkpt lat="47.44323" lon="3.77209">
        <ele>162</ele>
        <time>2014-04-18T09:13:32Z</time>
      </trkpt>
      <trkpt lat="47.44319" lon="3.77205">
        <ele>162</ele>
        <time>2014-04-18T09:13:40Z</time>
      </trkpt>
      <trkpt lat="47.44304" lon="3.7721">
        <ele>162</ele>
        <time>2014-04-18T09:13:47Z</time>
      </trkpt>
      <trkpt lat="47.44294" lon="3.77211">
        <ele>162</ele>
        <time>2014-04-18T09:13:55Z</time>
      </trkpt>
      <trkpt lat="47.4429" lon="3.77214">
        <ele>162</ele>
        <time>2014-04-18T09:13:59Z</time>
      </trkpt>
      <trkpt lat="47.44285" lon="3.77216">
        <ele>162</ele>
        <time>2014-04-18T09:14:03Z</time>
      </trkpt>
      <trkpt lat="47.4428" lon="3.77212">
        <ele>162</ele>
        <time>2014-04-18T09:14:27Z</time>
      </trkpt>
      <trkpt lat="47.44263" lon="3.77215">
        <ele>162</ele>
        <time>2014-04-18T09:14:41Z</time>
      </trkpt>
      <trkpt lat="47.44258" lon="3.77215">
        <ele>162</ele>
        <time>2014-04-18T09:14:45Z</time>
      </trkpt>
      <trkpt lat="47.44253" lon="3.77214">
        <ele>162</ele>
        <time>2014-04-18T09:14:49Z</time>
      </trkpt>
      <trkpt lat="47.44242" lon="3.77216">
        <ele>162</ele>
        <time>2014-04-18T09:14:56Z</time>
      </trkpt>
      <trkpt lat="47.44238" lon="3.77218">
        <ele>162</ele>
        <time>2014-04-18T09:15:00Z</time>
      </trkpt>
      <trkpt lat="47.44232" lon="3.77221">
        <ele>162</ele>
        <time>2014-04-18T09:15:04Z</time>
      </trkpt>
      <trkpt lat="47.44227" lon="3.77222">
        <ele>162</ele>
        <time>2014-04-18T09:15:08Z</time>
      </trkpt>
      <trkpt lat="47.44222" lon="3.7722">
        <ele>162</ele>
        <time>2014-04-18T09:15:13Z</time>
      </trkpt>
      <trkpt lat="47.44217" lon="3.77221">
        <ele>162</ele>
        <time>2014-04-18T09:15:17Z</time>
      </trkpt>
      <trkpt lat="47.44212" lon="3.77223">
        <ele>162</ele>
        <time>2014-04-18T09:15:24Z</time>
      </trkpt>
      <trkpt lat="47.44207" lon="3.77224">
        <ele>162</ele>
        <time>2014-04-18T09:15:29Z</time>
      </trkpt>
      <trkpt lat="47.44201" lon="3.77225">
        <ele>162</ele>
        <time>2014-04-18T09:15:33Z</time>
      </trkpt>
      <trkpt lat="47.44196" lon="3.77224">
        <ele>162</ele>
        <time>2014-04-18T09:15:37Z</time>
      </trkpt>
      <trkpt lat="47.44191" lon="3.77225">
        <ele>162</ele>
        <time>2014-04-18T09:15:40Z</time>
      </trkpt>
      <trkpt lat="47.44176" lon="3.77228">
        <ele>162</ele>
        <time>2014-04-18T09:15:51Z</time>
      </trkpt>
      <trkpt lat="47.44167" lon="3.77229">
        <ele>162</ele>
        <time>2014-04-18T09:15:58Z</time>
      </trkpt>
      <trkpt lat="47.44154" lon="3.77236">
        <ele>163</ele>
        <time>2014-04-18T09:16:12Z</time>
      </trkpt>
      <trkpt lat="47.44148" lon="3.77234">
        <ele>163</ele>
        <time>2014-04-18T09:16:17Z</time>
      </trkpt>
      <trkpt lat="47.44146" lon="3.77231">
        <ele>163</ele>
        <time>2014-04-18T09:16:25Z</time>
      </trkpt>
      <trkpt lat="47.44128" lon="3.77237">
        <ele>163</ele>
        <time>2014-04-18T09:16:38Z</time>
      </trkpt>
      <trkpt lat="47.44123" lon="3.77241">
        <ele>163</ele>
        <time>2014-04-18T09:16:42Z</time>
      </trkpt>
      <trkpt lat="47.44104" lon="3.77242">
        <ele>163</ele>
        <time>2014-04-18T09:16:59Z</time>
      </trkpt>
      <trkpt lat="47.44095" lon="3.77244">
        <ele>163</ele>
        <time>2014-04-18T09:17:04Z</time>
      </trkpt>
      <trkpt lat="47.44086" lon="3.77245">
        <ele>162</ele>
        <time>2014-04-18T09:17:10Z</time>
      </trkpt>
      <trkpt lat="47.44081" lon="3.77247">
        <ele>162</ele>
        <time>2014-04-18T09:17:14Z</time>
      </trkpt>
      <trkpt lat="47.44077" lon="3.7725">
        <ele>162</ele>
        <time>2014-04-18T09:17:18Z</time>
      </trkpt>
      <trkpt lat="47.44072" lon="3.77252">
        <ele>162</ele>
        <time>2014-04-18T09:17:22Z</time>
      </trkpt>
      <trkpt lat="47.44066" lon="3.77253">
        <ele>161</ele>
        <time>2014-04-18T09:17:26Z</time>
      </trkpt>
      <trkpt lat="47.44061" lon="3.77253">
        <ele>161</ele>
        <time>2014-04-18T09:17:31Z</time>
      </trkpt>
      <trkpt lat="47.44056" lon="3.77252">
        <ele>161</ele>
        <time>2014-04-18T09:17:35Z</time>
      </trkpt>
      <trkpt lat="47.44038" lon="3.77258">
        <ele>161</ele>
        <time>2014-04-18T09:17:49Z</time>
      </trkpt>
      <trkpt lat="47.4403" lon="3.77262">
        <ele>161</ele>
        <time>2014-04-18T09:17:52Z</time>
      </trkpt>
      <trkpt lat="47.44021" lon="3.7727">
        <ele>161</ele>
        <time>2014-04-18T09:17:55Z</time>
      </trkpt>
      <trkpt lat="47.44021" lon="3.77264">
        <ele>161</ele>
        <time>2014-04-18T09:18:01Z</time>
      </trkpt>
      <trkpt lat="47.44018" lon="3.77258">
        <ele>161</ele>
        <time>2014-04-18T09:18:11Z</time>
      </trkpt>
      <trkpt lat="47.44013" lon="3.77259">
        <ele>161</ele>
        <time>2014-04-18T09:18:14Z</time>
      </trkpt>
      <trkpt lat="47.44008" lon="3.77259">
        <ele>161</ele>
        <time>2014-04-18T09:18:17Z</time>
      </trkpt>
      <trkpt lat="47.44003" lon="3.77256">
        <ele>162</ele>
        <time>2014-04-18T09:18:22Z</time>
      </trkpt>
      <trkpt lat="47.43998" lon="3.77256">
        <ele>161</ele>
        <time>2014-04-18T09:18:26Z</time>
      </trkpt>
      <trkpt lat="47.43993" lon="3.77256">
        <ele>161</ele>
        <time>2014-04-18T09:18:31Z</time>
      </trkpt>
      <trkpt lat="47.43988" lon="3.77258">
        <ele>160</ele>
        <time>2014-04-18T09:18:35Z</time>
      </trkpt>
      <trkpt lat="47.43985" lon="3.77258">
        <ele>160</ele>
        <time>2014-04-18T09:18:45Z</time>
      </trkpt>
      <trkpt lat="47.4398" lon="3.77255">
        <ele>160</ele>
        <time>2014-04-18T09:18:48Z</time>
      </trkpt>
      <trkpt lat="47.43975" lon="3.77256">
        <ele>160</ele>
        <time>2014-04-18T09:18:50Z</time>
      </trkpt>
      <trkpt lat="47.4397" lon="3.7726">
        <ele>160</ele>
        <time>2014-04-18T09:18:53Z</time>
      </trkpt>
      <trkpt lat="47.43966" lon="3.77262">
        <ele>159</ele>
        <time>2014-04-18T09:18:58Z</time>
      </trkpt>
      <trkpt lat="47.4396" lon="3.77264">
        <ele>159</ele>
        <time>2014-04-18T09:19:03Z</time>
      </trkpt>
      <trkpt lat="47.43952" lon="3.77272">
        <ele>159</ele>
        <time>2014-04-18T09:19:07Z</time>
      </trkpt>
      <trkpt lat="47.43944" lon="3.77274">
        <ele>159</ele>
        <time>2014-04-18T09:19:12Z</time>
      </trkpt>
      <trkpt lat="47.43939" lon="3.77272">
        <ele>159</ele>
        <time>2014-04-18T09:19:17Z</time>
      </trkpt>
      <trkpt lat="47.43933" lon="3.77272">
        <ele>159</ele>
        <time>2014-04-18T09:19:23Z</time>
      </trkpt>
      <trkpt lat="47.43929" lon="3.77275">
        <ele>159</ele>
        <time>2014-04-18T09:19:25Z</time>
      </trkpt>
      <trkpt lat="47.43913" lon="3.77277">
        <ele>159</ele>
        <time>2014-04-18T09:19:37Z</time>
      </trkpt>
      <trkpt lat="47.43907" lon="3.77277">
        <ele>159</ele>
        <time>2014-04-18T09:19:41Z</time>
      </trkpt>
      <trkpt lat="47.43896" lon="3.7728">
        <ele>159</ele>
        <time>2014-04-18T09:19:48Z</time>
      </trkpt>
      <trkpt lat="47.43885" lon="3.77285">
        <ele>159</ele>
        <time>2014-04-18T09:19:54Z</time>
      </trkpt>
      <trkpt lat="47.43864" lon="3.77292">
        <ele>160</ele>
        <time>2014-04-18T09:20:10Z</time>
      </trkpt>
      <trkpt lat="47.43859" lon="3.77293">
        <ele>160</ele>
        <time>2014-04-18T09:20:14Z</time>
      </trkpt>
      <trkpt lat="47.43849" lon="3.77298">
        <ele>160</ele>
        <time>2014-04-18T09:20:23Z</time>
      </trkpt>
      <trkpt lat="47.43844" lon="3.77302">
        <ele>160</ele>
        <time>2014-04-18T09:20:27Z</time>
      </trkpt>
      <trkpt lat="47.43835" lon="3.77305">
        <ele>160</ele>
        <time>2014-04-18T09:20:35Z</time>
      </trkpt>
      <trkpt lat="47.43829" lon="3.77307">
        <ele>162</ele>
        <time>2014-04-18T09:20:39Z</time>
      </trkpt>
      <trkpt lat="47.43825" lon="3.77309">
        <ele>162</ele>
        <time>2014-04-18T09:20:45Z</time>
      </trkpt>
      <trkpt lat="47.4382" lon="3.77313">
        <ele>162</ele>
        <time>2014-04-18T09:20:48Z</time>
      </trkpt>
      <trkpt lat="47.43815" lon="3.77314">
        <ele>162</ele>
        <time>2014-04-18T09:20:53Z</time>
      </trkpt>
      <trkpt lat="47.43809" lon="3.77318">
        <ele>162</ele>
        <time>2014-04-18T09:20:56Z</time>
      </trkpt>
      <trkpt lat="47.43801" lon="3.77326">
        <ele>163</ele>
        <time>2014-04-18T09:21:00Z</time>
      </trkpt>
      <trkpt lat="47.43797" lon="3.77328">
        <ele>163</ele>
        <time>2014-04-18T09:21:05Z</time>
      </trkpt>
      <trkpt lat="47.43793" lon="3.77332">
        <ele>163</ele>
        <time>2014-04-18T09:21:10Z</time>
      </trkpt>
      <trkpt lat="47.43788" lon="3.77334">
        <ele>160</ele>
        <time>2014-04-18T09:21:14Z</time>
      </trkpt>
      <trkpt lat="47.43783" lon="3.77337">
        <ele>161</ele>
        <time>2014-04-18T09:21:20Z</time>
      </trkpt>
      <trkpt lat="47.43777" lon="3.77339">
        <ele>161</ele>
        <time>2014-04-18T09:21:29Z</time>
      </trkpt>
      <trkpt lat="47.43772" lon="3.77342">
        <ele>161</ele>
        <time>2014-04-18T09:21:33Z</time>
      </trkpt>
      <trkpt lat="47.43758" lon="3.77352">
        <ele>162</ele>
        <time>2014-04-18T09:21:44Z</time>
      </trkpt>
      <trkpt lat="47.43754" lon="3.77356">
        <ele>161</ele>
        <time>2014-04-18T09:21:48Z</time>
      </trkpt>
      <trkpt lat="47.43746" lon="3.77367">
        <ele>164</ele>
        <time>2014-04-18T09:21:55Z</time>
      </trkpt>
      <trkpt lat="47.43729" lon="3.77383">
        <ele>163</ele>
        <time>2014-04-18T09:22:06Z</time>
      </trkpt>
      <trkpt lat="47.43725" lon="3.77386">
        <ele>163</ele>
        <time>2014-04-18T09:22:10Z</time>
      </trkpt>
      <trkpt lat="47.4371" lon="3.77405">
        <ele>163</ele>
        <time>2014-04-18T09:22:46Z</time>
      </trkpt>
      <trkpt lat="47.43706" lon="3.77409">
        <ele>163</ele>
        <time>2014-04-18T09:22:53Z</time>
      </trkpt>
      <trkpt lat="47.43696" lon="3.77426">
        <ele>161</ele>
        <time>2014-04-18T09:23:08Z</time>
      </trkpt>
      <trkpt lat="47.43677" lon="3.77453">
        <ele>161</ele>
        <time>2014-04-18T09:23:43Z</time>
      </trkpt>
      <trkpt lat="47.43673" lon="3.77459">
        <ele>161</ele>
        <time>2014-04-18T09:23:50Z</time>
      </trkpt>
      <trkpt lat="47.43665" lon="3.77469">
        <ele>165</ele>
        <time>2014-04-18T09:24:00Z</time>
      </trkpt>
      <trkpt lat="47.43656" lon="3.77478">
        <ele>164</ele>
        <time>2014-04-18T09:24:09Z</time>
      </trkpt>
      <trkpt lat="47.43648" lon="3.77489">
        <ele>164</ele>
        <time>2014-04-18T09:24:17Z</time>
      </trkpt>
      <trkpt lat="47.43646" lon="3.77488">
        <ele>165</ele>
        <time>2014-04-18T09:24:25Z</time>
      </trkpt>
      <trkpt lat="47.43642" lon="3.77493">
        <ele>165</ele>
        <time>2014-04-18T09:24:32Z</time>
      </trkpt>
      <trkpt lat="47.43639" lon="3.775">
        <ele>164</ele>
        <time>2014-04-18T09:24:43Z</time>
      </trkpt>
      <trkpt lat="47.43631" lon="3.77507">
        <ele>164</ele>
        <time>2014-04-18T09:24:51Z</time>
      </trkpt>
      <trkpt lat="47.43596" lon="3.77551">
        <ele>165</ele>
        <time>2014-04-18T09:25:26Z</time>
      </trkpt>
      <trkpt lat="47.43586" lon="3.77569">
        <ele>165</ele>
        <time>2014-04-18T09:25:35Z</time>
      </trkpt>
      <trkpt lat="47.43557" lon="3.77602">
        <ele>168</ele>
        <time>2014-04-18T09:25:57Z</time>
      </trkpt>
      <trkpt lat="47.4355" lon="3.77614">
        <ele>168</ele>
        <time>2014-04-18T09:26:06Z</time>
      </trkpt>
      <trkpt lat="47.43533" lon="3.77635">
        <ele>169</ele>
        <time>2014-04-18T09:26:20Z</time>
      </trkpt>
      <trkpt lat="47.43529" lon="3.77642">
        <ele>169</ele>
        <time>2014-04-18T09:26:24Z</time>
      </trkpt>
      <trkpt lat="47.43519" lon="3.7765">
        <ele>169</ele>
        <time>2014-04-18T09:26:30Z</time>
      </trkpt>
      <trkpt lat="47.43515" lon="3.77656">
        <ele>170</ele>
        <time>2014-04-18T09:26:33Z</time>
      </trkpt>
      <trkpt lat="47.43512" lon="3.77665">
        <ele>170</ele>
        <time>2014-04-18T09:26:44Z</time>
      </trkpt>
      <trkpt lat="47.43484" lon="3.77708">
        <ele>174</ele>
        <time>2014-04-18T09:27:09Z</time>
      </trkpt>
      <trkpt lat="47.43476" lon="3.77727">
        <ele>174</ele>
        <time>2014-04-18T09:27:20Z</time>
      </trkpt>
      <trkpt lat="47.43473" lon="3.77743">
        <ele>174</ele>
        <time>2014-04-18T09:27:29Z</time>
      </trkpt>
      <trkpt lat="47.43471" lon="3.7775">
        <ele>174</ele>
        <time>2014-04-18T09:27:32Z</time>
      </trkpt>
      <trkpt lat="47.43469" lon="3.77757">
        <ele>175</ele>
        <time>2014-04-18T09:27:39Z</time>
      </trkpt>
      <trkpt lat="47.43466" lon="3.77763">
        <ele>175</ele>
        <time>2014-04-18T09:27:42Z</time>
      </trkpt>
      <trkpt lat="47.43462" lon="3.77772">
        <ele>175</ele>
        <time>2014-04-18T09:27:46Z</time>
      </trkpt>
      <trkpt lat="47.43465" lon="3.77777">
        <ele>175</ele>
        <time>2014-04-18T09:27:50Z</time>
      </trkpt>
      <trkpt lat="47.43469" lon="3.77778">
        <ele>175</ele>
        <time>2014-04-18T09:27:59Z</time>
      </trkpt>
      <trkpt lat="47.43469" lon="3.77788">
        <ele>175</ele>
        <time>2014-04-18T09:28:04Z</time>
      </trkpt>
      <trkpt lat="47.43457" lon="3.77815">
        <ele>176</ele>
        <time>2014-04-18T09:28:20Z</time>
      </trkpt>
      <trkpt lat="47.43449" lon="3.77822">
        <ele>176</ele>
        <time>2014-04-18T09:28:28Z</time>
      </trkpt>
      <trkpt lat="47.43447" lon="3.77829">
        <ele>177</ele>
        <time>2014-04-18T09:28:32Z</time>
      </trkpt>
      <trkpt lat="47.43447" lon="3.77837">
        <ele>176</ele>
        <time>2014-04-18T09:28:36Z</time>
      </trkpt>
      <trkpt lat="47.43446" lon="3.77844">
        <ele>176</ele>
        <time>2014-04-18T09:28:40Z</time>
      </trkpt>
      <trkpt lat="47.43445" lon="3.77858">
        <ele>175</ele>
        <time>2014-04-18T09:28:48Z</time>
      </trkpt>
      <trkpt lat="47.43442" lon="3.77865">
        <ele>175</ele>
        <time>2014-04-18T09:28:52Z</time>
      </trkpt>
      <trkpt lat="47.43436" lon="3.77877">
        <ele>175</ele>
        <time>2014-04-18T09:28:59Z</time>
      </trkpt>
      <trkpt lat="47.43432" lon="3.77882">
        <ele>175</ele>
        <time>2014-04-18T09:29:02Z</time>
      </trkpt>
      <trkpt lat="47.43428" lon="3.77888">
        <ele>175</ele>
        <time>2014-04-18T09:29:06Z</time>
      </trkpt>
      <trkpt lat="47.43429" lon="3.77895">
        <ele>175</ele>
        <time>2014-04-18T09:29:10Z</time>
      </trkpt>
      <trkpt lat="47.43427" lon="3.77901">
        <ele>176</ele>
        <time>2014-04-18T09:29:14Z</time>
      </trkpt>
      <trkpt lat="47.43424" lon="3.77907">
        <ele>176</ele>
        <time>2014-04-18T09:29:17Z</time>
      </trkpt>
      <trkpt lat="47.43423" lon="3.77914">
        <ele>176</ele>
        <time>2014-04-18T09:29:22Z</time>
      </trkpt>
      <trkpt lat="47.43429" lon="3.77913">
        <ele>176</ele>
        <time>2014-04-18T09:29:32Z</time>
      </trkpt>
      <trkpt lat="47.43433" lon="3.7791">
        <ele>175</ele>
        <time>2014-04-18T09:29:35Z</time>
      </trkpt>
      <trkpt lat="47.43428" lon="3.77919">
        <ele>175</ele>
        <time>2014-04-18T09:30:12Z</time>
      </trkpt>
      <trkpt lat="47.43427" lon="3.77926">
        <ele>175</ele>
        <time>2014-04-18T09:30:16Z</time>
      </trkpt>
      <trkpt lat="47.43424" lon="3.77932">
        <ele>174</ele>
        <time>2014-04-18T09:30:21Z</time>
      </trkpt>
      <trkpt lat="47.43421" lon="3.77938">
        <ele>174</ele>
        <time>2014-04-18T09:30:24Z</time>
      </trkpt>
      <trkpt lat="47.43413" lon="3.77967">
        <ele>178</ele>
        <time>2014-04-18T09:30:41Z</time>
      </trkpt>
      <trkpt lat="47.43401" lon="3.77999">
        <ele>177</ele>
        <time>2014-04-18T09:30:59Z</time>
      </trkpt>
      <trkpt lat="47.434" lon="3.78006">
        <ele>176</ele>
        <time>2014-04-18T09:31:03Z</time>
      </trkpt>
      <trkpt lat="47.43392" lon="3.78028">
        <ele>177</ele>
        <time>2014-04-18T09:31:13Z</time>
      </trkpt>
      <trkpt lat="47.43391" lon="3.78035">
        <ele>177</ele>
        <time>2014-04-18T09:31:17Z</time>
      </trkpt>
      <trkpt lat="47.43389" lon="3.78041">
        <ele>177</ele>
        <time>2014-04-18T09:31:20Z</time>
      </trkpt>
      <trkpt lat="47.43369" lon="3.78109">
        <ele>174</ele>
        <time>2014-04-18T09:32:01Z</time>
      </trkpt>
      <trkpt lat="47.43367" lon="3.78116">
        <ele>174</ele>
        <time>2014-04-18T09:32:06Z</time>
      </trkpt>
      <trkpt lat="47.43362" lon="3.78125">
        <ele>174</ele>
        <time>2014-04-18T09:32:22Z</time>
      </trkpt>
      <trkpt lat="47.4336" lon="3.78132">
        <ele>174</ele>
        <time>2014-04-18T09:32:27Z</time>
      </trkpt>
      <trkpt lat="47.43358" lon="3.78139">
        <ele>175</ele>
        <time>2014-04-18T09:32:31Z</time>
      </trkpt>
      <trkpt lat="47.43356" lon="3.78147">
        <ele>175</ele>
        <time>2014-04-18T09:32:35Z</time>
      </trkpt>
      <trkpt lat="47.43354" lon="3.78154">
        <ele>175</ele>
        <time>2014-04-18T09:32:40Z</time>
      </trkpt>
      <trkpt lat="47.43346" lon="3.78175">
        <ele>175</ele>
        <time>2014-04-18T09:32:50Z</time>
      </trkpt>
      <trkpt lat="47.43344" lon="3.78189">
        <ele>174</ele>
        <time>2014-04-18T09:32:58Z</time>
      </trkpt>
      <trkpt lat="47.4334" lon="3.78205">
        <ele>173</ele>
        <time>2014-04-18T09:33:04Z</time>
      </trkpt>
      <trkpt lat="47.43337" lon="3.7821">
        <ele>173</ele>
        <time>2014-04-18T09:33:07Z</time>
      </trkpt>
      <trkpt lat="47.43334" lon="3.7822">
        <ele>174</ele>
        <time>2014-04-18T09:33:18Z</time>
      </trkpt>
      <trkpt lat="47.43334" lon="3.78228">
        <ele>174</ele>
        <time>2014-04-18T09:33:22Z</time>
      </trkpt>
      <trkpt lat="47.43332" lon="3.78236">
        <ele>176</ele>
        <time>2014-04-18T09:33:27Z</time>
      </trkpt>
      <trkpt lat="47.4333" lon="3.78243">
        <ele>176</ele>
        <time>2014-04-18T09:33:31Z</time>
      </trkpt>
      <trkpt lat="47.43322" lon="3.7828">
        <ele>175</ele>
        <time>2014-04-18T09:33:53Z</time>
      </trkpt>
      <trkpt lat="47.43318" lon="3.78284">
        <ele>175</ele>
        <time>2014-04-18T09:33:58Z</time>
      </trkpt>
      <trkpt lat="47.43314" lon="3.78289">
        <ele>175</ele>
        <time>2014-04-18T09:34:03Z</time>
      </trkpt>
      <trkpt lat="47.43311" lon="3.78291">
        <ele>175</ele>
        <time>2014-04-18T09:34:12Z</time>
      </trkpt>
      <trkpt lat="47.43307" lon="3.78296">
        <ele>175</ele>
        <time>2014-04-18T09:34:25Z</time>
      </trkpt>
      <trkpt lat="47.43304" lon="3.78303">
        <ele>174</ele>
        <time>2014-04-18T09:34:30Z</time>
      </trkpt>
      <trkpt lat="47.43305" lon="3.7831">
        <ele>174</ele>
        <time>2014-04-18T09:34:35Z</time>
      </trkpt>
      <trkpt lat="47.4331" lon="3.78325">
        <ele>174</ele>
        <time>2014-04-18T09:34:44Z</time>
      </trkpt>
      <trkpt lat="47.43312" lon="3.78332">
        <ele>174</ele>
        <time>2014-04-18T09:34:48Z</time>
      </trkpt>
      <trkpt lat="47.4331" lon="3.78341">
        <ele>174</ele>
        <time>2014-04-18T09:34:55Z</time>
      </trkpt>
      <trkpt lat="47.43311" lon="3.78348">
        <ele>174</ele>
        <time>2014-04-18T09:35:00Z</time>
      </trkpt>
      <trkpt lat="47.4331" lon="3.78361">
        <ele>174</ele>
        <time>2014-04-18T09:35:08Z</time>
      </trkpt>
      <trkpt lat="47.43308" lon="3.78368">
        <ele>174</ele>
        <time>2014-04-18T09:35:12Z</time>
      </trkpt>
      <trkpt lat="47.43307" lon="3.78377">
        <ele>173</ele>
        <time>2014-04-18T09:35:16Z</time>
      </trkpt>
      <trkpt lat="47.4331" lon="3.78382">
        <ele>173</ele>
        <time>2014-04-18T09:35:22Z</time>
      </trkpt>
      <trkpt lat="47.43315" lon="3.78382">
        <ele>173</ele>
        <time>2014-04-18T09:35:27Z</time>
      </trkpt>
      <trkpt lat="47.43317" lon="3.78388">
        <ele>173</ele>
        <time>2014-04-18T09:35:32Z</time>
      </trkpt>
      <trkpt lat="47.43315" lon="3.78395">
        <ele>173</ele>
        <time>2014-04-18T09:35:38Z</time>
      </trkpt>
      <trkpt lat="47.43312" lon="3.78401">
        <ele>173</ele>
        <time>2014-04-18T09:35:43Z</time>
      </trkpt>
      <trkpt lat="47.43311" lon="3.78409">
        <ele>173</ele>
        <time>2014-04-18T09:35:48Z</time>
      </trkpt>
      <trkpt lat="47.43306" lon="3.78413">
        <ele>173</ele>
        <time>2014-04-18T09:35:51Z</time>
      </trkpt>
      <trkpt lat="47.43302" lon="3.78415">
        <ele>173</ele>
        <time>2014-04-18T09:35:55Z</time>
      </trkpt>
      <trkpt lat="47.43299" lon="3.78416">
        <ele>173</ele>
        <time>2014-04-18T09:36:02Z</time>
      </trkpt>
      <trkpt lat="47.43294" lon="3.78425">
        <ele>172</ele>
        <time>2014-04-18T09:36:09Z</time>
      </trkpt>
      <trkpt lat="47.43291" lon="3.78431">
        <ele>172</ele>
        <time>2014-04-18T09:36:12Z</time>
      </trkpt>
      <trkpt lat="47.43287" lon="3.78437">
        <ele>172</ele>
        <time>2014-04-18T09:36:16Z</time>
      </trkpt>
      <trkpt lat="47.43282" lon="3.78444">
        <ele>172</ele>
        <time>2014-04-18T09:36:19Z</time>
      </trkpt>
      <trkpt lat="47.43277" lon="3.78445">
        <ele>173</ele>
        <time>2014-04-18T09:36:26Z</time>
      </trkpt>
      <trkpt lat="47.43271" lon="3.78445">
        <ele>173</ele>
        <time>2014-04-18T09:36:31Z</time>
      </trkpt>
      <trkpt lat="47.43266" lon="3.78445">
        <ele>173</ele>
        <time>2014-04-18T09:36:37Z</time>
      </trkpt>
      <trkpt lat="47.43261" lon="3.78447">
        <ele>173</ele>
        <time>2014-04-18T09:36:41Z</time>
      </trkpt>
      <trkpt lat="47.43256" lon="3.78448">
        <ele>173</ele>
        <time>2014-04-18T09:36:44Z</time>
      </trkpt>
      <trkpt lat="47.43247" lon="3.78454">
        <ele>172</ele>
        <time>2014-04-18T09:36:52Z</time>
      </trkpt>
      <trkpt lat="47.43243" lon="3.78456">
        <ele>172</ele>
        <time>2014-04-18T09:36:56Z</time>
      </trkpt>
      <trkpt lat="47.43233" lon="3.78463">
        <ele>172</ele>
        <time>2014-04-18T09:37:04Z</time>
      </trkpt>
      <trkpt lat="47.43224" lon="3.78472">
        <ele>171</ele>
        <time>2014-04-18T09:37:12Z</time>
      </trkpt>
      <trkpt lat="47.43221" lon="3.78477">
        <ele>171</ele>
        <time>2014-04-18T09:37:16Z</time>
      </trkpt>
      <trkpt lat="47.43219" lon="3.78487">
        <ele>171</ele>
        <time>2014-04-18T09:37:30Z</time>
      </trkpt>
      <trkpt lat="47.43214" lon="3.78499">
        <ele>171</ele>
        <time>2014-04-18T09:37:39Z</time>
      </trkpt>
      <trkpt lat="47.43215" lon="3.78507">
        <ele>170</ele>
        <time>2014-04-18T09:37:45Z</time>
      </trkpt>
      <trkpt lat="47.43214" lon="3.78514">
        <ele>170</ele>
        <time>2014-04-18T09:37:50Z</time>
      </trkpt>
      <trkpt lat="47.43213" lon="3.78522">
        <ele>170</ele>
        <time>2014-04-18T09:37:55Z</time>
      </trkpt>
      <trkpt lat="47.43211" lon="3.78538">
        <ele>169</ele>
        <time>2014-04-18T09:38:03Z</time>
      </trkpt>
      <trkpt lat="47.43215" lon="3.78547">
        <ele>169</ele>
        <time>2014-04-18T09:38:09Z</time>
      </trkpt>
      <trkpt lat="47.43217" lon="3.78566">
        <ele>169</ele>
        <time>2014-04-18T09:38:16Z</time>
      </trkpt>
      <trkpt lat="47.43219" lon="3.78571">
        <ele>169</ele>
        <time>2014-04-18T09:38:43Z</time>
      </trkpt>
      <trkpt lat="47.43223" lon="3.78574">
        <ele>169</ele>
        <time>2014-04-18T09:38:48Z</time>
      </trkpt>
      <trkpt lat="47.43226" lon="3.7859">
        <ele>167</ele>
        <time>2014-04-18T09:38:58Z</time>
      </trkpt>
      <trkpt lat="47.43225" lon="3.78595">
        <ele>167</ele>
        <time>2014-04-18T09:39:07Z</time>
      </trkpt>
      <trkpt lat="47.43222" lon="3.78594">
        <ele>167</ele>
        <time>2014-04-18T09:39:30Z</time>
      </trkpt>
      <trkpt lat="47.43223" lon="3.78586">
        <ele>167</ele>
        <time>2014-04-18T09:39:35Z</time>
      </trkpt>
      <trkpt lat="47.4322" lon="3.78571">
        <ele>169</ele>
        <time>2014-04-18T09:39:43Z</time>
      </trkpt>
      <trkpt lat="47.43216" lon="3.78556">
        <ele>169</ele>
        <time>2014-04-18T09:39:49Z</time>
      </trkpt>
      <trkpt lat="47.43214" lon="3.78529">
        <ele>170</ele>
        <time>2014-04-18T09:40:05Z</time>
      </trkpt>
      <trkpt lat="47.43214" lon="3.78521">
        <ele>170</ele>
        <time>2014-04-18T09:40:10Z</time>
      </trkpt>
      <trkpt lat="47.43214" lon="3.78513">
        <ele>170</ele>
        <time>2014-04-18T09:40:15Z</time>
      </trkpt>
      <trkpt lat="47.43212" lon="3.78498">
        <ele>171</ele>
        <time>2014-04-18T09:40:25Z</time>
      </trkpt>
      <trkpt lat="47.43215" lon="3.78497">
        <ele>171</ele>
        <time>2014-04-18T09:40:44Z</time>
      </trkpt>
      <trkpt lat="47.4322" lon="3.78477">
        <ele>171</ele>
        <time>2014-04-18T09:40:54Z</time>
      </trkpt>
      <trkpt lat="47.43222" lon="3.78471">
        <ele>171</ele>
        <time>2014-04-18T09:40:57Z</time>
      </trkpt>
      <trkpt lat="47.43223" lon="3.78464">
        <ele>171</ele>
        <time>2014-04-18T09:41:00Z</time>
      </trkpt>
      <trkpt lat="47.43228" lon="3.7846">
        <ele>171</ele>
        <time>2014-04-18T09:41:06Z</time>
      </trkpt>
      <trkpt lat="47.43234" lon="3.78458">
        <ele>172</ele>
        <time>2014-04-18T09:41:09Z</time>
      </trkpt>
      <trkpt lat="47.43247" lon="3.7845">
        <ele>172</ele>
        <time>2014-04-18T09:41:27Z</time>
      </trkpt>
      <trkpt lat="47.43252" lon="3.78453">
        <ele>173</ele>
        <time>2014-04-18T09:41:30Z</time>
      </trkpt>
      <trkpt lat="47.43257" lon="3.78455">
        <ele>173</ele>
        <time>2014-04-18T09:41:34Z</time>
      </trkpt>
      <trkpt lat="47.4326" lon="3.7845">
        <ele>173</ele>
        <time>2014-04-18T09:41:44Z</time>
      </trkpt>
      <trkpt lat="47.4326" lon="3.78444">
        <ele>173</ele>
        <time>2014-04-18T09:41:54Z</time>
      </trkpt>
      <trkpt lat="47.43265" lon="3.78446">
        <ele>173</ele>
        <time>2014-04-18T09:42:03Z</time>
      </trkpt>
      <trkpt lat="47.43271" lon="3.78445">
        <ele>173</ele>
        <time>2014-04-18T09:42:09Z</time>
      </trkpt>
      <trkpt lat="47.43275" lon="3.78442">
        <ele>173</ele>
        <time>2014-04-18T09:42:13Z</time>
      </trkpt>
      <trkpt lat="47.4328" lon="3.78443">
        <ele>173</ele>
        <time>2014-04-18T09:42:17Z</time>
      </trkpt>
      <trkpt lat="47.43285" lon="3.78445">
        <ele>172</ele>
        <time>2014-04-18T09:42:20Z</time>
      </trkpt>
      <trkpt lat="47.43288" lon="3.7845">
        <ele>172</ele>
        <time>2014-04-18T09:42:23Z</time>
      </trkpt>
      <trkpt lat="47.4329" lon="3.78448">
        <ele>172</ele>
        <time>2014-04-18T09:42:32Z</time>
      </trkpt>
      <trkpt lat="47.43297" lon="3.78405">
        <ele>173</ele>
        <time>2014-04-18T09:42:54Z</time>
      </trkpt>
      <trkpt lat="47.43306" lon="3.7839">
        <ele>173</ele>
        <time>2014-04-18T10:12:23Z</time>
      </trkpt>
      <trkpt lat="47.43306" lon="3.78366">
        <ele>174</ele>
        <time>2014-04-18T10:12:37Z</time>
      </trkpt>
      <trkpt lat="47.43303" lon="3.7836">
        <ele>174</ele>
        <time>2014-04-18T10:12:43Z</time>
      </trkpt>
      <trkpt lat="47.43298" lon="3.78358">
        <ele>174</ele>
        <time>2014-04-18T10:12:49Z</time>
      </trkpt>
      <trkpt lat="47.43286" lon="3.78355">
        <ele>173</ele>
        <time>2014-04-18T10:12:59Z</time>
      </trkpt>
      <trkpt lat="47.43276" lon="3.78356">
        <ele>173</ele>
        <time>2014-04-18T10:13:11Z</time>
      </trkpt>
      <trkpt lat="47.43271" lon="3.78359">
        <ele>173</ele>
        <time>2014-04-18T10:13:17Z</time>
      </trkpt>
      <trkpt lat="47.43266" lon="3.78357">
        <ele>173</ele>
        <time>2014-04-18T10:13:21Z</time>
      </trkpt>
      <trkpt lat="47.43261" lon="3.78355">
        <ele>173</ele>
        <time>2014-04-18T10:13:25Z</time>
      </trkpt>
      <trkpt lat="47.43256" lon="3.78352">
        <ele>173</ele>
        <time>2014-04-18T10:13:29Z</time>
      </trkpt>
      <trkpt lat="47.43252" lon="3.78348">
        <ele>173</ele>
        <time>2014-04-18T10:13:33Z</time>
      </trkpt>
      <trkpt lat="47.43248" lon="3.78345">
        <ele>172</ele>
        <time>2014-04-18T10:13:41Z</time>
      </trkpt>
      <trkpt lat="47.43241" lon="3.78342">
        <ele>171</ele>
        <time>2014-04-18T10:13:51Z</time>
      </trkpt>
      <trkpt lat="47.43236" lon="3.78339">
        <ele>171</ele>
        <time>2014-04-18T10:13:56Z</time>
      </trkpt>
      <trkpt lat="47.43223" lon="3.7833">
        <ele>170</ele>
        <time>2014-04-18T10:14:08Z</time>
      </trkpt>
      <trkpt lat="47.43218" lon="3.78328">
        <ele>169</ele>
        <time>2014-04-18T10:14:12Z</time>
      </trkpt>
      <trkpt lat="47.43213" lon="3.78327">
        <ele>169</ele>
        <time>2014-04-18T10:14:16Z</time>
      </trkpt>
      <trkpt lat="47.43199" lon="3.7833">
        <ele>168</ele>
        <time>2014-04-18T10:14:26Z</time>
      </trkpt>
      <trkpt lat="47.43194" lon="3.78333">
        <ele>167</ele>
        <time>2014-04-18T10:14:30Z</time>
      </trkpt>
      <trkpt lat="47.4319" lon="3.78338">
        <ele>167</ele>
        <time>2014-04-18T10:14:34Z</time>
      </trkpt>
      <trkpt lat="47.43175" lon="3.78343">
        <ele>166</ele>
        <time>2014-04-18T10:14:46Z</time>
      </trkpt>
      <trkpt lat="47.43171" lon="3.78345">
        <ele>166</ele>
        <time>2014-04-18T10:14:52Z</time>
      </trkpt>
      <trkpt lat="47.43167" lon="3.78343">
        <ele>166</ele>
        <time>2014-04-18T10:14:58Z</time>
      </trkpt>
      <trkpt lat="47.43162" lon="3.78343">
        <ele>164</ele>
        <time>2014-04-18T10:15:03Z</time>
      </trkpt>
      <trkpt lat="47.43158" lon="3.78347">
        <ele>165</ele>
        <time>2014-04-18T10:15:08Z</time>
      </trkpt>
      <trkpt lat="47.43154" lon="3.78352">
        <ele>165</ele>
        <time>2014-04-18T10:15:12Z</time>
      </trkpt>
      <trkpt lat="47.43145" lon="3.7836">
        <ele>165</ele>
        <time>2014-04-18T10:15:21Z</time>
      </trkpt>
      <trkpt lat="47.43142" lon="3.78366">
        <ele>165</ele>
        <time>2014-04-18T10:15:26Z</time>
      </trkpt>
      <trkpt lat="47.43138" lon="3.78371">
        <ele>165</ele>
        <time>2014-04-18T10:15:30Z</time>
      </trkpt>
      <trkpt lat="47.43134" lon="3.78376">
        <ele>165</ele>
        <time>2014-04-18T10:15:34Z</time>
      </trkpt>
      <trkpt lat="47.43132" lon="3.78383">
        <ele>166</ele>
        <time>2014-04-18T10:15:43Z</time>
      </trkpt>
      <trkpt lat="47.43122" lon="3.78381">
        <ele>166</ele>
        <time>2014-04-18T10:15:56Z</time>
      </trkpt>
      <trkpt lat="47.43117" lon="3.78383">
        <ele>166</ele>
        <time>2014-04-18T10:16:02Z</time>
      </trkpt>
      <trkpt lat="47.43112" lon="3.78384">
        <ele>166</ele>
        <time>2014-04-18T10:16:06Z</time>
      </trkpt>
      <trkpt lat="47.43106" lon="3.78383">
        <ele>166</ele>
        <time>2014-04-18T10:16:10Z</time>
      </trkpt>
      <trkpt lat="47.43097" lon="3.78387">
        <ele>166</ele>
        <time>2014-04-18T10:16:16Z</time>
      </trkpt>
      <trkpt lat="47.43092" lon="3.7839">
        <ele>167</ele>
        <time>2014-04-18T10:16:20Z</time>
      </trkpt>
      <trkpt lat="47.43087" lon="3.78392">
        <ele>167</ele>
        <time>2014-04-18T10:16:24Z</time>
      </trkpt>
      <trkpt lat="47.43077" lon="3.78393">
        <ele>169</ele>
        <time>2014-04-18T10:16:31Z</time>
      </trkpt>
      <trkpt lat="47.43072" lon="3.78394">
        <ele>169</ele>
        <time>2014-04-18T10:16:35Z</time>
      </trkpt>
      <trkpt lat="47.43068" lon="3.78398">
        <ele>169</ele>
        <time>2014-04-18T10:16:39Z</time>
      </trkpt>
      <trkpt lat="47.43058" lon="3.78401">
        <ele>169</ele>
        <time>2014-04-18T10:16:47Z</time>
      </trkpt>
      <trkpt lat="47.43053" lon="3.784">
        <ele>169</ele>
        <time>2014-04-18T10:16:51Z</time>
      </trkpt>
      <trkpt lat="47.43043" lon="3.78399">
        <ele>170</ele>
        <time>2014-04-18T10:17:01Z</time>
      </trkpt>
      <trkpt lat="47.43039" lon="3.78395">
        <ele>170</ele>
        <time>2014-04-18T10:17:06Z</time>
      </trkpt>
      <trkpt lat="47.43034" lon="3.78396">
        <ele>170</ele>
        <time>2014-04-18T10:17:11Z</time>
      </trkpt>
      <trkpt lat="47.43028" lon="3.78398">
        <ele>171</ele>
        <time>2014-04-18T10:17:15Z</time>
      </trkpt>
      <trkpt lat="47.43022" lon="3.78399">
        <ele>171</ele>
        <time>2014-04-18T10:17:19Z</time>
      </trkpt>
      <trkpt lat="47.43017" lon="3.78397">
        <ele>171</ele>
        <time>2014-04-18T10:17:23Z</time>
      </trkpt>
      <trkpt lat="47.43012" lon="3.78398">
        <ele>172</ele>
        <time>2014-04-18T10:17:28Z</time>
      </trkpt>
      <trkpt lat="47.43003" lon="3.784">
        <ele>173</ele>
        <time>2014-04-18T10:17:37Z</time>
      </trkpt>
      <trkpt lat="47.42997" lon="3.78399">
        <ele>174</ele>
        <time>2014-04-18T10:17:42Z</time>
      </trkpt>
      <trkpt lat="47.42993" lon="3.78395">
        <ele>173</ele>
        <time>2014-04-18T10:17:46Z</time>
      </trkpt>
      <trkpt lat="47.42983" lon="3.78392">
        <ele>173</ele>
        <time>2014-04-18T10:17:54Z</time>
      </trkpt>
      <trkpt lat="47.4298" lon="3.78388">
        <ele>173</ele>
        <time>2014-04-18T10:18:00Z</time>
      </trkpt>
      <trkpt lat="47.42975" lon="3.78389">
        <ele>173</ele>
        <time>2014-04-18T10:18:05Z</time>
      </trkpt>
      <trkpt lat="47.4297" lon="3.7839">
        <ele>173</ele>
        <time>2014-04-18T10:18:09Z</time>
      </trkpt>
      <trkpt lat="47.42965" lon="3.78393">
        <ele>173</ele>
        <time>2014-04-18T10:18:12Z</time>
      </trkpt>
      <trkpt lat="47.42959" lon="3.78394">
        <ele>173</ele>
        <time>2014-04-18T10:18:15Z</time>
      </trkpt>
      <trkpt lat="47.42953" lon="3.78393">
        <ele>173</ele>
        <time>2014-04-18T10:18:18Z</time>
      </trkpt>
      <trkpt lat="47.42947" lon="3.78394">
        <ele>173</ele>
        <time>2014-04-18T10:18:22Z</time>
      </trkpt>
      <trkpt lat="47.42943" lon="3.78397">
        <ele>174</ele>
        <time>2014-04-18T10:18:26Z</time>
      </trkpt>
      <trkpt lat="47.42938" lon="3.78397">
        <ele>174</ele>
        <time>2014-04-18T10:18:30Z</time>
      </trkpt>
      <trkpt lat="47.42933" lon="3.78396">
        <ele>174</ele>
        <time>2014-04-18T10:18:35Z</time>
      </trkpt>
      <trkpt lat="47.42929" lon="3.784">
        <ele>175</ele>
        <time>2014-04-18T10:18:42Z</time>
      </trkpt>
      <trkpt lat="47.42913" lon="3.78402">
        <ele>176</ele>
        <time>2014-04-18T10:18:55Z</time>
      </trkpt>
      <trkpt lat="47.42909" lon="3.78404">
        <ele>176</ele>
        <time>2014-04-18T10:18:58Z</time>
      </trkpt>
      <trkpt lat="47.42904" lon="3.78404">
        <ele>176</ele>
        <time>2014-04-18T10:19:01Z</time>
      </trkpt>
      <trkpt lat="47.429" lon="3.78406">
        <ele>176</ele>
        <time>2014-04-18T10:19:05Z</time>
      </trkpt>
      <trkpt lat="47.42894" lon="3.78406">
        <ele>175</ele>
        <time>2014-04-18T10:19:10Z</time>
      </trkpt>
      <trkpt lat="47.42889" lon="3.78408">
        <ele>175</ele>
        <time>2014-04-18T10:19:15Z</time>
      </trkpt>
      <trkpt lat="47.42884" lon="3.78406">
        <ele>175</ele>
        <time>2014-04-18T10:19:19Z</time>
      </trkpt>
      <trkpt lat="47.42879" lon="3.78408">
        <ele>175</ele>
        <time>2014-04-18T10:19:26Z</time>
      </trkpt>
      <trkpt lat="47.42868" lon="3.78404">
        <ele>174</ele>
        <time>2014-04-18T10:19:29Z</time>
      </trkpt>
      <trkpt lat="47.42863" lon="3.78405">
        <ele>174</ele>
        <time>2014-04-18T10:19:34Z</time>
      </trkpt>
      <trkpt lat="47.42857" lon="3.78404">
        <ele>175</ele>
        <time>2014-04-18T10:19:38Z</time>
      </trkpt>
      <trkpt lat="47.42851" lon="3.78405">
        <ele>175</ele>
        <time>2014-04-18T10:19:42Z</time>
      </trkpt>
      <trkpt lat="47.42846" lon="3.78407">
        <ele>175</ele>
        <time>2014-04-18T10:19:48Z</time>
      </trkpt>
      <trkpt lat="47.42841" lon="3.78409">
        <ele>176</ele>
        <time>2014-04-18T10:19:52Z</time>
      </trkpt>
      <trkpt lat="47.42836" lon="3.7841">
        <ele>177</ele>
        <time>2014-04-18T10:19:55Z</time>
      </trkpt>
      <trkpt lat="47.4283" lon="3.78409">
        <ele>176</ele>
        <time>2014-04-18T10:19:59Z</time>
      </trkpt>
      <trkpt lat="47.42826" lon="3.78409">
        <ele>176</ele>
        <time>2014-04-18T10:20:03Z</time>
      </trkpt>
      <trkpt lat="47.4282" lon="3.78411">
        <ele>175</ele>
        <time>2014-04-18T10:20:08Z</time>
      </trkpt>
      <trkpt lat="47.42816" lon="3.78413">
        <ele>175</ele>
        <time>2014-04-18T10:20:13Z</time>
      </trkpt>
      <trkpt lat="47.42811" lon="3.78413">
        <ele>174</ele>
        <time>2014-04-18T10:20:16Z</time>
      </trkpt>
      <trkpt lat="47.42806" lon="3.78412">
        <ele>174</ele>
        <time>2014-04-18T10:20:20Z</time>
      </trkpt>
      <trkpt lat="47.42801" lon="3.78413">
        <ele>174</ele>
        <time>2014-04-18T10:20:25Z</time>
      </trkpt>
      <trkpt lat="47.42795" lon="3.78416">
        <ele>174</ele>
        <time>2014-04-18T10:20:29Z</time>
      </trkpt>
      <trkpt lat="47.4279" lon="3.78418">
        <ele>181</ele>
        <time>2014-04-18T10:20:33Z</time>
      </trkpt>
      <trkpt lat="47.42782" lon="3.7841">
        <ele>174</ele>
        <time>2014-04-18T10:20:40Z</time>
      </trkpt>
      <trkpt lat="47.42777" lon="3.78409">
        <ele>174</ele>
        <time>2014-04-18T10:20:43Z</time>
      </trkpt>
      <trkpt lat="47.42766" lon="3.78412">
        <ele>174</ele>
        <time>2014-04-18T10:20:49Z</time>
      </trkpt>
      <trkpt lat="47.42761" lon="3.78412">
        <ele>175</ele>
        <time>2014-04-18T10:20:53Z</time>
      </trkpt>
      <trkpt lat="47.42757" lon="3.78412">
        <ele>176</ele>
        <time>2014-04-18T10:20:56Z</time>
      </trkpt>
      <trkpt lat="47.42752" lon="3.78413">
        <ele>176</ele>
        <time>2014-04-18T10:21:00Z</time>
      </trkpt>
      <trkpt lat="47.42746" lon="3.78415">
        <ele>176</ele>
        <time>2014-04-18T10:21:06Z</time>
      </trkpt>
      <trkpt lat="47.42741" lon="3.78416">
        <ele>176</ele>
        <time>2014-04-18T10:21:10Z</time>
      </trkpt>
      <trkpt lat="47.42736" lon="3.7842">
        <ele>180</ele>
        <time>2014-04-18T10:21:14Z</time>
      </trkpt>
      <trkpt lat="47.42725" lon="3.78418">
        <ele>181</ele>
        <time>2014-04-18T10:21:21Z</time>
      </trkpt>
      <trkpt lat="47.4272" lon="3.7842">
        <ele>181</ele>
        <time>2014-04-18T10:21:25Z</time>
      </trkpt>
      <trkpt lat="47.42715" lon="3.78422">
        <ele>182</ele>
        <time>2014-04-18T10:21:29Z</time>
      </trkpt>
      <trkpt lat="47.42708" lon="3.78433">
        <ele>182</ele>
        <time>2014-04-18T10:21:41Z</time>
      </trkpt>
      <trkpt lat="47.42702" lon="3.78433">
        <ele>182</ele>
        <time>2014-04-18T10:21:49Z</time>
      </trkpt>
      <trkpt lat="47.42697" lon="3.78432">
        <ele>182</ele>
        <time>2014-04-18T10:21:54Z</time>
      </trkpt>
      <trkpt lat="47.42687" lon="3.78436">
        <ele>182</ele>
        <time>2014-04-18T10:22:06Z</time>
      </trkpt>
      <trkpt lat="47.42677" lon="3.78444">
        <ele>183</ele>
        <time>2014-04-18T10:22:15Z</time>
      </trkpt>
      <trkpt lat="47.42671" lon="3.78447">
        <ele>183</ele>
        <time>2014-04-18T10:22:20Z</time>
      </trkpt>
      <trkpt lat="47.42667" lon="3.78444">
        <ele>185</ele>
        <time>2014-04-18T10:22:24Z</time>
      </trkpt>
      <trkpt lat="47.42657" lon="3.78449">
        <ele>185</ele>
        <time>2014-04-18T10:22:33Z</time>
      </trkpt>
      <trkpt lat="47.42652" lon="3.78449">
        <ele>185</ele>
        <time>2014-04-18T10:22:37Z</time>
      </trkpt>
      <trkpt lat="47.42647" lon="3.78449">
        <ele>185</ele>
        <time>2014-04-18T10:22:42Z</time>
      </trkpt>
      <trkpt lat="47.42642" lon="3.78451">
        <ele>186</ele>
        <time>2014-04-18T10:22:46Z</time>
      </trkpt>
      <trkpt lat="47.42637" lon="3.78454">
        <ele>186</ele>
        <time>2014-04-18T10:22:50Z</time>
      </trkpt>
      <trkpt lat="47.42633" lon="3.78459">
        <ele>186</ele>
        <time>2014-04-18T10:22:58Z</time>
      </trkpt>
      <trkpt lat="47.42629" lon="3.78463">
        <ele>187</ele>
        <time>2014-04-18T10:23:01Z</time>
      </trkpt>
      <trkpt lat="47.42624" lon="3.78466">
        <ele>187</ele>
        <time>2014-04-18T10:23:04Z</time>
      </trkpt>
      <trkpt lat="47.4262" lon="3.7847">
        <ele>187</ele>
        <time>2014-04-18T10:23:08Z</time>
      </trkpt>
      <trkpt lat="47.42616" lon="3.78473">
        <ele>188</ele>
        <time>2014-04-18T10:23:15Z</time>
      </trkpt>
      <trkpt lat="47.42611" lon="3.78474">
        <ele>188</ele>
        <time>2014-04-18T10:23:23Z</time>
      </trkpt>
      <trkpt lat="47.42606" lon="3.78478">
        <ele>188</ele>
        <time>2014-04-18T10:23:27Z</time>
      </trkpt>
      <trkpt lat="47.42595" lon="3.78483">
        <ele>190</ele>
        <time>2014-04-18T10:23:35Z</time>
      </trkpt>
      <trkpt lat="47.42582" lon="3.78497">
        <ele>193</ele>
        <time>2014-04-18T10:23:46Z</time>
      </trkpt>
      <trkpt lat="47.42577" lon="3.78498">
        <ele>193</ele>
        <time>2014-04-18T10:23:53Z</time>
      </trkpt>
      <trkpt lat="47.42569" lon="3.78506">
        <ele>195</ele>
        <time>2014-04-18T10:24:04Z</time>
      </trkpt>
      <trkpt lat="47.42565" lon="3.7851">
        <ele>196</ele>
        <time>2014-04-18T10:24:09Z</time>
      </trkpt>
      <trkpt lat="47.4256" lon="3.78513">
        <ele>196</ele>
        <time>2014-04-18T10:24:14Z</time>
      </trkpt>
      <trkpt lat="47.42555" lon="3.78514">
        <ele>196</ele>
        <time>2014-04-18T10:24:19Z</time>
      </trkpt>
      <trkpt lat="47.42551" lon="3.78519">
        <ele>196</ele>
        <time>2014-04-18T10:24:23Z</time>
      </trkpt>
      <trkpt lat="47.42546" lon="3.78531">
        <ele>197</ele>
        <time>2014-04-18T10:24:30Z</time>
      </trkpt>
      <trkpt lat="47.42542" lon="3.78536">
        <ele>197</ele>
        <time>2014-04-18T10:24:34Z</time>
      </trkpt>
      <trkpt lat="47.42533" lon="3.78543">
        <ele>197</ele>
        <time>2014-04-18T10:24:41Z</time>
      </trkpt>
      <trkpt lat="47.42529" lon="3.78548">
        <ele>198</ele>
        <time>2014-04-18T10:24:45Z</time>
      </trkpt>
      <trkpt lat="47.42525" lon="3.78552">
        <ele>198</ele>
        <time>2014-04-18T10:24:49Z</time>
      </trkpt>
      <trkpt lat="47.42521" lon="3.78554">
        <ele>198</ele>
        <time>2014-04-18T10:24:52Z</time>
      </trkpt>
      <trkpt lat="47.42516" lon="3.78557">
        <ele>198</ele>
        <time>2014-04-18T10:24:56Z</time>
      </trkpt>
      <trkpt lat="47.42502" lon="3.78569">
        <ele>200</ele>
        <time>2014-04-18T10:25:06Z</time>
      </trkpt>
      <trkpt lat="47.42499" lon="3.78574">
        <ele>201</ele>
        <time>2014-04-18T10:25:09Z</time>
      </trkpt>
      <trkpt lat="47.42489" lon="3.78575">
        <ele>201</ele>
        <time>2014-04-18T10:25:22Z</time>
      </trkpt>
      <trkpt lat="47.42477" lon="3.786">
        <ele>206</ele>
        <time>2014-04-18T10:25:37Z</time>
      </trkpt>
      <trkpt lat="47.42473" lon="3.78603">
        <ele>206</ele>
        <time>2014-04-18T10:25:45Z</time>
      </trkpt>
      <trkpt lat="47.42468" lon="3.78604">
        <ele>206</ele>
        <time>2014-04-18T10:25:51Z</time>
      </trkpt>
      <trkpt lat="47.42463" lon="3.78603">
        <ele>206</ele>
        <time>2014-04-18T10:25:57Z</time>
      </trkpt>
      <trkpt lat="47.4246" lon="3.78609">
        <ele>207</ele>
        <time>2014-04-18T10:26:04Z</time>
      </trkpt>
      <trkpt lat="47.42455" lon="3.78611">
        <ele>207</ele>
        <time>2014-04-18T10:26:08Z</time>
      </trkpt>
      <trkpt lat="47.4245" lon="3.78614">
        <ele>207</ele>
        <time>2014-04-18T10:26:12Z</time>
      </trkpt>
      <trkpt lat="47.42447" lon="3.78619">
        <ele>207</ele>
        <time>2014-04-18T10:26:18Z</time>
      </trkpt>
      <trkpt lat="47.42442" lon="3.78624">
        <ele>208</ele>
        <time>2014-04-18T10:26:23Z</time>
      </trkpt>
      <trkpt lat="47.42438" lon="3.78629">
        <ele>208</ele>
        <time>2014-04-18T10:26:26Z</time>
      </trkpt>
      <trkpt lat="47.42433" lon="3.78633">
        <ele>208</ele>
        <time>2014-04-18T10:26:29Z</time>
      </trkpt>
      <trkpt lat="47.42428" lon="3.78637">
        <ele>209</ele>
        <time>2014-04-18T10:26:32Z</time>
      </trkpt>
      <trkpt lat="47.42418" lon="3.78642">
        <ele>209</ele>
        <time>2014-04-18T10:26:41Z</time>
      </trkpt>
      <trkpt lat="47.42416" lon="3.78648">
        <ele>211</ele>
        <time>2014-04-18T10:26:48Z</time>
      </trkpt>
      <trkpt lat="47.42418" lon="3.78651">
        <ele>210</ele>
        <time>2014-04-18T10:27:05Z</time>
      </trkpt>
      <trkpt lat="47.42415" lon="3.78656">
        <ele>212</ele>
        <time>2014-04-18T10:27:09Z</time>
      </trkpt>
      <trkpt lat="47.4241" lon="3.78658">
        <ele>212</ele>
        <time>2014-04-18T10:27:13Z</time>
      </trkpt>
      <trkpt lat="47.42406" lon="3.78662">
        <ele>212</ele>
        <time>2014-04-18T10:27:16Z</time>
      </trkpt>
      <trkpt lat="47.42401" lon="3.78664">
        <ele>212</ele>
        <time>2014-04-18T10:27:19Z</time>
      </trkpt>
      <trkpt lat="47.42395" lon="3.78666">
        <ele>211</ele>
        <time>2014-04-18T10:27:22Z</time>
      </trkpt>
      <trkpt lat="47.42381" lon="3.78666">
        <ele>211</ele>
        <time>2014-04-18T10:27:36Z</time>
      </trkpt>
      <trkpt lat="47.42374" lon="3.78676">
        <ele>215</ele>
        <time>2014-04-18T10:27:45Z</time>
      </trkpt>
      <trkpt lat="47.42368" lon="3.78688">
        <ele>215</ele>
        <time>2014-04-18T10:27:52Z</time>
      </trkpt>
      <trkpt lat="47.4235" lon="3.78712">
        <ele>216</ele>
        <time>2014-04-18T10:28:12Z</time>
      </trkpt>
      <trkpt lat="47.42345" lon="3.78715">
        <ele>216</ele>
        <time>2014-04-18T10:28:16Z</time>
      </trkpt>
      <trkpt lat="47.42336" lon="3.78718">
        <ele>217</ele>
        <time>2014-04-18T10:28:23Z</time>
      </trkpt>
      <trkpt lat="47.42331" lon="3.78722">
        <ele>217</ele>
        <time>2014-04-18T10:28:28Z</time>
      </trkpt>
      <trkpt lat="47.42326" lon="3.78725">
        <ele>217</ele>
        <time>2014-04-18T10:28:32Z</time>
      </trkpt>
      <trkpt lat="47.4232" lon="3.78727">
        <ele>217</ele>
        <time>2014-04-18T10:28:35Z</time>
      </trkpt>
      <trkpt lat="47.42314" lon="3.78729">
        <ele>217</ele>
        <time>2014-04-18T10:28:39Z</time>
      </trkpt>
      <trkpt lat="47.4231" lon="3.78735">
        <ele>217</ele>
        <time>2014-04-18T10:28:43Z</time>
      </trkpt>
      <trkpt lat="47.42306" lon="3.78741">
        <ele>217</ele>
        <time>2014-04-18T10:28:46Z</time>
      </trkpt>
      <trkpt lat="47.42301" lon="3.78745">
        <ele>217</ele>
        <time>2014-04-18T10:28:50Z</time>
      </trkpt>
      <trkpt lat="47.42298" lon="3.78751">
        <ele>219</ele>
        <time>2014-04-18T10:28:55Z</time>
      </trkpt>
      <trkpt lat="47.42296" lon="3.7876">
        <ele>219</ele>
        <time>2014-04-18T10:28:59Z</time>
      </trkpt>
      <trkpt lat="47.42294" lon="3.78764">
        <ele>219</ele>
        <time>2014-04-18T10:29:11Z</time>
      </trkpt>
      <trkpt lat="47.42289" lon="3.78765">
        <ele>219</ele>
        <time>2014-04-18T10:29:17Z</time>
      </trkpt>
      <trkpt lat="47.42284" lon="3.78764">
        <ele>219</ele>
        <time>2014-04-18T10:29:23Z</time>
      </trkpt>
      <trkpt lat="47.42281" lon="3.78773">
        <ele>219</ele>
        <time>2014-04-18T10:29:36Z</time>
      </trkpt>
      <trkpt lat="47.42278" lon="3.78779">
        <ele>219</ele>
        <time>2014-04-18T10:29:41Z</time>
      </trkpt>
      <trkpt lat="47.42273" lon="3.78782">
        <ele>219</ele>
        <time>2014-04-18T10:29:46Z</time>
      </trkpt>
      <trkpt lat="47.42267" lon="3.78782">
        <ele>219</ele>
        <time>2014-04-18T10:29:50Z</time>
      </trkpt>
      <trkpt lat="47.42263" lon="3.78784">
        <ele>219</ele>
        <time>2014-04-18T10:29:54Z</time>
      </trkpt>
      <trkpt lat="47.42246" lon="3.78798">
        <ele>219</ele>
        <time>2014-04-18T10:30:04Z</time>
      </trkpt>
      <trkpt lat="47.42228" lon="3.78809">
        <ele>220</ele>
        <time>2014-04-18T10:30:16Z</time>
      </trkpt>
      <trkpt lat="47.42224" lon="3.78808">
        <ele>220</ele>
        <time>2014-04-18T10:30:25Z</time>
      </trkpt>
      <trkpt lat="47.4222" lon="3.78817">
        <ele>220</ele>
        <time>2014-04-18T10:30:37Z</time>
      </trkpt>
      <trkpt lat="47.42218" lon="3.78823">
        <ele>220</ele>
        <time>2014-04-18T10:30:42Z</time>
      </trkpt>
      <trkpt lat="47.42216" lon="3.78835">
        <ele>221</ele>
        <time>2014-04-18T10:30:46Z</time>
      </trkpt>
      <trkpt lat="47.42206" lon="3.78834">
        <ele>221</ele>
        <time>2014-04-18T10:30:55Z</time>
      </trkpt>
      <trkpt lat="47.42196" lon="3.78837">
        <ele>221</ele>
        <time>2014-04-18T10:31:01Z</time>
      </trkpt>
      <trkpt lat="47.4219" lon="3.78837">
        <ele>221</ele>
        <time>2014-04-18T10:31:04Z</time>
      </trkpt>
      <trkpt lat="47.42185" lon="3.7884">
        <ele>221</ele>
        <time>2014-04-18T10:31:07Z</time>
      </trkpt>
      <trkpt lat="47.42181" lon="3.78843">
        <ele>221</ele>
        <time>2014-04-18T10:31:14Z</time>
      </trkpt>
      <trkpt lat="47.42176" lon="3.78847">
        <ele>221</ele>
        <time>2014-04-18T10:31:19Z</time>
      </trkpt>
      <trkpt lat="47.42172" lon="3.78859">
        <ele>221</ele>
        <time>2014-04-18T10:31:28Z</time>
      </trkpt>
      <trkpt lat="47.42169" lon="3.78865">
        <ele>221</ele>
        <time>2014-04-18T10:31:48Z</time>
      </trkpt>
      <trkpt lat="47.42165" lon="3.78867">
        <ele>221</ele>
        <time>2014-04-18T10:31:56Z</time>
      </trkpt>
      <trkpt lat="47.42159" lon="3.78864">
        <ele>221</ele>
        <time>2014-04-18T10:32:02Z</time>
      </trkpt>
      <trkpt lat="47.42154" lon="3.78864">
        <ele>221</ele>
        <time>2014-04-18T10:32:09Z</time>
      </trkpt>
      <trkpt lat="47.4215" lon="3.78867">
        <ele>221</ele>
        <time>2014-04-18T10:32:14Z</time>
      </trkpt>
      <trkpt lat="47.42145" lon="3.78868">
        <ele>221</ele>
        <time>2014-04-18T10:32:20Z</time>
      </trkpt>
      <trkpt lat="47.42141" lon="3.78872">
        <ele>221</ele>
        <time>2014-04-18T10:32:28Z</time>
      </trkpt>
      <trkpt lat="47.4213" lon="3.78872">
        <ele>221</ele>
        <time>2014-04-18T10:32:35Z</time>
      </trkpt>
      <trkpt lat="47.42125" lon="3.78872">
        <ele>221</ele>
        <time>2014-04-18T10:32:40Z</time>
      </trkpt>
      <trkpt lat="47.42122" lon="3.78878">
        <ele>222</ele>
        <time>2014-04-18T10:32:45Z</time>
      </trkpt>
      <trkpt lat="47.42118" lon="3.78879">
        <ele>222</ele>
        <time>2014-04-18T10:32:50Z</time>
      </trkpt>
      <trkpt lat="47.42112" lon="3.78884">
        <ele>222</ele>
        <time>2014-04-18T10:33:01Z</time>
      </trkpt>
      <trkpt lat="47.42107" lon="3.78898">
        <ele>222</ele>
        <time>2014-04-18T10:33:09Z</time>
      </trkpt>
      <trkpt lat="47.42103" lon="3.78903">
        <ele>222</ele>
        <time>2014-04-18T10:33:14Z</time>
      </trkpt>
      <trkpt lat="47.42093" lon="3.78904">
        <ele>222</ele>
        <time>2014-04-18T10:33:22Z</time>
      </trkpt>
      <trkpt lat="47.42088" lon="3.78907">
        <ele>222</ele>
        <time>2014-04-18T10:33:26Z</time>
      </trkpt>
      <trkpt lat="47.42083" lon="3.78909">
        <ele>222</ele>
        <time>2014-04-18T10:33:31Z</time>
      </trkpt>
      <trkpt lat="47.42079" lon="3.78913">
        <ele>222</ele>
        <time>2014-04-18T10:33:35Z</time>
      </trkpt>
      <trkpt lat="47.42074" lon="3.78915">
        <ele>222</ele>
        <time>2014-04-18T10:33:40Z</time>
      </trkpt>
      <trkpt lat="47.42069" lon="3.78914">
        <ele>221</ele>
        <time>2014-04-18T10:33:43Z</time>
      </trkpt>
      <trkpt lat="47.42065" lon="3.78918">
        <ele>223</ele>
        <time>2014-04-18T10:33:48Z</time>
      </trkpt>
      <trkpt lat="47.4206" lon="3.78917">
        <ele>223</ele>
        <time>2014-04-18T10:33:53Z</time>
      </trkpt>
      <trkpt lat="47.42056" lon="3.78919">
        <ele>222</ele>
        <time>2014-04-18T10:33:57Z</time>
      </trkpt>
      <trkpt lat="47.4205" lon="3.78923">
        <ele>222</ele>
        <time>2014-04-18T10:34:01Z</time>
      </trkpt>
      <trkpt lat="47.42046" lon="3.78926">
        <ele>222</ele>
        <time>2014-04-18T10:34:05Z</time>
      </trkpt>
      <trkpt lat="47.42042" lon="3.78929">
        <ele>222</ele>
        <time>2014-04-18T10:34:10Z</time>
      </trkpt>
      <trkpt lat="47.4204" lon="3.78936">
        <ele>222</ele>
        <time>2014-04-18T10:34:16Z</time>
      </trkpt>
      <trkpt lat="47.42038" lon="3.78942">
        <ele>222</ele>
        <time>2014-04-18T10:34:21Z</time>
      </trkpt>
      <trkpt lat="47.42029" lon="3.78949">
        <ele>222</ele>
        <time>2014-04-18T10:34:31Z</time>
      </trkpt>
      <trkpt lat="47.42025" lon="3.78954">
        <ele>222</ele>
        <time>2014-04-18T10:34:34Z</time>
      </trkpt>
      <trkpt lat="47.42021" lon="3.78959">
        <ele>222</ele>
        <time>2014-04-18T10:34:39Z</time>
      </trkpt>
      <trkpt lat="47.42019" lon="3.78966">
        <ele>222</ele>
        <time>2014-04-18T10:34:46Z</time>
      </trkpt>
      <trkpt lat="47.42015" lon="3.78971">
        <ele>222</ele>
        <time>2014-04-18T10:34:49Z</time>
      </trkpt>
      <trkpt lat="47.42011" lon="3.78972">
        <ele>222</ele>
        <time>2014-04-18T10:34:53Z</time>
      </trkpt>
      <trkpt lat="47.42004" lon="3.78974">
        <ele>222</ele>
        <time>2014-04-18T10:34:59Z</time>
      </trkpt>
      <trkpt lat="47.42" lon="3.78979">
        <ele>221</ele>
        <time>2014-04-18T10:35:03Z</time>
      </trkpt>
      <trkpt lat="47.41996" lon="3.78981">
        <ele>221</ele>
        <time>2014-04-18T10:35:06Z</time>
      </trkpt>
      <trkpt lat="47.41992" lon="3.78985">
        <ele>222</ele>
        <time>2014-04-18T10:35:10Z</time>
      </trkpt>
      <trkpt lat="47.41988" lon="3.7899">
        <ele>222</ele>
        <time>2014-04-18T10:35:16Z</time>
      </trkpt>
      <trkpt lat="47.4198" lon="3.78998">
        <ele>222</ele>
        <time>2014-04-18T10:35:25Z</time>
      </trkpt>
      <trkpt lat="47.41975" lon="3.79002">
        <ele>223</ele>
        <time>2014-04-18T10:35:29Z</time>
      </trkpt>
      <trkpt lat="47.41971" lon="3.79003">
        <ele>223</ele>
        <time>2014-04-18T10:35:33Z</time>
      </trkpt>
      <trkpt lat="47.41966" lon="3.79008">
        <ele>223</ele>
        <time>2014-04-18T10:35:38Z</time>
      </trkpt>
      <trkpt lat="47.41962" lon="3.79013">
        <ele>223</ele>
        <time>2014-04-18T10:35:41Z</time>
      </trkpt>
      <trkpt lat="47.4195" lon="3.79021">
        <ele>223</ele>
        <time>2014-04-18T10:35:53Z</time>
      </trkpt>
      <trkpt lat="47.41942" lon="3.79032">
        <ele>223</ele>
        <time>2014-04-18T10:35:59Z</time>
      </trkpt>
      <trkpt lat="47.41938" lon="3.79036">
        <ele>223</ele>
        <time>2014-04-18T10:36:02Z</time>
      </trkpt>
      <trkpt lat="47.41935" lon="3.79042">
        <ele>223</ele>
        <time>2014-04-18T10:36:06Z</time>
      </trkpt>
      <trkpt lat="47.41925" lon="3.79043">
        <ele>223</ele>
        <time>2014-04-18T10:36:16Z</time>
      </trkpt>
      <trkpt lat="47.41919" lon="3.79046">
        <ele>223</ele>
        <time>2014-04-18T10:36:23Z</time>
      </trkpt>
      <trkpt lat="47.41922" lon="3.79055">
        <ele>223</ele>
        <time>2014-04-18T10:36:28Z</time>
      </trkpt>
      <trkpt lat="47.41922" lon="3.79061">
        <ele>223</ele>
        <time>2014-04-18T10:36:36Z</time>
      </trkpt>
      <trkpt lat="47.41918" lon="3.79064">
        <ele>223</ele>
        <time>2014-04-18T10:37:08Z</time>
      </trkpt>
      <trkpt lat="47.41913" lon="3.79064">
        <ele>222</ele>
        <time>2014-04-18T10:37:15Z</time>
      </trkpt>
      <trkpt lat="47.41911" lon="3.7907">
        <ele>222</ele>
        <time>2014-04-18T10:37:25Z</time>
      </trkpt>
      <trkpt lat="47.41914" lon="3.79075">
        <ele>222</ele>
        <time>2014-04-18T10:37:32Z</time>
      </trkpt>
      <trkpt lat="47.41906" lon="3.79084">
        <ele>223</ele>
        <time>2014-04-18T10:39:08Z</time>
      </trkpt>
      <trkpt lat="47.41901" lon="3.79096">
        <ele>222</ele>
        <time>2014-04-18T10:39:17Z</time>
      </trkpt>
      <trkpt lat="47.41897" lon="3.79101">
        <ele>222</ele>
        <time>2014-04-18T10:39:21Z</time>
      </trkpt>
      <trkpt lat="47.41892" lon="3.79104">
        <ele>222</ele>
        <time>2014-04-18T10:39:28Z</time>
      </trkpt>
      <trkpt lat="47.41887" lon="3.79109">
        <ele>222</ele>
        <time>2014-04-18T10:39:32Z</time>
      </trkpt>
      <trkpt lat="47.41871" lon="3.79127">
        <ele>222</ele>
        <time>2014-04-18T10:39:48Z</time>
      </trkpt>
      <trkpt lat="47.41857" lon="3.79136">
        <ele>221</ele>
        <time>2014-04-18T10:39:57Z</time>
      </trkpt>
      <trkpt lat="47.41851" lon="3.79139">
        <ele>221</ele>
        <time>2014-04-18T10:40:01Z</time>
      </trkpt>
      <trkpt lat="47.41847" lon="3.79143">
        <ele>221</ele>
        <time>2014-04-18T10:40:04Z</time>
      </trkpt>
      <trkpt lat="47.41844" lon="3.79147">
        <ele>221</ele>
        <time>2014-04-18T10:40:09Z</time>
      </trkpt>
      <trkpt lat="47.41841" lon="3.79153">
        <ele>221</ele>
        <time>2014-04-18T10:40:13Z</time>
      </trkpt>
      <trkpt lat="47.41836" lon="3.79158">
        <ele>221</ele>
        <time>2014-04-18T10:40:16Z</time>
      </trkpt>
      <trkpt lat="47.41831" lon="3.79161">
        <ele>220</ele>
        <time>2014-04-18T10:40:20Z</time>
      </trkpt>
      <trkpt lat="47.41828" lon="3.79166">
        <ele>220</ele>
        <time>2014-04-18T10:40:24Z</time>
      </trkpt>
      <trkpt lat="47.41824" lon="3.79169">
        <ele>220</ele>
        <time>2014-04-18T10:40:29Z</time>
      </trkpt>
      <trkpt lat="47.41781" lon="3.79192">
        <ele>219</ele>
        <time>2014-04-18T10:41:10Z</time>
      </trkpt>
      <trkpt lat="47.41773" lon="3.79202">
        <ele>219</ele>
        <time>2014-04-18T10:41:18Z</time>
      </trkpt>
      <trkpt lat="47.41768" lon="3.79204">
        <ele>219</ele>
        <time>2014-04-18T10:41:22Z</time>
      </trkpt>
      <trkpt lat="47.41763" lon="3.79208">
        <ele>219</ele>
        <time>2014-04-18T10:41:27Z</time>
      </trkpt>
      <trkpt lat="47.4176" lon="3.79213">
        <ele>219</ele>
        <time>2014-04-18T10:41:34Z</time>
      </trkpt>
      <trkpt lat="47.41755" lon="3.79217">
        <ele>219</ele>
        <time>2014-04-18T10:41:40Z</time>
      </trkpt>
      <trkpt lat="47.41751" lon="3.79223">
        <ele>219</ele>
        <time>2014-04-18T10:41:45Z</time>
      </trkpt>
      <trkpt lat="47.4174" lon="3.79229">
        <ele>218</ele>
        <time>2014-04-18T10:41:53Z</time>
      </trkpt>
      <trkpt lat="47.41736" lon="3.79233">
        <ele>218</ele>
        <time>2014-04-18T10:41:56Z</time>
      </trkpt>
      <trkpt lat="47.41731" lon="3.79234">
        <ele>218</ele>
        <time>2014-04-18T10:42:00Z</time>
      </trkpt>
      <trkpt lat="47.41727" lon="3.79238">
        <ele>218</ele>
        <time>2014-04-18T10:42:05Z</time>
      </trkpt>
      <trkpt lat="47.41722" lon="3.79241">
        <ele>218</ele>
        <time>2014-04-18T10:42:09Z</time>
      </trkpt>
      <trkpt lat="47.41718" lon="3.79246">
        <ele>219</ele>
        <time>2014-04-18T10:42:12Z</time>
      </trkpt>
      <trkpt lat="47.41708" lon="3.79255">
        <ele>221</ele>
        <time>2014-04-18T10:42:21Z</time>
      </trkpt>
      <trkpt lat="47.41703" lon="3.79256">
        <ele>221</ele>
        <time>2014-04-18T10:42:25Z</time>
      </trkpt>
      <trkpt lat="47.41696" lon="3.7926">
        <ele>221</ele>
        <time>2014-04-18T10:42:30Z</time>
      </trkpt>
      <trkpt lat="47.41692" lon="3.79263">
        <ele>221</ele>
        <time>2014-04-18T10:42:34Z</time>
      </trkpt>
      <trkpt lat="47.41687" lon="3.79263">
        <ele>221</ele>
        <time>2014-04-18T10:42:39Z</time>
      </trkpt>
      <trkpt lat="47.41682" lon="3.79268">
        <ele>221</ele>
        <time>2014-04-18T10:42:45Z</time>
      </trkpt>
      <trkpt lat="47.41677" lon="3.79272">
        <ele>221</ele>
        <time>2014-04-18T10:42:51Z</time>
      </trkpt>
      <trkpt lat="47.41673" lon="3.79275">
        <ele>221</ele>
        <time>2014-04-18T10:42:57Z</time>
      </trkpt>
      <trkpt lat="47.41664" lon="3.79285">
        <ele>223</ele>
        <time>2014-04-18T10:43:05Z</time>
      </trkpt>
      <trkpt lat="47.4166" lon="3.79289">
        <ele>223</ele>
        <time>2014-04-18T10:43:10Z</time>
      </trkpt>
      <trkpt lat="47.41656" lon="3.79295">
        <ele>223</ele>
        <time>2014-04-18T10:43:15Z</time>
      </trkpt>
      <trkpt lat="47.41651" lon="3.79298">
        <ele>223</ele>
        <time>2014-04-18T10:43:22Z</time>
      </trkpt>
      <trkpt lat="47.41646" lon="3.79299">
        <ele>223</ele>
        <time>2014-04-18T10:43:27Z</time>
      </trkpt>
      <trkpt lat="47.41637" lon="3.79309">
        <ele>223</ele>
        <time>2014-04-18T10:43:36Z</time>
      </trkpt>
      <trkpt lat="47.41632" lon="3.7931">
        <ele>224</ele>
        <time>2014-04-18T10:43:40Z</time>
      </trkpt>
      <trkpt lat="47.41627" lon="3.79313">
        <ele>224</ele>
        <time>2014-04-18T10:43:45Z</time>
      </trkpt>
      <trkpt lat="47.41623" lon="3.79316">
        <ele>224</ele>
        <time>2014-04-18T10:43:49Z</time>
      </trkpt>
      <trkpt lat="47.41617" lon="3.79318">
        <ele>224</ele>
        <time>2014-04-18T10:43:54Z</time>
      </trkpt>
      <trkpt lat="47.41599" lon="3.79329">
        <ele>225</ele>
        <time>2014-04-18T10:44:12Z</time>
      </trkpt>
      <trkpt lat="47.41588" lon="3.79351">
        <ele>227</ele>
        <time>2014-04-18T10:44:26Z</time>
      </trkpt>
      <trkpt lat="47.41585" lon="3.79357">
        <ele>227</ele>
        <time>2014-04-18T10:44:30Z</time>
      </trkpt>
      <trkpt lat="47.41581" lon="3.79361">
        <ele>227</ele>
        <time>2014-04-18T10:44:33Z</time>
      </trkpt>
      <trkpt lat="47.41576" lon="3.79362">
        <ele>227</ele>
        <time>2014-04-18T10:44:37Z</time>
      </trkpt>
      <trkpt lat="47.41569" lon="3.79363">
        <ele>227</ele>
        <time>2014-04-18T10:44:41Z</time>
      </trkpt>
      <trkpt lat="47.41562" lon="3.79369">
        <ele>227</ele>
        <time>2014-04-18T10:44:45Z</time>
      </trkpt>
      <trkpt lat="47.41546" lon="3.79386">
        <ele>227</ele>
        <time>2014-04-18T10:45:01Z</time>
      </trkpt>
      <trkpt lat="47.41541" lon="3.79387">
        <ele>227</ele>
        <time>2014-04-18T10:45:05Z</time>
      </trkpt>
      <trkpt lat="47.41537" lon="3.79391">
        <ele>227</ele>
        <time>2014-04-18T10:45:08Z</time>
      </trkpt>
      <trkpt lat="47.41529" lon="3.79394">
        <ele>227</ele>
        <time>2014-04-18T10:45:15Z</time>
      </trkpt>
      <trkpt lat="47.41515" lon="3.79415">
        <ele>228</ele>
        <time>2014-04-18T10:45:27Z</time>
      </trkpt>
      <trkpt lat="47.4151" lon="3.7942">
        <ele>229</ele>
        <time>2014-04-18T10:45:31Z</time>
      </trkpt>
      <trkpt lat="47.41507" lon="3.79425">
        <ele>229</ele>
        <time>2014-04-18T10:45:35Z</time>
      </trkpt>
      <trkpt lat="47.41504" lon="3.7943">
        <ele>229</ele>
        <time>2014-04-18T10:45:40Z</time>
      </trkpt>
      <trkpt lat="47.41499" lon="3.79435">
        <ele>228</ele>
        <time>2014-04-18T10:45:45Z</time>
      </trkpt>
      <trkpt lat="47.41495" lon="3.79442">
        <ele>228</ele>
        <time>2014-04-18T10:45:51Z</time>
      </trkpt>
      <trkpt lat="47.41486" lon="3.79448">
        <ele>229</ele>
        <time>2014-04-18T10:46:00Z</time>
      </trkpt>
      <trkpt lat="47.41477" lon="3.79459">
        <ele>229</ele>
        <time>2014-04-18T10:46:06Z</time>
      </trkpt>
      <trkpt lat="47.41468" lon="3.79466">
        <ele>229</ele>
        <time>2014-04-18T10:46:13Z</time>
      </trkpt>
      <trkpt lat="47.41464" lon="3.7947">
        <ele>229</ele>
        <time>2014-04-18T10:46:17Z</time>
      </trkpt>
      <trkpt lat="47.41457" lon="3.7948">
        <ele>229</ele>
        <time>2014-04-18T10:46:32Z</time>
      </trkpt>
      <trkpt lat="47.41452" lon="3.79483">
        <ele>229</ele>
        <time>2014-04-18T10:46:38Z</time>
      </trkpt>
      <trkpt lat="47.41447" lon="3.79487">
        <ele>229</ele>
        <time>2014-04-18T10:46:42Z</time>
      </trkpt>
      <trkpt lat="47.41443" lon="3.79491">
        <ele>229</ele>
        <time>2014-04-18T10:46:47Z</time>
      </trkpt>
      <trkpt lat="47.41438" lon="3.79493">
        <ele>229</ele>
        <time>2014-04-18T10:46:53Z</time>
      </trkpt>
      <trkpt lat="47.41433" lon="3.79494">
        <ele>229</ele>
        <time>2014-04-18T10:46:57Z</time>
      </trkpt>
      <trkpt lat="47.41429" lon="3.79498">
        <ele>229</ele>
        <time>2014-04-18T10:47:01Z</time>
      </trkpt>
      <trkpt lat="47.41419" lon="3.7951">
        <ele>229</ele>
        <time>2014-04-18T10:47:16Z</time>
      </trkpt>
      <trkpt lat="47.41415" lon="3.79513">
        <ele>229</ele>
        <time>2014-04-18T10:47:21Z</time>
      </trkpt>
      <trkpt lat="47.41409" lon="3.79517">
        <ele>230</ele>
        <time>2014-04-18T10:47:25Z</time>
      </trkpt>
      <trkpt lat="47.41405" lon="3.79522">
        <ele>230</ele>
        <time>2014-04-18T10:47:28Z</time>
      </trkpt>
      <trkpt lat="47.414" lon="3.79526">
        <ele>230</ele>
        <time>2014-04-18T10:47:31Z</time>
      </trkpt>
      <trkpt lat="47.41392" lon="3.79535">
        <ele>230</ele>
        <time>2014-04-18T10:47:37Z</time>
      </trkpt>
      <trkpt lat="47.41384" lon="3.79546">
        <ele>230</ele>
        <time>2014-04-18T10:47:45Z</time>
      </trkpt>
      <trkpt lat="47.4138" lon="3.7955">
        <ele>230</ele>
        <time>2014-04-18T10:47:49Z</time>
      </trkpt>
      <trkpt lat="47.41376" lon="3.79552">
        <ele>230</ele>
        <time>2014-04-18T10:47:53Z</time>
      </trkpt>
      <trkpt lat="47.41367" lon="3.79558">
        <ele>230</ele>
        <time>2014-04-18T10:48:02Z</time>
      </trkpt>
      <trkpt lat="47.41363" lon="3.79562">
        <ele>230</ele>
        <time>2014-04-18T10:48:05Z</time>
      </trkpt>
      <trkpt lat="47.41358" lon="3.79565">
        <ele>231</ele>
        <time>2014-04-18T10:48:08Z</time>
      </trkpt>
      <trkpt lat="47.41353" lon="3.79566">
        <ele>231</ele>
        <time>2014-04-18T10:48:12Z</time>
      </trkpt>
      <trkpt lat="47.41349" lon="3.79569">
        <ele>231</ele>
        <time>2014-04-18T10:48:17Z</time>
      </trkpt>
      <trkpt lat="47.41337" lon="3.79584">
        <ele>232</ele>
        <time>2014-04-18T10:48:27Z</time>
      </trkpt>
      <trkpt lat="47.41323" lon="3.79595">
        <ele>232</ele>
        <time>2014-04-18T10:48:37Z</time>
      </trkpt>
      <trkpt lat="47.41318" lon="3.79598">
        <ele>231</ele>
        <time>2014-04-18T10:48:41Z</time>
      </trkpt>
      <trkpt lat="47.4131" lon="3.79607">
        <ele>231</ele>
        <time>2014-04-18T10:48:50Z</time>
      </trkpt>
      <trkpt lat="47.41305" lon="3.79612">
        <ele>231</ele>
        <time>2014-04-18T10:48:55Z</time>
      </trkpt>
      <trkpt lat="47.41297" lon="3.79623">
        <ele>231</ele>
        <time>2014-04-18T10:49:01Z</time>
      </trkpt>
      <trkpt lat="47.41286" lon="3.79632">
        <ele>231</ele>
        <time>2014-04-18T10:49:09Z</time>
      </trkpt>
      <trkpt lat="47.41273" lon="3.79649">
        <ele>231</ele>
        <time>2014-04-18T10:49:18Z</time>
      </trkpt>
      <trkpt lat="47.41269" lon="3.79651">
        <ele>231</ele>
        <time>2014-04-18T10:49:21Z</time>
      </trkpt>
      <trkpt lat="47.41264" lon="3.7965">
        <ele>231</ele>
        <time>2014-04-18T10:49:25Z</time>
      </trkpt>
      <trkpt lat="47.41259" lon="3.7965">
        <ele>231</ele>
        <time>2014-04-18T10:49:30Z</time>
      </trkpt>
      <trkpt lat="47.41254" lon="3.79654">
        <ele>232</ele>
        <time>2014-04-18T10:49:35Z</time>
      </trkpt>
      <trkpt lat="47.4125" lon="3.79655">
        <ele>231</ele>
        <time>2014-04-18T10:49:40Z</time>
      </trkpt>
      <trkpt lat="47.41245" lon="3.79658">
        <ele>231</ele>
        <time>2014-04-18T10:49:47Z</time>
      </trkpt>
      <trkpt lat="47.4124" lon="3.7966">
        <ele>230</ele>
        <time>2014-04-18T10:49:53Z</time>
      </trkpt>
      <trkpt lat="47.41238" lon="3.79666">
        <ele>230</ele>
        <time>2014-04-18T10:49:59Z</time>
      </trkpt>
      <trkpt lat="47.41234" lon="3.7967">
        <ele>232</ele>
        <time>2014-04-18T10:50:04Z</time>
      </trkpt>
      <trkpt lat="47.41231" lon="3.79676">
        <ele>232</ele>
        <time>2014-04-18T10:50:08Z</time>
      </trkpt>
      <trkpt lat="47.41221" lon="3.79686">
        <ele>233</ele>
        <time>2014-04-18T10:50:14Z</time>
      </trkpt>
      <trkpt lat="47.41208" lon="3.79703">
        <ele>233</ele>
        <time>2014-04-18T10:50:26Z</time>
      </trkpt>
      <trkpt lat="47.41191" lon="3.79718">
        <ele>233</ele>
        <time>2014-04-18T10:50:42Z</time>
      </trkpt>
      <trkpt lat="47.41187" lon="3.79723">
        <ele>234</ele>
        <time>2014-04-18T10:50:45Z</time>
      </trkpt>
      <trkpt lat="47.41183" lon="3.79726">
        <ele>234</ele>
        <time>2014-04-18T10:50:48Z</time>
      </trkpt>
      <trkpt lat="47.41177" lon="3.79727">
        <ele>234</ele>
        <time>2014-04-18T10:50:53Z</time>
      </trkpt>
      <trkpt lat="47.41167" lon="3.79735">
        <ele>234</ele>
        <time>2014-04-18T10:51:01Z</time>
      </trkpt>
      <trkpt lat="47.41158" lon="3.7974">
        <ele>234</ele>
        <time>2014-04-18T10:51:13Z</time>
      </trkpt>
      <trkpt lat="47.41145" lon="3.79752">
        <ele>236</ele>
        <time>2014-04-18T10:51:24Z</time>
      </trkpt>
      <trkpt lat="47.41141" lon="3.79754">
        <ele>236</ele>
        <time>2014-04-18T10:51:31Z</time>
      </trkpt>
      <trkpt lat="47.41137" lon="3.7975">
        <ele>236</ele>
        <time>2014-04-18T10:51:36Z</time>
      </trkpt>
      <trkpt lat="47.41132" lon="3.79742">
        <ele>233</ele>
        <time>2014-04-18T10:51:50Z</time>
      </trkpt>
      <trkpt lat="47.41128" lon="3.79742">
        <ele>233</ele>
        <time>2014-04-18T10:51:53Z</time>
      </trkpt>
      <trkpt lat="47.41116" lon="3.79745">
        <ele>233</ele>
        <time>2014-04-18T10:52:02Z</time>
      </trkpt>
      <trkpt lat="47.41109" lon="3.79748">
        <ele>233</ele>
        <time>2014-04-18T10:52:05Z</time>
      </trkpt>
      <trkpt lat="47.41105" lon="3.79751">
        <ele>236</ele>
        <time>2014-04-18T10:52:07Z</time>
      </trkpt>
      <trkpt lat="47.411" lon="3.79752">
        <ele>236</ele>
        <time>2014-04-18T10:52:10Z</time>
      </trkpt>
      <trkpt lat="47.41094" lon="3.79753">
        <ele>236</ele>
        <time>2014-04-18T10:52:14Z</time>
      </trkpt>
      <trkpt lat="47.41089" lon="3.79752">
        <ele>235</ele>
        <time>2014-04-18T10:52:18Z</time>
      </trkpt>
      <trkpt lat="47.41083" lon="3.79752">
        <ele>235</ele>
        <time>2014-04-18T10:52:22Z</time>
      </trkpt>
      <trkpt lat="47.41078" lon="3.79752">
        <ele>235</ele>
        <time>2014-04-18T10:52:26Z</time>
      </trkpt>
      <trkpt lat="47.41073" lon="3.79754">
        <ele>235</ele>
        <time>2014-04-18T10:52:30Z</time>
      </trkpt>
      <trkpt lat="47.41067" lon="3.79754">
        <ele>235</ele>
        <time>2014-04-18T10:52:34Z</time>
      </trkpt>
      <trkpt lat="47.41062" lon="3.79756">
        <ele>235</ele>
        <time>2014-04-18T10:52:38Z</time>
      </trkpt>
      <trkpt lat="47.41058" lon="3.7976">
        <ele>235</ele>
        <time>2014-04-18T10:52:42Z</time>
      </trkpt>
      <trkpt lat="47.41055" lon="3.79765">
        <ele>235</ele>
        <time>2014-04-18T10:52:46Z</time>
      </trkpt>
      <trkpt lat="47.41054" lon="3.79788">
        <ele>235</ele>
        <time>2014-04-18T10:52:55Z</time>
      </trkpt>
      <trkpt lat="47.41055" lon="3.79803">
        <ele>235</ele>
        <time>2014-04-18T10:53:04Z</time>
      </trkpt>
      <trkpt lat="47.41058" lon="3.79809">
        <ele>236</ele>
        <time>2014-04-18T10:53:11Z</time>
      </trkpt>
      <trkpt lat="47.41057" lon="3.79823">
        <ele>236</ele>
        <time>2014-04-18T10:53:20Z</time>
      </trkpt>
      <trkpt lat="47.41058" lon="3.79837">
        <ele>238</ele>
        <time>2014-04-18T10:53:27Z</time>
      </trkpt>
      <trkpt lat="47.41057" lon="3.79844">
        <ele>238</ele>
        <time>2014-04-18T10:53:31Z</time>
      </trkpt>
      <trkpt lat="47.41054" lon="3.79857">
        <ele>238</ele>
        <time>2014-04-18T10:53:38Z</time>
      </trkpt>
      <trkpt lat="47.41051" lon="3.79865">
        <ele>238</ele>
        <time>2014-04-18T10:53:41Z</time>
      </trkpt>
      <trkpt lat="47.41048" lon="3.79871">
        <ele>238</ele>
        <time>2014-04-18T10:53:44Z</time>
      </trkpt>
      <trkpt lat="47.41039" lon="3.79875">
        <ele>237</ele>
        <time>2014-04-18T10:53:50Z</time>
      </trkpt>
      <trkpt lat="47.4103" lon="3.79882">
        <ele>237</ele>
        <time>2014-04-18T10:53:58Z</time>
      </trkpt>
      <trkpt lat="47.41026" lon="3.79884">
        <ele>237</ele>
        <time>2014-04-18T10:54:02Z</time>
      </trkpt>
      <trkpt lat="47.41021" lon="3.79884">
        <ele>237</ele>
        <time>2014-04-18T10:54:06Z</time>
      </trkpt>
      <trkpt lat="47.41016" lon="3.79885">
        <ele>237</ele>
        <time>2014-04-18T10:54:10Z</time>
      </trkpt>
      <trkpt lat="47.41008" lon="3.79892">
        <ele>237</ele>
        <time>2014-04-18T10:54:16Z</time>
      </trkpt>
      <trkpt lat="47.41003" lon="3.79894">
        <ele>238</ele>
        <time>2014-04-18T10:54:20Z</time>
      </trkpt>
      <trkpt lat="47.40992" lon="3.79896">
        <ele>236</ele>
        <time>2014-04-18T10:54:28Z</time>
      </trkpt>
      <trkpt lat="47.40987" lon="3.79898">
        <ele>236</ele>
        <time>2014-04-18T10:54:31Z</time>
      </trkpt>
      <trkpt lat="47.40982" lon="3.79899">
        <ele>236</ele>
        <time>2014-04-18T10:54:35Z</time>
      </trkpt>
      <trkpt lat="47.40977" lon="3.79901">
        <ele>236</ele>
        <time>2014-04-18T10:54:39Z</time>
      </trkpt>
      <trkpt lat="47.40962" lon="3.79904">
        <ele>236</ele>
        <time>2014-04-18T10:54:51Z</time>
      </trkpt>
      <trkpt lat="47.40957" lon="3.79901">
        <ele>235</ele>
        <time>2014-04-18T10:54:56Z</time>
      </trkpt>
      <trkpt lat="47.40951" lon="3.79901">
        <ele>235</ele>
        <time>2014-04-18T10:55:00Z</time>
      </trkpt>
      <trkpt lat="47.40937" lon="3.79905">
        <ele>235</ele>
        <time>2014-04-18T10:55:10Z</time>
      </trkpt>
      <trkpt lat="47.40931" lon="3.79905">
        <ele>235</ele>
        <time>2014-04-18T10:55:14Z</time>
      </trkpt>
      <trkpt lat="47.40926" lon="3.79904">
        <ele>235</ele>
        <time>2014-04-18T10:55:18Z</time>
      </trkpt>
      <trkpt lat="47.40922" lon="3.79905">
        <ele>235</ele>
        <time>2014-04-18T10:55:22Z</time>
      </trkpt>
      <trkpt lat="47.40916" lon="3.79906">
        <ele>234</ele>
        <time>2014-04-18T10:55:27Z</time>
      </trkpt>
      <trkpt lat="47.40911" lon="3.79909">
        <ele>234</ele>
        <time>2014-04-18T10:55:31Z</time>
      </trkpt>
      <trkpt lat="47.40905" lon="3.79913">
        <ele>234</ele>
        <time>2014-04-18T10:55:36Z</time>
      </trkpt>
      <trkpt lat="47.409" lon="3.79916">
        <ele>234</ele>
        <time>2014-04-18T10:55:40Z</time>
      </trkpt>
      <trkpt lat="47.40895" lon="3.79916">
        <ele>234</ele>
        <time>2014-04-18T10:55:43Z</time>
      </trkpt>
      <trkpt lat="47.4089" lon="3.79918">
        <ele>236</ele>
        <time>2014-04-18T10:55:47Z</time>
      </trkpt>
      <trkpt lat="47.40885" lon="3.79921">
        <ele>236</ele>
        <time>2014-04-18T10:55:51Z</time>
      </trkpt>
      <trkpt lat="47.40877" lon="3.79929">
        <ele>236</ele>
        <time>2014-04-18T10:55:58Z</time>
      </trkpt>
      <trkpt lat="47.40872" lon="3.79932">
        <ele>236</ele>
        <time>2014-04-18T10:56:02Z</time>
      </trkpt>
      <trkpt lat="47.40867" lon="3.79934">
        <ele>236</ele>
        <time>2014-04-18T10:56:05Z</time>
      </trkpt>
      <trkpt lat="47.40862" lon="3.79936">
        <ele>236</ele>
        <time>2014-04-18T10:56:08Z</time>
      </trkpt>
      <trkpt lat="47.40858" lon="3.7994">
        <ele>236</ele>
        <time>2014-04-18T10:56:12Z</time>
      </trkpt>
      <trkpt lat="47.40855" lon="3.79947">
        <ele>236</ele>
        <time>2014-04-18T10:56:16Z</time>
      </trkpt>
      <trkpt lat="47.4085" lon="3.79951">
        <ele>236</ele>
        <time>2014-04-18T10:56:21Z</time>
      </trkpt>
      <trkpt lat="47.4084" lon="3.79952">
        <ele>236</ele>
        <time>2014-04-18T10:56:30Z</time>
      </trkpt>
      <trkpt lat="47.40835" lon="3.79952">
        <ele>236</ele>
        <time>2014-04-18T10:56:34Z</time>
      </trkpt>
      <trkpt lat="47.4083" lon="3.79953">
        <ele>235</ele>
        <time>2014-04-18T10:56:38Z</time>
      </trkpt>
      <trkpt lat="47.40825" lon="3.79955">
        <ele>235</ele>
        <time>2014-04-18T10:56:43Z</time>
      </trkpt>
      <trkpt lat="47.40819" lon="3.79956">
        <ele>235</ele>
        <time>2014-04-18T10:56:48Z</time>
      </trkpt>
      <trkpt lat="47.40815" lon="3.79954">
        <ele>235</ele>
        <time>2014-04-18T10:56:53Z</time>
      </trkpt>
      <trkpt lat="47.40805" lon="3.79935">
        <ele>234</ele>
        <time>2014-04-18T10:57:05Z</time>
      </trkpt>
      <trkpt lat="47.40805" lon="3.79927">
        <ele>234</ele>
        <time>2014-04-18T10:57:09Z</time>
      </trkpt>
      <trkpt lat="47.40802" lon="3.7992">
        <ele>234</ele>
        <time>2014-04-18T10:57:13Z</time>
      </trkpt>
      <trkpt lat="47.40798" lon="3.79915">
        <ele>231</ele>
        <time>2014-04-18T10:57:17Z</time>
      </trkpt>
      <trkpt lat="47.40794" lon="3.79911">
        <ele>231</ele>
        <time>2014-04-18T10:57:21Z</time>
      </trkpt>
      <trkpt lat="47.40788" lon="3.79907">
        <ele>231</ele>
        <time>2014-04-18T10:57:25Z</time>
      </trkpt>
      <trkpt lat="47.40784" lon="3.79906">
        <ele>231</ele>
        <time>2014-04-18T10:57:29Z</time>
      </trkpt>
      <trkpt lat="47.40779" lon="3.79905">
        <ele>231</ele>
        <time>2014-04-18T10:57:33Z</time>
      </trkpt>
      <trkpt lat="47.40774" lon="3.79903">
        <ele>231</ele>
        <time>2014-04-18T10:57:37Z</time>
      </trkpt>
      <trkpt lat="47.40769" lon="3.79901">
        <ele>231</ele>
        <time>2014-04-18T10:57:42Z</time>
      </trkpt>
      <trkpt lat="47.40765" lon="3.79898">
        <ele>231</ele>
        <time>2014-04-18T10:57:45Z</time>
      </trkpt>
      <trkpt lat="47.4076" lon="3.79895">
        <ele>230</ele>
        <time>2014-04-18T10:57:49Z</time>
      </trkpt>
      <trkpt lat="47.40755" lon="3.79894">
        <ele>230</ele>
        <time>2014-04-18T10:57:53Z</time>
      </trkpt>
      <trkpt lat="47.40746" lon="3.79895">
        <ele>229</ele>
        <time>2014-04-18T10:58:02Z</time>
      </trkpt>
      <trkpt lat="47.40741" lon="3.79893">
        <ele>229</ele>
        <time>2014-04-18T10:58:06Z</time>
      </trkpt>
      <trkpt lat="47.40736" lon="3.79892">
        <ele>229</ele>
        <time>2014-04-18T10:58:10Z</time>
      </trkpt>
      <trkpt lat="47.40731" lon="3.79894">
        <ele>229</ele>
        <time>2014-04-18T10:58:14Z</time>
      </trkpt>
      <trkpt lat="47.40727" lon="3.79894">
        <ele>229</ele>
        <time>2014-04-18T10:58:18Z</time>
      </trkpt>
      <trkpt lat="47.4072" lon="3.79897">
        <ele>229</ele>
        <time>2014-04-18T10:58:22Z</time>
      </trkpt>
      <trkpt lat="47.40715" lon="3.79897">
        <ele>228</ele>
        <time>2014-04-18T10:58:26Z</time>
      </trkpt>
      <trkpt lat="47.4071" lon="3.79895">
        <ele>228</ele>
        <time>2014-04-18T10:58:30Z</time>
      </trkpt>
      <trkpt lat="47.40706" lon="3.79891">
        <ele>228</ele>
        <time>2014-04-18T10:58:36Z</time>
      </trkpt>
      <trkpt lat="47.40707" lon="3.79883">
        <ele>228</ele>
        <time>2014-04-18T10:58:43Z</time>
      </trkpt>
      <trkpt lat="47.40711" lon="3.79887">
        <ele>228</ele>
        <time>2014-04-18T10:58:47Z</time>
      </trkpt>
      <trkpt lat="47.40715" lon="3.79889">
        <ele>228</ele>
        <time>2014-04-18T10:58:56Z</time>
      </trkpt>
      <trkpt lat="47.40718" lon="3.7989">
        <ele>228</ele>
        <time>2014-04-18T10:59:08Z</time>
      </trkpt>
      <trkpt lat="47.40715" lon="3.79889">
        <ele>228</ele>
        <time>2014-04-18T11:00:28Z</time>
      </trkpt>
      <trkpt lat="47.4071" lon="3.79893">
        <ele>228</ele>
        <time>2014-04-18T11:00:33Z</time>
      </trkpt>
      <trkpt lat="47.40707" lon="3.79897">
        <ele>228</ele>
        <time>2014-04-18T11:00:37Z</time>
      </trkpt>
      <trkpt lat="47.40702" lon="3.79895">
        <ele>228</ele>
        <time>2014-04-18T11:00:41Z</time>
      </trkpt>
      <trkpt lat="47.40697" lon="3.79893">
        <ele>228</ele>
        <time>2014-04-18T11:00:45Z</time>
      </trkpt>
      <trkpt lat="47.40692" lon="3.79895">
        <ele>228</ele>
        <time>2014-04-18T11:00:49Z</time>
      </trkpt>
      <trkpt lat="47.40687" lon="3.79896">
        <ele>228</ele>
        <time>2014-04-18T11:00:53Z</time>
      </trkpt>
      <trkpt lat="47.40682" lon="3.79896">
        <ele>228</ele>
        <time>2014-04-18T11:00:57Z</time>
      </trkpt>
      <trkpt lat="47.40677" lon="3.79897">
        <ele>228</ele>
        <time>2014-04-18T11:01:01Z</time>
      </trkpt>
      <trkpt lat="47.40673" lon="3.79896">
        <ele>228</ele>
        <time>2014-04-18T11:01:06Z</time>
      </trkpt>
      <trkpt lat="47.40667" lon="3.79894">
        <ele>228</ele>
        <time>2014-04-18T11:01:11Z</time>
      </trkpt>
      <trkpt lat="47.40662" lon="3.79892">
        <ele>227</ele>
        <time>2014-04-18T11:01:16Z</time>
      </trkpt>
      <trkpt lat="47.40656" lon="3.7989">
        <ele>227</ele>
        <time>2014-04-18T11:01:20Z</time>
      </trkpt>
      <trkpt lat="47.40651" lon="3.79892">
        <ele>227</ele>
        <time>2014-04-18T11:01:24Z</time>
      </trkpt>
      <trkpt lat="47.40646" lon="3.79896">
        <ele>227</ele>
        <time>2014-04-18T11:01:28Z</time>
      </trkpt>
      <trkpt lat="47.40642" lon="3.799">
        <ele>227</ele>
        <time>2014-04-18T11:01:34Z</time>
      </trkpt>
      <trkpt lat="47.40638" lon="3.79902">
        <ele>227</ele>
        <time>2014-04-18T11:01:38Z</time>
      </trkpt>
      <trkpt lat="47.40628" lon="3.79909">
        <ele>227</ele>
        <time>2014-04-18T11:01:45Z</time>
      </trkpt>
      <trkpt lat="47.40623" lon="3.79911">
        <ele>227</ele>
        <time>2014-04-18T11:01:49Z</time>
      </trkpt>
      <trkpt lat="47.40619" lon="3.79916">
        <ele>227</ele>
        <time>2014-04-18T11:01:52Z</time>
      </trkpt>
      <trkpt lat="47.40614" lon="3.7992">
        <ele>230</ele>
        <time>2014-04-18T11:01:56Z</time>
      </trkpt>
      <trkpt lat="47.40606" lon="3.79925">
        <ele>229</ele>
        <time>2014-04-18T11:02:04Z</time>
      </trkpt>
      <trkpt lat="47.40601" lon="3.79927">
        <ele>229</ele>
        <time>2014-04-18T11:02:08Z</time>
      </trkpt>
      <trkpt lat="47.40596" lon="3.79929">
        <ele>229</ele>
        <time>2014-04-18T11:02:13Z</time>
      </trkpt>
      <trkpt lat="47.40591" lon="3.79933">
        <ele>229</ele>
        <time>2014-04-18T11:02:18Z</time>
      </trkpt>
      <trkpt lat="47.40583" lon="3.79942">
        <ele>229</ele>
        <time>2014-04-18T11:02:25Z</time>
      </trkpt>
      <trkpt lat="47.40565" lon="3.79953">
        <ele>229</ele>
        <time>2014-04-18T11:02:40Z</time>
      </trkpt>
      <trkpt lat="47.4056" lon="3.79955">
        <ele>229</ele>
        <time>2014-04-18T11:02:43Z</time>
      </trkpt>
      <trkpt lat="47.40555" lon="3.79957">
        <ele>229</ele>
        <time>2014-04-18T11:02:47Z</time>
      </trkpt>
      <trkpt lat="47.4055" lon="3.79958">
        <ele>229</ele>
        <time>2014-04-18T11:02:51Z</time>
      </trkpt>
      <trkpt lat="47.40545" lon="3.79958">
        <ele>229</ele>
        <time>2014-04-18T11:02:55Z</time>
      </trkpt>
      <trkpt lat="47.4054" lon="3.79959">
        <ele>229</ele>
        <time>2014-04-18T11:02:59Z</time>
      </trkpt>
      <trkpt lat="47.40534" lon="3.7996">
        <ele>229</ele>
        <time>2014-04-18T11:03:03Z</time>
      </trkpt>
      <trkpt lat="47.40529" lon="3.79959">
        <ele>229</ele>
        <time>2014-04-18T11:03:07Z</time>
      </trkpt>
      <trkpt lat="47.40524" lon="3.7996">
        <ele>229</ele>
        <time>2014-04-18T11:03:12Z</time>
      </trkpt>
      <trkpt lat="47.40519" lon="3.79959">
        <ele>229</ele>
        <time>2014-04-18T11:03:16Z</time>
      </trkpt>
      <trkpt lat="47.40514" lon="3.79957">
        <ele>229</ele>
        <time>2014-04-18T11:03:20Z</time>
      </trkpt>
      <trkpt lat="47.40509" lon="3.79957">
        <ele>229</ele>
        <time>2014-04-18T11:03:25Z</time>
      </trkpt>
      <trkpt lat="47.40498" lon="3.79957">
        <ele>228</ele>
        <time>2014-04-18T11:03:34Z</time>
      </trkpt>
      <trkpt lat="47.40493" lon="3.79953">
        <ele>228</ele>
        <time>2014-04-18T11:03:38Z</time>
      </trkpt>
      <trkpt lat="47.40488" lon="3.79947">
        <ele>228</ele>
        <time>2014-04-18T11:03:42Z</time>
      </trkpt>
      <trkpt lat="47.40483" lon="3.79944">
        <ele>228</ele>
        <time>2014-04-18T11:03:46Z</time>
      </trkpt>
      <trkpt lat="47.40478" lon="3.79942">
        <ele>227</ele>
        <time>2014-04-18T11:03:49Z</time>
      </trkpt>
      <trkpt lat="47.40473" lon="3.79939">
        <ele>227</ele>
        <time>2014-04-18T11:03:51Z</time>
      </trkpt>
      <trkpt lat="47.40469" lon="3.79936">
        <ele>227</ele>
        <time>2014-04-18T11:03:53Z</time>
      </trkpt>
      <trkpt lat="47.40468" lon="3.79933">
        <ele>227</ele>
        <time>2014-04-18T11:03:54Z</time>
      </trkpt>
      <trkpt lat="47.4046" lon="3.79906">
        <ele>223</ele>
        <time>2014-04-18T11:04:05Z</time>
      </trkpt>
      <trkpt lat="47.40458" lon="3.79904">
        <ele>223</ele>
        <time>2014-04-18T11:04:07Z</time>
      </trkpt>
      <trkpt lat="47.40454" lon="3.799">
        <ele>223</ele>
        <time>2014-04-18T11:04:11Z</time>
      </trkpt>
      <trkpt lat="47.4045" lon="3.79895">
        <ele>223</ele>
        <time>2014-04-18T11:04:15Z</time>
      </trkpt>
      <trkpt lat="47.40448" lon="3.7988">
        <ele>222</ele>
        <time>2014-04-18T11:04:25Z</time>
      </trkpt>
      <trkpt lat="47.40443" lon="3.79874">
        <ele>222</ele>
        <time>2014-04-18T11:04:29Z</time>
      </trkpt>
      <trkpt lat="47.40436" lon="3.79864">
        <ele>221</ele>
        <time>2014-04-18T11:04:33Z</time>
      </trkpt>
      <trkpt lat="47.4043" lon="3.79858">
        <ele>221</ele>
        <time>2014-04-18T11:04:37Z</time>
      </trkpt>
      <trkpt lat="47.40422" lon="3.79849">
        <ele>220</ele>
        <time>2014-04-18T11:04:45Z</time>
      </trkpt>
      <trkpt lat="47.40416" lon="3.79839">
        <ele>219</ele>
        <time>2014-04-18T11:04:52Z</time>
      </trkpt>
      <trkpt lat="47.40418" lon="3.79826">
        <ele>218</ele>
        <time>2014-04-18T11:04:57Z</time>
      </trkpt>
      <trkpt lat="47.40419" lon="3.79819">
        <ele>218</ele>
        <time>2014-04-18T11:05:00Z</time>
      </trkpt>
      <trkpt lat="47.40423" lon="3.79814">
        <ele>217</ele>
        <time>2014-04-18T11:05:03Z</time>
      </trkpt>
      <trkpt lat="47.40427" lon="3.79809">
        <ele>217</ele>
        <time>2014-04-18T11:05:07Z</time>
      </trkpt>
      <trkpt lat="47.40434" lon="3.79789">
        <ele>216</ele>
        <time>2014-04-18T11:05:16Z</time>
      </trkpt>
      <trkpt lat="47.40438" lon="3.79784">
        <ele>216</ele>
        <time>2014-04-18T11:05:20Z</time>
      </trkpt>
      <trkpt lat="47.40443" lon="3.7978">
        <ele>216</ele>
        <time>2014-04-18T11:05:24Z</time>
      </trkpt>
      <trkpt lat="47.40448" lon="3.79778">
        <ele>216</ele>
        <time>2014-04-18T11:05:27Z</time>
      </trkpt>
      <trkpt lat="47.40453" lon="3.7978">
        <ele>216</ele>
        <time>2014-04-18T11:05:30Z</time>
      </trkpt>
      <trkpt lat="47.40458" lon="3.79782">
        <ele>216</ele>
        <time>2014-04-18T11:05:33Z</time>
      </trkpt>
      <trkpt lat="47.40463" lon="3.7978">
        <ele>216</ele>
        <time>2014-04-18T11:05:35Z</time>
      </trkpt>
      <trkpt lat="47.40468" lon="3.79777">
        <ele>216</ele>
        <time>2014-04-18T11:05:37Z</time>
      </trkpt>
      <trkpt lat="47.40473" lon="3.79775">
        <ele>216</ele>
        <time>2014-04-18T11:05:39Z</time>
      </trkpt>
      <trkpt lat="47.40478" lon="3.79776">
        <ele>216</ele>
        <time>2014-04-18T11:06:21Z</time>
      </trkpt>
      <trkpt lat="47.40483" lon="3.79782">
        <ele>216</ele>
        <time>2014-04-18T11:06:29Z</time>
      </trkpt>
      <trkpt lat="47.40485" lon="3.79789">
        <ele>217</ele>
        <time>2014-04-18T11:06:33Z</time>
      </trkpt>
      <trkpt lat="47.40489" lon="3.79793">
        <ele>217</ele>
        <time>2014-04-18T11:06:40Z</time>
      </trkpt>
      <trkpt lat="47.40417" lon="3.79855">
        <ele>221</ele>
        <time>2014-04-18T11:56:24Z</time>
      </trkpt>
      <trkpt lat="47.40485" lon="3.79805">
        <ele>217</ele>
        <time>2014-04-18T11:56:30Z</time>
      </trkpt>
      <trkpt lat="47.40485" lon="3.79789">
        <ele>217</ele>
        <time>2014-04-18T11:56:32Z</time>
      </trkpt>
      <trkpt lat="47.40486" lon="3.79782">
        <ele>216</ele>
        <time>2014-04-18T11:56:35Z</time>
      </trkpt>
      <trkpt lat="47.40482" lon="3.79778">
        <ele>216</ele>
        <time>2014-04-18T11:56:38Z</time>
      </trkpt>
      <trkpt lat="47.40477" lon="3.79778">
        <ele>216</ele>
        <time>2014-04-18T11:56:42Z</time>
      </trkpt>
      <trkpt lat="47.40476" lon="3.79771">
        <ele>216</ele>
        <time>2014-04-18T11:56:47Z</time>
      </trkpt>
      <trkpt lat="47.40472" lon="3.79766">
        <ele>216</ele>
        <time>2014-04-18T11:56:54Z</time>
      </trkpt>
      <trkpt lat="47.40463" lon="3.79766">
        <ele>216</ele>
        <time>2014-04-18T11:57:09Z</time>
      </trkpt>
      <trkpt lat="47.40439" lon="3.79795">
        <ele>216</ele>
        <time>2014-04-18T11:57:21Z</time>
      </trkpt>
      <trkpt lat="47.40423" lon="3.79831">
        <ele>218</ele>
        <time>2014-04-18T11:57:23Z</time>
      </trkpt>
      <trkpt lat="47.40411" lon="3.7985">
        <ele>220</ele>
        <time>2014-04-18T11:57:27Z</time>
      </trkpt>
      <trkpt lat="47.404" lon="3.79873">
        <ele>221</ele>
        <time>2014-04-18T11:57:31Z</time>
      </trkpt>
      <trkpt lat="47.404" lon="3.79897">
        <ele>222</ele>
        <time>2014-04-18T11:57:37Z</time>
      </trkpt>
      <trkpt lat="47.40413" lon="3.79913">
        <ele>223</ele>
        <time>2014-04-18T11:57:39Z</time>
      </trkpt>
      <trkpt lat="47.40423" lon="3.79949">
        <ele>227</ele>
        <time>2014-04-18T11:57:43Z</time>
      </trkpt>
      <trkpt lat="47.40448" lon="3.79957">
        <ele>228</ele>
        <time>2014-04-18T11:57:47Z</time>
      </trkpt>
      <trkpt lat="47.40498" lon="3.79952">
        <ele>228</ele>
        <time>2014-04-18T11:57:54Z</time>
      </trkpt>
      <trkpt lat="47.40558" lon="3.7994">
        <ele>229</ele>
        <time>2014-04-18T11:57:59Z</time>
      </trkpt>
      <trkpt lat="47.40611" lon="3.7991">
        <ele>227</ele>
        <time>2014-04-18T11:58:05Z</time>
      </trkpt>
      <trkpt lat="47.40779" lon="3.79952">
        <ele>234</ele>
        <time>2014-04-18T11:58:19Z</time>
      </trkpt>
      <trkpt lat="47.40845" lon="3.80002">
        <ele>239</ele>
        <time>2014-04-18T11:58:27Z</time>
      </trkpt>
      <trkpt lat="47.40869" lon="3.80014">
        <ele>239</ele>
        <time>2014-04-18T11:58:28Z</time>
      </trkpt>
      <trkpt lat="47.40911" lon="3.80059">
        <ele>240</ele>
        <time>2014-04-18T11:58:32Z</time>
      </trkpt>
      <trkpt lat="47.40943" lon="3.80116">
        <ele>241</ele>
        <time>2014-04-18T11:58:36Z</time>
      </trkpt>
      <trkpt lat="47.40963" lon="3.80186">
        <ele>241</ele>
        <time>2014-04-18T11:58:40Z</time>
      </trkpt>
      <trkpt lat="47.40979" lon="3.80223">
        <ele>240</ele>
        <time>2014-04-18T11:58:42Z</time>
      </trkpt>
      <trkpt lat="47.41005" lon="3.80222">
        <ele>240</ele>
        <time>2014-04-18T11:58:43Z</time>
      </trkpt>
      <trkpt lat="47.41086" lon="3.80407">
        <ele>233</ele>
        <time>2014-04-18T11:58:54Z</time>
      </trkpt>
      <trkpt lat="47.41162" lon="3.80469">
        <ele>229</ele>
        <time>2014-04-18T11:58:59Z</time>
      </trkpt>
      <trkpt lat="47.41271" lon="3.80638">
        <ele>218</ele>
        <time>2014-04-18T11:59:08Z</time>
      </trkpt>
      <trkpt lat="47.41334" lon="3.80758">
        <ele>207</ele>
        <time>2014-04-18T11:59:14Z</time>
      </trkpt>
      <trkpt lat="47.41374" lon="3.80883">
        <ele>203</ele>
        <time>2014-04-18T11:59:20Z</time>
      </trkpt>
      <trkpt lat="47.41456" lon="3.80958">
        <ele>198</ele>
        <time>2014-04-18T11:59:26Z</time>
      </trkpt>
      <trkpt lat="47.41597" lon="3.81059">
        <ele>184</ele>
        <time>2014-04-18T11:59:36Z</time>
      </trkpt>
      <trkpt lat="47.41627" lon="3.81054">
        <ele>183</ele>
        <time>2014-04-18T11:59:39Z</time>
      </trkpt>
      <trkpt lat="47.4167" lon="3.81035">
        <ele>178</ele>
        <time>2014-04-18T11:59:42Z</time>
      </trkpt>
      <trkpt lat="47.41693" lon="3.81033">
        <ele>177</ele>
        <time>2014-04-18T11:59:44Z</time>
      </trkpt>
      <trkpt lat="47.41722" lon="3.81046">
        <ele>176</ele>
        <time>2014-04-18T11:59:46Z</time>
      </trkpt>
      <trkpt lat="47.41743" lon="3.8103">
        <ele>176</ele>
        <time>2014-04-18T11:59:49Z</time>
      </trkpt>
      <trkpt lat="47.41765" lon="3.81017">
        <ele>173</ele>
        <time>2014-04-18T11:59:52Z</time>
      </trkpt>
      <trkpt lat="47.41791" lon="3.81011">
        <ele>172</ele>
        <time>2014-04-18T11:59:54Z</time>
      </trkpt>
      <trkpt lat="47.41806" lon="3.81019">
        <ele>171</ele>
        <time>2014-04-18T11:59:55Z</time>
      </trkpt>
      <trkpt lat="47.4183" lon="3.8103">
        <ele>171</ele>
        <time>2014-04-18T11:59:57Z</time>
      </trkpt>
      <trkpt lat="47.41856" lon="3.81026">
        <ele>168</ele>
        <time>2014-04-18T11:59:59Z</time>
      </trkpt>
      <trkpt lat="47.41823" lon="3.81424">
        <ele>210</ele>
        <time>2014-04-18T12:00:31Z</time>
      </trkpt>
      <trkpt lat="47.41455" lon="3.81629">
        <ele>183</ele>
        <time>2014-04-18T12:01:07Z</time>
      </trkpt>
      <trkpt lat="47.4141" lon="3.8167">
        <ele>182</ele>
        <time>2014-04-18T12:02:54Z</time>
      </trkpt>
      <trkpt lat="47.4141" lon="3.81679">
        <ele>184</ele>
        <time>2014-04-18T12:03:29Z</time>
      </trkpt>
      <trkpt lat="47.4142" lon="3.8168">
        <ele>187</ele>
        <time>2014-04-18T12:03:35Z</time>
      </trkpt>
      <trkpt lat="47.41419" lon="3.81693">
        <ele>190</ele>
        <time>2014-04-18T12:03:42Z</time>
      </trkpt>
      <trkpt lat="47.41424" lon="3.81705">
        <ele>192</ele>
        <time>2014-04-18T12:03:50Z</time>
      </trkpt>
      <trkpt lat="47.41421" lon="3.81711">
        <ele>192</ele>
        <time>2014-04-18T12:03:55Z</time>
      </trkpt>
      <trkpt lat="47.41417" lon="3.8171">
        <ele>187</ele>
        <time>2014-04-18T12:03:59Z</time>
      </trkpt>
      <trkpt lat="47.41407" lon="3.81711">
        <ele>188</ele>
        <time>2014-04-18T12:04:13Z</time>
      </trkpt>
      <trkpt lat="47.414" lon="3.81722">
        <ele>188</ele>
        <time>2014-04-18T12:04:20Z</time>
      </trkpt>
      <trkpt lat="47.41395" lon="3.81734">
        <ele>189</ele>
        <time>2014-04-18T12:04:30Z</time>
      </trkpt>
      <trkpt lat="47.41394" lon="3.81748">
        <ele>189</ele>
        <time>2014-04-18T12:04:58Z</time>
      </trkpt>
      <trkpt lat="47.41402" lon="3.81755">
        <ele>192</ele>
        <time>2014-04-18T12:05:04Z</time>
      </trkpt>
      <trkpt lat="47.41411" lon="3.8176">
        <ele>191</ele>
        <time>2014-04-18T12:05:18Z</time>
      </trkpt>
      <trkpt lat="47.41387" lon="3.81747">
        <ele>190</ele>
        <time>2014-04-18T12:06:44Z</time>
      </trkpt>
      <trkpt lat="47.41398" lon="3.81784">
        <ele>196</ele>
        <time>2014-04-18T12:07:15Z</time>
      </trkpt>
      <trkpt lat="47.41367" lon="3.81786">
        <ele>199</ele>
        <time>2014-04-18T12:07:45Z</time>
      </trkpt>
      <trkpt lat="47.41354" lon="3.81746">
        <ele>196</ele>
        <time>2014-04-18T12:08:09Z</time>
      </trkpt>
      <trkpt lat="47.41361" lon="3.81729">
        <ele>193</ele>
        <time>2014-04-18T12:08:20Z</time>
      </trkpt>
      <trkpt lat="47.41362" lon="3.81729">
        <ele>193</ele>
        <time>2014-04-18T12:09:18Z</time>
      </trkpt>
      <trkpt lat="47.41359" lon="3.81716">
        <ele>191</ele>
        <time>2014-04-18T12:09:34Z</time>
      </trkpt>
      <trkpt lat="47.41351" lon="3.81712">
        <ele>191</ele>
        <time>2014-04-18T12:09:51Z</time>
      </trkpt>
      <trkpt lat="47.41353" lon="3.81704">
        <ele>190</ele>
        <time>2014-04-18T12:09:58Z</time>
      </trkpt>
      <trkpt lat="47.41356" lon="3.81697">
        <ele>189</ele>
        <time>2014-04-18T12:10:02Z</time>
      </trkpt>
      <trkpt lat="47.41353" lon="3.81691">
        <ele>189</ele>
        <time>2014-04-18T12:10:07Z</time>
      </trkpt>
      <trkpt lat="47.41348" lon="3.81689">
        <ele>188</ele>
        <time>2014-04-18T12:10:14Z</time>
      </trkpt>
      <trkpt lat="47.41343" lon="3.81686">
        <ele>188</ele>
        <time>2014-04-18T12:10:18Z</time>
      </trkpt>
      <trkpt lat="47.41331" lon="3.81689">
        <ele>193</ele>
        <time>2014-04-18T12:10:52Z</time>
      </trkpt>
      <trkpt lat="47.41333" lon="3.81695">
        <ele>195</ele>
        <time>2014-04-18T12:11:06Z</time>
      </trkpt>
      <trkpt lat="47.41331" lon="3.81697">
        <ele>195</ele>
        <time>2014-04-18T12:11:12Z</time>
      </trkpt>
      <trkpt lat="47.41327" lon="3.81698">
        <ele>196</ele>
        <time>2014-04-18T12:11:17Z</time>
      </trkpt>
      <trkpt lat="47.41327" lon="3.8173">
        <ele>201</ele>
        <time>2014-04-18T12:11:48Z</time>
      </trkpt>
      <trkpt lat="47.41321" lon="3.81742">
        <ele>203</ele>
        <time>2014-04-18T12:11:57Z</time>
      </trkpt>
      <trkpt lat="47.41319" lon="3.81756">
        <ele>210</ele>
        <time>2014-04-18T12:12:11Z</time>
      </trkpt>
      <trkpt lat="47.41322" lon="3.81768">
        <ele>211</ele>
        <time>2014-04-18T12:12:23Z</time>
      </trkpt>
      <trkpt lat="47.41317" lon="3.81779">
        <ele>213</ele>
        <time>2014-04-18T12:12:29Z</time>
      </trkpt>
      <trkpt lat="47.41314" lon="3.81792">
        <ele>214</ele>
        <time>2014-04-18T12:12:46Z</time>
      </trkpt>
      <trkpt lat="47.4132" lon="3.81798">
        <ele>214</ele>
        <time>2014-04-18T12:13:11Z</time>
      </trkpt>
      <trkpt lat="47.41316" lon="3.81801">
        <ele>214</ele>
        <time>2014-04-18T12:13:14Z</time>
      </trkpt>
      <trkpt lat="47.41313" lon="3.81815">
        <ele>214</ele>
        <time>2014-04-18T12:13:28Z</time>
      </trkpt>
      <trkpt lat="47.41307" lon="3.81824">
        <ele>215</ele>
        <time>2014-04-18T12:13:40Z</time>
      </trkpt>
      <trkpt lat="47.41294" lon="3.81824">
        <ele>217</ele>
        <time>2014-04-18T12:14:01Z</time>
      </trkpt>
      <trkpt lat="47.41284" lon="3.81831">
        <ele>219</ele>
        <time>2014-04-18T12:14:19Z</time>
      </trkpt>
      <trkpt lat="47.4127" lon="3.81852">
        <ele>225</ele>
        <time>2014-04-18T12:14:36Z</time>
      </trkpt>
      <trkpt lat="47.41263" lon="3.81861">
        <ele>226</ele>
        <time>2014-04-18T12:14:45Z</time>
      </trkpt>
      <trkpt lat="47.41263" lon="3.81869">
        <ele>225</ele>
        <time>2014-04-18T12:15:00Z</time>
      </trkpt>
      <trkpt lat="47.41255" lon="3.81874">
        <ele>226</ele>
        <time>2014-04-18T12:15:19Z</time>
      </trkpt>
      <trkpt lat="47.4125" lon="3.81886">
        <ele>234</ele>
        <time>2014-04-18T12:15:24Z</time>
      </trkpt>
      <trkpt lat="47.41235" lon="3.81904">
        <ele>234</ele>
        <time>2014-04-18T12:15:47Z</time>
      </trkpt>
      <trkpt lat="47.41235" lon="3.81918">
        <ele>235</ele>
        <time>2014-04-18T12:16:01Z</time>
      </trkpt>
      <trkpt lat="47.41238" lon="3.8193">
        <ele>236</ele>
        <time>2014-04-18T12:16:14Z</time>
      </trkpt>
      <trkpt lat="47.41229" lon="3.81935">
        <ele>237</ele>
        <time>2014-04-18T12:16:25Z</time>
      </trkpt>
      <trkpt lat="47.41223" lon="3.81947">
        <ele>238</ele>
        <time>2014-04-18T12:16:31Z</time>
      </trkpt>
      <trkpt lat="47.41221" lon="3.81964">
        <ele>238</ele>
        <time>2014-04-18T12:16:54Z</time>
      </trkpt>
      <trkpt lat="47.41216" lon="3.81964">
        <ele>239</ele>
        <time>2014-04-18T12:17:07Z</time>
      </trkpt>
      <trkpt lat="47.412" lon="3.8197">
        <ele>240</ele>
        <time>2014-04-18T12:17:29Z</time>
      </trkpt>
      <trkpt lat="47.41192" lon="3.81979">
        <ele>241</ele>
        <time>2014-04-18T12:17:41Z</time>
      </trkpt>
      <trkpt lat="47.41186" lon="3.8199">
        <ele>242</ele>
        <time>2014-04-18T12:17:49Z</time>
      </trkpt>
      <trkpt lat="47.41189" lon="3.81995">
        <ele>242</ele>
        <time>2014-04-18T12:18:05Z</time>
      </trkpt>
      <trkpt lat="47.4118" lon="3.81999">
        <ele>244</ele>
        <time>2014-04-18T12:18:10Z</time>
      </trkpt>
      <trkpt lat="47.41175" lon="3.82002">
        <ele>247</ele>
        <time>2014-04-18T12:18:13Z</time>
      </trkpt>
      <trkpt lat="47.41164" lon="3.82013">
        <ele>251</ele>
        <time>2014-04-18T12:18:24Z</time>
      </trkpt>
      <trkpt lat="47.41159" lon="3.82012">
        <ele>251</ele>
        <time>2014-04-18T12:18:29Z</time>
      </trkpt>
      <trkpt lat="47.4115" lon="3.82019">
        <ele>253</ele>
        <time>2014-04-18T12:18:45Z</time>
      </trkpt>
      <trkpt lat="47.41144" lon="3.82024">
        <ele>254</ele>
        <time>2014-04-18T12:18:48Z</time>
      </trkpt>
      <trkpt lat="47.4114" lon="3.82027">
        <ele>255</ele>
        <time>2014-04-18T12:18:51Z</time>
      </trkpt>
      <trkpt lat="47.41135" lon="3.82027">
        <ele>255</ele>
        <time>2014-04-18T12:18:57Z</time>
      </trkpt>
      <trkpt lat="47.41134" lon="3.82021">
        <ele>255</ele>
        <time>2014-04-18T12:19:13Z</time>
      </trkpt>
      <trkpt lat="47.4113" lon="3.82021">
        <ele>255</ele>
        <time>2014-04-18T12:19:18Z</time>
      </trkpt>
      <trkpt lat="47.41125" lon="3.8202">
        <ele>255</ele>
        <time>2014-04-18T12:19:28Z</time>
      </trkpt>
      <trkpt lat="47.4111" lon="3.82034">
        <ele>257</ele>
        <time>2014-04-18T12:19:43Z</time>
      </trkpt>
      <trkpt lat="47.41105" lon="3.82034">
        <ele>257</ele>
        <time>2014-04-18T12:19:49Z</time>
      </trkpt>
      <trkpt lat="47.41102" lon="3.82039">
        <ele>258</ele>
        <time>2014-04-18T12:20:00Z</time>
      </trkpt>
      <trkpt lat="47.411" lon="3.82046">
        <ele>259</ele>
        <time>2014-04-18T12:20:06Z</time>
      </trkpt>
      <trkpt lat="47.41097" lon="3.82051">
        <ele>259</ele>
        <time>2014-04-18T12:20:14Z</time>
      </trkpt>
      <trkpt lat="47.41089" lon="3.82058">
        <ele>261</ele>
        <time>2014-04-18T12:20:23Z</time>
      </trkpt>
      <trkpt lat="47.41085" lon="3.82064">
        <ele>262</ele>
        <time>2014-04-18T12:20:28Z</time>
      </trkpt>
      <trkpt lat="47.41075" lon="3.82089">
        <ele>270</ele>
        <time>2014-04-18T12:20:53Z</time>
      </trkpt>
      <trkpt lat="47.41072" lon="3.82094">
        <ele>270</ele>
        <time>2014-04-18T12:21:01Z</time>
      </trkpt>
      <trkpt lat="47.41067" lon="3.82096">
        <ele>271</ele>
        <time>2014-04-18T12:21:06Z</time>
      </trkpt>
      <trkpt lat="47.41068" lon="3.82101">
        <ele>271</ele>
        <time>2014-04-18T12:21:24Z</time>
      </trkpt>
      <trkpt lat="47.41064" lon="3.82105">
        <ele>272</ele>
        <time>2014-04-18T12:21:28Z</time>
      </trkpt>
      <trkpt lat="47.41056" lon="3.82111">
        <ele>272</ele>
        <time>2014-04-18T12:21:38Z</time>
      </trkpt>
      <trkpt lat="47.41047" lon="3.82115">
        <ele>273</ele>
        <time>2014-04-18T12:21:45Z</time>
      </trkpt>
      <trkpt lat="47.41027" lon="3.82115">
        <ele>272</ele>
        <time>2014-04-18T12:22:05Z</time>
      </trkpt>
      <trkpt lat="47.4102" lon="3.82126">
        <ele>273</ele>
        <time>2014-04-18T12:22:15Z</time>
      </trkpt>
      <trkpt lat="47.41011" lon="3.82132">
        <ele>274</ele>
        <time>2014-04-18T12:22:24Z</time>
      </trkpt>
      <trkpt lat="47.41013" lon="3.82129">
        <ele>274</ele>
        <time>2014-04-18T12:22:49Z</time>
      </trkpt>
      <trkpt lat="47.40998" lon="3.82127">
        <ele>274</ele>
        <time>2014-04-18T12:23:00Z</time>
      </trkpt>
      <trkpt lat="47.40988" lon="3.8213">
        <ele>275</ele>
        <time>2014-04-18T12:23:03Z</time>
      </trkpt>
      <trkpt lat="47.40979" lon="3.82131">
        <ele>275</ele>
        <time>2014-04-18T12:23:07Z</time>
      </trkpt>
      <trkpt lat="47.40977" lon="3.82121">
        <ele>274</ele>
        <time>2014-04-18T12:23:17Z</time>
      </trkpt>
      <trkpt lat="47.40973" lon="3.82118">
        <ele>274</ele>
        <time>2014-04-18T12:23:23Z</time>
      </trkpt>
      <trkpt lat="47.40968" lon="3.82117">
        <ele>274</ele>
        <time>2014-04-18T12:23:26Z</time>
      </trkpt>
      <trkpt lat="47.40963" lon="3.82118">
        <ele>274</ele>
        <time>2014-04-18T12:23:29Z</time>
      </trkpt>
      <trkpt lat="47.40953" lon="3.8212">
        <ele>274</ele>
        <time>2014-04-18T12:23:35Z</time>
      </trkpt>
      <trkpt lat="47.40948" lon="3.82121">
        <ele>274</ele>
        <time>2014-04-18T12:23:38Z</time>
      </trkpt>
      <trkpt lat="47.40943" lon="3.82119">
        <ele>274</ele>
        <time>2014-04-18T12:23:43Z</time>
      </trkpt>
      <trkpt lat="47.40939" lon="3.82119">
        <ele>274</ele>
        <time>2014-04-18T12:23:47Z</time>
      </trkpt>
      <trkpt lat="47.40933" lon="3.82117">
        <ele>274</ele>
        <time>2014-04-18T12:23:53Z</time>
      </trkpt>
      <trkpt lat="47.40929" lon="3.82117">
        <ele>274</ele>
        <time>2014-04-18T12:24:00Z</time>
      </trkpt>
      <trkpt lat="47.40919" lon="3.82119">
        <ele>274</ele>
        <time>2014-04-18T12:24:11Z</time>
      </trkpt>
      <trkpt lat="47.40912" lon="3.82116">
        <ele>275</ele>
        <time>2014-04-18T12:24:22Z</time>
      </trkpt>
      <trkpt lat="47.40908" lon="3.82114">
        <ele>275</ele>
        <time>2014-04-18T12:24:26Z</time>
      </trkpt>
      <trkpt lat="47.40893" lon="3.82115">
        <ele>276</ele>
        <time>2014-04-18T12:24:41Z</time>
      </trkpt>
      <trkpt lat="47.40889" lon="3.82114">
        <ele>276</ele>
        <time>2014-04-18T12:24:46Z</time>
      </trkpt>
      <trkpt lat="47.40879" lon="3.82114">
        <ele>276</ele>
        <time>2014-04-18T12:24:54Z</time>
      </trkpt>
      <trkpt lat="47.40874" lon="3.82111">
        <ele>276</ele>
        <time>2014-04-18T12:25:00Z</time>
      </trkpt>
      <trkpt lat="47.40866" lon="3.82109">
        <ele>276</ele>
        <time>2014-04-18T12:25:11Z</time>
      </trkpt>
      <trkpt lat="47.40861" lon="3.82106">
        <ele>276</ele>
        <time>2014-04-18T12:25:16Z</time>
      </trkpt>
      <trkpt lat="47.40852" lon="3.82104">
        <ele>276</ele>
        <time>2014-04-18T12:25:26Z</time>
      </trkpt>
      <trkpt lat="47.40847" lon="3.82101">
        <ele>275</ele>
        <time>2014-04-18T12:25:32Z</time>
      </trkpt>
      <trkpt lat="47.40826" lon="3.821">
        <ele>277</ele>
        <time>2014-04-18T12:25:48Z</time>
      </trkpt>
      <trkpt lat="47.40821" lon="3.82099">
        <ele>277</ele>
        <time>2014-04-18T12:25:52Z</time>
      </trkpt>
      <trkpt lat="47.40816" lon="3.82098">
        <ele>278</ele>
        <time>2014-04-18T12:25:56Z</time>
      </trkpt>
      <trkpt lat="47.40808" lon="3.82101">
        <ele>279</ele>
        <time>2014-04-18T12:26:17Z</time>
      </trkpt>
      <trkpt lat="47.40803" lon="3.82099">
        <ele>279</ele>
        <time>2014-04-18T12:26:21Z</time>
      </trkpt>
      <trkpt lat="47.40798" lon="3.82099">
        <ele>279</ele>
        <time>2014-04-18T12:26:25Z</time>
      </trkpt>
      <trkpt lat="47.40771" lon="3.82094">
        <ele>279</ele>
        <time>2014-04-18T12:26:56Z</time>
      </trkpt>
      <trkpt lat="47.40766" lon="3.82095">
        <ele>279</ele>
        <time>2014-04-18T12:27:01Z</time>
      </trkpt>
      <trkpt lat="47.40755" lon="3.82093">
        <ele>278</ele>
        <time>2014-04-18T12:27:09Z</time>
      </trkpt>
      <trkpt lat="47.4075" lon="3.82093">
        <ele>278</ele>
        <time>2014-04-18T12:27:14Z</time>
      </trkpt>
      <trkpt lat="47.40742" lon="3.82088">
        <ele>279</ele>
        <time>2014-04-18T12:27:24Z</time>
      </trkpt>
      <trkpt lat="47.40734" lon="3.82082">
        <ele>274</ele>
        <time>2014-04-18T12:27:31Z</time>
      </trkpt>
      <trkpt lat="47.40724" lon="3.82081">
        <ele>273</ele>
        <time>2014-04-18T12:27:38Z</time>
      </trkpt>
      <trkpt lat="47.40715" lon="3.82086">
        <ele>283</ele>
        <time>2014-04-18T12:27:49Z</time>
      </trkpt>
      <trkpt lat="47.40712" lon="3.82091">
        <ele>284</ele>
        <time>2014-04-18T12:27:59Z</time>
      </trkpt>
      <trkpt lat="47.40704" lon="3.82099">
        <ele>284</ele>
        <time>2014-04-18T12:28:08Z</time>
      </trkpt>
      <trkpt lat="47.40696" lon="3.82092">
        <ele>284</ele>
        <time>2014-04-18T12:28:16Z</time>
      </trkpt>
      <trkpt lat="47.40686" lon="3.82089">
        <ele>284</ele>
        <time>2014-04-18T12:28:23Z</time>
      </trkpt>
      <trkpt lat="47.40677" lon="3.8209">
        <ele>283</ele>
        <time>2014-04-18T12:28:30Z</time>
      </trkpt>
      <trkpt lat="47.40669" lon="3.82085">
        <ele>282</ele>
        <time>2014-04-18T12:28:36Z</time>
      </trkpt>
      <trkpt lat="47.40659" lon="3.82086">
        <ele>282</ele>
        <time>2014-04-18T12:28:50Z</time>
      </trkpt>
      <trkpt lat="47.4065" lon="3.82083">
        <ele>276</ele>
        <time>2014-04-18T12:29:00Z</time>
      </trkpt>
      <trkpt lat="47.40631" lon="3.82066">
        <ele>272</ele>
        <time>2014-04-18T12:29:16Z</time>
      </trkpt>
      <trkpt lat="47.40626" lon="3.82066">
        <ele>272</ele>
        <time>2014-04-18T12:29:20Z</time>
      </trkpt>
      <trkpt lat="47.40621" lon="3.82066">
        <ele>272</ele>
        <time>2014-04-18T12:29:24Z</time>
      </trkpt>
      <trkpt lat="47.40615" lon="3.82069">
        <ele>272</ele>
        <time>2014-04-18T12:29:30Z</time>
      </trkpt>
      <trkpt lat="47.40615" lon="3.82074">
        <ele>272</ele>
        <time>2014-04-18T12:30:27Z</time>
      </trkpt>
      <trkpt lat="47.40608" lon="3.82076">
        <ele>272</ele>
        <time>2014-04-18T12:30:42Z</time>
      </trkpt>
      <trkpt lat="47.40604" lon="3.82075">
        <ele>272</ele>
        <time>2014-04-18T12:30:46Z</time>
      </trkpt>
      <trkpt lat="47.40599" lon="3.82073">
        <ele>272</ele>
        <time>2014-04-18T12:30:53Z</time>
      </trkpt>
      <trkpt lat="47.40595" lon="3.82075">
        <ele>273</ele>
        <time>2014-04-18T12:31:14Z</time>
      </trkpt>
      <trkpt lat="47.40461" lon="3.82115">
        <ele>271</ele>
        <time>2014-04-18T12:33:40Z</time>
      </trkpt>
      <trkpt lat="47.40458" lon="3.82128">
        <ele>272</ele>
        <time>2014-04-18T12:33:54Z</time>
      </trkpt>
      <trkpt lat="47.40451" lon="3.82137">
        <ele>272</ele>
        <time>2014-04-18T12:34:18Z</time>
      </trkpt>
      <trkpt lat="47.40446" lon="3.82141">
        <ele>271</ele>
        <time>2014-04-18T12:34:23Z</time>
      </trkpt>
      <trkpt lat="47.40441" lon="3.82143">
        <ele>271</ele>
        <time>2014-04-18T12:34:26Z</time>
      </trkpt>
      <trkpt lat="47.40412" lon="3.82206">
        <ele>267</ele>
        <time>2014-04-18T12:35:10Z</time>
      </trkpt>
      <trkpt lat="47.4042" lon="3.82265">
        <ele>281</ele>
        <time>2014-04-18T12:35:56Z</time>
      </trkpt>
      <trkpt lat="47.40395" lon="3.82317">
        <ele>273</ele>
        <time>2014-04-18T12:36:26Z</time>
      </trkpt>
      <trkpt lat="47.40391" lon="3.82371">
        <ele>273</ele>
        <time>2014-04-18T12:37:03Z</time>
      </trkpt>
      <trkpt lat="47.40378" lon="3.82441">
        <ele>273</ele>
        <time>2014-04-18T12:37:48Z</time>
      </trkpt>
      <trkpt lat="47.40374" lon="3.82454">
        <ele>272</ele>
        <time>2014-04-18T12:37:52Z</time>
      </trkpt>
      <trkpt lat="47.40372" lon="3.82469">
        <ele>272</ele>
        <time>2014-04-18T12:37:57Z</time>
      </trkpt>
      <trkpt lat="47.40373" lon="3.82482">
        <ele>272</ele>
        <time>2014-04-18T12:38:02Z</time>
      </trkpt>
      <trkpt lat="47.40358" lon="3.82509">
        <ele>271</ele>
        <time>2014-04-18T12:38:15Z</time>
      </trkpt>
      <trkpt lat="47.40353" lon="3.82523">
        <ele>272</ele>
        <time>2014-04-18T12:38:21Z</time>
      </trkpt>
      <trkpt lat="47.40358" lon="3.82535">
        <ele>273</ele>
        <time>2014-04-18T12:38:36Z</time>
      </trkpt>
      <trkpt lat="47.4036" lon="3.82549">
        <ele>273</ele>
        <time>2014-04-18T12:38:46Z</time>
      </trkpt>
      <trkpt lat="47.40362" lon="3.82563">
        <ele>273</ele>
        <time>2014-04-18T12:38:55Z</time>
      </trkpt>
      <trkpt lat="47.40357" lon="3.82575">
        <ele>273</ele>
        <time>2014-04-18T12:39:02Z</time>
      </trkpt>
      <trkpt lat="47.40355" lon="3.82588">
        <ele>276</ele>
        <time>2014-04-18T12:39:13Z</time>
      </trkpt>
      <trkpt lat="47.40353" lon="3.82595">
        <ele>276</ele>
        <time>2014-04-18T12:39:17Z</time>
      </trkpt>
      <trkpt lat="47.4035" lon="3.82592">
        <ele>275</ele>
        <time>2014-04-18T12:39:40Z</time>
      </trkpt>
      <trkpt lat="47.40346" lon="3.82596">
        <ele>275</ele>
        <time>2014-04-18T12:39:45Z</time>
      </trkpt>
      <trkpt lat="47.40343" lon="3.82602">
        <ele>276</ele>
        <time>2014-04-18T12:39:50Z</time>
      </trkpt>
      <trkpt lat="47.40341" lon="3.82608">
        <ele>277</ele>
        <time>2014-04-18T12:39:55Z</time>
      </trkpt>
      <trkpt lat="47.40334" lon="3.8262">
        <ele>278</ele>
        <time>2014-04-18T12:40:05Z</time>
      </trkpt>
      <trkpt lat="47.4033" lon="3.82625">
        <ele>275</ele>
        <time>2014-04-18T12:40:11Z</time>
      </trkpt>
      <trkpt lat="47.40325" lon="3.82626">
        <ele>275</ele>
        <time>2014-04-18T12:40:15Z</time>
      </trkpt>
      <trkpt lat="47.4032" lon="3.82625">
        <ele>275</ele>
        <time>2014-04-18T12:40:18Z</time>
      </trkpt>
      <trkpt lat="47.40316" lon="3.82623">
        <ele>275</ele>
        <time>2014-04-18T12:40:22Z</time>
      </trkpt>
      <trkpt lat="47.40308" lon="3.82613">
        <ele>274</ele>
        <time>2014-04-18T12:40:33Z</time>
      </trkpt>
      <trkpt lat="47.40304" lon="3.82612">
        <ele>274</ele>
        <time>2014-04-18T12:40:37Z</time>
      </trkpt>
      <trkpt lat="47.403" lon="3.82609">
        <ele>274</ele>
        <time>2014-04-18T12:40:41Z</time>
      </trkpt>
      <trkpt lat="47.40296" lon="3.82605">
        <ele>274</ele>
        <time>2014-04-18T12:40:45Z</time>
      </trkpt>
      <trkpt lat="47.40287" lon="3.82602">
        <ele>274</ele>
        <time>2014-04-18T12:40:55Z</time>
      </trkpt>
      <trkpt lat="47.40282" lon="3.82601">
        <ele>274</ele>
        <time>2014-04-18T12:41:03Z</time>
      </trkpt>
      <trkpt lat="47.40273" lon="3.82612">
        <ele>274</ele>
        <time>2014-04-18T12:41:23Z</time>
      </trkpt>
      <trkpt lat="47.40246" lon="3.82618">
        <ele>276</ele>
        <time>2014-04-18T12:41:51Z</time>
      </trkpt>
      <trkpt lat="47.40236" lon="3.82618">
        <ele>277</ele>
        <time>2014-04-18T12:42:02Z</time>
      </trkpt>
      <trkpt lat="47.40243" lon="3.8263">
        <ele>278</ele>
        <time>2014-04-18T12:42:17Z</time>
      </trkpt>
      <trkpt lat="47.40253" lon="3.82636">
        <ele>276</ele>
        <time>2014-04-18T12:42:21Z</time>
      </trkpt>
      <trkpt lat="47.40249" lon="3.82635">
        <ele>278</ele>
        <time>2014-04-18T12:43:06Z</time>
      </trkpt>
      <trkpt lat="47.40235" lon="3.82641">
        <ele>278</ele>
        <time>2014-04-18T12:43:20Z</time>
      </trkpt>
      <trkpt lat="47.40225" lon="3.8264">
        <ele>278</ele>
        <time>2014-04-18T12:43:25Z</time>
      </trkpt>
      <trkpt lat="47.40216" lon="3.82646">
        <ele>279</ele>
        <time>2014-04-18T12:43:53Z</time>
      </trkpt>
      <trkpt lat="47.40207" lon="3.82664">
        <ele>280</ele>
        <time>2014-04-18T12:44:27Z</time>
      </trkpt>
      <trkpt lat="47.40206" lon="3.82671">
        <ele>286</ele>
        <time>2014-04-18T12:44:42Z</time>
      </trkpt>
      <trkpt lat="47.40202" lon="3.82673">
        <ele>286</ele>
        <time>2014-04-18T12:44:43Z</time>
      </trkpt>
      <trkpt lat="47.40198" lon="3.82677">
        <ele>286</ele>
        <time>2014-04-18T12:44:47Z</time>
      </trkpt>
      <trkpt lat="47.40193" lon="3.82678">
        <ele>286</ele>
        <time>2014-04-18T12:44:54Z</time>
      </trkpt>
      <trkpt lat="47.40189" lon="3.82682">
        <ele>287</ele>
        <time>2014-04-18T12:45:02Z</time>
      </trkpt>
      <trkpt lat="47.40185" lon="3.82681">
        <ele>287</ele>
        <time>2014-04-18T12:45:08Z</time>
      </trkpt>
      <trkpt lat="47.40181" lon="3.82684">
        <ele>287</ele>
        <time>2014-04-18T12:45:14Z</time>
      </trkpt>
      <trkpt lat="47.40176" lon="3.8269">
        <ele>287</ele>
        <time>2014-04-18T12:45:22Z</time>
      </trkpt>
      <trkpt lat="47.4017" lon="3.8269">
        <ele>287</ele>
        <time>2014-04-18T12:45:36Z</time>
      </trkpt>
      <trkpt lat="47.40166" lon="3.82695">
        <ele>293</ele>
        <time>2014-04-18T12:45:44Z</time>
      </trkpt>
      <trkpt lat="47.40164" lon="3.827">
        <ele>293</ele>
        <time>2014-04-18T12:45:58Z</time>
      </trkpt>
      <trkpt lat="47.40162" lon="3.8271">
        <ele>294</ele>
        <time>2014-04-18T12:46:12Z</time>
      </trkpt>
      <trkpt lat="47.40153" lon="3.82712">
        <ele>294</ele>
        <time>2014-04-18T12:46:35Z</time>
      </trkpt>
      <trkpt lat="47.40152" lon="3.82726">
        <ele>295</ele>
        <time>2014-04-18T12:46:47Z</time>
      </trkpt>
      <trkpt lat="47.4015" lon="3.82732">
        <ele>295</ele>
        <time>2014-04-18T12:46:53Z</time>
      </trkpt>
      <trkpt lat="47.40146" lon="3.82738">
        <ele>295</ele>
        <time>2014-04-18T12:47:10Z</time>
      </trkpt>
      <trkpt lat="47.40143" lon="3.82739">
        <ele>295</ele>
        <time>2014-04-18T12:47:17Z</time>
      </trkpt>
      <trkpt lat="47.40141" lon="3.82745">
        <ele>296</ele>
        <time>2014-04-18T12:47:31Z</time>
      </trkpt>
      <trkpt lat="47.4014" lon="3.82753">
        <ele>299</ele>
        <time>2014-04-18T12:47:37Z</time>
      </trkpt>
      <trkpt lat="47.40136" lon="3.82768">
        <ele>300</ele>
        <time>2014-04-18T12:48:21Z</time>
      </trkpt>
      <trkpt lat="47.40136" lon="3.82775">
        <ele>301</ele>
        <time>2014-04-18T12:48:27Z</time>
      </trkpt>
      <trkpt lat="47.40134" lon="3.82784">
        <ele>301</ele>
        <time>2014-04-18T12:48:38Z</time>
      </trkpt>
      <trkpt lat="47.40128" lon="3.82778">
        <ele>301</ele>
        <time>2014-04-18T12:48:49Z</time>
      </trkpt>
      <trkpt lat="47.40118" lon="3.82777">
        <ele>302</ele>
        <time>2014-04-18T12:48:57Z</time>
      </trkpt>
      <trkpt lat="47.40116" lon="3.82791">
        <ele>302</ele>
        <time>2014-04-18T12:49:12Z</time>
      </trkpt>
      <trkpt lat="47.40111" lon="3.82793">
        <ele>303</ele>
        <time>2014-04-18T12:49:24Z</time>
      </trkpt>
      <trkpt lat="47.4011" lon="3.82806">
        <ele>304</ele>
        <time>2014-04-18T12:49:34Z</time>
      </trkpt>
      <trkpt lat="47.40106" lon="3.8282">
        <ele>305</ele>
        <time>2014-04-18T12:49:40Z</time>
      </trkpt>
      <trkpt lat="47.40103" lon="3.82833">
        <ele>306</ele>
        <time>2014-04-18T12:49:47Z</time>
      </trkpt>
      <trkpt lat="47.40096" lon="3.82842">
        <ele>309</ele>
        <time>2014-04-18T12:49:56Z</time>
      </trkpt>
      <trkpt lat="47.40086" lon="3.82844">
        <ele>309</ele>
        <time>2014-04-18T12:50:08Z</time>
      </trkpt>
      <trkpt lat="47.40077" lon="3.82849">
        <ele>310</ele>
        <time>2014-04-18T12:50:22Z</time>
      </trkpt>
      <trkpt lat="47.40058" lon="3.82851">
        <ele>309</ele>
        <time>2014-04-18T12:50:41Z</time>
      </trkpt>
      <trkpt lat="47.40023" lon="3.82862">
        <ele>308</ele>
        <time>2014-04-18T12:51:05Z</time>
      </trkpt>
      <trkpt lat="47.40015" lon="3.82899">
        <ele>308</ele>
        <time>2014-04-18T12:52:18Z</time>
      </trkpt>
      <trkpt lat="47.40013" lon="3.82906">
        <ele>308</ele>
        <time>2014-04-18T12:52:24Z</time>
      </trkpt>
      <trkpt lat="47.40012" lon="3.82913">
        <ele>308</ele>
        <time>2014-04-18T12:52:31Z</time>
      </trkpt>
      <trkpt lat="47.40012" lon="3.82916">
        <ele>308</ele>
        <time>2014-04-18T12:52:37Z</time>
      </trkpt>
      <trkpt lat="47.4001" lon="3.82922">
        <ele>309</ele>
        <time>2014-04-18T12:52:43Z</time>
      </trkpt>
      <trkpt lat="47.40007" lon="3.82928">
        <ele>310</ele>
        <time>2014-04-18T12:52:51Z</time>
      </trkpt>
      <trkpt lat="47.40006" lon="3.82935">
        <ele>310</ele>
        <time>2014-04-18T12:52:55Z</time>
      </trkpt>
      <trkpt lat="47.40002" lon="3.82934">
        <ele>310</ele>
        <time>2014-04-18T12:53:26Z</time>
      </trkpt>
      <trkpt lat="47.4" lon="3.82939">
        <ele>311</ele>
        <time>2014-04-18T12:53:43Z</time>
      </trkpt>
      <trkpt lat="47.39999" lon="3.82942">
        <ele>305</ele>
        <time>2014-04-18T12:53:54Z</time>
      </trkpt>
      <trkpt lat="47.40001" lon="3.82946">
        <ele>311</ele>
        <time>2014-04-18T12:54:39Z</time>
      </trkpt>
      <trkpt lat="47.40005" lon="3.8295">
        <ele>312</ele>
        <time>2014-04-18T12:54:44Z</time>
      </trkpt>
      <trkpt lat="47.40001" lon="3.82957">
        <ele>312</ele>
        <time>2014-04-18T12:55:28Z</time>
      </trkpt>
      <trkpt lat="47.4" lon="3.82959">
        <ele>305</ele>
        <time>2014-04-18T12:55:59Z</time>
      </trkpt>
      <trkpt lat="47.40002" lon="3.82965">
        <ele>313</ele>
        <time>2014-04-18T12:56:06Z</time>
      </trkpt>
      <trkpt lat="47.39998" lon="3.82977">
        <ele>307</ele>
        <time>2014-04-18T12:56:17Z</time>
      </trkpt>
      <trkpt lat="47.39989" lon="3.82985">
        <ele>307</ele>
        <time>2014-04-18T12:56:26Z</time>
      </trkpt>
      <trkpt lat="47.39983" lon="3.82995">
        <ele>307</ele>
        <time>2014-04-18T12:56:32Z</time>
      </trkpt>
      <trkpt lat="47.39979" lon="3.83008">
        <ele>309</ele>
        <time>2014-04-18T12:56:39Z</time>
      </trkpt>
      <trkpt lat="47.39983" lon="3.83022">
        <ele>309</ele>
        <time>2014-04-18T12:56:48Z</time>
      </trkpt>
      <trkpt lat="47.39984" lon="3.83036">
        <ele>309</ele>
        <time>2014-04-18T12:56:55Z</time>
      </trkpt>
      <trkpt lat="47.39986" lon="3.83042">
        <ele>309</ele>
        <time>2014-04-18T12:57:00Z</time>
      </trkpt>
      <trkpt lat="47.39989" lon="3.83063">
        <ele>311</ele>
        <time>2014-04-18T12:57:16Z</time>
      </trkpt>
      <trkpt lat="47.39987" lon="3.83077">
        <ele>312</ele>
        <time>2014-04-18T12:57:24Z</time>
      </trkpt>
      <trkpt lat="47.39989" lon="3.83084">
        <ele>314</ele>
        <time>2014-04-18T12:57:29Z</time>
      </trkpt>
      <trkpt lat="47.39993" lon="3.83086">
        <ele>314</ele>
        <time>2014-04-18T12:57:33Z</time>
      </trkpt>
      <trkpt lat="47.40002" lon="3.83103">
        <ele>318</ele>
        <time>2014-04-18T12:57:46Z</time>
      </trkpt>
      <trkpt lat="47.40001" lon="3.83112">
        <ele>319</ele>
        <time>2014-04-18T12:57:51Z</time>
      </trkpt>
      <trkpt lat="47.40007" lon="3.83125">
        <ele>319</ele>
        <time>2014-04-18T12:57:59Z</time>
      </trkpt>
      <trkpt lat="47.40008" lon="3.83132">
        <ele>319</ele>
        <time>2014-04-18T12:58:04Z</time>
      </trkpt>
      <trkpt lat="47.40009" lon="3.83139">
        <ele>319</ele>
        <time>2014-04-18T12:58:10Z</time>
      </trkpt>
      <trkpt lat="47.40013" lon="3.83143">
        <ele>319</ele>
        <time>2014-04-18T12:58:18Z</time>
      </trkpt>
      <trkpt lat="47.40014" lon="3.83156">
        <ele>319</ele>
        <time>2014-04-18T12:58:25Z</time>
      </trkpt>
      <trkpt lat="47.40018" lon="3.83168">
        <ele>318</ele>
        <time>2014-04-18T12:58:35Z</time>
      </trkpt>
      <trkpt lat="47.40019" lon="3.83191">
        <ele>318</ele>
        <time>2014-04-18T12:58:50Z</time>
      </trkpt>
      <trkpt lat="47.40024" lon="3.83205">
        <ele>318</ele>
        <time>2014-04-18T12:58:58Z</time>
      </trkpt>
      <trkpt lat="47.40026" lon="3.83219">
        <ele>318</ele>
        <time>2014-04-18T12:59:09Z</time>
      </trkpt>
      <trkpt lat="47.40028" lon="3.83225">
        <ele>317</ele>
        <time>2014-04-18T12:59:12Z</time>
      </trkpt>
      <trkpt lat="47.40031" lon="3.83231">
        <ele>317</ele>
        <time>2014-04-18T12:59:15Z</time>
      </trkpt>
      <trkpt lat="47.40035" lon="3.83235">
        <ele>318</ele>
        <time>2014-04-18T12:59:18Z</time>
      </trkpt>
      <trkpt lat="47.40036" lon="3.83243">
        <ele>318</ele>
        <time>2014-04-18T12:59:24Z</time>
      </trkpt>
      <trkpt lat="47.4004" lon="3.83248">
        <ele>318</ele>
        <time>2014-04-18T12:59:30Z</time>
      </trkpt>
      <trkpt lat="47.4004" lon="3.83255">
        <ele>314</ele>
        <time>2014-04-18T12:59:38Z</time>
      </trkpt>
      <trkpt lat="47.40045" lon="3.83267">
        <ele>314</ele>
        <time>2014-04-18T12:59:47Z</time>
      </trkpt>
      <trkpt lat="47.40068" lon="3.83295">
        <ele>315</ele>
        <time>2014-04-18T13:00:10Z</time>
      </trkpt>
      <trkpt lat="47.40077" lon="3.83319">
        <ele>316</ele>
        <time>2014-04-18T13:00:26Z</time>
      </trkpt>
      <trkpt lat="47.40079" lon="3.83332">
        <ele>317</ele>
        <time>2014-04-18T13:00:33Z</time>
      </trkpt>
      <trkpt lat="47.40078" lon="3.8334">
        <ele>314</ele>
        <time>2014-04-18T13:00:37Z</time>
      </trkpt>
      <trkpt lat="47.40077" lon="3.83348">
        <ele>312</ele>
        <time>2014-04-18T13:00:44Z</time>
      </trkpt>
      <trkpt lat="47.40078" lon="3.83354">
        <ele>311</ele>
        <time>2014-04-18T13:00:49Z</time>
      </trkpt>
      <trkpt lat="47.40082" lon="3.8336">
        <ele>310</ele>
        <time>2014-04-18T13:00:54Z</time>
      </trkpt>
      <trkpt lat="47.40084" lon="3.83367">
        <ele>320</ele>
        <time>2014-04-18T13:01:00Z</time>
      </trkpt>
      <trkpt lat="47.40084" lon="3.83374">
        <ele>320</ele>
        <time>2014-04-18T13:01:06Z</time>
      </trkpt>
      <trkpt lat="47.40092" lon="3.83386">
        <ele>319</ele>
        <time>2014-04-18T13:01:15Z</time>
      </trkpt>
      <trkpt lat="47.40096" lon="3.83394">
        <ele>318</ele>
        <time>2014-04-18T13:01:18Z</time>
      </trkpt>
      <trkpt lat="47.401" lon="3.83401">
        <ele>318</ele>
        <time>2014-04-18T13:01:21Z</time>
      </trkpt>
      <trkpt lat="47.40101" lon="3.83401">
        <ele>318</ele>
        <time>2014-04-18T13:01:45Z</time>
      </trkpt>
      <trkpt lat="47.40089" lon="3.83392">
        <ele>318</ele>
        <time>2014-04-18T13:01:53Z</time>
      </trkpt>
      <trkpt lat="47.40086" lon="3.83391">
        <ele>318</ele>
        <time>2014-04-18T13:01:54Z</time>
      </trkpt>
      <trkpt lat="47.4008" lon="3.83402">
        <ele>309</ele>
        <time>2014-04-18T13:02:02Z</time>
      </trkpt>
      <trkpt lat="47.40084" lon="3.8341">
        <ele>314</ele>
        <time>2014-04-18T13:02:04Z</time>
      </trkpt>
      <trkpt lat="47.40089" lon="3.83416">
        <ele>313</ele>
        <time>2014-04-18T13:02:06Z</time>
      </trkpt>
      <trkpt lat="47.40122" lon="3.83446">
        <ele>317</ele>
        <time>2014-04-18T13:02:24Z</time>
      </trkpt>
      <trkpt lat="47.40125" lon="3.83452">
        <ele>318</ele>
        <time>2014-04-18T13:02:28Z</time>
      </trkpt>
      <trkpt lat="47.40131" lon="3.83456">
        <ele>318</ele>
        <time>2014-04-18T13:02:31Z</time>
      </trkpt>
      <trkpt lat="47.40136" lon="3.8346">
        <ele>318</ele>
        <time>2014-04-18T13:02:34Z</time>
      </trkpt>
      <trkpt lat="47.40143" lon="3.8347">
        <ele>319</ele>
        <time>2014-04-18T13:02:42Z</time>
      </trkpt>
      <trkpt lat="47.40146" lon="3.83474">
        <ele>319</ele>
        <time>2014-04-18T13:02:45Z</time>
      </trkpt>
      <trkpt lat="47.4015" lon="3.8348">
        <ele>320</ele>
        <time>2014-04-18T13:02:52Z</time>
      </trkpt>
      <trkpt lat="47.40152" lon="3.83486">
        <ele>320</ele>
        <time>2014-04-18T13:02:57Z</time>
      </trkpt>
      <trkpt lat="47.40159" lon="3.83499">
        <ele>322</ele>
        <time>2014-04-18T13:03:07Z</time>
      </trkpt>
      <trkpt lat="47.40164" lon="3.83512">
        <ele>319</ele>
        <time>2014-04-18T13:03:15Z</time>
      </trkpt>
      <trkpt lat="47.4017" lon="3.83522">
        <ele>324</ele>
        <time>2014-04-18T13:03:27Z</time>
      </trkpt>
      <trkpt lat="47.40179" lon="3.83527">
        <ele>324</ele>
        <time>2014-04-18T13:03:34Z</time>
      </trkpt>
      <trkpt lat="47.40182" lon="3.8354">
        <ele>323</ele>
        <time>2014-04-18T13:03:43Z</time>
      </trkpt>
      <trkpt lat="47.40186" lon="3.83545">
        <ele>323</ele>
        <time>2014-04-18T13:03:48Z</time>
      </trkpt>
      <trkpt lat="47.40195" lon="3.83551">
        <ele>324</ele>
        <time>2014-04-18T13:03:58Z</time>
      </trkpt>
      <trkpt lat="47.40205" lon="3.83548">
        <ele>325</ele>
        <time>2014-04-18T13:04:06Z</time>
      </trkpt>
      <trkpt lat="47.40205" lon="3.83564">
        <ele>324</ele>
        <time>2014-04-18T13:04:11Z</time>
      </trkpt>
      <trkpt lat="47.40199" lon="3.83574">
        <ele>323</ele>
        <time>2014-04-18T13:04:22Z</time>
      </trkpt>
      <trkpt lat="47.40205" lon="3.83577">
        <ele>323</ele>
        <time>2014-04-18T13:04:34Z</time>
      </trkpt>
      <trkpt lat="47.40209" lon="3.83577">
        <ele>324</ele>
        <time>2014-04-18T13:04:38Z</time>
      </trkpt>
      <trkpt lat="47.4022" lon="3.83584">
        <ele>320</ele>
        <time>2014-04-18T13:04:46Z</time>
      </trkpt>
      <trkpt lat="47.4023" lon="3.83593">
        <ele>321</ele>
        <time>2014-04-18T13:04:57Z</time>
      </trkpt>
      <trkpt lat="47.40235" lon="3.83594">
        <ele>322</ele>
        <time>2014-04-18T13:05:02Z</time>
      </trkpt>
      <trkpt lat="47.40244" lon="3.83602">
        <ele>322</ele>
        <time>2014-04-18T13:05:27Z</time>
      </trkpt>
      <trkpt lat="47.40245" lon="3.8361">
        <ele>321</ele>
        <time>2014-04-18T13:05:33Z</time>
      </trkpt>
      <trkpt lat="47.40248" lon="3.83617">
        <ele>320</ele>
        <time>2014-04-18T13:05:37Z</time>
      </trkpt>
      <trkpt lat="47.40259" lon="3.83635">
        <ele>326</ele>
        <time>2014-04-18T13:05:48Z</time>
      </trkpt>
      <trkpt lat="47.40266" lon="3.83656">
        <ele>323</ele>
        <time>2014-04-18T13:06:00Z</time>
      </trkpt>
      <trkpt lat="47.40267" lon="3.83659">
        <ele>323</ele>
        <time>2014-04-18T13:06:06Z</time>
      </trkpt>
      <trkpt lat="47.40272" lon="3.83668">
        <ele>319</ele>
        <time>2014-04-18T13:06:37Z</time>
      </trkpt>
      <trkpt lat="47.40275" lon="3.83675">
        <ele>320</ele>
        <time>2014-04-18T13:06:47Z</time>
      </trkpt>
      <trkpt lat="47.40278" lon="3.83682">
        <ele>320</ele>
        <time>2014-04-18T13:06:53Z</time>
      </trkpt>
      <trkpt lat="47.40285" lon="3.8369">
        <ele>320</ele>
        <time>2014-04-18T13:07:05Z</time>
      </trkpt>
      <trkpt lat="47.40288" lon="3.83697">
        <ele>320</ele>
        <time>2014-04-18T13:07:10Z</time>
      </trkpt>
      <trkpt lat="47.4029" lon="3.83711">
        <ele>320</ele>
        <time>2014-04-18T13:07:18Z</time>
      </trkpt>
      <trkpt lat="47.4029" lon="3.83719">
        <ele>319</ele>
        <time>2014-04-18T13:07:24Z</time>
      </trkpt>
      <trkpt lat="47.40294" lon="3.83721">
        <ele>320</ele>
        <time>2014-04-18T13:07:41Z</time>
      </trkpt>
      <trkpt lat="47.403" lon="3.8372">
        <ele>320</ele>
        <time>2014-04-18T13:08:03Z</time>
      </trkpt>
      <trkpt lat="47.40304" lon="3.83722">
        <ele>320</ele>
        <time>2014-04-18T13:08:23Z</time>
      </trkpt>
      <trkpt lat="47.40307" lon="3.83728">
        <ele>320</ele>
        <time>2014-04-18T13:08:28Z</time>
      </trkpt>
      <trkpt lat="47.40309" lon="3.83734">
        <ele>320</ele>
        <time>2014-04-18T13:08:32Z</time>
      </trkpt>
      <trkpt lat="47.40308" lon="3.83742">
        <ele>320</ele>
        <time>2014-04-18T13:08:39Z</time>
      </trkpt>
      <trkpt lat="47.40312" lon="3.83756">
        <ele>315</ele>
        <time>2014-04-18T13:08:46Z</time>
      </trkpt>
      <trkpt lat="47.40324" lon="3.83763">
        <ele>316</ele>
        <time>2014-04-18T13:08:49Z</time>
      </trkpt>
      <trkpt lat="47.40327" lon="3.83766">
        <ele>316</ele>
        <time>2014-04-18T13:08:51Z</time>
      </trkpt>
      <trkpt lat="47.4033" lon="3.83767">
        <ele>316</ele>
        <time>2014-04-18T13:08:52Z</time>
      </trkpt>
      <trkpt lat="47.40322" lon="3.83769">
        <ele>315</ele>
        <time>2014-04-18T13:08:59Z</time>
      </trkpt>
      <trkpt lat="47.40319" lon="3.83777">
        <ele>314</ele>
        <time>2014-04-18T13:09:10Z</time>
      </trkpt>
      <trkpt lat="47.40325" lon="3.83789">
        <ele>313</ele>
        <time>2014-04-18T13:09:19Z</time>
      </trkpt>
      <trkpt lat="47.40329" lon="3.83792">
        <ele>312</ele>
        <time>2014-04-18T13:09:23Z</time>
      </trkpt>
      <trkpt lat="47.40333" lon="3.83798">
        <ele>312</ele>
        <time>2014-04-18T13:09:27Z</time>
      </trkpt>
      <trkpt lat="47.40337" lon="3.83801">
        <ele>316</ele>
        <time>2014-04-18T13:09:30Z</time>
      </trkpt>
      <trkpt lat="47.40341" lon="3.83809">
        <ele>315</ele>
        <time>2014-04-18T13:09:42Z</time>
      </trkpt>
      <trkpt lat="47.40342" lon="3.83817">
        <ele>314</ele>
        <time>2014-04-18T13:09:47Z</time>
      </trkpt>
      <trkpt lat="47.40351" lon="3.83835">
        <ele>308</ele>
        <time>2014-04-18T13:10:02Z</time>
      </trkpt>
      <trkpt lat="47.40353" lon="3.83843">
        <ele>308</ele>
        <time>2014-04-18T13:10:06Z</time>
      </trkpt>
      <trkpt lat="47.40357" lon="3.83846">
        <ele>308</ele>
        <time>2014-04-18T13:10:11Z</time>
      </trkpt>
      <trkpt lat="47.40362" lon="3.83845">
        <ele>308</ele>
        <time>2014-04-18T13:10:16Z</time>
      </trkpt>
      <trkpt lat="47.40367" lon="3.83848">
        <ele>308</ele>
        <time>2014-04-18T13:10:20Z</time>
      </trkpt>
      <trkpt lat="47.4037" lon="3.83855">
        <ele>308</ele>
        <time>2014-04-18T13:10:24Z</time>
      </trkpt>
      <trkpt lat="47.40374" lon="3.83869">
        <ele>308</ele>
        <time>2014-04-18T13:10:35Z</time>
      </trkpt>
      <trkpt lat="47.40377" lon="3.83874">
        <ele>307</ele>
        <time>2014-04-18T13:10:40Z</time>
      </trkpt>
      <trkpt lat="47.40383" lon="3.83885">
        <ele>307</ele>
        <time>2014-04-18T13:10:47Z</time>
      </trkpt>
      <trkpt lat="47.40387" lon="3.839">
        <ele>307</ele>
        <time>2014-04-18T13:10:53Z</time>
      </trkpt>
      <trkpt lat="47.40389" lon="3.83907">
        <ele>307</ele>
        <time>2014-04-18T13:10:56Z</time>
      </trkpt>
      <trkpt lat="47.40389" lon="3.83915">
        <ele>307</ele>
        <time>2014-04-18T13:11:00Z</time>
      </trkpt>
      <trkpt lat="47.40387" lon="3.83922">
        <ele>303</ele>
        <time>2014-04-18T13:11:04Z</time>
      </trkpt>
      <trkpt lat="47.40384" lon="3.83959">
        <ele>302</ele>
        <time>2014-04-18T13:11:28Z</time>
      </trkpt>
      <trkpt lat="47.40377" lon="3.8398">
        <ele>301</ele>
        <time>2014-04-18T13:11:40Z</time>
      </trkpt>
      <trkpt lat="47.40374" lon="3.83987">
        <ele>300</ele>
        <time>2014-04-18T13:11:44Z</time>
      </trkpt>
      <trkpt lat="47.40369" lon="3.84007">
        <ele>297</ele>
        <time>2014-04-18T13:12:00Z</time>
      </trkpt>
      <trkpt lat="47.40366" lon="3.84013">
        <ele>297</ele>
        <time>2014-04-18T13:12:04Z</time>
      </trkpt>
      <trkpt lat="47.40363" lon="3.84018">
        <ele>297</ele>
        <time>2014-04-18T13:12:07Z</time>
      </trkpt>
      <trkpt lat="47.40366" lon="3.8402">
        <ele>297</ele>
        <time>2014-04-18T13:12:14Z</time>
      </trkpt>
      <trkpt lat="47.40367" lon="3.84028">
        <ele>297</ele>
        <time>2014-04-18T13:12:36Z</time>
      </trkpt>
      <trkpt lat="47.40363" lon="3.84033">
        <ele>297</ele>
        <time>2014-04-18T13:12:40Z</time>
      </trkpt>
      <trkpt lat="47.40361" lon="3.84041">
        <ele>296</ele>
        <time>2014-04-18T13:12:44Z</time>
      </trkpt>
      <trkpt lat="47.4036" lon="3.84056">
        <ele>296</ele>
        <time>2014-04-18T13:12:52Z</time>
      </trkpt>
      <trkpt lat="47.40363" lon="3.84067">
        <ele>296</ele>
        <time>2014-04-18T13:13:19Z</time>
      </trkpt>
      <trkpt lat="47.40361" lon="3.84074">
        <ele>295</ele>
        <time>2014-04-18T13:13:23Z</time>
      </trkpt>
      <trkpt lat="47.40361" lon="3.84081">
        <ele>295</ele>
        <time>2014-04-18T13:13:26Z</time>
      </trkpt>
      <trkpt lat="47.40359" lon="3.84088">
        <ele>294</ele>
        <time>2014-04-18T13:13:33Z</time>
      </trkpt>
      <trkpt lat="47.40358" lon="3.84096">
        <ele>294</ele>
        <time>2014-04-18T13:13:38Z</time>
      </trkpt>
      <trkpt lat="47.40358" lon="3.84104">
        <ele>294</ele>
        <time>2014-04-18T13:13:43Z</time>
      </trkpt>
      <trkpt lat="47.40354" lon="3.84108">
        <ele>294</ele>
        <time>2014-04-18T13:13:48Z</time>
      </trkpt>
      <trkpt lat="47.40355" lon="3.84131">
        <ele>295</ele>
        <time>2014-04-18T13:14:07Z</time>
      </trkpt>
      <trkpt lat="47.40352" lon="3.84146">
        <ele>294</ele>
        <time>2014-04-18T13:14:17Z</time>
      </trkpt>
      <trkpt lat="47.40351" lon="3.84176">
        <ele>294</ele>
        <time>2014-04-18T13:14:37Z</time>
      </trkpt>
      <trkpt lat="47.40355" lon="3.84191">
        <ele>295</ele>
        <time>2014-04-18T13:14:46Z</time>
      </trkpt>
      <trkpt lat="47.40359" lon="3.84205">
        <ele>295</ele>
        <time>2014-04-18T13:14:55Z</time>
      </trkpt>
      <trkpt lat="47.40365" lon="3.8425">
        <ele>295</ele>
        <time>2014-04-18T13:15:34Z</time>
      </trkpt>
      <trkpt lat="47.40364" lon="3.84256">
        <ele>294</ele>
        <time>2014-04-18T13:15:39Z</time>
      </trkpt>
      <trkpt lat="47.40365" lon="3.84264">
        <ele>294</ele>
        <time>2014-04-18T13:15:44Z</time>
      </trkpt>
      <trkpt lat="47.40365" lon="3.84278">
        <ele>294</ele>
        <time>2014-04-18T13:15:52Z</time>
      </trkpt>
      <trkpt lat="47.40361" lon="3.843">
        <ele>294</ele>
        <time>2014-04-18T13:16:03Z</time>
      </trkpt>
      <trkpt lat="47.40362" lon="3.84335">
        <ele>292</ele>
        <time>2014-04-18T13:16:22Z</time>
      </trkpt>
      <trkpt lat="47.4036" lon="3.84341">
        <ele>292</ele>
        <time>2014-04-18T13:16:26Z</time>
      </trkpt>
      <trkpt lat="47.40356" lon="3.84363">
        <ele>292</ele>
        <time>2014-04-18T13:16:36Z</time>
      </trkpt>
      <trkpt lat="47.40357" lon="3.84374">
        <ele>292</ele>
        <time>2014-04-18T13:17:00Z</time>
      </trkpt>
      <trkpt lat="47.40354" lon="3.84381">
        <ele>292</ele>
        <time>2014-04-18T13:17:04Z</time>
      </trkpt>
      <trkpt lat="47.4035" lon="3.84386">
        <ele>291</ele>
        <time>2014-04-18T13:17:07Z</time>
      </trkpt>
      <trkpt lat="47.40349" lon="3.84394">
        <ele>291</ele>
        <time>2014-04-18T13:17:10Z</time>
      </trkpt>
      <trkpt lat="47.4035" lon="3.84401">
        <ele>291</ele>
        <time>2014-04-18T13:17:14Z</time>
      </trkpt>
      <trkpt lat="47.40349" lon="3.84409">
        <ele>290</ele>
        <time>2014-04-18T13:17:19Z</time>
      </trkpt>
      <trkpt lat="47.40349" lon="3.84416">
        <ele>290</ele>
        <time>2014-04-18T13:17:22Z</time>
      </trkpt>
      <trkpt lat="47.40345" lon="3.84466">
        <ele>288</ele>
        <time>2014-04-18T13:18:00Z</time>
      </trkpt>
      <trkpt lat="47.40348" lon="3.84533">
        <ele>285</ele>
        <time>2014-04-18T13:18:46Z</time>
      </trkpt>
      <trkpt lat="47.40347" lon="3.84541">
        <ele>285</ele>
        <time>2014-04-18T13:18:52Z</time>
      </trkpt>
      <trkpt lat="47.40349" lon="3.84547">
        <ele>285</ele>
        <time>2014-04-18T13:18:59Z</time>
      </trkpt>
      <trkpt lat="47.40347" lon="3.84562">
        <ele>284</ele>
        <time>2014-04-18T13:19:09Z</time>
      </trkpt>
      <trkpt lat="47.40347" lon="3.84569">
        <ele>284</ele>
        <time>2014-04-18T13:19:12Z</time>
      </trkpt>
      <trkpt lat="47.40349" lon="3.84584">
        <ele>283</ele>
        <time>2014-04-18T13:19:19Z</time>
      </trkpt>
      <trkpt lat="47.40348" lon="3.84591">
        <ele>283</ele>
        <time>2014-04-18T13:19:24Z</time>
      </trkpt>
      <trkpt lat="47.40346" lon="3.84598">
        <ele>283</ele>
        <time>2014-04-18T13:19:29Z</time>
      </trkpt>
      <trkpt lat="47.40345" lon="3.84605">
        <ele>284</ele>
        <time>2014-04-18T13:19:33Z</time>
      </trkpt>
      <trkpt lat="47.40344" lon="3.84612">
        <ele>284</ele>
        <time>2014-04-18T13:19:36Z</time>
      </trkpt>
      <trkpt lat="47.40344" lon="3.84619">
        <ele>284</ele>
        <time>2014-04-18T13:19:40Z</time>
      </trkpt>
      <trkpt lat="47.40342" lon="3.84627">
        <ele>284</ele>
        <time>2014-04-18T13:19:46Z</time>
      </trkpt>
      <trkpt lat="47.4034" lon="3.84633">
        <ele>284</ele>
        <time>2014-04-18T13:19:49Z</time>
      </trkpt>
      <trkpt lat="47.40336" lon="3.84638">
        <ele>284</ele>
        <time>2014-04-18T13:19:53Z</time>
      </trkpt>
      <trkpt lat="47.40327" lon="3.84647">
        <ele>282</ele>
        <time>2014-04-18T13:20:01Z</time>
      </trkpt>
      <trkpt lat="47.40317" lon="3.8465">
        <ele>282</ele>
        <time>2014-04-18T13:20:10Z</time>
      </trkpt>
      <trkpt lat="47.40292" lon="3.84672">
        <ele>284</ele>
        <time>2014-04-18T13:20:39Z</time>
      </trkpt>
      <trkpt lat="47.40287" lon="3.84675">
        <ele>284</ele>
        <time>2014-04-18T13:20:43Z</time>
      </trkpt>
      <trkpt lat="47.40282" lon="3.84676">
        <ele>284</ele>
        <time>2014-04-18T13:20:46Z</time>
      </trkpt>
      <trkpt lat="47.40277" lon="3.84679">
        <ele>284</ele>
        <time>2014-04-18T13:20:49Z</time>
      </trkpt>
      <trkpt lat="47.40273" lon="3.84681">
        <ele>284</ele>
        <time>2014-04-18T13:20:53Z</time>
      </trkpt>
      <trkpt lat="47.40269" lon="3.84686">
        <ele>284</ele>
        <time>2014-04-18T13:20:57Z</time>
      </trkpt>
      <trkpt lat="47.40265" lon="3.84691">
        <ele>284</ele>
        <time>2014-04-18T13:21:01Z</time>
      </trkpt>
      <trkpt lat="47.40263" lon="3.84697">
        <ele>284</ele>
        <time>2014-04-18T13:21:07Z</time>
      </trkpt>
      <trkpt lat="47.40259" lon="3.84702">
        <ele>284</ele>
        <time>2014-04-18T13:21:12Z</time>
      </trkpt>
      <trkpt lat="47.40255" lon="3.84708">
        <ele>285</ele>
        <time>2014-04-18T13:21:17Z</time>
      </trkpt>
      <trkpt lat="47.4025" lon="3.84712">
        <ele>285</ele>
        <time>2014-04-18T13:21:21Z</time>
      </trkpt>
      <trkpt lat="47.40244" lon="3.84711">
        <ele>282</ele>
        <time>2014-04-18T13:21:25Z</time>
      </trkpt>
      <trkpt lat="47.4024" lon="3.84709">
        <ele>282</ele>
        <time>2014-04-18T13:21:28Z</time>
      </trkpt>
      <trkpt lat="47.40234" lon="3.8471">
        <ele>282</ele>
        <time>2014-04-18T13:21:32Z</time>
      </trkpt>
      <trkpt lat="47.40231" lon="3.84715">
        <ele>282</ele>
        <time>2014-04-18T13:21:37Z</time>
      </trkpt>
      <trkpt lat="47.40227" lon="3.84721">
        <ele>282</ele>
        <time>2014-04-18T13:21:42Z</time>
      </trkpt>
      <trkpt lat="47.40226" lon="3.84727">
        <ele>282</ele>
        <time>2014-04-18T13:21:46Z</time>
      </trkpt>
      <trkpt lat="47.40224" lon="3.84735">
        <ele>283</ele>
        <time>2014-04-18T13:21:52Z</time>
      </trkpt>
      <trkpt lat="47.4022" lon="3.8474">
        <ele>283</ele>
        <time>2014-04-18T13:21:55Z</time>
      </trkpt>
      <trkpt lat="47.40217" lon="3.84745">
        <ele>282</ele>
        <time>2014-04-18T13:21:59Z</time>
      </trkpt>
      <trkpt lat="47.40212" lon="3.8475">
        <ele>287</ele>
        <time>2014-04-18T13:22:03Z</time>
      </trkpt>
      <trkpt lat="47.40209" lon="3.84756">
        <ele>286</ele>
        <time>2014-04-18T13:22:07Z</time>
      </trkpt>
      <trkpt lat="47.40206" lon="3.84763">
        <ele>287</ele>
        <time>2014-04-18T13:22:12Z</time>
      </trkpt>
      <trkpt lat="47.40205" lon="3.8477">
        <ele>287</ele>
        <time>2014-04-18T13:22:17Z</time>
      </trkpt>
      <trkpt lat="47.40202" lon="3.84775">
        <ele>287</ele>
        <time>2014-04-18T13:22:22Z</time>
      </trkpt>
      <trkpt lat="47.40196" lon="3.84779">
        <ele>287</ele>
        <time>2014-04-18T13:22:36Z</time>
      </trkpt>
      <trkpt lat="47.40191" lon="3.84784">
        <ele>287</ele>
        <time>2014-04-18T13:22:47Z</time>
      </trkpt>
      <trkpt lat="47.40187" lon="3.84787">
        <ele>287</ele>
        <time>2014-04-18T13:22:54Z</time>
      </trkpt>
      <trkpt lat="47.40182" lon="3.84787">
        <ele>287</ele>
        <time>2014-04-18T13:23:12Z</time>
      </trkpt>
      <trkpt lat="47.40177" lon="3.8479">
        <ele>287</ele>
        <time>2014-04-18T13:23:17Z</time>
      </trkpt>
      <trkpt lat="47.40168" lon="3.84793">
        <ele>287</ele>
        <time>2014-04-18T13:23:25Z</time>
      </trkpt>
      <trkpt lat="47.40163" lon="3.84794">
        <ele>285</ele>
        <time>2014-04-18T13:23:29Z</time>
      </trkpt>
      <trkpt lat="47.40159" lon="3.84798">
        <ele>285</ele>
        <time>2014-04-18T13:23:33Z</time>
      </trkpt>
      <trkpt lat="47.40154" lon="3.848">
        <ele>285</ele>
        <time>2014-04-18T13:23:38Z</time>
      </trkpt>
      <trkpt lat="47.40149" lon="3.848">
        <ele>285</ele>
        <time>2014-04-18T13:23:42Z</time>
      </trkpt>
      <trkpt lat="47.40144" lon="3.84798">
        <ele>285</ele>
        <time>2014-04-18T13:23:47Z</time>
      </trkpt>
      <trkpt lat="47.40119" lon="3.84807">
        <ele>285</ele>
        <time>2014-04-18T13:24:10Z</time>
      </trkpt>
      <trkpt lat="47.401" lon="3.8481">
        <ele>285</ele>
        <time>2014-04-18T13:24:28Z</time>
      </trkpt>
      <trkpt lat="47.40085" lon="3.84816">
        <ele>286</ele>
        <time>2014-04-18T13:24:43Z</time>
      </trkpt>
      <trkpt lat="47.40071" lon="3.84826">
        <ele>285</ele>
        <time>2014-04-18T13:24:56Z</time>
      </trkpt>
      <trkpt lat="47.40067" lon="3.84831">
        <ele>285</ele>
        <time>2014-04-18T13:25:00Z</time>
      </trkpt>
      <trkpt lat="47.40064" lon="3.84836">
        <ele>289</ele>
        <time>2014-04-18T13:25:07Z</time>
      </trkpt>
      <trkpt lat="47.40054" lon="3.84843">
        <ele>289</ele>
        <time>2014-04-18T13:25:14Z</time>
      </trkpt>
      <trkpt lat="47.40047" lon="3.84852">
        <ele>289</ele>
        <time>2014-04-18T13:25:20Z</time>
      </trkpt>
      <trkpt lat="47.40043" lon="3.84857">
        <ele>289</ele>
        <time>2014-04-18T13:25:24Z</time>
      </trkpt>
      <trkpt lat="47.40039" lon="3.84858">
        <ele>289</ele>
        <time>2014-04-18T13:25:28Z</time>
      </trkpt>
      <trkpt lat="47.40034" lon="3.84856">
        <ele>288</ele>
        <time>2014-04-18T13:25:33Z</time>
      </trkpt>
      <trkpt lat="47.40029" lon="3.84854">
        <ele>288</ele>
        <time>2014-04-18T13:25:38Z</time>
      </trkpt>
      <trkpt lat="47.40025" lon="3.84858">
        <ele>288</ele>
        <time>2014-04-18T13:25:42Z</time>
      </trkpt>
      <trkpt lat="47.4002" lon="3.84862">
        <ele>288</ele>
        <time>2014-04-18T13:25:45Z</time>
      </trkpt>
      <trkpt lat="47.40016" lon="3.84863">
        <ele>288</ele>
        <time>2014-04-18T13:25:48Z</time>
      </trkpt>
      <trkpt lat="47.4001" lon="3.84866">
        <ele>288</ele>
        <time>2014-04-18T13:25:52Z</time>
      </trkpt>
      <trkpt lat="47.40007" lon="3.8487">
        <ele>288</ele>
        <time>2014-04-18T13:25:56Z</time>
      </trkpt>
      <trkpt lat="47.40002" lon="3.84872">
        <ele>288</ele>
        <time>2014-04-18T13:26:01Z</time>
      </trkpt>
      <trkpt lat="47.39997" lon="3.84873">
        <ele>286</ele>
        <time>2014-04-18T13:26:05Z</time>
      </trkpt>
      <trkpt lat="47.39993" lon="3.84879">
        <ele>286</ele>
        <time>2014-04-18T13:26:09Z</time>
      </trkpt>
      <trkpt lat="47.39989" lon="3.84883">
        <ele>286</ele>
        <time>2014-04-18T13:26:13Z</time>
      </trkpt>
      <trkpt lat="47.39984" lon="3.84885">
        <ele>286</ele>
        <time>2014-04-18T13:26:17Z</time>
      </trkpt>
      <trkpt lat="47.39981" lon="3.8489">
        <ele>286</ele>
        <time>2014-04-18T13:26:22Z</time>
      </trkpt>
      <trkpt lat="47.39978" lon="3.84897">
        <ele>287</ele>
        <time>2014-04-18T13:26:26Z</time>
      </trkpt>
      <trkpt lat="47.39977" lon="3.84904">
        <ele>287</ele>
        <time>2014-04-18T13:26:29Z</time>
      </trkpt>
      <trkpt lat="47.39974" lon="3.84911">
        <ele>287</ele>
        <time>2014-04-18T13:26:34Z</time>
      </trkpt>
      <trkpt lat="47.39959" lon="3.84916">
        <ele>286</ele>
        <time>2014-04-18T13:26:48Z</time>
      </trkpt>
      <trkpt lat="47.39954" lon="3.84917">
        <ele>286</ele>
        <time>2014-04-18T13:26:55Z</time>
      </trkpt>
      <trkpt lat="47.3995" lon="3.84919">
        <ele>286</ele>
        <time>2014-04-18T13:26:59Z</time>
      </trkpt>
      <trkpt lat="47.39945" lon="3.84922">
        <ele>286</ele>
        <time>2014-04-18T13:27:03Z</time>
      </trkpt>
      <trkpt lat="47.3993" lon="3.84944">
        <ele>286</ele>
        <time>2014-04-18T13:27:16Z</time>
      </trkpt>
      <trkpt lat="47.39925" lon="3.84948">
        <ele>286</ele>
        <time>2014-04-18T13:27:22Z</time>
      </trkpt>
      <trkpt lat="47.3992" lon="3.84949">
        <ele>286</ele>
        <time>2014-04-18T13:27:27Z</time>
      </trkpt>
      <trkpt lat="47.39915" lon="3.84947">
        <ele>282</ele>
        <time>2014-04-18T13:27:30Z</time>
      </trkpt>
      <trkpt lat="47.3991" lon="3.84949">
        <ele>282</ele>
        <time>2014-04-18T13:27:33Z</time>
      </trkpt>
      <trkpt lat="47.39905" lon="3.84952">
        <ele>282</ele>
        <time>2014-04-18T13:27:37Z</time>
      </trkpt>
      <trkpt lat="47.39901" lon="3.84966">
        <ele>281</ele>
        <time>2014-04-18T13:27:46Z</time>
      </trkpt>
      <trkpt lat="47.39903" lon="3.84973">
        <ele>281</ele>
        <time>2014-04-18T13:27:51Z</time>
      </trkpt>
      <trkpt lat="47.39905" lon="3.84981">
        <ele>282</ele>
        <time>2014-04-18T13:27:55Z</time>
      </trkpt>
      <trkpt lat="47.39906" lon="3.84995">
        <ele>282</ele>
        <time>2014-04-18T13:28:01Z</time>
      </trkpt>
      <trkpt lat="47.39908" lon="3.85002">
        <ele>282</ele>
        <time>2014-04-18T13:28:04Z</time>
      </trkpt>
      <trkpt lat="47.39911" lon="3.85009">
        <ele>282</ele>
        <time>2014-04-18T13:28:08Z</time>
      </trkpt>
      <trkpt lat="47.39913" lon="3.85016">
        <ele>281</ele>
        <time>2014-04-18T13:28:12Z</time>
      </trkpt>
      <trkpt lat="47.39913" lon="3.85023">
        <ele>280</ele>
        <time>2014-04-18T13:28:17Z</time>
      </trkpt>
      <trkpt lat="47.39916" lon="3.85051">
        <ele>280</ele>
        <time>2014-04-18T13:28:35Z</time>
      </trkpt>
      <trkpt lat="47.39919" lon="3.85066">
        <ele>283</ele>
        <time>2014-04-18T13:28:43Z</time>
      </trkpt>
      <trkpt lat="47.39919" lon="3.85073">
        <ele>283</ele>
        <time>2014-04-18T13:28:48Z</time>
      </trkpt>
      <trkpt lat="47.3992" lon="3.85081">
        <ele>282</ele>
        <time>2014-04-18T13:28:54Z</time>
      </trkpt>
      <trkpt lat="47.39921" lon="3.85088">
        <ele>282</ele>
        <time>2014-04-18T13:28:59Z</time>
      </trkpt>
      <trkpt lat="47.3992" lon="3.85095">
        <ele>282</ele>
        <time>2014-04-18T13:29:03Z</time>
      </trkpt>
      <trkpt lat="47.3992" lon="3.85103">
        <ele>282</ele>
        <time>2014-04-18T13:29:07Z</time>
      </trkpt>
      <trkpt lat="47.39917" lon="3.85147">
        <ele>281</ele>
        <time>2014-04-18T13:29:34Z</time>
      </trkpt>
      <trkpt lat="47.39914" lon="3.85161">
        <ele>276</ele>
        <time>2014-04-18T13:29:43Z</time>
      </trkpt>
      <trkpt lat="47.39914" lon="3.85177">
        <ele>275</ele>
        <time>2014-04-18T13:29:50Z</time>
      </trkpt>
      <trkpt lat="47.39909" lon="3.85206">
        <ele>273</ele>
        <time>2014-04-18T13:30:04Z</time>
      </trkpt>
      <trkpt lat="47.3991" lon="3.85213">
        <ele>273</ele>
        <time>2014-04-18T13:30:09Z</time>
      </trkpt>
      <trkpt lat="47.39909" lon="3.85226">
        <ele>274</ele>
        <time>2014-04-18T13:30:19Z</time>
      </trkpt>
      <trkpt lat="47.39906" lon="3.85241">
        <ele>275</ele>
        <time>2014-04-18T13:30:57Z</time>
      </trkpt>
      <trkpt lat="47.39901" lon="3.85254">
        <ele>275</ele>
        <time>2014-04-18T13:31:06Z</time>
      </trkpt>
      <trkpt lat="47.39899" lon="3.85261">
        <ele>274</ele>
        <time>2014-04-18T13:31:10Z</time>
      </trkpt>
      <trkpt lat="47.39898" lon="3.85258">
        <ele>274</ele>
        <time>2014-04-18T13:31:22Z</time>
      </trkpt>
      <trkpt lat="47.39894" lon="3.85259">
        <ele>274</ele>
        <time>2014-04-18T13:31:39Z</time>
      </trkpt>
      <trkpt lat="47.39892" lon="3.85265">
        <ele>274</ele>
        <time>2014-04-18T13:31:43Z</time>
      </trkpt>
      <trkpt lat="47.39888" lon="3.8527">
        <ele>273</ele>
        <time>2014-04-18T13:31:47Z</time>
      </trkpt>
      <trkpt lat="47.39884" lon="3.85274">
        <ele>273</ele>
        <time>2014-04-18T13:31:51Z</time>
      </trkpt>
      <trkpt lat="47.39875" lon="3.85281">
        <ele>273</ele>
        <time>2014-04-18T13:31:59Z</time>
      </trkpt>
      <trkpt lat="47.39865" lon="3.85293">
        <ele>272</ele>
        <time>2014-04-18T13:32:05Z</time>
      </trkpt>
      <trkpt lat="47.39861" lon="3.85296">
        <ele>272</ele>
        <time>2014-04-18T13:32:10Z</time>
      </trkpt>
      <trkpt lat="47.39847" lon="3.85306">
        <ele>271</ele>
        <time>2014-04-18T13:32:25Z</time>
      </trkpt>
      <trkpt lat="47.39842" lon="3.85307">
        <ele>271</ele>
        <time>2014-04-18T13:32:29Z</time>
      </trkpt>
      <trkpt lat="47.39836" lon="3.85306">
        <ele>271</ele>
        <time>2014-04-18T13:32:34Z</time>
      </trkpt>
      <trkpt lat="47.39828" lon="3.85316">
        <ele>263</ele>
        <time>2014-04-18T13:32:43Z</time>
      </trkpt>
      <trkpt lat="47.3982" lon="3.85327">
        <ele>264</ele>
        <time>2014-04-18T13:32:51Z</time>
      </trkpt>
      <trkpt lat="47.39815" lon="3.85331">
        <ele>263</ele>
        <time>2014-04-18T13:32:55Z</time>
      </trkpt>
      <trkpt lat="47.3981" lon="3.85333">
        <ele>262</ele>
        <time>2014-04-18T13:32:59Z</time>
      </trkpt>
      <trkpt lat="47.39803" lon="3.85342">
        <ele>259</ele>
        <time>2014-04-18T13:33:07Z</time>
      </trkpt>
      <trkpt lat="47.39797" lon="3.85345">
        <ele>258</ele>
        <time>2014-04-18T13:33:11Z</time>
      </trkpt>
      <trkpt lat="47.39796" lon="3.85353">
        <ele>258</ele>
        <time>2014-04-18T13:33:15Z</time>
      </trkpt>
      <trkpt lat="47.39796" lon="3.8536">
        <ele>258</ele>
        <time>2014-04-18T13:33:19Z</time>
      </trkpt>
      <trkpt lat="47.3979" lon="3.85372">
        <ele>257</ele>
        <time>2014-04-18T13:33:27Z</time>
      </trkpt>
      <trkpt lat="47.39789" lon="3.85379">
        <ele>257</ele>
        <time>2014-04-18T13:33:33Z</time>
      </trkpt>
      <trkpt lat="47.39784" lon="3.85392">
        <ele>256</ele>
        <time>2014-04-18T13:33:41Z</time>
      </trkpt>
      <trkpt lat="47.39778" lon="3.85404">
        <ele>254</ele>
        <time>2014-04-18T13:33:49Z</time>
      </trkpt>
      <trkpt lat="47.39774" lon="3.8541">
        <ele>252</ele>
        <time>2014-04-18T13:33:52Z</time>
      </trkpt>
      <trkpt lat="47.39772" lon="3.85417">
        <ele>250</ele>
        <time>2014-04-18T13:33:56Z</time>
      </trkpt>
      <trkpt lat="47.39773" lon="3.85435">
        <ele>251</ele>
        <time>2014-04-18T13:34:17Z</time>
      </trkpt>
      <trkpt lat="47.3977" lon="3.85449">
        <ele>251</ele>
        <time>2014-04-18T13:34:25Z</time>
      </trkpt>
      <trkpt lat="47.3977" lon="3.85456">
        <ele>251</ele>
        <time>2014-04-18T13:34:30Z</time>
      </trkpt>
      <trkpt lat="47.3977" lon="3.85463">
        <ele>251</ele>
        <time>2014-04-18T13:34:34Z</time>
      </trkpt>
      <trkpt lat="47.39767" lon="3.85478">
        <ele>249</ele>
        <time>2014-04-18T13:34:42Z</time>
      </trkpt>
      <trkpt lat="47.39764" lon="3.85485">
        <ele>248</ele>
        <time>2014-04-18T13:34:46Z</time>
      </trkpt>
      <trkpt lat="47.39769" lon="3.85496">
        <ele>248</ele>
        <time>2014-04-18T13:35:03Z</time>
      </trkpt>
      <trkpt lat="47.39764" lon="3.85525">
        <ele>248</ele>
        <time>2014-04-18T13:35:18Z</time>
      </trkpt>
      <trkpt lat="47.39763" lon="3.85532">
        <ele>248</ele>
        <time>2014-04-18T13:35:22Z</time>
      </trkpt>
      <trkpt lat="47.39764" lon="3.8554">
        <ele>248</ele>
        <time>2014-04-18T13:35:27Z</time>
      </trkpt>
      <trkpt lat="47.39761" lon="3.85562">
        <ele>247</ele>
        <time>2014-04-18T13:35:38Z</time>
      </trkpt>
      <trkpt lat="47.39759" lon="3.85569">
        <ele>247</ele>
        <time>2014-04-18T13:35:41Z</time>
      </trkpt>
      <trkpt lat="47.39756" lon="3.85575">
        <ele>245</ele>
        <time>2014-04-18T13:35:45Z</time>
      </trkpt>
      <trkpt lat="47.39753" lon="3.85581">
        <ele>244</ele>
        <time>2014-04-18T13:35:50Z</time>
      </trkpt>
      <trkpt lat="47.39748" lon="3.85585">
        <ele>242</ele>
        <time>2014-04-18T13:35:58Z</time>
      </trkpt>
      <trkpt lat="47.39743" lon="3.85597">
        <ele>239</ele>
        <time>2014-04-18T13:36:09Z</time>
      </trkpt>
      <trkpt lat="47.39739" lon="3.85602">
        <ele>239</ele>
        <time>2014-04-18T13:36:13Z</time>
      </trkpt>
      <trkpt lat="47.39737" lon="3.85608">
        <ele>238</ele>
        <time>2014-04-18T13:36:19Z</time>
      </trkpt>
      <trkpt lat="47.39733" lon="3.85614">
        <ele>238</ele>
        <time>2014-04-18T13:36:24Z</time>
      </trkpt>
      <trkpt lat="47.39726" lon="3.8562">
        <ele>237</ele>
        <time>2014-04-18T13:36:42Z</time>
      </trkpt>
      <trkpt lat="47.3972" lon="3.85635">
        <ele>237</ele>
        <time>2014-04-18T13:36:52Z</time>
      </trkpt>
      <trkpt lat="47.39719" lon="3.85639">
        <ele>237</ele>
        <time>2014-04-18T13:37:00Z</time>
      </trkpt>
      <trkpt lat="47.39716" lon="3.85646">
        <ele>237</ele>
        <time>2014-04-18T13:37:10Z</time>
      </trkpt>
      <trkpt lat="47.39712" lon="3.85652">
        <ele>236</ele>
        <time>2014-04-18T13:37:13Z</time>
      </trkpt>
      <trkpt lat="47.39709" lon="3.85657">
        <ele>236</ele>
        <time>2014-04-18T13:37:17Z</time>
      </trkpt>
      <trkpt lat="47.39708" lon="3.85666">
        <ele>236</ele>
        <time>2014-04-18T13:37:21Z</time>
      </trkpt>
      <trkpt lat="47.39705" lon="3.85671">
        <ele>239</ele>
        <time>2014-04-18T13:37:27Z</time>
      </trkpt>
      <trkpt lat="47.39707" lon="3.85678">
        <ele>240</ele>
        <time>2014-04-18T13:37:35Z</time>
      </trkpt>
      <trkpt lat="47.39703" lon="3.85684">
        <ele>239</ele>
        <time>2014-04-18T13:37:40Z</time>
      </trkpt>
      <trkpt lat="47.39695" lon="3.8569">
        <ele>239</ele>
        <time>2014-04-18T13:37:48Z</time>
      </trkpt>
      <trkpt lat="47.39691" lon="3.85695">
        <ele>238</ele>
        <time>2014-04-18T13:37:53Z</time>
      </trkpt>
      <trkpt lat="47.39688" lon="3.857">
        <ele>238</ele>
        <time>2014-04-18T13:37:58Z</time>
      </trkpt>
      <trkpt lat="47.39681" lon="3.85705">
        <ele>238</ele>
        <time>2014-04-18T13:38:03Z</time>
      </trkpt>
      <trkpt lat="47.39676" lon="3.8571">
        <ele>238</ele>
        <time>2014-04-18T13:38:06Z</time>
      </trkpt>
      <trkpt lat="47.39672" lon="3.85715">
        <ele>238</ele>
        <time>2014-04-18T13:38:09Z</time>
      </trkpt>
      <trkpt lat="47.39667" lon="3.8572">
        <ele>238</ele>
        <time>2014-04-18T13:38:12Z</time>
      </trkpt>
      <trkpt lat="47.39664" lon="3.85725">
        <ele>229</ele>
        <time>2014-04-18T13:38:15Z</time>
      </trkpt>
      <trkpt lat="47.3966" lon="3.8573">
        <ele>230</ele>
        <time>2014-04-18T13:38:20Z</time>
      </trkpt>
      <trkpt lat="47.39656" lon="3.85739">
        <ele>230</ele>
        <time>2014-04-18T13:38:28Z</time>
      </trkpt>
      <trkpt lat="47.39653" lon="3.85745">
        <ele>230</ele>
        <time>2014-04-18T13:38:32Z</time>
      </trkpt>
      <trkpt lat="47.3965" lon="3.8575">
        <ele>230</ele>
        <time>2014-04-18T13:38:36Z</time>
      </trkpt>
      <trkpt lat="47.39653" lon="3.85763">
        <ele>230</ele>
        <time>2014-04-18T13:38:41Z</time>
      </trkpt>
      <trkpt lat="47.39649" lon="3.85767">
        <ele>229</ele>
        <time>2014-04-18T13:38:49Z</time>
      </trkpt>
      <trkpt lat="47.39644" lon="3.85766">
        <ele>229</ele>
        <time>2014-04-18T13:38:56Z</time>
      </trkpt>
      <trkpt lat="47.39639" lon="3.85769">
        <ele>228</ele>
        <time>2014-04-18T13:39:00Z</time>
      </trkpt>
      <trkpt lat="47.39634" lon="3.8578">
        <ele>227</ele>
        <time>2014-04-18T13:39:11Z</time>
      </trkpt>
      <trkpt lat="47.3963" lon="3.85786">
        <ele>227</ele>
        <time>2014-04-18T13:39:15Z</time>
      </trkpt>
      <trkpt lat="47.39626" lon="3.85786">
        <ele>226</ele>
        <time>2014-04-18T13:39:20Z</time>
      </trkpt>
      <trkpt lat="47.39623" lon="3.85781">
        <ele>226</ele>
        <time>2014-04-18T13:39:23Z</time>
      </trkpt>
      <trkpt lat="47.39621" lon="3.85767">
        <ele>226</ele>
        <time>2014-04-18T13:39:29Z</time>
      </trkpt>
      <trkpt lat="47.39624" lon="3.85745">
        <ele>226</ele>
        <time>2014-04-18T13:39:41Z</time>
      </trkpt>
      <trkpt lat="47.39629" lon="3.85743">
        <ele>226</ele>
        <time>2014-04-18T13:39:47Z</time>
      </trkpt>
      <trkpt lat="47.39629" lon="3.85736">
        <ele>226</ele>
        <time>2014-04-18T13:39:54Z</time>
      </trkpt>
      <trkpt lat="47.39625" lon="3.85727">
        <ele>226</ele>
        <time>2014-04-18T13:40:00Z</time>
      </trkpt>
      <trkpt lat="47.39624" lon="3.85675">
        <ele>225</ele>
        <time>2014-04-18T13:40:37Z</time>
      </trkpt>
      <trkpt lat="47.39623" lon="3.85668">
        <ele>225</ele>
        <time>2014-04-18T13:40:42Z</time>
      </trkpt>
      <trkpt lat="47.39622" lon="3.85654">
        <ele>224</ele>
        <time>2014-04-18T13:40:58Z</time>
      </trkpt>
      <trkpt lat="47.39619" lon="3.85656">
        <ele>224</ele>
        <time>2014-04-18T13:41:12Z</time>
      </trkpt>
      <trkpt lat="47.39612" lon="3.85653">
        <ele>224</ele>
        <time>2014-04-18T13:41:21Z</time>
      </trkpt>
      <trkpt lat="47.39606" lon="3.85654">
        <ele>224</ele>
        <time>2014-04-18T13:41:25Z</time>
      </trkpt>
      <trkpt lat="47.39601" lon="3.8565">
        <ele>224</ele>
        <time>2014-04-18T13:41:29Z</time>
      </trkpt>
      <trkpt lat="47.39598" lon="3.85646">
        <ele>224</ele>
        <time>2014-04-18T13:41:33Z</time>
      </trkpt>
      <trkpt lat="47.39597" lon="3.85641">
        <ele>224</ele>
        <time>2014-04-18T13:41:44Z</time>
      </trkpt>
      <trkpt lat="47.39594" lon="3.85636">
        <ele>224</ele>
        <time>2014-04-18T13:41:53Z</time>
      </trkpt>
      <trkpt lat="47.3959" lon="3.85631">
        <ele>224</ele>
        <time>2014-04-18T13:41:58Z</time>
      </trkpt>
      <trkpt lat="47.39585" lon="3.85629">
        <ele>224</ele>
        <time>2014-04-18T13:42:04Z</time>
      </trkpt>
      <trkpt lat="47.39583" lon="3.85615">
        <ele>230</ele>
        <time>2014-04-18T13:42:11Z</time>
      </trkpt>
      <trkpt lat="47.39577" lon="3.85602">
        <ele>230</ele>
        <time>2014-04-18T13:42:18Z</time>
      </trkpt>
      <trkpt lat="47.39574" lon="3.85596">
        <ele>230</ele>
        <time>2014-04-18T13:42:22Z</time>
      </trkpt>
      <trkpt lat="47.39574" lon="3.85589">
        <ele>229</ele>
        <time>2014-04-18T13:42:26Z</time>
      </trkpt>
      <trkpt lat="47.39576" lon="3.85583">
        <ele>228</ele>
        <time>2014-04-18T13:42:30Z</time>
      </trkpt>
      <trkpt lat="47.39575" lon="3.85569">
        <ele>229</ele>
        <time>2014-04-18T13:42:39Z</time>
      </trkpt>
      <trkpt lat="47.39577" lon="3.85554">
        <ele>229</ele>
        <time>2014-04-18T13:42:47Z</time>
      </trkpt>
      <trkpt lat="47.3958" lon="3.85542">
        <ele>229</ele>
        <time>2014-04-18T13:42:55Z</time>
      </trkpt>
      <trkpt lat="47.3958" lon="3.85535">
        <ele>229</ele>
        <time>2014-04-18T13:43:01Z</time>
      </trkpt>
      <trkpt lat="47.39582" lon="3.85528">
        <ele>229</ele>
        <time>2014-04-18T13:43:05Z</time>
      </trkpt>
      <trkpt lat="47.39586" lon="3.85523">
        <ele>224</ele>
        <time>2014-04-18T13:43:08Z</time>
      </trkpt>
      <trkpt lat="47.39597" lon="3.85477">
        <ele>221</ele>
        <time>2014-04-18T13:43:53Z</time>
      </trkpt>
      <trkpt lat="47.39597" lon="3.8547">
        <ele>220</ele>
        <time>2014-04-18T13:44:00Z</time>
      </trkpt>
      <trkpt lat="47.39594" lon="3.85464">
        <ele>220</ele>
        <time>2014-04-18T13:44:06Z</time>
      </trkpt>
      <trkpt lat="47.3959" lon="3.85461">
        <ele>220</ele>
        <time>2014-04-18T13:44:11Z</time>
      </trkpt>
      <trkpt lat="47.39587" lon="3.85455">
        <ele>219</ele>
        <time>2014-04-18T13:44:15Z</time>
      </trkpt>
      <trkpt lat="47.39582" lon="3.8545">
        <ele>222</ele>
        <time>2014-04-18T13:44:20Z</time>
      </trkpt>
      <trkpt lat="47.39577" lon="3.85449">
        <ele>221</ele>
        <time>2014-04-18T13:44:24Z</time>
      </trkpt>
      <trkpt lat="47.39573" lon="3.85446">
        <ele>221</ele>
        <time>2014-04-18T13:44:30Z</time>
      </trkpt>
      <trkpt lat="47.39566" lon="3.85447">
        <ele>221</ele>
        <time>2014-04-18T13:44:41Z</time>
      </trkpt>
      <trkpt lat="47.39563" lon="3.85452">
        <ele>222</ele>
        <time>2014-04-18T13:45:08Z</time>
      </trkpt>
      <trkpt lat="47.39539" lon="3.85483">
        <ele>223</ele>
        <time>2014-04-18T13:45:33Z</time>
      </trkpt>
      <trkpt lat="47.39535" lon="3.85489">
        <ele>224</ele>
        <time>2014-04-18T13:45:38Z</time>
      </trkpt>
      <trkpt lat="47.3953" lon="3.85503">
        <ele>229</ele>
        <time>2014-04-18T13:45:47Z</time>
      </trkpt>
      <trkpt lat="47.39514" lon="3.85534">
        <ele>231</ele>
        <time>2014-04-18T13:46:20Z</time>
      </trkpt>
      <trkpt lat="47.39513" lon="3.85542">
        <ele>231</ele>
        <time>2014-04-18T13:46:26Z</time>
      </trkpt>
      <trkpt lat="47.3951" lon="3.85548">
        <ele>232</ele>
        <time>2014-04-18T13:46:33Z</time>
      </trkpt>
      <trkpt lat="47.39509" lon="3.85555">
        <ele>233</ele>
        <time>2014-04-18T13:46:38Z</time>
      </trkpt>
      <trkpt lat="47.3951" lon="3.85563">
        <ele>234</ele>
        <time>2014-04-18T13:46:44Z</time>
      </trkpt>
      <trkpt lat="47.39505" lon="3.85567">
        <ele>235</ele>
        <time>2014-04-18T13:46:50Z</time>
      </trkpt>
      <trkpt lat="47.39506" lon="3.85574">
        <ele>236</ele>
        <time>2014-04-18T13:46:56Z</time>
      </trkpt>
      <trkpt lat="47.39504" lon="3.8558">
        <ele>238</ele>
        <time>2014-04-18T13:47:03Z</time>
      </trkpt>
      <trkpt lat="47.39497" lon="3.85601">
        <ele>240</ele>
        <time>2014-04-18T13:47:30Z</time>
      </trkpt>
      <trkpt lat="47.39495" lon="3.85608">
        <ele>240</ele>
        <time>2014-04-18T13:47:34Z</time>
      </trkpt>
      <trkpt lat="47.39491" lon="3.85612">
        <ele>240</ele>
        <time>2014-04-18T13:47:39Z</time>
      </trkpt>
      <trkpt lat="47.39489" lon="3.85619">
        <ele>241</ele>
        <time>2014-04-18T13:47:45Z</time>
      </trkpt>
      <trkpt lat="47.39489" lon="3.85626">
        <ele>241</ele>
        <time>2014-04-18T13:47:55Z</time>
      </trkpt>
      <trkpt lat="47.39488" lon="3.85633">
        <ele>241</ele>
        <time>2014-04-18T13:48:00Z</time>
      </trkpt>
      <trkpt lat="47.39485" lon="3.85641">
        <ele>242</ele>
        <time>2014-04-18T13:48:04Z</time>
      </trkpt>
      <trkpt lat="47.39482" lon="3.85656">
        <ele>243</ele>
        <time>2014-04-18T13:48:12Z</time>
      </trkpt>
      <trkpt lat="47.39478" lon="3.85655">
        <ele>243</ele>
        <time>2014-04-18T13:48:44Z</time>
      </trkpt>
      <trkpt lat="47.39473" lon="3.85658">
        <ele>243</ele>
        <time>2014-04-18T13:48:50Z</time>
      </trkpt>
      <trkpt lat="47.39468" lon="3.8567">
        <ele>249</ele>
        <time>2014-04-18T13:48:56Z</time>
      </trkpt>
      <trkpt lat="47.39464" lon="3.85675">
        <ele>249</ele>
        <time>2014-04-18T13:49:00Z</time>
      </trkpt>
      <trkpt lat="47.39462" lon="3.85681">
        <ele>249</ele>
        <time>2014-04-18T13:49:05Z</time>
      </trkpt>
      <trkpt lat="47.39463" lon="3.85688">
        <ele>250</ele>
        <time>2014-04-18T13:49:11Z</time>
      </trkpt>
      <trkpt lat="47.39465" lon="3.85695">
        <ele>250</ele>
        <time>2014-04-18T13:49:17Z</time>
      </trkpt>
      <trkpt lat="47.3946" lon="3.85707">
        <ele>251</ele>
        <time>2014-04-18T13:49:30Z</time>
      </trkpt>
      <trkpt lat="47.39457" lon="3.85711">
        <ele>251</ele>
        <time>2014-04-18T13:49:35Z</time>
      </trkpt>
      <trkpt lat="47.39454" lon="3.85717">
        <ele>252</ele>
        <time>2014-04-18T13:49:41Z</time>
      </trkpt>
      <trkpt lat="47.39453" lon="3.85722">
        <ele>252</ele>
        <time>2014-04-18T13:49:48Z</time>
      </trkpt>
      <trkpt lat="47.39448" lon="3.85722">
        <ele>253</ele>
        <time>2014-04-18T13:50:01Z</time>
      </trkpt>
      <trkpt lat="47.39445" lon="3.85717">
        <ele>253</ele>
        <time>2014-04-18T13:50:08Z</time>
      </trkpt>
      <trkpt lat="47.39441" lon="3.85713">
        <ele>253</ele>
        <time>2014-04-18T13:50:15Z</time>
      </trkpt>
      <trkpt lat="47.3943" lon="3.85717">
        <ele>254</ele>
        <time>2014-04-18T13:50:26Z</time>
      </trkpt>
      <trkpt lat="47.39425" lon="3.85718">
        <ele>254</ele>
        <time>2014-04-18T13:50:31Z</time>
      </trkpt>
      <trkpt lat="47.3942" lon="3.85718">
        <ele>255</ele>
        <time>2014-04-18T13:50:35Z</time>
      </trkpt>
      <trkpt lat="47.39415" lon="3.85718">
        <ele>260</ele>
        <time>2014-04-18T13:50:39Z</time>
      </trkpt>
      <trkpt lat="47.39411" lon="3.8572">
        <ele>260</ele>
        <time>2014-04-18T13:50:44Z</time>
      </trkpt>
      <trkpt lat="47.39407" lon="3.85713">
        <ele>259</ele>
        <time>2014-04-18T13:50:58Z</time>
      </trkpt>
      <trkpt lat="47.39402" lon="3.85713">
        <ele>259</ele>
        <time>2014-04-18T13:51:05Z</time>
      </trkpt>
      <trkpt lat="47.39397" lon="3.85722">
        <ele>260</ele>
        <time>2014-04-18T13:51:19Z</time>
      </trkpt>
      <trkpt lat="47.39393" lon="3.85726">
        <ele>260</ele>
        <time>2014-04-18T13:51:23Z</time>
      </trkpt>
      <trkpt lat="47.39392" lon="3.85734">
        <ele>261</ele>
        <time>2014-04-18T13:51:31Z</time>
      </trkpt>
      <trkpt lat="47.39389" lon="3.85739">
        <ele>261</ele>
        <time>2014-04-18T13:51:36Z</time>
      </trkpt>
      <trkpt lat="47.39386" lon="3.85741">
        <ele>262</ele>
        <time>2014-04-18T13:51:42Z</time>
      </trkpt>
      <trkpt lat="47.39382" lon="3.85745">
        <ele>262</ele>
        <time>2014-04-18T13:51:48Z</time>
      </trkpt>
      <trkpt lat="47.39377" lon="3.85748">
        <ele>262</ele>
        <time>2014-04-18T13:51:53Z</time>
      </trkpt>
      <trkpt lat="47.39372" lon="3.8575">
        <ele>262</ele>
        <time>2014-04-18T13:51:57Z</time>
      </trkpt>
      <trkpt lat="47.39367" lon="3.85754">
        <ele>268</ele>
        <time>2014-04-18T13:52:02Z</time>
      </trkpt>
      <trkpt lat="47.39363" lon="3.85758">
        <ele>269</ele>
        <time>2014-04-18T13:52:07Z</time>
      </trkpt>
      <trkpt lat="47.39356" lon="3.85767">
        <ele>269</ele>
        <time>2014-04-18T13:52:16Z</time>
      </trkpt>
      <trkpt lat="47.39351" lon="3.85767">
        <ele>269</ele>
        <time>2014-04-18T13:52:21Z</time>
      </trkpt>
      <trkpt lat="47.39349" lon="3.85775">
        <ele>269</ele>
        <time>2014-04-18T13:52:31Z</time>
      </trkpt>
      <trkpt lat="47.39348" lon="3.85777">
        <ele>269</ele>
        <time>2014-04-18T13:53:12Z</time>
      </trkpt>
      <trkpt lat="47.39343" lon="3.85771">
        <ele>269</ele>
        <time>2014-04-18T13:53:27Z</time>
      </trkpt>
      <trkpt lat="47.39345" lon="3.85776">
        <ele>269</ele>
        <time>2014-04-18T13:53:54Z</time>
      </trkpt>
      <trkpt lat="47.3935" lon="3.85776">
        <ele>269</ele>
        <time>2014-04-18T13:53:56Z</time>
      </trkpt>
      <trkpt lat="47.39351" lon="3.85782">
        <ele>269</ele>
        <time>2014-04-18T13:54:57Z</time>
      </trkpt>
      <trkpt lat="47.39355" lon="3.85788">
        <ele>269</ele>
        <time>2014-04-18T13:55:03Z</time>
      </trkpt>
      <trkpt lat="47.39351" lon="3.85791">
        <ele>269</ele>
        <time>2014-04-18T13:55:16Z</time>
      </trkpt>
      <trkpt lat="47.39347" lon="3.85789">
        <ele>269</ele>
        <time>2014-04-18T13:55:22Z</time>
      </trkpt>
      <trkpt lat="47.39347" lon="3.85795">
        <ele>269</ele>
        <time>2014-04-18T13:55:32Z</time>
      </trkpt>
      <trkpt lat="47.39349" lon="3.85796">
        <ele>269</ele>
        <time>2014-04-18T13:55:39Z</time>
      </trkpt>
      <trkpt lat="47.39353" lon="3.85792">
        <ele>269</ele>
        <time>2014-04-18T13:56:36Z</time>
      </trkpt>
      <trkpt lat="47.39352" lon="3.85786">
        <ele>269</ele>
        <time>2014-04-18T13:56:49Z</time>
      </trkpt>
      <trkpt lat="47.39357" lon="3.85785">
        <ele>268</ele>
        <time>2014-04-18T13:56:52Z</time>
      </trkpt>
      <trkpt lat="47.39356" lon="3.85782">
        <ele>269</ele>
        <time>2014-04-18T13:57:18Z</time>
      </trkpt>
      <trkpt lat="47.39354" lon="3.85785">
        <ele>269</ele>
        <time>2014-04-18T13:59:57Z</time>
      </trkpt>
      <trkpt lat="47.39347" lon="3.85783">
        <ele>269</ele>
        <time>2014-04-18T14:00:10Z</time>
      </trkpt>
      <trkpt lat="47.39349" lon="3.85786">
        <ele>269</ele>
        <time>2014-04-18T14:00:51Z</time>
      </trkpt>
      <trkpt lat="47.39355" lon="3.85783">
        <ele>269</ele>
        <time>2014-04-18T14:02:02Z</time>
      </trkpt>
      <trkpt lat="47.39352" lon="3.8578">
        <ele>269</ele>
        <time>2014-04-18T14:03:30Z</time>
      </trkpt>
      <trkpt lat="47.3935" lon="3.85776">
        <ele>269</ele>
        <time>2014-04-18T14:14:13Z</time>
      </trkpt>
      <trkpt lat="47.3937" lon="3.85776">
        <ele>268</ele>
        <time>2014-04-18T14:15:41Z</time>
      </trkpt>
      <trkpt lat="47.39365" lon="3.85774">
        <ele>268</ele>
        <time>2014-04-18T14:15:57Z</time>
      </trkpt>
      <trkpt lat="47.39355" lon="3.85773">
        <ele>269</ele>
        <time>2014-04-18T14:16:37Z</time>
      </trkpt>
      <trkpt lat="47.39352" lon="3.85772">
        <ele>269</ele>
        <time>2014-04-18T14:16:43Z</time>
      </trkpt>
      <trkpt lat="47.39347" lon="3.85768">
        <ele>269</ele>
        <time>2014-04-18T14:16:47Z</time>
      </trkpt>
      <trkpt lat="47.39342" lon="3.85767">
        <ele>269</ele>
        <time>2014-04-18T14:16:50Z</time>
      </trkpt>
      <trkpt lat="47.39344" lon="3.85775">
        <ele>269</ele>
        <time>2014-04-18T14:17:09Z</time>
      </trkpt>
      <trkpt lat="47.39342" lon="3.85782">
        <ele>269</ele>
        <time>2014-04-18T14:17:21Z</time>
      </trkpt>
      <trkpt lat="47.39339" lon="3.85788">
        <ele>269</ele>
        <time>2014-04-18T14:17:26Z</time>
      </trkpt>
      <trkpt lat="47.39335" lon="3.85792">
        <ele>269</ele>
        <time>2014-04-18T14:17:33Z</time>
      </trkpt>
      <trkpt lat="47.39329" lon="3.85792">
        <ele>270</ele>
        <time>2014-04-18T14:17:38Z</time>
      </trkpt>
      <trkpt lat="47.39324" lon="3.85793">
        <ele>270</ele>
        <time>2014-04-18T14:17:44Z</time>
      </trkpt>
      <trkpt lat="47.39315" lon="3.85797">
        <ele>270</ele>
        <time>2014-04-18T14:17:54Z</time>
      </trkpt>
      <trkpt lat="47.39305" lon="3.85816">
        <ele>269</ele>
        <time>2014-04-18T14:18:08Z</time>
      </trkpt>
      <trkpt lat="47.39301" lon="3.8582">
        <ele>269</ele>
        <time>2014-04-18T14:18:18Z</time>
      </trkpt>
      <trkpt lat="47.39296" lon="3.85819">
        <ele>269</ele>
        <time>2014-04-18T14:18:22Z</time>
      </trkpt>
      <trkpt lat="47.3929" lon="3.8582">
        <ele>268</ele>
        <time>2014-04-18T14:18:27Z</time>
      </trkpt>
      <trkpt lat="47.39286" lon="3.85818">
        <ele>268</ele>
        <time>2014-04-18T14:18:30Z</time>
      </trkpt>
      <trkpt lat="47.39281" lon="3.85812">
        <ele>268</ele>
        <time>2014-04-18T14:18:33Z</time>
      </trkpt>
      <trkpt lat="47.39279" lon="3.85805">
        <ele>268</ele>
        <time>2014-04-18T14:18:37Z</time>
      </trkpt>
      <trkpt lat="47.39276" lon="3.858">
        <ele>269</ele>
        <time>2014-04-18T14:18:41Z</time>
      </trkpt>
      <trkpt lat="47.39272" lon="3.85795">
        <ele>269</ele>
        <time>2014-04-18T14:18:46Z</time>
      </trkpt>
      <trkpt lat="47.39267" lon="3.85791">
        <ele>269</ele>
        <time>2014-04-18T14:18:51Z</time>
      </trkpt>
      <trkpt lat="47.39262" lon="3.85791">
        <ele>269</ele>
        <time>2014-04-18T14:18:57Z</time>
      </trkpt>
      <trkpt lat="47.3926" lon="3.85793">
        <ele>269</ele>
        <time>2014-04-18T14:19:13Z</time>
      </trkpt>
      <trkpt lat="47.39255" lon="3.85792">
        <ele>269</ele>
        <time>2014-04-18T14:19:17Z</time>
      </trkpt>
      <trkpt lat="47.3925" lon="3.85792">
        <ele>268</ele>
        <time>2014-04-18T14:19:21Z</time>
      </trkpt>
      <trkpt lat="47.39245" lon="3.85794">
        <ele>268</ele>
        <time>2014-04-18T14:19:25Z</time>
      </trkpt>
      <trkpt lat="47.3924" lon="3.85796">
        <ele>268</ele>
        <time>2014-04-18T14:19:29Z</time>
      </trkpt>
      <trkpt lat="47.39236" lon="3.85799">
        <ele>268</ele>
        <time>2014-04-18T14:19:32Z</time>
      </trkpt>
      <trkpt lat="47.39226" lon="3.85802">
        <ele>268</ele>
        <time>2014-04-18T14:19:38Z</time>
      </trkpt>
      <trkpt lat="47.39221" lon="3.85801">
        <ele>268</ele>
        <time>2014-04-18T14:19:41Z</time>
      </trkpt>
      <trkpt lat="47.39211" lon="3.85797">
        <ele>268</ele>
        <time>2014-04-18T14:19:50Z</time>
      </trkpt>
      <trkpt lat="47.39206" lon="3.85794">
        <ele>269</ele>
        <time>2014-04-18T14:19:54Z</time>
      </trkpt>
      <trkpt lat="47.39202" lon="3.85791">
        <ele>269</ele>
        <time>2014-04-18T14:19:59Z</time>
      </trkpt>
      <trkpt lat="47.39197" lon="3.85786">
        <ele>269</ele>
        <time>2014-04-18T14:20:04Z</time>
      </trkpt>
      <trkpt lat="47.39193" lon="3.85783">
        <ele>270</ele>
        <time>2014-04-18T14:20:09Z</time>
      </trkpt>
      <trkpt lat="47.39188" lon="3.85781">
        <ele>270</ele>
        <time>2014-04-18T14:20:13Z</time>
      </trkpt>
      <trkpt lat="47.39184" lon="3.85776">
        <ele>271</ele>
        <time>2014-04-18T14:20:17Z</time>
      </trkpt>
      <trkpt lat="47.39178" lon="3.85775">
        <ele>271</ele>
        <time>2014-04-18T14:20:22Z</time>
      </trkpt>
      <trkpt lat="47.3917" lon="3.85781">
        <ele>271</ele>
        <time>2014-04-18T14:20:30Z</time>
      </trkpt>
      <trkpt lat="47.39165" lon="3.85782">
        <ele>275</ele>
        <time>2014-04-18T14:20:36Z</time>
      </trkpt>
      <trkpt lat="47.39162" lon="3.85788">
        <ele>275</ele>
        <time>2014-04-18T14:20:43Z</time>
      </trkpt>
      <trkpt lat="47.39158" lon="3.85812">
        <ele>271</ele>
        <time>2014-04-18T14:20:52Z</time>
      </trkpt>
      <trkpt lat="47.39156" lon="3.85819">
        <ele>269</ele>
        <time>2014-04-18T14:20:55Z</time>
      </trkpt>
      <trkpt lat="47.39155" lon="3.85827">
        <ele>268</ele>
        <time>2014-04-18T14:21:00Z</time>
      </trkpt>
      <trkpt lat="47.39153" lon="3.85835">
        <ele>262</ele>
        <time>2014-04-18T14:21:04Z</time>
      </trkpt>
      <trkpt lat="47.39144" lon="3.8586">
        <ele>261</ele>
        <time>2014-04-18T14:21:20Z</time>
      </trkpt>
      <trkpt lat="47.39143" lon="3.85873">
        <ele>260</ele>
        <time>2014-04-18T14:21:29Z</time>
      </trkpt>
      <trkpt lat="47.39142" lon="3.8588">
        <ele>259</ele>
        <time>2014-04-18T14:21:33Z</time>
      </trkpt>
      <trkpt lat="47.39139" lon="3.85887">
        <ele>258</ele>
        <time>2014-04-18T14:21:37Z</time>
      </trkpt>
      <trkpt lat="47.39136" lon="3.85895">
        <ele>258</ele>
        <time>2014-04-18T14:21:41Z</time>
      </trkpt>
      <trkpt lat="47.39126" lon="3.85902">
        <ele>259</ele>
        <time>2014-04-18T14:21:54Z</time>
      </trkpt>
      <trkpt lat="47.39123" lon="3.85908">
        <ele>259</ele>
        <time>2014-04-18T14:21:59Z</time>
      </trkpt>
      <trkpt lat="47.39119" lon="3.85913">
        <ele>260</ele>
        <time>2014-04-18T14:22:03Z</time>
      </trkpt>
      <trkpt lat="47.39108" lon="3.85921">
        <ele>255</ele>
        <time>2014-04-18T14:22:11Z</time>
      </trkpt>
      <trkpt lat="47.39101" lon="3.85933">
        <ele>255</ele>
        <time>2014-04-18T14:22:21Z</time>
      </trkpt>
      <trkpt lat="47.39082" lon="3.85959">
        <ele>260</ele>
        <time>2014-04-18T14:22:39Z</time>
      </trkpt>
      <trkpt lat="47.3908" lon="3.85966">
        <ele>259</ele>
        <time>2014-04-18T14:22:44Z</time>
      </trkpt>
      <trkpt lat="47.39079" lon="3.85973">
        <ele>258</ele>
        <time>2014-04-18T14:22:47Z</time>
      </trkpt>
      <trkpt lat="47.39077" lon="3.85979">
        <ele>257</ele>
        <time>2014-04-18T14:22:50Z</time>
      </trkpt>
      <trkpt lat="47.39071" lon="3.86029">
        <ele>250</ele>
        <time>2014-04-18T14:23:30Z</time>
      </trkpt>
      <trkpt lat="47.39062" lon="3.86038">
        <ele>250</ele>
        <time>2014-04-18T14:23:37Z</time>
      </trkpt>
      <trkpt lat="47.39057" lon="3.86041">
        <ele>250</ele>
        <time>2014-04-18T14:23:41Z</time>
      </trkpt>
      <trkpt lat="47.39048" lon="3.8605">
        <ele>250</ele>
        <time>2014-04-18T14:23:52Z</time>
      </trkpt>
      <trkpt lat="47.39044" lon="3.86052">
        <ele>249</ele>
        <time>2014-04-18T14:23:55Z</time>
      </trkpt>
      <trkpt lat="47.3904" lon="3.86055">
        <ele>249</ele>
        <time>2014-04-18T14:24:00Z</time>
      </trkpt>
      <trkpt lat="47.39033" lon="3.86054">
        <ele>249</ele>
        <time>2014-04-18T14:24:10Z</time>
      </trkpt>
      <trkpt lat="47.39024" lon="3.8605">
        <ele>250</ele>
        <time>2014-04-18T14:24:19Z</time>
      </trkpt>
      <trkpt lat="47.39018" lon="3.86048">
        <ele>250</ele>
        <time>2014-04-18T14:24:23Z</time>
      </trkpt>
      <trkpt lat="47.39013" lon="3.86051">
        <ele>249</ele>
        <time>2014-04-18T14:24:26Z</time>
      </trkpt>
      <trkpt lat="47.39008" lon="3.86052">
        <ele>249</ele>
        <time>2014-04-18T14:24:30Z</time>
      </trkpt>
      <trkpt lat="47.39003" lon="3.86052">
        <ele>249</ele>
        <time>2014-04-18T14:24:34Z</time>
      </trkpt>
      <trkpt lat="47.38988" lon="3.86063">
        <ele>251</ele>
        <time>2014-04-18T14:24:54Z</time>
      </trkpt>
      <trkpt lat="47.38982" lon="3.86062">
        <ele>251</ele>
        <time>2014-04-18T14:24:58Z</time>
      </trkpt>
      <trkpt lat="47.38977" lon="3.8606">
        <ele>252</ele>
        <time>2014-04-18T14:25:02Z</time>
      </trkpt>
      <trkpt lat="47.38972" lon="3.86057">
        <ele>252</ele>
        <time>2014-04-18T14:25:06Z</time>
      </trkpt>
      <trkpt lat="47.38968" lon="3.86054">
        <ele>253</ele>
        <time>2014-04-18T14:25:10Z</time>
      </trkpt>
      <trkpt lat="47.38965" lon="3.8606">
        <ele>253</ele>
        <time>2014-04-18T14:25:15Z</time>
      </trkpt>
      <trkpt lat="47.3897" lon="3.86069">
        <ele>252</ele>
        <time>2014-04-18T14:25:36Z</time>
      </trkpt>
      <trkpt lat="47.38967" lon="3.86074">
        <ele>252</ele>
        <time>2014-04-18T14:25:42Z</time>
      </trkpt>
      <trkpt lat="47.38969" lon="3.86083">
        <ele>252</ele>
        <time>2014-04-18T14:25:57Z</time>
      </trkpt>
      <trkpt lat="47.38961" lon="3.86093">
        <ele>257</ele>
        <time>2014-04-18T14:26:08Z</time>
      </trkpt>
      <trkpt lat="47.38953" lon="3.86098">
        <ele>258</ele>
        <time>2014-04-18T14:26:13Z</time>
      </trkpt>
      <trkpt lat="47.38945" lon="3.86107">
        <ele>258</ele>
        <time>2014-04-18T14:26:20Z</time>
      </trkpt>
      <trkpt lat="47.38936" lon="3.86109">
        <ele>259</ele>
        <time>2014-04-18T14:26:30Z</time>
      </trkpt>
      <trkpt lat="47.38929" lon="3.86121">
        <ele>260</ele>
        <time>2014-04-18T14:26:53Z</time>
      </trkpt>
      <trkpt lat="47.38928" lon="3.86128">
        <ele>261</ele>
        <time>2014-04-18T14:26:59Z</time>
      </trkpt>
      <trkpt lat="47.38927" lon="3.86131">
        <ele>261</ele>
        <time>2014-04-18T14:27:11Z</time>
      </trkpt>
      <trkpt lat="47.38925" lon="3.86143">
        <ele>263</ele>
        <time>2014-04-18T14:27:45Z</time>
      </trkpt>
      <trkpt lat="47.3892" lon="3.86144">
        <ele>263</ele>
        <time>2014-04-18T14:27:53Z</time>
      </trkpt>
      <trkpt lat="47.38922" lon="3.86151">
        <ele>264</ele>
        <time>2014-04-18T14:27:57Z</time>
      </trkpt>
      <trkpt lat="47.38927" lon="3.86153">
        <ele>264</ele>
        <time>2014-04-18T14:28:02Z</time>
      </trkpt>
      <trkpt lat="47.38926" lon="3.86163">
        <ele>266</ele>
        <time>2014-04-18T14:28:23Z</time>
      </trkpt>
      <trkpt lat="47.38921" lon="3.86165">
        <ele>267</ele>
        <time>2014-04-18T14:28:30Z</time>
      </trkpt>
      <trkpt lat="47.38924" lon="3.86163">
        <ele>266</ele>
        <time>2014-04-18T14:28:43Z</time>
      </trkpt>
      <trkpt lat="47.38925" lon="3.86161">
        <ele>266</ele>
        <time>2014-04-18T14:28:50Z</time>
      </trkpt>
      <trkpt lat="47.38928" lon="3.86167">
        <ele>271</ele>
        <time>2014-04-18T14:28:56Z</time>
      </trkpt>
      <trkpt lat="47.38931" lon="3.86173">
        <ele>271</ele>
        <time>2014-04-18T14:29:02Z</time>
      </trkpt>
      <trkpt lat="47.38936" lon="3.86174">
        <ele>271</ele>
        <time>2014-04-18T14:29:07Z</time>
      </trkpt>
      <trkpt lat="47.38939" lon="3.8617">
        <ele>271</ele>
        <time>2014-04-18T14:29:17Z</time>
      </trkpt>
      <trkpt lat="47.38943" lon="3.86174">
        <ele>272</ele>
        <time>2014-04-18T14:29:25Z</time>
      </trkpt>
      <trkpt lat="47.38949" lon="3.86179">
        <ele>272</ele>
        <time>2014-04-18T14:29:36Z</time>
      </trkpt>
      <trkpt lat="47.38952" lon="3.86179">
        <ele>272</ele>
        <time>2014-04-18T14:29:43Z</time>
      </trkpt>
      <trkpt lat="47.38967" lon="3.86195">
        <ele>272</ele>
        <time>2014-04-18T14:30:11Z</time>
      </trkpt>
      <trkpt lat="47.38971" lon="3.862">
        <ele>273</ele>
        <time>2014-04-18T14:30:15Z</time>
      </trkpt>
      <trkpt lat="47.38977" lon="3.86211">
        <ele>274</ele>
        <time>2014-04-18T14:31:14Z</time>
      </trkpt>
      <trkpt lat="47.3898" lon="3.86217">
        <ele>274</ele>
        <time>2014-04-18T14:31:17Z</time>
      </trkpt>
      <trkpt lat="47.38983" lon="3.86222">
        <ele>275</ele>
        <time>2014-04-18T14:31:22Z</time>
      </trkpt>
      <trkpt lat="47.38986" lon="3.86229">
        <ele>275</ele>
        <time>2014-04-18T14:31:29Z</time>
      </trkpt>
      <trkpt lat="47.38987" lon="3.86235">
        <ele>276</ele>
        <time>2014-04-18T14:31:34Z</time>
      </trkpt>
      <trkpt lat="47.38988" lon="3.86243">
        <ele>277</ele>
        <time>2014-04-18T14:31:39Z</time>
      </trkpt>
      <trkpt lat="47.38993" lon="3.86255">
        <ele>282</ele>
        <time>2014-04-18T14:31:50Z</time>
      </trkpt>
      <trkpt lat="47.38993" lon="3.86262">
        <ele>283</ele>
        <time>2014-04-18T14:31:58Z</time>
      </trkpt>
      <trkpt lat="47.38994" lon="3.8627">
        <ele>285</ele>
        <time>2014-04-18T14:32:04Z</time>
      </trkpt>
      <trkpt lat="47.38996" lon="3.86277">
        <ele>286</ele>
        <time>2014-04-18T14:32:08Z</time>
      </trkpt>
      <trkpt lat="47.38996" lon="3.86291">
        <ele>287</ele>
        <time>2014-04-18T14:32:17Z</time>
      </trkpt>
      <trkpt lat="47.38994" lon="3.86297">
        <ele>288</ele>
        <time>2014-04-18T14:32:27Z</time>
      </trkpt>
      <trkpt lat="47.39" lon="3.86298">
        <ele>288</ele>
        <time>2014-04-18T14:32:39Z</time>
      </trkpt>
      <trkpt lat="47.39004" lon="3.86298">
        <ele>288</ele>
        <time>2014-04-18T14:32:56Z</time>
      </trkpt>
      <trkpt lat="47.39003" lon="3.86305">
        <ele>289</ele>
        <time>2014-04-18T14:33:03Z</time>
      </trkpt>
      <trkpt lat="47.39" lon="3.86309">
        <ele>289</ele>
        <time>2014-04-18T14:33:11Z</time>
      </trkpt>
      <trkpt lat="47.38999" lon="3.86316">
        <ele>290</ele>
        <time>2014-04-18T14:33:20Z</time>
      </trkpt>
      <trkpt lat="47.39002" lon="3.8632">
        <ele>290</ele>
        <time>2014-04-18T14:33:29Z</time>
      </trkpt>
      <trkpt lat="47.39002" lon="3.8633">
        <ele>291</ele>
        <time>2014-04-18T14:33:40Z</time>
      </trkpt>
      <trkpt lat="47.39006" lon="3.86335">
        <ele>294</ele>
        <time>2014-04-18T14:33:45Z</time>
      </trkpt>
      <trkpt lat="47.39005" lon="3.8635">
        <ele>295</ele>
        <time>2014-04-18T14:33:55Z</time>
      </trkpt>
      <trkpt lat="47.39006" lon="3.86357">
        <ele>296</ele>
        <time>2014-04-18T14:34:00Z</time>
      </trkpt>
      <trkpt lat="47.39015" lon="3.86361">
        <ele>297</ele>
        <time>2014-04-18T14:34:11Z</time>
      </trkpt>
      <trkpt lat="47.39016" lon="3.86362">
        <ele>297</ele>
        <time>2014-04-18T14:34:28Z</time>
      </trkpt>
      <trkpt lat="47.39019" lon="3.86367">
        <ele>298</ele>
        <time>2014-04-18T14:34:42Z</time>
      </trkpt>
      <trkpt lat="47.39015" lon="3.86374">
        <ele>298</ele>
        <time>2014-04-18T14:34:47Z</time>
      </trkpt>
      <trkpt lat="47.3901" lon="3.86378">
        <ele>298</ele>
        <time>2014-04-18T14:34:51Z</time>
      </trkpt>
      <trkpt lat="47.39012" lon="3.86384">
        <ele>299</ele>
        <time>2014-04-18T14:34:56Z</time>
      </trkpt>
      <trkpt lat="47.39015" lon="3.8639">
        <ele>299</ele>
        <time>2014-04-18T14:35:02Z</time>
      </trkpt>
      <trkpt lat="47.39018" lon="3.86394">
        <ele>299</ele>
        <time>2014-04-18T14:35:12Z</time>
      </trkpt>
      <trkpt lat="47.39023" lon="3.86393">
        <ele>299</ele>
        <time>2014-04-18T14:35:13Z</time>
      </trkpt>
      <trkpt lat="47.39028" lon="3.86406">
        <ele>300</ele>
        <time>2014-04-18T14:35:37Z</time>
      </trkpt>
      <trkpt lat="47.39032" lon="3.86411">
        <ele>300</ele>
        <time>2014-04-18T14:35:43Z</time>
      </trkpt>
      <trkpt lat="47.39034" lon="3.86417">
        <ele>300</ele>
        <time>2014-04-18T14:35:51Z</time>
      </trkpt>
      <trkpt lat="47.39037" lon="3.86421">
        <ele>306</ele>
        <time>2014-04-18T14:35:58Z</time>
      </trkpt>
      <trkpt lat="47.3904" lon="3.86431">
        <ele>306</ele>
        <time>2014-04-18T14:36:11Z</time>
      </trkpt>
      <trkpt lat="47.39043" lon="3.86436">
        <ele>306</ele>
        <time>2014-04-18T14:36:17Z</time>
      </trkpt>
      <trkpt lat="47.39045" lon="3.86438">
        <ele>306</ele>
        <time>2014-04-18T14:36:23Z</time>
      </trkpt>
      <trkpt lat="47.39048" lon="3.86442">
        <ele>307</ele>
        <time>2014-04-18T14:36:42Z</time>
      </trkpt>
      <trkpt lat="47.3905" lon="3.86449">
        <ele>307</ele>
        <time>2014-04-18T14:36:48Z</time>
      </trkpt>
      <trkpt lat="47.39054" lon="3.86452">
        <ele>307</ele>
        <time>2014-04-18T14:36:52Z</time>
      </trkpt>
      <trkpt lat="47.39057" lon="3.86456">
        <ele>307</ele>
        <time>2014-04-18T14:37:00Z</time>
      </trkpt>
      <trkpt lat="47.39066" lon="3.86479">
        <ele>309</ele>
        <time>2014-04-18T14:37:30Z</time>
      </trkpt>
      <trkpt lat="47.39073" lon="3.86489">
        <ele>310</ele>
        <time>2014-04-18T14:37:35Z</time>
      </trkpt>
      <trkpt lat="47.39075" lon="3.86496">
        <ele>311</ele>
        <time>2014-04-18T14:37:41Z</time>
      </trkpt>
      <trkpt lat="47.39076" lon="3.86502">
        <ele>313</ele>
        <time>2014-04-18T14:37:47Z</time>
      </trkpt>
      <trkpt lat="47.3908" lon="3.86517">
        <ele>314</ele>
        <time>2014-04-18T14:37:58Z</time>
      </trkpt>
      <trkpt lat="47.39084" lon="3.86522">
        <ele>311</ele>
        <time>2014-04-18T14:38:04Z</time>
      </trkpt>
      <trkpt lat="47.39086" lon="3.86528">
        <ele>311</ele>
        <time>2014-04-18T14:38:09Z</time>
      </trkpt>
      <trkpt lat="47.39086" lon="3.86535">
        <ele>311</ele>
        <time>2014-04-18T14:38:13Z</time>
      </trkpt>
      <trkpt lat="47.39081" lon="3.86547">
        <ele>316</ele>
        <time>2014-04-18T14:38:28Z</time>
      </trkpt>
      <trkpt lat="47.3908" lon="3.86553">
        <ele>316</ele>
        <time>2014-04-18T14:38:37Z</time>
      </trkpt>
      <trkpt lat="47.39076" lon="3.86549">
        <ele>316</ele>
        <time>2014-04-18T14:38:56Z</time>
      </trkpt>
      <trkpt lat="47.39075" lon="3.86553">
        <ele>316</ele>
        <time>2014-04-18T14:39:07Z</time>
      </trkpt>
      <trkpt lat="47.39081" lon="3.86554">
        <ele>316</ele>
        <time>2014-04-18T14:39:11Z</time>
      </trkpt>
      <trkpt lat="47.39085" lon="3.86555">
        <ele>312</ele>
        <time>2014-04-18T14:39:15Z</time>
      </trkpt>
      <trkpt lat="47.39085" lon="3.86586">
        <ele>316</ele>
        <time>2014-04-18T14:39:49Z</time>
      </trkpt>
      <trkpt lat="47.39089" lon="3.86604">
        <ele>312</ele>
        <time>2014-04-18T14:40:00Z</time>
      </trkpt>
      <trkpt lat="47.39097" lon="3.86613">
        <ele>310</ele>
        <time>2014-04-18T14:40:05Z</time>
      </trkpt>
      <trkpt lat="47.39102" lon="3.86625">
        <ele>309</ele>
        <time>2014-04-18T14:40:12Z</time>
      </trkpt>
      <trkpt lat="47.39084" lon="3.86674">
        <ele>313</ele>
        <time>2014-04-18T14:40:37Z</time>
      </trkpt>
      <trkpt lat="47.39088" lon="3.867">
        <ele>308</ele>
        <time>2014-04-18T14:40:54Z</time>
      </trkpt>
      <trkpt lat="47.39084" lon="3.86713">
        <ele>308</ele>
        <time>2014-04-18T14:41:04Z</time>
      </trkpt>
      <trkpt lat="47.39085" lon="3.86727">
        <ele>308</ele>
        <time>2014-04-18T14:41:11Z</time>
      </trkpt>
      <trkpt lat="47.39099" lon="3.86751">
        <ele>309</ele>
        <time>2014-04-18T14:41:31Z</time>
      </trkpt>
      <trkpt lat="47.39093" lon="3.86762">
        <ele>309</ele>
        <time>2014-04-18T14:41:40Z</time>
      </trkpt>
      <trkpt lat="47.39087" lon="3.8679">
        <ele>307</ele>
        <time>2014-04-18T14:41:50Z</time>
      </trkpt>
      <trkpt lat="47.39087" lon="3.86805">
        <ele>308</ele>
        <time>2014-04-18T14:41:56Z</time>
      </trkpt>
      <trkpt lat="47.39091" lon="3.86819">
        <ele>309</ele>
        <time>2014-04-18T14:42:04Z</time>
      </trkpt>
      <trkpt lat="47.39092" lon="3.86833">
        <ele>310</ele>
        <time>2014-04-18T14:42:10Z</time>
      </trkpt>
      <trkpt lat="47.39097" lon="3.8686">
        <ele>308</ele>
        <time>2014-04-18T14:42:32Z</time>
      </trkpt>
      <trkpt lat="47.39098" lon="3.86875">
        <ele>308</ele>
        <time>2014-04-18T14:42:38Z</time>
      </trkpt>
      <trkpt lat="47.39102" lon="3.86887">
        <ele>308</ele>
        <time>2014-04-18T14:42:46Z</time>
      </trkpt>
      <trkpt lat="47.39107" lon="3.86898">
        <ele>307</ele>
        <time>2014-04-18T14:42:51Z</time>
      </trkpt>
      <trkpt lat="47.39107" lon="3.8694">
        <ele>307</ele>
        <time>2014-04-18T14:43:12Z</time>
      </trkpt>
      <trkpt lat="47.39111" lon="3.86955">
        <ele>306</ele>
        <time>2014-04-18T14:43:22Z</time>
      </trkpt>
      <trkpt lat="47.39103" lon="3.86966">
        <ele>307</ele>
        <time>2014-04-18T14:43:29Z</time>
      </trkpt>
      <trkpt lat="47.39105" lon="3.87007">
        <ele>308</ele>
        <time>2014-04-18T14:43:53Z</time>
      </trkpt>
      <trkpt lat="47.39095" lon="3.8703">
        <ele>308</ele>
        <time>2014-04-18T14:44:05Z</time>
      </trkpt>
      <trkpt lat="47.39095" lon="3.87034">
        <ele>308</ele>
        <time>2014-04-18T14:44:17Z</time>
      </trkpt>
      <trkpt lat="47.39092" lon="3.8704">
        <ele>308</ele>
        <time>2014-04-18T14:44:22Z</time>
      </trkpt>
      <trkpt lat="47.3909" lon="3.87047">
        <ele>308</ele>
        <time>2014-04-18T14:44:26Z</time>
      </trkpt>
      <trkpt lat="47.39091" lon="3.87055">
        <ele>308</ele>
        <time>2014-04-18T14:44:30Z</time>
      </trkpt>
      <trkpt lat="47.39089" lon="3.87061">
        <ele>309</ele>
        <time>2014-04-18T14:44:34Z</time>
      </trkpt>
      <trkpt lat="47.39088" lon="3.87069">
        <ele>310</ele>
        <time>2014-04-18T14:44:38Z</time>
      </trkpt>
      <trkpt lat="47.39084" lon="3.87091">
        <ele>311</ele>
        <time>2014-04-18T14:44:52Z</time>
      </trkpt>
      <trkpt lat="47.39079" lon="3.87104">
        <ele>316</ele>
        <time>2014-04-18T14:44:59Z</time>
      </trkpt>
      <trkpt lat="47.3908" lon="3.87114">
        <ele>316</ele>
        <time>2014-04-18T14:45:05Z</time>
      </trkpt>
      <trkpt lat="47.39083" lon="3.87124">
        <ele>316</ele>
        <time>2014-04-18T14:45:17Z</time>
      </trkpt>
      <trkpt lat="47.39085" lon="3.8713">
        <ele>308</ele>
        <time>2014-04-18T14:45:22Z</time>
      </trkpt>
      <trkpt lat="47.39084" lon="3.87137">
        <ele>308</ele>
        <time>2014-04-18T14:45:26Z</time>
      </trkpt>
      <trkpt lat="47.39077" lon="3.87148">
        <ele>315</ele>
        <time>2014-04-18T14:45:35Z</time>
      </trkpt>
      <trkpt lat="47.39074" lon="3.8716">
        <ele>313</ele>
        <time>2014-04-18T14:45:43Z</time>
      </trkpt>
      <trkpt lat="47.39072" lon="3.87174">
        <ele>311</ele>
        <time>2014-04-18T14:45:52Z</time>
      </trkpt>
      <trkpt lat="47.39076" lon="3.87194">
        <ele>311</ele>
        <time>2014-04-18T14:46:03Z</time>
      </trkpt>
      <trkpt lat="47.3908" lon="3.87207">
        <ele>311</ele>
        <time>2014-04-18T14:46:11Z</time>
      </trkpt>
      <trkpt lat="47.39075" lon="3.8722">
        <ele>310</ele>
        <time>2014-04-18T14:46:19Z</time>
      </trkpt>
      <trkpt lat="47.39072" lon="3.87234">
        <ele>309</ele>
        <time>2014-04-18T14:46:26Z</time>
      </trkpt>
      <trkpt lat="47.39071" lon="3.87241">
        <ele>309</ele>
        <time>2014-04-18T14:46:31Z</time>
      </trkpt>
      <trkpt lat="47.39073" lon="3.87255">
        <ele>306</ele>
        <time>2014-04-18T14:46:39Z</time>
      </trkpt>
      <trkpt lat="47.39072" lon="3.87262">
        <ele>306</ele>
        <time>2014-04-18T14:46:44Z</time>
      </trkpt>
      <trkpt lat="47.39077" lon="3.87291">
        <ele>305</ele>
        <time>2014-04-18T14:47:02Z</time>
      </trkpt>
      <trkpt lat="47.39077" lon="3.87298">
        <ele>305</ele>
        <time>2014-04-18T14:47:06Z</time>
      </trkpt>
      <trkpt lat="47.39076" lon="3.87305">
        <ele>305</ele>
        <time>2014-04-18T14:47:10Z</time>
      </trkpt>
      <trkpt lat="47.39076" lon="3.87312">
        <ele>304</ele>
        <time>2014-04-18T14:47:15Z</time>
      </trkpt>
      <trkpt lat="47.39074" lon="3.87319">
        <ele>304</ele>
        <time>2014-04-18T14:47:19Z</time>
      </trkpt>
      <trkpt lat="47.39072" lon="3.87333">
        <ele>304</ele>
        <time>2014-04-18T14:47:26Z</time>
      </trkpt>
      <trkpt lat="47.39073" lon="3.87347">
        <ele>302</ele>
        <time>2014-04-18T14:47:35Z</time>
      </trkpt>
      <trkpt lat="47.39073" lon="3.87354">
        <ele>302</ele>
        <time>2014-04-18T14:47:38Z</time>
      </trkpt>
      <trkpt lat="47.39074" lon="3.87362">
        <ele>302</ele>
        <time>2014-04-18T14:47:42Z</time>
      </trkpt>
      <trkpt lat="47.39082" lon="3.87379">
        <ele>301</ele>
        <time>2014-04-18T14:47:52Z</time>
      </trkpt>
      <trkpt lat="47.3909" lon="3.87388">
        <ele>299</ele>
        <time>2014-04-18T14:48:01Z</time>
      </trkpt>
      <trkpt lat="47.39094" lon="3.87394">
        <ele>299</ele>
        <time>2014-04-18T14:48:06Z</time>
      </trkpt>
      <trkpt lat="47.39094" lon="3.87401">
        <ele>299</ele>
        <time>2014-04-18T14:48:10Z</time>
      </trkpt>
      <trkpt lat="47.39092" lon="3.87409">
        <ele>299</ele>
        <time>2014-04-18T14:48:14Z</time>
      </trkpt>
      <trkpt lat="47.39081" lon="3.87426">
        <ele>300</ele>
        <time>2014-04-18T14:48:26Z</time>
      </trkpt>
      <trkpt lat="47.39079" lon="3.87432">
        <ele>300</ele>
        <time>2014-04-18T14:48:30Z</time>
      </trkpt>
      <trkpt lat="47.39074" lon="3.87436">
        <ele>301</ele>
        <time>2014-04-18T14:48:34Z</time>
      </trkpt>
      <trkpt lat="47.3907" lon="3.87441">
        <ele>301</ele>
        <time>2014-04-18T14:48:38Z</time>
      </trkpt>
      <trkpt lat="47.3907" lon="3.87447">
        <ele>301</ele>
        <time>2014-04-18T14:48:42Z</time>
      </trkpt>
      <trkpt lat="47.39068" lon="3.87454">
        <ele>301</ele>
        <time>2014-04-18T14:48:46Z</time>
      </trkpt>
      <trkpt lat="47.39074" lon="3.8749">
        <ele>301</ele>
        <time>2014-04-18T14:49:07Z</time>
      </trkpt>
      <trkpt lat="47.39079" lon="3.87495">
        <ele>301</ele>
        <time>2014-04-18T14:49:11Z</time>
      </trkpt>
      <trkpt lat="47.39084" lon="3.87507">
        <ele>300</ele>
        <time>2014-04-18T14:49:18Z</time>
      </trkpt>
      <trkpt lat="47.39093" lon="3.87534">
        <ele>300</ele>
        <time>2014-04-18T14:49:36Z</time>
      </trkpt>
      <trkpt lat="47.39094" lon="3.87541">
        <ele>300</ele>
        <time>2014-04-18T14:49:40Z</time>
      </trkpt>
      <trkpt lat="47.39097" lon="3.87546">
        <ele>300</ele>
        <time>2014-04-18T14:49:46Z</time>
      </trkpt>
      <trkpt lat="47.39097" lon="3.87553">
        <ele>301</ele>
        <time>2014-04-18T14:49:50Z</time>
      </trkpt>
      <trkpt lat="47.39099" lon="3.87559">
        <ele>301</ele>
        <time>2014-04-18T14:49:54Z</time>
      </trkpt>
      <trkpt lat="47.39109" lon="3.87569">
        <ele>301</ele>
        <time>2014-04-18T14:50:00Z</time>
      </trkpt>
      <trkpt lat="47.39125" lon="3.87598">
        <ele>304</ele>
        <time>2014-04-18T14:50:22Z</time>
      </trkpt>
      <trkpt lat="47.39126" lon="3.87606">
        <ele>304</ele>
        <time>2014-04-18T14:50:26Z</time>
      </trkpt>
      <trkpt lat="47.39125" lon="3.87614">
        <ele>305</ele>
        <time>2014-04-18T14:50:30Z</time>
      </trkpt>
      <trkpt lat="47.39123" lon="3.87622">
        <ele>305</ele>
        <time>2014-04-18T14:50:34Z</time>
      </trkpt>
      <trkpt lat="47.39123" lon="3.87629">
        <ele>305</ele>
        <time>2014-04-18T14:50:38Z</time>
      </trkpt>
      <trkpt lat="47.39121" lon="3.87657">
        <ele>306</ele>
        <time>2014-04-18T14:50:54Z</time>
      </trkpt>
      <trkpt lat="47.39117" lon="3.87668">
        <ele>309</ele>
        <time>2014-04-18T14:51:05Z</time>
      </trkpt>
      <trkpt lat="47.39113" lon="3.87672">
        <ele>309</ele>
        <time>2014-04-18T14:51:10Z</time>
      </trkpt>
      <trkpt lat="47.3911" lon="3.87679">
        <ele>309</ele>
        <time>2014-04-18T14:51:13Z</time>
      </trkpt>
      <trkpt lat="47.39109" lon="3.87686">
        <ele>309</ele>
        <time>2014-04-18T14:51:17Z</time>
      </trkpt>
      <trkpt lat="47.39106" lon="3.87691">
        <ele>309</ele>
        <time>2014-04-18T14:51:21Z</time>
      </trkpt>
      <trkpt lat="47.39104" lon="3.87698">
        <ele>309</ele>
        <time>2014-04-18T14:51:25Z</time>
      </trkpt>
      <trkpt lat="47.39097" lon="3.8771">
        <ele>310</ele>
        <time>2014-04-18T14:51:34Z</time>
      </trkpt>
      <trkpt lat="47.39094" lon="3.87714">
        <ele>310</ele>
        <time>2014-04-18T14:51:38Z</time>
      </trkpt>
      <trkpt lat="47.39091" lon="3.8772">
        <ele>310</ele>
        <time>2014-04-18T14:51:42Z</time>
      </trkpt>
      <trkpt lat="47.39088" lon="3.87726">
        <ele>311</ele>
        <time>2014-04-18T14:51:45Z</time>
      </trkpt>
      <trkpt lat="47.39078" lon="3.87744">
        <ele>313</ele>
        <time>2014-04-18T14:51:57Z</time>
      </trkpt>
      <trkpt lat="47.39076" lon="3.87752">
        <ele>314</ele>
        <time>2014-04-18T14:52:01Z</time>
      </trkpt>
      <trkpt lat="47.39075" lon="3.8776">
        <ele>315</ele>
        <time>2014-04-18T14:52:05Z</time>
      </trkpt>
      <trkpt lat="47.39075" lon="3.87768">
        <ele>315</ele>
        <time>2014-04-18T14:52:11Z</time>
      </trkpt>
      <trkpt lat="47.39077" lon="3.87775">
        <ele>315</ele>
        <time>2014-04-18T14:52:15Z</time>
      </trkpt>
      <trkpt lat="47.39076" lon="3.87788">
        <ele>316</ele>
        <time>2014-04-18T14:52:22Z</time>
      </trkpt>
      <trkpt lat="47.39081" lon="3.87793">
        <ele>316</ele>
        <time>2014-04-18T14:52:27Z</time>
      </trkpt>
      <trkpt lat="47.39085" lon="3.87796">
        <ele>313</ele>
        <time>2014-04-18T14:52:30Z</time>
      </trkpt>
      <trkpt lat="47.39088" lon="3.87802">
        <ele>313</ele>
        <time>2014-04-18T14:52:36Z</time>
      </trkpt>
      <trkpt lat="47.39091" lon="3.87807">
        <ele>313</ele>
        <time>2014-04-18T14:52:41Z</time>
      </trkpt>
      <trkpt lat="47.39093" lon="3.87813">
        <ele>314</ele>
        <time>2014-04-18T14:52:45Z</time>
      </trkpt>
      <trkpt lat="47.39094" lon="3.87822">
        <ele>314</ele>
        <time>2014-04-18T14:52:49Z</time>
      </trkpt>
      <trkpt lat="47.39093" lon="3.8783">
        <ele>315</ele>
        <time>2014-04-18T14:52:52Z</time>
      </trkpt>
      <trkpt lat="47.39095" lon="3.87845">
        <ele>314</ele>
        <time>2014-04-18T14:52:59Z</time>
      </trkpt>
      <trkpt lat="47.39094" lon="3.87852">
        <ele>314</ele>
        <time>2014-04-18T14:53:05Z</time>
      </trkpt>
      <trkpt lat="47.3909" lon="3.87856">
        <ele>313</ele>
        <time>2014-04-18T14:53:09Z</time>
      </trkpt>
      <trkpt lat="47.39085" lon="3.87859">
        <ele>313</ele>
        <time>2014-04-18T14:53:14Z</time>
      </trkpt>
      <trkpt lat="47.39076" lon="3.87865">
        <ele>316</ele>
        <time>2014-04-18T14:53:20Z</time>
      </trkpt>
      <trkpt lat="47.39055" lon="3.8787">
        <ele>316</ele>
        <time>2014-04-18T14:53:36Z</time>
      </trkpt>
      <trkpt lat="47.3905" lon="3.87871">
        <ele>316</ele>
        <time>2014-04-18T14:53:40Z</time>
      </trkpt>
      <trkpt lat="47.39041" lon="3.87873">
        <ele>317</ele>
        <time>2014-04-18T14:53:48Z</time>
      </trkpt>
      <trkpt lat="47.39039" lon="3.87871">
        <ele>317</ele>
        <time>2014-04-18T14:53:54Z</time>
      </trkpt>
      <trkpt lat="47.39023" lon="3.87877">
        <ele>317</ele>
        <time>2014-04-18T14:54:18Z</time>
      </trkpt>
      <trkpt lat="47.39018" lon="3.8788">
        <ele>317</ele>
        <time>2014-04-18T14:54:21Z</time>
      </trkpt>
      <trkpt lat="47.39013" lon="3.87882">
        <ele>317</ele>
        <time>2014-04-18T14:54:25Z</time>
      </trkpt>
      <trkpt lat="47.39008" lon="3.87883">
        <ele>317</ele>
        <time>2014-04-18T14:54:30Z</time>
      </trkpt>
      <trkpt lat="47.39004" lon="3.87888">
        <ele>317</ele>
        <time>2014-04-18T14:54:35Z</time>
      </trkpt>
      <trkpt lat="47.39002" lon="3.87895">
        <ele>317</ele>
        <time>2014-04-18T14:54:38Z</time>
      </trkpt>
      <trkpt lat="47.38996" lon="3.87909">
        <ele>320</ele>
        <time>2014-04-18T14:54:46Z</time>
      </trkpt>
      <trkpt lat="47.38993" lon="3.87923">
        <ele>320</ele>
        <time>2014-04-18T14:54:52Z</time>
      </trkpt>
      <trkpt lat="47.3899" lon="3.87929">
        <ele>320</ele>
        <time>2014-04-18T14:54:56Z</time>
      </trkpt>
      <trkpt lat="47.3899" lon="3.87937">
        <ele>321</ele>
        <time>2014-04-18T14:55:00Z</time>
      </trkpt>
      <trkpt lat="47.38992" lon="3.87943">
        <ele>321</ele>
        <time>2014-04-18T14:55:04Z</time>
      </trkpt>
      <trkpt lat="47.38992" lon="3.8795">
        <ele>321</ele>
        <time>2014-04-18T14:55:08Z</time>
      </trkpt>
      <trkpt lat="47.38988" lon="3.87962">
        <ele>321</ele>
        <time>2014-04-18T14:55:14Z</time>
      </trkpt>
      <trkpt lat="47.38988" lon="3.87969">
        <ele>321</ele>
        <time>2014-04-18T14:55:19Z</time>
      </trkpt>
      <trkpt lat="47.3899" lon="3.87984">
        <ele>321</ele>
        <time>2014-04-18T14:55:28Z</time>
      </trkpt>
      <trkpt lat="47.38992" lon="3.87992">
        <ele>320</ele>
        <time>2014-04-18T14:55:32Z</time>
      </trkpt>
      <trkpt lat="47.38993" lon="3.88007">
        <ele>320</ele>
        <time>2014-04-18T14:55:41Z</time>
      </trkpt>
      <trkpt lat="47.38992" lon="3.88014">
        <ele>321</ele>
        <time>2014-04-18T14:55:46Z</time>
      </trkpt>
      <trkpt lat="47.38992" lon="3.88022">
        <ele>321</ele>
        <time>2014-04-18T14:55:51Z</time>
      </trkpt>
      <trkpt lat="47.38994" lon="3.88029">
        <ele>322</ele>
        <time>2014-04-18T14:55:54Z</time>
      </trkpt>
      <trkpt lat="47.38995" lon="3.88035">
        <ele>322</ele>
        <time>2014-04-18T14:55:57Z</time>
      </trkpt>
      <trkpt lat="47.38997" lon="3.88042">
        <ele>322</ele>
        <time>2014-04-18T14:56:01Z</time>
      </trkpt>
      <trkpt lat="47.38999" lon="3.88049">
        <ele>322</ele>
        <time>2014-04-18T14:56:05Z</time>
      </trkpt>
      <trkpt lat="47.39003" lon="3.88094">
        <ele>319</ele>
        <time>2014-04-18T14:56:31Z</time>
      </trkpt>
      <trkpt lat="47.39002" lon="3.88101">
        <ele>319</ele>
        <time>2014-04-18T14:56:35Z</time>
      </trkpt>
      <trkpt lat="47.39004" lon="3.88144">
        <ele>320</ele>
        <time>2014-04-18T14:57:05Z</time>
      </trkpt>
      <trkpt lat="47.39005" lon="3.88152">
        <ele>320</ele>
        <time>2014-04-18T14:57:11Z</time>
      </trkpt>
      <trkpt lat="47.39005" lon="3.8816">
        <ele>321</ele>
        <time>2014-04-18T14:57:15Z</time>
      </trkpt>
      <trkpt lat="47.39006" lon="3.88166">
        <ele>321</ele>
        <time>2014-04-18T14:57:23Z</time>
      </trkpt>
      <trkpt lat="47.39003" lon="3.88173">
        <ele>322</ele>
        <time>2014-04-18T14:57:28Z</time>
      </trkpt>
      <trkpt lat="47.39004" lon="3.88182">
        <ele>321</ele>
        <time>2014-04-18T14:57:32Z</time>
      </trkpt>
      <trkpt lat="47.39003" lon="3.88191">
        <ele>321</ele>
        <time>2014-04-18T14:57:36Z</time>
      </trkpt>
      <trkpt lat="47.39003" lon="3.88199">
        <ele>321</ele>
        <time>2014-04-18T14:57:40Z</time>
      </trkpt>
      <trkpt lat="47.39005" lon="3.88213">
        <ele>321</ele>
        <time>2014-04-18T14:57:51Z</time>
      </trkpt>
      <trkpt lat="47.39005" lon="3.8822">
        <ele>322</ele>
        <time>2014-04-18T14:57:56Z</time>
      </trkpt>
      <trkpt lat="47.39002" lon="3.88227">
        <ele>322</ele>
        <time>2014-04-18T14:58:00Z</time>
      </trkpt>
      <trkpt lat="47.38998" lon="3.88233">
        <ele>326</ele>
        <time>2014-04-18T14:58:04Z</time>
      </trkpt>
      <trkpt lat="47.38996" lon="3.8824">
        <ele>326</ele>
        <time>2014-04-18T14:58:09Z</time>
      </trkpt>
      <trkpt lat="47.38992" lon="3.88246">
        <ele>325</ele>
        <time>2014-04-18T14:58:14Z</time>
      </trkpt>
      <trkpt lat="47.38975" lon="3.88261">
        <ele>328</ele>
        <time>2014-04-18T14:58:32Z</time>
      </trkpt>
      <trkpt lat="47.38971" lon="3.88265">
        <ele>329</ele>
        <time>2014-04-18T14:58:36Z</time>
      </trkpt>
      <trkpt lat="47.38966" lon="3.88269">
        <ele>329</ele>
        <time>2014-04-18T14:58:41Z</time>
      </trkpt>
      <trkpt lat="47.38957" lon="3.88272">
        <ele>330</ele>
        <time>2014-04-18T14:58:48Z</time>
      </trkpt>
      <trkpt lat="47.38952" lon="3.88275">
        <ele>330</ele>
        <time>2014-04-18T14:58:54Z</time>
      </trkpt>
      <trkpt lat="47.38947" lon="3.88276">
        <ele>330</ele>
        <time>2014-04-18T14:58:59Z</time>
      </trkpt>
      <trkpt lat="47.38942" lon="3.88275">
        <ele>331</ele>
        <time>2014-04-18T14:59:04Z</time>
      </trkpt>
      <trkpt lat="47.38938" lon="3.88279">
        <ele>331</ele>
        <time>2014-04-18T14:59:08Z</time>
      </trkpt>
      <trkpt lat="47.38933" lon="3.88284">
        <ele>331</ele>
        <time>2014-04-18T14:59:12Z</time>
      </trkpt>
      <trkpt lat="47.38929" lon="3.88287">
        <ele>331</ele>
        <time>2014-04-18T14:59:16Z</time>
      </trkpt>
      <trkpt lat="47.38924" lon="3.88288">
        <ele>331</ele>
        <time>2014-04-18T14:59:21Z</time>
      </trkpt>
      <trkpt lat="47.38919" lon="3.88287">
        <ele>331</ele>
        <time>2014-04-18T14:59:27Z</time>
      </trkpt>
      <trkpt lat="47.38911" lon="3.88295">
        <ele>336</ele>
        <time>2014-04-18T14:59:42Z</time>
      </trkpt>
      <trkpt lat="47.38906" lon="3.88296">
        <ele>336</ele>
        <time>2014-04-18T14:59:46Z</time>
      </trkpt>
      <trkpt lat="47.38897" lon="3.88303">
        <ele>336</ele>
        <time>2014-04-18T14:59:53Z</time>
      </trkpt>
      <trkpt lat="47.38893" lon="3.88303">
        <ele>336</ele>
        <time>2014-04-18T14:59:58Z</time>
      </trkpt>
      <trkpt lat="47.38882" lon="3.88308">
        <ele>336</ele>
        <time>2014-04-18T15:00:09Z</time>
      </trkpt>
      <trkpt lat="47.38878" lon="3.88312">
        <ele>336</ele>
        <time>2014-04-18T15:00:12Z</time>
      </trkpt>
      <trkpt lat="47.38857" lon="3.88326">
        <ele>337</ele>
        <time>2014-04-18T15:00:38Z</time>
      </trkpt>
      <trkpt lat="47.38848" lon="3.88331">
        <ele>337</ele>
        <time>2014-04-18T15:00:48Z</time>
      </trkpt>
      <trkpt lat="47.38842" lon="3.88331">
        <ele>337</ele>
        <time>2014-04-18T15:00:55Z</time>
      </trkpt>
      <trkpt lat="47.38838" lon="3.88336">
        <ele>336</ele>
        <time>2014-04-18T15:00:59Z</time>
      </trkpt>
      <trkpt lat="47.38834" lon="3.88339">
        <ele>335</ele>
        <time>2014-04-18T15:01:03Z</time>
      </trkpt>
      <trkpt lat="47.38819" lon="3.88343">
        <ele>335</ele>
        <time>2014-04-18T15:01:17Z</time>
      </trkpt>
      <trkpt lat="47.38803" lon="3.88356">
        <ele>334</ele>
        <time>2014-04-18T15:01:29Z</time>
      </trkpt>
      <trkpt lat="47.38795" lon="3.88366">
        <ele>334</ele>
        <time>2014-04-18T15:01:36Z</time>
      </trkpt>
      <trkpt lat="47.38781" lon="3.88375">
        <ele>334</ele>
        <time>2014-04-18T15:01:47Z</time>
      </trkpt>
      <trkpt lat="47.38776" lon="3.88378">
        <ele>334</ele>
        <time>2014-04-18T15:01:51Z</time>
      </trkpt>
      <trkpt lat="47.38771" lon="3.88381">
        <ele>334</ele>
        <time>2014-04-18T15:01:55Z</time>
      </trkpt>
      <trkpt lat="47.38766" lon="3.88383">
        <ele>334</ele>
        <time>2014-04-18T15:01:59Z</time>
      </trkpt>
      <trkpt lat="47.38761" lon="3.88385">
        <ele>334</ele>
        <time>2014-04-18T15:02:03Z</time>
      </trkpt>
      <trkpt lat="47.38757" lon="3.8839">
        <ele>334</ele>
        <time>2014-04-18T15:02:07Z</time>
      </trkpt>
      <trkpt lat="47.38742" lon="3.884">
        <ele>336</ele>
        <time>2014-04-18T15:02:19Z</time>
      </trkpt>
      <trkpt lat="47.38739" lon="3.88406">
        <ele>335</ele>
        <time>2014-04-18T15:02:25Z</time>
      </trkpt>
      <trkpt lat="47.38734" lon="3.88409">
        <ele>336</ele>
        <time>2014-04-18T15:02:31Z</time>
      </trkpt>
      <trkpt lat="47.3873" lon="3.88412">
        <ele>336</ele>
        <time>2014-04-18T15:02:37Z</time>
      </trkpt>
      <trkpt lat="47.38728" lon="3.88418">
        <ele>335</ele>
        <time>2014-04-18T15:02:43Z</time>
      </trkpt>
      <trkpt lat="47.38724" lon="3.88422">
        <ele>336</ele>
        <time>2014-04-18T15:02:46Z</time>
      </trkpt>
      <trkpt lat="47.3872" lon="3.88425">
        <ele>336</ele>
        <time>2014-04-18T15:02:49Z</time>
      </trkpt>
      <trkpt lat="47.38716" lon="3.8843">
        <ele>336</ele>
        <time>2014-04-18T15:02:52Z</time>
      </trkpt>
      <trkpt lat="47.38714" lon="3.88437">
        <ele>336</ele>
        <time>2014-04-18T15:02:55Z</time>
      </trkpt>
      <trkpt lat="47.38711" lon="3.88442">
        <ele>337</ele>
        <time>2014-04-18T15:02:58Z</time>
      </trkpt>
      <trkpt lat="47.38708" lon="3.88446">
        <ele>337</ele>
        <time>2014-04-18T15:03:02Z</time>
      </trkpt>
      <trkpt lat="47.38702" lon="3.88451">
        <ele>337</ele>
        <time>2014-04-18T15:03:06Z</time>
      </trkpt>
      <trkpt lat="47.38691" lon="3.88465">
        <ele>337</ele>
        <time>2014-04-18T15:03:15Z</time>
      </trkpt>
      <trkpt lat="47.38681" lon="3.88469">
        <ele>338</ele>
        <time>2014-04-18T15:03:25Z</time>
      </trkpt>
      <trkpt lat="47.38677" lon="3.88475">
        <ele>338</ele>
        <time>2014-04-18T15:03:29Z</time>
      </trkpt>
      <trkpt lat="47.38662" lon="3.88499">
        <ele>339</ele>
        <time>2014-04-18T15:03:41Z</time>
      </trkpt>
      <trkpt lat="47.3866" lon="3.88506">
        <ele>340</ele>
        <time>2014-04-18T15:03:45Z</time>
      </trkpt>
      <trkpt lat="47.3866" lon="3.88514">
        <ele>340</ele>
        <time>2014-04-18T15:03:48Z</time>
      </trkpt>
      <trkpt lat="47.38661" lon="3.88521">
        <ele>340</ele>
        <time>2014-04-18T15:03:52Z</time>
      </trkpt>
      <trkpt lat="47.38665" lon="3.88527">
        <ele>340</ele>
        <time>2014-04-18T15:03:56Z</time>
      </trkpt>
      <trkpt lat="47.38669" lon="3.88532">
        <ele>340</ele>
        <time>2014-04-18T15:04:00Z</time>
      </trkpt>
      <trkpt lat="47.38673" lon="3.88537">
        <ele>340</ele>
        <time>2014-04-18T15:04:03Z</time>
      </trkpt>
      <trkpt lat="47.38683" lon="3.88555">
        <ele>340</ele>
        <time>2014-04-18T15:04:15Z</time>
      </trkpt>
      <trkpt lat="47.38692" lon="3.88564">
        <ele>341</ele>
        <time>2014-04-18T15:04:21Z</time>
      </trkpt>
      <trkpt lat="47.38696" lon="3.8857">
        <ele>341</ele>
        <time>2014-04-18T15:04:25Z</time>
      </trkpt>
      <trkpt lat="47.38698" lon="3.88606">
        <ele>344</ele>
        <time>2014-04-18T15:04:46Z</time>
      </trkpt>
      <trkpt lat="47.38698" lon="3.88613">
        <ele>344</ele>
        <time>2014-04-18T15:04:51Z</time>
      </trkpt>
      <trkpt lat="47.38693" lon="3.88614">
        <ele>344</ele>
        <time>2014-04-18T15:04:56Z</time>
      </trkpt>
      <trkpt lat="47.38689" lon="3.88619">
        <ele>344</ele>
        <time>2014-04-18T15:04:59Z</time>
      </trkpt>
      <trkpt lat="47.38685" lon="3.88624">
        <ele>344</ele>
        <time>2014-04-18T15:05:02Z</time>
      </trkpt>
      <trkpt lat="47.38676" lon="3.88631">
        <ele>344</ele>
        <time>2014-04-18T15:05:10Z</time>
      </trkpt>
      <trkpt lat="47.38672" lon="3.88632">
        <ele>344</ele>
        <time>2014-04-18T15:05:18Z</time>
      </trkpt>
      <trkpt lat="47.38672" lon="3.88618">
        <ele>344</ele>
        <time>2014-04-18T15:05:27Z</time>
      </trkpt>
      <trkpt lat="47.38601" lon="3.88719">
        <ele>346</ele>
        <time>2014-04-18T15:06:36Z</time>
      </trkpt>
      <trkpt lat="47.38605" lon="3.8871">
        <ele>346</ele>
        <time>2014-04-18T15:07:25Z</time>
      </trkpt>
      <trkpt lat="47.38597" lon="3.88751">
        <ele>348</ele>
        <time>2014-04-18T15:07:58Z</time>
      </trkpt>
      <trkpt lat="47.38588" lon="3.88751">
        <ele>348</ele>
        <time>2014-04-18T15:08:07Z</time>
      </trkpt>
      <trkpt lat="47.38543" lon="3.88801">
        <ele>352</ele>
        <time>2014-04-18T15:08:37Z</time>
      </trkpt>
      <trkpt lat="47.3853" lon="3.88803">
        <ele>352</ele>
        <time>2014-04-18T15:08:48Z</time>
      </trkpt>
      <trkpt lat="47.38521" lon="3.88809">
        <ele>352</ele>
        <time>2014-04-18T15:08:59Z</time>
      </trkpt>
      <trkpt lat="47.38503" lon="3.88804">
        <ele>352</ele>
        <time>2014-04-18T15:09:17Z</time>
      </trkpt>
      <trkpt lat="47.38496" lon="3.88794">
        <ele>354</ele>
        <time>2014-04-18T15:09:25Z</time>
      </trkpt>
      <trkpt lat="47.38486" lon="3.88784">
        <ele>353</ele>
        <time>2014-04-18T15:09:35Z</time>
      </trkpt>
      <trkpt lat="47.38477" lon="3.88782">
        <ele>353</ele>
        <time>2014-04-18T15:09:42Z</time>
      </trkpt>
      <trkpt lat="47.38459" lon="3.88771">
        <ele>354</ele>
        <time>2014-04-18T15:09:58Z</time>
      </trkpt>
      <trkpt lat="47.38452" lon="3.88768">
        <ele>354</ele>
        <time>2014-04-18T15:10:04Z</time>
      </trkpt>
      <trkpt lat="47.38443" lon="3.88752">
        <ele>354</ele>
        <time>2014-04-18T15:10:21Z</time>
      </trkpt>
      <trkpt lat="47.38438" lon="3.88753">
        <ele>354</ele>
        <time>2014-04-18T15:10:31Z</time>
      </trkpt>
      <trkpt lat="47.38426" lon="3.88753">
        <ele>355</ele>
        <time>2014-04-18T15:10:35Z</time>
      </trkpt>
      <trkpt lat="47.38418" lon="3.88748">
        <ele>355</ele>
        <time>2014-04-18T15:10:38Z</time>
      </trkpt>
      <trkpt lat="47.38414" lon="3.8874">
        <ele>355</ele>
        <time>2014-04-18T15:10:42Z</time>
      </trkpt>
      <trkpt lat="47.38413" lon="3.88736">
        <ele>355</ele>
        <time>2014-04-18T15:10:45Z</time>
      </trkpt>
      <trkpt lat="47.38411" lon="3.88729">
        <ele>356</ele>
        <time>2014-04-18T15:10:52Z</time>
      </trkpt>
      <trkpt lat="47.38406" lon="3.88725">
        <ele>356</ele>
        <time>2014-04-18T15:10:58Z</time>
      </trkpt>
      <trkpt lat="47.38402" lon="3.88723">
        <ele>356</ele>
        <time>2014-04-18T15:11:01Z</time>
      </trkpt>
      <trkpt lat="47.38397" lon="3.88719">
        <ele>356</ele>
        <time>2014-04-18T15:11:05Z</time>
      </trkpt>
      <trkpt lat="47.3839" lon="3.8871">
        <ele>356</ele>
        <time>2014-04-18T15:11:15Z</time>
      </trkpt>
      <trkpt lat="47.38386" lon="3.88707">
        <ele>356</ele>
        <time>2014-04-18T15:11:19Z</time>
      </trkpt>
      <trkpt lat="47.38381" lon="3.88706">
        <ele>356</ele>
        <time>2014-04-18T15:11:22Z</time>
      </trkpt>
      <trkpt lat="47.38376" lon="3.88703">
        <ele>356</ele>
        <time>2014-04-18T15:11:25Z</time>
      </trkpt>
      <trkpt lat="47.38371" lon="3.887">
        <ele>356</ele>
        <time>2014-04-18T15:11:30Z</time>
      </trkpt>
      <trkpt lat="47.38366" lon="3.88697">
        <ele>356</ele>
        <time>2014-04-18T15:11:34Z</time>
      </trkpt>
      <trkpt lat="47.3836" lon="3.88697">
        <ele>357</ele>
        <time>2014-04-18T15:11:38Z</time>
      </trkpt>
      <trkpt lat="47.38357" lon="3.88692">
        <ele>357</ele>
        <time>2014-04-18T15:11:43Z</time>
      </trkpt>
      <trkpt lat="47.38353" lon="3.88686">
        <ele>357</ele>
        <time>2014-04-18T15:11:47Z</time>
      </trkpt>
      <trkpt lat="47.38336" lon="3.8867">
        <ele>358</ele>
        <time>2014-04-18T15:12:05Z</time>
      </trkpt>
      <trkpt lat="47.38331" lon="3.88667">
        <ele>358</ele>
        <time>2014-04-18T15:12:10Z</time>
      </trkpt>
      <trkpt lat="47.38323" lon="3.88658">
        <ele>359</ele>
        <time>2014-04-18T15:12:19Z</time>
      </trkpt>
      <trkpt lat="47.38313" lon="3.88651">
        <ele>359</ele>
        <time>2014-04-18T15:12:27Z</time>
      </trkpt>
      <trkpt lat="47.38309" lon="3.88647">
        <ele>359</ele>
        <time>2014-04-18T15:12:32Z</time>
      </trkpt>
      <trkpt lat="47.383" lon="3.88644">
        <ele>359</ele>
        <time>2014-04-18T15:12:39Z</time>
      </trkpt>
      <trkpt lat="47.38296" lon="3.8864">
        <ele>359</ele>
        <time>2014-04-18T15:12:43Z</time>
      </trkpt>
      <trkpt lat="47.38295" lon="3.88632">
        <ele>359</ele>
        <time>2014-04-18T15:12:48Z</time>
      </trkpt>
      <trkpt lat="47.38291" lon="3.88627">
        <ele>359</ele>
        <time>2014-04-18T15:12:52Z</time>
      </trkpt>
      <trkpt lat="47.38287" lon="3.88622">
        <ele>360</ele>
        <time>2014-04-18T15:12:55Z</time>
      </trkpt>
      <trkpt lat="47.38284" lon="3.88617">
        <ele>360</ele>
        <time>2014-04-18T15:12:58Z</time>
      </trkpt>
      <trkpt lat="47.38283" lon="3.88609">
        <ele>360</ele>
        <time>2014-04-18T15:13:02Z</time>
      </trkpt>
      <trkpt lat="47.38273" lon="3.88591">
        <ele>360</ele>
        <time>2014-04-18T15:13:12Z</time>
      </trkpt>
      <trkpt lat="47.38272" lon="3.88584">
        <ele>360</ele>
        <time>2014-04-18T15:13:17Z</time>
      </trkpt>
      <trkpt lat="47.38266" lon="3.88569">
        <ele>361</ele>
        <time>2014-04-18T15:13:23Z</time>
      </trkpt>
      <trkpt lat="47.38265" lon="3.88562">
        <ele>361</ele>
        <time>2014-04-18T15:13:28Z</time>
      </trkpt>
      <trkpt lat="47.38254" lon="3.88534">
        <ele>362</ele>
        <time>2014-04-18T15:13:46Z</time>
      </trkpt>
      <trkpt lat="47.38251" lon="3.88529">
        <ele>362</ele>
        <time>2014-04-18T15:13:52Z</time>
      </trkpt>
      <trkpt lat="47.38248" lon="3.88515">
        <ele>363</ele>
        <time>2014-04-18T15:14:00Z</time>
      </trkpt>
      <trkpt lat="47.38242" lon="3.88501">
        <ele>363</ele>
        <time>2014-04-18T15:14:07Z</time>
      </trkpt>
      <trkpt lat="47.38241" lon="3.88495">
        <ele>364</ele>
        <time>2014-04-18T15:14:11Z</time>
      </trkpt>
      <trkpt lat="47.38234" lon="3.88477">
        <ele>364</ele>
        <time>2014-04-18T15:14:23Z</time>
      </trkpt>
      <trkpt lat="47.38233" lon="3.8847">
        <ele>364</ele>
        <time>2014-04-18T15:14:29Z</time>
      </trkpt>
      <trkpt lat="47.38233" lon="3.88462">
        <ele>364</ele>
        <time>2014-04-18T15:14:37Z</time>
      </trkpt>
      <trkpt lat="47.38232" lon="3.88458">
        <ele>364</ele>
        <time>2014-04-18T15:14:45Z</time>
      </trkpt>
      <trkpt lat="47.38237" lon="3.88461">
        <ele>364</ele>
        <time>2014-04-18T15:14:51Z</time>
      </trkpt>
      <trkpt lat="47.38241" lon="3.88466">
        <ele>364</ele>
        <time>2014-04-18T15:14:54Z</time>
      </trkpt>
      <trkpt lat="47.38238" lon="3.8847">
        <ele>364</ele>
        <time>2014-04-18T15:16:32Z</time>
      </trkpt>
      <trkpt lat="47.38233" lon="3.88466">
        <ele>364</ele>
        <time>2014-04-18T15:16:39Z</time>
      </trkpt>
      <trkpt lat="47.38235" lon="3.88459">
        <ele>364</ele>
        <time>2014-04-18T15:16:45Z</time>
      </trkpt>
      <trkpt lat="47.38235" lon="3.88452">
        <ele>364</ele>
        <time>2014-04-18T15:16:49Z</time>
      </trkpt>
      <trkpt lat="47.38228" lon="3.88463">
        <ele>364</ele>
        <time>2014-04-19T07:03:17Z</time>
      </trkpt>
      <trkpt lat="47.38228" lon="3.88469">
        <ele>364</ele>
        <time>2014-04-19T07:03:19Z</time>
      </trkpt>
      <trkpt lat="47.38232" lon="3.88473">
        <ele>364</ele>
        <time>2014-04-19T07:03:25Z</time>
      </trkpt>
      <trkpt lat="47.38247" lon="3.88494">
        <ele>364</ele>
        <time>2014-04-19T07:03:43Z</time>
      </trkpt>
      <trkpt lat="47.38245" lon="3.88503">
        <ele>363</ele>
        <time>2014-04-19T07:03:54Z</time>
      </trkpt>
      <trkpt lat="47.38248" lon="3.88507">
        <ele>363</ele>
        <time>2014-04-19T07:04:37Z</time>
      </trkpt>
      <trkpt lat="47.38252" lon="3.88513">
        <ele>363</ele>
        <time>2014-04-19T07:04:41Z</time>
      </trkpt>
      <trkpt lat="47.38254" lon="3.8852">
        <ele>363</ele>
        <time>2014-04-19T07:04:45Z</time>
      </trkpt>
      <trkpt lat="47.38255" lon="3.88529">
        <ele>362</ele>
        <time>2014-04-19T07:04:49Z</time>
      </trkpt>
      <trkpt lat="47.38257" lon="3.88535">
        <ele>362</ele>
        <time>2014-04-19T07:04:53Z</time>
      </trkpt>
      <trkpt lat="47.3826" lon="3.88541">
        <ele>362</ele>
        <time>2014-04-19T07:04:59Z</time>
      </trkpt>
      <trkpt lat="47.38264" lon="3.88555">
        <ele>362</ele>
        <time>2014-04-19T07:05:08Z</time>
      </trkpt>
      <trkpt lat="47.38267" lon="3.88561">
        <ele>361</ele>
        <time>2014-04-19T07:05:11Z</time>
      </trkpt>
      <trkpt lat="47.38275" lon="3.88571">
        <ele>361</ele>
        <time>2014-04-19T07:05:21Z</time>
      </trkpt>
      <trkpt lat="47.38277" lon="3.88585">
        <ele>360</ele>
        <time>2014-04-19T07:05:31Z</time>
      </trkpt>
      <trkpt lat="47.38278" lon="3.88593">
        <ele>360</ele>
        <time>2014-04-19T07:05:34Z</time>
      </trkpt>
      <trkpt lat="47.3828" lon="3.88599">
        <ele>360</ele>
        <time>2014-04-19T07:05:38Z</time>
      </trkpt>
      <trkpt lat="47.38285" lon="3.88603">
        <ele>360</ele>
        <time>2014-04-19T07:05:41Z</time>
      </trkpt>
      <trkpt lat="47.38288" lon="3.88609">
        <ele>360</ele>
        <time>2014-04-19T07:05:45Z</time>
      </trkpt>
      <trkpt lat="47.38289" lon="3.88616">
        <ele>360</ele>
        <time>2014-04-19T07:05:49Z</time>
      </trkpt>
      <trkpt lat="47.38295" lon="3.88629">
        <ele>359</ele>
        <time>2014-04-19T07:06:01Z</time>
      </trkpt>
      <trkpt lat="47.38313" lon="3.88652">
        <ele>359</ele>
        <time>2014-04-19T07:06:21Z</time>
      </trkpt>
      <trkpt lat="47.38351" lon="3.88673">
        <ele>357</ele>
        <time>2014-04-19T07:06:49Z</time>
      </trkpt>
      <trkpt lat="47.38355" lon="3.88678">
        <ele>357</ele>
        <time>2014-04-19T07:06:55Z</time>
      </trkpt>
      <trkpt lat="47.3836" lon="3.88686">
        <ele>357</ele>
        <time>2014-04-19T07:07:01Z</time>
      </trkpt>
      <trkpt lat="47.38365" lon="3.8869">
        <ele>356</ele>
        <time>2014-04-19T07:07:04Z</time>
      </trkpt>
      <trkpt lat="47.38376" lon="3.88705">
        <ele>356</ele>
        <time>2014-04-19T07:07:17Z</time>
      </trkpt>
      <trkpt lat="47.38387" lon="3.8871">
        <ele>356</ele>
        <time>2014-04-19T07:07:25Z</time>
      </trkpt>
      <trkpt lat="47.38391" lon="3.88711">
        <ele>356</ele>
        <time>2014-04-19T07:07:27Z</time>
      </trkpt>
      <trkpt lat="47.38397" lon="3.88713">
        <ele>356</ele>
        <time>2014-04-19T07:07:31Z</time>
      </trkpt>
      <trkpt lat="47.38406" lon="3.88719">
        <ele>356</ele>
        <time>2014-04-19T07:07:40Z</time>
      </trkpt>
      <trkpt lat="47.3841" lon="3.88725">
        <ele>356</ele>
        <time>2014-04-19T07:07:44Z</time>
      </trkpt>
      <trkpt lat="47.38414" lon="3.88729">
        <ele>356</ele>
        <time>2014-04-19T07:07:47Z</time>
      </trkpt>
      <trkpt lat="47.38419" lon="3.8873">
        <ele>353</ele>
        <time>2014-04-19T07:07:51Z</time>
      </trkpt>
      <trkpt lat="47.38425" lon="3.88731">
        <ele>353</ele>
        <time>2014-04-19T07:07:55Z</time>
      </trkpt>
      <trkpt lat="47.3843" lon="3.88735">
        <ele>353</ele>
        <time>2014-04-19T07:08:00Z</time>
      </trkpt>
      <trkpt lat="47.38433" lon="3.8874">
        <ele>353</ele>
        <time>2014-04-19T07:08:04Z</time>
      </trkpt>
      <trkpt lat="47.38435" lon="3.88747">
        <ele>353</ele>
        <time>2014-04-19T07:08:08Z</time>
      </trkpt>
      <trkpt lat="47.38438" lon="3.88752">
        <ele>354</ele>
        <time>2014-04-19T07:08:13Z</time>
      </trkpt>
      <trkpt lat="47.38466" lon="3.88771">
        <ele>354</ele>
        <time>2014-04-19T07:08:37Z</time>
      </trkpt>
      <trkpt lat="47.3847" lon="3.88775">
        <ele>353</ele>
        <time>2014-04-19T07:08:42Z</time>
      </trkpt>
      <trkpt lat="47.38474" lon="3.8878">
        <ele>354</ele>
        <time>2014-04-19T07:08:45Z</time>
      </trkpt>
      <trkpt lat="47.38479" lon="3.88783">
        <ele>353</ele>
        <time>2014-04-19T07:08:51Z</time>
      </trkpt>
      <trkpt lat="47.38484" lon="3.88788">
        <ele>353</ele>
        <time>2014-04-19T07:08:55Z</time>
      </trkpt>
      <trkpt lat="47.38491" lon="3.88798">
        <ele>354</ele>
        <time>2014-04-19T07:09:05Z</time>
      </trkpt>
      <trkpt lat="47.38499" lon="3.88808">
        <ele>354</ele>
        <time>2014-04-19T07:09:13Z</time>
      </trkpt>
      <trkpt lat="47.38508" lon="3.88826">
        <ele>353</ele>
        <time>2014-04-19T07:09:25Z</time>
      </trkpt>
      <trkpt lat="47.3852" lon="3.88855">
        <ele>353</ele>
        <time>2014-04-19T07:09:39Z</time>
      </trkpt>
      <trkpt lat="47.38523" lon="3.8886">
        <ele>353</ele>
        <time>2014-04-19T07:09:43Z</time>
      </trkpt>
      <trkpt lat="47.38522" lon="3.88868">
        <ele>353</ele>
        <time>2014-04-19T07:09:47Z</time>
      </trkpt>
      <trkpt lat="47.38515" lon="3.88879">
        <ele>352</ele>
        <time>2014-04-19T07:09:57Z</time>
      </trkpt>
      <trkpt lat="47.38514" lon="3.88917">
        <ele>350</ele>
        <time>2014-04-19T07:10:17Z</time>
      </trkpt>
      <trkpt lat="47.38516" lon="3.88925">
        <ele>350</ele>
        <time>2014-04-19T07:10:21Z</time>
      </trkpt>
      <trkpt lat="47.38515" lon="3.88941">
        <ele>350</ele>
        <time>2014-04-19T07:10:31Z</time>
      </trkpt>
      <trkpt lat="47.38513" lon="3.88946">
        <ele>350</ele>
        <time>2014-04-19T07:10:52Z</time>
      </trkpt>
      <trkpt lat="47.38511" lon="3.88954">
        <ele>350</ele>
        <time>2014-04-19T07:10:55Z</time>
      </trkpt>
      <trkpt lat="47.38508" lon="3.88961">
        <ele>350</ele>
        <time>2014-04-19T07:10:58Z</time>
      </trkpt>
      <trkpt lat="47.385" lon="3.88971">
        <ele>350</ele>
        <time>2014-04-19T07:11:05Z</time>
      </trkpt>
      <trkpt lat="47.38496" lon="3.88976">
        <ele>350</ele>
        <time>2014-04-19T07:11:10Z</time>
      </trkpt>
      <trkpt lat="47.38493" lon="3.88981">
        <ele>350</ele>
        <time>2014-04-19T07:11:16Z</time>
      </trkpt>
      <trkpt lat="47.38473" lon="3.89009">
        <ele>350</ele>
        <time>2014-04-19T07:11:35Z</time>
      </trkpt>
      <trkpt lat="47.38469" lon="3.89013">
        <ele>350</ele>
        <time>2014-04-19T07:11:40Z</time>
      </trkpt>
      <trkpt lat="47.3846" lon="3.89031">
        <ele>351</ele>
        <time>2014-04-19T07:11:53Z</time>
      </trkpt>
      <trkpt lat="47.38457" lon="3.89036">
        <ele>351</ele>
        <time>2014-04-19T07:11:58Z</time>
      </trkpt>
      <trkpt lat="47.38453" lon="3.89041">
        <ele>351</ele>
        <time>2014-04-19T07:12:05Z</time>
      </trkpt>
      <trkpt lat="47.3845" lon="3.89047">
        <ele>351</ele>
        <time>2014-04-19T07:12:09Z</time>
      </trkpt>
      <trkpt lat="47.38446" lon="3.89053">
        <ele>351</ele>
        <time>2014-04-19T07:12:12Z</time>
      </trkpt>
      <trkpt lat="47.38443" lon="3.8906">
        <ele>351</ele>
        <time>2014-04-19T07:12:15Z</time>
      </trkpt>
      <trkpt lat="47.38441" lon="3.89067">
        <ele>352</ele>
        <time>2014-04-19T07:12:20Z</time>
      </trkpt>
      <trkpt lat="47.38437" lon="3.89074">
        <ele>352</ele>
        <time>2014-04-19T07:12:25Z</time>
      </trkpt>
      <trkpt lat="47.38432" lon="3.89079">
        <ele>352</ele>
        <time>2014-04-19T07:12:29Z</time>
      </trkpt>
      <trkpt lat="47.38411" lon="3.89111">
        <ele>353</ele>
        <time>2014-04-19T07:12:50Z</time>
      </trkpt>
      <trkpt lat="47.38407" lon="3.89114">
        <ele>353</ele>
        <time>2014-04-19T07:12:53Z</time>
      </trkpt>
      <trkpt lat="47.38403" lon="3.89119">
        <ele>353</ele>
        <time>2014-04-19T07:12:58Z</time>
      </trkpt>
      <trkpt lat="47.38399" lon="3.89122">
        <ele>353</ele>
        <time>2014-04-19T07:13:02Z</time>
      </trkpt>
      <trkpt lat="47.38394" lon="3.89127">
        <ele>353</ele>
        <time>2014-04-19T07:13:06Z</time>
      </trkpt>
      <trkpt lat="47.3839" lon="3.89133">
        <ele>352</ele>
        <time>2014-04-19T07:13:09Z</time>
      </trkpt>
      <trkpt lat="47.38385" lon="3.89138">
        <ele>352</ele>
        <time>2014-04-19T07:13:13Z</time>
      </trkpt>
      <trkpt lat="47.3838" lon="3.89141">
        <ele>352</ele>
        <time>2014-04-19T07:13:18Z</time>
      </trkpt>
      <trkpt lat="47.38375" lon="3.89143">
        <ele>352</ele>
        <time>2014-04-19T07:13:24Z</time>
      </trkpt>
      <trkpt lat="47.3837" lon="3.89141">
        <ele>352</ele>
        <time>2014-04-19T07:13:28Z</time>
      </trkpt>
      <trkpt lat="47.38365" lon="3.89144">
        <ele>352</ele>
        <time>2014-04-19T07:13:31Z</time>
      </trkpt>
      <trkpt lat="47.38357" lon="3.89152">
        <ele>352</ele>
        <time>2014-04-19T07:13:39Z</time>
      </trkpt>
      <trkpt lat="47.38352" lon="3.89155">
        <ele>352</ele>
        <time>2014-04-19T07:13:43Z</time>
      </trkpt>
      <trkpt lat="47.38348" lon="3.89158">
        <ele>352</ele>
        <time>2014-04-19T07:13:46Z</time>
      </trkpt>
      <trkpt lat="47.3834" lon="3.89168">
        <ele>351</ele>
        <time>2014-04-19T07:13:53Z</time>
      </trkpt>
      <trkpt lat="47.38335" lon="3.8917">
        <ele>351</ele>
        <time>2014-04-19T07:13:57Z</time>
      </trkpt>
      <trkpt lat="47.3833" lon="3.89173">
        <ele>350</ele>
        <time>2014-04-19T07:14:00Z</time>
      </trkpt>
      <trkpt lat="47.38325" lon="3.89174">
        <ele>350</ele>
        <time>2014-04-19T07:14:04Z</time>
      </trkpt>
      <trkpt lat="47.38321" lon="3.89177">
        <ele>349</ele>
        <time>2014-04-19T07:14:07Z</time>
      </trkpt>
      <trkpt lat="47.38318" lon="3.89183">
        <ele>349</ele>
        <time>2014-04-19T07:14:11Z</time>
      </trkpt>
      <trkpt lat="47.38308" lon="3.89187">
        <ele>348</ele>
        <time>2014-04-19T07:14:18Z</time>
      </trkpt>
      <trkpt lat="47.38303" lon="3.89189">
        <ele>348</ele>
        <time>2014-04-19T07:14:21Z</time>
      </trkpt>
      <trkpt lat="47.38298" lon="3.89191">
        <ele>348</ele>
        <time>2014-04-19T07:14:25Z</time>
      </trkpt>
      <trkpt lat="47.38293" lon="3.89192">
        <ele>347</ele>
        <time>2014-04-19T07:14:31Z</time>
      </trkpt>
      <trkpt lat="47.38288" lon="3.89192">
        <ele>347</ele>
        <time>2014-04-19T07:14:35Z</time>
      </trkpt>
      <trkpt lat="47.38273" lon="3.89199">
        <ele>347</ele>
        <time>2014-04-19T07:14:47Z</time>
      </trkpt>
      <trkpt lat="47.38269" lon="3.89203">
        <ele>346</ele>
        <time>2014-04-19T07:14:51Z</time>
      </trkpt>
      <trkpt lat="47.38264" lon="3.89203">
        <ele>346</ele>
        <time>2014-04-19T07:14:55Z</time>
      </trkpt>
      <trkpt lat="47.38259" lon="3.89203">
        <ele>346</ele>
        <time>2014-04-19T07:14:59Z</time>
      </trkpt>
      <trkpt lat="47.38254" lon="3.89204">
        <ele>346</ele>
        <time>2014-04-19T07:15:03Z</time>
      </trkpt>
      <trkpt lat="47.38249" lon="3.89208">
        <ele>341</ele>
        <time>2014-04-19T07:15:08Z</time>
      </trkpt>
      <trkpt lat="47.38244" lon="3.89211">
        <ele>341</ele>
        <time>2014-04-19T07:15:12Z</time>
      </trkpt>
      <trkpt lat="47.38239" lon="3.89212">
        <ele>341</ele>
        <time>2014-04-19T07:15:14Z</time>
      </trkpt>
      <trkpt lat="47.38235" lon="3.89215">
        <ele>341</ele>
        <time>2014-04-19T07:15:17Z</time>
      </trkpt>
      <trkpt lat="47.38231" lon="3.89218">
        <ele>340</ele>
        <time>2014-04-19T07:15:22Z</time>
      </trkpt>
      <trkpt lat="47.38225" lon="3.89219">
        <ele>340</ele>
        <time>2014-04-19T07:15:27Z</time>
      </trkpt>
      <trkpt lat="47.3822" lon="3.89219">
        <ele>340</ele>
        <time>2014-04-19T07:15:30Z</time>
      </trkpt>
      <trkpt lat="47.38215" lon="3.89222">
        <ele>340</ele>
        <time>2014-04-19T07:15:35Z</time>
      </trkpt>
      <trkpt lat="47.38214" lon="3.89221">
        <ele>339</ele>
        <time>2014-04-19T07:15:58Z</time>
      </trkpt>
      <trkpt lat="47.38195" lon="3.89232">
        <ele>338</ele>
        <time>2014-04-19T07:16:13Z</time>
      </trkpt>
      <trkpt lat="47.38191" lon="3.89236">
        <ele>338</ele>
        <time>2014-04-19T07:16:16Z</time>
      </trkpt>
      <trkpt lat="47.38187" lon="3.89238">
        <ele>337</ele>
        <time>2014-04-19T07:16:19Z</time>
      </trkpt>
      <trkpt lat="47.38178" lon="3.89242">
        <ele>336</ele>
        <time>2014-04-19T07:16:24Z</time>
      </trkpt>
      <trkpt lat="47.38167" lon="3.89248">
        <ele>334</ele>
        <time>2014-04-19T07:16:30Z</time>
      </trkpt>
      <trkpt lat="47.38163" lon="3.89252">
        <ele>333</ele>
        <time>2014-04-19T07:16:32Z</time>
      </trkpt>
      <trkpt lat="47.38161" lon="3.89258">
        <ele>332</ele>
        <time>2014-04-19T07:16:35Z</time>
      </trkpt>
      <trkpt lat="47.38156" lon="3.89264">
        <ele>331</ele>
        <time>2014-04-19T07:16:40Z</time>
      </trkpt>
      <trkpt lat="47.38147" lon="3.89271">
        <ele>330</ele>
        <time>2014-04-19T07:16:47Z</time>
      </trkpt>
      <trkpt lat="47.38141" lon="3.89274">
        <ele>330</ele>
        <time>2014-04-19T07:16:52Z</time>
      </trkpt>
      <trkpt lat="47.3812" lon="3.8929">
        <ele>328</ele>
        <time>2014-04-19T07:17:13Z</time>
      </trkpt>
      <trkpt lat="47.38112" lon="3.89299">
        <ele>328</ele>
        <time>2014-04-19T07:17:21Z</time>
      </trkpt>
      <trkpt lat="47.38099" lon="3.89308">
        <ele>327</ele>
        <time>2014-04-19T07:17:32Z</time>
      </trkpt>
      <trkpt lat="47.38083" lon="3.89314">
        <ele>321</ele>
        <time>2014-04-19T07:17:45Z</time>
      </trkpt>
      <trkpt lat="47.38073" lon="3.89316">
        <ele>321</ele>
        <time>2014-04-19T07:17:52Z</time>
      </trkpt>
      <trkpt lat="47.38063" lon="3.89319">
        <ele>321</ele>
        <time>2014-04-19T07:17:57Z</time>
      </trkpt>
      <trkpt lat="47.38058" lon="3.89321">
        <ele>320</ele>
        <time>2014-04-19T07:18:01Z</time>
      </trkpt>
      <trkpt lat="47.38057" lon="3.89322">
        <ele>320</ele>
        <time>2014-04-19T07:19:11Z</time>
      </trkpt>
      <trkpt lat="47.38062" lon="3.89315">
        <ele>320</ele>
        <time>2014-04-19T07:19:29Z</time>
      </trkpt>
      <trkpt lat="47.38057" lon="3.89313">
        <ele>320</ele>
        <time>2014-04-19T07:20:01Z</time>
      </trkpt>
      <trkpt lat="47.38052" lon="3.8931">
        <ele>320</ele>
        <time>2014-04-19T07:20:04Z</time>
      </trkpt>
      <trkpt lat="47.38046" lon="3.8931">
        <ele>319</ele>
        <time>2014-04-19T07:20:09Z</time>
      </trkpt>
      <trkpt lat="47.38039" lon="3.89312">
        <ele>319</ele>
        <time>2014-04-19T07:20:12Z</time>
      </trkpt>
      <trkpt lat="47.38034" lon="3.89315">
        <ele>318</ele>
        <time>2014-04-19T07:20:15Z</time>
      </trkpt>
      <trkpt lat="47.38029" lon="3.89316">
        <ele>318</ele>
        <time>2014-04-19T07:20:18Z</time>
      </trkpt>
      <trkpt lat="47.38024" lon="3.89317">
        <ele>317</ele>
        <time>2014-04-19T07:20:21Z</time>
      </trkpt>
      <trkpt lat="47.38013" lon="3.89315">
        <ele>317</ele>
        <time>2014-04-19T07:20:27Z</time>
      </trkpt>
      <trkpt lat="47.38008" lon="3.89314">
        <ele>316</ele>
        <time>2014-04-19T07:20:32Z</time>
      </trkpt>
      <trkpt lat="47.38001" lon="3.89315">
        <ele>316</ele>
        <time>2014-04-19T07:20:37Z</time>
      </trkpt>
      <trkpt lat="47.37996" lon="3.89317">
        <ele>311</ele>
        <time>2014-04-19T07:20:43Z</time>
      </trkpt>
      <trkpt lat="47.37991" lon="3.89316">
        <ele>311</ele>
        <time>2014-04-19T07:20:47Z</time>
      </trkpt>
      <trkpt lat="47.37985" lon="3.89312">
        <ele>310</ele>
        <time>2014-04-19T07:20:51Z</time>
      </trkpt>
      <trkpt lat="47.37978" lon="3.89304">
        <ele>309</ele>
        <time>2014-04-19T07:20:59Z</time>
      </trkpt>
      <trkpt lat="47.37973" lon="3.89301">
        <ele>309</ele>
        <time>2014-04-19T07:21:02Z</time>
      </trkpt>
      <trkpt lat="47.37968" lon="3.89299">
        <ele>308</ele>
        <time>2014-04-19T07:21:07Z</time>
      </trkpt>
      <trkpt lat="47.37963" lon="3.89298">
        <ele>308</ele>
        <time>2014-04-19T07:21:10Z</time>
      </trkpt>
      <trkpt lat="47.37957" lon="3.89296">
        <ele>308</ele>
        <time>2014-04-19T07:21:14Z</time>
      </trkpt>
      <trkpt lat="47.3795" lon="3.89288">
        <ele>307</ele>
        <time>2014-04-19T07:21:21Z</time>
      </trkpt>
      <trkpt lat="47.37935" lon="3.89282">
        <ele>306</ele>
        <time>2014-04-19T07:21:32Z</time>
      </trkpt>
      <trkpt lat="47.3793" lon="3.89279">
        <ele>306</ele>
        <time>2014-04-19T07:21:37Z</time>
      </trkpt>
      <trkpt lat="47.37925" lon="3.89275">
        <ele>305</ele>
        <time>2014-04-19T07:21:41Z</time>
      </trkpt>
      <trkpt lat="47.37919" lon="3.89275">
        <ele>305</ele>
        <time>2014-04-19T07:21:43Z</time>
      </trkpt>
      <trkpt lat="47.37914" lon="3.89276">
        <ele>301</ele>
        <time>2014-04-19T07:21:47Z</time>
      </trkpt>
      <trkpt lat="47.37909" lon="3.89276">
        <ele>301</ele>
        <time>2014-04-19T07:21:49Z</time>
      </trkpt>
      <trkpt lat="47.37905" lon="3.89278">
        <ele>301</ele>
        <time>2014-04-19T07:21:53Z</time>
      </trkpt>
      <trkpt lat="47.379" lon="3.89282">
        <ele>300</ele>
        <time>2014-04-19T07:21:57Z</time>
      </trkpt>
      <trkpt lat="47.37894" lon="3.89285">
        <ele>300</ele>
        <time>2014-04-19T07:22:02Z</time>
      </trkpt>
      <trkpt lat="47.37889" lon="3.8929">
        <ele>300</ele>
        <time>2014-04-19T07:22:05Z</time>
      </trkpt>
      <trkpt lat="47.37886" lon="3.89296">
        <ele>300</ele>
        <time>2014-04-19T07:22:07Z</time>
      </trkpt>
      <trkpt lat="47.37882" lon="3.893">
        <ele>300</ele>
        <time>2014-04-19T07:22:13Z</time>
      </trkpt>
      <trkpt lat="47.37877" lon="3.893">
        <ele>300</ele>
        <time>2014-04-19T07:22:18Z</time>
      </trkpt>
      <trkpt lat="47.37859" lon="3.89315">
        <ele>299</ele>
        <time>2014-04-19T07:22:33Z</time>
      </trkpt>
      <trkpt lat="47.37854" lon="3.89313">
        <ele>299</ele>
        <time>2014-04-19T07:22:38Z</time>
      </trkpt>
      <trkpt lat="47.37847" lon="3.89319">
        <ele>299</ele>
        <time>2014-04-19T07:22:42Z</time>
      </trkpt>
      <trkpt lat="47.37843" lon="3.89324">
        <ele>299</ele>
        <time>2014-04-19T07:22:45Z</time>
      </trkpt>
      <trkpt lat="47.37838" lon="3.89325">
        <ele>299</ele>
        <time>2014-04-19T07:22:49Z</time>
      </trkpt>
      <trkpt lat="47.37834" lon="3.89329">
        <ele>298</ele>
        <time>2014-04-19T07:22:56Z</time>
      </trkpt>
      <trkpt lat="47.3783" lon="3.89334">
        <ele>299</ele>
        <time>2014-04-19T07:23:04Z</time>
      </trkpt>
      <trkpt lat="47.37825" lon="3.89336">
        <ele>299</ele>
        <time>2014-04-19T07:23:08Z</time>
      </trkpt>
      <trkpt lat="47.37821" lon="3.89339">
        <ele>300</ele>
        <time>2014-04-19T07:23:14Z</time>
      </trkpt>
      <trkpt lat="47.37814" lon="3.89343">
        <ele>301</ele>
        <time>2014-04-19T07:23:24Z</time>
      </trkpt>
      <trkpt lat="47.37811" lon="3.89347">
        <ele>301</ele>
        <time>2014-04-19T07:23:31Z</time>
      </trkpt>
      <trkpt lat="47.37808" lon="3.89353">
        <ele>302</ele>
        <time>2014-04-19T07:23:37Z</time>
      </trkpt>
      <trkpt lat="47.37791" lon="3.89366">
        <ele>303</ele>
        <time>2014-04-19T07:23:55Z</time>
      </trkpt>
      <trkpt lat="47.37787" lon="3.89371">
        <ele>303</ele>
        <time>2014-04-19T07:24:00Z</time>
      </trkpt>
      <trkpt lat="47.3779" lon="3.89376">
        <ele>303</ele>
        <time>2014-04-19T07:24:15Z</time>
      </trkpt>
      <trkpt lat="47.37782" lon="3.89384">
        <ele>304</ele>
        <time>2014-04-19T07:24:37Z</time>
      </trkpt>
      <trkpt lat="47.37776" lon="3.89389">
        <ele>304</ele>
        <time>2014-04-19T07:24:39Z</time>
      </trkpt>
      <trkpt lat="47.37771" lon="3.89388">
        <ele>305</ele>
        <time>2014-04-19T07:24:42Z</time>
      </trkpt>
      <trkpt lat="47.37767" lon="3.89391">
        <ele>305</ele>
        <time>2014-04-19T07:24:48Z</time>
      </trkpt>
      <trkpt lat="47.37763" lon="3.89397">
        <ele>306</ele>
        <time>2014-04-19T07:24:53Z</time>
      </trkpt>
      <trkpt lat="47.37759" lon="3.89403">
        <ele>307</ele>
        <time>2014-04-19T07:25:04Z</time>
      </trkpt>
      <trkpt lat="47.37765" lon="3.89407">
        <ele>306</ele>
        <time>2014-04-19T07:25:13Z</time>
      </trkpt>
      <trkpt lat="47.37764" lon="3.89409">
        <ele>307</ele>
        <time>2014-04-19T07:25:28Z</time>
      </trkpt>
      <trkpt lat="47.37759" lon="3.89409">
        <ele>307</ele>
        <time>2014-04-19T07:25:31Z</time>
      </trkpt>
      <trkpt lat="47.37761" lon="3.89407">
        <ele>307</ele>
        <time>2014-04-19T07:25:53Z</time>
      </trkpt>
      <trkpt lat="47.37759" lon="3.89407">
        <ele>307</ele>
        <time>2014-04-19T07:26:28Z</time>
      </trkpt>
      <trkpt lat="47.37758" lon="3.8941">
        <ele>308</ele>
        <time>2014-04-19T07:27:10Z</time>
      </trkpt>
      <trkpt lat="47.37753" lon="3.89419">
        <ele>309</ele>
        <time>2014-04-19T07:28:38Z</time>
      </trkpt>
      <trkpt lat="47.37744" lon="3.89425">
        <ele>313</ele>
        <time>2014-04-19T07:28:45Z</time>
      </trkpt>
      <trkpt lat="47.37738" lon="3.89427">
        <ele>314</ele>
        <time>2014-04-19T07:28:47Z</time>
      </trkpt>
      <trkpt lat="47.37733" lon="3.89428">
        <ele>315</ele>
        <time>2014-04-19T07:28:51Z</time>
      </trkpt>
      <trkpt lat="47.37727" lon="3.89431">
        <ele>316</ele>
        <time>2014-04-19T07:28:55Z</time>
      </trkpt>
      <trkpt lat="47.37723" lon="3.89434">
        <ele>316</ele>
        <time>2014-04-19T07:28:59Z</time>
      </trkpt>
      <trkpt lat="47.3772" lon="3.8944">
        <ele>317</ele>
        <time>2014-04-19T07:29:05Z</time>
      </trkpt>
      <trkpt lat="47.37719" lon="3.89455">
        <ele>317</ele>
        <time>2014-04-19T07:29:14Z</time>
      </trkpt>
      <trkpt lat="47.37717" lon="3.89461">
        <ele>318</ele>
        <time>2014-04-19T07:29:23Z</time>
      </trkpt>
      <trkpt lat="47.37712" lon="3.89463">
        <ele>318</ele>
        <time>2014-04-19T07:29:30Z</time>
      </trkpt>
      <trkpt lat="47.37716" lon="3.89468">
        <ele>318</ele>
        <time>2014-04-19T07:29:37Z</time>
      </trkpt>
      <trkpt lat="47.37715" lon="3.89475">
        <ele>318</ele>
        <time>2014-04-19T07:29:43Z</time>
      </trkpt>
      <trkpt lat="47.3771" lon="3.89479">
        <ele>318</ele>
        <time>2014-04-19T07:29:48Z</time>
      </trkpt>
      <trkpt lat="47.3771" lon="3.89487">
        <ele>319</ele>
        <time>2014-04-19T07:29:56Z</time>
      </trkpt>
      <trkpt lat="47.37707" lon="3.89493">
        <ele>319</ele>
        <time>2014-04-19T07:30:02Z</time>
      </trkpt>
      <trkpt lat="47.37705" lon="3.89499">
        <ele>319</ele>
        <time>2014-04-19T07:30:10Z</time>
      </trkpt>
      <trkpt lat="47.37703" lon="3.89506">
        <ele>322</ele>
        <time>2014-04-19T07:30:15Z</time>
      </trkpt>
      <trkpt lat="47.37701" lon="3.89509">
        <ele>322</ele>
        <time>2014-04-19T07:30:21Z</time>
      </trkpt>
      <trkpt lat="47.37701" lon="3.89517">
        <ele>322</ele>
        <time>2014-04-19T07:30:31Z</time>
      </trkpt>
      <trkpt lat="47.37697" lon="3.89522">
        <ele>323</ele>
        <time>2014-04-19T07:30:37Z</time>
      </trkpt>
      <trkpt lat="47.37686" lon="3.89545">
        <ele>324</ele>
        <time>2014-04-19T07:30:54Z</time>
      </trkpt>
      <trkpt lat="47.37683" lon="3.89554">
        <ele>325</ele>
        <time>2014-04-19T07:31:00Z</time>
      </trkpt>
      <trkpt lat="47.37684" lon="3.89561">
        <ele>326</ele>
        <time>2014-04-19T07:31:06Z</time>
      </trkpt>
      <trkpt lat="47.37681" lon="3.89571">
        <ele>328</ele>
        <time>2014-04-19T07:31:17Z</time>
      </trkpt>
      <trkpt lat="47.37677" lon="3.89577">
        <ele>330</ele>
        <time>2014-04-19T07:31:28Z</time>
      </trkpt>
      <trkpt lat="47.37672" lon="3.89581">
        <ele>333</ele>
        <time>2014-04-19T07:31:32Z</time>
      </trkpt>
      <trkpt lat="47.37668" lon="3.89581">
        <ele>335</ele>
        <time>2014-04-19T07:31:36Z</time>
      </trkpt>
      <trkpt lat="47.37664" lon="3.89583">
        <ele>336</ele>
        <time>2014-04-19T07:31:51Z</time>
      </trkpt>
      <trkpt lat="47.37663" lon="3.8959">
        <ele>337</ele>
        <time>2014-04-19T07:31:57Z</time>
      </trkpt>
      <trkpt lat="47.37659" lon="3.89594">
        <ele>337</ele>
        <time>2014-04-19T07:32:01Z</time>
      </trkpt>
      <trkpt lat="47.37656" lon="3.896">
        <ele>338</ele>
        <time>2014-04-19T07:32:07Z</time>
      </trkpt>
      <trkpt lat="47.37654" lon="3.89606">
        <ele>338</ele>
        <time>2014-04-19T07:32:09Z</time>
      </trkpt>
      <trkpt lat="47.37651" lon="3.89613">
        <ele>338</ele>
        <time>2014-04-19T07:32:12Z</time>
      </trkpt>
      <trkpt lat="47.37647" lon="3.89617">
        <ele>338</ele>
        <time>2014-04-19T07:32:16Z</time>
      </trkpt>
      <trkpt lat="47.37642" lon="3.89617">
        <ele>338</ele>
        <time>2014-04-19T07:32:21Z</time>
      </trkpt>
      <trkpt lat="47.37639" lon="3.89622">
        <ele>338</ele>
        <time>2014-04-19T07:32:24Z</time>
      </trkpt>
      <trkpt lat="47.37636" lon="3.89628">
        <ele>338</ele>
        <time>2014-04-19T07:32:32Z</time>
      </trkpt>
      <trkpt lat="47.37635" lon="3.89633">
        <ele>338</ele>
        <time>2014-04-19T07:32:56Z</time>
      </trkpt>
      <trkpt lat="47.37626" lon="3.89639">
        <ele>339</ele>
        <time>2014-04-19T07:33:09Z</time>
      </trkpt>
      <trkpt lat="47.3762" lon="3.89638">
        <ele>339</ele>
        <time>2014-04-19T07:33:13Z</time>
      </trkpt>
      <trkpt lat="47.3761" lon="3.89639">
        <ele>340</ele>
        <time>2014-04-19T07:33:19Z</time>
      </trkpt>
      <trkpt lat="47.37605" lon="3.8964">
        <ele>340</ele>
        <time>2014-04-19T07:33:24Z</time>
      </trkpt>
      <trkpt lat="47.37601" lon="3.89642">
        <ele>340</ele>
        <time>2014-04-19T07:33:28Z</time>
      </trkpt>
      <trkpt lat="47.37591" lon="3.89646">
        <ele>340</ele>
        <time>2014-04-19T07:33:37Z</time>
      </trkpt>
      <trkpt lat="47.37586" lon="3.89648">
        <ele>341</ele>
        <time>2014-04-19T07:33:40Z</time>
      </trkpt>
      <trkpt lat="47.37582" lon="3.89652">
        <ele>343</ele>
        <time>2014-04-19T07:33:44Z</time>
      </trkpt>
      <trkpt lat="47.37577" lon="3.89655">
        <ele>343</ele>
        <time>2014-04-19T07:33:48Z</time>
      </trkpt>
      <trkpt lat="47.37573" lon="3.89659">
        <ele>343</ele>
        <time>2014-04-19T07:33:52Z</time>
      </trkpt>
      <trkpt lat="47.37568" lon="3.8966">
        <ele>343</ele>
        <time>2014-04-19T07:33:56Z</time>
      </trkpt>
      <trkpt lat="47.37564" lon="3.8966">
        <ele>343</ele>
        <time>2014-04-19T07:33:59Z</time>
      </trkpt>
      <trkpt lat="47.37559" lon="3.89661">
        <ele>343</ele>
        <time>2014-04-19T07:34:04Z</time>
      </trkpt>
      <trkpt lat="47.37554" lon="3.89662">
        <ele>343</ele>
        <time>2014-04-19T07:34:10Z</time>
      </trkpt>
      <trkpt lat="47.3755" lon="3.89665">
        <ele>343</ele>
        <time>2014-04-19T07:34:13Z</time>
      </trkpt>
      <trkpt lat="47.37545" lon="3.8967">
        <ele>342</ele>
        <time>2014-04-19T07:34:18Z</time>
      </trkpt>
      <trkpt lat="47.3754" lon="3.89673">
        <ele>342</ele>
        <time>2014-04-19T07:34:22Z</time>
      </trkpt>
      <trkpt lat="47.37537" lon="3.89678">
        <ele>342</ele>
        <time>2014-04-19T07:34:28Z</time>
      </trkpt>
      <trkpt lat="47.37528" lon="3.89683">
        <ele>342</ele>
        <time>2014-04-19T07:34:41Z</time>
      </trkpt>
      <trkpt lat="47.37524" lon="3.8969">
        <ele>342</ele>
        <time>2014-04-19T07:34:46Z</time>
      </trkpt>
      <trkpt lat="47.37521" lon="3.89695">
        <ele>342</ele>
        <time>2014-04-19T07:34:51Z</time>
      </trkpt>
      <trkpt lat="47.37514" lon="3.89707">
        <ele>342</ele>
        <time>2014-04-19T07:34:59Z</time>
      </trkpt>
      <trkpt lat="47.37511" lon="3.89723">
        <ele>342</ele>
        <time>2014-04-19T07:35:07Z</time>
      </trkpt>
      <trkpt lat="47.37508" lon="3.89729">
        <ele>342</ele>
        <time>2014-04-19T07:35:11Z</time>
      </trkpt>
      <trkpt lat="47.37505" lon="3.89736">
        <ele>342</ele>
        <time>2014-04-19T07:35:15Z</time>
      </trkpt>
      <trkpt lat="47.37502" lon="3.89743">
        <ele>342</ele>
        <time>2014-04-19T07:35:20Z</time>
      </trkpt>
      <trkpt lat="47.37498" lon="3.8976">
        <ele>345</ele>
        <time>2014-04-19T07:35:36Z</time>
      </trkpt>
      <trkpt lat="47.37495" lon="3.89767">
        <ele>346</ele>
        <time>2014-04-19T07:35:44Z</time>
      </trkpt>
      <trkpt lat="47.37491" lon="3.89772">
        <ele>347</ele>
        <time>2014-04-19T07:35:50Z</time>
      </trkpt>
      <trkpt lat="47.37487" lon="3.89776">
        <ele>347</ele>
        <time>2014-04-19T07:35:53Z</time>
      </trkpt>
      <trkpt lat="47.37473" lon="3.89796">
        <ele>349</ele>
        <time>2014-04-19T07:36:13Z</time>
      </trkpt>
      <trkpt lat="47.37468" lon="3.898">
        <ele>349</ele>
        <time>2014-04-19T07:36:19Z</time>
      </trkpt>
      <trkpt lat="47.37464" lon="3.89804">
        <ele>350</ele>
        <time>2014-04-19T07:36:25Z</time>
      </trkpt>
      <trkpt lat="47.3746" lon="3.89808">
        <ele>350</ele>
        <time>2014-04-19T07:36:28Z</time>
      </trkpt>
      <trkpt lat="47.37455" lon="3.89811">
        <ele>350</ele>
        <time>2014-04-19T07:36:33Z</time>
      </trkpt>
      <trkpt lat="47.3745" lon="3.89812">
        <ele>350</ele>
        <time>2014-04-19T07:36:37Z</time>
      </trkpt>
      <trkpt lat="47.37445" lon="3.89812">
        <ele>351</ele>
        <time>2014-04-19T07:36:41Z</time>
      </trkpt>
      <trkpt lat="47.37442" lon="3.89814">
        <ele>351</ele>
        <time>2014-04-19T07:36:52Z</time>
      </trkpt>
      <trkpt lat="47.37438" lon="3.89813">
        <ele>351</ele>
        <time>2014-04-19T07:36:55Z</time>
      </trkpt>
      <trkpt lat="47.37433" lon="3.89813">
        <ele>351</ele>
        <time>2014-04-19T07:36:59Z</time>
      </trkpt>
      <trkpt lat="47.37429" lon="3.89818">
        <ele>352</ele>
        <time>2014-04-19T07:37:03Z</time>
      </trkpt>
      <trkpt lat="47.37423" lon="3.89818">
        <ele>352</ele>
        <time>2014-04-19T07:37:08Z</time>
      </trkpt>
      <trkpt lat="47.37418" lon="3.89821">
        <ele>353</ele>
        <time>2014-04-19T07:37:10Z</time>
      </trkpt>
      <trkpt lat="47.37414" lon="3.89825">
        <ele>356</ele>
        <time>2014-04-19T07:37:15Z</time>
      </trkpt>
      <trkpt lat="47.37411" lon="3.8983">
        <ele>355</ele>
        <time>2014-04-19T07:37:20Z</time>
      </trkpt>
      <trkpt lat="47.37409" lon="3.89837">
        <ele>355</ele>
        <time>2014-04-19T07:37:27Z</time>
      </trkpt>
      <trkpt lat="47.37402" lon="3.89849">
        <ele>355</ele>
        <time>2014-04-19T07:37:38Z</time>
      </trkpt>
      <trkpt lat="47.374" lon="3.89855">
        <ele>355</ele>
        <time>2014-04-19T07:37:42Z</time>
      </trkpt>
      <trkpt lat="47.37393" lon="3.89864">
        <ele>355</ele>
        <time>2014-04-19T07:37:49Z</time>
      </trkpt>
      <trkpt lat="47.37389" lon="3.89868">
        <ele>355</ele>
        <time>2014-04-19T07:37:55Z</time>
      </trkpt>
      <trkpt lat="47.37376" lon="3.89878">
        <ele>355</ele>
        <time>2014-04-19T07:38:07Z</time>
      </trkpt>
      <trkpt lat="47.37367" lon="3.89883">
        <ele>355</ele>
        <time>2014-04-19T07:38:16Z</time>
      </trkpt>
      <trkpt lat="47.37363" lon="3.89888">
        <ele>355</ele>
        <time>2014-04-19T07:38:20Z</time>
      </trkpt>
      <trkpt lat="47.37359" lon="3.89892">
        <ele>355</ele>
        <time>2014-04-19T07:38:26Z</time>
      </trkpt>
      <trkpt lat="47.37354" lon="3.89894">
        <ele>355</ele>
        <time>2014-04-19T07:38:30Z</time>
      </trkpt>
      <trkpt lat="47.37349" lon="3.89895">
        <ele>355</ele>
        <time>2014-04-19T07:38:33Z</time>
      </trkpt>
      <trkpt lat="47.37344" lon="3.89896">
        <ele>355</ele>
        <time>2014-04-19T07:38:36Z</time>
      </trkpt>
      <trkpt lat="47.3733" lon="3.89902">
        <ele>354</ele>
        <time>2014-04-19T07:38:47Z</time>
      </trkpt>
      <trkpt lat="47.37315" lon="3.89905">
        <ele>354</ele>
        <time>2014-04-19T07:38:58Z</time>
      </trkpt>
      <trkpt lat="47.37309" lon="3.89905">
        <ele>353</ele>
        <time>2014-04-19T07:39:02Z</time>
      </trkpt>
      <trkpt lat="47.37293" lon="3.89907">
        <ele>353</ele>
        <time>2014-04-19T07:39:13Z</time>
      </trkpt>
      <trkpt lat="47.37289" lon="3.89908">
        <ele>352</ele>
        <time>2014-04-19T07:39:16Z</time>
      </trkpt>
      <trkpt lat="47.37279" lon="3.89913">
        <ele>351</ele>
        <time>2014-04-19T07:39:22Z</time>
      </trkpt>
      <trkpt lat="47.37253" lon="3.89922">
        <ele>345</ele>
        <time>2014-04-19T07:39:40Z</time>
      </trkpt>
      <trkpt lat="47.37249" lon="3.89925">
        <ele>344</ele>
        <time>2014-04-19T07:39:43Z</time>
      </trkpt>
      <trkpt lat="47.37228" lon="3.89934">
        <ele>341</ele>
        <time>2014-04-19T07:40:05Z</time>
      </trkpt>
      <trkpt lat="47.37224" lon="3.89938">
        <ele>341</ele>
        <time>2014-04-19T07:40:08Z</time>
      </trkpt>
      <trkpt lat="47.37216" lon="3.89949">
        <ele>340</ele>
        <time>2014-04-19T07:40:16Z</time>
      </trkpt>
      <trkpt lat="47.37204" lon="3.89959">
        <ele>339</ele>
        <time>2014-04-19T07:40:29Z</time>
      </trkpt>
      <trkpt lat="47.37198" lon="3.89962">
        <ele>339</ele>
        <time>2014-04-19T07:40:34Z</time>
      </trkpt>
      <trkpt lat="47.37189" lon="3.8997">
        <ele>338</ele>
        <time>2014-04-19T07:40:42Z</time>
      </trkpt>
      <trkpt lat="47.37184" lon="3.89973">
        <ele>338</ele>
        <time>2014-04-19T07:40:45Z</time>
      </trkpt>
      <trkpt lat="47.37179" lon="3.89975">
        <ele>338</ele>
        <time>2014-04-19T07:40:50Z</time>
      </trkpt>
      <trkpt lat="47.3717" lon="3.89983">
        <ele>337</ele>
        <time>2014-04-19T07:40:58Z</time>
      </trkpt>
      <trkpt lat="47.37161" lon="3.89992">
        <ele>336</ele>
        <time>2014-04-19T07:41:06Z</time>
      </trkpt>
      <trkpt lat="47.37149" lon="3.90007">
        <ele>333</ele>
        <time>2014-04-19T07:41:18Z</time>
      </trkpt>
      <trkpt lat="47.3712" lon="3.90063">
        <ele>331</ele>
        <time>2014-04-19T07:42:21Z</time>
      </trkpt>
      <trkpt lat="47.37119" lon="3.9007">
        <ele>331</ele>
        <time>2014-04-19T07:42:25Z</time>
      </trkpt>
      <trkpt lat="47.37101" lon="3.90114">
        <ele>327</ele>
        <time>2014-04-19T07:42:48Z</time>
      </trkpt>
      <trkpt lat="47.37098" lon="3.90128">
        <ele>327</ele>
        <time>2014-04-19T07:42:54Z</time>
      </trkpt>
      <trkpt lat="47.37097" lon="3.90142">
        <ele>327</ele>
        <time>2014-04-19T07:43:01Z</time>
      </trkpt>
      <trkpt lat="47.37098" lon="3.90151">
        <ele>327</ele>
        <time>2014-04-19T07:43:04Z</time>
      </trkpt>
      <trkpt lat="47.37098" lon="3.90174">
        <ele>325</ele>
        <time>2014-04-19T07:43:14Z</time>
      </trkpt>
      <trkpt lat="47.371" lon="3.90181">
        <ele>325</ele>
        <time>2014-04-19T07:43:17Z</time>
      </trkpt>
      <trkpt lat="47.37101" lon="3.90189">
        <ele>325</ele>
        <time>2014-04-19T07:43:21Z</time>
      </trkpt>
      <trkpt lat="47.371" lon="3.90202">
        <ele>325</ele>
        <time>2014-04-19T07:43:28Z</time>
      </trkpt>
      <trkpt lat="47.37101" lon="3.9021">
        <ele>324</ele>
        <time>2014-04-19T07:43:32Z</time>
      </trkpt>
      <trkpt lat="47.37104" lon="3.90226">
        <ele>324</ele>
        <time>2014-04-19T07:43:40Z</time>
      </trkpt>
      <trkpt lat="47.37102" lon="3.90249">
        <ele>325</ele>
        <time>2014-04-19T07:43:51Z</time>
      </trkpt>
      <trkpt lat="47.371" lon="3.90258">
        <ele>323</ele>
        <time>2014-04-19T07:43:56Z</time>
      </trkpt>
      <trkpt lat="47.37097" lon="3.90265">
        <ele>323</ele>
        <time>2014-04-19T07:44:00Z</time>
      </trkpt>
      <trkpt lat="47.37094" lon="3.9027">
        <ele>323</ele>
        <time>2014-04-19T07:44:03Z</time>
      </trkpt>
      <trkpt lat="47.37091" lon="3.90276">
        <ele>323</ele>
        <time>2014-04-19T07:44:08Z</time>
      </trkpt>
      <trkpt lat="47.37082" lon="3.90296">
        <ele>322</ele>
        <time>2014-04-19T07:44:19Z</time>
      </trkpt>
      <trkpt lat="47.37076" lon="3.90307">
        <ele>321</ele>
        <time>2014-04-19T07:44:27Z</time>
      </trkpt>
      <trkpt lat="47.37068" lon="3.90314">
        <ele>321</ele>
        <time>2014-04-19T07:44:36Z</time>
      </trkpt>
      <trkpt lat="47.37063" lon="3.90316">
        <ele>321</ele>
        <time>2014-04-19T07:44:39Z</time>
      </trkpt>
      <trkpt lat="47.37046" lon="3.90321">
        <ele>320</ele>
        <time>2014-04-19T07:44:50Z</time>
      </trkpt>
      <trkpt lat="47.37041" lon="3.90322">
        <ele>320</ele>
        <time>2014-04-19T07:44:53Z</time>
      </trkpt>
      <trkpt lat="47.3703" lon="3.90318">
        <ele>320</ele>
        <time>2014-04-19T07:45:09Z</time>
      </trkpt>
      <trkpt lat="47.3702" lon="3.90311">
        <ele>319</ele>
        <time>2014-04-19T07:45:20Z</time>
      </trkpt>
      <trkpt lat="47.37015" lon="3.90312">
        <ele>319</ele>
        <time>2014-04-19T07:45:22Z</time>
      </trkpt>
      <trkpt lat="47.3701" lon="3.90312">
        <ele>319</ele>
        <time>2014-04-19T07:45:27Z</time>
      </trkpt>
      <trkpt lat="47.37004" lon="3.90311">
        <ele>319</ele>
        <time>2014-04-19T07:45:30Z</time>
      </trkpt>
      <trkpt lat="47.36995" lon="3.90309">
        <ele>315</ele>
        <time>2014-04-19T07:45:39Z</time>
      </trkpt>
      <trkpt lat="47.36989" lon="3.90307">
        <ele>315</ele>
        <time>2014-04-19T07:45:43Z</time>
      </trkpt>
      <trkpt lat="47.36979" lon="3.90304">
        <ele>315</ele>
        <time>2014-04-19T07:45:50Z</time>
      </trkpt>
      <trkpt lat="47.36949" lon="3.90291">
        <ele>314</ele>
        <time>2014-04-19T07:46:09Z</time>
      </trkpt>
      <trkpt lat="47.36935" lon="3.90287">
        <ele>314</ele>
        <time>2014-04-19T07:46:24Z</time>
      </trkpt>
      <trkpt lat="47.36898" lon="3.90277">
        <ele>312</ele>
        <time>2014-04-19T07:46:49Z</time>
      </trkpt>
      <trkpt lat="47.36893" lon="3.90275">
        <ele>312</ele>
        <time>2014-04-19T07:46:53Z</time>
      </trkpt>
      <trkpt lat="47.36888" lon="3.90274">
        <ele>312</ele>
        <time>2014-04-19T07:46:56Z</time>
      </trkpt>
      <trkpt lat="47.36857" lon="3.90271">
        <ele>312</ele>
        <time>2014-04-19T07:47:26Z</time>
      </trkpt>
      <trkpt lat="47.36847" lon="3.90276">
        <ele>312</ele>
        <time>2014-04-19T07:47:34Z</time>
      </trkpt>
      <trkpt lat="47.36842" lon="3.90279">
        <ele>312</ele>
        <time>2014-04-19T07:47:38Z</time>
      </trkpt>
      <trkpt lat="47.36828" lon="3.90298">
        <ele>319</ele>
        <time>2014-04-19T07:47:53Z</time>
      </trkpt>
      <trkpt lat="47.36824" lon="3.90302">
        <ele>319</ele>
        <time>2014-04-19T07:47:55Z</time>
      </trkpt>
      <trkpt lat="47.3682" lon="3.90306">
        <ele>319</ele>
        <time>2014-04-19T07:47:59Z</time>
      </trkpt>
      <trkpt lat="47.36817" lon="3.90311">
        <ele>319</ele>
        <time>2014-04-19T07:48:01Z</time>
      </trkpt>
      <trkpt lat="47.36815" lon="3.90319">
        <ele>318</ele>
        <time>2014-04-19T07:48:05Z</time>
      </trkpt>
      <trkpt lat="47.36811" lon="3.90324">
        <ele>319</ele>
        <time>2014-04-19T07:48:10Z</time>
      </trkpt>
      <trkpt lat="47.36808" lon="3.9033">
        <ele>319</ele>
        <time>2014-04-19T07:48:15Z</time>
      </trkpt>
      <trkpt lat="47.36806" lon="3.90337">
        <ele>315</ele>
        <time>2014-04-19T07:48:19Z</time>
      </trkpt>
      <trkpt lat="47.36803" lon="3.90342">
        <ele>316</ele>
        <time>2014-04-19T07:48:24Z</time>
      </trkpt>
      <trkpt lat="47.36793" lon="3.9036">
        <ele>317</ele>
        <time>2014-04-19T07:48:36Z</time>
      </trkpt>
      <trkpt lat="47.36789" lon="3.90364">
        <ele>317</ele>
        <time>2014-04-19T07:48:41Z</time>
      </trkpt>
      <trkpt lat="47.36782" lon="3.90376">
        <ele>317</ele>
        <time>2014-04-19T07:48:48Z</time>
      </trkpt>
      <trkpt lat="47.36779" lon="3.90381">
        <ele>317</ele>
        <time>2014-04-19T07:48:51Z</time>
      </trkpt>
      <trkpt lat="47.36773" lon="3.90394">
        <ele>317</ele>
        <time>2014-04-19T07:49:01Z</time>
      </trkpt>
      <trkpt lat="47.36772" lon="3.90402">
        <ele>317</ele>
        <time>2014-04-19T07:49:06Z</time>
      </trkpt>
      <trkpt lat="47.36751" lon="3.90423">
        <ele>317</ele>
        <time>2014-04-19T07:49:22Z</time>
      </trkpt>
      <trkpt lat="47.36743" lon="3.90433">
        <ele>320</ele>
        <time>2014-04-19T07:49:27Z</time>
      </trkpt>
      <trkpt lat="47.36739" lon="3.90438">
        <ele>320</ele>
        <time>2014-04-19T07:49:32Z</time>
      </trkpt>
      <trkpt lat="47.36731" lon="3.90448">
        <ele>320</ele>
        <time>2014-04-19T07:49:40Z</time>
      </trkpt>
      <trkpt lat="47.36726" lon="3.90452">
        <ele>320</ele>
        <time>2014-04-19T07:49:43Z</time>
      </trkpt>
      <trkpt lat="47.36717" lon="3.90457">
        <ele>321</ele>
        <time>2014-04-19T07:49:52Z</time>
      </trkpt>
      <trkpt lat="47.36709" lon="3.90468">
        <ele>320</ele>
        <time>2014-04-19T07:50:09Z</time>
      </trkpt>
      <trkpt lat="47.36704" lon="3.90469">
        <ele>320</ele>
        <time>2014-04-19T07:50:12Z</time>
      </trkpt>
      <trkpt lat="47.36682" lon="3.90483">
        <ele>320</ele>
        <time>2014-04-19T07:50:28Z</time>
      </trkpt>
      <trkpt lat="47.36661" lon="3.90492">
        <ele>320</ele>
        <time>2014-04-19T07:50:43Z</time>
      </trkpt>
      <trkpt lat="47.36655" lon="3.90494">
        <ele>321</ele>
        <time>2014-04-19T07:50:47Z</time>
      </trkpt>
      <trkpt lat="47.36651" lon="3.90498">
        <ele>322</ele>
        <time>2014-04-19T07:50:51Z</time>
      </trkpt>
      <trkpt lat="47.36641" lon="3.90502">
        <ele>313</ele>
        <time>2014-04-19T07:50:58Z</time>
      </trkpt>
      <trkpt lat="47.36636" lon="3.90502">
        <ele>313</ele>
        <time>2014-04-19T07:51:03Z</time>
      </trkpt>
      <trkpt lat="47.36631" lon="3.905">
        <ele>313</ele>
        <time>2014-04-19T07:51:08Z</time>
      </trkpt>
      <trkpt lat="47.36626" lon="3.90501">
        <ele>313</ele>
        <time>2014-04-19T07:51:13Z</time>
      </trkpt>
      <trkpt lat="47.36599" lon="3.90511">
        <ele>315</ele>
        <time>2014-04-19T07:51:30Z</time>
      </trkpt>
      <trkpt lat="47.36594" lon="3.90512">
        <ele>315</ele>
        <time>2014-04-19T07:51:33Z</time>
      </trkpt>
      <trkpt lat="47.36583" lon="3.90512">
        <ele>317</ele>
        <time>2014-04-19T07:51:39Z</time>
      </trkpt>
      <trkpt lat="47.36578" lon="3.90513">
        <ele>316</ele>
        <time>2014-04-19T07:51:44Z</time>
      </trkpt>
      <trkpt lat="47.36573" lon="3.90515">
        <ele>316</ele>
        <time>2014-04-19T07:51:49Z</time>
      </trkpt>
      <trkpt lat="47.36568" lon="3.90516">
        <ele>315</ele>
        <time>2014-04-19T07:51:53Z</time>
      </trkpt>
      <trkpt lat="47.36557" lon="3.90517">
        <ele>314</ele>
        <time>2014-04-19T07:52:01Z</time>
      </trkpt>
      <trkpt lat="47.36546" lon="3.90516">
        <ele>314</ele>
        <time>2014-04-19T07:52:09Z</time>
      </trkpt>
      <trkpt lat="47.36532" lon="3.9051">
        <ele>315</ele>
        <time>2014-04-19T07:52:25Z</time>
      </trkpt>
      <trkpt lat="47.36526" lon="3.90507">
        <ele>315</ele>
        <time>2014-04-19T07:52:29Z</time>
      </trkpt>
      <trkpt lat="47.36522" lon="3.90505">
        <ele>315</ele>
        <time>2014-04-19T07:52:33Z</time>
      </trkpt>
      <trkpt lat="47.36517" lon="3.90503">
        <ele>316</ele>
        <time>2014-04-19T07:52:37Z</time>
      </trkpt>
      <trkpt lat="47.36503" lon="3.90499">
        <ele>320</ele>
        <time>2014-04-19T07:52:46Z</time>
      </trkpt>
      <trkpt lat="47.36498" lon="3.905">
        <ele>319</ele>
        <time>2014-04-19T07:52:51Z</time>
      </trkpt>
      <trkpt lat="47.36492" lon="3.90501">
        <ele>318</ele>
        <time>2014-04-19T07:52:55Z</time>
      </trkpt>
      <trkpt lat="47.36488" lon="3.90502">
        <ele>318</ele>
        <time>2014-04-19T07:52:59Z</time>
      </trkpt>
      <trkpt lat="47.36483" lon="3.90503">
        <ele>318</ele>
        <time>2014-04-19T07:53:05Z</time>
      </trkpt>
      <trkpt lat="47.36478" lon="3.90503">
        <ele>318</ele>
        <time>2014-04-19T07:53:09Z</time>
      </trkpt>
      <trkpt lat="47.36469" lon="3.90508">
        <ele>318</ele>
        <time>2014-04-19T07:53:14Z</time>
      </trkpt>
      <trkpt lat="47.36465" lon="3.90512">
        <ele>318</ele>
        <time>2014-04-19T07:53:19Z</time>
      </trkpt>
      <trkpt lat="47.36461" lon="3.90514">
        <ele>318</ele>
        <time>2014-04-19T07:53:28Z</time>
      </trkpt>
      <trkpt lat="47.36456" lon="3.90515">
        <ele>319</ele>
        <time>2014-04-19T07:53:36Z</time>
      </trkpt>
      <trkpt lat="47.36447" lon="3.90514">
        <ele>320</ele>
        <time>2014-04-19T07:53:46Z</time>
      </trkpt>
      <trkpt lat="47.36425" lon="3.90524">
        <ele>321</ele>
        <time>2014-04-19T07:54:01Z</time>
      </trkpt>
      <trkpt lat="47.3642" lon="3.90524">
        <ele>321</ele>
        <time>2014-04-19T07:54:05Z</time>
      </trkpt>
      <trkpt lat="47.36409" lon="3.90528">
        <ele>324</ele>
        <time>2014-04-19T07:54:11Z</time>
      </trkpt>
      <trkpt lat="47.364" lon="3.90519">
        <ele>325</ele>
        <time>2014-04-19T07:54:16Z</time>
      </trkpt>
      <trkpt lat="47.36395" lon="3.9052">
        <ele>325</ele>
        <time>2014-04-19T07:54:21Z</time>
      </trkpt>
      <trkpt lat="47.3639" lon="3.90525">
        <ele>324</ele>
        <time>2014-04-19T07:54:25Z</time>
      </trkpt>
      <trkpt lat="47.36386" lon="3.90527">
        <ele>324</ele>
        <time>2014-04-19T07:54:28Z</time>
      </trkpt>
      <trkpt lat="47.36381" lon="3.9053">
        <ele>324</ele>
        <time>2014-04-19T07:54:35Z</time>
      </trkpt>
      <trkpt lat="47.36377" lon="3.90535">
        <ele>324</ele>
        <time>2014-04-19T07:54:36Z</time>
      </trkpt>
      <trkpt lat="47.36373" lon="3.90539">
        <ele>324</ele>
        <time>2014-04-19T07:54:40Z</time>
      </trkpt>
      <trkpt lat="47.36369" lon="3.90542">
        <ele>324</ele>
        <time>2014-04-19T07:54:43Z</time>
      </trkpt>
      <trkpt lat="47.36363" lon="3.90543">
        <ele>324</ele>
        <time>2014-04-19T07:54:46Z</time>
      </trkpt>
      <trkpt lat="47.36341" lon="3.90547">
        <ele>324</ele>
        <time>2014-04-19T07:55:01Z</time>
      </trkpt>
      <trkpt lat="47.36337" lon="3.9055">
        <ele>324</ele>
        <time>2014-04-19T07:55:05Z</time>
      </trkpt>
      <trkpt lat="47.36335" lon="3.90553">
        <ele>324</ele>
        <time>2014-04-19T07:55:22Z</time>
      </trkpt>
      <trkpt lat="47.36332" lon="3.90572">
        <ele>323</ele>
        <time>2014-04-19T07:55:35Z</time>
      </trkpt>
      <trkpt lat="47.36325" lon="3.90596">
        <ele>319</ele>
        <time>2014-04-19T07:55:54Z</time>
      </trkpt>
      <trkpt lat="47.36316" lon="3.90608">
        <ele>318</ele>
        <time>2014-04-19T07:55:57Z</time>
      </trkpt>
      <trkpt lat="47.36307" lon="3.90627">
        <ele>316</ele>
        <time>2014-04-19T07:56:02Z</time>
      </trkpt>
      <trkpt lat="47.36298" lon="3.9065">
        <ele>315</ele>
        <time>2014-04-19T07:56:14Z</time>
      </trkpt>
      <trkpt lat="47.36296" lon="3.90659">
        <ele>314</ele>
        <time>2014-04-19T07:56:19Z</time>
      </trkpt>
      <trkpt lat="47.36302" lon="3.90671">
        <ele>308</ele>
        <time>2014-04-19T07:56:29Z</time>
      </trkpt>
      <trkpt lat="47.36304" lon="3.90677">
        <ele>308</ele>
        <time>2014-04-19T07:56:34Z</time>
      </trkpt>
      <trkpt lat="47.36302" lon="3.90685">
        <ele>308</ele>
        <time>2014-04-19T07:56:39Z</time>
      </trkpt>
      <trkpt lat="47.36299" lon="3.90691">
        <ele>307</ele>
        <time>2014-04-19T07:56:45Z</time>
      </trkpt>
      <trkpt lat="47.36294" lon="3.90695">
        <ele>307</ele>
        <time>2014-04-19T07:56:48Z</time>
      </trkpt>
      <trkpt lat="47.36289" lon="3.90695">
        <ele>307</ele>
        <time>2014-04-19T07:56:55Z</time>
      </trkpt>
      <trkpt lat="47.36283" lon="3.90694">
        <ele>307</ele>
        <time>2014-04-19T07:57:00Z</time>
      </trkpt>
      <trkpt lat="47.36278" lon="3.90695">
        <ele>307</ele>
        <time>2014-04-19T07:57:04Z</time>
      </trkpt>
      <trkpt lat="47.36274" lon="3.90695">
        <ele>307</ele>
        <time>2014-04-19T07:57:06Z</time>
      </trkpt>
      <trkpt lat="47.36268" lon="3.90697">
        <ele>307</ele>
        <time>2014-04-19T07:57:10Z</time>
      </trkpt>
      <trkpt lat="47.36259" lon="3.90704">
        <ele>307</ele>
        <time>2014-04-19T07:57:18Z</time>
      </trkpt>
      <trkpt lat="47.36253" lon="3.90705">
        <ele>307</ele>
        <time>2014-04-19T07:57:22Z</time>
      </trkpt>
      <trkpt lat="47.36249" lon="3.90708">
        <ele>305</ele>
        <time>2014-04-19T07:57:26Z</time>
      </trkpt>
      <trkpt lat="47.36245" lon="3.90713">
        <ele>305</ele>
        <time>2014-04-19T07:57:28Z</time>
      </trkpt>
      <trkpt lat="47.36236" lon="3.9073">
        <ele>303</ele>
        <time>2014-04-19T07:57:37Z</time>
      </trkpt>
      <trkpt lat="47.36235" lon="3.90737">
        <ele>303</ele>
        <time>2014-04-19T07:57:40Z</time>
      </trkpt>
      <trkpt lat="47.36233" lon="3.90751">
        <ele>300</ele>
        <time>2014-04-19T07:57:47Z</time>
      </trkpt>
      <trkpt lat="47.36212" lon="3.90827">
        <ele>298</ele>
        <time>2014-04-19T07:58:36Z</time>
      </trkpt>
      <trkpt lat="47.36194" lon="3.9087">
        <ele>294</ele>
        <time>2014-04-19T07:59:05Z</time>
      </trkpt>
      <trkpt lat="47.36186" lon="3.90882">
        <ele>294</ele>
        <time>2014-04-19T07:59:12Z</time>
      </trkpt>
      <trkpt lat="47.3618" lon="3.90887">
        <ele>293</ele>
        <time>2014-04-19T07:59:15Z</time>
      </trkpt>
      <trkpt lat="47.36176" lon="3.9089">
        <ele>293</ele>
        <time>2014-04-19T07:59:18Z</time>
      </trkpt>
      <trkpt lat="47.36167" lon="3.90894">
        <ele>290</ele>
        <time>2014-04-19T07:59:25Z</time>
      </trkpt>
      <trkpt lat="47.36162" lon="3.90894">
        <ele>290</ele>
        <time>2014-04-19T07:59:27Z</time>
      </trkpt>
      <trkpt lat="47.36157" lon="3.90895">
        <ele>290</ele>
        <time>2014-04-19T07:59:31Z</time>
      </trkpt>
      <trkpt lat="47.3616" lon="3.90895">
        <ele>290</ele>
        <time>2014-04-19T07:59:48Z</time>
      </trkpt>
      <trkpt lat="47.36165" lon="3.90894">
        <ele>290</ele>
        <time>2014-04-19T07:59:51Z</time>
      </trkpt>
      <trkpt lat="47.3617" lon="3.90893">
        <ele>293</ele>
        <time>2014-04-19T07:59:55Z</time>
      </trkpt>
      <trkpt lat="47.36175" lon="3.9089">
        <ele>293</ele>
        <time>2014-04-19T08:00:00Z</time>
      </trkpt>
      <trkpt lat="47.36185" lon="3.90882">
        <ele>294</ele>
        <time>2014-04-19T08:00:08Z</time>
      </trkpt>
      <trkpt lat="47.3619" lon="3.90878">
        <ele>294</ele>
        <time>2014-04-19T08:00:11Z</time>
      </trkpt>
      <trkpt lat="47.36191" lon="3.90884">
        <ele>294</ele>
        <time>2014-04-19T08:00:16Z</time>
      </trkpt>
      <trkpt lat="47.36191" lon="3.90893">
        <ele>293</ele>
        <time>2014-04-19T08:00:21Z</time>
      </trkpt>
      <trkpt lat="47.3619" lon="3.90901">
        <ele>293</ele>
        <time>2014-04-19T08:00:24Z</time>
      </trkpt>
      <trkpt lat="47.36189" lon="3.90917">
        <ele>293</ele>
        <time>2014-04-19T08:00:33Z</time>
      </trkpt>
      <trkpt lat="47.36187" lon="3.90931">
        <ele>290</ele>
        <time>2014-04-19T08:00:40Z</time>
      </trkpt>
      <trkpt lat="47.36184" lon="3.90938">
        <ele>289</ele>
        <time>2014-04-19T08:00:45Z</time>
      </trkpt>
      <trkpt lat="47.36181" lon="3.90944">
        <ele>289</ele>
        <time>2014-04-19T08:00:51Z</time>
      </trkpt>
      <trkpt lat="47.36173" lon="3.90953">
        <ele>289</ele>
        <time>2014-04-19T08:00:59Z</time>
      </trkpt>
      <trkpt lat="47.3617" lon="3.90959">
        <ele>288</ele>
        <time>2014-04-19T08:01:04Z</time>
      </trkpt>
      <trkpt lat="47.36167" lon="3.90967">
        <ele>288</ele>
        <time>2014-04-19T08:01:09Z</time>
      </trkpt>
      <trkpt lat="47.36165" lon="3.90972">
        <ele>286</ele>
        <time>2014-04-19T08:01:12Z</time>
      </trkpt>
      <trkpt lat="47.36163" lon="3.90979">
        <ele>286</ele>
        <time>2014-04-19T08:01:18Z</time>
      </trkpt>
      <trkpt lat="47.36163" lon="3.90994">
        <ele>285</ele>
        <time>2014-04-19T08:01:24Z</time>
      </trkpt>
      <trkpt lat="47.36161" lon="3.91001">
        <ele>284</ele>
        <time>2014-04-19T08:01:28Z</time>
      </trkpt>
      <trkpt lat="47.3616" lon="3.91009">
        <ele>284</ele>
        <time>2014-04-19T08:01:33Z</time>
      </trkpt>
      <trkpt lat="47.36156" lon="3.91023">
        <ele>283</ele>
        <time>2014-04-19T08:01:41Z</time>
      </trkpt>
      <trkpt lat="47.36152" lon="3.91044">
        <ele>282</ele>
        <time>2014-04-19T08:01:54Z</time>
      </trkpt>
      <trkpt lat="47.36153" lon="3.91059">
        <ele>281</ele>
        <time>2014-04-19T08:02:05Z</time>
      </trkpt>
      <trkpt lat="47.36154" lon="3.91066">
        <ele>280</ele>
        <time>2014-04-19T08:02:08Z</time>
      </trkpt>
      <trkpt lat="47.36153" lon="3.91073">
        <ele>280</ele>
        <time>2014-04-19T08:02:14Z</time>
      </trkpt>
      <trkpt lat="47.36148" lon="3.91086">
        <ele>278</ele>
        <time>2014-04-19T08:02:23Z</time>
      </trkpt>
      <trkpt lat="47.36148" lon="3.91103">
        <ele>278</ele>
        <time>2014-04-19T08:02:31Z</time>
      </trkpt>
      <trkpt lat="47.36149" lon="3.91107">
        <ele>278</ele>
        <time>2014-04-19T08:02:38Z</time>
      </trkpt>
      <trkpt lat="47.36142" lon="3.91116">
        <ele>278</ele>
        <time>2014-04-19T08:02:54Z</time>
      </trkpt>
      <trkpt lat="47.3614" lon="3.91131">
        <ele>278</ele>
        <time>2014-04-19T08:03:01Z</time>
      </trkpt>
      <trkpt lat="47.36134" lon="3.91153">
        <ele>278</ele>
        <time>2014-04-19T08:03:14Z</time>
      </trkpt>
      <trkpt lat="47.3613" lon="3.91175">
        <ele>278</ele>
        <time>2014-04-19T08:03:25Z</time>
      </trkpt>
      <trkpt lat="47.3613" lon="3.91182">
        <ele>278</ele>
        <time>2014-04-19T08:03:31Z</time>
      </trkpt>
      <trkpt lat="47.36127" lon="3.91207">
        <ele>279</ele>
        <time>2014-04-19T08:04:01Z</time>
      </trkpt>
      <trkpt lat="47.36129" lon="3.91222">
        <ele>279</ele>
        <time>2014-04-19T08:04:09Z</time>
      </trkpt>
      <trkpt lat="47.36131" lon="3.91229">
        <ele>280</ele>
        <time>2014-04-19T08:04:15Z</time>
      </trkpt>
      <trkpt lat="47.36132" lon="3.91236">
        <ele>280</ele>
        <time>2014-04-19T08:04:19Z</time>
      </trkpt>
      <trkpt lat="47.36134" lon="3.91243">
        <ele>280</ele>
        <time>2014-04-19T08:04:24Z</time>
      </trkpt>
      <trkpt lat="47.36137" lon="3.9125">
        <ele>280</ele>
        <time>2014-04-19T08:04:29Z</time>
      </trkpt>
      <trkpt lat="47.36139" lon="3.91256">
        <ele>283</ele>
        <time>2014-04-19T08:04:33Z</time>
      </trkpt>
      <trkpt lat="47.36141" lon="3.91262">
        <ele>283</ele>
        <time>2014-04-19T08:04:41Z</time>
      </trkpt>
      <trkpt lat="47.36147" lon="3.91264">
        <ele>283</ele>
        <time>2014-04-19T08:04:48Z</time>
      </trkpt>
      <trkpt lat="47.36151" lon="3.91261">
        <ele>283</ele>
        <time>2014-04-19T08:04:52Z</time>
      </trkpt>
      <trkpt lat="47.36161" lon="3.91257">
        <ele>284</ele>
        <time>2014-04-19T08:05:02Z</time>
      </trkpt>
      <trkpt lat="47.36167" lon="3.91256">
        <ele>285</ele>
        <time>2014-04-19T08:05:07Z</time>
      </trkpt>
      <trkpt lat="47.36177" lon="3.91261">
        <ele>286</ele>
        <time>2014-04-19T08:05:18Z</time>
      </trkpt>
      <trkpt lat="47.36181" lon="3.91265">
        <ele>287</ele>
        <time>2014-04-19T08:05:23Z</time>
      </trkpt>
      <trkpt lat="47.36187" lon="3.91271">
        <ele>287</ele>
        <time>2014-04-19T08:05:33Z</time>
      </trkpt>
      <trkpt lat="47.3619" lon="3.91278">
        <ele>288</ele>
        <time>2014-04-19T08:05:38Z</time>
      </trkpt>
      <trkpt lat="47.36196" lon="3.91301">
        <ele>289</ele>
        <time>2014-04-19T08:06:00Z</time>
      </trkpt>
      <trkpt lat="47.36197" lon="3.91308">
        <ele>289</ele>
        <time>2014-04-19T08:06:04Z</time>
      </trkpt>
      <trkpt lat="47.36195" lon="3.91322">
        <ele>290</ele>
        <time>2014-04-19T08:06:14Z</time>
      </trkpt>
      <trkpt lat="47.36198" lon="3.91329">
        <ele>290</ele>
        <time>2014-04-19T08:06:21Z</time>
      </trkpt>
      <trkpt lat="47.36201" lon="3.91331">
        <ele>290</ele>
        <time>2014-04-19T08:06:39Z</time>
      </trkpt>
      <trkpt lat="47.36204" lon="3.91338">
        <ele>294</ele>
        <time>2014-04-19T08:06:54Z</time>
      </trkpt>
      <trkpt lat="47.36209" lon="3.91339">
        <ele>294</ele>
        <time>2014-04-19T08:06:58Z</time>
      </trkpt>
      <trkpt lat="47.36213" lon="3.91342">
        <ele>294</ele>
        <time>2014-04-19T08:07:02Z</time>
      </trkpt>
      <trkpt lat="47.3622" lon="3.91345">
        <ele>294</ele>
        <time>2014-04-19T08:07:14Z</time>
      </trkpt>
      <trkpt lat="47.36222" lon="3.91352">
        <ele>295</ele>
        <time>2014-04-19T08:08:03Z</time>
      </trkpt>
      <trkpt lat="47.36225" lon="3.91358">
        <ele>295</ele>
        <time>2014-04-19T08:08:07Z</time>
      </trkpt>
      <trkpt lat="47.36229" lon="3.91372">
        <ele>295</ele>
        <time>2014-04-19T08:08:16Z</time>
      </trkpt>
      <trkpt lat="47.3624" lon="3.91387">
        <ele>297</ele>
        <time>2014-04-19T08:08:30Z</time>
      </trkpt>
      <trkpt lat="47.36246" lon="3.91402">
        <ele>298</ele>
        <time>2014-04-19T08:08:43Z</time>
      </trkpt>
      <trkpt lat="47.36243" lon="3.91408">
        <ele>299</ele>
        <time>2014-04-19T08:08:48Z</time>
      </trkpt>
      <trkpt lat="47.36244" lon="3.91416">
        <ele>300</ele>
        <time>2014-04-19T08:08:53Z</time>
      </trkpt>
      <trkpt lat="47.36241" lon="3.91423">
        <ele>301</ele>
        <time>2014-04-19T08:08:59Z</time>
      </trkpt>
      <trkpt lat="47.36243" lon="3.9143">
        <ele>301</ele>
        <time>2014-04-19T08:09:04Z</time>
      </trkpt>
      <trkpt lat="47.36247" lon="3.91434">
        <ele>301</ele>
        <time>2014-04-19T08:09:09Z</time>
      </trkpt>
      <trkpt lat="47.36252" lon="3.91438">
        <ele>305</ele>
        <time>2014-04-19T08:09:14Z</time>
      </trkpt>
      <trkpt lat="47.36255" lon="3.91444">
        <ele>306</ele>
        <time>2014-04-19T08:09:19Z</time>
      </trkpt>
      <trkpt lat="47.36259" lon="3.91444">
        <ele>306</ele>
        <time>2014-04-19T08:09:27Z</time>
      </trkpt>
      <trkpt lat="47.36263" lon="3.91444">
        <ele>306</ele>
        <time>2014-04-19T08:09:38Z</time>
      </trkpt>
      <trkpt lat="47.36267" lon="3.91441">
        <ele>306</ele>
        <time>2014-04-19T08:09:43Z</time>
      </trkpt>
      <trkpt lat="47.36272" lon="3.91444">
        <ele>306</ele>
        <time>2014-04-19T08:09:47Z</time>
      </trkpt>
      <trkpt lat="47.36275" lon="3.9145">
        <ele>306</ele>
        <time>2014-04-19T08:09:51Z</time>
      </trkpt>
      <trkpt lat="47.36281" lon="3.91459">
        <ele>307</ele>
        <time>2014-04-19T08:10:03Z</time>
      </trkpt>
      <trkpt lat="47.3628" lon="3.91473">
        <ele>308</ele>
        <time>2014-04-19T08:10:51Z</time>
      </trkpt>
      <trkpt lat="47.36278" lon="3.9148">
        <ele>308</ele>
        <time>2014-04-19T08:10:55Z</time>
      </trkpt>
      <trkpt lat="47.36275" lon="3.91485">
        <ele>308</ele>
        <time>2014-04-19T08:10:59Z</time>
      </trkpt>
      <trkpt lat="47.36272" lon="3.9149">
        <ele>308</ele>
        <time>2014-04-19T08:11:03Z</time>
      </trkpt>
      <trkpt lat="47.36271" lon="3.91497">
        <ele>308</ele>
        <time>2014-04-19T08:11:07Z</time>
      </trkpt>
      <trkpt lat="47.36271" lon="3.91505">
        <ele>313</ele>
        <time>2014-04-19T08:11:21Z</time>
      </trkpt>
      <trkpt lat="47.36262" lon="3.91523">
        <ele>314</ele>
        <time>2014-04-19T08:11:36Z</time>
      </trkpt>
      <trkpt lat="47.3626" lon="3.91529">
        <ele>314</ele>
        <time>2014-04-19T08:11:40Z</time>
      </trkpt>
      <trkpt lat="47.36257" lon="3.9155">
        <ele>315</ele>
        <time>2014-04-19T08:11:53Z</time>
      </trkpt>
      <trkpt lat="47.36256" lon="3.91557">
        <ele>315</ele>
        <time>2014-04-19T08:11:58Z</time>
      </trkpt>
      <trkpt lat="47.36256" lon="3.91603">
        <ele>321</ele>
        <time>2014-04-19T08:12:31Z</time>
      </trkpt>
      <trkpt lat="47.36261" lon="3.91619">
        <ele>323</ele>
        <time>2014-04-19T08:13:06Z</time>
      </trkpt>
      <trkpt lat="47.36263" lon="3.91625">
        <ele>323</ele>
        <time>2014-04-19T08:13:11Z</time>
      </trkpt>
      <trkpt lat="47.36266" lon="3.91631">
        <ele>324</ele>
        <time>2014-04-19T08:13:15Z</time>
      </trkpt>
      <trkpt lat="47.36269" lon="3.91646">
        <ele>324</ele>
        <time>2014-04-19T08:13:26Z</time>
      </trkpt>
      <trkpt lat="47.36268" lon="3.91653">
        <ele>324</ele>
        <time>2014-04-19T08:13:32Z</time>
      </trkpt>
      <trkpt lat="47.3627" lon="3.9166">
        <ele>324</ele>
        <time>2014-04-19T08:13:38Z</time>
      </trkpt>
      <trkpt lat="47.3627" lon="3.91667">
        <ele>328</ele>
        <time>2014-04-19T08:13:43Z</time>
      </trkpt>
      <trkpt lat="47.36272" lon="3.91674">
        <ele>329</ele>
        <time>2014-04-19T08:13:47Z</time>
      </trkpt>
      <trkpt lat="47.36274" lon="3.91681">
        <ele>330</ele>
        <time>2014-04-19T08:13:53Z</time>
      </trkpt>
      <trkpt lat="47.36277" lon="3.91694">
        <ele>331</ele>
        <time>2014-04-19T08:14:06Z</time>
      </trkpt>
      <trkpt lat="47.36277" lon="3.91709">
        <ele>332</ele>
        <time>2014-04-19T08:14:16Z</time>
      </trkpt>
      <trkpt lat="47.3628" lon="3.91724">
        <ele>332</ele>
        <time>2014-04-19T08:14:25Z</time>
      </trkpt>
      <trkpt lat="47.36281" lon="3.91741">
        <ele>332</ele>
        <time>2014-04-19T08:14:53Z</time>
      </trkpt>
      <trkpt lat="47.36285" lon="3.91754">
        <ele>336</ele>
        <time>2014-04-19T08:14:59Z</time>
      </trkpt>
      <trkpt lat="47.36288" lon="3.9176">
        <ele>337</ele>
        <time>2014-04-19T08:15:05Z</time>
      </trkpt>
      <trkpt lat="47.36289" lon="3.91775">
        <ele>337</ele>
        <time>2014-04-19T08:15:15Z</time>
      </trkpt>
      <trkpt lat="47.36291" lon="3.91782">
        <ele>337</ele>
        <time>2014-04-19T08:15:19Z</time>
      </trkpt>
      <trkpt lat="47.36294" lon="3.91796">
        <ele>338</ele>
        <time>2014-04-19T08:15:27Z</time>
      </trkpt>
      <trkpt lat="47.36294" lon="3.91804">
        <ele>338</ele>
        <time>2014-04-19T08:15:32Z</time>
      </trkpt>
      <trkpt lat="47.36295" lon="3.91812">
        <ele>339</ele>
        <time>2014-04-19T08:15:36Z</time>
      </trkpt>
      <trkpt lat="47.36296" lon="3.91819">
        <ele>339</ele>
        <time>2014-04-19T08:15:41Z</time>
      </trkpt>
      <trkpt lat="47.36297" lon="3.91827">
        <ele>339</ele>
        <time>2014-04-19T08:15:47Z</time>
      </trkpt>
      <trkpt lat="47.36299" lon="3.91833">
        <ele>340</ele>
        <time>2014-04-19T08:15:51Z</time>
      </trkpt>
      <trkpt lat="47.363" lon="3.91841">
        <ele>343</ele>
        <time>2014-04-19T08:15:54Z</time>
      </trkpt>
      <trkpt lat="47.36299" lon="3.91848">
        <ele>342</ele>
        <time>2014-04-19T08:16:00Z</time>
      </trkpt>
      <trkpt lat="47.36296" lon="3.9185">
        <ele>342</ele>
        <time>2014-04-19T08:16:10Z</time>
      </trkpt>
      <trkpt lat="47.36296" lon="3.91859">
        <ele>342</ele>
        <time>2014-04-19T08:16:54Z</time>
      </trkpt>
      <trkpt lat="47.36298" lon="3.91865">
        <ele>342</ele>
        <time>2014-04-19T08:16:58Z</time>
      </trkpt>
      <trkpt lat="47.36299" lon="3.91873">
        <ele>343</ele>
        <time>2014-04-19T08:17:02Z</time>
      </trkpt>
      <trkpt lat="47.36298" lon="3.9188">
        <ele>343</ele>
        <time>2014-04-19T08:17:05Z</time>
      </trkpt>
      <trkpt lat="47.36299" lon="3.91888">
        <ele>343</ele>
        <time>2014-04-19T08:17:11Z</time>
      </trkpt>
      <trkpt lat="47.363" lon="3.91894">
        <ele>344</ele>
        <time>2014-04-19T08:17:15Z</time>
      </trkpt>
      <trkpt lat="47.36303" lon="3.91929">
        <ele>348</ele>
        <time>2014-04-19T08:17:37Z</time>
      </trkpt>
      <trkpt lat="47.36306" lon="3.9193">
        <ele>348</ele>
        <time>2014-04-19T08:17:43Z</time>
      </trkpt>
      <trkpt lat="47.36304" lon="3.91937">
        <ele>348</ele>
        <time>2014-04-19T08:17:49Z</time>
      </trkpt>
      <trkpt lat="47.36303" lon="3.91944">
        <ele>348</ele>
        <time>2014-04-19T08:17:53Z</time>
      </trkpt>
      <trkpt lat="47.36305" lon="3.91958">
        <ele>349</ele>
        <time>2014-04-19T08:18:00Z</time>
      </trkpt>
      <trkpt lat="47.36303" lon="3.91965">
        <ele>349</ele>
        <time>2014-04-19T08:18:06Z</time>
      </trkpt>
      <trkpt lat="47.36296" lon="3.91973">
        <ele>349</ele>
        <time>2014-04-19T08:18:17Z</time>
      </trkpt>
      <trkpt lat="47.36295" lon="3.9198">
        <ele>349</ele>
        <time>2014-04-19T08:18:25Z</time>
      </trkpt>
      <trkpt lat="47.36294" lon="3.91986">
        <ele>349</ele>
        <time>2014-04-19T08:18:28Z</time>
      </trkpt>
      <trkpt lat="47.36287" lon="3.91997">
        <ele>349</ele>
        <time>2014-04-19T08:18:42Z</time>
      </trkpt>
      <trkpt lat="47.3628" lon="3.92021">
        <ele>354</ele>
        <time>2014-04-19T08:19:10Z</time>
      </trkpt>
      <trkpt lat="47.36278" lon="3.9204">
        <ele>355</ele>
        <time>2014-04-19T08:19:16Z</time>
      </trkpt>
      <trkpt lat="47.36279" lon="3.92045">
        <ele>355</ele>
        <time>2014-04-19T08:19:17Z</time>
      </trkpt>
      <trkpt lat="47.36277" lon="3.92051">
        <ele>355</ele>
        <time>2014-04-19T08:19:24Z</time>
      </trkpt>
      <trkpt lat="47.36272" lon="3.92056">
        <ele>355</ele>
        <time>2014-04-19T08:19:27Z</time>
      </trkpt>
      <trkpt lat="47.36267" lon="3.92059">
        <ele>355</ele>
        <time>2014-04-19T08:19:30Z</time>
      </trkpt>
      <trkpt lat="47.36264" lon="3.92063">
        <ele>355</ele>
        <time>2014-04-19T08:19:33Z</time>
      </trkpt>
      <trkpt lat="47.36262" lon="3.9207">
        <ele>355</ele>
        <time>2014-04-19T08:19:41Z</time>
      </trkpt>
      <trkpt lat="47.36264" lon="3.92077">
        <ele>355</ele>
        <time>2014-04-19T08:19:48Z</time>
      </trkpt>
      <trkpt lat="47.36255" lon="3.92096">
        <ele>359</ele>
        <time>2014-04-19T08:20:01Z</time>
      </trkpt>
      <trkpt lat="47.36252" lon="3.9211">
        <ele>361</ele>
        <time>2014-04-19T08:20:09Z</time>
      </trkpt>
      <trkpt lat="47.36257" lon="3.92136">
        <ele>363</ele>
        <time>2014-04-19T08:20:36Z</time>
      </trkpt>
      <trkpt lat="47.36258" lon="3.92144">
        <ele>364</ele>
        <time>2014-04-19T08:20:39Z</time>
      </trkpt>
      <trkpt lat="47.36258" lon="3.92152">
        <ele>364</ele>
        <time>2014-04-19T08:20:44Z</time>
      </trkpt>
      <trkpt lat="47.36258" lon="3.92158">
        <ele>364</ele>
        <time>2014-04-19T08:20:50Z</time>
      </trkpt>
      <trkpt lat="47.3626" lon="3.92165">
        <ele>364</ele>
        <time>2014-04-19T08:20:58Z</time>
      </trkpt>
      <trkpt lat="47.36257" lon="3.92188">
        <ele>369</ele>
        <time>2014-04-19T08:21:12Z</time>
      </trkpt>
      <trkpt lat="47.36254" lon="3.92194">
        <ele>370</ele>
        <time>2014-04-19T08:21:18Z</time>
      </trkpt>
      <trkpt lat="47.36253" lon="3.92201">
        <ele>371</ele>
        <time>2014-04-19T08:21:22Z</time>
      </trkpt>
      <trkpt lat="47.36253" lon="3.92219">
        <ele>372</ele>
        <time>2014-04-19T08:21:36Z</time>
      </trkpt>
      <trkpt lat="47.36252" lon="3.92222">
        <ele>373</ele>
        <time>2014-04-19T08:21:48Z</time>
      </trkpt>
      <trkpt lat="47.3625" lon="3.92235">
        <ele>373</ele>
        <time>2014-04-19T08:21:57Z</time>
      </trkpt>
      <trkpt lat="47.36246" lon="3.92239">
        <ele>371</ele>
        <time>2014-04-19T08:22:03Z</time>
      </trkpt>
      <trkpt lat="47.36242" lon="3.92244">
        <ele>371</ele>
        <time>2014-04-19T08:22:07Z</time>
      </trkpt>
      <trkpt lat="47.36239" lon="3.9225">
        <ele>371</ele>
        <time>2014-04-19T08:22:10Z</time>
      </trkpt>
      <trkpt lat="47.36236" lon="3.92258">
        <ele>374</ele>
        <time>2014-04-19T08:22:20Z</time>
      </trkpt>
      <trkpt lat="47.36229" lon="3.92269">
        <ele>375</ele>
        <time>2014-04-19T08:22:30Z</time>
      </trkpt>
      <trkpt lat="47.36225" lon="3.92271">
        <ele>375</ele>
        <time>2014-04-19T08:22:35Z</time>
      </trkpt>
      <trkpt lat="47.36221" lon="3.92275">
        <ele>375</ele>
        <time>2014-04-19T08:22:39Z</time>
      </trkpt>
      <trkpt lat="47.36214" lon="3.92288">
        <ele>375</ele>
        <time>2014-04-19T08:22:45Z</time>
      </trkpt>
      <trkpt lat="47.3621" lon="3.92292">
        <ele>375</ele>
        <time>2014-04-19T08:22:48Z</time>
      </trkpt>
      <trkpt lat="47.36208" lon="3.92299">
        <ele>376</ele>
        <time>2014-04-19T08:22:55Z</time>
      </trkpt>
      <trkpt lat="47.36204" lon="3.92303">
        <ele>376</ele>
        <time>2014-04-19T08:22:59Z</time>
      </trkpt>
      <trkpt lat="47.36199" lon="3.92308">
        <ele>376</ele>
        <time>2014-04-19T08:23:02Z</time>
      </trkpt>
      <trkpt lat="47.36195" lon="3.92312">
        <ele>376</ele>
        <time>2014-04-19T08:23:10Z</time>
      </trkpt>
      <trkpt lat="47.36192" lon="3.92318">
        <ele>376</ele>
        <time>2014-04-19T08:23:14Z</time>
      </trkpt>
      <trkpt lat="47.36188" lon="3.92325">
        <ele>377</ele>
        <time>2014-04-19T08:23:29Z</time>
      </trkpt>
      <trkpt lat="47.36182" lon="3.92329">
        <ele>377</ele>
        <time>2014-04-19T08:23:33Z</time>
      </trkpt>
      <trkpt lat="47.36179" lon="3.92335">
        <ele>380</ele>
        <time>2014-04-19T08:23:36Z</time>
      </trkpt>
      <trkpt lat="47.36178" lon="3.92342">
        <ele>381</ele>
        <time>2014-04-19T08:23:39Z</time>
      </trkpt>
      <trkpt lat="47.36175" lon="3.9235">
        <ele>381</ele>
        <time>2014-04-19T08:23:45Z</time>
      </trkpt>
      <trkpt lat="47.36164" lon="3.92368">
        <ele>382</ele>
        <time>2014-04-19T08:23:56Z</time>
      </trkpt>
      <trkpt lat="47.36161" lon="3.92381">
        <ele>383</ele>
        <time>2014-04-19T08:24:05Z</time>
      </trkpt>
      <trkpt lat="47.36162" lon="3.92388">
        <ele>384</ele>
        <time>2014-04-19T08:24:09Z</time>
      </trkpt>
      <trkpt lat="47.36163" lon="3.92395">
        <ele>384</ele>
        <time>2014-04-19T08:24:14Z</time>
      </trkpt>
      <trkpt lat="47.3616" lon="3.92401">
        <ele>385</ele>
        <time>2014-04-19T08:24:21Z</time>
      </trkpt>
      <trkpt lat="47.36157" lon="3.92407">
        <ele>385</ele>
        <time>2014-04-19T08:24:24Z</time>
      </trkpt>
      <trkpt lat="47.36155" lon="3.92414">
        <ele>385</ele>
        <time>2014-04-19T08:24:26Z</time>
      </trkpt>
      <trkpt lat="47.36151" lon="3.92418">
        <ele>387</ele>
        <time>2014-04-19T08:24:33Z</time>
      </trkpt>
      <trkpt lat="47.36131" lon="3.92454">
        <ele>389</ele>
        <time>2014-04-19T08:24:59Z</time>
      </trkpt>
      <trkpt lat="47.36128" lon="3.9246">
        <ele>389</ele>
        <time>2014-04-19T08:25:03Z</time>
      </trkpt>
      <trkpt lat="47.36125" lon="3.92466">
        <ele>389</ele>
        <time>2014-04-19T08:25:09Z</time>
      </trkpt>
      <trkpt lat="47.36123" lon="3.92474">
        <ele>389</ele>
        <time>2014-04-19T08:25:13Z</time>
      </trkpt>
      <trkpt lat="47.36111" lon="3.92489">
        <ele>390</ele>
        <time>2014-04-19T08:25:24Z</time>
      </trkpt>
      <trkpt lat="47.36108" lon="3.925">
        <ele>390</ele>
        <time>2014-04-19T08:25:37Z</time>
      </trkpt>
      <trkpt lat="47.36102" lon="3.92513">
        <ele>393</ele>
        <time>2014-04-19T08:25:47Z</time>
      </trkpt>
      <trkpt lat="47.36101" lon="3.92519">
        <ele>393</ele>
        <time>2014-04-19T08:25:51Z</time>
      </trkpt>
      <trkpt lat="47.36093" lon="3.92528">
        <ele>393</ele>
        <time>2014-04-19T08:26:01Z</time>
      </trkpt>
      <trkpt lat="47.36091" lon="3.92534">
        <ele>394</ele>
        <time>2014-04-19T08:26:06Z</time>
      </trkpt>
      <trkpt lat="47.36085" lon="3.92544">
        <ele>394</ele>
        <time>2014-04-19T08:26:27Z</time>
      </trkpt>
      <trkpt lat="47.36071" lon="3.92574">
        <ele>396</ele>
        <time>2014-04-19T08:26:53Z</time>
      </trkpt>
      <trkpt lat="47.36067" lon="3.9258">
        <ele>397</ele>
        <time>2014-04-19T08:27:02Z</time>
      </trkpt>
      <trkpt lat="47.36049" lon="3.9262">
        <ele>400</ele>
        <time>2014-04-19T08:27:46Z</time>
      </trkpt>
      <trkpt lat="47.36047" lon="3.92634">
        <ele>400</ele>
        <time>2014-04-19T08:28:03Z</time>
      </trkpt>
      <trkpt lat="47.3604" lon="3.92645">
        <ele>401</ele>
        <time>2014-04-19T08:28:09Z</time>
      </trkpt>
      <trkpt lat="47.36036" lon="3.92649">
        <ele>401</ele>
        <time>2014-04-19T08:28:13Z</time>
      </trkpt>
      <trkpt lat="47.36032" lon="3.92649">
        <ele>401</ele>
        <time>2014-04-19T08:28:21Z</time>
      </trkpt>
      <trkpt lat="47.36025" lon="3.92657">
        <ele>402</ele>
        <time>2014-04-19T08:28:33Z</time>
      </trkpt>
      <trkpt lat="47.3602" lon="3.92663">
        <ele>402</ele>
        <time>2014-04-19T08:28:38Z</time>
      </trkpt>
      <trkpt lat="47.36016" lon="3.92665">
        <ele>402</ele>
        <time>2014-04-19T08:28:43Z</time>
      </trkpt>
      <trkpt lat="47.36012" lon="3.92668">
        <ele>403</ele>
        <time>2014-04-19T08:28:48Z</time>
      </trkpt>
      <trkpt lat="47.36007" lon="3.92672">
        <ele>404</ele>
        <time>2014-04-19T08:28:53Z</time>
      </trkpt>
      <trkpt lat="47.36005" lon="3.92678">
        <ele>403</ele>
        <time>2014-04-19T08:28:58Z</time>
      </trkpt>
      <trkpt lat="47.36001" lon="3.92683">
        <ele>403</ele>
        <time>2014-04-19T08:29:03Z</time>
      </trkpt>
      <trkpt lat="47.35992" lon="3.92693">
        <ele>408</ele>
        <time>2014-04-19T08:29:25Z</time>
      </trkpt>
      <trkpt lat="47.35983" lon="3.92701">
        <ele>409</ele>
        <time>2014-04-19T08:29:34Z</time>
      </trkpt>
      <trkpt lat="47.35976" lon="3.92711">
        <ele>409</ele>
        <time>2014-04-19T08:29:42Z</time>
      </trkpt>
      <trkpt lat="47.35972" lon="3.92714">
        <ele>410</ele>
        <time>2014-04-19T08:29:46Z</time>
      </trkpt>
      <trkpt lat="47.35963" lon="3.92723">
        <ele>410</ele>
        <time>2014-04-19T08:29:53Z</time>
      </trkpt>
      <trkpt lat="47.35959" lon="3.92726">
        <ele>410</ele>
        <time>2014-04-19T08:29:58Z</time>
      </trkpt>
      <trkpt lat="47.35954" lon="3.92728">
        <ele>411</ele>
        <time>2014-04-19T08:30:03Z</time>
      </trkpt>
      <trkpt lat="47.3595" lon="3.92731">
        <ele>411</ele>
        <time>2014-04-19T08:30:07Z</time>
      </trkpt>
      <trkpt lat="47.35946" lon="3.92733">
        <ele>411</ele>
        <time>2014-04-19T08:30:11Z</time>
      </trkpt>
      <trkpt lat="47.35941" lon="3.92734">
        <ele>412</ele>
        <time>2014-04-19T08:30:16Z</time>
      </trkpt>
      <trkpt lat="47.35935" lon="3.92734">
        <ele>412</ele>
        <time>2014-04-19T08:30:21Z</time>
      </trkpt>
      <trkpt lat="47.35935" lon="3.92743">
        <ele>413</ele>
        <time>2014-04-19T08:30:25Z</time>
      </trkpt>
      <trkpt lat="47.35931" lon="3.9275">
        <ele>413</ele>
        <time>2014-04-19T08:31:24Z</time>
      </trkpt>
      <trkpt lat="47.35927" lon="3.92754">
        <ele>413</ele>
        <time>2014-04-19T08:31:28Z</time>
      </trkpt>
      <trkpt lat="47.35922" lon="3.92755">
        <ele>414</ele>
        <time>2014-04-19T08:31:32Z</time>
      </trkpt>
      <trkpt lat="47.35917" lon="3.92756">
        <ele>414</ele>
        <time>2014-04-19T08:31:36Z</time>
      </trkpt>
      <trkpt lat="47.35913" lon="3.92758">
        <ele>417</ele>
        <time>2014-04-19T08:31:39Z</time>
      </trkpt>
      <trkpt lat="47.35908" lon="3.9276">
        <ele>418</ele>
        <time>2014-04-19T08:31:45Z</time>
      </trkpt>
      <trkpt lat="47.35904" lon="3.92765">
        <ele>418</ele>
        <time>2014-04-19T08:31:50Z</time>
      </trkpt>
      <trkpt lat="47.359" lon="3.92768">
        <ele>419</ele>
        <time>2014-04-19T08:31:53Z</time>
      </trkpt>
      <trkpt lat="47.35895" lon="3.92771">
        <ele>419</ele>
        <time>2014-04-19T08:31:58Z</time>
      </trkpt>
      <trkpt lat="47.35889" lon="3.92771">
        <ele>420</ele>
        <time>2014-04-19T08:32:02Z</time>
      </trkpt>
      <trkpt lat="47.35885" lon="3.92772">
        <ele>420</ele>
        <time>2014-04-19T08:32:06Z</time>
      </trkpt>
      <trkpt lat="47.35875" lon="3.92778">
        <ele>421</ele>
        <time>2014-04-19T08:32:15Z</time>
      </trkpt>
      <trkpt lat="47.3587" lon="3.92781">
        <ele>422</ele>
        <time>2014-04-19T08:32:19Z</time>
      </trkpt>
      <trkpt lat="47.35865" lon="3.92779">
        <ele>422</ele>
        <time>2014-04-19T08:32:23Z</time>
      </trkpt>
      <trkpt lat="47.3586" lon="3.92782">
        <ele>422</ele>
        <time>2014-04-19T08:32:29Z</time>
      </trkpt>
      <trkpt lat="47.35856" lon="3.92787">
        <ele>423</ele>
        <time>2014-04-19T08:32:36Z</time>
      </trkpt>
      <trkpt lat="47.35854" lon="3.92793">
        <ele>423</ele>
        <time>2014-04-19T08:32:40Z</time>
      </trkpt>
      <trkpt lat="47.35849" lon="3.92801">
        <ele>423</ele>
        <time>2014-04-19T08:32:47Z</time>
      </trkpt>
      <trkpt lat="47.35846" lon="3.92808">
        <ele>424</ele>
        <time>2014-04-19T08:32:51Z</time>
      </trkpt>
      <trkpt lat="47.35845" lon="3.92824">
        <ele>425</ele>
        <time>2014-04-19T08:33:10Z</time>
      </trkpt>
      <trkpt lat="47.35842" lon="3.92829">
        <ele>426</ele>
        <time>2014-04-19T08:33:13Z</time>
      </trkpt>
      <trkpt lat="47.3584" lon="3.92838">
        <ele>426</ele>
        <time>2014-04-19T08:33:18Z</time>
      </trkpt>
      <trkpt lat="47.35842" lon="3.92845">
        <ele>425</ele>
        <time>2014-04-19T08:33:21Z</time>
      </trkpt>
      <trkpt lat="47.35843" lon="3.92852">
        <ele>424</ele>
        <time>2014-04-19T08:33:25Z</time>
      </trkpt>
      <trkpt lat="47.35839" lon="3.92857">
        <ele>424</ele>
        <time>2014-04-19T08:33:30Z</time>
      </trkpt>
      <trkpt lat="47.35834" lon="3.92869">
        <ele>424</ele>
        <time>2014-04-19T08:33:38Z</time>
      </trkpt>
      <trkpt lat="47.35832" lon="3.92875">
        <ele>431</ele>
        <time>2014-04-19T08:33:42Z</time>
      </trkpt>
      <trkpt lat="47.35831" lon="3.92889">
        <ele>431</ele>
        <time>2014-04-19T08:33:48Z</time>
      </trkpt>
      <trkpt lat="47.35829" lon="3.92895">
        <ele>431</ele>
        <time>2014-04-19T08:33:52Z</time>
      </trkpt>
      <trkpt lat="47.35827" lon="3.92902">
        <ele>430</ele>
        <time>2014-04-19T08:33:56Z</time>
      </trkpt>
      <trkpt lat="47.35824" lon="3.92908">
        <ele>430</ele>
        <time>2014-04-19T08:34:00Z</time>
      </trkpt>
      <trkpt lat="47.35822" lon="3.92914">
        <ele>430</ele>
        <time>2014-04-19T08:34:04Z</time>
      </trkpt>
      <trkpt lat="47.35819" lon="3.92921">
        <ele>430</ele>
        <time>2014-04-19T08:34:08Z</time>
      </trkpt>
      <trkpt lat="47.35813" lon="3.9293">
        <ele>431</ele>
        <time>2014-04-19T08:34:13Z</time>
      </trkpt>
      <trkpt lat="47.3581" lon="3.92936">
        <ele>431</ele>
        <time>2014-04-19T08:34:18Z</time>
      </trkpt>
      <trkpt lat="47.35807" lon="3.92943">
        <ele>431</ele>
        <time>2014-04-19T08:34:22Z</time>
      </trkpt>
      <trkpt lat="47.35802" lon="3.92957">
        <ele>431</ele>
        <time>2014-04-19T08:34:29Z</time>
      </trkpt>
      <trkpt lat="47.35798" lon="3.92961">
        <ele>432</ele>
        <time>2014-04-19T08:34:33Z</time>
      </trkpt>
      <trkpt lat="47.35795" lon="3.92966">
        <ele>432</ele>
        <time>2014-04-19T08:34:38Z</time>
      </trkpt>
      <trkpt lat="47.35792" lon="3.92973">
        <ele>432</ele>
        <time>2014-04-19T08:34:46Z</time>
      </trkpt>
      <trkpt lat="47.35788" lon="3.92979">
        <ele>432</ele>
        <time>2014-04-19T08:34:51Z</time>
      </trkpt>
      <trkpt lat="47.35783" lon="3.92991">
        <ele>432</ele>
        <time>2014-04-19T08:34:56Z</time>
      </trkpt>
      <trkpt lat="47.3577" lon="3.93008">
        <ele>432</ele>
        <time>2014-04-19T08:35:11Z</time>
      </trkpt>
      <trkpt lat="47.35767" lon="3.93015">
        <ele>432</ele>
        <time>2014-04-19T08:35:18Z</time>
      </trkpt>
      <trkpt lat="47.35763" lon="3.9302">
        <ele>432</ele>
        <time>2014-04-19T08:35:22Z</time>
      </trkpt>
      <trkpt lat="47.3576" lon="3.93027">
        <ele>432</ele>
        <time>2014-04-19T08:35:26Z</time>
      </trkpt>
      <trkpt lat="47.35757" lon="3.93032">
        <ele>431</ele>
        <time>2014-04-19T08:35:30Z</time>
      </trkpt>
      <trkpt lat="47.35752" lon="3.93034">
        <ele>431</ele>
        <time>2014-04-19T08:35:36Z</time>
      </trkpt>
      <trkpt lat="47.35737" lon="3.93074">
        <ele>435</ele>
        <time>2014-04-19T08:35:55Z</time>
      </trkpt>
      <trkpt lat="47.35734" lon="3.93097">
        <ele>433</ele>
        <time>2014-04-19T08:36:09Z</time>
      </trkpt>
      <trkpt lat="47.35729" lon="3.93112">
        <ele>433</ele>
        <time>2014-04-19T08:36:17Z</time>
      </trkpt>
      <trkpt lat="47.35728" lon="3.9312">
        <ele>433</ele>
        <time>2014-04-19T08:36:22Z</time>
      </trkpt>
      <trkpt lat="47.35731" lon="3.93126">
        <ele>433</ele>
        <time>2014-04-19T08:36:40Z</time>
      </trkpt>
      <trkpt lat="47.35729" lon="3.93132">
        <ele>433</ele>
        <time>2014-04-19T08:36:43Z</time>
      </trkpt>
      <trkpt lat="47.3573" lon="3.9314">
        <ele>433</ele>
        <time>2014-04-19T08:36:47Z</time>
      </trkpt>
      <trkpt lat="47.35728" lon="3.93148">
        <ele>433</ele>
        <time>2014-04-19T08:36:52Z</time>
      </trkpt>
      <trkpt lat="47.35728" lon="3.93155">
        <ele>433</ele>
        <time>2014-04-19T08:36:56Z</time>
      </trkpt>
      <trkpt lat="47.35728" lon="3.93163">
        <ele>432</ele>
        <time>2014-04-19T08:37:00Z</time>
      </trkpt>
      <trkpt lat="47.35731" lon="3.93177">
        <ele>432</ele>
        <time>2014-04-19T08:37:08Z</time>
      </trkpt>
      <trkpt lat="47.35729" lon="3.93184">
        <ele>432</ele>
        <time>2014-04-19T08:37:11Z</time>
      </trkpt>
      <trkpt lat="47.35724" lon="3.93189">
        <ele>432</ele>
        <time>2014-04-19T08:37:15Z</time>
      </trkpt>
      <trkpt lat="47.35721" lon="3.93194">
        <ele>432</ele>
        <time>2014-04-19T08:37:19Z</time>
      </trkpt>
      <trkpt lat="47.35719" lon="3.93201">
        <ele>432</ele>
        <time>2014-04-19T08:37:23Z</time>
      </trkpt>
      <trkpt lat="47.35711" lon="3.93213">
        <ele>432</ele>
        <time>2014-04-19T08:37:30Z</time>
      </trkpt>
      <trkpt lat="47.35706" lon="3.93227">
        <ele>432</ele>
        <time>2014-04-19T08:37:39Z</time>
      </trkpt>
      <trkpt lat="47.35704" lon="3.9324">
        <ele>432</ele>
        <time>2014-04-19T08:37:46Z</time>
      </trkpt>
      <trkpt lat="47.35699" lon="3.93245">
        <ele>432</ele>
        <time>2014-04-19T08:37:51Z</time>
      </trkpt>
      <trkpt lat="47.3569" lon="3.93263">
        <ele>433</ele>
        <time>2014-04-19T08:38:00Z</time>
      </trkpt>
      <trkpt lat="47.35673" lon="3.93308">
        <ele>434</ele>
        <time>2014-04-19T08:38:33Z</time>
      </trkpt>
      <trkpt lat="47.35657" lon="3.93332">
        <ele>431</ele>
        <time>2014-04-19T08:38:46Z</time>
      </trkpt>
      <trkpt lat="47.35655" lon="3.93338">
        <ele>433</ele>
        <time>2014-04-19T08:38:48Z</time>
      </trkpt>
      <trkpt lat="47.35652" lon="3.93344">
        <ele>433</ele>
        <time>2014-04-19T08:38:52Z</time>
      </trkpt>
      <trkpt lat="47.35647" lon="3.93347">
        <ele>433</ele>
        <time>2014-04-19T08:38:55Z</time>
      </trkpt>
      <trkpt lat="47.35644" lon="3.93352">
        <ele>433</ele>
        <time>2014-04-19T08:39:00Z</time>
      </trkpt>
      <trkpt lat="47.35634" lon="3.93381">
        <ele>433</ele>
        <time>2014-04-19T08:39:09Z</time>
      </trkpt>
      <trkpt lat="47.35629" lon="3.93391">
        <ele>434</ele>
        <time>2014-04-19T08:39:12Z</time>
      </trkpt>
      <trkpt lat="47.35624" lon="3.93399">
        <ele>434</ele>
        <time>2014-04-19T08:39:16Z</time>
      </trkpt>
      <trkpt lat="47.35618" lon="3.93414">
        <ele>434</ele>
        <time>2014-04-19T08:39:24Z</time>
      </trkpt>
      <trkpt lat="47.35616" lon="3.93421">
        <ele>439</ele>
        <time>2014-04-19T08:39:27Z</time>
      </trkpt>
      <trkpt lat="47.35607" lon="3.93443">
        <ele>439</ele>
        <time>2014-04-19T08:39:36Z</time>
      </trkpt>
      <trkpt lat="47.35604" lon="3.93449">
        <ele>440</ele>
        <time>2014-04-19T08:39:40Z</time>
      </trkpt>
      <trkpt lat="47.356" lon="3.93454">
        <ele>440</ele>
        <time>2014-04-19T08:39:44Z</time>
      </trkpt>
      <trkpt lat="47.35588" lon="3.93495">
        <ele>442</ele>
        <time>2014-04-19T08:40:02Z</time>
      </trkpt>
      <trkpt lat="47.35585" lon="3.93519">
        <ele>445</ele>
        <time>2014-04-19T08:40:20Z</time>
      </trkpt>
      <trkpt lat="47.35582" lon="3.93526">
        <ele>442</ele>
        <time>2014-04-19T08:40:24Z</time>
      </trkpt>
      <trkpt lat="47.35581" lon="3.93533">
        <ele>442</ele>
        <time>2014-04-19T08:40:28Z</time>
      </trkpt>
      <trkpt lat="47.35582" lon="3.93548">
        <ele>442</ele>
        <time>2014-04-19T08:40:35Z</time>
      </trkpt>
      <trkpt lat="47.35579" lon="3.93555">
        <ele>443</ele>
        <time>2014-04-19T08:40:41Z</time>
      </trkpt>
      <trkpt lat="47.35578" lon="3.93561">
        <ele>443</ele>
        <time>2014-04-19T08:40:46Z</time>
      </trkpt>
      <trkpt lat="47.35576" lon="3.93568">
        <ele>444</ele>
        <time>2014-04-19T08:40:53Z</time>
      </trkpt>
      <trkpt lat="47.35569" lon="3.93578">
        <ele>444</ele>
        <time>2014-04-19T08:41:03Z</time>
      </trkpt>
      <trkpt lat="47.35558" lon="3.93585">
        <ele>445</ele>
        <time>2014-04-19T08:41:13Z</time>
      </trkpt>
      <trkpt lat="47.35553" lon="3.9359">
        <ele>445</ele>
        <time>2014-04-19T08:41:17Z</time>
      </trkpt>
      <trkpt lat="47.3555" lon="3.93596">
        <ele>445</ele>
        <time>2014-04-19T08:41:19Z</time>
      </trkpt>
      <trkpt lat="47.35546" lon="3.93601">
        <ele>445</ele>
        <time>2014-04-19T08:41:23Z</time>
      </trkpt>
      <trkpt lat="47.35541" lon="3.93603">
        <ele>445</ele>
        <time>2014-04-19T08:41:27Z</time>
      </trkpt>
      <trkpt lat="47.35538" lon="3.93597">
        <ele>445</ele>
        <time>2014-04-19T08:41:31Z</time>
      </trkpt>
      <trkpt lat="47.35533" lon="3.93593">
        <ele>444</ele>
        <time>2014-04-19T08:41:37Z</time>
      </trkpt>
      <trkpt lat="47.35524" lon="3.93614">
        <ele>444</ele>
        <time>2014-04-19T08:42:02Z</time>
      </trkpt>
      <trkpt lat="47.35521" lon="3.93621">
        <ele>445</ele>
        <time>2014-04-19T08:42:05Z</time>
      </trkpt>
      <trkpt lat="47.35518" lon="3.93626">
        <ele>445</ele>
        <time>2014-04-19T08:42:09Z</time>
      </trkpt>
      <trkpt lat="47.35514" lon="3.93629">
        <ele>445</ele>
        <time>2014-04-19T08:42:14Z</time>
      </trkpt>
      <trkpt lat="47.35508" lon="3.93631">
        <ele>445</ele>
        <time>2014-04-19T08:42:19Z</time>
      </trkpt>
      <trkpt lat="47.35504" lon="3.93636">
        <ele>445</ele>
        <time>2014-04-19T08:42:25Z</time>
      </trkpt>
      <trkpt lat="47.35498" lon="3.93639">
        <ele>445</ele>
        <time>2014-04-19T08:42:29Z</time>
      </trkpt>
      <trkpt lat="47.35494" lon="3.93639">
        <ele>445</ele>
        <time>2014-04-19T08:42:34Z</time>
      </trkpt>
      <trkpt lat="47.35489" lon="3.93642">
        <ele>445</ele>
        <time>2014-04-19T08:42:37Z</time>
      </trkpt>
      <trkpt lat="47.35479" lon="3.9365">
        <ele>445</ele>
        <time>2014-04-19T08:42:43Z</time>
      </trkpt>
      <trkpt lat="47.35475" lon="3.93653">
        <ele>445</ele>
        <time>2014-04-19T08:42:46Z</time>
      </trkpt>
      <trkpt lat="47.35466" lon="3.93653">
        <ele>446</ele>
        <time>2014-04-19T08:42:58Z</time>
      </trkpt>
      <trkpt lat="47.35456" lon="3.93662">
        <ele>446</ele>
        <time>2014-04-19T08:43:08Z</time>
      </trkpt>
      <trkpt lat="47.35451" lon="3.93662">
        <ele>446</ele>
        <time>2014-04-19T08:43:14Z</time>
      </trkpt>
      <trkpt lat="47.35447" lon="3.93669">
        <ele>447</ele>
        <time>2014-04-19T08:43:20Z</time>
      </trkpt>
      <trkpt lat="47.35447" lon="3.93678">
        <ele>447</ele>
        <time>2014-04-19T08:43:23Z</time>
      </trkpt>
      <trkpt lat="47.35448" lon="3.93693">
        <ele>447</ele>
        <time>2014-04-19T08:43:29Z</time>
      </trkpt>
      <trkpt lat="47.35444" lon="3.93706">
        <ele>447</ele>
        <time>2014-04-19T08:43:36Z</time>
      </trkpt>
      <trkpt lat="47.35436" lon="3.93718">
        <ele>447</ele>
        <time>2014-04-19T08:43:48Z</time>
      </trkpt>
      <trkpt lat="47.35439" lon="3.93719">
        <ele>447</ele>
        <time>2014-04-19T08:44:00Z</time>
      </trkpt>
      <trkpt lat="47.35445" lon="3.93716">
        <ele>447</ele>
        <time>2014-04-19T08:44:17Z</time>
      </trkpt>
      <trkpt lat="47.35444" lon="3.93711">
        <ele>447</ele>
        <time>2014-04-19T08:44:34Z</time>
      </trkpt>
      <trkpt lat="47.35438" lon="3.93711">
        <ele>447</ele>
        <time>2014-04-19T08:44:44Z</time>
      </trkpt>
      <trkpt lat="47.35435" lon="3.93716">
        <ele>447</ele>
        <time>2014-04-19T08:44:48Z</time>
      </trkpt>
      <trkpt lat="47.35435" lon="3.9374">
        <ele>448</ele>
        <time>2014-04-19T08:45:01Z</time>
      </trkpt>
      <trkpt lat="47.35432" lon="3.93762">
        <ele>446</ele>
        <time>2014-04-19T08:45:09Z</time>
      </trkpt>
      <trkpt lat="47.35436" lon="3.93767">
        <ele>445</ele>
        <time>2014-04-19T08:45:14Z</time>
      </trkpt>
      <trkpt lat="47.3544" lon="3.93771">
        <ele>445</ele>
        <time>2014-04-19T08:45:17Z</time>
      </trkpt>
      <trkpt lat="47.35442" lon="3.93777">
        <ele>444</ele>
        <time>2014-04-19T08:45:22Z</time>
      </trkpt>
      <trkpt lat="47.35443" lon="3.93784">
        <ele>444</ele>
        <time>2014-04-19T08:45:26Z</time>
      </trkpt>
      <trkpt lat="47.35449" lon="3.93786">
        <ele>444</ele>
        <time>2014-04-19T08:45:30Z</time>
      </trkpt>
      <trkpt lat="47.35454" lon="3.93784">
        <ele>443</ele>
        <time>2014-04-19T08:45:35Z</time>
      </trkpt>
      <trkpt lat="47.35459" lon="3.93781">
        <ele>443</ele>
        <time>2014-04-19T08:45:39Z</time>
      </trkpt>
      <trkpt lat="47.35463" lon="3.9378">
        <ele>443</ele>
        <time>2014-04-19T08:45:42Z</time>
      </trkpt>
      <trkpt lat="47.35467" lon="3.93777">
        <ele>443</ele>
        <time>2014-04-19T08:45:46Z</time>
      </trkpt>
      <trkpt lat="47.35477" lon="3.93772">
        <ele>443</ele>
        <time>2014-04-19T08:46:02Z</time>
      </trkpt>
      <trkpt lat="47.35483" lon="3.93776">
        <ele>443</ele>
        <time>2014-04-19T08:46:15Z</time>
      </trkpt>
      <trkpt lat="47.35488" lon="3.93776">
        <ele>443</ele>
        <time>2014-04-19T08:46:19Z</time>
      </trkpt>
      <trkpt lat="47.35493" lon="3.9378">
        <ele>443</ele>
        <time>2014-04-19T08:46:23Z</time>
      </trkpt>
      <trkpt lat="47.35498" lon="3.93778">
        <ele>443</ele>
        <time>2014-04-19T08:46:29Z</time>
      </trkpt>
      <trkpt lat="47.35501" lon="3.93773">
        <ele>441</ele>
        <time>2014-04-19T08:46:52Z</time>
      </trkpt>
      <trkpt lat="47.35508" lon="3.93776">
        <ele>441</ele>
        <time>2014-04-19T08:47:04Z</time>
      </trkpt>
      <trkpt lat="47.35512" lon="3.93775">
        <ele>441</ele>
        <time>2014-04-19T08:47:08Z</time>
      </trkpt>
      <trkpt lat="47.35518" lon="3.93767">
        <ele>441</ele>
        <time>2014-04-19T08:47:20Z</time>
      </trkpt>
      <trkpt lat="47.35517" lon="3.93762">
        <ele>441</ele>
        <time>2014-04-19T08:53:02Z</time>
      </trkpt>
      <trkpt lat="47.35513" lon="3.93767">
        <ele>441</ele>
        <time>2014-04-19T08:53:05Z</time>
      </trkpt>
      <trkpt lat="47.3551" lon="3.9377">
        <ele>441</ele>
        <time>2014-04-19T08:53:13Z</time>
      </trkpt>
      <trkpt lat="47.35511" lon="3.93774">
        <ele>441</ele>
        <time>2014-04-19T08:53:48Z</time>
      </trkpt>
      <trkpt lat="47.35507" lon="3.93777">
        <ele>440</ele>
        <time>2014-04-19T08:54:21Z</time>
      </trkpt>
      <trkpt lat="47.35504" lon="3.93775">
        <ele>441</ele>
        <time>2014-04-19T08:54:46Z</time>
      </trkpt>
      <trkpt lat="47.35492" lon="3.93792">
        <ele>442</ele>
        <time>2014-04-19T08:55:19Z</time>
      </trkpt>
      <trkpt lat="47.35489" lon="3.93798">
        <ele>442</ele>
        <time>2014-04-19T08:55:24Z</time>
      </trkpt>
      <trkpt lat="47.35488" lon="3.93804">
        <ele>441</ele>
        <time>2014-04-19T08:55:28Z</time>
      </trkpt>
      <trkpt lat="47.35483" lon="3.93809">
        <ele>441</ele>
        <time>2014-04-19T08:55:34Z</time>
      </trkpt>
      <trkpt lat="47.35481" lon="3.93815">
        <ele>441</ele>
        <time>2014-04-19T08:55:38Z</time>
      </trkpt>
      <trkpt lat="47.35477" lon="3.93821">
        <ele>441</ele>
        <time>2014-04-19T08:55:43Z</time>
      </trkpt>
      <trkpt lat="47.35473" lon="3.93825">
        <ele>441</ele>
        <time>2014-04-19T08:55:46Z</time>
      </trkpt>
      <trkpt lat="47.35454" lon="3.93852">
        <ele>436</ele>
        <time>2014-04-19T08:56:15Z</time>
      </trkpt>
      <trkpt lat="47.35444" lon="3.93869">
        <ele>435</ele>
        <time>2014-04-19T08:56:29Z</time>
      </trkpt>
      <trkpt lat="47.35436" lon="3.93878">
        <ele>435</ele>
        <time>2014-04-19T08:56:37Z</time>
      </trkpt>
      <trkpt lat="47.35433" lon="3.93883">
        <ele>435</ele>
        <time>2014-04-19T08:56:41Z</time>
      </trkpt>
      <trkpt lat="47.35433" lon="3.93887">
        <ele>434</ele>
        <time>2014-04-19T08:57:18Z</time>
      </trkpt>
      <trkpt lat="47.35438" lon="3.93892">
        <ele>434</ele>
        <time>2014-04-19T08:57:31Z</time>
      </trkpt>
      <trkpt lat="47.35441" lon="3.93897">
        <ele>433</ele>
        <time>2014-04-19T08:57:34Z</time>
      </trkpt>
      <trkpt lat="47.35443" lon="3.93905">
        <ele>433</ele>
        <time>2014-04-19T08:57:41Z</time>
      </trkpt>
      <trkpt lat="47.35449" lon="3.93916">
        <ele>433</ele>
        <time>2014-04-19T08:57:50Z</time>
      </trkpt>
      <trkpt lat="47.35451" lon="3.93922">
        <ele>428</ele>
        <time>2014-04-19T08:57:54Z</time>
      </trkpt>
      <trkpt lat="47.35455" lon="3.93942">
        <ele>428</ele>
        <time>2014-04-19T08:58:07Z</time>
      </trkpt>
      <trkpt lat="47.35459" lon="3.93949">
        <ele>428</ele>
        <time>2014-04-19T08:58:26Z</time>
      </trkpt>
      <trkpt lat="47.35464" lon="3.9398">
        <ele>427</ele>
        <time>2014-04-19T08:58:52Z</time>
      </trkpt>
      <trkpt lat="47.35467" lon="3.93987">
        <ele>427</ele>
        <time>2014-04-19T08:58:56Z</time>
      </trkpt>
      <trkpt lat="47.35475" lon="3.93995">
        <ele>427</ele>
        <time>2014-04-19T08:59:03Z</time>
      </trkpt>
      <trkpt lat="47.35477" lon="3.94001">
        <ele>425</ele>
        <time>2014-04-19T08:59:08Z</time>
      </trkpt>
      <trkpt lat="47.35481" lon="3.94004">
        <ele>425</ele>
        <time>2014-04-19T08:59:11Z</time>
      </trkpt>
      <trkpt lat="47.35486" lon="3.94007">
        <ele>425</ele>
        <time>2014-04-19T08:59:14Z</time>
      </trkpt>
      <trkpt lat="47.35491" lon="3.94009">
        <ele>426</ele>
        <time>2014-04-19T08:59:20Z</time>
      </trkpt>
      <trkpt lat="47.35496" lon="3.94009">
        <ele>426</ele>
        <time>2014-04-19T08:59:23Z</time>
      </trkpt>
      <trkpt lat="47.35506" lon="3.94012">
        <ele>427</ele>
        <time>2014-04-19T08:59:30Z</time>
      </trkpt>
      <trkpt lat="47.3551" lon="3.94017">
        <ele>428</ele>
        <time>2014-04-19T08:59:32Z</time>
      </trkpt>
      <trkpt lat="47.35512" lon="3.94024">
        <ele>428</ele>
        <time>2014-04-19T08:59:35Z</time>
      </trkpt>
      <trkpt lat="47.35513" lon="3.94038">
        <ele>428</ele>
        <time>2014-04-19T08:59:41Z</time>
      </trkpt>
      <trkpt lat="47.35513" lon="3.94054">
        <ele>428</ele>
        <time>2014-04-19T08:59:49Z</time>
      </trkpt>
      <trkpt lat="47.35511" lon="3.9406">
        <ele>428</ele>
        <time>2014-04-19T08:59:52Z</time>
      </trkpt>
      <trkpt lat="47.3551" lon="3.94068">
        <ele>428</ele>
        <time>2014-04-19T08:59:56Z</time>
      </trkpt>
      <trkpt lat="47.35512" lon="3.94089">
        <ele>427</ele>
        <time>2014-04-19T09:00:06Z</time>
      </trkpt>
      <trkpt lat="47.35513" lon="3.94096">
        <ele>427</ele>
        <time>2014-04-19T09:00:09Z</time>
      </trkpt>
      <trkpt lat="47.35513" lon="3.94104">
        <ele>427</ele>
        <time>2014-04-19T09:00:12Z</time>
      </trkpt>
      <trkpt lat="47.35509" lon="3.94119">
        <ele>427</ele>
        <time>2014-04-19T09:00:21Z</time>
      </trkpt>
      <trkpt lat="47.35508" lon="3.94126">
        <ele>427</ele>
        <time>2014-04-19T09:00:26Z</time>
      </trkpt>
      <trkpt lat="47.35509" lon="3.94134">
        <ele>427</ele>
        <time>2014-04-19T09:00:29Z</time>
      </trkpt>
      <trkpt lat="47.35505" lon="3.94156">
        <ele>425</ele>
        <time>2014-04-19T09:00:35Z</time>
      </trkpt>
      <trkpt lat="47.35506" lon="3.9416">
        <ele>425</ele>
        <time>2014-04-19T09:00:38Z</time>
      </trkpt>
      <trkpt lat="47.35506" lon="3.94167">
        <ele>424</ele>
        <time>2014-04-19T09:00:44Z</time>
      </trkpt>
      <trkpt lat="47.35508" lon="3.94175">
        <ele>424</ele>
        <time>2014-04-19T09:00:48Z</time>
      </trkpt>
      <trkpt lat="47.35506" lon="3.94182">
        <ele>424</ele>
        <time>2014-04-19T09:00:52Z</time>
      </trkpt>
      <trkpt lat="47.35502" lon="3.94188">
        <ele>424</ele>
        <time>2014-04-19T09:00:56Z</time>
      </trkpt>
      <trkpt lat="47.355" lon="3.94196">
        <ele>420</ele>
        <time>2014-04-19T09:00:59Z</time>
      </trkpt>
      <trkpt lat="47.35499" lon="3.94204">
        <ele>419</ele>
        <time>2014-04-19T09:01:02Z</time>
      </trkpt>
      <trkpt lat="47.35499" lon="3.94212">
        <ele>419</ele>
        <time>2014-04-19T09:01:07Z</time>
      </trkpt>
      <trkpt lat="47.35495" lon="3.94225">
        <ele>419</ele>
        <time>2014-04-19T09:01:14Z</time>
      </trkpt>
      <trkpt lat="47.35497" lon="3.94233">
        <ele>419</ele>
        <time>2014-04-19T09:01:22Z</time>
      </trkpt>
      <trkpt lat="47.35495" lon="3.9424">
        <ele>419</ele>
        <time>2014-04-19T09:01:27Z</time>
      </trkpt>
      <trkpt lat="47.3549" lon="3.94252">
        <ele>418</ele>
        <time>2014-04-19T09:01:32Z</time>
      </trkpt>
      <trkpt lat="47.35488" lon="3.94266">
        <ele>418</ele>
        <time>2014-04-19T09:01:40Z</time>
      </trkpt>
      <trkpt lat="47.35486" lon="3.94274">
        <ele>418</ele>
        <time>2014-04-19T09:01:46Z</time>
      </trkpt>
      <trkpt lat="47.35487" lon="3.94289">
        <ele>418</ele>
        <time>2014-04-19T09:01:55Z</time>
      </trkpt>
      <trkpt lat="47.35482" lon="3.94311">
        <ele>419</ele>
        <time>2014-04-19T09:02:03Z</time>
      </trkpt>
      <trkpt lat="47.35478" lon="3.94315">
        <ele>419</ele>
        <time>2014-04-19T09:02:08Z</time>
      </trkpt>
      <trkpt lat="47.35474" lon="3.9432">
        <ele>418</ele>
        <time>2014-04-19T09:02:12Z</time>
      </trkpt>
      <trkpt lat="47.35473" lon="3.94327">
        <ele>418</ele>
        <time>2014-04-19T09:02:17Z</time>
      </trkpt>
      <trkpt lat="47.3547" lon="3.94334">
        <ele>420</ele>
        <time>2014-04-19T09:02:41Z</time>
      </trkpt>
      <trkpt lat="47.35469" lon="3.94342">
        <ele>420</ele>
        <time>2014-04-19T09:02:45Z</time>
      </trkpt>
      <trkpt lat="47.35466" lon="3.94351">
        <ele>420</ele>
        <time>2014-04-19T09:02:49Z</time>
      </trkpt>
      <trkpt lat="47.35463" lon="3.94358">
        <ele>420</ele>
        <time>2014-04-19T09:02:52Z</time>
      </trkpt>
      <trkpt lat="47.35462" lon="3.94367">
        <ele>420</ele>
        <time>2014-04-19T09:02:55Z</time>
      </trkpt>
      <trkpt lat="47.35458" lon="3.94372">
        <ele>420</ele>
        <time>2014-04-19T09:02:59Z</time>
      </trkpt>
      <trkpt lat="47.35455" lon="3.94379">
        <ele>420</ele>
        <time>2014-04-19T09:03:02Z</time>
      </trkpt>
      <trkpt lat="47.35451" lon="3.94385">
        <ele>420</ele>
        <time>2014-04-19T09:03:05Z</time>
      </trkpt>
      <trkpt lat="47.35447" lon="3.94386">
        <ele>420</ele>
        <time>2014-04-19T09:03:08Z</time>
      </trkpt>
      <trkpt lat="47.35443" lon="3.94391">
        <ele>420</ele>
        <time>2014-04-19T09:03:11Z</time>
      </trkpt>
      <trkpt lat="47.3544" lon="3.94397">
        <ele>419</ele>
        <time>2014-04-19T09:03:13Z</time>
      </trkpt>
      <trkpt lat="47.35437" lon="3.94404">
        <ele>419</ele>
        <time>2014-04-19T09:03:16Z</time>
      </trkpt>
      <trkpt lat="47.35435" lon="3.94412">
        <ele>419</ele>
        <time>2014-04-19T09:03:19Z</time>
      </trkpt>
      <trkpt lat="47.35435" lon="3.94421">
        <ele>422</ele>
        <time>2014-04-19T09:03:22Z</time>
      </trkpt>
      <trkpt lat="47.35431" lon="3.94427">
        <ele>422</ele>
        <time>2014-04-19T09:03:26Z</time>
      </trkpt>
      <trkpt lat="47.35427" lon="3.94431">
        <ele>422</ele>
        <time>2014-04-19T09:03:30Z</time>
      </trkpt>
      <trkpt lat="47.35423" lon="3.94436">
        <ele>422</ele>
        <time>2014-04-19T09:03:35Z</time>
      </trkpt>
      <trkpt lat="47.35422" lon="3.94443">
        <ele>423</ele>
        <time>2014-04-19T09:03:40Z</time>
      </trkpt>
      <trkpt lat="47.3542" lon="3.9445">
        <ele>424</ele>
        <time>2014-04-19T09:03:46Z</time>
      </trkpt>
      <trkpt lat="47.35418" lon="3.94456">
        <ele>425</ele>
        <time>2014-04-19T09:03:51Z</time>
      </trkpt>
      <trkpt lat="47.35415" lon="3.94462">
        <ele>416</ele>
        <time>2014-04-19T09:03:54Z</time>
      </trkpt>
      <trkpt lat="47.35412" lon="3.94468">
        <ele>416</ele>
        <time>2014-04-19T09:03:57Z</time>
      </trkpt>
      <trkpt lat="47.35411" lon="3.94475">
        <ele>417</ele>
        <time>2014-04-19T09:04:00Z</time>
      </trkpt>
      <trkpt lat="47.35411" lon="3.9449">
        <ele>420</ele>
        <time>2014-04-19T09:04:08Z</time>
      </trkpt>
      <trkpt lat="47.35409" lon="3.94497">
        <ele>422</ele>
        <time>2014-04-19T09:04:11Z</time>
      </trkpt>
      <trkpt lat="47.35394" lon="3.94539">
        <ele>419</ele>
        <time>2014-04-19T09:04:31Z</time>
      </trkpt>
      <trkpt lat="47.35393" lon="3.94546">
        <ele>420</ele>
        <time>2014-04-19T09:04:35Z</time>
      </trkpt>
      <trkpt lat="47.35392" lon="3.94554">
        <ele>420</ele>
        <time>2014-04-19T09:04:38Z</time>
      </trkpt>
      <trkpt lat="47.35397" lon="3.94574">
        <ele>422</ele>
        <time>2014-04-19T09:04:42Z</time>
      </trkpt>
      <trkpt lat="47.35398" lon="3.9458">
        <ele>423</ele>
        <time>2014-04-19T09:04:44Z</time>
      </trkpt>
      <trkpt lat="47.35396" lon="3.94585">
        <ele>423</ele>
        <time>2014-04-19T09:04:46Z</time>
      </trkpt>
      <trkpt lat="47.35394" lon="3.94588">
        <ele>422</ele>
        <time>2014-04-19T09:04:48Z</time>
      </trkpt>
      <trkpt lat="47.35391" lon="3.94589">
        <ele>422</ele>
        <time>2014-04-19T09:04:50Z</time>
      </trkpt>
      <trkpt lat="47.35389" lon="3.94591">
        <ele>421</ele>
        <time>2014-04-19T09:04:58Z</time>
      </trkpt>
      <trkpt lat="47.3539" lon="3.94597">
        <ele>421</ele>
        <time>2014-04-19T09:05:02Z</time>
      </trkpt>
      <trkpt lat="47.3539" lon="3.94615">
        <ele>421</ele>
        <time>2014-04-19T09:05:08Z</time>
      </trkpt>
      <trkpt lat="47.35389" lon="3.94622">
        <ele>420</ele>
        <time>2014-04-19T09:05:12Z</time>
      </trkpt>
      <trkpt lat="47.3539" lon="3.94629">
        <ele>421</ele>
        <time>2014-04-19T09:05:15Z</time>
      </trkpt>
      <trkpt lat="47.35388" lon="3.94636">
        <ele>420</ele>
        <time>2014-04-19T09:05:19Z</time>
      </trkpt>
      <trkpt lat="47.35388" lon="3.9465">
        <ele>421</ele>
        <time>2014-04-19T09:05:28Z</time>
      </trkpt>
      <trkpt lat="47.35392" lon="3.94658">
        <ele>422</ele>
        <time>2014-04-19T09:05:32Z</time>
      </trkpt>
      <trkpt lat="47.35393" lon="3.94666">
        <ele>422</ele>
        <time>2014-04-19T09:05:37Z</time>
      </trkpt>
      <trkpt lat="47.35393" lon="3.94674">
        <ele>420</ele>
        <time>2014-04-19T09:05:42Z</time>
      </trkpt>
      <trkpt lat="47.3539" lon="3.9469">
        <ele>419</ele>
        <time>2014-04-19T09:05:47Z</time>
      </trkpt>
      <trkpt lat="47.35388" lon="3.94697">
        <ele>418</ele>
        <time>2014-04-19T09:05:52Z</time>
      </trkpt>
      <trkpt lat="47.35387" lon="3.94705">
        <ele>418</ele>
        <time>2014-04-19T09:05:56Z</time>
      </trkpt>
      <trkpt lat="47.35387" lon="3.94721">
        <ele>418</ele>
        <time>2014-04-19T09:06:02Z</time>
      </trkpt>
      <trkpt lat="47.35386" lon="3.94728">
        <ele>417</ele>
        <time>2014-04-19T09:06:09Z</time>
      </trkpt>
      <trkpt lat="47.35381" lon="3.94733">
        <ele>417</ele>
        <time>2014-04-19T09:06:11Z</time>
      </trkpt>
      <trkpt lat="47.35365" lon="3.94772">
        <ele>411</ele>
        <time>2014-04-19T09:06:35Z</time>
      </trkpt>
      <trkpt lat="47.35362" lon="3.94777">
        <ele>410</ele>
        <time>2014-04-19T09:06:39Z</time>
      </trkpt>
      <trkpt lat="47.35359" lon="3.94784">
        <ele>410</ele>
        <time>2014-04-19T09:06:43Z</time>
      </trkpt>
      <trkpt lat="47.35356" lon="3.94792">
        <ele>409</ele>
        <time>2014-04-19T09:06:47Z</time>
      </trkpt>
      <trkpt lat="47.35353" lon="3.94798">
        <ele>409</ele>
        <time>2014-04-19T09:06:50Z</time>
      </trkpt>
      <trkpt lat="47.35352" lon="3.94815">
        <ele>407</ele>
        <time>2014-04-19T09:06:57Z</time>
      </trkpt>
      <trkpt lat="47.35349" lon="3.9483">
        <ele>405</ele>
        <time>2014-04-19T09:07:03Z</time>
      </trkpt>
      <trkpt lat="47.35349" lon="3.94838">
        <ele>402</ele>
        <time>2014-04-19T09:07:07Z</time>
      </trkpt>
      <trkpt lat="47.35353" lon="3.94897">
        <ele>401</ele>
        <time>2014-04-19T09:07:35Z</time>
      </trkpt>
      <trkpt lat="47.35355" lon="3.949">
        <ele>401</ele>
        <time>2014-04-19T09:08:09Z</time>
      </trkpt>
      <trkpt lat="47.35355" lon="3.94908">
        <ele>401</ele>
        <time>2014-04-19T09:08:14Z</time>
      </trkpt>
      <trkpt lat="47.35344" lon="3.94941">
        <ele>396</ele>
        <time>2014-04-19T09:08:40Z</time>
      </trkpt>
      <trkpt lat="47.35341" lon="3.94947">
        <ele>396</ele>
        <time>2014-04-19T09:08:42Z</time>
      </trkpt>
      <trkpt lat="47.35331" lon="3.94975">
        <ele>387</ele>
        <time>2014-04-19T09:08:59Z</time>
      </trkpt>
      <trkpt lat="47.3533" lon="3.94982">
        <ele>387</ele>
        <time>2014-04-19T09:09:04Z</time>
      </trkpt>
      <trkpt lat="47.35328" lon="3.9499">
        <ele>388</ele>
        <time>2014-04-19T09:09:10Z</time>
      </trkpt>
      <trkpt lat="47.35317" lon="3.95013">
        <ele>384</ele>
        <time>2014-04-19T09:09:22Z</time>
      </trkpt>
      <trkpt lat="47.35312" lon="3.95036">
        <ele>381</ele>
        <time>2014-04-19T09:09:41Z</time>
      </trkpt>
      <trkpt lat="47.35309" lon="3.95041">
        <ele>381</ele>
        <time>2014-04-19T09:09:44Z</time>
      </trkpt>
      <trkpt lat="47.35307" lon="3.95047">
        <ele>380</ele>
        <time>2014-04-19T09:09:47Z</time>
      </trkpt>
      <trkpt lat="47.35306" lon="3.95053">
        <ele>380</ele>
        <time>2014-04-19T09:09:53Z</time>
      </trkpt>
      <trkpt lat="47.35301" lon="3.95067">
        <ele>380</ele>
        <time>2014-04-19T09:09:59Z</time>
      </trkpt>
      <trkpt lat="47.353" lon="3.95073">
        <ele>380</ele>
        <time>2014-04-19T09:10:01Z</time>
      </trkpt>
      <trkpt lat="47.35299" lon="3.9508">
        <ele>379</ele>
        <time>2014-04-19T09:10:06Z</time>
      </trkpt>
      <trkpt lat="47.35299" lon="3.95084">
        <ele>376</ele>
        <time>2014-04-19T09:10:17Z</time>
      </trkpt>
      <trkpt lat="47.35297" lon="3.95092">
        <ele>375</ele>
        <time>2014-04-19T09:10:22Z</time>
      </trkpt>
      <trkpt lat="47.35297" lon="3.95098">
        <ele>375</ele>
        <time>2014-04-19T09:10:26Z</time>
      </trkpt>
      <trkpt lat="47.35297" lon="3.95105">
        <ele>375</ele>
        <time>2014-04-19T09:10:30Z</time>
      </trkpt>
      <trkpt lat="47.35297" lon="3.95113">
        <ele>374</ele>
        <time>2014-04-19T09:10:34Z</time>
      </trkpt>
      <trkpt lat="47.35294" lon="3.9512">
        <ele>374</ele>
        <time>2014-04-19T09:10:40Z</time>
      </trkpt>
      <trkpt lat="47.35294" lon="3.95127">
        <ele>374</ele>
        <time>2014-04-19T09:10:44Z</time>
      </trkpt>
      <trkpt lat="47.35298" lon="3.95149">
        <ele>373</ele>
        <time>2014-04-19T09:11:02Z</time>
      </trkpt>
      <trkpt lat="47.35295" lon="3.95165">
        <ele>372</ele>
        <time>2014-04-19T09:11:08Z</time>
      </trkpt>
      <trkpt lat="47.35294" lon="3.95179">
        <ele>367</ele>
        <time>2014-04-19T09:11:15Z</time>
      </trkpt>
      <trkpt lat="47.35292" lon="3.95186">
        <ele>367</ele>
        <time>2014-04-19T09:11:19Z</time>
      </trkpt>
      <trkpt lat="47.3529" lon="3.95199">
        <ele>366</ele>
        <time>2014-04-19T09:11:25Z</time>
      </trkpt>
      <trkpt lat="47.35292" lon="3.95212">
        <ele>365</ele>
        <time>2014-04-19T09:11:36Z</time>
      </trkpt>
      <trkpt lat="47.35288" lon="3.95228">
        <ele>364</ele>
        <time>2014-04-19T09:11:42Z</time>
      </trkpt>
      <trkpt lat="47.35281" lon="3.95239">
        <ele>364</ele>
        <time>2014-04-19T09:11:50Z</time>
      </trkpt>
      <trkpt lat="47.3528" lon="3.95247">
        <ele>363</ele>
        <time>2014-04-19T09:11:55Z</time>
      </trkpt>
      <trkpt lat="47.35277" lon="3.95256">
        <ele>357</ele>
        <time>2014-04-19T09:11:59Z</time>
      </trkpt>
      <trkpt lat="47.35275" lon="3.95262">
        <ele>357</ele>
        <time>2014-04-19T09:12:05Z</time>
      </trkpt>
      <trkpt lat="47.35271" lon="3.95284">
        <ele>356</ele>
        <time>2014-04-19T09:12:18Z</time>
      </trkpt>
      <trkpt lat="47.3527" lon="3.95291">
        <ele>356</ele>
        <time>2014-04-19T09:12:22Z</time>
      </trkpt>
      <trkpt lat="47.35273" lon="3.95313">
        <ele>354</ele>
        <time>2014-04-19T09:12:38Z</time>
      </trkpt>
      <trkpt lat="47.35269" lon="3.9533">
        <ele>353</ele>
        <time>2014-04-19T09:12:45Z</time>
      </trkpt>
      <trkpt lat="47.35265" lon="3.95337">
        <ele>349</ele>
        <time>2014-04-19T09:12:47Z</time>
      </trkpt>
      <trkpt lat="47.35262" lon="3.95344">
        <ele>349</ele>
        <time>2014-04-19T09:12:51Z</time>
      </trkpt>
      <trkpt lat="47.35267" lon="3.95349">
        <ele>349</ele>
        <time>2014-04-19T09:12:56Z</time>
      </trkpt>
      <trkpt lat="47.35275" lon="3.9536">
        <ele>348</ele>
        <time>2014-04-19T09:13:02Z</time>
      </trkpt>
      <trkpt lat="47.35278" lon="3.95375">
        <ele>347</ele>
        <time>2014-04-19T09:13:11Z</time>
      </trkpt>
      <trkpt lat="47.3528" lon="3.95391">
        <ele>346</ele>
        <time>2014-04-19T09:13:20Z</time>
      </trkpt>
      <trkpt lat="47.35278" lon="3.95397">
        <ele>346</ele>
        <time>2014-04-19T09:13:24Z</time>
      </trkpt>
      <trkpt lat="47.35273" lon="3.95401">
        <ele>346</ele>
        <time>2014-04-19T09:13:28Z</time>
      </trkpt>
      <trkpt lat="47.35274" lon="3.95408">
        <ele>345</ele>
        <time>2014-04-19T09:13:33Z</time>
      </trkpt>
      <trkpt lat="47.35277" lon="3.95413">
        <ele>345</ele>
        <time>2014-04-19T09:13:36Z</time>
      </trkpt>
      <trkpt lat="47.35274" lon="3.95429">
        <ele>342</ele>
        <time>2014-04-19T09:13:46Z</time>
      </trkpt>
      <trkpt lat="47.35266" lon="3.95464">
        <ele>341</ele>
        <time>2014-04-19T09:14:10Z</time>
      </trkpt>
      <trkpt lat="47.35265" lon="3.95474">
        <ele>340</ele>
        <time>2014-04-19T09:14:16Z</time>
      </trkpt>
      <trkpt lat="47.35262" lon="3.95481">
        <ele>340</ele>
        <time>2014-04-19T09:14:18Z</time>
      </trkpt>
      <trkpt lat="47.35259" lon="3.95486">
        <ele>339</ele>
        <time>2014-04-19T09:14:20Z</time>
      </trkpt>
      <trkpt lat="47.35255" lon="3.95492">
        <ele>339</ele>
        <time>2014-04-19T09:14:22Z</time>
      </trkpt>
      <trkpt lat="47.35252" lon="3.95498">
        <ele>338</ele>
        <time>2014-04-19T09:14:25Z</time>
      </trkpt>
      <trkpt lat="47.35248" lon="3.95504">
        <ele>337</ele>
        <time>2014-04-19T09:14:29Z</time>
      </trkpt>
      <trkpt lat="47.35246" lon="3.95511">
        <ele>336</ele>
        <time>2014-04-19T09:14:34Z</time>
      </trkpt>
      <trkpt lat="47.35247" lon="3.95519">
        <ele>336</ele>
        <time>2014-04-19T09:14:38Z</time>
      </trkpt>
      <trkpt lat="47.35251" lon="3.95533">
        <ele>338</ele>
        <time>2014-04-19T09:14:44Z</time>
      </trkpt>
      <trkpt lat="47.35255" lon="3.95539">
        <ele>338</ele>
        <time>2014-04-19T09:14:50Z</time>
      </trkpt>
      <trkpt lat="47.35257" lon="3.95546">
        <ele>338</ele>
        <time>2014-04-19T09:14:53Z</time>
      </trkpt>
      <trkpt lat="47.35253" lon="3.95565">
        <ele>337</ele>
        <time>2014-04-19T09:15:08Z</time>
      </trkpt>
      <trkpt lat="47.3525" lon="3.9557">
        <ele>337</ele>
        <time>2014-04-19T09:15:13Z</time>
      </trkpt>
      <trkpt lat="47.3524" lon="3.95581">
        <ele>335</ele>
        <time>2014-04-19T09:15:18Z</time>
      </trkpt>
      <trkpt lat="47.35235" lon="3.95585">
        <ele>333</ele>
        <time>2014-04-19T09:15:20Z</time>
      </trkpt>
      <trkpt lat="47.35232" lon="3.95586">
        <ele>333</ele>
        <time>2014-04-19T09:15:22Z</time>
      </trkpt>
      <trkpt lat="47.35227" lon="3.95586">
        <ele>333</ele>
        <time>2014-04-19T09:15:26Z</time>
      </trkpt>
      <trkpt lat="47.3522" lon="3.95588">
        <ele>332</ele>
        <time>2014-04-19T09:15:30Z</time>
      </trkpt>
      <trkpt lat="47.35204" lon="3.95585">
        <ele>332</ele>
        <time>2014-04-19T09:15:41Z</time>
      </trkpt>
      <trkpt lat="47.35194" lon="3.95586">
        <ele>332</ele>
        <time>2014-04-19T09:15:49Z</time>
      </trkpt>
      <trkpt lat="47.35189" lon="3.95584">
        <ele>332</ele>
        <time>2014-04-19T09:15:53Z</time>
      </trkpt>
      <trkpt lat="47.35174" lon="3.95583">
        <ele>332</ele>
        <time>2014-04-19T09:16:01Z</time>
      </trkpt>
      <trkpt lat="47.35169" lon="3.95584">
        <ele>332</ele>
        <time>2014-04-19T09:16:06Z</time>
      </trkpt>
      <trkpt lat="47.35158" lon="3.95606">
        <ele>333</ele>
        <time>2014-04-19T09:16:19Z</time>
      </trkpt>
      <trkpt lat="47.35155" lon="3.95612">
        <ele>333</ele>
        <time>2014-04-19T09:16:22Z</time>
      </trkpt>
      <trkpt lat="47.35155" lon="3.95621">
        <ele>332</ele>
        <time>2014-04-19T09:16:25Z</time>
      </trkpt>
      <trkpt lat="47.35155" lon="3.95631">
        <ele>332</ele>
        <time>2014-04-19T09:16:33Z</time>
      </trkpt>
      <trkpt lat="47.35153" lon="3.95637">
        <ele>331</ele>
        <time>2014-04-19T09:16:37Z</time>
      </trkpt>
      <trkpt lat="47.35149" lon="3.95643">
        <ele>331</ele>
        <time>2014-04-19T09:16:40Z</time>
      </trkpt>
      <trkpt lat="47.35144" lon="3.95658">
        <ele>331</ele>
        <time>2014-04-19T09:16:48Z</time>
      </trkpt>
      <trkpt lat="47.35141" lon="3.95664">
        <ele>331</ele>
        <time>2014-04-19T09:16:51Z</time>
      </trkpt>
      <trkpt lat="47.3514" lon="3.9567">
        <ele>328</ele>
        <time>2014-04-19T09:16:59Z</time>
      </trkpt>
      <trkpt lat="47.35141" lon="3.95678">
        <ele>327</ele>
        <time>2014-04-19T09:17:03Z</time>
      </trkpt>
      <trkpt lat="47.35143" lon="3.95701">
        <ele>327</ele>
        <time>2014-04-19T09:17:15Z</time>
      </trkpt>
      <trkpt lat="47.35143" lon="3.95709">
        <ele>327</ele>
        <time>2014-04-19T09:17:19Z</time>
      </trkpt>
      <trkpt lat="47.35143" lon="3.95716">
        <ele>327</ele>
        <time>2014-04-19T09:17:25Z</time>
      </trkpt>
      <trkpt lat="47.35145" lon="3.95724">
        <ele>326</ele>
        <time>2014-04-19T09:17:29Z</time>
      </trkpt>
      <trkpt lat="47.35146" lon="3.9573">
        <ele>326</ele>
        <time>2014-04-19T09:17:32Z</time>
      </trkpt>
      <trkpt lat="47.35145" lon="3.95737">
        <ele>326</ele>
        <time>2014-04-19T09:17:36Z</time>
      </trkpt>
      <trkpt lat="47.35147" lon="3.95741">
        <ele>325</ele>
        <time>2014-04-19T09:17:48Z</time>
      </trkpt>
      <trkpt lat="47.35148" lon="3.95749">
        <ele>325</ele>
        <time>2014-04-19T09:17:52Z</time>
      </trkpt>
      <trkpt lat="47.35149" lon="3.95756">
        <ele>323</ele>
        <time>2014-04-19T09:17:55Z</time>
      </trkpt>
      <trkpt lat="47.3515" lon="3.95764">
        <ele>323</ele>
        <time>2014-04-19T09:17:58Z</time>
      </trkpt>
      <trkpt lat="47.35153" lon="3.95771">
        <ele>323</ele>
        <time>2014-04-19T09:18:02Z</time>
      </trkpt>
      <trkpt lat="47.35161" lon="3.95783">
        <ele>323</ele>
        <time>2014-04-19T09:18:10Z</time>
      </trkpt>
      <trkpt lat="47.35162" lon="3.95789">
        <ele>323</ele>
        <time>2014-04-19T09:18:13Z</time>
      </trkpt>
      <trkpt lat="47.35167" lon="3.95802">
        <ele>322</ele>
        <time>2014-04-19T09:18:22Z</time>
      </trkpt>
      <trkpt lat="47.35169" lon="3.9581">
        <ele>322</ele>
        <time>2014-04-19T09:18:26Z</time>
      </trkpt>
      <trkpt lat="47.35179" lon="3.95835">
        <ele>321</ele>
        <time>2014-04-19T09:18:40Z</time>
      </trkpt>
      <trkpt lat="47.35181" lon="3.95843">
        <ele>321</ele>
        <time>2014-04-19T09:18:44Z</time>
      </trkpt>
      <trkpt lat="47.35185" lon="3.95848">
        <ele>320</ele>
        <time>2014-04-19T09:18:48Z</time>
      </trkpt>
      <trkpt lat="47.35192" lon="3.9586">
        <ele>320</ele>
        <time>2014-04-19T09:19:00Z</time>
      </trkpt>
      <trkpt lat="47.35199" lon="3.95869">
        <ele>320</ele>
        <time>2014-04-19T09:19:06Z</time>
      </trkpt>
      <trkpt lat="47.35201" lon="3.95883">
        <ele>319</ele>
        <time>2014-04-19T09:19:13Z</time>
      </trkpt>
      <trkpt lat="47.35202" lon="3.9589">
        <ele>319</ele>
        <time>2014-04-19T09:19:17Z</time>
      </trkpt>
      <trkpt lat="47.35205" lon="3.95897">
        <ele>319</ele>
        <time>2014-04-19T09:19:22Z</time>
      </trkpt>
      <trkpt lat="47.35209" lon="3.95902">
        <ele>319</ele>
        <time>2014-04-19T09:19:26Z</time>
      </trkpt>
      <trkpt lat="47.35212" lon="3.95907">
        <ele>319</ele>
        <time>2014-04-19T09:19:30Z</time>
      </trkpt>
      <trkpt lat="47.35216" lon="3.95912">
        <ele>319</ele>
        <time>2014-04-19T09:19:34Z</time>
      </trkpt>
      <trkpt lat="47.35219" lon="3.95918">
        <ele>318</ele>
        <time>2014-04-19T09:19:38Z</time>
      </trkpt>
      <trkpt lat="47.35225" lon="3.95947">
        <ele>318</ele>
        <time>2014-04-19T09:19:51Z</time>
      </trkpt>
      <trkpt lat="47.3523" lon="3.9596">
        <ele>318</ele>
        <time>2014-04-19T09:19:59Z</time>
      </trkpt>
      <trkpt lat="47.35231" lon="3.95968">
        <ele>317</ele>
        <time>2014-04-19T09:20:03Z</time>
      </trkpt>
      <trkpt lat="47.3524" lon="3.95988">
        <ele>317</ele>
        <time>2014-04-19T09:20:15Z</time>
      </trkpt>
      <trkpt lat="47.35246" lon="3.95999">
        <ele>316</ele>
        <time>2014-04-19T09:20:22Z</time>
      </trkpt>
      <trkpt lat="47.35252" lon="3.96012">
        <ele>315</ele>
        <time>2014-04-19T09:20:31Z</time>
      </trkpt>
      <trkpt lat="47.35255" lon="3.96018">
        <ele>315</ele>
        <time>2014-04-19T09:20:34Z</time>
      </trkpt>
      <trkpt lat="47.35257" lon="3.96025">
        <ele>315</ele>
        <time>2014-04-19T09:20:37Z</time>
      </trkpt>
      <trkpt lat="47.35257" lon="3.96033">
        <ele>314</ele>
        <time>2014-04-19T09:20:40Z</time>
      </trkpt>
      <trkpt lat="47.35258" lon="3.96048">
        <ele>314</ele>
        <time>2014-04-19T09:20:48Z</time>
      </trkpt>
      <trkpt lat="47.35257" lon="3.96055">
        <ele>314</ele>
        <time>2014-04-19T09:20:53Z</time>
      </trkpt>
      <trkpt lat="47.35254" lon="3.96062">
        <ele>314</ele>
        <time>2014-04-19T09:20:58Z</time>
      </trkpt>
      <trkpt lat="47.35252" lon="3.96074">
        <ele>314</ele>
        <time>2014-04-19T09:21:04Z</time>
      </trkpt>
      <trkpt lat="47.35251" lon="3.9608">
        <ele>314</ele>
        <time>2014-04-19T09:21:07Z</time>
      </trkpt>
      <trkpt lat="47.35252" lon="3.96089">
        <ele>314</ele>
        <time>2014-04-19T09:21:17Z</time>
      </trkpt>
      <trkpt lat="47.35251" lon="3.96114">
        <ele>314</ele>
        <time>2014-04-19T09:21:29Z</time>
      </trkpt>
      <trkpt lat="47.35247" lon="3.96137">
        <ele>315</ele>
        <time>2014-04-19T09:21:39Z</time>
      </trkpt>
      <trkpt lat="47.35244" lon="3.96143">
        <ele>315</ele>
        <time>2014-04-19T09:21:44Z</time>
      </trkpt>
      <trkpt lat="47.35242" lon="3.96151">
        <ele>315</ele>
        <time>2014-04-19T09:21:48Z</time>
      </trkpt>
      <trkpt lat="47.35244" lon="3.96158">
        <ele>315</ele>
        <time>2014-04-19T09:21:51Z</time>
      </trkpt>
      <trkpt lat="47.35247" lon="3.96164">
        <ele>315</ele>
        <time>2014-04-19T09:21:53Z</time>
      </trkpt>
      <trkpt lat="47.35246" lon="3.96171">
        <ele>315</ele>
        <time>2014-04-19T09:21:57Z</time>
      </trkpt>
      <trkpt lat="47.35246" lon="3.96178">
        <ele>315</ele>
        <time>2014-04-19T09:22:03Z</time>
      </trkpt>
      <trkpt lat="47.35242" lon="3.9619">
        <ele>316</ele>
        <time>2014-04-19T09:22:10Z</time>
      </trkpt>
      <trkpt lat="47.35239" lon="3.96196">
        <ele>316</ele>
        <time>2014-04-19T09:22:13Z</time>
      </trkpt>
      <trkpt lat="47.35236" lon="3.96203">
        <ele>316</ele>
        <time>2014-04-19T09:22:17Z</time>
      </trkpt>
      <trkpt lat="47.35235" lon="3.96211">
        <ele>316</ele>
        <time>2014-04-19T09:22:21Z</time>
      </trkpt>
      <trkpt lat="47.35226" lon="3.96239">
        <ele>316</ele>
        <time>2014-04-19T09:22:35Z</time>
      </trkpt>
      <trkpt lat="47.35224" lon="3.96246">
        <ele>316</ele>
        <time>2014-04-19T09:22:40Z</time>
      </trkpt>
      <trkpt lat="47.35221" lon="3.96251">
        <ele>315</ele>
        <time>2014-04-19T09:22:45Z</time>
      </trkpt>
      <trkpt lat="47.3522" lon="3.96258">
        <ele>315</ele>
        <time>2014-04-19T09:22:49Z</time>
      </trkpt>
      <trkpt lat="47.3522" lon="3.96265">
        <ele>315</ele>
        <time>2014-04-19T09:22:52Z</time>
      </trkpt>
      <trkpt lat="47.35222" lon="3.96272">
        <ele>315</ele>
        <time>2014-04-19T09:22:55Z</time>
      </trkpt>
      <trkpt lat="47.35225" lon="3.96278">
        <ele>315</ele>
        <time>2014-04-19T09:22:58Z</time>
      </trkpt>
      <trkpt lat="47.35234" lon="3.96289">
        <ele>315</ele>
        <time>2014-04-19T09:23:07Z</time>
      </trkpt>
      <trkpt lat="47.35237" lon="3.96296">
        <ele>315</ele>
        <time>2014-04-19T09:23:10Z</time>
      </trkpt>
      <trkpt lat="47.35245" lon="3.96307">
        <ele>315</ele>
        <time>2014-04-19T09:23:19Z</time>
      </trkpt>
      <trkpt lat="47.35259" lon="3.96321">
        <ele>314</ele>
        <time>2014-04-19T09:23:30Z</time>
      </trkpt>
      <trkpt lat="47.35261" lon="3.96326">
        <ele>314</ele>
        <time>2014-04-19T09:23:34Z</time>
      </trkpt>
      <trkpt lat="47.35263" lon="3.96333">
        <ele>314</ele>
        <time>2014-04-19T09:23:37Z</time>
      </trkpt>
      <trkpt lat="47.35268" lon="3.96337">
        <ele>314</ele>
        <time>2014-04-19T09:23:41Z</time>
      </trkpt>
      <trkpt lat="47.35272" lon="3.96342">
        <ele>314</ele>
        <time>2014-04-19T09:23:45Z</time>
      </trkpt>
      <trkpt lat="47.35275" lon="3.96347">
        <ele>313</ele>
        <time>2014-04-19T09:23:49Z</time>
      </trkpt>
      <trkpt lat="47.35279" lon="3.96352">
        <ele>313</ele>
        <time>2014-04-19T09:23:52Z</time>
      </trkpt>
      <trkpt lat="47.35283" lon="3.96355">
        <ele>313</ele>
        <time>2014-04-19T09:23:55Z</time>
      </trkpt>
      <trkpt lat="47.35296" lon="3.96372">
        <ele>313</ele>
        <time>2014-04-19T09:24:06Z</time>
      </trkpt>
      <trkpt lat="47.353" lon="3.96376">
        <ele>313</ele>
        <time>2014-04-19T09:24:09Z</time>
      </trkpt>
      <trkpt lat="47.35305" lon="3.9638">
        <ele>313</ele>
        <time>2014-04-19T09:24:12Z</time>
      </trkpt>
      <trkpt lat="47.35315" lon="3.96385">
        <ele>313</ele>
        <time>2014-04-19T09:24:19Z</time>
      </trkpt>
      <trkpt lat="47.3532" lon="3.96387">
        <ele>313</ele>
        <time>2014-04-19T09:24:23Z</time>
      </trkpt>
      <trkpt lat="47.35327" lon="3.96398">
        <ele>313</ele>
        <time>2014-04-19T09:24:30Z</time>
      </trkpt>
      <trkpt lat="47.35331" lon="3.96403">
        <ele>313</ele>
        <time>2014-04-19T09:24:34Z</time>
      </trkpt>
      <trkpt lat="47.35335" lon="3.96406">
        <ele>313</ele>
        <time>2014-04-19T09:24:43Z</time>
      </trkpt>
      <trkpt lat="47.35339" lon="3.96411">
        <ele>313</ele>
        <time>2014-04-19T09:24:47Z</time>
      </trkpt>
      <trkpt lat="47.35348" lon="3.96416">
        <ele>313</ele>
        <time>2014-04-19T09:24:53Z</time>
      </trkpt>
      <trkpt lat="47.35353" lon="3.96417">
        <ele>314</ele>
        <time>2014-04-19T09:24:56Z</time>
      </trkpt>
      <trkpt lat="47.35358" lon="3.96419">
        <ele>314</ele>
        <time>2014-04-19T09:24:59Z</time>
      </trkpt>
      <trkpt lat="47.35363" lon="3.9642">
        <ele>314</ele>
        <time>2014-04-19T09:25:03Z</time>
      </trkpt>
      <trkpt lat="47.35368" lon="3.96423">
        <ele>314</ele>
        <time>2014-04-19T09:25:08Z</time>
      </trkpt>
      <trkpt lat="47.35372" lon="3.96427">
        <ele>314</ele>
        <time>2014-04-19T09:25:17Z</time>
      </trkpt>
      <trkpt lat="47.35377" lon="3.9643">
        <ele>314</ele>
        <time>2014-04-19T09:25:22Z</time>
      </trkpt>
      <trkpt lat="47.35387" lon="3.96431">
        <ele>314</ele>
        <time>2014-04-19T09:25:29Z</time>
      </trkpt>
      <trkpt lat="47.35397" lon="3.9643">
        <ele>314</ele>
        <time>2014-04-19T09:25:37Z</time>
      </trkpt>
      <trkpt lat="47.35407" lon="3.96433">
        <ele>314</ele>
        <time>2014-04-19T09:25:45Z</time>
      </trkpt>
      <trkpt lat="47.35412" lon="3.96433">
        <ele>314</ele>
        <time>2014-04-19T09:25:50Z</time>
      </trkpt>
      <trkpt lat="47.35417" lon="3.96431">
        <ele>316</ele>
        <time>2014-04-19T09:25:55Z</time>
      </trkpt>
      <trkpt lat="47.35422" lon="3.9643">
        <ele>317</ele>
        <time>2014-04-19T09:25:58Z</time>
      </trkpt>
      <trkpt lat="47.35433" lon="3.96427">
        <ele>317</ele>
        <time>2014-04-19T09:26:05Z</time>
      </trkpt>
      <trkpt lat="47.35438" lon="3.96429">
        <ele>318</ele>
        <time>2014-04-19T09:26:09Z</time>
      </trkpt>
      <trkpt lat="47.35444" lon="3.96427">
        <ele>318</ele>
        <time>2014-04-19T09:26:13Z</time>
      </trkpt>
      <trkpt lat="47.35448" lon="3.96426">
        <ele>319</ele>
        <time>2014-04-19T09:26:16Z</time>
      </trkpt>
      <trkpt lat="47.35453" lon="3.96427">
        <ele>319</ele>
        <time>2014-04-19T09:26:20Z</time>
      </trkpt>
      <trkpt lat="47.35458" lon="3.96425">
        <ele>319</ele>
        <time>2014-04-19T09:26:28Z</time>
      </trkpt>
      <trkpt lat="47.35459" lon="3.9642">
        <ele>319</ele>
        <time>2014-04-19T09:26:37Z</time>
      </trkpt>
      <trkpt lat="47.35463" lon="3.96423">
        <ele>319</ele>
        <time>2014-04-19T09:27:06Z</time>
      </trkpt>
      <trkpt lat="47.35468" lon="3.96422">
        <ele>320</ele>
        <time>2014-04-19T09:27:09Z</time>
      </trkpt>
      <trkpt lat="47.35478" lon="3.96422">
        <ele>320</ele>
        <time>2014-04-19T09:27:15Z</time>
      </trkpt>
      <trkpt lat="47.3549" lon="3.96424">
        <ele>319</ele>
        <time>2014-04-19T09:27:23Z</time>
      </trkpt>
      <trkpt lat="47.35495" lon="3.96426">
        <ele>319</ele>
        <time>2014-04-19T09:27:27Z</time>
      </trkpt>
      <trkpt lat="47.35506" lon="3.96422">
        <ele>320</ele>
        <time>2014-04-19T09:27:35Z</time>
      </trkpt>
      <trkpt lat="47.3551" lon="3.9642">
        <ele>321</ele>
        <time>2014-04-19T09:27:39Z</time>
      </trkpt>
      <trkpt lat="47.35515" lon="3.96418">
        <ele>321</ele>
        <time>2014-04-19T09:27:45Z</time>
      </trkpt>
      <trkpt lat="47.35521" lon="3.96418">
        <ele>322</ele>
        <time>2014-04-19T09:27:49Z</time>
      </trkpt>
      <trkpt lat="47.35526" lon="3.96415">
        <ele>317</ele>
        <time>2014-04-19T09:27:52Z</time>
      </trkpt>
      <trkpt lat="47.3553" lon="3.96412">
        <ele>317</ele>
        <time>2014-04-19T09:27:55Z</time>
      </trkpt>
      <trkpt lat="47.35535" lon="3.96411">
        <ele>317</ele>
        <time>2014-04-19T09:28:00Z</time>
      </trkpt>
      <trkpt lat="47.35545" lon="3.96412">
        <ele>318</ele>
        <time>2014-04-19T09:28:08Z</time>
      </trkpt>
      <trkpt lat="47.3555" lon="3.96411">
        <ele>318</ele>
        <time>2014-04-19T09:28:14Z</time>
      </trkpt>
      <trkpt lat="47.35555" lon="3.9641">
        <ele>318</ele>
        <time>2014-04-19T09:28:19Z</time>
      </trkpt>
      <trkpt lat="47.3556" lon="3.96412">
        <ele>319</ele>
        <time>2014-04-19T09:28:23Z</time>
      </trkpt>
      <trkpt lat="47.35562" lon="3.96407">
        <ele>319</ele>
        <time>2014-04-19T09:28:31Z</time>
      </trkpt>
      <trkpt lat="47.35565" lon="3.96408">
        <ele>319</ele>
        <time>2014-04-19T09:28:44Z</time>
      </trkpt>
      <trkpt lat="47.35582" lon="3.96407">
        <ele>320</ele>
        <time>2014-04-19T09:28:54Z</time>
      </trkpt>
      <trkpt lat="47.35587" lon="3.96405">
        <ele>321</ele>
        <time>2014-04-19T09:28:58Z</time>
      </trkpt>
      <trkpt lat="47.35592" lon="3.96406">
        <ele>321</ele>
        <time>2014-04-19T09:29:01Z</time>
      </trkpt>
      <trkpt lat="47.35601" lon="3.9641">
        <ele>321</ele>
        <time>2014-04-19T09:29:07Z</time>
      </trkpt>
      <trkpt lat="47.35611" lon="3.96413">
        <ele>320</ele>
        <time>2014-04-19T09:29:13Z</time>
      </trkpt>
      <trkpt lat="47.35616" lon="3.96414">
        <ele>320</ele>
        <time>2014-04-19T09:29:16Z</time>
      </trkpt>
      <trkpt lat="47.35625" lon="3.96414">
        <ele>320</ele>
        <time>2014-04-19T09:29:27Z</time>
      </trkpt>
      <trkpt lat="47.3563" lon="3.96416">
        <ele>321</ele>
        <time>2014-04-19T09:29:32Z</time>
      </trkpt>
      <trkpt lat="47.35636" lon="3.96416">
        <ele>321</ele>
        <time>2014-04-19T09:29:37Z</time>
      </trkpt>
      <trkpt lat="47.35646" lon="3.96419">
        <ele>326</ele>
        <time>2014-04-19T09:29:46Z</time>
      </trkpt>
      <trkpt lat="47.35651" lon="3.9642">
        <ele>326</ele>
        <time>2014-04-19T09:29:49Z</time>
      </trkpt>
      <trkpt lat="47.35656" lon="3.96419">
        <ele>325</ele>
        <time>2014-04-19T09:29:52Z</time>
      </trkpt>
      <trkpt lat="47.3566" lon="3.96418">
        <ele>325</ele>
        <time>2014-04-19T09:29:55Z</time>
      </trkpt>
      <trkpt lat="47.35665" lon="3.96419">
        <ele>324</ele>
        <time>2014-04-19T09:29:59Z</time>
      </trkpt>
      <trkpt lat="47.3568" lon="3.96427">
        <ele>326</ele>
        <time>2014-04-19T09:30:09Z</time>
      </trkpt>
      <trkpt lat="47.35685" lon="3.96429">
        <ele>326</ele>
        <time>2014-04-19T09:30:13Z</time>
      </trkpt>
      <trkpt lat="47.35689" lon="3.96431">
        <ele>326</ele>
        <time>2014-04-19T09:30:18Z</time>
      </trkpt>
      <trkpt lat="47.35694" lon="3.96437">
        <ele>327</ele>
        <time>2014-04-19T09:30:22Z</time>
      </trkpt>
      <trkpt lat="47.35698" lon="3.96443">
        <ele>327</ele>
        <time>2014-04-19T09:30:25Z</time>
      </trkpt>
      <trkpt lat="47.35702" lon="3.96448">
        <ele>327</ele>
        <time>2014-04-19T09:30:29Z</time>
      </trkpt>
      <trkpt lat="47.35707" lon="3.96453">
        <ele>327</ele>
        <time>2014-04-19T09:30:53Z</time>
      </trkpt>
      <trkpt lat="47.35721" lon="3.96473">
        <ele>328</ele>
        <time>2014-04-19T09:31:10Z</time>
      </trkpt>
      <trkpt lat="47.3573" lon="3.96483">
        <ele>328</ele>
        <time>2014-04-19T09:31:18Z</time>
      </trkpt>
      <trkpt lat="47.35733" lon="3.96487">
        <ele>329</ele>
        <time>2014-04-19T09:31:20Z</time>
      </trkpt>
      <trkpt lat="47.35736" lon="3.96492">
        <ele>329</ele>
        <time>2014-04-19T09:31:25Z</time>
      </trkpt>
      <trkpt lat="47.35745" lon="3.96503">
        <ele>331</ele>
        <time>2014-04-19T09:31:32Z</time>
      </trkpt>
      <trkpt lat="47.35752" lon="3.9651">
        <ele>331</ele>
        <time>2014-04-19T09:31:45Z</time>
      </trkpt>
      <trkpt lat="47.35758" lon="3.96512">
        <ele>332</ele>
        <time>2014-04-19T09:31:49Z</time>
      </trkpt>
      <trkpt lat="47.35763" lon="3.96515">
        <ele>332</ele>
        <time>2014-04-19T09:31:52Z</time>
      </trkpt>
      <trkpt lat="47.35771" lon="3.96523">
        <ele>333</ele>
        <time>2014-04-19T09:32:01Z</time>
      </trkpt>
      <trkpt lat="47.35777" lon="3.96527">
        <ele>333</ele>
        <time>2014-04-19T09:32:06Z</time>
      </trkpt>
      <trkpt lat="47.35783" lon="3.96529">
        <ele>334</ele>
        <time>2014-04-19T09:32:09Z</time>
      </trkpt>
      <trkpt lat="47.35797" lon="3.9654">
        <ele>334</ele>
        <time>2014-04-19T09:32:21Z</time>
      </trkpt>
      <trkpt lat="47.35805" lon="3.9655">
        <ele>335</ele>
        <time>2014-04-19T09:32:28Z</time>
      </trkpt>
      <trkpt lat="47.3581" lon="3.96551">
        <ele>335</ele>
        <time>2014-04-19T09:32:31Z</time>
      </trkpt>
      <trkpt lat="47.35815" lon="3.96554">
        <ele>335</ele>
        <time>2014-04-19T09:32:36Z</time>
      </trkpt>
      <trkpt lat="47.3582" lon="3.96556">
        <ele>335</ele>
        <time>2014-04-19T09:32:40Z</time>
      </trkpt>
      <trkpt lat="47.35829" lon="3.96562">
        <ele>336</ele>
        <time>2014-04-19T09:32:48Z</time>
      </trkpt>
      <trkpt lat="47.35833" lon="3.96567">
        <ele>336</ele>
        <time>2014-04-19T09:32:53Z</time>
      </trkpt>
      <trkpt lat="47.3584" lon="3.96569">
        <ele>335</ele>
        <time>2014-04-19T09:33:02Z</time>
      </trkpt>
      <trkpt lat="47.35845" lon="3.96566">
        <ele>335</ele>
        <time>2014-04-19T09:33:03Z</time>
      </trkpt>
      <trkpt lat="47.3585" lon="3.96568">
        <ele>335</ele>
        <time>2014-04-19T09:33:14Z</time>
      </trkpt>
      <trkpt lat="47.35863" lon="3.96582">
        <ele>334</ele>
        <time>2014-04-19T09:33:25Z</time>
      </trkpt>
      <trkpt lat="47.35866" lon="3.96588">
        <ele>338</ele>
        <time>2014-04-19T09:33:29Z</time>
      </trkpt>
      <trkpt lat="47.35867" lon="3.96595">
        <ele>338</ele>
        <time>2014-04-19T09:33:35Z</time>
      </trkpt>
      <trkpt lat="47.3588" lon="3.96618">
        <ele>339</ele>
        <time>2014-04-19T09:33:53Z</time>
      </trkpt>
      <trkpt lat="47.35885" lon="3.96633">
        <ele>339</ele>
        <time>2014-04-19T09:34:02Z</time>
      </trkpt>
      <trkpt lat="47.359" lon="3.96655">
        <ele>339</ele>
        <time>2014-04-19T09:34:17Z</time>
      </trkpt>
      <trkpt lat="47.35903" lon="3.9666">
        <ele>339</ele>
        <time>2014-04-19T09:34:21Z</time>
      </trkpt>
      <trkpt lat="47.35904" lon="3.96667">
        <ele>339</ele>
        <time>2014-04-19T09:34:26Z</time>
      </trkpt>
      <trkpt lat="47.35908" lon="3.96675">
        <ele>342</ele>
        <time>2014-04-19T09:34:32Z</time>
      </trkpt>
      <trkpt lat="47.35912" lon="3.96679">
        <ele>342</ele>
        <time>2014-04-19T09:34:35Z</time>
      </trkpt>
      <trkpt lat="47.3592" lon="3.9669">
        <ele>340</ele>
        <time>2014-04-19T09:34:41Z</time>
      </trkpt>
      <trkpt lat="47.35925" lon="3.96695">
        <ele>340</ele>
        <time>2014-04-19T09:34:44Z</time>
      </trkpt>
      <trkpt lat="47.35929" lon="3.967">
        <ele>340</ele>
        <time>2014-04-19T09:34:47Z</time>
      </trkpt>
      <trkpt lat="47.35946" lon="3.96732">
        <ele>341</ele>
        <time>2014-04-19T09:35:07Z</time>
      </trkpt>
      <trkpt lat="47.35953" lon="3.96752">
        <ele>345</ele>
        <time>2014-04-19T09:35:17Z</time>
      </trkpt>
      <trkpt lat="47.35956" lon="3.96759">
        <ele>345</ele>
        <time>2014-04-19T09:35:21Z</time>
      </trkpt>
      <trkpt lat="47.35957" lon="3.96781">
        <ele>345</ele>
        <time>2014-04-19T09:35:32Z</time>
      </trkpt>
      <trkpt lat="47.35957" lon="3.96787">
        <ele>345</ele>
        <time>2014-04-19T09:35:35Z</time>
      </trkpt>
      <trkpt lat="47.35955" lon="3.96794">
        <ele>346</ele>
        <time>2014-04-19T09:35:38Z</time>
      </trkpt>
      <trkpt lat="47.35952" lon="3.96801">
        <ele>346</ele>
        <time>2014-04-19T09:35:41Z</time>
      </trkpt>
      <trkpt lat="47.35949" lon="3.96815">
        <ele>346</ele>
        <time>2014-04-19T09:35:49Z</time>
      </trkpt>
      <trkpt lat="47.35949" lon="3.9684">
        <ele>348</ele>
        <time>2014-04-19T09:36:01Z</time>
      </trkpt>
      <trkpt lat="47.3595" lon="3.96844">
        <ele>348</ele>
        <time>2014-04-19T09:36:08Z</time>
      </trkpt>
      <trkpt lat="47.35947" lon="3.96852">
        <ele>348</ele>
        <time>2014-04-19T09:36:16Z</time>
      </trkpt>
      <trkpt lat="47.35948" lon="3.9686">
        <ele>348</ele>
        <time>2014-04-19T09:36:19Z</time>
      </trkpt>
      <trkpt lat="47.3595" lon="3.9689">
        <ele>348</ele>
        <time>2014-04-19T09:36:36Z</time>
      </trkpt>
      <trkpt lat="47.35949" lon="3.96896">
        <ele>348</ele>
        <time>2014-04-19T09:36:40Z</time>
      </trkpt>
      <trkpt lat="47.35945" lon="3.96904">
        <ele>349</ele>
        <time>2014-04-19T09:36:44Z</time>
      </trkpt>
      <trkpt lat="47.35944" lon="3.96912">
        <ele>349</ele>
        <time>2014-04-19T09:36:48Z</time>
      </trkpt>
      <trkpt lat="47.35943" lon="3.9692">
        <ele>350</ele>
        <time>2014-04-19T09:36:52Z</time>
      </trkpt>
      <trkpt lat="47.35944" lon="3.96928">
        <ele>350</ele>
        <time>2014-04-19T09:36:56Z</time>
      </trkpt>
      <trkpt lat="47.35946" lon="3.96934">
        <ele>349</ele>
        <time>2014-04-19T09:36:59Z</time>
      </trkpt>
      <trkpt lat="47.35946" lon="3.96942">
        <ele>349</ele>
        <time>2014-04-19T09:37:03Z</time>
      </trkpt>
      <trkpt lat="47.35945" lon="3.9695">
        <ele>349</ele>
        <time>2014-04-19T09:37:09Z</time>
      </trkpt>
      <trkpt lat="47.35944" lon="3.96973">
        <ele>349</ele>
        <time>2014-04-19T09:37:17Z</time>
      </trkpt>
      <trkpt lat="47.35946" lon="3.9698">
        <ele>349</ele>
        <time>2014-04-19T09:37:20Z</time>
      </trkpt>
      <trkpt lat="47.3595" lon="3.96985">
        <ele>349</ele>
        <time>2014-04-19T09:37:24Z</time>
      </trkpt>
      <trkpt lat="47.35947" lon="3.96991">
        <ele>350</ele>
        <time>2014-04-19T09:37:29Z</time>
      </trkpt>
      <trkpt lat="47.35944" lon="3.96998">
        <ele>350</ele>
        <time>2014-04-19T09:37:33Z</time>
      </trkpt>
      <trkpt lat="47.35945" lon="3.97004">
        <ele>350</ele>
        <time>2014-04-19T09:37:37Z</time>
      </trkpt>
      <trkpt lat="47.35942" lon="3.9702">
        <ele>350</ele>
        <time>2014-04-19T09:37:47Z</time>
      </trkpt>
      <trkpt lat="47.35936" lon="3.97034">
        <ele>349</ele>
        <time>2014-04-19T09:37:54Z</time>
      </trkpt>
      <trkpt lat="47.35934" lon="3.97046">
        <ele>349</ele>
        <time>2014-04-19T09:38:01Z</time>
      </trkpt>
      <trkpt lat="47.35934" lon="3.97054">
        <ele>349</ele>
        <time>2014-04-19T09:38:05Z</time>
      </trkpt>
      <trkpt lat="47.35939" lon="3.97068">
        <ele>349</ele>
        <time>2014-04-19T09:38:14Z</time>
      </trkpt>
      <trkpt lat="47.3594" lon="3.97076">
        <ele>349</ele>
        <time>2014-04-19T09:38:17Z</time>
      </trkpt>
      <trkpt lat="47.35939" lon="3.97083">
        <ele>349</ele>
        <time>2014-04-19T09:38:20Z</time>
      </trkpt>
      <trkpt lat="47.3594" lon="3.97091">
        <ele>350</ele>
        <time>2014-04-19T09:38:24Z</time>
      </trkpt>
      <trkpt lat="47.35939" lon="3.971">
        <ele>351</ele>
        <time>2014-04-19T09:38:36Z</time>
      </trkpt>
      <trkpt lat="47.35939" lon="3.97109">
        <ele>351</ele>
        <time>2014-04-19T09:38:41Z</time>
      </trkpt>
      <trkpt lat="47.35935" lon="3.97113">
        <ele>351</ele>
        <time>2014-04-19T09:38:46Z</time>
      </trkpt>
      <trkpt lat="47.35936" lon="3.9712">
        <ele>351</ele>
        <time>2014-04-19T09:38:50Z</time>
      </trkpt>
      <trkpt lat="47.35937" lon="3.97128">
        <ele>352</ele>
        <time>2014-04-19T09:38:54Z</time>
      </trkpt>
      <trkpt lat="47.3594" lon="3.97135">
        <ele>352</ele>
        <time>2014-04-19T09:38:58Z</time>
      </trkpt>
      <trkpt lat="47.35944" lon="3.9714">
        <ele>352</ele>
        <time>2014-04-19T09:39:03Z</time>
      </trkpt>
      <trkpt lat="47.35948" lon="3.97143">
        <ele>352</ele>
        <time>2014-04-19T09:39:06Z</time>
      </trkpt>
      <trkpt lat="47.35954" lon="3.97144">
        <ele>352</ele>
        <time>2014-04-19T09:39:09Z</time>
      </trkpt>
      <trkpt lat="47.3596" lon="3.97142">
        <ele>352</ele>
        <time>2014-04-19T09:39:12Z</time>
      </trkpt>
      <trkpt lat="47.35964" lon="3.97138">
        <ele>352</ele>
        <time>2014-04-19T09:39:15Z</time>
      </trkpt>
      <trkpt lat="47.35967" lon="3.97144">
        <ele>353</ele>
        <time>2014-04-19T09:39:18Z</time>
      </trkpt>
      <trkpt lat="47.35969" lon="3.9715">
        <ele>353</ele>
        <time>2014-04-19T09:39:20Z</time>
      </trkpt>
      <trkpt lat="47.35969" lon="3.97158">
        <ele>353</ele>
        <time>2014-04-19T09:39:22Z</time>
      </trkpt>
      <trkpt lat="47.35968" lon="3.97165">
        <ele>354</ele>
        <time>2014-04-19T09:39:27Z</time>
      </trkpt>
      <trkpt lat="47.35964" lon="3.9717">
        <ele>358</ele>
        <time>2014-04-19T09:39:30Z</time>
      </trkpt>
      <trkpt lat="47.35957" lon="3.97173">
        <ele>357</ele>
        <time>2014-04-19T09:39:42Z</time>
      </trkpt>
      <trkpt lat="47.35953" lon="3.97177">
        <ele>357</ele>
        <time>2014-04-19T09:39:44Z</time>
      </trkpt>
      <trkpt lat="47.35949" lon="3.97182">
        <ele>357</ele>
        <time>2014-04-19T09:39:48Z</time>
      </trkpt>
      <trkpt lat="47.35945" lon="3.97189">
        <ele>357</ele>
        <time>2014-04-19T09:39:53Z</time>
      </trkpt>
      <trkpt lat="47.35942" lon="3.97195">
        <ele>357</ele>
        <time>2014-04-19T09:39:56Z</time>
      </trkpt>
      <trkpt lat="47.35939" lon="3.97201">
        <ele>358</ele>
        <time>2014-04-19T09:40:01Z</time>
      </trkpt>
      <trkpt lat="47.35934" lon="3.97217">
        <ele>358</ele>
        <time>2014-04-19T09:40:13Z</time>
      </trkpt>
      <trkpt lat="47.35928" lon="3.97229">
        <ele>358</ele>
        <time>2014-04-19T09:40:19Z</time>
      </trkpt>
      <trkpt lat="47.35924" lon="3.97234">
        <ele>358</ele>
        <time>2014-04-19T09:40:25Z</time>
      </trkpt>
      <trkpt lat="47.35922" lon="3.97238">
        <ele>358</ele>
        <time>2014-04-19T09:40:45Z</time>
      </trkpt>
      <trkpt lat="47.35918" lon="3.97246">
        <ele>358</ele>
        <time>2014-04-19T09:40:47Z</time>
      </trkpt>
      <trkpt lat="47.35911" lon="3.97257">
        <ele>358</ele>
        <time>2014-04-19T09:40:54Z</time>
      </trkpt>
      <trkpt lat="47.35908" lon="3.97264">
        <ele>358</ele>
        <time>2014-04-19T09:40:57Z</time>
      </trkpt>
      <trkpt lat="47.35905" lon="3.97272">
        <ele>358</ele>
        <time>2014-04-19T09:41:00Z</time>
      </trkpt>
      <trkpt lat="47.35898" lon="3.97284">
        <ele>358</ele>
        <time>2014-04-19T09:41:07Z</time>
      </trkpt>
      <trkpt lat="47.35894" lon="3.9729">
        <ele>358</ele>
        <time>2014-04-19T09:41:10Z</time>
      </trkpt>
      <trkpt lat="47.3589" lon="3.97306">
        <ele>358</ele>
        <time>2014-04-19T09:41:19Z</time>
      </trkpt>
      <trkpt lat="47.35889" lon="3.97313">
        <ele>358</ele>
        <time>2014-04-19T09:41:22Z</time>
      </trkpt>
      <trkpt lat="47.35892" lon="3.97334">
        <ele>363</ele>
        <time>2014-04-19T09:41:37Z</time>
      </trkpt>
      <trkpt lat="47.35891" lon="3.97342">
        <ele>363</ele>
        <time>2014-04-19T09:41:50Z</time>
      </trkpt>
      <trkpt lat="47.35882" lon="3.97381">
        <ele>363</ele>
        <time>2014-04-19T09:42:06Z</time>
      </trkpt>
      <trkpt lat="47.35884" lon="3.9739">
        <ele>363</ele>
        <time>2014-04-19T09:42:10Z</time>
      </trkpt>
      <trkpt lat="47.35885" lon="3.97393">
        <ele>364</ele>
        <time>2014-04-19T09:42:13Z</time>
      </trkpt>
      <trkpt lat="47.35883" lon="3.97407">
        <ele>364</ele>
        <time>2014-04-19T09:42:19Z</time>
      </trkpt>
      <trkpt lat="47.35885" lon="3.97413">
        <ele>364</ele>
        <time>2014-04-19T09:42:26Z</time>
      </trkpt>
      <trkpt lat="47.35884" lon="3.97446">
        <ele>367</ele>
        <time>2014-04-19T09:42:55Z</time>
      </trkpt>
      <trkpt lat="47.35885" lon="3.97453">
        <ele>367</ele>
        <time>2014-04-19T09:43:02Z</time>
      </trkpt>
      <trkpt lat="47.35887" lon="3.97461">
        <ele>368</ele>
        <time>2014-04-19T09:43:07Z</time>
      </trkpt>
      <trkpt lat="47.3589" lon="3.97467">
        <ele>368</ele>
        <time>2014-04-19T09:43:10Z</time>
      </trkpt>
      <trkpt lat="47.35892" lon="3.97474">
        <ele>369</ele>
        <time>2014-04-19T09:43:14Z</time>
      </trkpt>
      <trkpt lat="47.35895" lon="3.9749">
        <ele>370</ele>
        <time>2014-04-19T09:43:23Z</time>
      </trkpt>
      <trkpt lat="47.35901" lon="3.97511">
        <ele>373</ele>
        <time>2014-04-19T09:43:34Z</time>
      </trkpt>
      <trkpt lat="47.35903" lon="3.97525">
        <ele>373</ele>
        <time>2014-04-19T09:43:41Z</time>
      </trkpt>
      <trkpt lat="47.35904" lon="3.97532">
        <ele>373</ele>
        <time>2014-04-19T09:43:44Z</time>
      </trkpt>
      <trkpt lat="47.359" lon="3.97564">
        <ele>374</ele>
        <time>2014-04-19T09:44:01Z</time>
      </trkpt>
      <trkpt lat="47.35898" lon="3.9757">
        <ele>375</ele>
        <time>2014-04-19T09:44:04Z</time>
      </trkpt>
      <trkpt lat="47.35897" lon="3.97586">
        <ele>377</ele>
        <time>2014-04-19T09:44:10Z</time>
      </trkpt>
      <trkpt lat="47.35895" lon="3.97592">
        <ele>377</ele>
        <time>2014-04-19T09:44:16Z</time>
      </trkpt>
      <trkpt lat="47.35893" lon="3.97601">
        <ele>377</ele>
        <time>2014-04-19T09:44:20Z</time>
      </trkpt>
      <trkpt lat="47.35891" lon="3.97608">
        <ele>377</ele>
        <time>2014-04-19T09:44:22Z</time>
      </trkpt>
      <trkpt lat="47.3589" lon="3.97622">
        <ele>377</ele>
        <time>2014-04-19T09:44:29Z</time>
      </trkpt>
      <trkpt lat="47.35888" lon="3.97629">
        <ele>377</ele>
        <time>2014-04-19T09:44:34Z</time>
      </trkpt>
      <trkpt lat="47.35883" lon="3.97642">
        <ele>377</ele>
        <time>2014-04-19T09:44:42Z</time>
      </trkpt>
      <trkpt lat="47.35877" lon="3.97665">
        <ele>377</ele>
        <time>2014-04-19T09:44:56Z</time>
      </trkpt>
      <trkpt lat="47.35874" lon="3.9767">
        <ele>380</ele>
        <time>2014-04-19T09:44:59Z</time>
      </trkpt>
      <trkpt lat="47.35867" lon="3.97692">
        <ele>379</ele>
        <time>2014-04-19T09:45:10Z</time>
      </trkpt>
      <trkpt lat="47.35866" lon="3.97698">
        <ele>380</ele>
        <time>2014-04-19T09:45:14Z</time>
      </trkpt>
      <trkpt lat="47.35866" lon="3.97705">
        <ele>380</ele>
        <time>2014-04-19T09:45:18Z</time>
      </trkpt>
      <trkpt lat="47.35854" lon="3.97776">
        <ele>383</ele>
        <time>2014-04-19T09:45:59Z</time>
      </trkpt>
      <trkpt lat="47.35855" lon="3.97782">
        <ele>384</ele>
        <time>2014-04-19T09:46:06Z</time>
      </trkpt>
      <trkpt lat="47.35858" lon="3.97788">
        <ele>384</ele>
        <time>2014-04-19T09:46:10Z</time>
      </trkpt>
      <trkpt lat="47.35858" lon="3.97827">
        <ele>385</ele>
        <time>2014-04-19T09:46:28Z</time>
      </trkpt>
      <trkpt lat="47.3586" lon="3.97842">
        <ele>388</ele>
        <time>2014-04-19T09:46:37Z</time>
      </trkpt>
      <trkpt lat="47.35862" lon="3.97848">
        <ele>389</ele>
        <time>2014-04-19T09:46:41Z</time>
      </trkpt>
      <trkpt lat="47.35865" lon="3.97887">
        <ele>390</ele>
        <time>2014-04-19T09:47:01Z</time>
      </trkpt>
      <trkpt lat="47.35867" lon="3.97895">
        <ele>391</ele>
        <time>2014-04-19T09:47:05Z</time>
      </trkpt>
      <trkpt lat="47.35868" lon="3.97903">
        <ele>391</ele>
        <time>2014-04-19T09:47:10Z</time>
      </trkpt>
      <trkpt lat="47.35866" lon="3.97911">
        <ele>391</ele>
        <time>2014-04-19T09:47:14Z</time>
      </trkpt>
      <trkpt lat="47.35863" lon="3.97917">
        <ele>390</ele>
        <time>2014-04-19T09:47:17Z</time>
      </trkpt>
      <trkpt lat="47.35866" lon="3.97933">
        <ele>393</ele>
        <time>2014-04-19T09:47:27Z</time>
      </trkpt>
      <trkpt lat="47.35865" lon="3.97969">
        <ele>394</ele>
        <time>2014-04-19T09:47:45Z</time>
      </trkpt>
      <trkpt lat="47.35862" lon="3.97982">
        <ele>394</ele>
        <time>2014-04-19T09:47:51Z</time>
      </trkpt>
      <trkpt lat="47.35867" lon="3.97982">
        <ele>394</ele>
        <time>2014-04-19T09:47:57Z</time>
      </trkpt>
      <trkpt lat="47.35873" lon="3.97982">
        <ele>395</ele>
        <time>2014-04-19T09:48:00Z</time>
      </trkpt>
      <trkpt lat="47.35878" lon="3.97981">
        <ele>396</ele>
        <time>2014-04-19T09:48:02Z</time>
      </trkpt>
      <trkpt lat="47.35882" lon="3.97979">
        <ele>397</ele>
        <time>2014-04-19T09:48:05Z</time>
      </trkpt>
      <trkpt lat="47.35886" lon="3.97974">
        <ele>397</ele>
        <time>2014-04-19T09:48:11Z</time>
      </trkpt>
      <trkpt lat="47.35888" lon="3.97973">
        <ele>397</ele>
        <time>2014-04-19T09:48:17Z</time>
      </trkpt>
      <trkpt lat="47.35894" lon="3.97985">
        <ele>399</ele>
        <time>2014-04-19T09:48:31Z</time>
      </trkpt>
      <trkpt lat="47.35896" lon="3.97993">
        <ele>400</ele>
        <time>2014-04-19T09:48:37Z</time>
      </trkpt>
      <trkpt lat="47.35896" lon="3.98001">
        <ele>402</ele>
        <time>2014-04-19T09:48:42Z</time>
      </trkpt>
      <trkpt lat="47.35906" lon="3.98018">
        <ele>403</ele>
        <time>2014-04-19T09:48:58Z</time>
      </trkpt>
      <trkpt lat="47.35908" lon="3.98024">
        <ele>402</ele>
        <time>2014-04-19T09:49:02Z</time>
      </trkpt>
      <trkpt lat="47.35916" lon="3.98035">
        <ele>402</ele>
        <time>2014-04-19T09:49:11Z</time>
      </trkpt>
      <trkpt lat="47.3592" lon="3.98038">
        <ele>415</ele>
        <time>2014-04-19T09:49:16Z</time>
      </trkpt>
      <trkpt lat="47.35928" lon="3.98055">
        <ele>415</ele>
        <time>2014-04-19T09:49:31Z</time>
      </trkpt>
      <trkpt lat="47.35933" lon="3.98059">
        <ele>415</ele>
        <time>2014-04-19T09:49:36Z</time>
      </trkpt>
      <trkpt lat="47.35936" lon="3.98065">
        <ele>416</ele>
        <time>2014-04-19T09:49:42Z</time>
      </trkpt>
      <trkpt lat="47.35938" lon="3.98086">
        <ele>415</ele>
        <time>2014-04-19T09:49:55Z</time>
      </trkpt>
      <trkpt lat="47.35937" lon="3.9809">
        <ele>415</ele>
        <time>2014-04-19T09:50:07Z</time>
      </trkpt>
      <trkpt lat="47.35937" lon="3.98097">
        <ele>415</ele>
        <time>2014-04-19T09:50:13Z</time>
      </trkpt>
      <trkpt lat="47.35941" lon="3.98102">
        <ele>416</ele>
        <time>2014-04-19T09:50:19Z</time>
      </trkpt>
      <trkpt lat="47.35944" lon="3.98108">
        <ele>417</ele>
        <time>2014-04-19T09:50:27Z</time>
      </trkpt>
      <trkpt lat="47.35945" lon="3.98117">
        <ele>417</ele>
        <time>2014-04-19T09:50:34Z</time>
      </trkpt>
      <trkpt lat="47.3595" lon="3.98127">
        <ele>417</ele>
        <time>2014-04-19T09:50:47Z</time>
      </trkpt>
      <trkpt lat="47.35958" lon="3.98133">
        <ele>418</ele>
        <time>2014-04-19T09:50:59Z</time>
      </trkpt>
      <trkpt lat="47.35963" lon="3.98137">
        <ele>419</ele>
        <time>2014-04-19T09:51:04Z</time>
      </trkpt>
      <trkpt lat="47.35964" lon="3.98145">
        <ele>419</ele>
        <time>2014-04-19T09:51:08Z</time>
      </trkpt>
      <trkpt lat="47.35968" lon="3.98158">
        <ele>419</ele>
        <time>2014-04-19T09:51:15Z</time>
      </trkpt>
      <trkpt lat="47.35971" lon="3.98164">
        <ele>420</ele>
        <time>2014-04-19T09:51:18Z</time>
      </trkpt>
      <trkpt lat="47.35976" lon="3.98167">
        <ele>419</ele>
        <time>2014-04-19T09:51:21Z</time>
      </trkpt>
      <trkpt lat="47.35981" lon="3.9817">
        <ele>420</ele>
        <time>2014-04-19T09:51:24Z</time>
      </trkpt>
      <trkpt lat="47.35983" lon="3.98177">
        <ele>420</ele>
        <time>2014-04-19T09:51:32Z</time>
      </trkpt>
      <trkpt lat="47.35992" lon="3.98185">
        <ele>421</ele>
        <time>2014-04-19T09:51:44Z</time>
      </trkpt>
      <trkpt lat="47.35996" lon="3.98189">
        <ele>420</ele>
        <time>2014-04-19T09:51:48Z</time>
      </trkpt>
      <trkpt lat="47.35999" lon="3.98195">
        <ele>420</ele>
        <time>2014-04-19T09:51:53Z</time>
      </trkpt>
      <trkpt lat="47.36" lon="3.98202">
        <ele>419</ele>
        <time>2014-04-19T09:52:00Z</time>
      </trkpt>
      <trkpt lat="47.36003" lon="3.98208">
        <ele>428</ele>
        <time>2014-04-19T09:52:11Z</time>
      </trkpt>
      <trkpt lat="47.36007" lon="3.98211">
        <ele>428</ele>
        <time>2014-04-19T09:52:16Z</time>
      </trkpt>
      <trkpt lat="47.3601" lon="3.98217">
        <ele>428</ele>
        <time>2014-04-19T09:52:22Z</time>
      </trkpt>
      <trkpt lat="47.36014" lon="3.98222">
        <ele>428</ele>
        <time>2014-04-19T09:52:26Z</time>
      </trkpt>
      <trkpt lat="47.36019" lon="3.98222">
        <ele>428</ele>
        <time>2014-04-19T09:52:31Z</time>
      </trkpt>
      <trkpt lat="47.36024" lon="3.98221">
        <ele>428</ele>
        <time>2014-04-19T09:52:35Z</time>
      </trkpt>
      <trkpt lat="47.36032" lon="3.9823">
        <ele>428</ele>
        <time>2014-04-19T09:52:44Z</time>
      </trkpt>
      <trkpt lat="47.36048" lon="3.98251">
        <ele>429</ele>
        <time>2014-04-19T09:53:01Z</time>
      </trkpt>
      <trkpt lat="47.36053" lon="3.98253">
        <ele>429</ele>
        <time>2014-04-19T09:53:05Z</time>
      </trkpt>
      <trkpt lat="47.36063" lon="3.98257">
        <ele>430</ele>
        <time>2014-04-19T09:53:13Z</time>
      </trkpt>
      <trkpt lat="47.36068" lon="3.98258">
        <ele>430</ele>
        <time>2014-04-19T09:53:18Z</time>
      </trkpt>
      <trkpt lat="47.36077" lon="3.98263">
        <ele>430</ele>
        <time>2014-04-19T09:53:28Z</time>
      </trkpt>
      <trkpt lat="47.36082" lon="3.98265">
        <ele>430</ele>
        <time>2014-04-19T09:53:32Z</time>
      </trkpt>
      <trkpt lat="47.36085" lon="3.9827">
        <ele>429</ele>
        <time>2014-04-19T09:53:36Z</time>
      </trkpt>
      <trkpt lat="47.36089" lon="3.98276">
        <ele>429</ele>
        <time>2014-04-19T09:53:41Z</time>
      </trkpt>
      <trkpt lat="47.36094" lon="3.98278">
        <ele>429</ele>
        <time>2014-04-19T09:53:45Z</time>
      </trkpt>
      <trkpt lat="47.36101" lon="3.9829">
        <ele>428</ele>
        <time>2014-04-19T09:53:52Z</time>
      </trkpt>
      <trkpt lat="47.36106" lon="3.98293">
        <ele>428</ele>
        <time>2014-04-19T09:53:55Z</time>
      </trkpt>
      <trkpt lat="47.3611" lon="3.98297">
        <ele>428</ele>
        <time>2014-04-19T09:53:59Z</time>
      </trkpt>
      <trkpt lat="47.36115" lon="3.98299">
        <ele>428</ele>
        <time>2014-04-19T09:54:02Z</time>
      </trkpt>
      <trkpt lat="47.36119" lon="3.98304">
        <ele>427</ele>
        <time>2014-04-19T09:54:05Z</time>
      </trkpt>
      <trkpt lat="47.36121" lon="3.98311">
        <ele>427</ele>
        <time>2014-04-19T09:54:08Z</time>
      </trkpt>
      <trkpt lat="47.36123" lon="3.98326">
        <ele>427</ele>
        <time>2014-04-19T09:54:15Z</time>
      </trkpt>
      <trkpt lat="47.36128" lon="3.9834">
        <ele>427</ele>
        <time>2014-04-19T09:54:23Z</time>
      </trkpt>
      <trkpt lat="47.36132" lon="3.98345">
        <ele>427</ele>
        <time>2014-04-19T09:54:29Z</time>
      </trkpt>
      <trkpt lat="47.36134" lon="3.98357">
        <ele>427</ele>
        <time>2014-04-19T09:54:44Z</time>
      </trkpt>
      <trkpt lat="47.36141" lon="3.98366">
        <ele>426</ele>
        <time>2014-04-19T09:54:56Z</time>
      </trkpt>
      <trkpt lat="47.36143" lon="3.98372">
        <ele>426</ele>
        <time>2014-04-19T09:55:00Z</time>
      </trkpt>
      <trkpt lat="47.36146" lon="3.98378">
        <ele>426</ele>
        <time>2014-04-19T09:55:03Z</time>
      </trkpt>
      <trkpt lat="47.3615" lon="3.98383">
        <ele>426</ele>
        <time>2014-04-19T09:55:05Z</time>
      </trkpt>
      <trkpt lat="47.36155" lon="3.98389">
        <ele>425</ele>
        <time>2014-04-19T09:55:08Z</time>
      </trkpt>
      <trkpt lat="47.36164" lon="3.98395">
        <ele>424</ele>
        <time>2014-04-19T09:55:13Z</time>
      </trkpt>
      <trkpt lat="47.36168" lon="3.98399">
        <ele>415</ele>
        <time>2014-04-19T09:55:17Z</time>
      </trkpt>
      <trkpt lat="47.36177" lon="3.98408">
        <ele>416</ele>
        <time>2014-04-19T09:55:23Z</time>
      </trkpt>
      <trkpt lat="47.36185" lon="3.98419">
        <ele>414</ele>
        <time>2014-04-19T09:55:30Z</time>
      </trkpt>
      <trkpt lat="47.36187" lon="3.98426">
        <ele>413</ele>
        <time>2014-04-19T09:55:35Z</time>
      </trkpt>
      <trkpt lat="47.36189" lon="3.98433">
        <ele>412</ele>
        <time>2014-04-19T09:55:38Z</time>
      </trkpt>
      <trkpt lat="47.3619" lon="3.98442">
        <ele>412</ele>
        <time>2014-04-19T09:55:41Z</time>
      </trkpt>
      <trkpt lat="47.36191" lon="3.9845">
        <ele>411</ele>
        <time>2014-04-19T09:55:45Z</time>
      </trkpt>
      <trkpt lat="47.36197" lon="3.98463">
        <ele>410</ele>
        <time>2014-04-19T09:55:52Z</time>
      </trkpt>
      <trkpt lat="47.362" lon="3.98468">
        <ele>410</ele>
        <time>2014-04-19T09:55:55Z</time>
      </trkpt>
      <trkpt lat="47.36205" lon="3.98474">
        <ele>409</ele>
        <time>2014-04-19T09:55:58Z</time>
      </trkpt>
      <trkpt lat="47.36209" lon="3.98481">
        <ele>409</ele>
        <time>2014-04-19T09:56:01Z</time>
      </trkpt>
      <trkpt lat="47.36212" lon="3.98488">
        <ele>408</ele>
        <time>2014-04-19T09:56:04Z</time>
      </trkpt>
      <trkpt lat="47.36212" lon="3.98496">
        <ele>408</ele>
        <time>2014-04-19T09:56:08Z</time>
      </trkpt>
      <trkpt lat="47.3621" lon="3.98513">
        <ele>407</ele>
        <time>2014-04-19T09:56:16Z</time>
      </trkpt>
      <trkpt lat="47.36213" lon="3.98521">
        <ele>406</ele>
        <time>2014-04-19T09:56:21Z</time>
      </trkpt>
      <trkpt lat="47.3621" lon="3.98528">
        <ele>406</ele>
        <time>2014-04-19T09:56:24Z</time>
      </trkpt>
      <trkpt lat="47.36209" lon="3.98536">
        <ele>406</ele>
        <time>2014-04-19T09:56:28Z</time>
      </trkpt>
      <trkpt lat="47.36211" lon="3.98552">
        <ele>406</ele>
        <time>2014-04-19T09:56:36Z</time>
      </trkpt>
      <trkpt lat="47.36226" lon="3.98569">
        <ele>403</ele>
        <time>2014-04-19T09:56:46Z</time>
      </trkpt>
      <trkpt lat="47.3623" lon="3.98572">
        <ele>402</ele>
        <time>2014-04-19T09:56:50Z</time>
      </trkpt>
      <trkpt lat="47.36233" lon="3.98577">
        <ele>401</ele>
        <time>2014-04-19T09:56:53Z</time>
      </trkpt>
      <trkpt lat="47.36236" lon="3.98592">
        <ele>400</ele>
        <time>2014-04-19T09:56:59Z</time>
      </trkpt>
      <trkpt lat="47.36239" lon="3.98598">
        <ele>400</ele>
        <time>2014-04-19T09:57:02Z</time>
      </trkpt>
      <trkpt lat="47.36244" lon="3.98617">
        <ele>401</ele>
        <time>2014-04-19T09:57:14Z</time>
      </trkpt>
      <trkpt lat="47.36246" lon="3.98623">
        <ele>401</ele>
        <time>2014-04-19T09:57:18Z</time>
      </trkpt>
      <trkpt lat="47.3625" lon="3.9863">
        <ele>401</ele>
        <time>2014-04-19T09:57:22Z</time>
      </trkpt>
      <trkpt lat="47.36255" lon="3.98635">
        <ele>396</ele>
        <time>2014-04-19T09:57:25Z</time>
      </trkpt>
      <trkpt lat="47.36257" lon="3.9865">
        <ele>396</ele>
        <time>2014-04-19T09:57:33Z</time>
      </trkpt>
      <trkpt lat="47.3626" lon="3.98652">
        <ele>396</ele>
        <time>2014-04-19T09:57:44Z</time>
      </trkpt>
      <trkpt lat="47.36266" lon="3.98663">
        <ele>396</ele>
        <time>2014-04-19T09:57:59Z</time>
      </trkpt>
      <trkpt lat="47.36263" lon="3.98669">
        <ele>397</ele>
        <time>2014-04-19T09:58:05Z</time>
      </trkpt>
      <trkpt lat="47.36266" lon="3.98675">
        <ele>398</ele>
        <time>2014-04-19T09:58:10Z</time>
      </trkpt>
      <trkpt lat="47.3627" lon="3.9868">
        <ele>398</ele>
        <time>2014-04-19T09:58:13Z</time>
      </trkpt>
      <trkpt lat="47.36274" lon="3.98684">
        <ele>398</ele>
        <time>2014-04-19T09:58:16Z</time>
      </trkpt>
      <trkpt lat="47.36274" lon="3.98689">
        <ele>398</ele>
        <time>2014-04-19T09:58:23Z</time>
      </trkpt>
      <trkpt lat="47.36268" lon="3.9869">
        <ele>398</ele>
        <time>2014-04-19T09:58:36Z</time>
      </trkpt>
      <trkpt lat="47.36265" lon="3.98695">
        <ele>398</ele>
        <time>2014-04-19T09:58:42Z</time>
      </trkpt>
      <trkpt lat="47.36268" lon="3.98701">
        <ele>399</ele>
        <time>2014-04-19T09:58:47Z</time>
      </trkpt>
      <trkpt lat="47.36273" lon="3.98705">
        <ele>399</ele>
        <time>2014-04-19T09:58:50Z</time>
      </trkpt>
      <trkpt lat="47.3628" lon="3.98714">
        <ele>399</ele>
        <time>2014-04-19T09:58:54Z</time>
      </trkpt>
      <trkpt lat="47.36283" lon="3.98719">
        <ele>399</ele>
        <time>2014-04-19T09:58:56Z</time>
      </trkpt>
      <trkpt lat="47.36294" lon="3.9873">
        <ele>398</ele>
        <time>2014-04-19T09:59:02Z</time>
      </trkpt>
      <trkpt lat="47.36306" lon="3.98755">
        <ele>401</ele>
        <time>2014-04-19T09:59:20Z</time>
      </trkpt>
      <trkpt lat="47.36307" lon="3.98764">
        <ele>401</ele>
        <time>2014-04-19T09:59:31Z</time>
      </trkpt>
      <trkpt lat="47.36312" lon="3.98777">
        <ele>402</ele>
        <time>2014-04-19T09:59:40Z</time>
      </trkpt>
      <trkpt lat="47.36314" lon="3.98783">
        <ele>402</ele>
        <time>2014-04-19T09:59:43Z</time>
      </trkpt>
      <trkpt lat="47.36317" lon="3.98799">
        <ele>402</ele>
        <time>2014-04-19T09:59:51Z</time>
      </trkpt>
      <trkpt lat="47.36318" lon="3.98805">
        <ele>402</ele>
        <time>2014-04-19T10:00:00Z</time>
      </trkpt>
      <trkpt lat="47.36322" lon="3.98801">
        <ele>402</ele>
        <time>2014-04-19T10:00:06Z</time>
      </trkpt>
      <trkpt lat="47.36327" lon="3.98806">
        <ele>401</ele>
        <time>2014-04-19T10:00:24Z</time>
      </trkpt>
      <trkpt lat="47.36333" lon="3.98807">
        <ele>401</ele>
        <time>2014-04-19T10:00:28Z</time>
      </trkpt>
      <trkpt lat="47.36338" lon="3.98807">
        <ele>397</ele>
        <time>2014-04-19T10:00:31Z</time>
      </trkpt>
      <trkpt lat="47.36343" lon="3.98807">
        <ele>397</ele>
        <time>2014-04-19T10:00:34Z</time>
      </trkpt>
      <trkpt lat="47.36359" lon="3.98806">
        <ele>397</ele>
        <time>2014-04-19T10:00:45Z</time>
      </trkpt>
      <trkpt lat="47.36368" lon="3.98805">
        <ele>397</ele>
        <time>2014-04-19T10:00:51Z</time>
      </trkpt>
      <trkpt lat="47.36372" lon="3.98801">
        <ele>396</ele>
        <time>2014-04-19T10:00:55Z</time>
      </trkpt>
      <trkpt lat="47.36372" lon="3.98803">
        <ele>396</ele>
        <time>2014-04-19T10:01:05Z</time>
      </trkpt>
      <trkpt lat="47.36376" lon="3.98801">
        <ele>396</ele>
        <time>2014-04-19T10:01:21Z</time>
      </trkpt>
      <trkpt lat="47.36381" lon="3.98796">
        <ele>396</ele>
        <time>2014-04-19T10:01:24Z</time>
      </trkpt>
      <trkpt lat="47.36386" lon="3.98789">
        <ele>396</ele>
        <time>2014-04-19T10:01:27Z</time>
      </trkpt>
      <trkpt lat="47.3639" lon="3.98784">
        <ele>396</ele>
        <time>2014-04-19T10:01:30Z</time>
      </trkpt>
      <trkpt lat="47.36395" lon="3.98782">
        <ele>396</ele>
        <time>2014-04-19T10:01:34Z</time>
      </trkpt>
      <trkpt lat="47.364" lon="3.9878">
        <ele>396</ele>
        <time>2014-04-19T10:01:41Z</time>
      </trkpt>
      <trkpt lat="47.36405" lon="3.98775">
        <ele>396</ele>
        <time>2014-04-19T10:01:47Z</time>
      </trkpt>
      <trkpt lat="47.3641" lon="3.98772">
        <ele>395</ele>
        <time>2014-04-19T10:01:50Z</time>
      </trkpt>
      <trkpt lat="47.36419" lon="3.98766">
        <ele>396</ele>
        <time>2014-04-19T10:01:56Z</time>
      </trkpt>
      <trkpt lat="47.36424" lon="3.98764">
        <ele>396</ele>
        <time>2014-04-19T10:02:00Z</time>
      </trkpt>
      <trkpt lat="47.36429" lon="3.98763">
        <ele>396</ele>
        <time>2014-04-19T10:02:04Z</time>
      </trkpt>
      <trkpt lat="47.36435" lon="3.98762">
        <ele>396</ele>
        <time>2014-04-19T10:02:07Z</time>
      </trkpt>
      <trkpt lat="47.3644" lon="3.98761">
        <ele>397</ele>
        <time>2014-04-19T10:02:10Z</time>
      </trkpt>
      <trkpt lat="47.36455" lon="3.98767">
        <ele>397</ele>
        <time>2014-04-19T10:02:21Z</time>
      </trkpt>
      <trkpt lat="47.36465" lon="3.98769">
        <ele>398</ele>
        <time>2014-04-19T10:02:28Z</time>
      </trkpt>
      <trkpt lat="47.36468" lon="3.98774">
        <ele>398</ele>
        <time>2014-04-19T10:02:37Z</time>
      </trkpt>
      <trkpt lat="47.36473" lon="3.98773">
        <ele>398</ele>
        <time>2014-04-19T10:02:41Z</time>
      </trkpt>
      <trkpt lat="47.36478" lon="3.98779">
        <ele>398</ele>
        <time>2014-04-19T10:02:46Z</time>
      </trkpt>
      <trkpt lat="47.36483" lon="3.98781">
        <ele>398</ele>
        <time>2014-04-19T10:02:59Z</time>
      </trkpt>
      <trkpt lat="47.36487" lon="3.98785">
        <ele>398</ele>
        <time>2014-04-19T10:03:05Z</time>
      </trkpt>
      <trkpt lat="47.36491" lon="3.9879">
        <ele>399</ele>
        <time>2014-04-19T10:03:09Z</time>
      </trkpt>
      <trkpt lat="47.36509" lon="3.98806">
        <ele>400</ele>
        <time>2014-04-19T10:03:22Z</time>
      </trkpt>
      <trkpt lat="47.36513" lon="3.98812">
        <ele>400</ele>
        <time>2014-04-19T10:03:26Z</time>
      </trkpt>
      <trkpt lat="47.36515" lon="3.98818">
        <ele>401</ele>
        <time>2014-04-19T10:03:32Z</time>
      </trkpt>
      <trkpt lat="47.36522" lon="3.98827">
        <ele>401</ele>
        <time>2014-04-19T10:03:39Z</time>
      </trkpt>
      <trkpt lat="47.36526" lon="3.98831">
        <ele>401</ele>
        <time>2014-04-19T10:03:42Z</time>
      </trkpt>
      <trkpt lat="47.3653" lon="3.98837">
        <ele>403</ele>
        <time>2014-04-19T10:03:46Z</time>
      </trkpt>
      <trkpt lat="47.36532" lon="3.98842">
        <ele>403</ele>
        <time>2014-04-19T10:03:50Z</time>
      </trkpt>
      <trkpt lat="47.36531" lon="3.98852">
        <ele>403</ele>
        <time>2014-04-19T10:04:02Z</time>
      </trkpt>
      <trkpt lat="47.36537" lon="3.98872">
        <ele>404</ele>
        <time>2014-04-19T10:04:11Z</time>
      </trkpt>
      <trkpt lat="47.36544" lon="3.98884">
        <ele>404</ele>
        <time>2014-04-19T10:04:23Z</time>
      </trkpt>
      <trkpt lat="47.36546" lon="3.98893">
        <ele>405</ele>
        <time>2014-04-19T10:04:26Z</time>
      </trkpt>
      <trkpt lat="47.36551" lon="3.98904">
        <ele>405</ele>
        <time>2014-04-19T10:04:32Z</time>
      </trkpt>
      <trkpt lat="47.36552" lon="3.98911">
        <ele>405</ele>
        <time>2014-04-19T10:04:37Z</time>
      </trkpt>
      <trkpt lat="47.36551" lon="3.98919">
        <ele>408</ele>
        <time>2014-04-19T10:04:42Z</time>
      </trkpt>
      <trkpt lat="47.36562" lon="3.98935">
        <ele>409</ele>
        <time>2014-04-19T10:04:57Z</time>
      </trkpt>
      <trkpt lat="47.36564" lon="3.98942">
        <ele>409</ele>
        <time>2014-04-19T10:05:02Z</time>
      </trkpt>
      <trkpt lat="47.36566" lon="3.98957">
        <ele>410</ele>
        <time>2014-04-19T10:05:11Z</time>
      </trkpt>
      <trkpt lat="47.36566" lon="3.98964">
        <ele>410</ele>
        <time>2014-04-19T10:05:15Z</time>
      </trkpt>
      <trkpt lat="47.36568" lon="3.9897">
        <ele>410</ele>
        <time>2014-04-19T10:05:20Z</time>
      </trkpt>
      <trkpt lat="47.36567" lon="3.98985">
        <ele>411</ele>
        <time>2014-04-19T10:05:30Z</time>
      </trkpt>
      <trkpt lat="47.36569" lon="3.98993">
        <ele>412</ele>
        <time>2014-04-19T10:05:34Z</time>
      </trkpt>
      <trkpt lat="47.3657" lon="3.98999">
        <ele>413</ele>
        <time>2014-04-19T10:05:39Z</time>
      </trkpt>
      <trkpt lat="47.36569" lon="3.99007">
        <ele>415</ele>
        <time>2014-04-19T10:05:44Z</time>
      </trkpt>
      <trkpt lat="47.36576" lon="3.99045">
        <ele>416</ele>
        <time>2014-04-19T10:06:06Z</time>
      </trkpt>
      <trkpt lat="47.36578" lon="3.99051">
        <ele>416</ele>
        <time>2014-04-19T10:06:11Z</time>
      </trkpt>
      <trkpt lat="47.36582" lon="3.99058">
        <ele>416</ele>
        <time>2014-04-19T10:06:15Z</time>
      </trkpt>
      <trkpt lat="47.36584" lon="3.99064">
        <ele>419</ele>
        <time>2014-04-19T10:06:18Z</time>
      </trkpt>
      <trkpt lat="47.36586" lon="3.99069">
        <ele>419</ele>
        <time>2014-04-19T10:06:22Z</time>
      </trkpt>
      <trkpt lat="47.36588" lon="3.99076">
        <ele>419</ele>
        <time>2014-04-19T10:06:28Z</time>
      </trkpt>
      <trkpt lat="47.36588" lon="3.99083">
        <ele>420</ele>
        <time>2014-04-19T10:06:35Z</time>
      </trkpt>
      <trkpt lat="47.36589" lon="3.99091">
        <ele>421</ele>
        <time>2014-04-19T10:06:39Z</time>
      </trkpt>
      <trkpt lat="47.36595" lon="3.99106">
        <ele>422</ele>
        <time>2014-04-19T10:06:46Z</time>
      </trkpt>
      <trkpt lat="47.36599" lon="3.99108">
        <ele>422</ele>
        <time>2014-04-19T10:06:54Z</time>
      </trkpt>
      <trkpt lat="47.36609" lon="3.99126">
        <ele>423</ele>
        <time>2014-04-19T10:07:06Z</time>
      </trkpt>
      <trkpt lat="47.36612" lon="3.99133">
        <ele>423</ele>
        <time>2014-04-19T10:07:09Z</time>
      </trkpt>
      <trkpt lat="47.36621" lon="3.99142">
        <ele>424</ele>
        <time>2014-04-19T10:07:19Z</time>
      </trkpt>
      <trkpt lat="47.36622" lon="3.99147">
        <ele>424</ele>
        <time>2014-04-19T10:07:26Z</time>
      </trkpt>
      <trkpt lat="47.36622" lon="3.99151">
        <ele>424</ele>
        <time>2014-04-19T10:07:41Z</time>
      </trkpt>
      <trkpt lat="47.36619" lon="3.99159">
        <ele>424</ele>
        <time>2014-04-19T10:07:47Z</time>
      </trkpt>
      <trkpt lat="47.36617" lon="3.99167">
        <ele>424</ele>
        <time>2014-04-19T10:07:51Z</time>
      </trkpt>
      <trkpt lat="47.36615" lon="3.99176">
        <ele>428</ele>
        <time>2014-04-19T10:07:54Z</time>
      </trkpt>
      <trkpt lat="47.36616" lon="3.99182">
        <ele>428</ele>
        <time>2014-04-19T10:08:00Z</time>
      </trkpt>
      <trkpt lat="47.36625" lon="3.99188">
        <ele>428</ele>
        <time>2014-04-19T10:08:09Z</time>
      </trkpt>
      <trkpt lat="47.36637" lon="3.99202">
        <ele>429</ele>
        <time>2014-04-19T10:08:21Z</time>
      </trkpt>
      <trkpt lat="47.36641" lon="3.99207">
        <ele>429</ele>
        <time>2014-04-19T10:08:26Z</time>
      </trkpt>
      <trkpt lat="47.36647" lon="3.99211">
        <ele>429</ele>
        <time>2014-04-19T10:08:30Z</time>
      </trkpt>
      <trkpt lat="47.36651" lon="3.99214">
        <ele>430</ele>
        <time>2014-04-19T10:08:33Z</time>
      </trkpt>
      <trkpt lat="47.36663" lon="3.99225">
        <ele>431</ele>
        <time>2014-04-19T10:08:46Z</time>
      </trkpt>
      <trkpt lat="47.36668" lon="3.9923">
        <ele>431</ele>
        <time>2014-04-19T10:08:50Z</time>
      </trkpt>
      <trkpt lat="47.3667" lon="3.99238">
        <ele>432</ele>
        <time>2014-04-19T10:08:53Z</time>
      </trkpt>
      <trkpt lat="47.36672" lon="3.99244">
        <ele>433</ele>
        <time>2014-04-19T10:08:57Z</time>
      </trkpt>
      <trkpt lat="47.36691" lon="3.99266">
        <ele>435</ele>
        <time>2014-04-19T10:09:19Z</time>
      </trkpt>
      <trkpt lat="47.36696" lon="3.99269">
        <ele>435</ele>
        <time>2014-04-19T10:09:22Z</time>
      </trkpt>
      <trkpt lat="47.36701" lon="3.9927">
        <ele>435</ele>
        <time>2014-04-19T10:09:25Z</time>
      </trkpt>
      <trkpt lat="47.36706" lon="3.99272">
        <ele>435</ele>
        <time>2014-04-19T10:09:30Z</time>
      </trkpt>
      <trkpt lat="47.36708" lon="3.99276">
        <ele>435</ele>
        <time>2014-04-19T10:09:37Z</time>
      </trkpt>
      <trkpt lat="47.3671" lon="3.9929">
        <ele>436</ele>
        <time>2014-04-19T10:09:51Z</time>
      </trkpt>
      <trkpt lat="47.36715" lon="3.99296">
        <ele>436</ele>
        <time>2014-04-19T10:09:55Z</time>
      </trkpt>
      <trkpt lat="47.36719" lon="3.99298">
        <ele>436</ele>
        <time>2014-04-19T10:09:59Z</time>
      </trkpt>
      <trkpt lat="47.36722" lon="3.99306">
        <ele>436</ele>
        <time>2014-04-19T10:10:04Z</time>
      </trkpt>
      <trkpt lat="47.36723" lon="3.99313">
        <ele>436</ele>
        <time>2014-04-19T10:10:07Z</time>
      </trkpt>
      <trkpt lat="47.36723" lon="3.99321">
        <ele>437</ele>
        <time>2014-04-19T10:10:10Z</time>
      </trkpt>
      <trkpt lat="47.36724" lon="3.9933">
        <ele>437</ele>
        <time>2014-04-19T10:10:14Z</time>
      </trkpt>
      <trkpt lat="47.36724" lon="3.99337">
        <ele>440</ele>
        <time>2014-04-19T10:10:18Z</time>
      </trkpt>
      <trkpt lat="47.36722" lon="3.99345">
        <ele>441</ele>
        <time>2014-04-19T10:10:21Z</time>
      </trkpt>
      <trkpt lat="47.36723" lon="3.99352">
        <ele>441</ele>
        <time>2014-04-19T10:10:24Z</time>
      </trkpt>
      <trkpt lat="47.36726" lon="3.99357">
        <ele>441</ele>
        <time>2014-04-19T10:10:28Z</time>
      </trkpt>
      <trkpt lat="47.36728" lon="3.99364">
        <ele>441</ele>
        <time>2014-04-19T10:10:34Z</time>
      </trkpt>
      <trkpt lat="47.36725" lon="3.9937">
        <ele>442</ele>
        <time>2014-04-19T10:10:41Z</time>
      </trkpt>
      <trkpt lat="47.36726" lon="3.99377">
        <ele>442</ele>
        <time>2014-04-19T10:10:49Z</time>
      </trkpt>
      <trkpt lat="47.36729" lon="3.99383">
        <ele>442</ele>
        <time>2014-04-19T10:10:53Z</time>
      </trkpt>
      <trkpt lat="47.36735" lon="3.99401">
        <ele>443</ele>
        <time>2014-04-19T10:11:07Z</time>
      </trkpt>
      <trkpt lat="47.36738" lon="3.99408">
        <ele>444</ele>
        <time>2014-04-19T10:11:13Z</time>
      </trkpt>
      <trkpt lat="47.36741" lon="3.99413">
        <ele>445</ele>
        <time>2014-04-19T10:11:16Z</time>
      </trkpt>
      <trkpt lat="47.36747" lon="3.99426">
        <ele>447</ele>
        <time>2014-04-19T10:11:22Z</time>
      </trkpt>
      <trkpt lat="47.36739" lon="3.99435">
        <ele>447</ele>
        <time>2014-04-19T10:11:29Z</time>
      </trkpt>
      <trkpt lat="47.36741" lon="3.99443">
        <ele>448</ele>
        <time>2014-04-19T10:11:32Z</time>
      </trkpt>
      <trkpt lat="47.36742" lon="3.9945">
        <ele>448</ele>
        <time>2014-04-19T10:11:36Z</time>
      </trkpt>
      <trkpt lat="47.36741" lon="3.99457">
        <ele>449</ele>
        <time>2014-04-19T10:11:40Z</time>
      </trkpt>
      <trkpt lat="47.36741" lon="3.99464">
        <ele>449</ele>
        <time>2014-04-19T10:11:43Z</time>
      </trkpt>
      <trkpt lat="47.36744" lon="3.99479">
        <ele>450</ele>
        <time>2014-04-19T10:11:50Z</time>
      </trkpt>
      <trkpt lat="47.36744" lon="3.99487">
        <ele>451</ele>
        <time>2014-04-19T10:11:56Z</time>
      </trkpt>
      <trkpt lat="47.36744" lon="3.99496">
        <ele>452</ele>
        <time>2014-04-19T10:12:00Z</time>
      </trkpt>
      <trkpt lat="47.36743" lon="3.99503">
        <ele>453</ele>
        <time>2014-04-19T10:12:04Z</time>
      </trkpt>
      <trkpt lat="47.36748" lon="3.99512">
        <ele>453</ele>
        <time>2014-04-19T10:12:25Z</time>
      </trkpt>
      <trkpt lat="47.36753" lon="3.99516">
        <ele>454</ele>
        <time>2014-04-19T10:12:29Z</time>
      </trkpt>
      <trkpt lat="47.36757" lon="3.9952">
        <ele>454</ele>
        <time>2014-04-19T10:12:35Z</time>
      </trkpt>
      <trkpt lat="47.36758" lon="3.99533">
        <ele>454</ele>
        <time>2014-04-19T10:12:45Z</time>
      </trkpt>
      <trkpt lat="47.3676" lon="3.99546">
        <ele>455</ele>
        <time>2014-04-19T10:12:55Z</time>
      </trkpt>
      <trkpt lat="47.36773" lon="3.99563">
        <ele>455</ele>
        <time>2014-04-19T10:13:05Z</time>
      </trkpt>
      <trkpt lat="47.36774" lon="3.99569">
        <ele>455</ele>
        <time>2014-04-19T10:13:10Z</time>
      </trkpt>
      <trkpt lat="47.36775" lon="3.99577">
        <ele>455</ele>
        <time>2014-04-19T10:13:13Z</time>
      </trkpt>
      <trkpt lat="47.36772" lon="3.99584">
        <ele>457</ele>
        <time>2014-04-19T10:13:17Z</time>
      </trkpt>
      <trkpt lat="47.36771" lon="3.99592">
        <ele>457</ele>
        <time>2014-04-19T10:13:22Z</time>
      </trkpt>
      <trkpt lat="47.36774" lon="3.99598">
        <ele>457</ele>
        <time>2014-04-19T10:13:25Z</time>
      </trkpt>
      <trkpt lat="47.36775" lon="3.99604">
        <ele>458</ele>
        <time>2014-04-19T10:13:28Z</time>
      </trkpt>
      <trkpt lat="47.36779" lon="3.99627">
        <ele>458</ele>
        <time>2014-04-19T10:13:42Z</time>
      </trkpt>
      <trkpt lat="47.36783" lon="3.9963">
        <ele>458</ele>
        <time>2014-04-19T10:13:46Z</time>
      </trkpt>
      <trkpt lat="47.36789" lon="3.9964">
        <ele>458</ele>
        <time>2014-04-19T10:13:56Z</time>
      </trkpt>
      <trkpt lat="47.36794" lon="3.99643">
        <ele>458</ele>
        <time>2014-04-19T10:14:01Z</time>
      </trkpt>
      <trkpt lat="47.36798" lon="3.99648">
        <ele>458</ele>
        <time>2014-04-19T10:14:05Z</time>
      </trkpt>
      <trkpt lat="47.36798" lon="3.99662">
        <ele>458</ele>
        <time>2014-04-19T10:14:11Z</time>
      </trkpt>
      <trkpt lat="47.36801" lon="3.99666">
        <ele>458</ele>
        <time>2014-04-19T10:14:36Z</time>
      </trkpt>
      <trkpt lat="47.36804" lon="3.99661">
        <ele>458</ele>
        <time>2014-04-19T10:14:43Z</time>
      </trkpt>
      <trkpt lat="47.36807" lon="3.99668">
        <ele>459</ele>
        <time>2014-04-19T10:14:49Z</time>
      </trkpt>
      <trkpt lat="47.36815" lon="3.99682">
        <ele>459</ele>
        <time>2014-04-19T10:14:55Z</time>
      </trkpt>
      <trkpt lat="47.36821" lon="3.9969">
        <ele>459</ele>
        <time>2014-04-19T10:14:58Z</time>
      </trkpt>
      <trkpt lat="47.36826" lon="3.99692">
        <ele>459</ele>
        <time>2014-04-19T10:15:02Z</time>
      </trkpt>
      <trkpt lat="47.36829" lon="3.997">
        <ele>459</ele>
        <time>2014-04-19T10:15:07Z</time>
      </trkpt>
      <trkpt lat="47.36832" lon="3.99706">
        <ele>459</ele>
        <time>2014-04-19T10:15:11Z</time>
      </trkpt>
      <trkpt lat="47.36837" lon="3.9971">
        <ele>459</ele>
        <time>2014-04-19T10:15:14Z</time>
      </trkpt>
      <trkpt lat="47.36856" lon="3.99727">
        <ele>459</ele>
        <time>2014-04-19T10:15:28Z</time>
      </trkpt>
      <trkpt lat="47.3686" lon="3.99728">
        <ele>459</ele>
        <time>2014-04-19T10:15:32Z</time>
      </trkpt>
      <trkpt lat="47.36866" lon="3.99733">
        <ele>459</ele>
        <time>2014-04-19T10:15:36Z</time>
      </trkpt>
      <trkpt lat="47.3687" lon="3.99737">
        <ele>459</ele>
        <time>2014-04-19T10:15:39Z</time>
      </trkpt>
      <trkpt lat="47.36874" lon="3.99741">
        <ele>459</ele>
        <time>2014-04-19T10:15:43Z</time>
      </trkpt>
      <trkpt lat="47.36879" lon="3.99743">
        <ele>459</ele>
        <time>2014-04-19T10:15:47Z</time>
      </trkpt>
      <trkpt lat="47.36884" lon="3.9974">
        <ele>459</ele>
        <time>2014-04-19T10:15:50Z</time>
      </trkpt>
      <trkpt lat="47.36887" lon="3.99745">
        <ele>459</ele>
        <time>2014-04-19T10:15:54Z</time>
      </trkpt>
      <trkpt lat="47.36891" lon="3.99753">
        <ele>459</ele>
        <time>2014-04-19T10:15:57Z</time>
      </trkpt>
      <trkpt lat="47.36899" lon="3.99763">
        <ele>459</ele>
        <time>2014-04-19T10:16:02Z</time>
      </trkpt>
      <trkpt lat="47.36903" lon="3.99776">
        <ele>459</ele>
        <time>2014-04-19T10:16:10Z</time>
      </trkpt>
      <trkpt lat="47.36906" lon="3.99794">
        <ele>459</ele>
        <time>2014-04-19T10:16:15Z</time>
      </trkpt>
      <trkpt lat="47.36909" lon="3.998">
        <ele>459</ele>
        <time>2014-04-19T10:16:17Z</time>
      </trkpt>
      <trkpt lat="47.36914" lon="3.99804">
        <ele>459</ele>
        <time>2014-04-19T10:16:20Z</time>
      </trkpt>
      <trkpt lat="47.36923" lon="3.99809">
        <ele>456</ele>
        <time>2014-04-19T10:16:26Z</time>
      </trkpt>
      <trkpt lat="47.36918" lon="3.99805">
        <ele>456</ele>
        <time>2014-04-19T10:17:44Z</time>
      </trkpt>
      <trkpt lat="47.36911" lon="3.99806">
        <ele>459</ele>
        <time>2014-04-19T10:17:47Z</time>
      </trkpt>
      <trkpt lat="47.36906" lon="3.99803">
        <ele>459</ele>
        <time>2014-04-19T10:17:50Z</time>
      </trkpt>
      <trkpt lat="47.36901" lon="3.99799">
        <ele>459</ele>
        <time>2014-04-19T10:17:53Z</time>
      </trkpt>
      <trkpt lat="47.36897" lon="3.99794">
        <ele>459</ele>
        <time>2014-04-19T10:17:56Z</time>
      </trkpt>
      <trkpt lat="47.36888" lon="3.99785">
        <ele>459</ele>
        <time>2014-04-19T10:18:04Z</time>
      </trkpt>
      <trkpt lat="47.36885" lon="3.99765">
        <ele>459</ele>
        <time>2014-04-19T10:18:14Z</time>
      </trkpt>
      <trkpt lat="47.36879" lon="3.99761">
        <ele>459</ele>
        <time>2014-04-19T10:18:18Z</time>
      </trkpt>
      <trkpt lat="47.36875" lon="3.9976">
        <ele>459</ele>
        <time>2014-04-19T10:18:22Z</time>
      </trkpt>
      <trkpt lat="47.3687" lon="3.99756">
        <ele>459</ele>
        <time>2014-04-19T10:18:26Z</time>
      </trkpt>
      <trkpt lat="47.36861" lon="3.99744">
        <ele>459</ele>
        <time>2014-04-19T10:18:33Z</time>
      </trkpt>
      <trkpt lat="47.36857" lon="3.99741">
        <ele>459</ele>
        <time>2014-04-19T10:18:36Z</time>
      </trkpt>
      <trkpt lat="47.36847" lon="3.99744">
        <ele>459</ele>
        <time>2014-04-19T10:18:43Z</time>
      </trkpt>
      <trkpt lat="47.36842" lon="3.99743">
        <ele>460</ele>
        <time>2014-04-19T10:18:45Z</time>
      </trkpt>
      <trkpt lat="47.36837" lon="3.99741">
        <ele>460</ele>
        <time>2014-04-19T10:18:48Z</time>
      </trkpt>
      <trkpt lat="47.36833" lon="3.99744">
        <ele>460</ele>
        <time>2014-04-19T10:18:57Z</time>
      </trkpt>
      <trkpt lat="47.36829" lon="3.99739">
        <ele>459</ele>
        <time>2014-04-19T10:19:02Z</time>
      </trkpt>
      <trkpt lat="47.36826" lon="3.99734">
        <ele>459</ele>
        <time>2014-04-19T10:19:05Z</time>
      </trkpt>
      <trkpt lat="47.36827" lon="3.99726">
        <ele>459</ele>
        <time>2014-04-19T10:19:17Z</time>
      </trkpt>
      <trkpt lat="47.36836" lon="3.99716">
        <ele>459</ele>
        <time>2014-04-19T10:19:23Z</time>
      </trkpt>
      <trkpt lat="47.36807" lon="3.99698">
        <ele>458</ele>
        <time>2014-04-19T10:24:42Z</time>
      </trkpt>
      <trkpt lat="47.3681" lon="3.99701">
        <ele>458</ele>
        <time>2014-04-19T10:24:49Z</time>
      </trkpt>
      <trkpt lat="47.36814" lon="3.997">
        <ele>459</ele>
        <time>2014-04-19T10:24:53Z</time>
      </trkpt>
      <trkpt lat="47.36811" lon="3.99696">
        <ele>459</ele>
        <time>2014-04-19T10:25:03Z</time>
      </trkpt>
      <trkpt lat="47.36804" lon="3.99695">
        <ele>458</ele>
        <time>2014-04-19T10:25:06Z</time>
      </trkpt>
      <trkpt lat="47.36799" lon="3.99693">
        <ele>458</ele>
        <time>2014-04-19T10:25:09Z</time>
      </trkpt>
      <trkpt lat="47.368" lon="3.99687">
        <ele>458</ele>
        <time>2014-04-19T10:25:13Z</time>
      </trkpt>
      <trkpt lat="47.36798" lon="3.99681">
        <ele>458</ele>
        <time>2014-04-19T10:25:18Z</time>
      </trkpt>
      <trkpt lat="47.36797" lon="3.99672">
        <ele>458</ele>
        <time>2014-04-19T10:25:22Z</time>
      </trkpt>
      <trkpt lat="47.36794" lon="3.99667">
        <ele>458</ele>
        <time>2014-04-19T10:25:25Z</time>
      </trkpt>
      <trkpt lat="47.3679" lon="3.99661">
        <ele>458</ele>
        <time>2014-04-19T10:25:28Z</time>
      </trkpt>
      <trkpt lat="47.36788" lon="3.99655">
        <ele>458</ele>
        <time>2014-04-19T10:25:31Z</time>
      </trkpt>
      <trkpt lat="47.36786" lon="3.99649">
        <ele>458</ele>
        <time>2014-04-19T10:25:36Z</time>
      </trkpt>
      <trkpt lat="47.36782" lon="3.99642">
        <ele>458</ele>
        <time>2014-04-19T10:30:24Z</time>
      </trkpt>
      <trkpt lat="47.36787" lon="3.99641">
        <ele>458</ele>
        <time>2014-04-19T10:30:27Z</time>
      </trkpt>
      <trkpt lat="47.36792" lon="3.99638">
        <ele>458</ele>
        <time>2014-04-19T10:30:31Z</time>
      </trkpt>
      <trkpt lat="47.36797" lon="3.99639">
        <ele>458</ele>
        <time>2014-04-19T10:30:35Z</time>
      </trkpt>
      <trkpt lat="47.36801" lon="3.99643">
        <ele>458</ele>
        <time>2014-04-19T10:30:39Z</time>
      </trkpt>
      <trkpt lat="47.36806" lon="3.99645">
        <ele>458</ele>
        <time>2014-04-19T10:30:47Z</time>
      </trkpt>
      <trkpt lat="47.36811" lon="3.99646">
        <ele>458</ele>
        <time>2014-04-19T10:30:52Z</time>
      </trkpt>
      <trkpt lat="47.36816" lon="3.99645">
        <ele>458</ele>
        <time>2014-04-19T10:30:59Z</time>
      </trkpt>
      <trkpt lat="47.3682" lon="3.99647">
        <ele>458</ele>
        <time>2014-04-19T10:31:05Z</time>
      </trkpt>
      <trkpt lat="47.36826" lon="3.99644">
        <ele>458</ele>
        <time>2014-04-19T10:31:10Z</time>
      </trkpt>
      <trkpt lat="47.36831" lon="3.99645">
        <ele>458</ele>
        <time>2014-04-19T10:31:12Z</time>
      </trkpt>
      <trkpt lat="47.36837" lon="3.99644">
        <ele>457</ele>
        <time>2014-04-19T10:31:15Z</time>
      </trkpt>
      <trkpt lat="47.36842" lon="3.99645">
        <ele>457</ele>
        <time>2014-04-19T10:31:21Z</time>
      </trkpt>
      <trkpt lat="47.36841" lon="3.99653">
        <ele>458</ele>
        <time>2014-04-19T10:31:30Z</time>
      </trkpt>
      <trkpt lat="47.36845" lon="3.99657">
        <ele>458</ele>
        <time>2014-04-19T10:31:33Z</time>
      </trkpt>
      <trkpt lat="47.36844" lon="3.9966">
        <ele>458</ele>
        <time>2014-04-19T10:35:02Z</time>
      </trkpt>
      <trkpt lat="47.36848" lon="3.99663">
        <ele>458</ele>
        <time>2014-04-19T10:35:07Z</time>
      </trkpt>
      <trkpt lat="47.36851" lon="3.99676">
        <ele>459</ele>
        <time>2014-04-19T10:35:15Z</time>
      </trkpt>
      <trkpt lat="47.36854" lon="3.9968">
        <ele>459</ele>
        <time>2014-04-19T10:35:42Z</time>
      </trkpt>
      <trkpt lat="47.36848" lon="3.99692">
        <ele>459</ele>
        <time>2014-04-19T10:35:53Z</time>
      </trkpt>
      <trkpt lat="47.36845" lon="3.99696">
        <ele>459</ele>
        <time>2014-04-19T10:36:03Z</time>
      </trkpt>
      <trkpt lat="47.36844" lon="3.99688">
        <ele>459</ele>
        <time>2014-04-19T10:36:21Z</time>
      </trkpt>
      <trkpt lat="47.36839" lon="3.99692">
        <ele>459</ele>
        <time>2014-04-19T10:36:52Z</time>
      </trkpt>
      <trkpt lat="47.36838" lon="3.99699">
        <ele>459</ele>
        <time>2014-04-19T10:36:59Z</time>
      </trkpt>
      <trkpt lat="47.36838" lon="3.99695">
        <ele>459</ele>
        <time>2014-04-19T10:37:23Z</time>
      </trkpt>
      <trkpt lat="47.36837" lon="3.99688">
        <ele>459</ele>
        <time>2014-04-19T10:37:30Z</time>
      </trkpt>
      <trkpt lat="47.36841" lon="3.99689">
        <ele>459</ele>
        <time>2014-04-19T10:37:41Z</time>
      </trkpt>
      <trkpt lat="47.36843" lon="3.99695">
        <ele>459</ele>
        <time>2014-04-19T10:37:46Z</time>
      </trkpt>
      <trkpt lat="47.36848" lon="3.99689">
        <ele>459</ele>
        <time>2014-04-19T10:37:57Z</time>
      </trkpt>
      <trkpt lat="47.36845" lon="3.99684">
        <ele>459</ele>
        <time>2014-04-19T10:38:11Z</time>
      </trkpt>
      <trkpt lat="47.36843" lon="3.99686">
        <ele>459</ele>
        <time>2014-04-19T10:38:17Z</time>
      </trkpt>
      <trkpt lat="47.3684" lon="3.99689">
        <ele>459</ele>
        <time>2014-04-19T10:39:14Z</time>
      </trkpt>
      <trkpt lat="47.36838" lon="3.99696">
        <ele>459</ele>
        <time>2014-04-19T10:39:19Z</time>
      </trkpt>
      <trkpt lat="47.36833" lon="3.99697">
        <ele>459</ele>
        <time>2014-04-19T10:39:23Z</time>
      </trkpt>
      <trkpt lat="47.36835" lon="3.99692">
        <ele>459</ele>
        <time>2014-04-19T10:39:50Z</time>
      </trkpt>
      <trkpt lat="47.36839" lon="3.99694">
        <ele>459</ele>
        <time>2014-04-19T10:40:23Z</time>
      </trkpt>
      <trkpt lat="47.36842" lon="3.99688">
        <ele>459</ele>
        <time>2014-04-19T10:40:31Z</time>
      </trkpt>
      <trkpt lat="47.3684" lon="3.99691">
        <ele>459</ele>
        <time>2014-04-19T10:41:50Z</time>
      </trkpt>
      <trkpt lat="47.36839" lon="3.99698">
        <ele>459</ele>
        <time>2014-04-19T10:42:25Z</time>
      </trkpt>
      <trkpt lat="47.36838" lon="3.99701">
        <ele>459</ele>
        <time>2014-04-19T10:43:31Z</time>
      </trkpt>
      <trkpt lat="47.3684" lon="3.99697">
        <ele>459</ele>
        <time>2014-04-19T10:49:46Z</time>
      </trkpt>
      <trkpt lat="47.36841" lon="3.9969">
        <ele>459</ele>
        <time>2014-04-19T11:04:57Z</time>
      </trkpt>
      <trkpt lat="47.36841" lon="3.99683">
        <ele>459</ele>
        <time>2014-04-19T11:05:00Z</time>
      </trkpt>
      <trkpt lat="47.36828" lon="3.99674">
        <ele>459</ele>
        <time>2014-04-19T11:05:06Z</time>
      </trkpt>
      <trkpt lat="47.36833" lon="3.99676">
        <ele>459</ele>
        <time>2014-04-19T11:05:14Z</time>
      </trkpt>
      <trkpt lat="47.36838" lon="3.99677">
        <ele>459</ele>
        <time>2014-04-19T11:05:33Z</time>
      </trkpt>
      <trkpt lat="47.36843" lon="3.99679">
        <ele>459</ele>
        <time>2014-04-19T11:05:36Z</time>
      </trkpt>
      <trkpt lat="47.36845" lon="3.99674">
        <ele>459</ele>
        <time>2014-04-19T11:06:19Z</time>
      </trkpt>
      <trkpt lat="47.36847" lon="3.99676">
        <ele>459</ele>
        <time>2014-04-19T11:06:37Z</time>
      </trkpt>
      <trkpt lat="47.36846" lon="3.99658">
        <ele>458</ele>
        <time>2014-04-19T11:06:58Z</time>
      </trkpt>
      <trkpt lat="47.36843" lon="3.99653">
        <ele>458</ele>
        <time>2014-04-19T11:07:05Z</time>
      </trkpt>
      <trkpt lat="47.36842" lon="3.99655">
        <ele>458</ele>
        <time>2014-04-19T11:07:15Z</time>
      </trkpt>
      <trkpt lat="47.36854" lon="3.99659">
        <ele>457</ele>
        <time>2014-04-19T11:07:21Z</time>
      </trkpt>
      <trkpt lat="47.36858" lon="3.99663">
        <ele>457</ele>
        <time>2014-04-19T11:07:25Z</time>
      </trkpt>
      <trkpt lat="47.36858" lon="3.9967">
        <ele>459</ele>
        <time>2014-04-19T11:07:31Z</time>
      </trkpt>
      <trkpt lat="47.36861" lon="3.99671">
        <ele>459</ele>
        <time>2014-04-19T11:07:39Z</time>
      </trkpt>
      <trkpt lat="47.36864" lon="3.99665">
        <ele>457</ele>
        <time>2014-04-19T11:07:40Z</time>
      </trkpt>
      <trkpt lat="47.3687" lon="3.99669">
        <ele>459</ele>
        <time>2014-04-19T11:08:12Z</time>
      </trkpt>
      <trkpt lat="47.36873" lon="3.99674">
        <ele>459</ele>
        <time>2014-04-19T11:08:21Z</time>
      </trkpt>
      <trkpt lat="47.36878" lon="3.99675">
        <ele>458</ele>
        <time>2014-04-19T11:08:24Z</time>
      </trkpt>
      <trkpt lat="47.36878" lon="3.99679">
        <ele>458</ele>
        <time>2014-04-19T11:08:51Z</time>
      </trkpt>
      <trkpt lat="47.36867" lon="3.99684">
        <ele>459</ele>
        <time>2014-04-19T11:08:59Z</time>
      </trkpt>
      <trkpt lat="47.36862" lon="3.99686">
        <ele>459</ele>
        <time>2014-04-19T11:09:02Z</time>
      </trkpt>
      <trkpt lat="47.3686" lon="3.99692">
        <ele>459</ele>
        <time>2014-04-19T11:09:09Z</time>
      </trkpt>
      <trkpt lat="47.36863" lon="3.99695">
        <ele>459</ele>
        <time>2014-04-19T11:09:17Z</time>
      </trkpt>
      <trkpt lat="47.36865" lon="3.997">
        <ele>459</ele>
        <time>2014-04-19T11:09:27Z</time>
      </trkpt>
      <trkpt lat="47.3686" lon="3.99704">
        <ele>459</ele>
        <time>2014-04-19T11:09:35Z</time>
      </trkpt>
      <trkpt lat="47.36853" lon="3.99708">
        <ele>459</ele>
        <time>2014-04-19T11:10:30Z</time>
      </trkpt>
      <trkpt lat="47.36849" lon="3.99705">
        <ele>459</ele>
        <time>2014-04-19T11:10:33Z</time>
      </trkpt>
      <trkpt lat="47.36846" lon="3.99697">
        <ele>459</ele>
        <time>2014-04-19T11:10:37Z</time>
      </trkpt>
      <trkpt lat="47.36845" lon="3.99689">
        <ele>459</ele>
        <time>2014-04-19T11:10:41Z</time>
      </trkpt>
      <trkpt lat="47.36847" lon="3.99676">
        <ele>459</ele>
        <time>2014-04-19T11:10:48Z</time>
      </trkpt>
      <trkpt lat="47.36846" lon="3.9967">
        <ele>459</ele>
        <time>2014-04-19T11:10:52Z</time>
      </trkpt>
      <trkpt lat="47.36842" lon="3.99664">
        <ele>458</ele>
        <time>2014-04-19T11:10:56Z</time>
      </trkpt>
      <trkpt lat="47.3684" lon="3.99656">
        <ele>458</ele>
        <time>2014-04-19T11:10:59Z</time>
      </trkpt>
      <trkpt lat="47.3683" lon="3.99652">
        <ele>458</ele>
        <time>2014-04-19T11:11:07Z</time>
      </trkpt>
      <trkpt lat="47.36834" lon="3.99631">
        <ele>457</ele>
        <time>2014-04-19T11:11:10Z</time>
      </trkpt>
      <trkpt lat="47.36831" lon="3.99633">
        <ele>458</ele>
        <time>2014-04-19T11:11:13Z</time>
      </trkpt>
      <trkpt lat="47.36825" lon="3.99632">
        <ele>458</ele>
        <time>2014-04-19T11:11:19Z</time>
      </trkpt>
      <trkpt lat="47.36821" lon="3.99635">
        <ele>458</ele>
        <time>2014-04-19T11:11:27Z</time>
      </trkpt>
      <trkpt lat="47.36821" lon="3.9964">
        <ele>458</ele>
        <time>2014-04-19T11:11:34Z</time>
      </trkpt>
      <trkpt lat="47.36821" lon="3.99647">
        <ele>458</ele>
        <time>2014-04-19T11:11:43Z</time>
      </trkpt>
      <trkpt lat="47.36826" lon="3.99646">
        <ele>458</ele>
        <time>2014-04-19T11:11:56Z</time>
      </trkpt>
      <trkpt lat="47.36827" lon="3.99653">
        <ele>458</ele>
        <time>2014-04-19T11:12:02Z</time>
      </trkpt>
      <trkpt lat="47.36829" lon="3.99661">
        <ele>459</ele>
        <time>2014-04-19T11:12:07Z</time>
      </trkpt>
      <trkpt lat="47.36837" lon="3.99666">
        <ele>459</ele>
        <time>2014-04-19T11:12:15Z</time>
      </trkpt>
      <trkpt lat="47.36842" lon="3.99665">
        <ele>458</ele>
        <time>2014-04-19T11:12:19Z</time>
      </trkpt>
      <trkpt lat="47.36846" lon="3.99669">
        <ele>459</ele>
        <time>2014-04-19T11:12:24Z</time>
      </trkpt>
      <trkpt lat="47.36851" lon="3.99669">
        <ele>459</ele>
        <time>2014-04-19T11:12:30Z</time>
      </trkpt>
      <trkpt lat="47.36865" lon="3.99663">
        <ele>457</ele>
        <time>2014-04-19T11:12:58Z</time>
      </trkpt>
      <trkpt lat="47.36869" lon="3.99657">
        <ele>457</ele>
        <time>2014-04-19T11:13:01Z</time>
      </trkpt>
      <trkpt lat="47.36875" lon="3.99655">
        <ele>457</ele>
        <time>2014-04-19T11:13:04Z</time>
      </trkpt>
      <trkpt lat="47.36881" lon="3.99659">
        <ele>457</ele>
        <time>2014-04-19T11:13:27Z</time>
      </trkpt>
      <trkpt lat="47.36883" lon="3.99669">
        <ele>458</ele>
        <time>2014-04-19T11:13:38Z</time>
      </trkpt>
      <trkpt lat="47.36893" lon="3.9969">
        <ele>458</ele>
        <time>2014-04-19T11:13:48Z</time>
      </trkpt>
      <trkpt lat="47.36893" lon="3.99697">
        <ele>458</ele>
        <time>2014-04-19T11:13:52Z</time>
      </trkpt>
      <trkpt lat="47.36895" lon="3.99705">
        <ele>459</ele>
        <time>2014-04-19T11:13:56Z</time>
      </trkpt>
      <trkpt lat="47.36907" lon="3.99777">
        <ele>459</ele>
        <time>2014-04-19T11:14:37Z</time>
      </trkpt>
      <trkpt lat="47.36907" lon="3.998">
        <ele>459</ele>
        <time>2014-04-19T11:14:48Z</time>
      </trkpt>
      <trkpt lat="47.36909" lon="3.99816">
        <ele>459</ele>
        <time>2014-04-19T11:14:54Z</time>
      </trkpt>
      <trkpt lat="47.36907" lon="3.99822">
        <ele>458</ele>
        <time>2014-04-19T11:14:58Z</time>
      </trkpt>
      <trkpt lat="47.36906" lon="3.9983">
        <ele>458</ele>
        <time>2014-04-19T11:15:02Z</time>
      </trkpt>
      <trkpt lat="47.36906" lon="3.99837">
        <ele>458</ele>
        <time>2014-04-19T11:15:06Z</time>
      </trkpt>
      <trkpt lat="47.369" lon="3.9989">
        <ele>456</ele>
        <time>2014-04-19T11:15:34Z</time>
      </trkpt>
      <trkpt lat="47.36898" lon="3.99896">
        <ele>456</ele>
        <time>2014-04-19T11:15:39Z</time>
      </trkpt>
      <trkpt lat="47.36899" lon="3.99911">
        <ele>456</ele>
        <time>2014-04-19T11:15:46Z</time>
      </trkpt>
      <trkpt lat="47.36897" lon="3.99919">
        <ele>455</ele>
        <time>2014-04-19T11:15:50Z</time>
      </trkpt>
      <trkpt lat="47.36896" lon="3.99934">
        <ele>455</ele>
        <time>2014-04-19T11:15:58Z</time>
      </trkpt>
      <trkpt lat="47.36896" lon="3.99942">
        <ele>455</ele>
        <time>2014-04-19T11:16:01Z</time>
      </trkpt>
      <trkpt lat="47.36893" lon="3.99957">
        <ele>455</ele>
        <time>2014-04-19T11:16:10Z</time>
      </trkpt>
      <trkpt lat="47.36893" lon="3.99971">
        <ele>454</ele>
        <time>2014-04-19T11:16:18Z</time>
      </trkpt>
      <trkpt lat="47.36892" lon="3.99978">
        <ele>454</ele>
        <time>2014-04-19T11:16:22Z</time>
      </trkpt>
      <trkpt lat="47.36893" lon="3.99987">
        <ele>454</ele>
        <time>2014-04-19T11:16:26Z</time>
      </trkpt>
      <trkpt lat="47.36892" lon="3.99995">
        <ele>454</ele>
        <time>2014-04-19T11:16:30Z</time>
      </trkpt>
      <trkpt lat="47.3689" lon="4.00002">
        <ele>454</ele>
        <time>2014-04-19T11:16:33Z</time>
      </trkpt>
      <trkpt lat="47.3689" lon="4.00011">
        <ele>454</ele>
        <time>2014-04-19T11:16:37Z</time>
      </trkpt>
      <trkpt lat="47.36889" lon="4.00017">
        <ele>454</ele>
        <time>2014-04-19T11:16:40Z</time>
      </trkpt>
      <trkpt lat="47.36887" lon="4.00023">
        <ele>454</ele>
        <time>2014-04-19T11:16:44Z</time>
      </trkpt>
      <trkpt lat="47.36888" lon="4.0003">
        <ele>454</ele>
        <time>2014-04-19T11:16:48Z</time>
      </trkpt>
      <trkpt lat="47.36894" lon="4.00042">
        <ele>454</ele>
        <time>2014-04-19T11:16:57Z</time>
      </trkpt>
      <trkpt lat="47.36896" lon="4.00049">
        <ele>454</ele>
        <time>2014-04-19T11:17:02Z</time>
      </trkpt>
      <trkpt lat="47.36902" lon="4.0009">
        <ele>453</ele>
        <time>2014-04-19T11:17:20Z</time>
      </trkpt>
      <trkpt lat="47.36903" lon="4.00111">
        <ele>455</ele>
        <time>2014-04-19T11:17:30Z</time>
      </trkpt>
      <trkpt lat="47.36906" lon="4.00118">
        <ele>455</ele>
        <time>2014-04-19T11:17:33Z</time>
      </trkpt>
      <trkpt lat="47.36908" lon="4.00124">
        <ele>455</ele>
        <time>2014-04-19T11:17:36Z</time>
      </trkpt>
      <trkpt lat="47.36917" lon="4.00169">
        <ele>453</ele>
        <time>2014-04-19T11:17:57Z</time>
      </trkpt>
      <trkpt lat="47.36917" lon="4.00177">
        <ele>451</ele>
        <time>2014-04-19T11:18:01Z</time>
      </trkpt>
      <trkpt lat="47.36919" lon="4.00192">
        <ele>450</ele>
        <time>2014-04-19T11:18:11Z</time>
      </trkpt>
      <trkpt lat="47.36922" lon="4.00197">
        <ele>450</ele>
        <time>2014-04-19T11:18:15Z</time>
      </trkpt>
      <trkpt lat="47.3693" lon="4.00233">
        <ele>450</ele>
        <time>2014-04-19T11:18:34Z</time>
      </trkpt>
      <trkpt lat="47.36931" lon="4.00242">
        <ele>450</ele>
        <time>2014-04-19T11:18:38Z</time>
      </trkpt>
      <trkpt lat="47.36932" lon="4.00249">
        <ele>450</ele>
        <time>2014-04-19T11:18:41Z</time>
      </trkpt>
      <trkpt lat="47.36935" lon="4.00255">
        <ele>450</ele>
        <time>2014-04-19T11:18:45Z</time>
      </trkpt>
      <trkpt lat="47.36941" lon="4.00292">
        <ele>450</ele>
        <time>2014-04-19T11:19:04Z</time>
      </trkpt>
      <trkpt lat="47.36941" lon="4.00305">
        <ele>450</ele>
        <time>2014-04-19T11:19:10Z</time>
      </trkpt>
      <trkpt lat="47.36945" lon="4.00321">
        <ele>450</ele>
        <time>2014-04-19T11:19:17Z</time>
      </trkpt>
      <trkpt lat="47.36949" lon="4.00333">
        <ele>450</ele>
        <time>2014-04-19T11:19:25Z</time>
      </trkpt>
      <trkpt lat="47.36953" lon="4.00348">
        <ele>450</ele>
        <time>2014-04-19T11:19:34Z</time>
      </trkpt>
      <trkpt lat="47.36957" lon="4.00354">
        <ele>450</ele>
        <time>2014-04-19T11:19:37Z</time>
      </trkpt>
      <trkpt lat="47.36965" lon="4.00363">
        <ele>450</ele>
        <time>2014-04-19T11:19:43Z</time>
      </trkpt>
      <trkpt lat="47.36968" lon="4.00372">
        <ele>450</ele>
        <time>2014-04-19T11:19:58Z</time>
      </trkpt>
      <trkpt lat="47.36973" lon="4.00384">
        <ele>450</ele>
        <time>2014-04-19T11:20:07Z</time>
      </trkpt>
      <trkpt lat="47.36978" lon="4.00398">
        <ele>450</ele>
        <time>2014-04-19T11:20:15Z</time>
      </trkpt>
      <trkpt lat="47.36981" lon="4.00405">
        <ele>449</ele>
        <time>2014-04-19T11:20:19Z</time>
      </trkpt>
      <trkpt lat="47.36988" lon="4.00424">
        <ele>450</ele>
        <time>2014-04-19T11:20:31Z</time>
      </trkpt>
      <trkpt lat="47.3699" lon="4.00431">
        <ele>450</ele>
        <time>2014-04-19T11:20:35Z</time>
      </trkpt>
      <trkpt lat="47.36996" lon="4.00443">
        <ele>450</ele>
        <time>2014-04-19T11:20:43Z</time>
      </trkpt>
      <trkpt lat="47.37001" lon="4.00462">
        <ele>448</ele>
        <time>2014-04-19T11:21:09Z</time>
      </trkpt>
      <trkpt lat="47.37008" lon="4.00474">
        <ele>448</ele>
        <time>2014-04-19T11:21:17Z</time>
      </trkpt>
      <trkpt lat="47.3701" lon="4.0048">
        <ele>448</ele>
        <time>2014-04-19T11:21:21Z</time>
      </trkpt>
      <trkpt lat="47.37019" lon="4.00497">
        <ele>448</ele>
        <time>2014-04-19T11:21:33Z</time>
      </trkpt>
      <trkpt lat="47.37026" lon="4.00526">
        <ele>448</ele>
        <time>2014-04-19T11:21:50Z</time>
      </trkpt>
      <trkpt lat="47.3703" lon="4.00532">
        <ele>448</ele>
        <time>2014-04-19T11:21:57Z</time>
      </trkpt>
      <trkpt lat="47.37035" lon="4.00562">
        <ele>448</ele>
        <time>2014-04-19T11:22:16Z</time>
      </trkpt>
      <trkpt lat="47.37035" lon="4.0057">
        <ele>449</ele>
        <time>2014-04-19T11:22:20Z</time>
      </trkpt>
      <trkpt lat="47.37036" lon="4.00576">
        <ele>449</ele>
        <time>2014-04-19T11:22:24Z</time>
      </trkpt>
      <trkpt lat="47.37038" lon="4.00584">
        <ele>449</ele>
        <time>2014-04-19T11:22:28Z</time>
      </trkpt>
      <trkpt lat="47.37043" lon="4.00592">
        <ele>449</ele>
        <time>2014-04-19T11:22:33Z</time>
      </trkpt>
      <trkpt lat="47.37046" lon="4.00606">
        <ele>448</ele>
        <time>2014-04-19T11:22:39Z</time>
      </trkpt>
      <trkpt lat="47.37047" lon="4.00622">
        <ele>449</ele>
        <time>2014-04-19T11:24:01Z</time>
      </trkpt>
      <trkpt lat="47.37048" lon="4.00635">
        <ele>448</ele>
        <time>2014-04-19T11:24:07Z</time>
      </trkpt>
      <trkpt lat="47.3705" lon="4.00645">
        <ele>448</ele>
        <time>2014-04-19T11:24:11Z</time>
      </trkpt>
      <trkpt lat="47.3705" lon="4.00653">
        <ele>448</ele>
        <time>2014-04-19T11:24:16Z</time>
      </trkpt>
      <trkpt lat="47.37049" lon="4.00661">
        <ele>448</ele>
        <time>2014-04-19T11:24:23Z</time>
      </trkpt>
      <trkpt lat="47.37052" lon="4.00668">
        <ele>448</ele>
        <time>2014-04-19T11:24:27Z</time>
      </trkpt>
      <trkpt lat="47.37056" lon="4.00672">
        <ele>447</ele>
        <time>2014-04-19T11:24:31Z</time>
      </trkpt>
      <trkpt lat="47.37058" lon="4.00681">
        <ele>447</ele>
        <time>2014-04-19T11:24:35Z</time>
      </trkpt>
      <trkpt lat="47.37058" lon="4.00689">
        <ele>447</ele>
        <time>2014-04-19T11:24:38Z</time>
      </trkpt>
      <trkpt lat="47.37058" lon="4.00703">
        <ele>447</ele>
        <time>2014-04-19T11:24:45Z</time>
      </trkpt>
      <trkpt lat="47.37062" lon="4.00717">
        <ele>446</ele>
        <time>2014-04-19T11:24:52Z</time>
      </trkpt>
      <trkpt lat="47.37063" lon="4.00724">
        <ele>446</ele>
        <time>2014-04-19T11:24:57Z</time>
      </trkpt>
      <trkpt lat="47.37063" lon="4.00739">
        <ele>445</ele>
        <time>2014-04-19T11:25:05Z</time>
      </trkpt>
      <trkpt lat="47.37062" lon="4.00747">
        <ele>445</ele>
        <time>2014-04-19T11:25:10Z</time>
      </trkpt>
      <trkpt lat="47.37061" lon="4.00755">
        <ele>443</ele>
        <time>2014-04-19T11:25:14Z</time>
      </trkpt>
      <trkpt lat="47.37046" lon="4.00799">
        <ele>443</ele>
        <time>2014-04-19T11:25:52Z</time>
      </trkpt>
      <trkpt lat="47.37044" lon="4.00807">
        <ele>443</ele>
        <time>2014-04-19T11:25:55Z</time>
      </trkpt>
      <trkpt lat="47.37041" lon="4.00816">
        <ele>443</ele>
        <time>2014-04-19T11:25:58Z</time>
      </trkpt>
      <trkpt lat="47.37038" lon="4.00822">
        <ele>444</ele>
        <time>2014-04-19T11:26:01Z</time>
      </trkpt>
      <trkpt lat="47.37035" lon="4.00828">
        <ele>444</ele>
        <time>2014-04-19T11:26:04Z</time>
      </trkpt>
      <trkpt lat="47.37033" lon="4.00836">
        <ele>441</ele>
        <time>2014-04-19T11:26:07Z</time>
      </trkpt>
      <trkpt lat="47.3703" lon="4.0085">
        <ele>441</ele>
        <time>2014-04-19T11:26:15Z</time>
      </trkpt>
      <trkpt lat="47.37028" lon="4.00857">
        <ele>441</ele>
        <time>2014-04-19T11:26:21Z</time>
      </trkpt>
      <trkpt lat="47.37027" lon="4.00872">
        <ele>440</ele>
        <time>2014-04-19T11:26:30Z</time>
      </trkpt>
      <trkpt lat="47.37035" lon="4.00918">
        <ele>436</ele>
        <time>2014-04-19T11:27:01Z</time>
      </trkpt>
      <trkpt lat="47.37045" lon="4.00953">
        <ele>435</ele>
        <time>2014-04-19T11:27:19Z</time>
      </trkpt>
      <trkpt lat="47.37046" lon="4.00983">
        <ele>434</ele>
        <time>2014-04-19T11:27:28Z</time>
      </trkpt>
      <trkpt lat="47.37064" lon="4.01063">
        <ele>430</ele>
        <time>2014-04-19T11:28:03Z</time>
      </trkpt>
      <trkpt lat="47.37076" lon="4.01099">
        <ele>428</ele>
        <time>2014-04-19T11:28:23Z</time>
      </trkpt>
      <trkpt lat="47.37079" lon="4.01105">
        <ele>429</ele>
        <time>2014-04-19T11:28:31Z</time>
      </trkpt>
      <trkpt lat="47.37081" lon="4.01111">
        <ele>429</ele>
        <time>2014-04-19T11:28:35Z</time>
      </trkpt>
      <trkpt lat="47.37089" lon="4.01145">
        <ele>424</ele>
        <time>2014-04-19T11:29:05Z</time>
      </trkpt>
      <trkpt lat="47.37091" lon="4.01175">
        <ele>424</ele>
        <time>2014-04-19T11:29:21Z</time>
      </trkpt>
      <trkpt lat="47.37084" lon="4.01204">
        <ele>421</ele>
        <time>2014-04-19T11:29:33Z</time>
      </trkpt>
      <trkpt lat="47.37066" lon="4.01253">
        <ele>421</ele>
        <time>2014-04-19T11:30:26Z</time>
      </trkpt>
      <trkpt lat="47.37062" lon="4.01259">
        <ele>421</ele>
        <time>2014-04-19T11:30:30Z</time>
      </trkpt>
      <trkpt lat="47.37059" lon="4.01266">
        <ele>421</ele>
        <time>2014-04-19T11:30:35Z</time>
      </trkpt>
      <trkpt lat="47.3705" lon="4.01297">
        <ele>420</ele>
        <time>2014-04-19T11:30:51Z</time>
      </trkpt>
      <trkpt lat="47.3705" lon="4.01312">
        <ele>420</ele>
        <time>2014-04-19T11:30:58Z</time>
      </trkpt>
      <trkpt lat="47.37051" lon="4.01327">
        <ele>420</ele>
        <time>2014-04-19T11:31:07Z</time>
      </trkpt>
      <trkpt lat="47.3705" lon="4.01349">
        <ele>418</ele>
        <time>2014-04-19T11:31:33Z</time>
      </trkpt>
      <trkpt lat="47.37051" lon="4.01363">
        <ele>418</ele>
        <time>2014-04-19T11:31:42Z</time>
      </trkpt>
      <trkpt lat="47.37051" lon="4.0137">
        <ele>418</ele>
        <time>2014-04-19T11:31:47Z</time>
      </trkpt>
      <trkpt lat="47.37049" lon="4.01377">
        <ele>418</ele>
        <time>2014-04-19T11:32:16Z</time>
      </trkpt>
      <trkpt lat="47.3705" lon="4.01384">
        <ele>418</ele>
        <time>2014-04-19T11:32:21Z</time>
      </trkpt>
      <trkpt lat="47.37045" lon="4.0139">
        <ele>418</ele>
        <time>2014-04-19T11:32:23Z</time>
      </trkpt>
      <trkpt lat="47.37041" lon="4.01395">
        <ele>418</ele>
        <time>2014-04-19T11:32:26Z</time>
      </trkpt>
      <trkpt lat="47.37043" lon="4.01405">
        <ele>418</ele>
        <time>2014-04-19T11:32:30Z</time>
      </trkpt>
      <trkpt lat="47.37044" lon="4.01426">
        <ele>417</ele>
        <time>2014-04-19T11:32:39Z</time>
      </trkpt>
      <trkpt lat="47.37043" lon="4.01433">
        <ele>417</ele>
        <time>2014-04-19T11:32:42Z</time>
      </trkpt>
      <trkpt lat="47.37043" lon="4.01441">
        <ele>417</ele>
        <time>2014-04-19T11:32:46Z</time>
      </trkpt>
      <trkpt lat="47.37042" lon="4.01449">
        <ele>417</ele>
        <time>2014-04-19T11:32:50Z</time>
      </trkpt>
      <trkpt lat="47.37038" lon="4.01464">
        <ele>416</ele>
        <time>2014-04-19T11:32:58Z</time>
      </trkpt>
      <trkpt lat="47.37037" lon="4.0147">
        <ele>416</ele>
        <time>2014-04-19T11:33:02Z</time>
      </trkpt>
      <trkpt lat="47.37035" lon="4.01478">
        <ele>416</ele>
        <time>2014-04-19T11:33:06Z</time>
      </trkpt>
      <trkpt lat="47.37028" lon="4.01494">
        <ele>416</ele>
        <time>2014-04-19T11:33:12Z</time>
      </trkpt>
      <trkpt lat="47.37026" lon="4.01501">
        <ele>414</ele>
        <time>2014-04-19T11:33:16Z</time>
      </trkpt>
      <trkpt lat="47.37023" lon="4.01507">
        <ele>414</ele>
        <time>2014-04-19T11:33:20Z</time>
      </trkpt>
      <trkpt lat="47.37018" lon="4.01536">
        <ele>414</ele>
        <time>2014-04-19T11:33:37Z</time>
      </trkpt>
      <trkpt lat="47.37018" lon="4.01545">
        <ele>413</ele>
        <time>2014-04-19T11:33:42Z</time>
      </trkpt>
      <trkpt lat="47.37016" lon="4.01551">
        <ele>413</ele>
        <time>2014-04-19T11:33:47Z</time>
      </trkpt>
      <trkpt lat="47.37018" lon="4.01559">
        <ele>413</ele>
        <time>2014-04-19T11:33:53Z</time>
      </trkpt>
      <trkpt lat="47.37018" lon="4.01567">
        <ele>413</ele>
        <time>2014-04-19T11:33:57Z</time>
      </trkpt>
      <trkpt lat="47.37018" lon="4.01573">
        <ele>412</ele>
        <time>2014-04-19T11:34:00Z</time>
      </trkpt>
      <trkpt lat="47.37018" lon="4.01581">
        <ele>412</ele>
        <time>2014-04-19T11:34:04Z</time>
      </trkpt>
      <trkpt lat="47.3702" lon="4.01588">
        <ele>410</ele>
        <time>2014-04-19T11:34:09Z</time>
      </trkpt>
      <trkpt lat="47.3702" lon="4.01595">
        <ele>410</ele>
        <time>2014-04-19T11:34:13Z</time>
      </trkpt>
      <trkpt lat="47.37017" lon="4.01619">
        <ele>410</ele>
        <time>2014-04-19T11:34:25Z</time>
      </trkpt>
      <trkpt lat="47.37018" lon="4.01626">
        <ele>409</ele>
        <time>2014-04-19T11:34:29Z</time>
      </trkpt>
      <trkpt lat="47.37018" lon="4.01633">
        <ele>409</ele>
        <time>2014-04-19T11:34:32Z</time>
      </trkpt>
      <trkpt lat="47.37014" lon="4.01642">
        <ele>408</ele>
        <time>2014-04-19T11:34:35Z</time>
      </trkpt>
      <trkpt lat="47.37013" lon="4.01651">
        <ele>407</ele>
        <time>2014-04-19T11:34:38Z</time>
      </trkpt>
      <trkpt lat="47.37017" lon="4.01683">
        <ele>404</ele>
        <time>2014-04-19T11:34:53Z</time>
      </trkpt>
      <trkpt lat="47.37016" lon="4.01691">
        <ele>404</ele>
        <time>2014-04-19T11:34:57Z</time>
      </trkpt>
      <trkpt lat="47.37017" lon="4.01697">
        <ele>404</ele>
        <time>2014-04-19T11:35:00Z</time>
      </trkpt>
      <trkpt lat="47.37016" lon="4.01713">
        <ele>403</ele>
        <time>2014-04-19T11:35:06Z</time>
      </trkpt>
      <trkpt lat="47.37018" lon="4.01728">
        <ele>402</ele>
        <time>2014-04-19T11:35:13Z</time>
      </trkpt>
      <trkpt lat="47.37023" lon="4.0174">
        <ele>402</ele>
        <time>2014-04-19T11:35:21Z</time>
      </trkpt>
      <trkpt lat="47.37025" lon="4.01755">
        <ele>398</ele>
        <time>2014-04-19T11:35:28Z</time>
      </trkpt>
      <trkpt lat="47.37033" lon="4.01774">
        <ele>398</ele>
        <time>2014-04-19T11:35:39Z</time>
      </trkpt>
      <trkpt lat="47.37034" lon="4.01782">
        <ele>398</ele>
        <time>2014-04-19T11:35:45Z</time>
      </trkpt>
      <trkpt lat="47.37042" lon="4.01804">
        <ele>398</ele>
        <time>2014-04-19T11:35:54Z</time>
      </trkpt>
      <trkpt lat="47.37043" lon="4.0181">
        <ele>398</ele>
        <time>2014-04-19T11:35:57Z</time>
      </trkpt>
      <trkpt lat="47.37043" lon="4.01817">
        <ele>398</ele>
        <time>2014-04-19T11:36:01Z</time>
      </trkpt>
      <trkpt lat="47.37047" lon="4.01823">
        <ele>398</ele>
        <time>2014-04-19T11:36:04Z</time>
      </trkpt>
      <trkpt lat="47.37051" lon="4.01829">
        <ele>398</ele>
        <time>2014-04-19T11:36:07Z</time>
      </trkpt>
      <trkpt lat="47.37057" lon="4.01868">
        <ele>395</ele>
        <time>2014-04-19T11:36:27Z</time>
      </trkpt>
      <trkpt lat="47.37054" lon="4.01882">
        <ele>395</ele>
        <time>2014-04-19T11:36:35Z</time>
      </trkpt>
      <trkpt lat="47.37051" lon="4.01889">
        <ele>395</ele>
        <time>2014-04-19T11:36:37Z</time>
      </trkpt>
      <trkpt lat="47.37049" lon="4.01897">
        <ele>394</ele>
        <time>2014-04-19T11:36:40Z</time>
      </trkpt>
      <trkpt lat="47.37048" lon="4.01904">
        <ele>394</ele>
        <time>2014-04-19T11:36:44Z</time>
      </trkpt>
      <trkpt lat="47.3704" lon="4.01938">
        <ele>392</ele>
        <time>2014-04-19T11:37:07Z</time>
      </trkpt>
      <trkpt lat="47.37039" lon="4.01955">
        <ele>392</ele>
        <time>2014-04-19T11:37:14Z</time>
      </trkpt>
      <trkpt lat="47.37026" lon="4.02012">
        <ele>389</ele>
        <time>2014-04-19T11:37:45Z</time>
      </trkpt>
      <trkpt lat="47.37025" lon="4.0202">
        <ele>389</ele>
        <time>2014-04-19T11:37:48Z</time>
      </trkpt>
      <trkpt lat="47.37023" lon="4.02026">
        <ele>389</ele>
        <time>2014-04-19T11:37:52Z</time>
      </trkpt>
      <trkpt lat="47.37024" lon="4.02033">
        <ele>389</ele>
        <time>2014-04-19T11:37:58Z</time>
      </trkpt>
      <trkpt lat="47.37021" lon="4.02048">
        <ele>389</ele>
        <time>2014-04-19T11:38:06Z</time>
      </trkpt>
      <trkpt lat="47.3702" lon="4.02056">
        <ele>388</ele>
        <time>2014-04-19T11:38:09Z</time>
      </trkpt>
      <trkpt lat="47.37015" lon="4.0207">
        <ele>386</ele>
        <time>2014-04-19T11:38:14Z</time>
      </trkpt>
      <trkpt lat="47.37012" lon="4.02076">
        <ele>385</ele>
        <time>2014-04-19T11:38:17Z</time>
      </trkpt>
      <trkpt lat="47.37012" lon="4.02083">
        <ele>384</ele>
        <time>2014-04-19T11:38:21Z</time>
      </trkpt>
      <trkpt lat="47.37015" lon="4.02091">
        <ele>384</ele>
        <time>2014-04-19T11:38:25Z</time>
      </trkpt>
      <trkpt lat="47.37016" lon="4.02099">
        <ele>384</ele>
        <time>2014-04-19T11:38:28Z</time>
      </trkpt>
      <trkpt lat="47.37014" lon="4.02114">
        <ele>384</ele>
        <time>2014-04-19T11:38:36Z</time>
      </trkpt>
      <trkpt lat="47.37012" lon="4.0212">
        <ele>384</ele>
        <time>2014-04-19T11:38:39Z</time>
      </trkpt>
      <trkpt lat="47.3701" lon="4.02126">
        <ele>384</ele>
        <time>2014-04-19T11:38:42Z</time>
      </trkpt>
      <trkpt lat="47.37012" lon="4.02134">
        <ele>383</ele>
        <time>2014-04-19T11:38:46Z</time>
      </trkpt>
      <trkpt lat="47.37014" lon="4.0214">
        <ele>383</ele>
        <time>2014-04-19T11:38:49Z</time>
      </trkpt>
      <trkpt lat="47.37015" lon="4.02146">
        <ele>382</ele>
        <time>2014-04-19T11:38:52Z</time>
      </trkpt>
      <trkpt lat="47.3701" lon="4.02176">
        <ele>377</ele>
        <time>2014-04-19T11:39:08Z</time>
      </trkpt>
      <trkpt lat="47.37012" lon="4.02183">
        <ele>377</ele>
        <time>2014-04-19T11:39:11Z</time>
      </trkpt>
      <trkpt lat="47.37012" lon="4.02191">
        <ele>377</ele>
        <time>2014-04-19T11:39:15Z</time>
      </trkpt>
      <trkpt lat="47.37014" lon="4.02205">
        <ele>377</ele>
        <time>2014-04-19T11:39:22Z</time>
      </trkpt>
      <trkpt lat="47.37021" lon="4.02228">
        <ele>376</ele>
        <time>2014-04-19T11:39:32Z</time>
      </trkpt>
      <trkpt lat="47.37025" lon="4.02232">
        <ele>376</ele>
        <time>2014-04-19T11:39:36Z</time>
      </trkpt>
      <trkpt lat="47.37028" lon="4.0224">
        <ele>376</ele>
        <time>2014-04-19T11:39:41Z</time>
      </trkpt>
      <trkpt lat="47.3703" lon="4.02247">
        <ele>376</ele>
        <time>2014-04-19T11:39:44Z</time>
      </trkpt>
      <trkpt lat="47.3704" lon="4.02274">
        <ele>373</ele>
        <time>2014-04-19T11:39:57Z</time>
      </trkpt>
      <trkpt lat="47.37044" lon="4.02296">
        <ele>373</ele>
        <time>2014-04-19T11:40:07Z</time>
      </trkpt>
      <trkpt lat="47.37044" lon="4.02304">
        <ele>373</ele>
        <time>2014-04-19T11:40:12Z</time>
      </trkpt>
      <trkpt lat="47.37049" lon="4.02326">
        <ele>373</ele>
        <time>2014-04-19T11:40:24Z</time>
      </trkpt>
      <trkpt lat="47.37049" lon="4.02334">
        <ele>370</ele>
        <time>2014-04-19T11:40:28Z</time>
      </trkpt>
      <trkpt lat="47.37054" lon="4.02337">
        <ele>371</ele>
        <time>2014-04-19T11:40:33Z</time>
      </trkpt>
      <trkpt lat="47.37056" lon="4.02343">
        <ele>371</ele>
        <time>2014-04-19T11:40:38Z</time>
      </trkpt>
      <trkpt lat="47.37058" lon="4.02357">
        <ele>370</ele>
        <time>2014-04-19T11:40:44Z</time>
      </trkpt>
      <trkpt lat="47.3707" lon="4.02396">
        <ele>369</ele>
        <time>2014-04-19T11:41:16Z</time>
      </trkpt>
      <trkpt lat="47.37071" lon="4.02403">
        <ele>369</ele>
        <time>2014-04-19T11:41:20Z</time>
      </trkpt>
      <trkpt lat="47.37074" lon="4.02413">
        <ele>370</ele>
        <time>2014-04-19T11:41:31Z</time>
      </trkpt>
      <trkpt lat="47.37086" lon="4.02439">
        <ele>370</ele>
        <time>2014-04-19T11:41:46Z</time>
      </trkpt>
      <trkpt lat="47.37088" lon="4.02447">
        <ele>370</ele>
        <time>2014-04-19T11:41:50Z</time>
      </trkpt>
      <trkpt lat="47.37092" lon="4.02453">
        <ele>369</ele>
        <time>2014-04-19T11:41:55Z</time>
      </trkpt>
      <trkpt lat="47.37094" lon="4.02459">
        <ele>369</ele>
        <time>2014-04-19T11:41:59Z</time>
      </trkpt>
      <trkpt lat="47.37107" lon="4.02484">
        <ele>368</ele>
        <time>2014-04-19T11:42:15Z</time>
      </trkpt>
      <trkpt lat="47.37111" lon="4.0249">
        <ele>368</ele>
        <time>2014-04-19T11:42:19Z</time>
      </trkpt>
      <trkpt lat="47.37114" lon="4.02497">
        <ele>368</ele>
        <time>2014-04-19T11:42:23Z</time>
      </trkpt>
      <trkpt lat="47.37122" lon="4.02509">
        <ele>363</ele>
        <time>2014-04-19T11:42:31Z</time>
      </trkpt>
      <trkpt lat="47.3713" lon="4.02519">
        <ele>363</ele>
        <time>2014-04-19T11:42:37Z</time>
      </trkpt>
      <trkpt lat="47.37133" lon="4.02524">
        <ele>363</ele>
        <time>2014-04-19T11:42:40Z</time>
      </trkpt>
      <trkpt lat="47.37136" lon="4.0253">
        <ele>363</ele>
        <time>2014-04-19T11:42:44Z</time>
      </trkpt>
      <trkpt lat="47.37143" lon="4.02541">
        <ele>363</ele>
        <time>2014-04-19T11:42:52Z</time>
      </trkpt>
      <trkpt lat="47.37147" lon="4.02547">
        <ele>362</ele>
        <time>2014-04-19T11:42:56Z</time>
      </trkpt>
      <trkpt lat="47.3715" lon="4.02552">
        <ele>362</ele>
        <time>2014-04-19T11:43:00Z</time>
      </trkpt>
      <trkpt lat="47.37153" lon="4.02558">
        <ele>362</ele>
        <time>2014-04-19T11:43:04Z</time>
      </trkpt>
      <trkpt lat="47.37164" lon="4.02574">
        <ele>360</ele>
        <time>2014-04-19T11:43:15Z</time>
      </trkpt>
      <trkpt lat="47.37168" lon="4.02579">
        <ele>360</ele>
        <time>2014-04-19T11:43:19Z</time>
      </trkpt>
      <trkpt lat="47.37184" lon="4.02594">
        <ele>359</ele>
        <time>2014-04-19T11:43:36Z</time>
      </trkpt>
      <trkpt lat="47.37188" lon="4.02598">
        <ele>359</ele>
        <time>2014-04-19T11:43:47Z</time>
      </trkpt>
      <trkpt lat="47.37191" lon="4.02605">
        <ele>359</ele>
        <time>2014-04-19T11:43:52Z</time>
      </trkpt>
      <trkpt lat="47.37223" lon="4.0265">
        <ele>359</ele>
        <time>2014-04-19T11:44:25Z</time>
      </trkpt>
      <trkpt lat="47.37225" lon="4.02656">
        <ele>360</ele>
        <time>2014-04-19T11:44:29Z</time>
      </trkpt>
      <trkpt lat="47.37228" lon="4.02662">
        <ele>360</ele>
        <time>2014-04-19T11:44:34Z</time>
      </trkpt>
      <trkpt lat="47.37226" lon="4.02671">
        <ele>361</ele>
        <time>2014-04-19T11:44:40Z</time>
      </trkpt>
      <trkpt lat="47.37226" lon="4.02678">
        <ele>361</ele>
        <time>2014-04-19T11:44:45Z</time>
      </trkpt>
      <trkpt lat="47.37227" lon="4.02685">
        <ele>361</ele>
        <time>2014-04-19T11:44:50Z</time>
      </trkpt>
      <trkpt lat="47.37232" lon="4.02692">
        <ele>361</ele>
        <time>2014-04-19T11:44:54Z</time>
      </trkpt>
      <trkpt lat="47.37236" lon="4.02693">
        <ele>361</ele>
        <time>2014-04-19T11:44:56Z</time>
      </trkpt>
      <trkpt lat="47.37242" lon="4.02694">
        <ele>361</ele>
        <time>2014-04-19T11:44:59Z</time>
      </trkpt>
      <trkpt lat="47.37247" lon="4.02696">
        <ele>361</ele>
        <time>2014-04-19T11:45:03Z</time>
      </trkpt>
      <trkpt lat="47.37255" lon="4.02705">
        <ele>361</ele>
        <time>2014-04-19T11:45:13Z</time>
      </trkpt>
      <trkpt lat="47.3726" lon="4.02708">
        <ele>361</ele>
        <time>2014-04-19T11:45:18Z</time>
      </trkpt>
      <trkpt lat="47.37264" lon="4.02709">
        <ele>361</ele>
        <time>2014-04-19T11:45:23Z</time>
      </trkpt>
      <trkpt lat="47.37275" lon="4.0271">
        <ele>361</ele>
        <time>2014-04-19T11:45:30Z</time>
      </trkpt>
      <trkpt lat="47.37286" lon="4.02711">
        <ele>361</ele>
        <time>2014-04-19T11:45:35Z</time>
      </trkpt>
      <trkpt lat="47.37291" lon="4.02713">
        <ele>361</ele>
        <time>2014-04-19T11:45:38Z</time>
      </trkpt>
      <trkpt lat="47.37311" lon="4.02711">
        <ele>361</ele>
        <time>2014-04-19T11:45:50Z</time>
      </trkpt>
      <trkpt lat="47.37321" lon="4.02711">
        <ele>361</ele>
        <time>2014-04-19T11:46:00Z</time>
      </trkpt>
      <trkpt lat="47.37332" lon="4.02707">
        <ele>361</ele>
        <time>2014-04-19T11:46:09Z</time>
      </trkpt>
      <trkpt lat="47.37342" lon="4.02707">
        <ele>360</ele>
        <time>2014-04-19T11:46:15Z</time>
      </trkpt>
      <trkpt lat="47.37346" lon="4.02707">
        <ele>360</ele>
        <time>2014-04-19T11:46:17Z</time>
      </trkpt>
      <trkpt lat="47.37351" lon="4.02705">
        <ele>360</ele>
        <time>2014-04-19T11:46:20Z</time>
      </trkpt>
      <trkpt lat="47.37356" lon="4.02703">
        <ele>360</ele>
        <time>2014-04-19T11:46:24Z</time>
      </trkpt>
      <trkpt lat="47.37361" lon="4.02701">
        <ele>360</ele>
        <time>2014-04-19T11:46:27Z</time>
      </trkpt>
      <trkpt lat="47.37366" lon="4.02701">
        <ele>360</ele>
        <time>2014-04-19T11:46:30Z</time>
      </trkpt>
      <trkpt lat="47.37369" lon="4.02699">
        <ele>360</ele>
        <time>2014-04-19T11:46:39Z</time>
      </trkpt>
      <trkpt lat="47.37371" lon="4.02708">
        <ele>360</ele>
        <time>2014-04-19T11:46:48Z</time>
      </trkpt>
      <trkpt lat="47.37385" lon="4.02697">
        <ele>360</ele>
        <time>2014-04-19T11:47:02Z</time>
      </trkpt>
      <trkpt lat="47.3739" lon="4.02695">
        <ele>360</ele>
        <time>2014-04-19T11:47:07Z</time>
      </trkpt>
      <trkpt lat="47.37406" lon="4.02697">
        <ele>360</ele>
        <time>2014-04-19T11:47:16Z</time>
      </trkpt>
      <trkpt lat="47.37411" lon="4.02695">
        <ele>360</ele>
        <time>2014-04-19T11:47:20Z</time>
      </trkpt>
      <trkpt lat="47.37416" lon="4.02694">
        <ele>360</ele>
        <time>2014-04-19T11:47:23Z</time>
      </trkpt>
      <trkpt lat="47.37422" lon="4.02695">
        <ele>360</ele>
        <time>2014-04-19T11:47:27Z</time>
      </trkpt>
      <trkpt lat="47.37426" lon="4.02701">
        <ele>360</ele>
        <time>2014-04-19T11:47:31Z</time>
      </trkpt>
      <trkpt lat="47.37431" lon="4.02704">
        <ele>360</ele>
        <time>2014-04-19T11:47:34Z</time>
      </trkpt>
      <trkpt lat="47.37436" lon="4.02706">
        <ele>360</ele>
        <time>2014-04-19T11:47:38Z</time>
      </trkpt>
      <trkpt lat="47.3744" lon="4.02712">
        <ele>360</ele>
        <time>2014-04-19T11:47:43Z</time>
      </trkpt>
      <trkpt lat="47.37444" lon="4.02716">
        <ele>360</ele>
        <time>2014-04-19T11:47:46Z</time>
      </trkpt>
      <trkpt lat="47.37449" lon="4.02719">
        <ele>360</ele>
        <time>2014-04-19T11:47:49Z</time>
      </trkpt>
      <trkpt lat="47.37454" lon="4.02723">
        <ele>360</ele>
        <time>2014-04-19T11:47:57Z</time>
      </trkpt>
      <trkpt lat="47.37459" lon="4.0273">
        <ele>360</ele>
        <time>2014-04-19T11:48:04Z</time>
      </trkpt>
      <trkpt lat="47.37469" lon="4.02737">
        <ele>360</ele>
        <time>2014-04-19T11:48:09Z</time>
      </trkpt>
      <trkpt lat="47.37477" lon="4.02746">
        <ele>360</ele>
        <time>2014-04-19T11:48:16Z</time>
      </trkpt>
      <trkpt lat="47.37483" lon="4.02748">
        <ele>360</ele>
        <time>2014-04-19T11:48:19Z</time>
      </trkpt>
      <trkpt lat="47.37485" lon="4.02751">
        <ele>362</ele>
        <time>2014-04-19T11:48:25Z</time>
      </trkpt>
      <trkpt lat="47.37493" lon="4.02762">
        <ele>362</ele>
        <time>2014-04-19T11:48:35Z</time>
      </trkpt>
      <trkpt lat="47.37498" lon="4.02764">
        <ele>362</ele>
        <time>2014-04-19T11:48:38Z</time>
      </trkpt>
      <trkpt lat="47.37508" lon="4.02767">
        <ele>361</ele>
        <time>2014-04-19T11:48:44Z</time>
      </trkpt>
      <trkpt lat="47.37513" lon="4.0277">
        <ele>361</ele>
        <time>2014-04-19T11:48:47Z</time>
      </trkpt>
      <trkpt lat="47.37517" lon="4.02774">
        <ele>361</ele>
        <time>2014-04-19T11:48:50Z</time>
      </trkpt>
      <trkpt lat="47.3752" lon="4.02781">
        <ele>362</ele>
        <time>2014-04-19T11:48:54Z</time>
      </trkpt>
      <trkpt lat="47.37524" lon="4.02785">
        <ele>362</ele>
        <time>2014-04-19T11:48:58Z</time>
      </trkpt>
      <trkpt lat="47.37527" lon="4.02788">
        <ele>362</ele>
        <time>2014-04-19T11:49:13Z</time>
      </trkpt>
      <trkpt lat="47.37533" lon="4.02791">
        <ele>362</ele>
        <time>2014-04-19T11:49:17Z</time>
      </trkpt>
      <trkpt lat="47.37538" lon="4.02792">
        <ele>362</ele>
        <time>2014-04-19T11:49:20Z</time>
      </trkpt>
      <trkpt lat="47.37543" lon="4.02795">
        <ele>362</ele>
        <time>2014-04-19T11:49:23Z</time>
      </trkpt>
      <trkpt lat="47.37547" lon="4.02799">
        <ele>362</ele>
        <time>2014-04-19T11:49:27Z</time>
      </trkpt>
      <trkpt lat="47.3755" lon="4.02806">
        <ele>362</ele>
        <time>2014-04-19T11:49:31Z</time>
      </trkpt>
      <trkpt lat="47.37554" lon="4.02812">
        <ele>362</ele>
        <time>2014-04-19T11:49:35Z</time>
      </trkpt>
      <trkpt lat="47.37557" lon="4.02816">
        <ele>362</ele>
        <time>2014-04-19T11:49:38Z</time>
      </trkpt>
      <trkpt lat="47.37561" lon="4.02821">
        <ele>362</ele>
        <time>2014-04-19T11:49:42Z</time>
      </trkpt>
      <trkpt lat="47.37563" lon="4.02822">
        <ele>362</ele>
        <time>2014-04-19T11:50:11Z</time>
      </trkpt>
      <trkpt lat="47.37567" lon="4.02825">
        <ele>361</ele>
        <time>2014-04-19T11:50:17Z</time>
      </trkpt>
      <trkpt lat="47.37571" lon="4.02827">
        <ele>361</ele>
        <time>2014-04-19T11:50:27Z</time>
      </trkpt>
      <trkpt lat="47.37575" lon="4.02833">
        <ele>361</ele>
        <time>2014-04-19T11:50:34Z</time>
      </trkpt>
      <trkpt lat="47.37579" lon="4.02838">
        <ele>363</ele>
        <time>2014-04-19T11:50:39Z</time>
      </trkpt>
      <trkpt lat="47.37582" lon="4.02844">
        <ele>363</ele>
        <time>2014-04-19T11:50:43Z</time>
      </trkpt>
      <trkpt lat="47.37586" lon="4.02848">
        <ele>362</ele>
        <time>2014-04-19T11:50:47Z</time>
      </trkpt>
      <trkpt lat="47.37597" lon="4.02865">
        <ele>362</ele>
        <time>2014-04-19T11:50:58Z</time>
      </trkpt>
      <trkpt lat="47.37599" lon="4.02871">
        <ele>363</ele>
        <time>2014-04-19T11:51:02Z</time>
      </trkpt>
      <trkpt lat="47.37603" lon="4.02876">
        <ele>363</ele>
        <time>2014-04-19T11:51:06Z</time>
      </trkpt>
      <trkpt lat="47.37603" lon="4.02882">
        <ele>363</ele>
        <time>2014-04-19T11:51:15Z</time>
      </trkpt>
      <trkpt lat="47.37607" lon="4.02886">
        <ele>363</ele>
        <time>2014-04-19T11:51:20Z</time>
      </trkpt>
      <trkpt lat="47.3761" lon="4.02893">
        <ele>363</ele>
        <time>2014-04-19T11:51:24Z</time>
      </trkpt>
      <trkpt lat="47.37615" lon="4.02895">
        <ele>363</ele>
        <time>2014-04-19T11:51:27Z</time>
      </trkpt>
      <trkpt lat="47.37619" lon="4.029">
        <ele>363</ele>
        <time>2014-04-19T11:51:30Z</time>
      </trkpt>
      <trkpt lat="47.37623" lon="4.02904">
        <ele>363</ele>
        <time>2014-04-19T11:51:33Z</time>
      </trkpt>
      <trkpt lat="47.37633" lon="4.02939">
        <ele>368</ele>
        <time>2014-04-19T11:51:52Z</time>
      </trkpt>
      <trkpt lat="47.37637" lon="4.02944">
        <ele>368</ele>
        <time>2014-04-19T11:51:58Z</time>
      </trkpt>
      <trkpt lat="47.37641" lon="4.02948">
        <ele>368</ele>
        <time>2014-04-19T11:52:13Z</time>
      </trkpt>
      <trkpt lat="47.37644" lon="4.02953">
        <ele>368</ele>
        <time>2014-04-19T11:53:00Z</time>
      </trkpt>
      <trkpt lat="47.37644" lon="4.02961">
        <ele>369</ele>
        <time>2014-04-19T11:53:04Z</time>
      </trkpt>
      <trkpt lat="47.37645" lon="4.0297">
        <ele>369</ele>
        <time>2014-04-19T11:53:07Z</time>
      </trkpt>
      <trkpt lat="47.37655" lon="4.02995">
        <ele>369</ele>
        <time>2014-04-19T11:53:21Z</time>
      </trkpt>
      <trkpt lat="47.37656" lon="4.03002">
        <ele>372</ele>
        <time>2014-04-19T11:53:26Z</time>
      </trkpt>
      <trkpt lat="47.37659" lon="4.03009">
        <ele>372</ele>
        <time>2014-04-19T11:53:32Z</time>
      </trkpt>
      <trkpt lat="47.37661" lon="4.03015">
        <ele>372</ele>
        <time>2014-04-19T11:53:36Z</time>
      </trkpt>
      <trkpt lat="47.37666" lon="4.03019">
        <ele>373</ele>
        <time>2014-04-19T11:53:41Z</time>
      </trkpt>
      <trkpt lat="47.37671" lon="4.03024">
        <ele>368</ele>
        <time>2014-04-19T11:53:45Z</time>
      </trkpt>
      <trkpt lat="47.37674" lon="4.03031">
        <ele>368</ele>
        <time>2014-04-19T11:53:50Z</time>
      </trkpt>
      <trkpt lat="47.3768" lon="4.03042">
        <ele>368</ele>
        <time>2014-04-19T11:53:58Z</time>
      </trkpt>
      <trkpt lat="47.37682" lon="4.03049">
        <ele>369</ele>
        <time>2014-04-19T11:54:05Z</time>
      </trkpt>
      <trkpt lat="47.37686" lon="4.03057">
        <ele>369</ele>
        <time>2014-04-19T11:54:21Z</time>
      </trkpt>
      <trkpt lat="47.3769" lon="4.0307">
        <ele>369</ele>
        <time>2014-04-19T11:54:27Z</time>
      </trkpt>
      <trkpt lat="47.37695" lon="4.03082">
        <ele>369</ele>
        <time>2014-04-19T11:54:35Z</time>
      </trkpt>
      <trkpt lat="47.37699" lon="4.03087">
        <ele>371</ele>
        <time>2014-04-19T11:54:38Z</time>
      </trkpt>
      <trkpt lat="47.37705" lon="4.03091">
        <ele>370</ele>
        <time>2014-04-19T11:54:40Z</time>
      </trkpt>
      <trkpt lat="47.37708" lon="4.03098">
        <ele>370</ele>
        <time>2014-04-19T11:54:46Z</time>
      </trkpt>
      <trkpt lat="47.37712" lon="4.03104">
        <ele>370</ele>
        <time>2014-04-19T11:54:50Z</time>
      </trkpt>
      <trkpt lat="47.37718" lon="4.03124">
        <ele>370</ele>
        <time>2014-04-19T11:55:06Z</time>
      </trkpt>
      <trkpt lat="47.37721" lon="4.0313">
        <ele>369</ele>
        <time>2014-04-19T11:55:09Z</time>
      </trkpt>
      <trkpt lat="47.37727" lon="4.03135">
        <ele>369</ele>
        <time>2014-04-19T11:55:11Z</time>
      </trkpt>
      <trkpt lat="47.37739" lon="4.03156">
        <ele>368</ele>
        <time>2014-04-19T11:55:21Z</time>
      </trkpt>
      <trkpt lat="47.37743" lon="4.0316">
        <ele>367</ele>
        <time>2014-04-19T11:55:23Z</time>
      </trkpt>
      <trkpt lat="47.37747" lon="4.03166">
        <ele>366</ele>
        <time>2014-04-19T11:55:26Z</time>
      </trkpt>
      <trkpt lat="47.37749" lon="4.03172">
        <ele>367</ele>
        <time>2014-04-19T11:55:29Z</time>
      </trkpt>
      <trkpt lat="47.3775" lon="4.03179">
        <ele>368</ele>
        <time>2014-04-19T11:55:32Z</time>
      </trkpt>
      <trkpt lat="47.37749" lon="4.03188">
        <ele>369</ele>
        <time>2014-04-19T11:55:36Z</time>
      </trkpt>
      <trkpt lat="47.3775" lon="4.03194">
        <ele>366</ele>
        <time>2014-04-19T11:55:44Z</time>
      </trkpt>
      <trkpt lat="47.37752" lon="4.03197">
        <ele>366</ele>
        <time>2014-04-19T11:55:51Z</time>
      </trkpt>
      <trkpt lat="47.37753" lon="4.03204">
        <ele>366</ele>
        <time>2014-04-19T11:56:04Z</time>
      </trkpt>
      <trkpt lat="47.37755" lon="4.03211">
        <ele>367</ele>
        <time>2014-04-19T11:56:09Z</time>
      </trkpt>
      <trkpt lat="47.37758" lon="4.03217">
        <ele>367</ele>
        <time>2014-04-19T11:56:13Z</time>
      </trkpt>
      <trkpt lat="47.37762" lon="4.03222">
        <ele>367</ele>
        <time>2014-04-19T11:56:17Z</time>
      </trkpt>
      <trkpt lat="47.37775" lon="4.03233">
        <ele>367</ele>
        <time>2014-04-19T11:56:27Z</time>
      </trkpt>
      <trkpt lat="47.37781" lon="4.0324">
        <ele>367</ele>
        <time>2014-04-19T11:56:43Z</time>
      </trkpt>
      <trkpt lat="47.37798" lon="4.03254">
        <ele>369</ele>
        <time>2014-04-19T11:56:59Z</time>
      </trkpt>
      <trkpt lat="47.37803" lon="4.03257">
        <ele>369</ele>
        <time>2014-04-19T11:57:03Z</time>
      </trkpt>
      <trkpt lat="47.37809" lon="4.0326">
        <ele>369</ele>
        <time>2014-04-19T11:57:30Z</time>
      </trkpt>
      <trkpt lat="47.37813" lon="4.03263">
        <ele>369</ele>
        <time>2014-04-19T11:57:34Z</time>
      </trkpt>
      <trkpt lat="47.37822" lon="4.03268">
        <ele>369</ele>
        <time>2014-04-19T11:57:42Z</time>
      </trkpt>
      <trkpt lat="47.37827" lon="4.03271">
        <ele>369</ele>
        <time>2014-04-19T11:57:46Z</time>
      </trkpt>
      <trkpt lat="47.37832" lon="4.03272">
        <ele>369</ele>
        <time>2014-04-19T11:57:50Z</time>
      </trkpt>
      <trkpt lat="47.3785" lon="4.03274">
        <ele>369</ele>
        <time>2014-04-19T11:58:10Z</time>
      </trkpt>
      <trkpt lat="47.37854" lon="4.03275">
        <ele>370</ele>
        <time>2014-04-19T11:58:14Z</time>
      </trkpt>
      <trkpt lat="47.3786" lon="4.03276">
        <ele>370</ele>
        <time>2014-04-19T11:58:19Z</time>
      </trkpt>
      <trkpt lat="47.37865" lon="4.03275">
        <ele>370</ele>
        <time>2014-04-19T11:58:23Z</time>
      </trkpt>
      <trkpt lat="47.37869" lon="4.03269">
        <ele>370</ele>
        <time>2014-04-19T11:58:44Z</time>
      </trkpt>
      <trkpt lat="47.37872" lon="4.03276">
        <ele>370</ele>
        <time>2014-04-19T11:58:48Z</time>
      </trkpt>
      <trkpt lat="47.37876" lon="4.03281">
        <ele>370</ele>
        <time>2014-04-19T11:58:53Z</time>
      </trkpt>
      <trkpt lat="47.37886" lon="4.0328">
        <ele>370</ele>
        <time>2014-04-19T11:59:05Z</time>
      </trkpt>
      <trkpt lat="47.37886" lon="4.03273">
        <ele>370</ele>
        <time>2014-04-19T11:59:12Z</time>
      </trkpt>
      <trkpt lat="47.37884" lon="4.03267">
        <ele>370</ele>
        <time>2014-04-19T11:59:17Z</time>
      </trkpt>
      <trkpt lat="47.37889" lon="4.03263">
        <ele>370</ele>
        <time>2014-04-19T11:59:24Z</time>
      </trkpt>
      <trkpt lat="47.37899" lon="4.03261">
        <ele>370</ele>
        <time>2014-04-19T11:59:33Z</time>
      </trkpt>
      <trkpt lat="47.379" lon="4.03256">
        <ele>370</ele>
        <time>2014-04-19T11:59:41Z</time>
      </trkpt>
      <trkpt lat="47.37906" lon="4.03256">
        <ele>370</ele>
        <time>2014-04-19T11:59:47Z</time>
      </trkpt>
      <trkpt lat="47.3791" lon="4.03258">
        <ele>370</ele>
        <time>2014-04-19T11:59:51Z</time>
      </trkpt>
      <trkpt lat="47.3792" lon="4.03263">
        <ele>372</ele>
        <time>2014-04-19T11:59:57Z</time>
      </trkpt>
      <trkpt lat="47.37925" lon="4.03267">
        <ele>372</ele>
        <time>2014-04-19T12:00:01Z</time>
      </trkpt>
      <trkpt lat="47.3793" lon="4.03269">
        <ele>373</ele>
        <time>2014-04-19T12:00:05Z</time>
      </trkpt>
      <trkpt lat="47.37935" lon="4.03272">
        <ele>373</ele>
        <time>2014-04-19T12:00:15Z</time>
      </trkpt>
      <trkpt lat="47.37941" lon="4.03274">
        <ele>374</ele>
        <time>2014-04-19T12:00:19Z</time>
      </trkpt>
      <trkpt lat="47.37946" lon="4.03277">
        <ele>374</ele>
        <time>2014-04-19T12:00:23Z</time>
      </trkpt>
      <trkpt lat="47.37951" lon="4.0328">
        <ele>374</ele>
        <time>2014-04-19T12:00:27Z</time>
      </trkpt>
      <trkpt lat="47.37971" lon="4.0329">
        <ele>375</ele>
        <time>2014-04-19T12:00:43Z</time>
      </trkpt>
      <trkpt lat="47.37976" lon="4.03291">
        <ele>375</ele>
        <time>2014-04-19T12:00:47Z</time>
      </trkpt>
      <trkpt lat="47.37981" lon="4.03292">
        <ele>375</ele>
        <time>2014-04-19T12:00:52Z</time>
      </trkpt>
      <trkpt lat="47.37986" lon="4.03293">
        <ele>376</ele>
        <time>2014-04-19T12:00:56Z</time>
      </trkpt>
      <trkpt lat="47.37991" lon="4.03295">
        <ele>376</ele>
        <time>2014-04-19T12:01:00Z</time>
      </trkpt>
      <trkpt lat="47.37996" lon="4.03297">
        <ele>376</ele>
        <time>2014-04-19T12:01:04Z</time>
      </trkpt>
      <trkpt lat="47.38002" lon="4.03299">
        <ele>381</ele>
        <time>2014-04-19T12:01:14Z</time>
      </trkpt>
      <trkpt lat="47.38008" lon="4.03301">
        <ele>381</ele>
        <time>2014-04-19T12:01:31Z</time>
      </trkpt>
      <trkpt lat="47.38012" lon="4.03303">
        <ele>381</ele>
        <time>2014-04-19T12:01:36Z</time>
      </trkpt>
      <trkpt lat="47.38022" lon="4.03306">
        <ele>381</ele>
        <time>2014-04-19T12:01:46Z</time>
      </trkpt>
      <trkpt lat="47.3803" lon="4.03308">
        <ele>382</ele>
        <time>2014-04-19T12:01:53Z</time>
      </trkpt>
      <trkpt lat="47.38034" lon="4.03311">
        <ele>382</ele>
        <time>2014-04-19T12:01:56Z</time>
      </trkpt>
      <trkpt lat="47.38038" lon="4.03315">
        <ele>382</ele>
        <time>2014-04-19T12:02:00Z</time>
      </trkpt>
      <trkpt lat="47.38051" lon="4.03323">
        <ele>383</ele>
        <time>2014-04-19T12:02:22Z</time>
      </trkpt>
      <trkpt lat="47.38055" lon="4.03328">
        <ele>383</ele>
        <time>2014-04-19T12:02:27Z</time>
      </trkpt>
      <trkpt lat="47.38058" lon="4.03334">
        <ele>384</ele>
        <time>2014-04-19T12:02:44Z</time>
      </trkpt>
      <trkpt lat="47.38066" lon="4.03345">
        <ele>385</ele>
        <time>2014-04-19T12:02:52Z</time>
      </trkpt>
      <trkpt lat="47.38072" lon="4.03357">
        <ele>385</ele>
        <time>2014-04-19T12:03:01Z</time>
      </trkpt>
      <trkpt lat="47.38074" lon="4.03366">
        <ele>385</ele>
        <time>2014-04-19T12:03:28Z</time>
      </trkpt>
      <trkpt lat="47.38079" lon="4.03371">
        <ele>385</ele>
        <time>2014-04-19T12:03:32Z</time>
      </trkpt>
      <trkpt lat="47.38083" lon="4.03377">
        <ele>385</ele>
        <time>2014-04-19T12:03:35Z</time>
      </trkpt>
      <trkpt lat="47.38092" lon="4.03384">
        <ele>392</ele>
        <time>2014-04-19T12:03:42Z</time>
      </trkpt>
      <trkpt lat="47.38102" lon="4.03402">
        <ele>392</ele>
        <time>2014-04-19T12:03:55Z</time>
      </trkpt>
      <trkpt lat="47.38106" lon="4.03406">
        <ele>392</ele>
        <time>2014-04-19T12:03:59Z</time>
      </trkpt>
      <trkpt lat="47.38108" lon="4.03412">
        <ele>393</ele>
        <time>2014-04-19T12:04:04Z</time>
      </trkpt>
      <trkpt lat="47.38113" lon="4.03419">
        <ele>394</ele>
        <time>2014-04-19T12:04:13Z</time>
      </trkpt>
      <trkpt lat="47.38117" lon="4.03425">
        <ele>394</ele>
        <time>2014-04-19T12:04:17Z</time>
      </trkpt>
      <trkpt lat="47.3812" lon="4.03432">
        <ele>395</ele>
        <time>2014-04-19T12:04:21Z</time>
      </trkpt>
      <trkpt lat="47.38127" lon="4.0344">
        <ele>395</ele>
        <time>2014-04-19T12:04:35Z</time>
      </trkpt>
      <trkpt lat="47.38127" lon="4.03444">
        <ele>395</ele>
        <time>2014-04-19T12:04:48Z</time>
      </trkpt>
      <trkpt lat="47.38131" lon="4.03449">
        <ele>396</ele>
        <time>2014-04-19T12:04:53Z</time>
      </trkpt>
      <trkpt lat="47.38137" lon="4.03462">
        <ele>396</ele>
        <time>2014-04-19T12:05:03Z</time>
      </trkpt>
      <trkpt lat="47.38145" lon="4.03488">
        <ele>397</ele>
        <time>2014-04-19T12:05:24Z</time>
      </trkpt>
      <trkpt lat="47.38149" lon="4.03493">
        <ele>398</ele>
        <time>2014-04-19T12:05:38Z</time>
      </trkpt>
      <trkpt lat="47.3817" lon="4.03522">
        <ele>404</ele>
        <time>2014-04-19T12:05:59Z</time>
      </trkpt>
      <trkpt lat="47.38173" lon="4.03524">
        <ele>404</ele>
        <time>2014-04-19T12:06:07Z</time>
      </trkpt>
      <trkpt lat="47.38175" lon="4.03531">
        <ele>405</ele>
        <time>2014-04-19T12:06:14Z</time>
      </trkpt>
      <trkpt lat="47.38183" lon="4.0354">
        <ele>405</ele>
        <time>2014-04-19T12:06:22Z</time>
      </trkpt>
      <trkpt lat="47.38187" lon="4.03546">
        <ele>405</ele>
        <time>2014-04-19T12:06:26Z</time>
      </trkpt>
      <trkpt lat="47.38199" lon="4.03558">
        <ele>406</ele>
        <time>2014-04-19T12:06:36Z</time>
      </trkpt>
      <trkpt lat="47.38208" lon="4.03568">
        <ele>407</ele>
        <time>2014-04-19T12:06:45Z</time>
      </trkpt>
      <trkpt lat="47.38213" lon="4.03579">
        <ele>408</ele>
        <time>2014-04-19T12:06:53Z</time>
      </trkpt>
      <trkpt lat="47.38217" lon="4.03583">
        <ele>408</ele>
        <time>2014-04-19T12:06:57Z</time>
      </trkpt>
      <trkpt lat="47.3822" lon="4.03582">
        <ele>408</ele>
        <time>2014-04-19T12:07:09Z</time>
      </trkpt>
      <trkpt lat="47.38225" lon="4.03585">
        <ele>409</ele>
        <time>2014-04-19T12:07:13Z</time>
      </trkpt>
      <trkpt lat="47.38228" lon="4.03588">
        <ele>409</ele>
        <time>2014-04-19T12:07:23Z</time>
      </trkpt>
      <trkpt lat="47.38231" lon="4.03587">
        <ele>410</ele>
        <time>2014-04-19T12:07:35Z</time>
      </trkpt>
      <trkpt lat="47.38235" lon="4.03592">
        <ele>410</ele>
        <time>2014-04-19T12:07:40Z</time>
      </trkpt>
      <trkpt lat="47.38239" lon="4.03596">
        <ele>410</ele>
        <time>2014-04-19T12:07:44Z</time>
      </trkpt>
      <trkpt lat="47.38249" lon="4.036">
        <ele>410</ele>
        <time>2014-04-19T12:07:55Z</time>
      </trkpt>
      <trkpt lat="47.38253" lon="4.03605">
        <ele>416</ele>
        <time>2014-04-19T12:08:00Z</time>
      </trkpt>
      <trkpt lat="47.38273" lon="4.03619">
        <ele>417</ele>
        <time>2014-04-19T12:08:31Z</time>
      </trkpt>
      <trkpt lat="47.38278" lon="4.03623">
        <ele>417</ele>
        <time>2014-04-19T12:08:37Z</time>
      </trkpt>
      <trkpt lat="47.38295" lon="4.03635">
        <ele>418</ele>
        <time>2014-04-19T12:09:07Z</time>
      </trkpt>
      <trkpt lat="47.38317" lon="4.03656">
        <ele>420</ele>
        <time>2014-04-19T12:09:31Z</time>
      </trkpt>
      <trkpt lat="47.38323" lon="4.0366">
        <ele>421</ele>
        <time>2014-04-19T12:09:35Z</time>
      </trkpt>
      <trkpt lat="47.38331" lon="4.03669">
        <ele>422</ele>
        <time>2014-04-19T12:09:44Z</time>
      </trkpt>
      <trkpt lat="47.38349" lon="4.03695">
        <ele>427</ele>
        <time>2014-04-19T12:10:07Z</time>
      </trkpt>
      <trkpt lat="47.38353" lon="4.037">
        <ele>427</ele>
        <time>2014-04-19T12:10:11Z</time>
      </trkpt>
      <trkpt lat="47.38359" lon="4.03715">
        <ele>427</ele>
        <time>2014-04-19T12:10:19Z</time>
      </trkpt>
      <trkpt lat="47.38363" lon="4.03721">
        <ele>428</ele>
        <time>2014-04-19T12:10:24Z</time>
      </trkpt>
      <trkpt lat="47.38364" lon="4.03725">
        <ele>428</ele>
        <time>2014-04-19T12:10:31Z</time>
      </trkpt>
      <trkpt lat="47.38365" lon="4.03728">
        <ele>428</ele>
        <time>2014-04-19T12:10:37Z</time>
      </trkpt>
      <trkpt lat="47.38367" lon="4.03734">
        <ele>428</ele>
        <time>2014-04-19T12:10:41Z</time>
      </trkpt>
      <trkpt lat="47.3837" lon="4.03741">
        <ele>428</ele>
        <time>2014-04-19T12:10:46Z</time>
      </trkpt>
      <trkpt lat="47.38374" lon="4.03746">
        <ele>428</ele>
        <time>2014-04-19T12:10:50Z</time>
      </trkpt>
      <trkpt lat="47.38377" lon="4.03751">
        <ele>428</ele>
        <time>2014-04-19T12:10:54Z</time>
      </trkpt>
      <trkpt lat="47.38385" lon="4.03771">
        <ele>429</ele>
        <time>2014-04-19T12:11:06Z</time>
      </trkpt>
      <trkpt lat="47.38387" lon="4.03777">
        <ele>429</ele>
        <time>2014-04-19T12:11:12Z</time>
      </trkpt>
      <trkpt lat="47.38389" lon="4.03777">
        <ele>429</ele>
        <time>2014-04-19T12:11:18Z</time>
      </trkpt>
      <trkpt lat="47.38402" lon="4.03809">
        <ele>430</ele>
        <time>2014-04-19T12:11:37Z</time>
      </trkpt>
      <trkpt lat="47.38403" lon="4.03816">
        <ele>430</ele>
        <time>2014-04-19T12:11:41Z</time>
      </trkpt>
      <trkpt lat="47.38404" lon="4.03823">
        <ele>431</ele>
        <time>2014-04-19T12:11:45Z</time>
      </trkpt>
      <trkpt lat="47.38413" lon="4.03835">
        <ele>432</ele>
        <time>2014-04-19T12:11:52Z</time>
      </trkpt>
      <trkpt lat="47.38415" lon="4.03842">
        <ele>431</ele>
        <time>2014-04-19T12:11:56Z</time>
      </trkpt>
      <trkpt lat="47.38414" lon="4.0385">
        <ele>431</ele>
        <time>2014-04-19T12:12:00Z</time>
      </trkpt>
      <trkpt lat="47.38415" lon="4.03857">
        <ele>430</ele>
        <time>2014-04-19T12:12:05Z</time>
      </trkpt>
      <trkpt lat="47.38418" lon="4.03863">
        <ele>436</ele>
        <time>2014-04-19T12:12:09Z</time>
      </trkpt>
      <trkpt lat="47.3842" lon="4.0387">
        <ele>436</ele>
        <time>2014-04-19T12:12:13Z</time>
      </trkpt>
      <trkpt lat="47.38422" lon="4.03876">
        <ele>436</ele>
        <time>2014-04-19T12:12:17Z</time>
      </trkpt>
      <trkpt lat="47.38426" lon="4.03882">
        <ele>436</ele>
        <time>2014-04-19T12:12:22Z</time>
      </trkpt>
      <trkpt lat="47.38431" lon="4.03896">
        <ele>436</ele>
        <time>2014-04-19T12:12:32Z</time>
      </trkpt>
      <trkpt lat="47.38436" lon="4.039">
        <ele>436</ele>
        <time>2014-04-19T12:12:36Z</time>
      </trkpt>
      <trkpt lat="47.38439" lon="4.03908">
        <ele>436</ele>
        <time>2014-04-19T12:12:40Z</time>
      </trkpt>
      <trkpt lat="47.3844" lon="4.03915">
        <ele>436</ele>
        <time>2014-04-19T12:12:44Z</time>
      </trkpt>
      <trkpt lat="47.38438" lon="4.03945">
        <ele>436</ele>
        <time>2014-04-19T12:12:57Z</time>
      </trkpt>
      <trkpt lat="47.38439" lon="4.03952">
        <ele>436</ele>
        <time>2014-04-19T12:13:01Z</time>
      </trkpt>
      <trkpt lat="47.3844" lon="4.03959">
        <ele>436</ele>
        <time>2014-04-19T12:13:05Z</time>
      </trkpt>
      <trkpt lat="47.38439" lon="4.03974">
        <ele>436</ele>
        <time>2014-04-19T12:13:14Z</time>
      </trkpt>
      <trkpt lat="47.3844" lon="4.03982">
        <ele>436</ele>
        <time>2014-04-19T12:13:19Z</time>
      </trkpt>
      <trkpt lat="47.38439" lon="4.0399">
        <ele>436</ele>
        <time>2014-04-19T12:13:24Z</time>
      </trkpt>
      <trkpt lat="47.38438" lon="4.03996">
        <ele>435</ele>
        <time>2014-04-19T12:13:30Z</time>
      </trkpt>
      <trkpt lat="47.38441" lon="4.0401">
        <ele>436</ele>
        <time>2014-04-19T12:13:46Z</time>
      </trkpt>
      <trkpt lat="47.38442" lon="4.04018">
        <ele>436</ele>
        <time>2014-04-19T12:13:52Z</time>
      </trkpt>
      <trkpt lat="47.38444" lon="4.04025">
        <ele>436</ele>
        <time>2014-04-19T12:13:58Z</time>
      </trkpt>
      <trkpt lat="47.38446" lon="4.04033">
        <ele>437</ele>
        <time>2014-04-19T12:14:04Z</time>
      </trkpt>
      <trkpt lat="47.38446" lon="4.04041">
        <ele>437</ele>
        <time>2014-04-19T12:14:09Z</time>
      </trkpt>
      <trkpt lat="47.3845" lon="4.04047">
        <ele>437</ele>
        <time>2014-04-19T12:14:13Z</time>
      </trkpt>
      <trkpt lat="47.38451" lon="4.04054">
        <ele>437</ele>
        <time>2014-04-19T12:14:17Z</time>
      </trkpt>
      <trkpt lat="47.3845" lon="4.0407">
        <ele>437</ele>
        <time>2014-04-19T12:14:27Z</time>
      </trkpt>
      <trkpt lat="47.38448" lon="4.04077">
        <ele>437</ele>
        <time>2014-04-19T12:14:31Z</time>
      </trkpt>
      <trkpt lat="47.38444" lon="4.04081">
        <ele>436</ele>
        <time>2014-04-19T12:14:35Z</time>
      </trkpt>
      <trkpt lat="47.38434" lon="4.04082">
        <ele>436</ele>
        <time>2014-04-19T12:14:43Z</time>
      </trkpt>
      <trkpt lat="47.3843" lon="4.04081">
        <ele>435</ele>
        <time>2014-04-19T12:14:50Z</time>
      </trkpt>
      <trkpt lat="47.38432" lon="4.04084">
        <ele>436</ele>
        <time>2014-04-19T12:15:48Z</time>
      </trkpt>
      <trkpt lat="47.38436" lon="4.04082">
        <ele>436</ele>
        <time>2014-04-19T12:15:51Z</time>
      </trkpt>
      <trkpt lat="47.38441" lon="4.04077">
        <ele>436</ele>
        <time>2014-04-19T12:15:54Z</time>
      </trkpt>
      <trkpt lat="47.38447" lon="4.04076">
        <ele>437</ele>
        <time>2014-04-19T12:15:58Z</time>
      </trkpt>
      <trkpt lat="47.38452" lon="4.04076">
        <ele>437</ele>
        <time>2014-04-19T12:16:02Z</time>
      </trkpt>
      <trkpt lat="47.38461" lon="4.0408">
        <ele>438</ele>
        <time>2014-04-19T12:16:10Z</time>
      </trkpt>
      <trkpt lat="47.38466" lon="4.04086">
        <ele>438</ele>
        <time>2014-04-19T12:16:14Z</time>
      </trkpt>
      <trkpt lat="47.38471" lon="4.04089">
        <ele>438</ele>
        <time>2014-04-19T12:16:18Z</time>
      </trkpt>
      <trkpt lat="47.38475" lon="4.0409">
        <ele>439</ele>
        <time>2014-04-19T12:16:22Z</time>
      </trkpt>
      <trkpt lat="47.3848" lon="4.04092">
        <ele>439</ele>
        <time>2014-04-19T12:16:26Z</time>
      </trkpt>
      <trkpt lat="47.38485" lon="4.04093">
        <ele>439</ele>
        <time>2014-04-19T12:16:31Z</time>
      </trkpt>
      <trkpt lat="47.3849" lon="4.04096">
        <ele>439</ele>
        <time>2014-04-19T12:16:35Z</time>
      </trkpt>
      <trkpt lat="47.38495" lon="4.04097">
        <ele>440</ele>
        <time>2014-04-19T12:16:39Z</time>
      </trkpt>
      <trkpt lat="47.385" lon="4.04094">
        <ele>442</ele>
        <time>2014-04-19T12:16:43Z</time>
      </trkpt>
      <trkpt lat="47.38505" lon="4.04097">
        <ele>442</ele>
        <time>2014-04-19T12:16:48Z</time>
      </trkpt>
      <trkpt lat="47.38509" lon="4.04101">
        <ele>443</ele>
        <time>2014-04-19T12:16:52Z</time>
      </trkpt>
      <trkpt lat="47.38514" lon="4.04103">
        <ele>443</ele>
        <time>2014-04-19T12:16:56Z</time>
      </trkpt>
      <trkpt lat="47.38518" lon="4.04106">
        <ele>443</ele>
        <time>2014-04-19T12:17:00Z</time>
      </trkpt>
      <trkpt lat="47.38523" lon="4.04103">
        <ele>443</ele>
        <time>2014-04-19T12:17:05Z</time>
      </trkpt>
      <trkpt lat="47.38538" lon="4.04114">
        <ele>444</ele>
        <time>2014-04-19T12:17:17Z</time>
      </trkpt>
      <trkpt lat="47.38542" lon="4.04118">
        <ele>444</ele>
        <time>2014-04-19T12:17:21Z</time>
      </trkpt>
      <trkpt lat="47.38547" lon="4.04121">
        <ele>444</ele>
        <time>2014-04-19T12:17:26Z</time>
      </trkpt>
      <trkpt lat="47.38555" lon="4.04127">
        <ele>445</ele>
        <time>2014-04-19T12:17:33Z</time>
      </trkpt>
      <trkpt lat="47.38565" lon="4.04131">
        <ele>445</ele>
        <time>2014-04-19T12:17:40Z</time>
      </trkpt>
      <trkpt lat="47.38568" lon="4.04133">
        <ele>445</ele>
        <time>2014-04-19T12:17:47Z</time>
      </trkpt>
      <trkpt lat="47.38571" lon="4.04141">
        <ele>445</ele>
        <time>2014-04-19T12:17:59Z</time>
      </trkpt>
      <trkpt lat="47.38576" lon="4.04145">
        <ele>445</ele>
        <time>2014-04-19T12:18:03Z</time>
      </trkpt>
      <trkpt lat="47.38582" lon="4.0415">
        <ele>445</ele>
        <time>2014-04-19T12:18:06Z</time>
      </trkpt>
      <trkpt lat="47.38585" lon="4.04154">
        <ele>446</ele>
        <time>2014-04-19T12:18:09Z</time>
      </trkpt>
      <trkpt lat="47.38591" lon="4.04156">
        <ele>446</ele>
        <time>2014-04-19T12:18:15Z</time>
      </trkpt>
      <trkpt lat="47.38596" lon="4.04156">
        <ele>446</ele>
        <time>2014-04-19T12:18:18Z</time>
      </trkpt>
      <trkpt lat="47.38601" lon="4.04159">
        <ele>446</ele>
        <time>2014-04-19T12:18:22Z</time>
      </trkpt>
      <trkpt lat="47.38607" lon="4.04159">
        <ele>446</ele>
        <time>2014-04-19T12:18:29Z</time>
      </trkpt>
      <trkpt lat="47.38612" lon="4.04159">
        <ele>447</ele>
        <time>2014-04-19T12:18:34Z</time>
      </trkpt>
      <trkpt lat="47.38617" lon="4.04161">
        <ele>447</ele>
        <time>2014-04-19T12:18:41Z</time>
      </trkpt>
      <trkpt lat="47.38621" lon="4.04161">
        <ele>446</ele>
        <time>2014-04-19T12:18:46Z</time>
      </trkpt>
      <trkpt lat="47.38626" lon="4.0416">
        <ele>446</ele>
        <time>2014-04-19T12:18:51Z</time>
      </trkpt>
      <trkpt lat="47.38636" lon="4.04161">
        <ele>446</ele>
        <time>2014-04-19T12:19:01Z</time>
      </trkpt>
      <trkpt lat="47.38651" lon="4.04155">
        <ele>446</ele>
        <time>2014-04-19T12:19:11Z</time>
      </trkpt>
      <trkpt lat="47.38656" lon="4.04153">
        <ele>446</ele>
        <time>2014-04-19T12:19:14Z</time>
      </trkpt>
      <trkpt lat="47.38661" lon="4.04155">
        <ele>446</ele>
        <time>2014-04-19T12:19:17Z</time>
      </trkpt>
      <trkpt lat="47.38665" lon="4.04155">
        <ele>446</ele>
        <time>2014-04-19T12:19:20Z</time>
      </trkpt>
      <trkpt lat="47.38677" lon="4.04153">
        <ele>445</ele>
        <time>2014-04-19T12:19:26Z</time>
      </trkpt>
      <trkpt lat="47.38682" lon="4.04153">
        <ele>445</ele>
        <time>2014-04-19T12:19:31Z</time>
      </trkpt>
      <trkpt lat="47.38691" lon="4.0415">
        <ele>445</ele>
        <time>2014-04-19T12:19:42Z</time>
      </trkpt>
      <trkpt lat="47.38696" lon="4.04146">
        <ele>445</ele>
        <time>2014-04-19T12:19:46Z</time>
      </trkpt>
      <trkpt lat="47.38699" lon="4.04141">
        <ele>445</ele>
        <time>2014-04-19T12:19:49Z</time>
      </trkpt>
      <trkpt lat="47.38708" lon="4.04132">
        <ele>445</ele>
        <time>2014-04-19T12:19:56Z</time>
      </trkpt>
      <trkpt lat="47.38712" lon="4.04127">
        <ele>445</ele>
        <time>2014-04-19T12:20:00Z</time>
      </trkpt>
      <trkpt lat="47.38715" lon="4.04127">
        <ele>445</ele>
        <time>2014-04-19T12:20:08Z</time>
      </trkpt>
      <trkpt lat="47.38717" lon="4.0412">
        <ele>445</ele>
        <time>2014-04-19T12:20:20Z</time>
      </trkpt>
      <trkpt lat="47.38727" lon="4.04111">
        <ele>445</ele>
        <time>2014-04-19T12:20:36Z</time>
      </trkpt>
      <trkpt lat="47.38732" lon="4.04108">
        <ele>445</ele>
        <time>2014-04-19T12:20:40Z</time>
      </trkpt>
      <trkpt lat="47.38737" lon="4.04108">
        <ele>445</ele>
        <time>2014-04-19T12:20:46Z</time>
      </trkpt>
      <trkpt lat="47.38747" lon="4.04105">
        <ele>445</ele>
        <time>2014-04-19T12:20:54Z</time>
      </trkpt>
      <trkpt lat="47.38751" lon="4.04102">
        <ele>442</ele>
        <time>2014-04-19T12:20:58Z</time>
      </trkpt>
      <trkpt lat="47.38756" lon="4.04101">
        <ele>442</ele>
        <time>2014-04-19T12:21:05Z</time>
      </trkpt>
      <trkpt lat="47.38761" lon="4.04102">
        <ele>442</ele>
        <time>2014-04-19T12:21:10Z</time>
      </trkpt>
      <trkpt lat="47.38765" lon="4.04096">
        <ele>442</ele>
        <time>2014-04-19T12:21:15Z</time>
      </trkpt>
      <trkpt lat="47.38771" lon="4.04094">
        <ele>442</ele>
        <time>2014-04-19T12:21:20Z</time>
      </trkpt>
      <trkpt lat="47.38775" lon="4.04094">
        <ele>441</ele>
        <time>2014-04-19T12:21:25Z</time>
      </trkpt>
      <trkpt lat="47.38779" lon="4.0409">
        <ele>441</ele>
        <time>2014-04-19T12:21:33Z</time>
      </trkpt>
      <trkpt lat="47.38789" lon="4.04082">
        <ele>443</ele>
        <time>2014-04-19T12:21:43Z</time>
      </trkpt>
      <trkpt lat="47.38795" lon="4.04085">
        <ele>439</ele>
        <time>2014-04-19T12:22:01Z</time>
      </trkpt>
      <trkpt lat="47.38799" lon="4.04089">
        <ele>439</ele>
        <time>2014-04-19T12:22:04Z</time>
      </trkpt>
      <trkpt lat="47.38803" lon="4.04093">
        <ele>439</ele>
        <time>2014-04-19T12:22:08Z</time>
      </trkpt>
      <trkpt lat="47.38808" lon="4.04095">
        <ele>438</ele>
        <time>2014-04-19T12:22:11Z</time>
      </trkpt>
      <trkpt lat="47.38809" lon="4.04101">
        <ele>438</ele>
        <time>2014-04-19T12:22:21Z</time>
      </trkpt>
      <trkpt lat="47.38809" lon="4.04112">
        <ele>438</ele>
        <time>2014-04-19T12:22:27Z</time>
      </trkpt>
      <trkpt lat="47.38808" lon="4.04121">
        <ele>438</ele>
        <time>2014-04-19T12:22:30Z</time>
      </trkpt>
      <trkpt lat="47.38802" lon="4.04142">
        <ele>438</ele>
        <time>2014-04-19T12:22:36Z</time>
      </trkpt>
      <trkpt lat="47.38797" lon="4.04145">
        <ele>438</ele>
        <time>2014-04-19T12:22:41Z</time>
      </trkpt>
      <trkpt lat="47.38791" lon="4.04145">
        <ele>439</ele>
        <time>2014-04-19T12:22:46Z</time>
      </trkpt>
      <trkpt lat="47.38787" lon="4.04139">
        <ele>439</ele>
        <time>2014-04-19T12:22:49Z</time>
      </trkpt>
      <trkpt lat="47.38788" lon="4.04136">
        <ele>439</ele>
        <time>2014-04-19T12:23:05Z</time>
      </trkpt>
      <trkpt lat="47.38789" lon="4.04129">
        <ele>439</ele>
        <time>2014-04-19T12:23:10Z</time>
      </trkpt>
      <trkpt lat="47.38785" lon="4.04123">
        <ele>439</ele>
        <time>2014-04-19T12:23:14Z</time>
      </trkpt>
      <trkpt lat="47.38784" lon="4.04116">
        <ele>440</ele>
        <time>2014-04-19T12:23:19Z</time>
      </trkpt>
      <trkpt lat="47.38784" lon="4.04114">
        <ele>440</ele>
        <time>2014-04-19T12:23:36Z</time>
      </trkpt>
      <trkpt lat="47.38786" lon="4.04106">
        <ele>440</ele>
        <time>2014-04-19T12:23:44Z</time>
      </trkpt>
      <trkpt lat="47.38791" lon="4.041">
        <ele>440</ele>
        <time>2014-04-19T12:24:06Z</time>
      </trkpt>
      <trkpt lat="47.38792" lon="4.04106">
        <ele>439</ele>
        <time>2014-04-19T12:24:26Z</time>
      </trkpt>
      <trkpt lat="47.38783" lon="4.04105">
        <ele>440</ele>
        <time>2014-04-19T12:24:43Z</time>
      </trkpt>
      <trkpt lat="47.38784" lon="4.041">
        <ele>440</ele>
        <time>2014-04-19T12:24:51Z</time>
      </trkpt>
      <trkpt lat="47.38779" lon="4.04099">
        <ele>441</ele>
        <time>2014-04-19T12:25:04Z</time>
      </trkpt>
      <trkpt lat="47.38773" lon="4.04099">
        <ele>441</ele>
        <time>2014-04-19T12:25:08Z</time>
      </trkpt>
      <trkpt lat="47.38769" lon="4.04101">
        <ele>441</ele>
        <time>2014-04-19T12:25:11Z</time>
      </trkpt>
      <trkpt lat="47.38764" lon="4.04104">
        <ele>442</ele>
        <time>2014-04-19T12:25:14Z</time>
      </trkpt>
      <trkpt lat="47.38759" lon="4.04105">
        <ele>442</ele>
        <time>2014-04-19T12:25:18Z</time>
      </trkpt>
      <trkpt lat="47.38753" lon="4.04107">
        <ele>442</ele>
        <time>2014-04-19T12:25:21Z</time>
      </trkpt>
      <trkpt lat="47.38721" lon="4.04129">
        <ele>445</ele>
        <time>2014-04-19T12:26:00Z</time>
      </trkpt>
      <trkpt lat="47.38673" lon="4.04155">
        <ele>445</ele>
        <time>2014-04-19T12:27:04Z</time>
      </trkpt>
      <trkpt lat="47.38579" lon="4.04162">
        <ele>446</ele>
        <time>2014-04-19T12:29:01Z</time>
      </trkpt>
      <trkpt lat="47.38569" lon="4.04345">
        <ele>446</ele>
        <time>2014-04-19T12:31:36Z</time>
      </trkpt>
      <trkpt lat="47.38536" lon="4.04509">
        <ele>453</ele>
        <time>2014-04-19T12:34:00Z</time>
      </trkpt>
      <trkpt lat="47.38529" lon="4.04582">
        <ele>455</ele>
        <time>2014-04-19T12:35:02Z</time>
      </trkpt>
      <trkpt lat="47.38548" lon="4.04644">
        <ele>458</ele>
        <time>2014-04-19T12:35:59Z</time>
      </trkpt>
      <trkpt lat="47.385" lon="4.04714">
        <ele>456</ele>
        <time>2014-04-19T12:37:23Z</time>
      </trkpt>
      <trkpt lat="47.38489" lon="4.04749">
        <ele>457</ele>
        <time>2014-04-19T12:37:56Z</time>
      </trkpt>
      <trkpt lat="47.38447" lon="4.05017">
        <ele>454</ele>
        <time>2014-04-19T12:41:49Z</time>
      </trkpt>
      <trkpt lat="47.38452" lon="4.05088">
        <ele>455</ele>
        <time>2014-04-19T12:42:49Z</time>
      </trkpt>
      <trkpt lat="47.38476" lon="4.05231">
        <ele>451</ele>
        <time>2014-04-19T12:44:53Z</time>
      </trkpt>
      <trkpt lat="47.38537" lon="4.05382">
        <ele>445</ele>
        <time>2014-04-19T12:47:22Z</time>
      </trkpt>
      <trkpt lat="47.38535" lon="4.05633">
        <ele>442</ele>
        <time>2014-04-19T12:50:55Z</time>
      </trkpt>
      <trkpt lat="47.38517" lon="4.05668">
        <ele>448</ele>
        <time>2014-04-19T12:51:33Z</time>
      </trkpt>
      <trkpt lat="47.38487" lon="4.05703">
        <ele>454</ele>
        <time>2014-04-19T12:52:20Z</time>
      </trkpt>
      <trkpt lat="47.38387" lon="4.05707">
        <ele>460</ele>
        <time>2014-04-19T12:54:25Z</time>
      </trkpt>
      <trkpt lat="47.38267" lon="4.05762">
        <ele>469</ele>
        <time>2014-04-19T12:57:02Z</time>
      </trkpt>
      <trkpt lat="47.38237" lon="4.05779">
        <ele>469</ele>
        <time>2014-04-19T12:57:42Z</time>
      </trkpt>
      <trkpt lat="47.38185" lon="4.05826">
        <ele>471</ele>
        <time>2014-04-19T12:58:59Z</time>
      </trkpt>
      <trkpt lat="47.37906" lon="4.06004">
        <ele>479</ele>
        <time>2014-04-19T13:05:19Z</time>
      </trkpt>
      <trkpt lat="47.37804" lon="4.06058">
        <ele>479</ele>
        <time>2014-04-19T13:07:34Z</time>
      </trkpt>
      <trkpt lat="47.37707" lon="4.06191">
        <ele>478</ele>
        <time>2014-04-19T13:10:20Z</time>
      </trkpt>
      <trkpt lat="47.37604" lon="4.06296">
        <ele>479</ele>
        <time>2014-04-19T13:12:57Z</time>
      </trkpt>
      <trkpt lat="47.3761" lon="4.06367">
        <ele>481</ele>
        <time>2014-04-19T13:13:57Z</time>
      </trkpt>
      <trkpt lat="47.37573" lon="4.06438">
        <ele>483</ele>
        <time>2014-04-19T13:15:12Z</time>
      </trkpt>
      <trkpt lat="47.37522" lon="4.06459">
        <ele>485</ele>
        <time>2014-04-19T13:16:18Z</time>
      </trkpt>
      <trkpt lat="47.3737" lon="4.06487">
        <ele>495</ele>
        <time>2014-04-19T13:19:30Z</time>
      </trkpt>
      <trkpt lat="47.37258" lon="4.0647">
        <ele>499</ele>
        <time>2014-04-19T13:21:51Z</time>
      </trkpt>
      <trkpt lat="47.37082" lon="4.06504">
        <ele>499</ele>
        <time>2014-04-19T13:25:33Z</time>
      </trkpt>
      <trkpt lat="47.36962" lon="4.0659">
        <ele>496</ele>
        <time>2014-04-19T13:28:21Z</time>
      </trkpt>
      <trkpt lat="47.36912" lon="4.06592">
        <ele>498</ele>
        <time>2014-04-19T13:29:23Z</time>
      </trkpt>
      <trkpt lat="47.36774" lon="4.06528">
        <ele>498</ele>
        <time>2014-04-19T13:32:25Z</time>
      </trkpt>
      <trkpt lat="47.36675" lon="4.06607">
        <ele>497</ele>
        <time>2014-04-19T13:34:46Z</time>
      </trkpt>
      <trkpt lat="47.36623" lon="4.06629">
        <ele>497</ele>
        <time>2014-04-19T13:35:54Z</time>
      </trkpt>
      <trkpt lat="47.3652" lon="4.06612">
        <ele>493</ele>
        <time>2014-04-19T13:38:05Z</time>
      </trkpt>
      <trkpt lat="47.36172" lon="4.06264">
        <ele>477</ele>
        <time>2014-04-19T13:46:50Z</time>
      </trkpt>
      <trkpt lat="47.36084" lon="4.06221">
        <ele>476</ele>
        <time>2014-04-19T13:48:46Z</time>
      </trkpt>
      <trkpt lat="47.35931" lon="4.06114">
        <ele>476</ele>
        <time>2014-04-19T13:52:18Z</time>
      </trkpt>
      <trkpt lat="47.35826" lon="4.06277">
        <ele>470</ele>
        <time>2014-04-19T13:55:28Z</time>
      </trkpt>
    </trkseg>
  </trk>
</gpx>